<?xml version="1.0" encoding="UTF-8" standalone="no" ?>
<gpx xmlns="http://www.topografix.com/GPX/1/1" xmlns:xsi="http://www.w3.org/2001/XMLSchema-instance" xsi:schemaLocation="http://www.topografix.com/GPX/1/1 http://www.topografix.com/GPX/1/1/gpx.xsd" version="1.1" creator="VisuGPX - https://www.visugpx.com">
  <metadata>
    <name>Randonnée Cascade d'Ars + Cabane de Guzettou</name>
  </metadata>
  <trk>
    <name><![CDATA[Randonnée]]></name>
    <trkseg>
      <trkpt lat="42.78991" lon="1.33632">
        <ele>743.5</ele>
        <time>2025-09-13T12:00:32+02:00</time>
      </trkpt>
      <trkpt lat="42.78989" lon="1.33629">
        <ele>743.2002</ele>
        <time>2025-09-13T12:00:36+02:00</time>
      </trkpt>
      <trkpt lat="42.78989" lon="1.33628">
        <ele>743.2002</ele>
        <time>2025-09-13T12:00:37+02:00</time>
      </trkpt>
      <trkpt lat="42.78988" lon="1.33623">
        <ele>743.2002</ele>
        <time>2025-09-13T12:00:41+02:00</time>
      </trkpt>
      <trkpt lat="42.78987" lon="1.33622">
        <ele>743.2002</ele>
        <time>2025-09-13T12:00:42+02:00</time>
      </trkpt>
      <trkpt lat="42.78985" lon="1.33618">
        <ele>743</ele>
        <time>2025-09-13T12:00:46+02:00</time>
      </trkpt>
      <trkpt lat="42.78984" lon="1.33617">
        <ele>743</ele>
        <time>2025-09-13T12:00:47+02:00</time>
      </trkpt>
      <trkpt lat="42.78982" lon="1.33612">
        <ele>742.9004</ele>
        <time>2025-09-13T12:00:51+02:00</time>
      </trkpt>
      <trkpt lat="42.78981" lon="1.33611">
        <ele>742.9004</ele>
        <time>2025-09-13T12:00:52+02:00</time>
      </trkpt>
      <trkpt lat="42.78978" lon="1.33609">
        <ele>743</ele>
        <time>2025-09-13T12:00:56+02:00</time>
      </trkpt>
      <trkpt lat="42.78977" lon="1.33609">
        <ele>743</ele>
        <time>2025-09-13T12:00:57+02:00</time>
      </trkpt>
      <trkpt lat="42.78976" lon="1.3361">
        <ele>743</ele>
        <time>2025-09-13T12:01:01+02:00</time>
      </trkpt>
      <trkpt lat="42.78975" lon="1.3361">
        <ele>743</ele>
        <time>2025-09-13T12:01:02+02:00</time>
      </trkpt>
      <trkpt lat="42.78974" lon="1.3361">
        <ele>743</ele>
        <time>2025-09-13T12:01:06+02:00</time>
      </trkpt>
      <trkpt lat="42.78974" lon="1.3361">
        <ele>743</ele>
        <time>2025-09-13T12:01:07+02:00</time>
      </trkpt>
      <trkpt lat="42.78974" lon="1.33609">
        <ele>743</ele>
        <time>2025-09-13T12:01:11+02:00</time>
      </trkpt>
      <trkpt lat="42.78974" lon="1.33609">
        <ele>743</ele>
        <time>2025-09-13T12:01:12+02:00</time>
      </trkpt>
      <trkpt lat="42.78972" lon="1.33606">
        <ele>743.1006</ele>
        <time>2025-09-13T12:01:16+02:00</time>
      </trkpt>
      <trkpt lat="42.78971" lon="1.33605">
        <ele>743.1006</ele>
        <time>2025-09-13T12:01:17+02:00</time>
      </trkpt>
      <trkpt lat="42.78967" lon="1.33601">
        <ele>743</ele>
        <time>2025-09-13T12:01:21+02:00</time>
      </trkpt>
      <trkpt lat="42.78966" lon="1.33601">
        <ele>743.1006</ele>
        <time>2025-09-13T12:01:22+02:00</time>
      </trkpt>
      <trkpt lat="42.78962" lon="1.33599">
        <ele>743.1006</ele>
        <time>2025-09-13T12:01:26+02:00</time>
      </trkpt>
      <trkpt lat="42.78961" lon="1.33598">
        <ele>743.1006</ele>
        <time>2025-09-13T12:01:27+02:00</time>
      </trkpt>
      <trkpt lat="42.78957" lon="1.33596">
        <ele>743.2002</ele>
        <time>2025-09-13T12:01:31+02:00</time>
      </trkpt>
      <trkpt lat="42.78956" lon="1.33596">
        <ele>743.2002</ele>
        <time>2025-09-13T12:01:32+02:00</time>
      </trkpt>
      <trkpt lat="42.78951" lon="1.33595">
        <ele>743.4004</ele>
        <time>2025-09-13T12:01:36+02:00</time>
      </trkpt>
      <trkpt lat="42.7895" lon="1.33595">
        <ele>743.4004</ele>
        <time>2025-09-13T12:01:37+02:00</time>
      </trkpt>
      <trkpt lat="42.78946" lon="1.33594">
        <ele>743.6006</ele>
        <time>2025-09-13T12:01:41+02:00</time>
      </trkpt>
      <trkpt lat="42.78945" lon="1.33594">
        <ele>743.6006</ele>
        <time>2025-09-13T12:01:42+02:00</time>
      </trkpt>
      <trkpt lat="42.7894" lon="1.33595">
        <ele>743.9004</ele>
        <time>2025-09-13T12:01:46+02:00</time>
      </trkpt>
      <trkpt lat="42.78939" lon="1.33595">
        <ele>743.9004</ele>
        <time>2025-09-13T12:01:47+02:00</time>
      </trkpt>
      <trkpt lat="42.78935" lon="1.33598">
        <ele>743.7002</ele>
        <time>2025-09-13T12:01:51+02:00</time>
      </trkpt>
      <trkpt lat="42.78934" lon="1.33598">
        <ele>743.7002</ele>
        <time>2025-09-13T12:01:52+02:00</time>
      </trkpt>
      <trkpt lat="42.7893" lon="1.336">
        <ele>743.7002</ele>
        <time>2025-09-13T12:01:56+02:00</time>
      </trkpt>
      <trkpt lat="42.78929" lon="1.33601">
        <ele>743.7002</ele>
        <time>2025-09-13T12:01:57+02:00</time>
      </trkpt>
      <trkpt lat="42.78926" lon="1.33604">
        <ele>743.2998</ele>
        <time>2025-09-13T12:02:01+02:00</time>
      </trkpt>
      <trkpt lat="42.78925" lon="1.33605">
        <ele>743.2998</ele>
        <time>2025-09-13T12:02:02+02:00</time>
      </trkpt>
      <trkpt lat="42.78923" lon="1.33609">
        <ele>743.7002</ele>
        <time>2025-09-13T12:02:06+02:00</time>
      </trkpt>
      <trkpt lat="42.78922" lon="1.33609">
        <ele>743.7002</ele>
        <time>2025-09-13T12:02:07+02:00</time>
      </trkpt>
      <trkpt lat="42.78919" lon="1.33611">
        <ele>743.7002</ele>
        <time>2025-09-13T12:02:11+02:00</time>
      </trkpt>
      <trkpt lat="42.78918" lon="1.33612">
        <ele>743.7002</ele>
        <time>2025-09-13T12:02:12+02:00</time>
      </trkpt>
      <trkpt lat="42.78915" lon="1.33615">
        <ele>743.7002</ele>
        <time>2025-09-13T12:02:16+02:00</time>
      </trkpt>
      <trkpt lat="42.78914" lon="1.33615">
        <ele>743.7002</ele>
        <time>2025-09-13T12:02:17+02:00</time>
      </trkpt>
      <trkpt lat="42.78911" lon="1.33618">
        <ele>743.7002</ele>
        <time>2025-09-13T12:02:21+02:00</time>
      </trkpt>
      <trkpt lat="42.7891" lon="1.33618">
        <ele>743.7002</ele>
        <time>2025-09-13T12:02:22+02:00</time>
      </trkpt>
      <trkpt lat="42.78907" lon="1.33621">
        <ele>744.2998</ele>
        <time>2025-09-13T12:02:26+02:00</time>
      </trkpt>
      <trkpt lat="42.78906" lon="1.33621">
        <ele>743.7998</ele>
        <time>2025-09-13T12:02:27+02:00</time>
      </trkpt>
      <trkpt lat="42.78903" lon="1.33624">
        <ele>744.4004</ele>
        <time>2025-09-13T12:02:31+02:00</time>
      </trkpt>
      <trkpt lat="42.78902" lon="1.33624">
        <ele>744.4004</ele>
        <time>2025-09-13T12:02:32+02:00</time>
      </trkpt>
      <trkpt lat="42.78899" lon="1.33627">
        <ele>744.4004</ele>
        <time>2025-09-13T12:02:36+02:00</time>
      </trkpt>
      <trkpt lat="42.78898" lon="1.33628">
        <ele>744.4004</ele>
        <time>2025-09-13T12:02:37+02:00</time>
      </trkpt>
      <trkpt lat="42.78895" lon="1.33631">
        <ele>744.6006</ele>
        <time>2025-09-13T12:02:41+02:00</time>
      </trkpt>
      <trkpt lat="42.78895" lon="1.33632">
        <ele>744.6006</ele>
        <time>2025-09-13T12:02:42+02:00</time>
      </trkpt>
      <trkpt lat="42.78892" lon="1.33635">
        <ele>744.6006</ele>
        <time>2025-09-13T12:02:46+02:00</time>
      </trkpt>
      <trkpt lat="42.78891" lon="1.33636">
        <ele>745.2998</ele>
        <time>2025-09-13T12:02:47+02:00</time>
      </trkpt>
      <trkpt lat="42.78888" lon="1.33639">
        <ele>744.7002</ele>
        <time>2025-09-13T12:02:51+02:00</time>
      </trkpt>
      <trkpt lat="42.78888" lon="1.3364">
        <ele>744.7002</ele>
        <time>2025-09-13T12:02:52+02:00</time>
      </trkpt>
      <trkpt lat="42.78885" lon="1.33643">
        <ele>745.6006</ele>
        <time>2025-09-13T12:02:56+02:00</time>
      </trkpt>
      <trkpt lat="42.78884" lon="1.33644">
        <ele>745.6006</ele>
        <time>2025-09-13T12:02:57+02:00</time>
      </trkpt>
      <trkpt lat="42.78881" lon="1.33647">
        <ele>745.6006</ele>
        <time>2025-09-13T12:03:01+02:00</time>
      </trkpt>
      <trkpt lat="42.7888" lon="1.33647">
        <ele>745.1006</ele>
        <time>2025-09-13T12:03:02+02:00</time>
      </trkpt>
      <trkpt lat="42.78878" lon="1.33651">
        <ele>746</ele>
        <time>2025-09-13T12:03:06+02:00</time>
      </trkpt>
      <trkpt lat="42.78877" lon="1.33651">
        <ele>746</ele>
        <time>2025-09-13T12:03:07+02:00</time>
      </trkpt>
      <trkpt lat="42.78875" lon="1.33655">
        <ele>746</ele>
        <time>2025-09-13T12:03:11+02:00</time>
      </trkpt>
      <trkpt lat="42.78874" lon="1.33655">
        <ele>746</ele>
        <time>2025-09-13T12:03:12+02:00</time>
      </trkpt>
      <trkpt lat="42.78872" lon="1.33659">
        <ele>746.5</ele>
        <time>2025-09-13T12:03:16+02:00</time>
      </trkpt>
      <trkpt lat="42.78871" lon="1.3366">
        <ele>746.5</ele>
        <time>2025-09-13T12:03:17+02:00</time>
      </trkpt>
      <trkpt lat="42.78868" lon="1.33664">
        <ele>746.5</ele>
        <time>2025-09-13T12:03:21+02:00</time>
      </trkpt>
      <trkpt lat="42.78868" lon="1.33665">
        <ele>746.1006</ele>
        <time>2025-09-13T12:03:22+02:00</time>
      </trkpt>
      <trkpt lat="42.78866" lon="1.33667">
        <ele>746.1006</ele>
        <time>2025-09-13T12:03:26+02:00</time>
      </trkpt>
      <trkpt lat="42.78867" lon="1.33667">
        <ele>746.1006</ele>
        <time>2025-09-13T12:03:27+02:00</time>
      </trkpt>
      <trkpt lat="42.78867" lon="1.33665">
        <ele>746.1006</ele>
        <time>2025-09-13T12:03:31+02:00</time>
      </trkpt>
      <trkpt lat="42.78868" lon="1.33665">
        <ele>746.1006</ele>
        <time>2025-09-13T12:03:32+02:00</time>
      </trkpt>
      <trkpt lat="42.78868" lon="1.33665">
        <ele>746.1006</ele>
        <time>2025-09-13T12:03:37+02:00</time>
      </trkpt>
      <trkpt lat="42.78868" lon="1.33665">
        <ele>746.1006</ele>
        <time>2025-09-13T12:03:38+02:00</time>
      </trkpt>
      <trkpt lat="42.78868" lon="1.33665">
        <ele>746.1006</ele>
        <time>2025-09-13T12:03:42+02:00</time>
      </trkpt>
      <trkpt lat="42.78868" lon="1.33665">
        <ele>746.1006</ele>
        <time>2025-09-13T12:03:43+02:00</time>
      </trkpt>
      <trkpt lat="42.78869" lon="1.33665">
        <ele>746.1006</ele>
        <time>2025-09-13T12:03:47+02:00</time>
      </trkpt>
      <trkpt lat="42.78869" lon="1.33665">
        <ele>746.1006</ele>
        <time>2025-09-13T12:03:48+02:00</time>
      </trkpt>
      <trkpt lat="42.78869" lon="1.33665">
        <ele>746.1006</ele>
        <time>2025-09-13T12:03:52+02:00</time>
      </trkpt>
      <trkpt lat="42.78869" lon="1.33665">
        <ele>746.1006</ele>
        <time>2025-09-13T12:03:53+02:00</time>
      </trkpt>
      <trkpt lat="42.7887" lon="1.33665">
        <ele>746.1006</ele>
        <time>2025-09-13T12:03:57+02:00</time>
      </trkpt>
      <trkpt lat="42.7887" lon="1.33665">
        <ele>746.1006</ele>
        <time>2025-09-13T12:03:58+02:00</time>
      </trkpt>
      <trkpt lat="42.7887" lon="1.33665">
        <ele>746.1006</ele>
        <time>2025-09-13T12:04:02+02:00</time>
      </trkpt>
      <trkpt lat="42.7887" lon="1.33665">
        <ele>746.1006</ele>
        <time>2025-09-13T12:04:03+02:00</time>
      </trkpt>
      <trkpt lat="42.7887" lon="1.33666">
        <ele>746.1006</ele>
        <time>2025-09-13T12:04:07+02:00</time>
      </trkpt>
      <trkpt lat="42.7887" lon="1.33666">
        <ele>746.1006</ele>
        <time>2025-09-13T12:04:08+02:00</time>
      </trkpt>
      <trkpt lat="42.7887" lon="1.33666">
        <ele>746.1006</ele>
        <time>2025-09-13T12:04:12+02:00</time>
      </trkpt>
      <trkpt lat="42.7887" lon="1.33666">
        <ele>746.1006</ele>
        <time>2025-09-13T12:04:13+02:00</time>
      </trkpt>
      <trkpt lat="42.7887" lon="1.33665">
        <ele>746.1006</ele>
        <time>2025-09-13T12:04:17+02:00</time>
      </trkpt>
      <trkpt lat="42.7887" lon="1.33665">
        <ele>746.1006</ele>
        <time>2025-09-13T12:04:18+02:00</time>
      </trkpt>
      <trkpt lat="42.7887" lon="1.33665">
        <ele>746.1006</ele>
        <time>2025-09-13T12:04:22+02:00</time>
      </trkpt>
      <trkpt lat="42.7887" lon="1.33665">
        <ele>746.1006</ele>
        <time>2025-09-13T12:04:23+02:00</time>
      </trkpt>
      <trkpt lat="42.7887" lon="1.33665">
        <ele>746.1006</ele>
        <time>2025-09-13T12:04:27+02:00</time>
      </trkpt>
      <trkpt lat="42.7887" lon="1.33665">
        <ele>746.1006</ele>
        <time>2025-09-13T12:04:28+02:00</time>
      </trkpt>
      <trkpt lat="42.78869" lon="1.33665">
        <ele>746.1006</ele>
        <time>2025-09-13T12:04:32+02:00</time>
      </trkpt>
      <trkpt lat="42.78869" lon="1.33665">
        <ele>746.1006</ele>
        <time>2025-09-13T12:04:33+02:00</time>
      </trkpt>
      <trkpt lat="42.78869" lon="1.33666">
        <ele>746.1006</ele>
        <time>2025-09-13T12:04:37+02:00</time>
      </trkpt>
      <trkpt lat="42.78869" lon="1.33666">
        <ele>746.1006</ele>
        <time>2025-09-13T12:04:38+02:00</time>
      </trkpt>
      <trkpt lat="42.78868" lon="1.33667">
        <ele>746.1006</ele>
        <time>2025-09-13T12:04:42+02:00</time>
      </trkpt>
      <trkpt lat="42.78867" lon="1.33668">
        <ele>746.1006</ele>
        <time>2025-09-13T12:04:43+02:00</time>
      </trkpt>
      <trkpt lat="42.78865" lon="1.33671">
        <ele>747.2002</ele>
        <time>2025-09-13T12:04:47+02:00</time>
      </trkpt>
      <trkpt lat="42.78864" lon="1.33671">
        <ele>747.2002</ele>
        <time>2025-09-13T12:04:48+02:00</time>
      </trkpt>
      <trkpt lat="42.78862" lon="1.33672">
        <ele>747.2002</ele>
        <time>2025-09-13T12:04:52+02:00</time>
      </trkpt>
      <trkpt lat="42.78862" lon="1.33672">
        <ele>747.2002</ele>
        <time>2025-09-13T12:04:53+02:00</time>
      </trkpt>
      <trkpt lat="42.7886" lon="1.33674">
        <ele>747</ele>
        <time>2025-09-13T12:04:57+02:00</time>
      </trkpt>
      <trkpt lat="42.7886" lon="1.33674">
        <ele>747</ele>
        <time>2025-09-13T12:04:58+02:00</time>
      </trkpt>
      <trkpt lat="42.7886" lon="1.33673">
        <ele>748.2002</ele>
        <time>2025-09-13T12:05:02+02:00</time>
      </trkpt>
      <trkpt lat="42.78859" lon="1.33673">
        <ele>748.2002</ele>
        <time>2025-09-13T12:05:03+02:00</time>
      </trkpt>
      <trkpt lat="42.78859" lon="1.33673">
        <ele>748.2002</ele>
        <time>2025-09-13T12:05:07+02:00</time>
      </trkpt>
      <trkpt lat="42.78858" lon="1.33673">
        <ele>748.2002</ele>
        <time>2025-09-13T12:05:08+02:00</time>
      </trkpt>
      <trkpt lat="42.78855" lon="1.33675">
        <ele>748.2002</ele>
        <time>2025-09-13T12:05:12+02:00</time>
      </trkpt>
      <trkpt lat="42.78854" lon="1.33675">
        <ele>748.2002</ele>
        <time>2025-09-13T12:05:13+02:00</time>
      </trkpt>
      <trkpt lat="42.7885" lon="1.33678">
        <ele>749.7002</ele>
        <time>2025-09-13T12:05:17+02:00</time>
      </trkpt>
      <trkpt lat="42.78849" lon="1.33679">
        <ele>749.7002</ele>
        <time>2025-09-13T12:05:18+02:00</time>
      </trkpt>
      <trkpt lat="42.78846" lon="1.33683">
        <ele>751</ele>
        <time>2025-09-13T12:05:22+02:00</time>
      </trkpt>
      <trkpt lat="42.78845" lon="1.33684">
        <ele>751</ele>
        <time>2025-09-13T12:05:23+02:00</time>
      </trkpt>
      <trkpt lat="42.78842" lon="1.33687">
        <ele>751</ele>
        <time>2025-09-13T12:05:27+02:00</time>
      </trkpt>
      <trkpt lat="42.78841" lon="1.33687">
        <ele>752.7998</ele>
        <time>2025-09-13T12:05:28+02:00</time>
      </trkpt>
      <trkpt lat="42.78837" lon="1.3369">
        <ele>752.7998</ele>
        <time>2025-09-13T12:05:32+02:00</time>
      </trkpt>
      <trkpt lat="42.78836" lon="1.3369">
        <ele>752.5</ele>
        <time>2025-09-13T12:05:33+02:00</time>
      </trkpt>
      <trkpt lat="42.78834" lon="1.33694">
        <ele>754.5</ele>
        <time>2025-09-13T12:05:37+02:00</time>
      </trkpt>
      <trkpt lat="42.78833" lon="1.33694">
        <ele>754.5</ele>
        <time>2025-09-13T12:05:38+02:00</time>
      </trkpt>
      <trkpt lat="42.78829" lon="1.33698">
        <ele>754.5</ele>
        <time>2025-09-13T12:05:42+02:00</time>
      </trkpt>
      <trkpt lat="42.78829" lon="1.33699">
        <ele>754.1006</ele>
        <time>2025-09-13T12:05:43+02:00</time>
      </trkpt>
      <trkpt lat="42.78825" lon="1.33702">
        <ele>756.4004</ele>
        <time>2025-09-13T12:05:47+02:00</time>
      </trkpt>
      <trkpt lat="42.78823" lon="1.33702">
        <ele>756.4004</ele>
        <time>2025-09-13T12:05:48+02:00</time>
      </trkpt>
      <trkpt lat="42.7882" lon="1.33704">
        <ele>759</ele>
        <time>2025-09-13T12:05:52+02:00</time>
      </trkpt>
      <trkpt lat="42.78819" lon="1.33705">
        <ele>759</ele>
        <time>2025-09-13T12:05:53+02:00</time>
      </trkpt>
      <trkpt lat="42.78816" lon="1.33709">
        <ele>758.4004</ele>
        <time>2025-09-13T12:05:57+02:00</time>
      </trkpt>
      <trkpt lat="42.78815" lon="1.3371">
        <ele>761.2002</ele>
        <time>2025-09-13T12:05:58+02:00</time>
      </trkpt>
      <trkpt lat="42.78812" lon="1.33714">
        <ele>761.2002</ele>
        <time>2025-09-13T12:06:02+02:00</time>
      </trkpt>
      <trkpt lat="42.78812" lon="1.33715">
        <ele>761.2002</ele>
        <time>2025-09-13T12:06:03+02:00</time>
      </trkpt>
      <trkpt lat="42.7881" lon="1.33719">
        <ele>760.5</ele>
        <time>2025-09-13T12:06:07+02:00</time>
      </trkpt>
      <trkpt lat="42.78809" lon="1.3372">
        <ele>763.4004</ele>
        <time>2025-09-13T12:06:08+02:00</time>
      </trkpt>
      <trkpt lat="42.78807" lon="1.33725">
        <ele>762.6006</ele>
        <time>2025-09-13T12:06:12+02:00</time>
      </trkpt>
      <trkpt lat="42.78806" lon="1.33726">
        <ele>762.6006</ele>
        <time>2025-09-13T12:06:13+02:00</time>
      </trkpt>
      <trkpt lat="42.78804" lon="1.33731">
        <ele>762.6006</ele>
        <time>2025-09-13T12:06:17+02:00</time>
      </trkpt>
      <trkpt lat="42.78804" lon="1.33732">
        <ele>762.6006</ele>
        <time>2025-09-13T12:06:18+02:00</time>
      </trkpt>
      <trkpt lat="42.78802" lon="1.33737">
        <ele>764.6006</ele>
        <time>2025-09-13T12:06:22+02:00</time>
      </trkpt>
      <trkpt lat="42.78801" lon="1.33738">
        <ele>764.6006</ele>
        <time>2025-09-13T12:06:23+02:00</time>
      </trkpt>
      <trkpt lat="42.78799" lon="1.33742">
        <ele>763.7002</ele>
        <time>2025-09-13T12:06:27+02:00</time>
      </trkpt>
      <trkpt lat="42.78798" lon="1.33743">
        <ele>763.7002</ele>
        <time>2025-09-13T12:06:28+02:00</time>
      </trkpt>
      <trkpt lat="42.78796" lon="1.33746">
        <ele>766.5</ele>
        <time>2025-09-13T12:06:32+02:00</time>
      </trkpt>
      <trkpt lat="42.78795" lon="1.33747">
        <ele>766.5</ele>
        <time>2025-09-13T12:06:33+02:00</time>
      </trkpt>
      <trkpt lat="42.78793" lon="1.33751">
        <ele>765.5</ele>
        <time>2025-09-13T12:06:37+02:00</time>
      </trkpt>
      <trkpt lat="42.78793" lon="1.33752">
        <ele>765.5</ele>
        <time>2025-09-13T12:06:38+02:00</time>
      </trkpt>
      <trkpt lat="42.78791" lon="1.33757">
        <ele>765.5</ele>
        <time>2025-09-13T12:06:42+02:00</time>
      </trkpt>
      <trkpt lat="42.78791" lon="1.33758">
        <ele>765.5</ele>
        <time>2025-09-13T12:06:43+02:00</time>
      </trkpt>
      <trkpt lat="42.78788" lon="1.33762">
        <ele>767.2998</ele>
        <time>2025-09-13T12:06:47+02:00</time>
      </trkpt>
      <trkpt lat="42.78788" lon="1.33763">
        <ele>767.2998</ele>
        <time>2025-09-13T12:06:48+02:00</time>
      </trkpt>
      <trkpt lat="42.78785" lon="1.33766">
        <ele>767.2998</ele>
        <time>2025-09-13T12:06:52+02:00</time>
      </trkpt>
      <trkpt lat="42.78785" lon="1.33767">
        <ele>767.2998</ele>
        <time>2025-09-13T12:06:53+02:00</time>
      </trkpt>
      <trkpt lat="42.78782" lon="1.33769">
        <ele>769.1006</ele>
        <time>2025-09-13T12:06:57+02:00</time>
      </trkpt>
      <trkpt lat="42.78782" lon="1.3377">
        <ele>769.1006</ele>
        <time>2025-09-13T12:06:58+02:00</time>
      </trkpt>
      <trkpt lat="42.78779" lon="1.33774">
        <ele>769.1006</ele>
        <time>2025-09-13T12:07:02+02:00</time>
      </trkpt>
      <trkpt lat="42.78779" lon="1.33775">
        <ele>769.1006</ele>
        <time>2025-09-13T12:07:03+02:00</time>
      </trkpt>
      <trkpt lat="42.78777" lon="1.33779">
        <ele>770.7998</ele>
        <time>2025-09-13T12:07:07+02:00</time>
      </trkpt>
      <trkpt lat="42.78776" lon="1.3378">
        <ele>770.7998</ele>
        <time>2025-09-13T12:07:08+02:00</time>
      </trkpt>
      <trkpt lat="42.78774" lon="1.33784">
        <ele>770.7998</ele>
        <time>2025-09-13T12:07:12+02:00</time>
      </trkpt>
      <trkpt lat="42.78774" lon="1.33785">
        <ele>769.7002</ele>
        <time>2025-09-13T12:07:13+02:00</time>
      </trkpt>
      <trkpt lat="42.78772" lon="1.33791">
        <ele>769.7002</ele>
        <time>2025-09-13T12:07:17+02:00</time>
      </trkpt>
      <trkpt lat="42.78772" lon="1.33792">
        <ele>769.7002</ele>
        <time>2025-09-13T12:07:18+02:00</time>
      </trkpt>
      <trkpt lat="42.78771" lon="1.33798">
        <ele>771.2002</ele>
        <time>2025-09-13T12:07:22+02:00</time>
      </trkpt>
      <trkpt lat="42.7877" lon="1.33799">
        <ele>771.2002</ele>
        <time>2025-09-13T12:07:23+02:00</time>
      </trkpt>
      <trkpt lat="42.78768" lon="1.33804">
        <ele>770.1006</ele>
        <time>2025-09-13T12:07:27+02:00</time>
      </trkpt>
      <trkpt lat="42.78767" lon="1.33805">
        <ele>770.1006</ele>
        <time>2025-09-13T12:07:28+02:00</time>
      </trkpt>
      <trkpt lat="42.78765" lon="1.33809">
        <ele>772.6006</ele>
        <time>2025-09-13T12:07:32+02:00</time>
      </trkpt>
      <trkpt lat="42.78764" lon="1.3381">
        <ele>772.6006</ele>
        <time>2025-09-13T12:07:33+02:00</time>
      </trkpt>
      <trkpt lat="42.78761" lon="1.33813">
        <ele>771.5</ele>
        <time>2025-09-13T12:07:37+02:00</time>
      </trkpt>
      <trkpt lat="42.7876" lon="1.33813">
        <ele>771.5</ele>
        <time>2025-09-13T12:07:38+02:00</time>
      </trkpt>
      <trkpt lat="42.78757" lon="1.33817">
        <ele>773.9004</ele>
        <time>2025-09-13T12:07:42+02:00</time>
      </trkpt>
      <trkpt lat="42.78756" lon="1.33818">
        <ele>773.9004</ele>
        <time>2025-09-13T12:07:43+02:00</time>
      </trkpt>
      <trkpt lat="42.78754" lon="1.33822">
        <ele>772.7998</ele>
        <time>2025-09-13T12:07:47+02:00</time>
      </trkpt>
      <trkpt lat="42.78754" lon="1.33824">
        <ele>772.7998</ele>
        <time>2025-09-13T12:07:48+02:00</time>
      </trkpt>
      <trkpt lat="42.78752" lon="1.33828">
        <ele>774.2002</ele>
        <time>2025-09-13T12:07:52+02:00</time>
      </trkpt>
      <trkpt lat="42.78752" lon="1.33828">
        <ele>774.2002</ele>
        <time>2025-09-13T12:07:53+02:00</time>
      </trkpt>
      <trkpt lat="42.78752" lon="1.33825">
        <ele>775.2998</ele>
        <time>2025-09-13T12:07:57+02:00</time>
      </trkpt>
      <trkpt lat="42.78752" lon="1.33825">
        <ele>775.2998</ele>
        <time>2025-09-13T12:07:58+02:00</time>
      </trkpt>
      <trkpt lat="42.78753" lon="1.33824">
        <ele>775.2998</ele>
        <time>2025-09-13T12:08:02+02:00</time>
      </trkpt>
      <trkpt lat="42.78753" lon="1.33824">
        <ele>775.2998</ele>
        <time>2025-09-13T12:08:03+02:00</time>
      </trkpt>
      <trkpt lat="42.7875" lon="1.33828">
        <ele>774.2002</ele>
        <time>2025-09-13T12:08:07+02:00</time>
      </trkpt>
      <trkpt lat="42.7875" lon="1.33829">
        <ele>774.2002</ele>
        <time>2025-09-13T12:08:08+02:00</time>
      </trkpt>
      <trkpt lat="42.78748" lon="1.33836">
        <ele>773.2002</ele>
        <time>2025-09-13T12:08:12+02:00</time>
      </trkpt>
      <trkpt lat="42.78747" lon="1.33837">
        <ele>773.2002</ele>
        <time>2025-09-13T12:08:13+02:00</time>
      </trkpt>
      <trkpt lat="42.78744" lon="1.33842">
        <ele>775.7998</ele>
        <time>2025-09-13T12:08:17+02:00</time>
      </trkpt>
      <trkpt lat="42.78744" lon="1.33842">
        <ele>775.7998</ele>
        <time>2025-09-13T12:08:18+02:00</time>
      </trkpt>
      <trkpt lat="42.78742" lon="1.33843">
        <ele>775.7998</ele>
        <time>2025-09-13T12:08:22+02:00</time>
      </trkpt>
      <trkpt lat="42.78742" lon="1.33842">
        <ele>775.7998</ele>
        <time>2025-09-13T12:08:23+02:00</time>
      </trkpt>
      <trkpt lat="42.78742" lon="1.33841">
        <ele>775.7998</ele>
        <time>2025-09-13T12:08:27+02:00</time>
      </trkpt>
      <trkpt lat="42.78742" lon="1.33841">
        <ele>775.7998</ele>
        <time>2025-09-13T12:08:28+02:00</time>
      </trkpt>
      <trkpt lat="42.78742" lon="1.3384">
        <ele>775.7998</ele>
        <time>2025-09-13T12:08:32+02:00</time>
      </trkpt>
      <trkpt lat="42.78742" lon="1.3384">
        <ele>775.7998</ele>
        <time>2025-09-13T12:08:33+02:00</time>
      </trkpt>
      <trkpt lat="42.78743" lon="1.3384">
        <ele>775.7998</ele>
        <time>2025-09-13T12:08:37+02:00</time>
      </trkpt>
      <trkpt lat="42.78743" lon="1.3384">
        <ele>775.7998</ele>
        <time>2025-09-13T12:08:38+02:00</time>
      </trkpt>
      <trkpt lat="42.78744" lon="1.33841">
        <ele>775.7998</ele>
        <time>2025-09-13T12:08:42+02:00</time>
      </trkpt>
      <trkpt lat="42.78745" lon="1.33841">
        <ele>775.7998</ele>
        <time>2025-09-13T12:08:43+02:00</time>
      </trkpt>
      <trkpt lat="42.78745" lon="1.33841">
        <ele>775.7998</ele>
        <time>2025-09-13T12:08:47+02:00</time>
      </trkpt>
      <trkpt lat="42.78745" lon="1.33841">
        <ele>775.7998</ele>
        <time>2025-09-13T12:08:48+02:00</time>
      </trkpt>
      <trkpt lat="42.78745" lon="1.33841">
        <ele>775.7998</ele>
        <time>2025-09-13T12:08:52+02:00</time>
      </trkpt>
      <trkpt lat="42.78745" lon="1.33841">
        <ele>775.7998</ele>
        <time>2025-09-13T12:08:53+02:00</time>
      </trkpt>
      <trkpt lat="42.78745" lon="1.33841">
        <ele>775.7998</ele>
        <time>2025-09-13T12:08:57+02:00</time>
      </trkpt>
      <trkpt lat="42.78745" lon="1.33841">
        <ele>775.7998</ele>
        <time>2025-09-13T12:08:58+02:00</time>
      </trkpt>
      <trkpt lat="42.78745" lon="1.33841">
        <ele>775.7998</ele>
        <time>2025-09-13T12:09:02+02:00</time>
      </trkpt>
      <trkpt lat="42.78745" lon="1.33841">
        <ele>775.7998</ele>
        <time>2025-09-13T12:09:03+02:00</time>
      </trkpt>
      <trkpt lat="42.78745" lon="1.33841">
        <ele>775.7998</ele>
        <time>2025-09-13T12:09:07+02:00</time>
      </trkpt>
      <trkpt lat="42.78745" lon="1.33841">
        <ele>775.7998</ele>
        <time>2025-09-13T12:09:08+02:00</time>
      </trkpt>
      <trkpt lat="42.78745" lon="1.33841">
        <ele>775.7998</ele>
        <time>2025-09-13T12:09:12+02:00</time>
      </trkpt>
      <trkpt lat="42.78745" lon="1.33841">
        <ele>775.7998</ele>
        <time>2025-09-13T12:09:13+02:00</time>
      </trkpt>
      <trkpt lat="42.78745" lon="1.33841">
        <ele>775.7998</ele>
        <time>2025-09-13T12:09:17+02:00</time>
      </trkpt>
      <trkpt lat="42.78745" lon="1.33841">
        <ele>775.7998</ele>
        <time>2025-09-13T12:09:18+02:00</time>
      </trkpt>
      <trkpt lat="42.78745" lon="1.33841">
        <ele>775.7998</ele>
        <time>2025-09-13T12:09:22+02:00</time>
      </trkpt>
      <trkpt lat="42.78745" lon="1.33841">
        <ele>775.7998</ele>
        <time>2025-09-13T12:09:23+02:00</time>
      </trkpt>
      <trkpt lat="42.78745" lon="1.33841">
        <ele>775.7998</ele>
        <time>2025-09-13T12:09:27+02:00</time>
      </trkpt>
      <trkpt lat="42.78745" lon="1.33841">
        <ele>775.7998</ele>
        <time>2025-09-13T12:09:28+02:00</time>
      </trkpt>
      <trkpt lat="42.78745" lon="1.33841">
        <ele>775.7998</ele>
        <time>2025-09-13T12:09:32+02:00</time>
      </trkpt>
      <trkpt lat="42.78745" lon="1.33841">
        <ele>775.7998</ele>
        <time>2025-09-13T12:09:33+02:00</time>
      </trkpt>
      <trkpt lat="42.78745" lon="1.33841">
        <ele>775.7998</ele>
        <time>2025-09-13T12:09:37+02:00</time>
      </trkpt>
      <trkpt lat="42.78745" lon="1.33841">
        <ele>775.7998</ele>
        <time>2025-09-13T12:09:38+02:00</time>
      </trkpt>
      <trkpt lat="42.78745" lon="1.33841">
        <ele>775.7998</ele>
        <time>2025-09-13T12:09:42+02:00</time>
      </trkpt>
      <trkpt lat="42.78745" lon="1.33841">
        <ele>775.7998</ele>
        <time>2025-09-13T12:09:43+02:00</time>
      </trkpt>
      <trkpt lat="42.78745" lon="1.33841">
        <ele>775.7998</ele>
        <time>2025-09-13T12:09:47+02:00</time>
      </trkpt>
      <trkpt lat="42.78745" lon="1.33841">
        <ele>775.7998</ele>
        <time>2025-09-13T12:09:48+02:00</time>
      </trkpt>
      <trkpt lat="42.78745" lon="1.33841">
        <ele>775.7998</ele>
        <time>2025-09-13T12:09:52+02:00</time>
      </trkpt>
      <trkpt lat="42.78745" lon="1.33841">
        <ele>775.7998</ele>
        <time>2025-09-13T12:09:53+02:00</time>
      </trkpt>
      <trkpt lat="42.78745" lon="1.33841">
        <ele>775.7998</ele>
        <time>2025-09-13T12:09:57+02:00</time>
      </trkpt>
      <trkpt lat="42.78745" lon="1.33841">
        <ele>775.7998</ele>
        <time>2025-09-13T12:09:58+02:00</time>
      </trkpt>
      <trkpt lat="42.78745" lon="1.33841">
        <ele>775.7998</ele>
        <time>2025-09-13T12:10:02+02:00</time>
      </trkpt>
      <trkpt lat="42.78745" lon="1.33842">
        <ele>775.7998</ele>
        <time>2025-09-13T12:10:03+02:00</time>
      </trkpt>
      <trkpt lat="42.78743" lon="1.33841">
        <ele>775.7998</ele>
        <time>2025-09-13T12:10:07+02:00</time>
      </trkpt>
      <trkpt lat="42.78743" lon="1.33841">
        <ele>775.7998</ele>
        <time>2025-09-13T12:10:08+02:00</time>
      </trkpt>
      <trkpt lat="42.78742" lon="1.33842">
        <ele>775.7998</ele>
        <time>2025-09-13T12:10:12+02:00</time>
      </trkpt>
      <trkpt lat="42.78742" lon="1.33842">
        <ele>775.7998</ele>
        <time>2025-09-13T12:10:13+02:00</time>
      </trkpt>
      <trkpt lat="42.78742" lon="1.33843">
        <ele>775.7998</ele>
        <time>2025-09-13T12:10:17+02:00</time>
      </trkpt>
      <trkpt lat="42.78742" lon="1.33843">
        <ele>775.7998</ele>
        <time>2025-09-13T12:10:18+02:00</time>
      </trkpt>
      <trkpt lat="42.78742" lon="1.33843">
        <ele>775.7998</ele>
        <time>2025-09-13T12:10:22+02:00</time>
      </trkpt>
      <trkpt lat="42.78742" lon="1.33843">
        <ele>775.7998</ele>
        <time>2025-09-13T12:10:23+02:00</time>
      </trkpt>
      <trkpt lat="42.78742" lon="1.33843">
        <ele>775.7998</ele>
        <time>2025-09-13T12:10:27+02:00</time>
      </trkpt>
      <trkpt lat="42.78742" lon="1.33843">
        <ele>775.7998</ele>
        <time>2025-09-13T12:10:28+02:00</time>
      </trkpt>
      <trkpt lat="42.78742" lon="1.33843">
        <ele>775.7998</ele>
        <time>2025-09-13T12:10:32+02:00</time>
      </trkpt>
      <trkpt lat="42.78742" lon="1.33843">
        <ele>775.7998</ele>
        <time>2025-09-13T12:10:33+02:00</time>
      </trkpt>
      <trkpt lat="42.78742" lon="1.33843">
        <ele>775.7998</ele>
        <time>2025-09-13T12:10:37+02:00</time>
      </trkpt>
      <trkpt lat="42.78742" lon="1.33843">
        <ele>775.7998</ele>
        <time>2025-09-13T12:10:38+02:00</time>
      </trkpt>
      <trkpt lat="42.78743" lon="1.33844">
        <ele>775.7998</ele>
        <time>2025-09-13T12:10:42+02:00</time>
      </trkpt>
      <trkpt lat="42.78743" lon="1.33844">
        <ele>775.7998</ele>
        <time>2025-09-13T12:10:43+02:00</time>
      </trkpt>
      <trkpt lat="42.78742" lon="1.33845">
        <ele>774.7002</ele>
        <time>2025-09-13T12:10:47+02:00</time>
      </trkpt>
      <trkpt lat="42.78742" lon="1.33846">
        <ele>774.7002</ele>
        <time>2025-09-13T12:10:48+02:00</time>
      </trkpt>
      <trkpt lat="42.7874" lon="1.33847">
        <ele>777.2002</ele>
        <time>2025-09-13T12:10:52+02:00</time>
      </trkpt>
      <trkpt lat="42.78739" lon="1.33848">
        <ele>777.2002</ele>
        <time>2025-09-13T12:10:53+02:00</time>
      </trkpt>
      <trkpt lat="42.78736" lon="1.3385">
        <ele>777.2002</ele>
        <time>2025-09-13T12:10:57+02:00</time>
      </trkpt>
      <trkpt lat="42.78736" lon="1.33851">
        <ele>777.2002</ele>
        <time>2025-09-13T12:10:58+02:00</time>
      </trkpt>
      <trkpt lat="42.78734" lon="1.33855">
        <ele>776</ele>
        <time>2025-09-13T12:11:02+02:00</time>
      </trkpt>
      <trkpt lat="42.78734" lon="1.33856">
        <ele>778.5</ele>
        <time>2025-09-13T12:11:03+02:00</time>
      </trkpt>
      <trkpt lat="42.78733" lon="1.33859">
        <ele>778.5</ele>
        <time>2025-09-13T12:11:07+02:00</time>
      </trkpt>
      <trkpt lat="42.78732" lon="1.3386">
        <ele>778.5</ele>
        <time>2025-09-13T12:11:08+02:00</time>
      </trkpt>
      <trkpt lat="42.78731" lon="1.33863">
        <ele>777.2002</ele>
        <time>2025-09-13T12:11:12+02:00</time>
      </trkpt>
      <trkpt lat="42.78731" lon="1.33864">
        <ele>777.2002</ele>
        <time>2025-09-13T12:11:13+02:00</time>
      </trkpt>
      <trkpt lat="42.7873" lon="1.33867">
        <ele>777.2002</ele>
        <time>2025-09-13T12:11:17+02:00</time>
      </trkpt>
      <trkpt lat="42.7873" lon="1.33868">
        <ele>777.2002</ele>
        <time>2025-09-13T12:11:18+02:00</time>
      </trkpt>
      <trkpt lat="42.78728" lon="1.33871">
        <ele>775.9004</ele>
        <time>2025-09-13T12:11:22+02:00</time>
      </trkpt>
      <trkpt lat="42.78728" lon="1.33872">
        <ele>775.9004</ele>
        <time>2025-09-13T12:11:23+02:00</time>
      </trkpt>
      <trkpt lat="42.78726" lon="1.33876">
        <ele>778.2002</ele>
        <time>2025-09-13T12:11:27+02:00</time>
      </trkpt>
      <trkpt lat="42.78726" lon="1.33876">
        <ele>778.2002</ele>
        <time>2025-09-13T12:11:28+02:00</time>
      </trkpt>
      <trkpt lat="42.78725" lon="1.33879">
        <ele>776.7998</ele>
        <time>2025-09-13T12:11:32+02:00</time>
      </trkpt>
      <trkpt lat="42.78724" lon="1.3388">
        <ele>776.7998</ele>
        <time>2025-09-13T12:11:33+02:00</time>
      </trkpt>
      <trkpt lat="42.78722" lon="1.33883">
        <ele>776.7998</ele>
        <time>2025-09-13T12:11:37+02:00</time>
      </trkpt>
      <trkpt lat="42.78721" lon="1.33883">
        <ele>776.7998</ele>
        <time>2025-09-13T12:11:38+02:00</time>
      </trkpt>
      <trkpt lat="42.7872" lon="1.33886">
        <ele>779.2002</ele>
        <time>2025-09-13T12:11:42+02:00</time>
      </trkpt>
      <trkpt lat="42.78719" lon="1.33887">
        <ele>779.2002</ele>
        <time>2025-09-13T12:11:43+02:00</time>
      </trkpt>
      <trkpt lat="42.78718" lon="1.3389">
        <ele>777.7998</ele>
        <time>2025-09-13T12:11:47+02:00</time>
      </trkpt>
      <trkpt lat="42.78718" lon="1.33891">
        <ele>777.7998</ele>
        <time>2025-09-13T12:11:48+02:00</time>
      </trkpt>
      <trkpt lat="42.78717" lon="1.33894">
        <ele>777.7998</ele>
        <time>2025-09-13T12:11:52+02:00</time>
      </trkpt>
      <trkpt lat="42.78716" lon="1.33895">
        <ele>777.7998</ele>
        <time>2025-09-13T12:11:53+02:00</time>
      </trkpt>
      <trkpt lat="42.78715" lon="1.33899">
        <ele>778.9004</ele>
        <time>2025-09-13T12:11:57+02:00</time>
      </trkpt>
      <trkpt lat="42.78715" lon="1.339">
        <ele>778.9004</ele>
        <time>2025-09-13T12:11:58+02:00</time>
      </trkpt>
      <trkpt lat="42.78714" lon="1.33904">
        <ele>778.9004</ele>
        <time>2025-09-13T12:12:02+02:00</time>
      </trkpt>
      <trkpt lat="42.78713" lon="1.33904">
        <ele>777.6006</ele>
        <time>2025-09-13T12:12:03+02:00</time>
      </trkpt>
      <trkpt lat="42.78712" lon="1.33908">
        <ele>777.6006</ele>
        <time>2025-09-13T12:12:07+02:00</time>
      </trkpt>
      <trkpt lat="42.78711" lon="1.3391">
        <ele>777.6006</ele>
        <time>2025-09-13T12:12:08+02:00</time>
      </trkpt>
      <trkpt lat="42.78709" lon="1.33913">
        <ele>776.5</ele>
        <time>2025-09-13T12:12:12+02:00</time>
      </trkpt>
      <trkpt lat="42.78709" lon="1.33914">
        <ele>776.5</ele>
        <time>2025-09-13T12:12:13+02:00</time>
      </trkpt>
      <trkpt lat="42.78707" lon="1.33918">
        <ele>778.7002</ele>
        <time>2025-09-13T12:12:17+02:00</time>
      </trkpt>
      <trkpt lat="42.78706" lon="1.33919">
        <ele>778.7002</ele>
        <time>2025-09-13T12:12:18+02:00</time>
      </trkpt>
      <trkpt lat="42.78705" lon="1.33923">
        <ele>777.5</ele>
        <time>2025-09-13T12:12:22+02:00</time>
      </trkpt>
      <trkpt lat="42.78705" lon="1.33924">
        <ele>777.5</ele>
        <time>2025-09-13T12:12:23+02:00</time>
      </trkpt>
      <trkpt lat="42.78703" lon="1.33928">
        <ele>777.5</ele>
        <time>2025-09-13T12:12:27+02:00</time>
      </trkpt>
      <trkpt lat="42.78702" lon="1.33928">
        <ele>779.7998</ele>
        <time>2025-09-13T12:12:28+02:00</time>
      </trkpt>
      <trkpt lat="42.787" lon="1.33931">
        <ele>778.7002</ele>
        <time>2025-09-13T12:12:32+02:00</time>
      </trkpt>
      <trkpt lat="42.787" lon="1.33932">
        <ele>778.7002</ele>
        <time>2025-09-13T12:12:33+02:00</time>
      </trkpt>
      <trkpt lat="42.78698" lon="1.33936">
        <ele>778.7002</ele>
        <time>2025-09-13T12:12:37+02:00</time>
      </trkpt>
      <trkpt lat="42.78698" lon="1.33937">
        <ele>778.7002</ele>
        <time>2025-09-13T12:12:38+02:00</time>
      </trkpt>
      <trkpt lat="42.78697" lon="1.33941">
        <ele>777.6006</ele>
        <time>2025-09-13T12:12:42+02:00</time>
      </trkpt>
      <trkpt lat="42.78696" lon="1.33942">
        <ele>777.6006</ele>
        <time>2025-09-13T12:12:43+02:00</time>
      </trkpt>
      <trkpt lat="42.78694" lon="1.33945">
        <ele>779.9004</ele>
        <time>2025-09-13T12:12:47+02:00</time>
      </trkpt>
      <trkpt lat="42.78694" lon="1.33946">
        <ele>779.9004</ele>
        <time>2025-09-13T12:12:48+02:00</time>
      </trkpt>
      <trkpt lat="42.78692" lon="1.3395">
        <ele>778.7998</ele>
        <time>2025-09-13T12:12:52+02:00</time>
      </trkpt>
      <trkpt lat="42.78692" lon="1.33951">
        <ele>778.7998</ele>
        <time>2025-09-13T12:12:53+02:00</time>
      </trkpt>
      <trkpt lat="42.78691" lon="1.33954">
        <ele>778.7998</ele>
        <time>2025-09-13T12:12:57+02:00</time>
      </trkpt>
      <trkpt lat="42.78691" lon="1.33954">
        <ele>778.7998</ele>
        <time>2025-09-13T12:12:58+02:00</time>
      </trkpt>
      <trkpt lat="42.78689" lon="1.33956">
        <ele>780.2002</ele>
        <time>2025-09-13T12:13:02+02:00</time>
      </trkpt>
      <trkpt lat="42.78688" lon="1.33957">
        <ele>780.2002</ele>
        <time>2025-09-13T12:13:03+02:00</time>
      </trkpt>
      <trkpt lat="42.78685" lon="1.33959">
        <ele>780.2002</ele>
        <time>2025-09-13T12:13:07+02:00</time>
      </trkpt>
      <trkpt lat="42.78685" lon="1.33959">
        <ele>780.2002</ele>
        <time>2025-09-13T12:13:08+02:00</time>
      </trkpt>
      <trkpt lat="42.78682" lon="1.3396">
        <ele>782.6006</ele>
        <time>2025-09-13T12:13:12+02:00</time>
      </trkpt>
      <trkpt lat="42.78682" lon="1.3396">
        <ele>782.6006</ele>
        <time>2025-09-13T12:13:13+02:00</time>
      </trkpt>
      <trkpt lat="42.78683" lon="1.3396">
        <ele>782.6006</ele>
        <time>2025-09-13T12:13:17+02:00</time>
      </trkpt>
      <trkpt lat="42.78683" lon="1.3396">
        <ele>782.6006</ele>
        <time>2025-09-13T12:13:18+02:00</time>
      </trkpt>
      <trkpt lat="42.78682" lon="1.3396">
        <ele>782.6006</ele>
        <time>2025-09-13T12:13:22+02:00</time>
      </trkpt>
      <trkpt lat="42.78682" lon="1.3396">
        <ele>782.6006</ele>
        <time>2025-09-13T12:13:23+02:00</time>
      </trkpt>
      <trkpt lat="42.78679" lon="1.33961">
        <ele>782.6006</ele>
        <time>2025-09-13T12:13:27+02:00</time>
      </trkpt>
      <trkpt lat="42.78677" lon="1.33962">
        <ele>785.1006</ele>
        <time>2025-09-13T12:13:28+02:00</time>
      </trkpt>
      <trkpt lat="42.78673" lon="1.33965">
        <ele>785.1006</ele>
        <time>2025-09-13T12:13:32+02:00</time>
      </trkpt>
      <trkpt lat="42.78672" lon="1.33965">
        <ele>784.1006</ele>
        <time>2025-09-13T12:13:33+02:00</time>
      </trkpt>
      <trkpt lat="42.7867" lon="1.3397">
        <ele>786.7002</ele>
        <time>2025-09-13T12:13:37+02:00</time>
      </trkpt>
      <trkpt lat="42.7867" lon="1.33971">
        <ele>786.7002</ele>
        <time>2025-09-13T12:13:38+02:00</time>
      </trkpt>
      <trkpt lat="42.78668" lon="1.33977">
        <ele>785.6006</ele>
        <time>2025-09-13T12:13:42+02:00</time>
      </trkpt>
      <trkpt lat="42.78668" lon="1.33978">
        <ele>785.6006</ele>
        <time>2025-09-13T12:13:43+02:00</time>
      </trkpt>
      <trkpt lat="42.78666" lon="1.33983">
        <ele>784.6006</ele>
        <time>2025-09-13T12:13:47+02:00</time>
      </trkpt>
      <trkpt lat="42.78665" lon="1.33984">
        <ele>784.6006</ele>
        <time>2025-09-13T12:13:48+02:00</time>
      </trkpt>
      <trkpt lat="42.78662" lon="1.33987">
        <ele>787.2998</ele>
        <time>2025-09-13T12:13:52+02:00</time>
      </trkpt>
      <trkpt lat="42.78662" lon="1.33987">
        <ele>787.2998</ele>
        <time>2025-09-13T12:13:53+02:00</time>
      </trkpt>
      <trkpt lat="42.78658" lon="1.33988">
        <ele>790.1006</ele>
        <time>2025-09-13T12:13:57+02:00</time>
      </trkpt>
      <trkpt lat="42.78657" lon="1.33988">
        <ele>790.1006</ele>
        <time>2025-09-13T12:13:58+02:00</time>
      </trkpt>
      <trkpt lat="42.78654" lon="1.33987">
        <ele>790.1006</ele>
        <time>2025-09-13T12:14:02+02:00</time>
      </trkpt>
      <trkpt lat="42.78653" lon="1.33987">
        <ele>790.1006</ele>
        <time>2025-09-13T12:14:03+02:00</time>
      </trkpt>
      <trkpt lat="42.7865" lon="1.33985">
        <ele>793.1006</ele>
        <time>2025-09-13T12:14:07+02:00</time>
      </trkpt>
      <trkpt lat="42.78649" lon="1.33985">
        <ele>793.1006</ele>
        <time>2025-09-13T12:14:08+02:00</time>
      </trkpt>
      <trkpt lat="42.78646" lon="1.33985">
        <ele>793.1006</ele>
        <time>2025-09-13T12:14:12+02:00</time>
      </trkpt>
      <trkpt lat="42.78645" lon="1.33985">
        <ele>796.4004</ele>
        <time>2025-09-13T12:14:13+02:00</time>
      </trkpt>
      <trkpt lat="42.78642" lon="1.33988">
        <ele>796.4004</ele>
        <time>2025-09-13T12:14:17+02:00</time>
      </trkpt>
      <trkpt lat="42.78642" lon="1.33989">
        <ele>796.4004</ele>
        <time>2025-09-13T12:14:18+02:00</time>
      </trkpt>
      <trkpt lat="42.78639" lon="1.33992">
        <ele>798.9004</ele>
        <time>2025-09-13T12:14:22+02:00</time>
      </trkpt>
      <trkpt lat="42.78638" lon="1.33993">
        <ele>798.9004</ele>
        <time>2025-09-13T12:14:23+02:00</time>
      </trkpt>
      <trkpt lat="42.78636" lon="1.33997">
        <ele>798.9004</ele>
        <time>2025-09-13T12:14:27+02:00</time>
      </trkpt>
      <trkpt lat="42.78635" lon="1.33998">
        <ele>798.9004</ele>
        <time>2025-09-13T12:14:28+02:00</time>
      </trkpt>
      <trkpt lat="42.78632" lon="1.34001">
        <ele>801.7998</ele>
        <time>2025-09-13T12:14:32+02:00</time>
      </trkpt>
      <trkpt lat="42.78632" lon="1.34002">
        <ele>801.7998</ele>
        <time>2025-09-13T12:14:33+02:00</time>
      </trkpt>
      <trkpt lat="42.78628" lon="1.34004">
        <ele>801.7998</ele>
        <time>2025-09-13T12:14:37+02:00</time>
      </trkpt>
      <trkpt lat="42.78628" lon="1.34005">
        <ele>801.7998</ele>
        <time>2025-09-13T12:14:38+02:00</time>
      </trkpt>
      <trkpt lat="42.78625" lon="1.34007">
        <ele>805.5</ele>
        <time>2025-09-13T12:14:42+02:00</time>
      </trkpt>
      <trkpt lat="42.78625" lon="1.34007">
        <ele>805.5</ele>
        <time>2025-09-13T12:14:43+02:00</time>
      </trkpt>
      <trkpt lat="42.78622" lon="1.34008">
        <ele>804.7998</ele>
        <time>2025-09-13T12:14:47+02:00</time>
      </trkpt>
      <trkpt lat="42.78621" lon="1.34008">
        <ele>804.7998</ele>
        <time>2025-09-13T12:14:48+02:00</time>
      </trkpt>
      <trkpt lat="42.78618" lon="1.34009">
        <ele>808.5</ele>
        <time>2025-09-13T12:14:52+02:00</time>
      </trkpt>
      <trkpt lat="42.78617" lon="1.34009">
        <ele>808.5</ele>
        <time>2025-09-13T12:14:53+02:00</time>
      </trkpt>
      <trkpt lat="42.78614" lon="1.3401">
        <ele>812.2998</ele>
        <time>2025-09-13T12:14:57+02:00</time>
      </trkpt>
      <trkpt lat="42.78613" lon="1.3401">
        <ele>812.2998</ele>
        <time>2025-09-13T12:14:58+02:00</time>
      </trkpt>
      <trkpt lat="42.78611" lon="1.34012">
        <ele>812.2998</ele>
        <time>2025-09-13T12:15:02+02:00</time>
      </trkpt>
      <trkpt lat="42.7861" lon="1.34012">
        <ele>812.2998</ele>
        <time>2025-09-13T12:15:03+02:00</time>
      </trkpt>
      <trkpt lat="42.78607" lon="1.34013">
        <ele>816.2002</ele>
        <time>2025-09-13T12:15:07+02:00</time>
      </trkpt>
      <trkpt lat="42.78606" lon="1.34014">
        <ele>816.2002</ele>
        <time>2025-09-13T12:15:08+02:00</time>
      </trkpt>
      <trkpt lat="42.78604" lon="1.34016">
        <ele>816.2002</ele>
        <time>2025-09-13T12:15:12+02:00</time>
      </trkpt>
      <trkpt lat="42.78603" lon="1.34016">
        <ele>815.2998</ele>
        <time>2025-09-13T12:15:13+02:00</time>
      </trkpt>
      <trkpt lat="42.786" lon="1.34019">
        <ele>819.2002</ele>
        <time>2025-09-13T12:15:17+02:00</time>
      </trkpt>
      <trkpt lat="42.786" lon="1.34019">
        <ele>819.2002</ele>
        <time>2025-09-13T12:15:18+02:00</time>
      </trkpt>
      <trkpt lat="42.78598" lon="1.34023">
        <ele>819.2002</ele>
        <time>2025-09-13T12:15:22+02:00</time>
      </trkpt>
      <trkpt lat="42.78597" lon="1.34024">
        <ele>819.2002</ele>
        <time>2025-09-13T12:15:23+02:00</time>
      </trkpt>
      <trkpt lat="42.78595" lon="1.34028">
        <ele>822.2002</ele>
        <time>2025-09-13T12:15:27+02:00</time>
      </trkpt>
      <trkpt lat="42.78594" lon="1.34029">
        <ele>822.2002</ele>
        <time>2025-09-13T12:15:28+02:00</time>
      </trkpt>
      <trkpt lat="42.78593" lon="1.34033">
        <ele>822.2002</ele>
        <time>2025-09-13T12:15:32+02:00</time>
      </trkpt>
      <trkpt lat="42.78592" lon="1.34034">
        <ele>821.4004</ele>
        <time>2025-09-13T12:15:33+02:00</time>
      </trkpt>
      <trkpt lat="42.7859" lon="1.34037">
        <ele>821.4004</ele>
        <time>2025-09-13T12:15:37+02:00</time>
      </trkpt>
      <trkpt lat="42.7859" lon="1.34038">
        <ele>821.4004</ele>
        <time>2025-09-13T12:15:38+02:00</time>
      </trkpt>
      <trkpt lat="42.78588" lon="1.34041">
        <ele>825.2998</ele>
        <time>2025-09-13T12:15:42+02:00</time>
      </trkpt>
      <trkpt lat="42.78587" lon="1.34042">
        <ele>825.2998</ele>
        <time>2025-09-13T12:15:43+02:00</time>
      </trkpt>
      <trkpt lat="42.78586" lon="1.34044">
        <ele>824.4004</ele>
        <time>2025-09-13T12:15:47+02:00</time>
      </trkpt>
      <trkpt lat="42.78585" lon="1.34045">
        <ele>824.4004</ele>
        <time>2025-09-13T12:15:48+02:00</time>
      </trkpt>
      <trkpt lat="42.78583" lon="1.34048">
        <ele>824.4004</ele>
        <time>2025-09-13T12:15:52+02:00</time>
      </trkpt>
      <trkpt lat="42.78582" lon="1.34048">
        <ele>828.2998</ele>
        <time>2025-09-13T12:15:53+02:00</time>
      </trkpt>
      <trkpt lat="42.7858" lon="1.34051">
        <ele>827.2998</ele>
        <time>2025-09-13T12:15:57+02:00</time>
      </trkpt>
      <trkpt lat="42.78579" lon="1.34052">
        <ele>827.2998</ele>
        <time>2025-09-13T12:15:58+02:00</time>
      </trkpt>
      <trkpt lat="42.78577" lon="1.34054">
        <ele>827.2998</ele>
        <time>2025-09-13T12:16:02+02:00</time>
      </trkpt>
      <trkpt lat="42.78576" lon="1.34054">
        <ele>831.2002</ele>
        <time>2025-09-13T12:16:03+02:00</time>
      </trkpt>
      <trkpt lat="42.78574" lon="1.34056">
        <ele>831.2002</ele>
        <time>2025-09-13T12:16:07+02:00</time>
      </trkpt>
      <trkpt lat="42.78573" lon="1.34056">
        <ele>831.2002</ele>
        <time>2025-09-13T12:16:08+02:00</time>
      </trkpt>
      <trkpt lat="42.78571" lon="1.34059">
        <ele>831.2002</ele>
        <time>2025-09-13T12:16:12+02:00</time>
      </trkpt>
      <trkpt lat="42.7857" lon="1.34059">
        <ele>830.4004</ele>
        <time>2025-09-13T12:16:13+02:00</time>
      </trkpt>
      <trkpt lat="42.78568" lon="1.34063">
        <ele>834.2002</ele>
        <time>2025-09-13T12:16:17+02:00</time>
      </trkpt>
      <trkpt lat="42.78567" lon="1.34063">
        <ele>834.2002</ele>
        <time>2025-09-13T12:16:18+02:00</time>
      </trkpt>
      <trkpt lat="42.78565" lon="1.34066">
        <ele>834.2002</ele>
        <time>2025-09-13T12:16:22+02:00</time>
      </trkpt>
      <trkpt lat="42.78564" lon="1.34067">
        <ele>834.2002</ele>
        <time>2025-09-13T12:16:23+02:00</time>
      </trkpt>
      <trkpt lat="42.78562" lon="1.3407">
        <ele>837.5</ele>
        <time>2025-09-13T12:16:27+02:00</time>
      </trkpt>
      <trkpt lat="42.78562" lon="1.3407">
        <ele>837.5</ele>
        <time>2025-09-13T12:16:28+02:00</time>
      </trkpt>
      <trkpt lat="42.7856" lon="1.34074">
        <ele>837.5</ele>
        <time>2025-09-13T12:16:32+02:00</time>
      </trkpt>
      <trkpt lat="42.7856" lon="1.34075">
        <ele>837.5</ele>
        <time>2025-09-13T12:16:33+02:00</time>
      </trkpt>
      <trkpt lat="42.78558" lon="1.34078">
        <ele>837</ele>
        <time>2025-09-13T12:16:37+02:00</time>
      </trkpt>
      <trkpt lat="42.78558" lon="1.34079">
        <ele>837</ele>
        <time>2025-09-13T12:16:38+02:00</time>
      </trkpt>
      <trkpt lat="42.78556" lon="1.34082">
        <ele>840.7998</ele>
        <time>2025-09-13T12:16:42+02:00</time>
      </trkpt>
      <trkpt lat="42.78556" lon="1.34083">
        <ele>840.7998</ele>
        <time>2025-09-13T12:16:43+02:00</time>
      </trkpt>
      <trkpt lat="42.78554" lon="1.34087">
        <ele>840.4004</ele>
        <time>2025-09-13T12:16:47+02:00</time>
      </trkpt>
      <trkpt lat="42.78554" lon="1.34087">
        <ele>840.4004</ele>
        <time>2025-09-13T12:16:48+02:00</time>
      </trkpt>
      <trkpt lat="42.78551" lon="1.34091">
        <ele>844.2002</ele>
        <time>2025-09-13T12:16:52+02:00</time>
      </trkpt>
      <trkpt lat="42.7855" lon="1.34091">
        <ele>844.2002</ele>
        <time>2025-09-13T12:16:53+02:00</time>
      </trkpt>
      <trkpt lat="42.78548" lon="1.34095">
        <ele>843.9004</ele>
        <time>2025-09-13T12:16:57+02:00</time>
      </trkpt>
      <trkpt lat="42.78547" lon="1.34096">
        <ele>843.9004</ele>
        <time>2025-09-13T12:16:58+02:00</time>
      </trkpt>
      <trkpt lat="42.78545" lon="1.341">
        <ele>843.9004</ele>
        <time>2025-09-13T12:17:02+02:00</time>
      </trkpt>
      <trkpt lat="42.78545" lon="1.34101">
        <ele>847.6006</ele>
        <time>2025-09-13T12:17:03+02:00</time>
      </trkpt>
      <trkpt lat="42.78543" lon="1.34104">
        <ele>847.2998</ele>
        <time>2025-09-13T12:17:07+02:00</time>
      </trkpt>
      <trkpt lat="42.78543" lon="1.34105">
        <ele>847.2998</ele>
        <time>2025-09-13T12:17:08+02:00</time>
      </trkpt>
      <trkpt lat="42.78541" lon="1.34107">
        <ele>847.2998</ele>
        <time>2025-09-13T12:17:12+02:00</time>
      </trkpt>
      <trkpt lat="42.78541" lon="1.34108">
        <ele>847.2998</ele>
        <time>2025-09-13T12:17:13+02:00</time>
      </trkpt>
      <trkpt lat="42.78542" lon="1.34107">
        <ele>847.2998</ele>
        <time>2025-09-13T12:17:17+02:00</time>
      </trkpt>
      <trkpt lat="42.78542" lon="1.34107">
        <ele>847.2998</ele>
        <time>2025-09-13T12:17:18+02:00</time>
      </trkpt>
      <trkpt lat="42.78541" lon="1.34108">
        <ele>847.2998</ele>
        <time>2025-09-13T12:17:22+02:00</time>
      </trkpt>
      <trkpt lat="42.78541" lon="1.34108">
        <ele>847.2998</ele>
        <time>2025-09-13T12:17:23+02:00</time>
      </trkpt>
      <trkpt lat="42.78541" lon="1.34109">
        <ele>847.2998</ele>
        <time>2025-09-13T12:17:27+02:00</time>
      </trkpt>
      <trkpt lat="42.78541" lon="1.34109">
        <ele>847.2998</ele>
        <time>2025-09-13T12:17:28+02:00</time>
      </trkpt>
      <trkpt lat="42.78541" lon="1.34109">
        <ele>847.2998</ele>
        <time>2025-09-13T12:17:32+02:00</time>
      </trkpt>
      <trkpt lat="42.7854" lon="1.34109">
        <ele>847.2998</ele>
        <time>2025-09-13T12:17:33+02:00</time>
      </trkpt>
      <trkpt lat="42.78541" lon="1.34109">
        <ele>847.2998</ele>
        <time>2025-09-13T12:17:37+02:00</time>
      </trkpt>
      <trkpt lat="42.78541" lon="1.34109">
        <ele>847.2998</ele>
        <time>2025-09-13T12:17:38+02:00</time>
      </trkpt>
      <trkpt lat="42.78541" lon="1.34109">
        <ele>847.2998</ele>
        <time>2025-09-13T12:17:42+02:00</time>
      </trkpt>
      <trkpt lat="42.78541" lon="1.34109">
        <ele>847.2998</ele>
        <time>2025-09-13T12:17:43+02:00</time>
      </trkpt>
      <trkpt lat="42.78541" lon="1.34109">
        <ele>847.2998</ele>
        <time>2025-09-13T12:17:47+02:00</time>
      </trkpt>
      <trkpt lat="42.78541" lon="1.34109">
        <ele>847.2998</ele>
        <time>2025-09-13T12:17:48+02:00</time>
      </trkpt>
      <trkpt lat="42.78541" lon="1.34109">
        <ele>847.2998</ele>
        <time>2025-09-13T12:17:52+02:00</time>
      </trkpt>
      <trkpt lat="42.78541" lon="1.34109">
        <ele>847.2998</ele>
        <time>2025-09-13T12:17:53+02:00</time>
      </trkpt>
      <trkpt lat="42.78541" lon="1.34109">
        <ele>847.2998</ele>
        <time>2025-09-13T12:17:57+02:00</time>
      </trkpt>
      <trkpt lat="42.78541" lon="1.34109">
        <ele>847.2998</ele>
        <time>2025-09-13T12:17:58+02:00</time>
      </trkpt>
      <trkpt lat="42.78541" lon="1.34109">
        <ele>847.2998</ele>
        <time>2025-09-13T12:18:02+02:00</time>
      </trkpt>
      <trkpt lat="42.78541" lon="1.34109">
        <ele>847.2998</ele>
        <time>2025-09-13T12:18:03+02:00</time>
      </trkpt>
      <trkpt lat="42.78541" lon="1.34109">
        <ele>847.2998</ele>
        <time>2025-09-13T12:18:07+02:00</time>
      </trkpt>
      <trkpt lat="42.78541" lon="1.34109">
        <ele>847.2998</ele>
        <time>2025-09-13T12:18:08+02:00</time>
      </trkpt>
      <trkpt lat="42.78541" lon="1.3411">
        <ele>847.2998</ele>
        <time>2025-09-13T12:18:12+02:00</time>
      </trkpt>
      <trkpt lat="42.78541" lon="1.34109">
        <ele>847.2998</ele>
        <time>2025-09-13T12:18:13+02:00</time>
      </trkpt>
      <trkpt lat="42.78542" lon="1.34109">
        <ele>847.2998</ele>
        <time>2025-09-13T12:18:17+02:00</time>
      </trkpt>
      <trkpt lat="42.78542" lon="1.34109">
        <ele>847.2998</ele>
        <time>2025-09-13T12:18:18+02:00</time>
      </trkpt>
      <trkpt lat="42.78542" lon="1.34109">
        <ele>847.2998</ele>
        <time>2025-09-13T12:18:22+02:00</time>
      </trkpt>
      <trkpt lat="42.78542" lon="1.34109">
        <ele>847.2998</ele>
        <time>2025-09-13T12:18:23+02:00</time>
      </trkpt>
      <trkpt lat="42.78542" lon="1.34109">
        <ele>847.2998</ele>
        <time>2025-09-13T12:18:27+02:00</time>
      </trkpt>
      <trkpt lat="42.78542" lon="1.34109">
        <ele>847.2998</ele>
        <time>2025-09-13T12:18:28+02:00</time>
      </trkpt>
      <trkpt lat="42.78543" lon="1.34109">
        <ele>847.2998</ele>
        <time>2025-09-13T12:18:32+02:00</time>
      </trkpt>
      <trkpt lat="42.78543" lon="1.34109">
        <ele>847.2998</ele>
        <time>2025-09-13T12:18:33+02:00</time>
      </trkpt>
      <trkpt lat="42.78543" lon="1.34109">
        <ele>847.2998</ele>
        <time>2025-09-13T12:18:37+02:00</time>
      </trkpt>
      <trkpt lat="42.78543" lon="1.34109">
        <ele>847.2998</ele>
        <time>2025-09-13T12:18:38+02:00</time>
      </trkpt>
      <trkpt lat="42.78544" lon="1.34109">
        <ele>847.2998</ele>
        <time>2025-09-13T12:18:42+02:00</time>
      </trkpt>
      <trkpt lat="42.78544" lon="1.34109">
        <ele>847.2998</ele>
        <time>2025-09-13T12:18:43+02:00</time>
      </trkpt>
      <trkpt lat="42.78543" lon="1.34109">
        <ele>847.2998</ele>
        <time>2025-09-13T12:18:47+02:00</time>
      </trkpt>
      <trkpt lat="42.78543" lon="1.34109">
        <ele>847.2998</ele>
        <time>2025-09-13T12:18:48+02:00</time>
      </trkpt>
      <trkpt lat="42.78543" lon="1.34109">
        <ele>847.2998</ele>
        <time>2025-09-13T12:18:52+02:00</time>
      </trkpt>
      <trkpt lat="42.78543" lon="1.34109">
        <ele>847.2998</ele>
        <time>2025-09-13T12:18:53+02:00</time>
      </trkpt>
      <trkpt lat="42.78543" lon="1.34109">
        <ele>847.2998</ele>
        <time>2025-09-13T12:18:57+02:00</time>
      </trkpt>
      <trkpt lat="42.78543" lon="1.34109">
        <ele>847.2998</ele>
        <time>2025-09-13T12:18:58+02:00</time>
      </trkpt>
      <trkpt lat="42.78543" lon="1.34109">
        <ele>847.2998</ele>
        <time>2025-09-13T12:19:02+02:00</time>
      </trkpt>
      <trkpt lat="42.78543" lon="1.34109">
        <ele>847.2998</ele>
        <time>2025-09-13T12:19:03+02:00</time>
      </trkpt>
      <trkpt lat="42.78543" lon="1.34109">
        <ele>847.2998</ele>
        <time>2025-09-13T12:19:07+02:00</time>
      </trkpt>
      <trkpt lat="42.78543" lon="1.34109">
        <ele>847.2998</ele>
        <time>2025-09-13T12:19:08+02:00</time>
      </trkpt>
      <trkpt lat="42.78543" lon="1.34109">
        <ele>847.2998</ele>
        <time>2025-09-13T12:19:12+02:00</time>
      </trkpt>
      <trkpt lat="42.78543" lon="1.34109">
        <ele>847.2998</ele>
        <time>2025-09-13T12:19:13+02:00</time>
      </trkpt>
      <trkpt lat="42.78543" lon="1.34109">
        <ele>847.2998</ele>
        <time>2025-09-13T12:19:17+02:00</time>
      </trkpt>
      <trkpt lat="42.78543" lon="1.34109">
        <ele>847.2998</ele>
        <time>2025-09-13T12:19:18+02:00</time>
      </trkpt>
      <trkpt lat="42.78543" lon="1.34109">
        <ele>847.2998</ele>
        <time>2025-09-13T12:19:22+02:00</time>
      </trkpt>
      <trkpt lat="42.78543" lon="1.34109">
        <ele>847.2998</ele>
        <time>2025-09-13T12:19:23+02:00</time>
      </trkpt>
      <trkpt lat="42.78543" lon="1.34109">
        <ele>847.2998</ele>
        <time>2025-09-13T12:19:27+02:00</time>
      </trkpt>
      <trkpt lat="42.78543" lon="1.34109">
        <ele>847.2998</ele>
        <time>2025-09-13T12:19:28+02:00</time>
      </trkpt>
      <trkpt lat="42.78543" lon="1.34109">
        <ele>847.2998</ele>
        <time>2025-09-13T12:19:32+02:00</time>
      </trkpt>
      <trkpt lat="42.78543" lon="1.34109">
        <ele>847.2998</ele>
        <time>2025-09-13T12:19:33+02:00</time>
      </trkpt>
      <trkpt lat="42.78543" lon="1.34109">
        <ele>847.2998</ele>
        <time>2025-09-13T12:19:37+02:00</time>
      </trkpt>
      <trkpt lat="42.78543" lon="1.34109">
        <ele>847.2998</ele>
        <time>2025-09-13T12:19:38+02:00</time>
      </trkpt>
      <trkpt lat="42.78543" lon="1.34109">
        <ele>847.2998</ele>
        <time>2025-09-13T12:19:42+02:00</time>
      </trkpt>
      <trkpt lat="42.78543" lon="1.34109">
        <ele>847.2998</ele>
        <time>2025-09-13T12:19:43+02:00</time>
      </trkpt>
      <trkpt lat="42.78543" lon="1.34109">
        <ele>847.2998</ele>
        <time>2025-09-13T12:19:47+02:00</time>
      </trkpt>
      <trkpt lat="42.78543" lon="1.34109">
        <ele>847.2998</ele>
        <time>2025-09-13T12:19:48+02:00</time>
      </trkpt>
      <trkpt lat="42.78543" lon="1.34109">
        <ele>847.2998</ele>
        <time>2025-09-13T12:19:52+02:00</time>
      </trkpt>
      <trkpt lat="42.78543" lon="1.34109">
        <ele>847.2998</ele>
        <time>2025-09-13T12:19:53+02:00</time>
      </trkpt>
      <trkpt lat="42.78543" lon="1.34109">
        <ele>847.2998</ele>
        <time>2025-09-13T12:19:57+02:00</time>
      </trkpt>
      <trkpt lat="42.78543" lon="1.34109">
        <ele>847.2998</ele>
        <time>2025-09-13T12:19:58+02:00</time>
      </trkpt>
      <trkpt lat="42.78543" lon="1.3411">
        <ele>847.2998</ele>
        <time>2025-09-13T12:20:02+02:00</time>
      </trkpt>
      <trkpt lat="42.78543" lon="1.3411">
        <ele>847.2998</ele>
        <time>2025-09-13T12:20:03+02:00</time>
      </trkpt>
      <trkpt lat="42.78543" lon="1.3411">
        <ele>847.2998</ele>
        <time>2025-09-13T12:20:07+02:00</time>
      </trkpt>
      <trkpt lat="42.78543" lon="1.3411">
        <ele>847.2998</ele>
        <time>2025-09-13T12:20:08+02:00</time>
      </trkpt>
      <trkpt lat="42.78543" lon="1.3411">
        <ele>847.2998</ele>
        <time>2025-09-13T12:20:12+02:00</time>
      </trkpt>
      <trkpt lat="42.78544" lon="1.3411">
        <ele>847.2998</ele>
        <time>2025-09-13T12:20:13+02:00</time>
      </trkpt>
      <trkpt lat="42.78545" lon="1.3411">
        <ele>847.2998</ele>
        <time>2025-09-13T12:20:17+02:00</time>
      </trkpt>
      <trkpt lat="42.78545" lon="1.3411">
        <ele>847.2998</ele>
        <time>2025-09-13T12:20:18+02:00</time>
      </trkpt>
      <trkpt lat="42.78545" lon="1.3411">
        <ele>843.7002</ele>
        <time>2025-09-13T12:20:22+02:00</time>
      </trkpt>
      <trkpt lat="42.78545" lon="1.3411">
        <ele>843.7002</ele>
        <time>2025-09-13T12:20:23+02:00</time>
      </trkpt>
      <trkpt lat="42.78545" lon="1.3411">
        <ele>843.7002</ele>
        <time>2025-09-13T12:20:27+02:00</time>
      </trkpt>
      <trkpt lat="42.78545" lon="1.3411">
        <ele>843.7002</ele>
        <time>2025-09-13T12:20:28+02:00</time>
      </trkpt>
      <trkpt lat="42.78545" lon="1.3411">
        <ele>843.7002</ele>
        <time>2025-09-13T12:20:32+02:00</time>
      </trkpt>
      <trkpt lat="42.78545" lon="1.3411">
        <ele>843.7002</ele>
        <time>2025-09-13T12:20:33+02:00</time>
      </trkpt>
      <trkpt lat="42.78545" lon="1.3411">
        <ele>843.7002</ele>
        <time>2025-09-13T12:20:37+02:00</time>
      </trkpt>
      <trkpt lat="42.78545" lon="1.3411">
        <ele>843.7002</ele>
        <time>2025-09-13T12:20:38+02:00</time>
      </trkpt>
      <trkpt lat="42.78545" lon="1.3411">
        <ele>843.7002</ele>
        <time>2025-09-13T12:20:42+02:00</time>
      </trkpt>
      <trkpt lat="42.78545" lon="1.3411">
        <ele>843.7002</ele>
        <time>2025-09-13T12:20:43+02:00</time>
      </trkpt>
      <trkpt lat="42.78545" lon="1.3411">
        <ele>843.7002</ele>
        <time>2025-09-13T12:20:47+02:00</time>
      </trkpt>
      <trkpt lat="42.78545" lon="1.3411">
        <ele>843.7002</ele>
        <time>2025-09-13T12:20:48+02:00</time>
      </trkpt>
      <trkpt lat="42.78545" lon="1.3411">
        <ele>843.7002</ele>
        <time>2025-09-13T12:20:52+02:00</time>
      </trkpt>
      <trkpt lat="42.78545" lon="1.3411">
        <ele>843.7002</ele>
        <time>2025-09-13T12:20:53+02:00</time>
      </trkpt>
      <trkpt lat="42.78545" lon="1.3411">
        <ele>843.7002</ele>
        <time>2025-09-13T12:20:57+02:00</time>
      </trkpt>
      <trkpt lat="42.78545" lon="1.3411">
        <ele>843.7002</ele>
        <time>2025-09-13T12:20:58+02:00</time>
      </trkpt>
      <trkpt lat="42.78545" lon="1.3411">
        <ele>843.7002</ele>
        <time>2025-09-13T12:21:02+02:00</time>
      </trkpt>
      <trkpt lat="42.78545" lon="1.3411">
        <ele>843.7002</ele>
        <time>2025-09-13T12:21:03+02:00</time>
      </trkpt>
      <trkpt lat="42.78545" lon="1.3411">
        <ele>843.7002</ele>
        <time>2025-09-13T12:21:07+02:00</time>
      </trkpt>
      <trkpt lat="42.78545" lon="1.3411">
        <ele>843.7002</ele>
        <time>2025-09-13T12:21:08+02:00</time>
      </trkpt>
      <trkpt lat="42.78545" lon="1.3411">
        <ele>843.7002</ele>
        <time>2025-09-13T12:21:12+02:00</time>
      </trkpt>
      <trkpt lat="42.78545" lon="1.3411">
        <ele>843.7002</ele>
        <time>2025-09-13T12:21:13+02:00</time>
      </trkpt>
      <trkpt lat="42.78545" lon="1.3411">
        <ele>843.7002</ele>
        <time>2025-09-13T12:21:17+02:00</time>
      </trkpt>
      <trkpt lat="42.78545" lon="1.3411">
        <ele>843.7002</ele>
        <time>2025-09-13T12:21:18+02:00</time>
      </trkpt>
      <trkpt lat="42.78545" lon="1.3411">
        <ele>847.2998</ele>
        <time>2025-09-13T12:21:22+02:00</time>
      </trkpt>
      <trkpt lat="42.78545" lon="1.3411">
        <ele>847.2998</ele>
        <time>2025-09-13T12:21:23+02:00</time>
      </trkpt>
      <trkpt lat="42.78545" lon="1.34109">
        <ele>847.2998</ele>
        <time>2025-09-13T12:21:27+02:00</time>
      </trkpt>
      <trkpt lat="42.78545" lon="1.34109">
        <ele>847.2998</ele>
        <time>2025-09-13T12:21:28+02:00</time>
      </trkpt>
      <trkpt lat="42.78545" lon="1.34109">
        <ele>847.2998</ele>
        <time>2025-09-13T12:21:32+02:00</time>
      </trkpt>
      <trkpt lat="42.78545" lon="1.34109">
        <ele>847.2998</ele>
        <time>2025-09-13T12:21:33+02:00</time>
      </trkpt>
      <trkpt lat="42.78545" lon="1.3411">
        <ele>847.2998</ele>
        <time>2025-09-13T12:21:37+02:00</time>
      </trkpt>
      <trkpt lat="42.78545" lon="1.3411">
        <ele>847.2998</ele>
        <time>2025-09-13T12:21:38+02:00</time>
      </trkpt>
      <trkpt lat="42.78545" lon="1.3411">
        <ele>847.2998</ele>
        <time>2025-09-13T12:21:42+02:00</time>
      </trkpt>
      <trkpt lat="42.78545" lon="1.3411">
        <ele>847.2998</ele>
        <time>2025-09-13T12:21:43+02:00</time>
      </trkpt>
      <trkpt lat="42.78545" lon="1.3411">
        <ele>847.2998</ele>
        <time>2025-09-13T12:21:47+02:00</time>
      </trkpt>
      <trkpt lat="42.78545" lon="1.3411">
        <ele>847.2998</ele>
        <time>2025-09-13T12:21:48+02:00</time>
      </trkpt>
      <trkpt lat="42.78545" lon="1.3411">
        <ele>847.2998</ele>
        <time>2025-09-13T12:21:52+02:00</time>
      </trkpt>
      <trkpt lat="42.78545" lon="1.3411">
        <ele>847.2998</ele>
        <time>2025-09-13T12:21:53+02:00</time>
      </trkpt>
      <trkpt lat="42.78545" lon="1.3411">
        <ele>847.2998</ele>
        <time>2025-09-13T12:21:57+02:00</time>
      </trkpt>
      <trkpt lat="42.78545" lon="1.3411">
        <ele>847.2998</ele>
        <time>2025-09-13T12:21:58+02:00</time>
      </trkpt>
      <trkpt lat="42.78545" lon="1.3411">
        <ele>847.2998</ele>
        <time>2025-09-13T12:22:02+02:00</time>
      </trkpt>
      <trkpt lat="42.78545" lon="1.3411">
        <ele>847.2998</ele>
        <time>2025-09-13T12:22:03+02:00</time>
      </trkpt>
      <trkpt lat="42.78546" lon="1.3411">
        <ele>843.7002</ele>
        <time>2025-09-13T12:22:07+02:00</time>
      </trkpt>
      <trkpt lat="42.78546" lon="1.3411">
        <ele>843.7002</ele>
        <time>2025-09-13T12:22:08+02:00</time>
      </trkpt>
      <trkpt lat="42.78548" lon="1.3411">
        <ele>843.7002</ele>
        <time>2025-09-13T12:22:12+02:00</time>
      </trkpt>
      <trkpt lat="42.78548" lon="1.3411">
        <ele>843.7002</ele>
        <time>2025-09-13T12:22:13+02:00</time>
      </trkpt>
      <trkpt lat="42.78548" lon="1.3411">
        <ele>843.7002</ele>
        <time>2025-09-13T12:22:17+02:00</time>
      </trkpt>
      <trkpt lat="42.78548" lon="1.3411">
        <ele>843.7002</ele>
        <time>2025-09-13T12:22:18+02:00</time>
      </trkpt>
      <trkpt lat="42.78549" lon="1.3411">
        <ele>843.7002</ele>
        <time>2025-09-13T12:22:22+02:00</time>
      </trkpt>
      <trkpt lat="42.78549" lon="1.3411">
        <ele>843.7002</ele>
        <time>2025-09-13T12:22:23+02:00</time>
      </trkpt>
      <trkpt lat="42.78551" lon="1.34111">
        <ele>839.7998</ele>
        <time>2025-09-13T12:22:27+02:00</time>
      </trkpt>
      <trkpt lat="42.78551" lon="1.34111">
        <ele>839.7998</ele>
        <time>2025-09-13T12:22:28+02:00</time>
      </trkpt>
      <trkpt lat="42.78552" lon="1.34111">
        <ele>839.7998</ele>
        <time>2025-09-13T12:22:32+02:00</time>
      </trkpt>
      <trkpt lat="42.78552" lon="1.34111">
        <ele>839.7998</ele>
        <time>2025-09-13T12:22:33+02:00</time>
      </trkpt>
      <trkpt lat="42.78552" lon="1.34112">
        <ele>839.7998</ele>
        <time>2025-09-13T12:22:37+02:00</time>
      </trkpt>
      <trkpt lat="42.78552" lon="1.34112">
        <ele>839.7998</ele>
        <time>2025-09-13T12:22:38+02:00</time>
      </trkpt>
      <trkpt lat="42.78552" lon="1.34114">
        <ele>839.7998</ele>
        <time>2025-09-13T12:22:42+02:00</time>
      </trkpt>
      <trkpt lat="42.78551" lon="1.34114">
        <ele>839.7998</ele>
        <time>2025-09-13T12:22:43+02:00</time>
      </trkpt>
      <trkpt lat="42.78551" lon="1.34114">
        <ele>843.5</ele>
        <time>2025-09-13T12:22:47+02:00</time>
      </trkpt>
      <trkpt lat="42.78551" lon="1.34114">
        <ele>843.5</ele>
        <time>2025-09-13T12:22:48+02:00</time>
      </trkpt>
      <trkpt lat="42.78551" lon="1.34114">
        <ele>843.5</ele>
        <time>2025-09-13T12:22:52+02:00</time>
      </trkpt>
      <trkpt lat="42.78551" lon="1.34114">
        <ele>843.5</ele>
        <time>2025-09-13T12:22:53+02:00</time>
      </trkpt>
      <trkpt lat="42.78551" lon="1.34114">
        <ele>843.5</ele>
        <time>2025-09-13T12:22:57+02:00</time>
      </trkpt>
      <trkpt lat="42.78551" lon="1.34114">
        <ele>843.5</ele>
        <time>2025-09-13T12:22:58+02:00</time>
      </trkpt>
      <trkpt lat="42.78551" lon="1.34114">
        <ele>843.5</ele>
        <time>2025-09-13T12:23:02+02:00</time>
      </trkpt>
      <trkpt lat="42.78551" lon="1.34114">
        <ele>843.5</ele>
        <time>2025-09-13T12:23:03+02:00</time>
      </trkpt>
      <trkpt lat="42.78551" lon="1.34114">
        <ele>843.5</ele>
        <time>2025-09-13T12:23:07+02:00</time>
      </trkpt>
      <trkpt lat="42.78551" lon="1.34114">
        <ele>843.5</ele>
        <time>2025-09-13T12:23:08+02:00</time>
      </trkpt>
      <trkpt lat="42.78551" lon="1.34114">
        <ele>843.5</ele>
        <time>2025-09-13T12:23:12+02:00</time>
      </trkpt>
      <trkpt lat="42.78551" lon="1.34114">
        <ele>843.5</ele>
        <time>2025-09-13T12:23:13+02:00</time>
      </trkpt>
      <trkpt lat="42.78551" lon="1.34114">
        <ele>843.5</ele>
        <time>2025-09-13T12:23:17+02:00</time>
      </trkpt>
      <trkpt lat="42.78551" lon="1.34114">
        <ele>843.5</ele>
        <time>2025-09-13T12:23:18+02:00</time>
      </trkpt>
      <trkpt lat="42.78551" lon="1.34114">
        <ele>843.5</ele>
        <time>2025-09-13T12:23:22+02:00</time>
      </trkpt>
      <trkpt lat="42.78551" lon="1.34114">
        <ele>843.5</ele>
        <time>2025-09-13T12:23:23+02:00</time>
      </trkpt>
      <trkpt lat="42.78551" lon="1.34114">
        <ele>843.5</ele>
        <time>2025-09-13T12:23:27+02:00</time>
      </trkpt>
      <trkpt lat="42.78551" lon="1.34114">
        <ele>843.5</ele>
        <time>2025-09-13T12:23:28+02:00</time>
      </trkpt>
      <trkpt lat="42.78551" lon="1.34114">
        <ele>843.5</ele>
        <time>2025-09-13T12:23:32+02:00</time>
      </trkpt>
      <trkpt lat="42.78551" lon="1.34114">
        <ele>843.5</ele>
        <time>2025-09-13T12:23:33+02:00</time>
      </trkpt>
      <trkpt lat="42.78551" lon="1.34114">
        <ele>843.5</ele>
        <time>2025-09-13T12:23:37+02:00</time>
      </trkpt>
      <trkpt lat="42.78551" lon="1.34114">
        <ele>843.5</ele>
        <time>2025-09-13T12:23:38+02:00</time>
      </trkpt>
      <trkpt lat="42.78551" lon="1.34114">
        <ele>843.5</ele>
        <time>2025-09-13T12:23:42+02:00</time>
      </trkpt>
      <trkpt lat="42.78551" lon="1.34114">
        <ele>843.5</ele>
        <time>2025-09-13T12:23:43+02:00</time>
      </trkpt>
      <trkpt lat="42.78551" lon="1.34114">
        <ele>843.5</ele>
        <time>2025-09-13T12:23:47+02:00</time>
      </trkpt>
      <trkpt lat="42.78551" lon="1.34114">
        <ele>843.5</ele>
        <time>2025-09-13T12:23:48+02:00</time>
      </trkpt>
      <trkpt lat="42.78551" lon="1.34115">
        <ele>843.5</ele>
        <time>2025-09-13T12:23:52+02:00</time>
      </trkpt>
      <trkpt lat="42.78551" lon="1.34115">
        <ele>843.5</ele>
        <time>2025-09-13T12:23:53+02:00</time>
      </trkpt>
      <trkpt lat="42.78551" lon="1.34115">
        <ele>843.5</ele>
        <time>2025-09-13T12:23:57+02:00</time>
      </trkpt>
      <trkpt lat="42.78551" lon="1.34115">
        <ele>843.5</ele>
        <time>2025-09-13T12:23:58+02:00</time>
      </trkpt>
      <trkpt lat="42.78551" lon="1.34115">
        <ele>843.5</ele>
        <time>2025-09-13T12:24:02+02:00</time>
      </trkpt>
      <trkpt lat="42.78551" lon="1.34115">
        <ele>843.5</ele>
        <time>2025-09-13T12:24:03+02:00</time>
      </trkpt>
      <trkpt lat="42.78551" lon="1.34115">
        <ele>843.5</ele>
        <time>2025-09-13T12:24:07+02:00</time>
      </trkpt>
      <trkpt lat="42.78551" lon="1.34115">
        <ele>843.5</ele>
        <time>2025-09-13T12:24:08+02:00</time>
      </trkpt>
      <trkpt lat="42.78551" lon="1.34115">
        <ele>843.5</ele>
        <time>2025-09-13T12:24:12+02:00</time>
      </trkpt>
      <trkpt lat="42.78551" lon="1.34115">
        <ele>843.5</ele>
        <time>2025-09-13T12:24:13+02:00</time>
      </trkpt>
      <trkpt lat="42.78551" lon="1.34115">
        <ele>843.5</ele>
        <time>2025-09-13T12:24:17+02:00</time>
      </trkpt>
      <trkpt lat="42.78551" lon="1.34115">
        <ele>843.5</ele>
        <time>2025-09-13T12:24:18+02:00</time>
      </trkpt>
      <trkpt lat="42.78551" lon="1.34115">
        <ele>843.5</ele>
        <time>2025-09-13T12:24:22+02:00</time>
      </trkpt>
      <trkpt lat="42.78551" lon="1.34114">
        <ele>843.5</ele>
        <time>2025-09-13T12:24:23+02:00</time>
      </trkpt>
      <trkpt lat="42.78551" lon="1.34113">
        <ele>839.7998</ele>
        <time>2025-09-13T12:24:27+02:00</time>
      </trkpt>
      <trkpt lat="42.78552" lon="1.34113">
        <ele>839.7998</ele>
        <time>2025-09-13T12:24:28+02:00</time>
      </trkpt>
      <trkpt lat="42.78552" lon="1.34112">
        <ele>839.7998</ele>
        <time>2025-09-13T12:24:33+02:00</time>
      </trkpt>
      <trkpt lat="42.78552" lon="1.34112">
        <ele>839.7998</ele>
        <time>2025-09-13T12:24:34+02:00</time>
      </trkpt>
      <trkpt lat="42.78552" lon="1.34113">
        <ele>839.7998</ele>
        <time>2025-09-13T12:24:42+02:00</time>
      </trkpt>
      <trkpt lat="42.78552" lon="1.34113">
        <ele>839.7998</ele>
        <time>2025-09-13T12:24:43+02:00</time>
      </trkpt>
      <trkpt lat="42.78552" lon="1.34113">
        <ele>839.7998</ele>
        <time>2025-09-13T12:24:47+02:00</time>
      </trkpt>
      <trkpt lat="42.78552" lon="1.34113">
        <ele>839.7998</ele>
        <time>2025-09-13T12:24:49+02:00</time>
      </trkpt>
      <trkpt lat="42.78552" lon="1.34112">
        <ele>839.7998</ele>
        <time>2025-09-13T12:24:53+02:00</time>
      </trkpt>
      <trkpt lat="42.78552" lon="1.34108">
        <ele>840</ele>
        <time>2025-09-13T12:24:56+02:00</time>
      </trkpt>
      <trkpt lat="42.78553" lon="1.34103">
        <ele>840</ele>
        <time>2025-09-13T12:25:00+02:00</time>
      </trkpt>
      <trkpt lat="42.78552" lon="1.34103">
        <ele>840</ele>
        <time>2025-09-13T12:25:01+02:00</time>
      </trkpt>
      <trkpt lat="42.78552" lon="1.34102">
        <ele>840</ele>
        <time>2025-09-13T12:25:05+02:00</time>
      </trkpt>
      <trkpt lat="42.78552" lon="1.34102">
        <ele>840</ele>
        <time>2025-09-13T12:25:06+02:00</time>
      </trkpt>
      <trkpt lat="42.78551" lon="1.34104">
        <ele>843.7002</ele>
        <time>2025-09-13T12:25:10+02:00</time>
      </trkpt>
      <trkpt lat="42.78551" lon="1.34104">
        <ele>843.7002</ele>
        <time>2025-09-13T12:25:11+02:00</time>
      </trkpt>
      <trkpt lat="42.78549" lon="1.34104">
        <ele>843.7002</ele>
        <time>2025-09-13T12:25:15+02:00</time>
      </trkpt>
      <trkpt lat="42.78549" lon="1.34104">
        <ele>843.7002</ele>
        <time>2025-09-13T12:25:16+02:00</time>
      </trkpt>
      <trkpt lat="42.78548" lon="1.34105">
        <ele>843.7002</ele>
        <time>2025-09-13T12:25:20+02:00</time>
      </trkpt>
      <trkpt lat="42.78547" lon="1.34105">
        <ele>843.7002</ele>
        <time>2025-09-13T12:25:21+02:00</time>
      </trkpt>
      <trkpt lat="42.78547" lon="1.34105">
        <ele>843.7002</ele>
        <time>2025-09-13T12:25:25+02:00</time>
      </trkpt>
      <trkpt lat="42.78547" lon="1.34105">
        <ele>843.7002</ele>
        <time>2025-09-13T12:25:26+02:00</time>
      </trkpt>
      <trkpt lat="42.78547" lon="1.34106">
        <ele>843.7002</ele>
        <time>2025-09-13T12:25:30+02:00</time>
      </trkpt>
      <trkpt lat="42.78547" lon="1.34106">
        <ele>843.7002</ele>
        <time>2025-09-13T12:25:31+02:00</time>
      </trkpt>
      <trkpt lat="42.78546" lon="1.34107">
        <ele>843.7002</ele>
        <time>2025-09-13T12:25:35+02:00</time>
      </trkpt>
      <trkpt lat="42.78546" lon="1.34107">
        <ele>843.7002</ele>
        <time>2025-09-13T12:25:36+02:00</time>
      </trkpt>
      <trkpt lat="42.78546" lon="1.34108">
        <ele>843.7002</ele>
        <time>2025-09-13T12:25:40+02:00</time>
      </trkpt>
      <trkpt lat="42.78546" lon="1.34108">
        <ele>843.7002</ele>
        <time>2025-09-13T12:25:41+02:00</time>
      </trkpt>
      <trkpt lat="42.78546" lon="1.34108">
        <ele>843.7002</ele>
        <time>2025-09-13T12:25:45+02:00</time>
      </trkpt>
      <trkpt lat="42.78546" lon="1.34108">
        <ele>843.7002</ele>
        <time>2025-09-13T12:25:46+02:00</time>
      </trkpt>
      <trkpt lat="42.78546" lon="1.34108">
        <ele>843.7002</ele>
        <time>2025-09-13T12:25:50+02:00</time>
      </trkpt>
      <trkpt lat="42.78546" lon="1.34108">
        <ele>843.7002</ele>
        <time>2025-09-13T12:25:51+02:00</time>
      </trkpt>
      <trkpt lat="42.78546" lon="1.34108">
        <ele>843.7002</ele>
        <time>2025-09-13T12:25:55+02:00</time>
      </trkpt>
      <trkpt lat="42.78546" lon="1.34108">
        <ele>843.7002</ele>
        <time>2025-09-13T12:25:56+02:00</time>
      </trkpt>
      <trkpt lat="42.78546" lon="1.34108">
        <ele>843.7002</ele>
        <time>2025-09-13T12:26:00+02:00</time>
      </trkpt>
      <trkpt lat="42.78546" lon="1.34108">
        <ele>843.7002</ele>
        <time>2025-09-13T12:26:01+02:00</time>
      </trkpt>
      <trkpt lat="42.78546" lon="1.34108">
        <ele>843.7002</ele>
        <time>2025-09-13T12:26:05+02:00</time>
      </trkpt>
      <trkpt lat="42.78546" lon="1.34108">
        <ele>843.7002</ele>
        <time>2025-09-13T12:26:06+02:00</time>
      </trkpt>
      <trkpt lat="42.78546" lon="1.34108">
        <ele>843.7002</ele>
        <time>2025-09-13T12:26:10+02:00</time>
      </trkpt>
      <trkpt lat="42.78546" lon="1.34108">
        <ele>843.7002</ele>
        <time>2025-09-13T12:26:11+02:00</time>
      </trkpt>
      <trkpt lat="42.78546" lon="1.34108">
        <ele>843.7002</ele>
        <time>2025-09-13T12:26:15+02:00</time>
      </trkpt>
      <trkpt lat="42.78546" lon="1.34108">
        <ele>843.7002</ele>
        <time>2025-09-13T12:26:16+02:00</time>
      </trkpt>
      <trkpt lat="42.78546" lon="1.34108">
        <ele>843.7002</ele>
        <time>2025-09-13T12:26:20+02:00</time>
      </trkpt>
      <trkpt lat="42.78546" lon="1.34108">
        <ele>843.7002</ele>
        <time>2025-09-13T12:26:21+02:00</time>
      </trkpt>
      <trkpt lat="42.78546" lon="1.34108">
        <ele>843.7002</ele>
        <time>2025-09-13T12:26:25+02:00</time>
      </trkpt>
      <trkpt lat="42.78546" lon="1.34108">
        <ele>843.7002</ele>
        <time>2025-09-13T12:26:26+02:00</time>
      </trkpt>
      <trkpt lat="42.78546" lon="1.34108">
        <ele>843.7002</ele>
        <time>2025-09-13T12:26:30+02:00</time>
      </trkpt>
      <trkpt lat="42.78546" lon="1.34108">
        <ele>843.7002</ele>
        <time>2025-09-13T12:26:31+02:00</time>
      </trkpt>
      <trkpt lat="42.78546" lon="1.34108">
        <ele>843.7002</ele>
        <time>2025-09-13T12:26:35+02:00</time>
      </trkpt>
      <trkpt lat="42.78546" lon="1.34108">
        <ele>843.7002</ele>
        <time>2025-09-13T12:26:36+02:00</time>
      </trkpt>
      <trkpt lat="42.78546" lon="1.34108">
        <ele>843.7002</ele>
        <time>2025-09-13T12:26:40+02:00</time>
      </trkpt>
      <trkpt lat="42.78546" lon="1.34108">
        <ele>843.7002</ele>
        <time>2025-09-13T12:26:41+02:00</time>
      </trkpt>
      <trkpt lat="42.78546" lon="1.34108">
        <ele>843.7002</ele>
        <time>2025-09-13T12:26:45+02:00</time>
      </trkpt>
      <trkpt lat="42.78546" lon="1.34108">
        <ele>843.7002</ele>
        <time>2025-09-13T12:26:46+02:00</time>
      </trkpt>
      <trkpt lat="42.78547" lon="1.34109">
        <ele>843.7002</ele>
        <time>2025-09-13T12:26:50+02:00</time>
      </trkpt>
      <trkpt lat="42.78547" lon="1.34109">
        <ele>843.7002</ele>
        <time>2025-09-13T12:26:51+02:00</time>
      </trkpt>
      <trkpt lat="42.78547" lon="1.34109">
        <ele>843.7002</ele>
        <time>2025-09-13T12:26:55+02:00</time>
      </trkpt>
      <trkpt lat="42.78547" lon="1.34109">
        <ele>843.7002</ele>
        <time>2025-09-13T12:26:56+02:00</time>
      </trkpt>
      <trkpt lat="42.78547" lon="1.34109">
        <ele>843.7002</ele>
        <time>2025-09-13T12:27:00+02:00</time>
      </trkpt>
      <trkpt lat="42.78547" lon="1.34109">
        <ele>843.7002</ele>
        <time>2025-09-13T12:27:01+02:00</time>
      </trkpt>
      <trkpt lat="42.78547" lon="1.34109">
        <ele>843.7002</ele>
        <time>2025-09-13T12:27:05+02:00</time>
      </trkpt>
      <trkpt lat="42.78547" lon="1.34109">
        <ele>843.7002</ele>
        <time>2025-09-13T12:27:06+02:00</time>
      </trkpt>
      <trkpt lat="42.78547" lon="1.34109">
        <ele>843.7002</ele>
        <time>2025-09-13T12:27:10+02:00</time>
      </trkpt>
      <trkpt lat="42.78547" lon="1.34109">
        <ele>843.7002</ele>
        <time>2025-09-13T12:27:11+02:00</time>
      </trkpt>
      <trkpt lat="42.78548" lon="1.34109">
        <ele>843.7002</ele>
        <time>2025-09-13T12:27:15+02:00</time>
      </trkpt>
      <trkpt lat="42.78548" lon="1.34109">
        <ele>843.7002</ele>
        <time>2025-09-13T12:27:16+02:00</time>
      </trkpt>
      <trkpt lat="42.78548" lon="1.3411">
        <ele>843.7002</ele>
        <time>2025-09-13T12:27:20+02:00</time>
      </trkpt>
      <trkpt lat="42.78548" lon="1.3411">
        <ele>843.7002</ele>
        <time>2025-09-13T12:27:21+02:00</time>
      </trkpt>
      <trkpt lat="42.78548" lon="1.3411">
        <ele>843.7002</ele>
        <time>2025-09-13T12:27:25+02:00</time>
      </trkpt>
      <trkpt lat="42.78548" lon="1.3411">
        <ele>843.7002</ele>
        <time>2025-09-13T12:27:26+02:00</time>
      </trkpt>
      <trkpt lat="42.78548" lon="1.3411">
        <ele>843.7002</ele>
        <time>2025-09-13T12:27:30+02:00</time>
      </trkpt>
      <trkpt lat="42.78548" lon="1.3411">
        <ele>843.7002</ele>
        <time>2025-09-13T12:27:31+02:00</time>
      </trkpt>
      <trkpt lat="42.78548" lon="1.3411">
        <ele>843.7002</ele>
        <time>2025-09-13T12:27:35+02:00</time>
      </trkpt>
      <trkpt lat="42.78548" lon="1.3411">
        <ele>843.7002</ele>
        <time>2025-09-13T12:27:36+02:00</time>
      </trkpt>
      <trkpt lat="42.78548" lon="1.3411">
        <ele>843.7002</ele>
        <time>2025-09-13T12:27:40+02:00</time>
      </trkpt>
      <trkpt lat="42.78548" lon="1.3411">
        <ele>843.7002</ele>
        <time>2025-09-13T12:27:41+02:00</time>
      </trkpt>
      <trkpt lat="42.78548" lon="1.3411">
        <ele>843.7002</ele>
        <time>2025-09-13T12:27:45+02:00</time>
      </trkpt>
      <trkpt lat="42.78548" lon="1.3411">
        <ele>843.7002</ele>
        <time>2025-09-13T12:27:46+02:00</time>
      </trkpt>
      <trkpt lat="42.78548" lon="1.3411">
        <ele>843.7002</ele>
        <time>2025-09-13T12:27:50+02:00</time>
      </trkpt>
      <trkpt lat="42.78548" lon="1.3411">
        <ele>843.7002</ele>
        <time>2025-09-13T12:27:51+02:00</time>
      </trkpt>
      <trkpt lat="42.78548" lon="1.3411">
        <ele>843.7002</ele>
        <time>2025-09-13T12:27:55+02:00</time>
      </trkpt>
      <trkpt lat="42.78548" lon="1.3411">
        <ele>843.7002</ele>
        <time>2025-09-13T12:27:56+02:00</time>
      </trkpt>
      <trkpt lat="42.78548" lon="1.3411">
        <ele>843.7002</ele>
        <time>2025-09-13T12:28:00+02:00</time>
      </trkpt>
      <trkpt lat="42.78548" lon="1.3411">
        <ele>843.7002</ele>
        <time>2025-09-13T12:28:01+02:00</time>
      </trkpt>
      <trkpt lat="42.78548" lon="1.3411">
        <ele>843.7002</ele>
        <time>2025-09-13T12:28:05+02:00</time>
      </trkpt>
      <trkpt lat="42.78548" lon="1.3411">
        <ele>843.7002</ele>
        <time>2025-09-13T12:28:06+02:00</time>
      </trkpt>
      <trkpt lat="42.78547" lon="1.34109">
        <ele>843.7002</ele>
        <time>2025-09-13T12:28:10+02:00</time>
      </trkpt>
      <trkpt lat="42.78547" lon="1.34109">
        <ele>843.7002</ele>
        <time>2025-09-13T12:28:11+02:00</time>
      </trkpt>
      <trkpt lat="42.78547" lon="1.3411">
        <ele>843.7002</ele>
        <time>2025-09-13T12:28:15+02:00</time>
      </trkpt>
      <trkpt lat="42.78547" lon="1.3411">
        <ele>843.7002</ele>
        <time>2025-09-13T12:28:16+02:00</time>
      </trkpt>
      <trkpt lat="42.78547" lon="1.3411">
        <ele>843.7002</ele>
        <time>2025-09-13T12:28:20+02:00</time>
      </trkpt>
      <trkpt lat="42.78547" lon="1.3411">
        <ele>843.7002</ele>
        <time>2025-09-13T12:28:21+02:00</time>
      </trkpt>
      <trkpt lat="42.78547" lon="1.3411">
        <ele>843.7002</ele>
        <time>2025-09-13T12:28:25+02:00</time>
      </trkpt>
      <trkpt lat="42.78547" lon="1.3411">
        <ele>843.7002</ele>
        <time>2025-09-13T12:28:26+02:00</time>
      </trkpt>
      <trkpt lat="42.78547" lon="1.3411">
        <ele>843.7002</ele>
        <time>2025-09-13T12:28:30+02:00</time>
      </trkpt>
      <trkpt lat="42.78547" lon="1.3411">
        <ele>843.7002</ele>
        <time>2025-09-13T12:28:31+02:00</time>
      </trkpt>
      <trkpt lat="42.78547" lon="1.3411">
        <ele>843.7002</ele>
        <time>2025-09-13T12:28:35+02:00</time>
      </trkpt>
      <trkpt lat="42.78547" lon="1.3411">
        <ele>843.7002</ele>
        <time>2025-09-13T12:28:36+02:00</time>
      </trkpt>
      <trkpt lat="42.78547" lon="1.3411">
        <ele>843.7002</ele>
        <time>2025-09-13T12:28:40+02:00</time>
      </trkpt>
      <trkpt lat="42.78547" lon="1.3411">
        <ele>843.7002</ele>
        <time>2025-09-13T12:28:41+02:00</time>
      </trkpt>
      <trkpt lat="42.78548" lon="1.3411">
        <ele>843.7002</ele>
        <time>2025-09-13T12:28:45+02:00</time>
      </trkpt>
      <trkpt lat="42.78548" lon="1.3411">
        <ele>843.7002</ele>
        <time>2025-09-13T12:28:46+02:00</time>
      </trkpt>
      <trkpt lat="42.78548" lon="1.3411">
        <ele>843.7002</ele>
        <time>2025-09-13T12:28:50+02:00</time>
      </trkpt>
      <trkpt lat="42.78548" lon="1.3411">
        <ele>843.7002</ele>
        <time>2025-09-13T12:28:51+02:00</time>
      </trkpt>
      <trkpt lat="42.78548" lon="1.34108">
        <ele>843.7002</ele>
        <time>2025-09-13T12:28:55+02:00</time>
      </trkpt>
      <trkpt lat="42.78548" lon="1.34108">
        <ele>843.7002</ele>
        <time>2025-09-13T12:28:56+02:00</time>
      </trkpt>
      <trkpt lat="42.78548" lon="1.34108">
        <ele>843.7002</ele>
        <time>2025-09-13T12:29:01+02:00</time>
      </trkpt>
      <trkpt lat="42.78547" lon="1.34108">
        <ele>843.7002</ele>
        <time>2025-09-13T12:29:02+02:00</time>
      </trkpt>
      <trkpt lat="42.78547" lon="1.34108">
        <ele>843.7002</ele>
        <time>2025-09-13T12:29:06+02:00</time>
      </trkpt>
      <trkpt lat="42.78547" lon="1.34108">
        <ele>843.7002</ele>
        <time>2025-09-13T12:29:07+02:00</time>
      </trkpt>
      <trkpt lat="42.78548" lon="1.34107">
        <ele>843.7002</ele>
        <time>2025-09-13T12:29:13+02:00</time>
      </trkpt>
      <trkpt lat="42.78547" lon="1.34107">
        <ele>843.7002</ele>
        <time>2025-09-13T12:29:14+02:00</time>
      </trkpt>
      <trkpt lat="42.78547" lon="1.34108">
        <ele>843.7002</ele>
        <time>2025-09-13T12:29:18+02:00</time>
      </trkpt>
      <trkpt lat="42.78547" lon="1.34109">
        <ele>843.7002</ele>
        <time>2025-09-13T12:29:19+02:00</time>
      </trkpt>
      <trkpt lat="42.78548" lon="1.34109">
        <ele>843.7002</ele>
        <time>2025-09-13T12:29:23+02:00</time>
      </trkpt>
      <trkpt lat="42.78547" lon="1.34109">
        <ele>843.7002</ele>
        <time>2025-09-13T12:29:24+02:00</time>
      </trkpt>
      <trkpt lat="42.78547" lon="1.34109">
        <ele>843.7002</ele>
        <time>2025-09-13T12:29:28+02:00</time>
      </trkpt>
      <trkpt lat="42.78548" lon="1.34109">
        <ele>843.7002</ele>
        <time>2025-09-13T12:29:29+02:00</time>
      </trkpt>
      <trkpt lat="42.78548" lon="1.34108">
        <ele>843.7002</ele>
        <time>2025-09-13T12:29:33+02:00</time>
      </trkpt>
      <trkpt lat="42.78548" lon="1.34108">
        <ele>843.7002</ele>
        <time>2025-09-13T12:29:34+02:00</time>
      </trkpt>
      <trkpt lat="42.78549" lon="1.34109">
        <ele>843.7002</ele>
        <time>2025-09-13T12:29:38+02:00</time>
      </trkpt>
      <trkpt lat="42.78549" lon="1.34109">
        <ele>843.7002</ele>
        <time>2025-09-13T12:29:39+02:00</time>
      </trkpt>
      <trkpt lat="42.7855" lon="1.3411">
        <ele>843.7002</ele>
        <time>2025-09-13T12:29:43+02:00</time>
      </trkpt>
      <trkpt lat="42.78551" lon="1.3411">
        <ele>843.7002</ele>
        <time>2025-09-13T12:29:44+02:00</time>
      </trkpt>
      <trkpt lat="42.78551" lon="1.3411">
        <ele>840</ele>
        <time>2025-09-13T12:29:48+02:00</time>
      </trkpt>
      <trkpt lat="42.78551" lon="1.3411">
        <ele>840</ele>
        <time>2025-09-13T12:29:49+02:00</time>
      </trkpt>
      <trkpt lat="42.78552" lon="1.3411">
        <ele>840</ele>
        <time>2025-09-13T12:29:53+02:00</time>
      </trkpt>
      <trkpt lat="42.78552" lon="1.3411">
        <ele>840</ele>
        <time>2025-09-13T12:29:54+02:00</time>
      </trkpt>
      <trkpt lat="42.78552" lon="1.3411">
        <ele>840</ele>
        <time>2025-09-13T12:29:58+02:00</time>
      </trkpt>
      <trkpt lat="42.78552" lon="1.3411">
        <ele>840</ele>
        <time>2025-09-13T12:29:59+02:00</time>
      </trkpt>
      <trkpt lat="42.78552" lon="1.3411">
        <ele>840</ele>
        <time>2025-09-13T12:30:03+02:00</time>
      </trkpt>
      <trkpt lat="42.78552" lon="1.3411">
        <ele>840</ele>
        <time>2025-09-13T12:30:04+02:00</time>
      </trkpt>
      <trkpt lat="42.78552" lon="1.3411">
        <ele>840</ele>
        <time>2025-09-13T12:30:08+02:00</time>
      </trkpt>
      <trkpt lat="42.78552" lon="1.3411">
        <ele>840</ele>
        <time>2025-09-13T12:30:09+02:00</time>
      </trkpt>
      <trkpt lat="42.78553" lon="1.3411">
        <ele>839.7998</ele>
        <time>2025-09-13T12:30:13+02:00</time>
      </trkpt>
      <trkpt lat="42.78553" lon="1.34111">
        <ele>839.7998</ele>
        <time>2025-09-13T12:30:14+02:00</time>
      </trkpt>
      <trkpt lat="42.78553" lon="1.34111">
        <ele>839.7998</ele>
        <time>2025-09-13T12:30:18+02:00</time>
      </trkpt>
      <trkpt lat="42.78553" lon="1.34111">
        <ele>839.7998</ele>
        <time>2025-09-13T12:30:19+02:00</time>
      </trkpt>
      <trkpt lat="42.78553" lon="1.34111">
        <ele>839.7998</ele>
        <time>2025-09-13T12:30:23+02:00</time>
      </trkpt>
      <trkpt lat="42.78553" lon="1.34111">
        <ele>839.7998</ele>
        <time>2025-09-13T12:30:24+02:00</time>
      </trkpt>
      <trkpt lat="42.78553" lon="1.34111">
        <ele>839.7998</ele>
        <time>2025-09-13T12:30:28+02:00</time>
      </trkpt>
      <trkpt lat="42.78553" lon="1.34111">
        <ele>839.7998</ele>
        <time>2025-09-13T12:30:29+02:00</time>
      </trkpt>
      <trkpt lat="42.78553" lon="1.34111">
        <ele>839.7998</ele>
        <time>2025-09-13T12:30:33+02:00</time>
      </trkpt>
      <trkpt lat="42.78553" lon="1.34111">
        <ele>839.7998</ele>
        <time>2025-09-13T12:30:34+02:00</time>
      </trkpt>
      <trkpt lat="42.78553" lon="1.34111">
        <ele>839.7998</ele>
        <time>2025-09-13T12:30:38+02:00</time>
      </trkpt>
      <trkpt lat="42.78553" lon="1.34112">
        <ele>839.7998</ele>
        <time>2025-09-13T12:30:39+02:00</time>
      </trkpt>
      <trkpt lat="42.78552" lon="1.34111">
        <ele>839.7998</ele>
        <time>2025-09-13T12:30:43+02:00</time>
      </trkpt>
      <trkpt lat="42.78553" lon="1.34111">
        <ele>839.7998</ele>
        <time>2025-09-13T12:30:44+02:00</time>
      </trkpt>
      <trkpt lat="42.78554" lon="1.34112">
        <ele>839.7998</ele>
        <time>2025-09-13T12:30:49+02:00</time>
      </trkpt>
      <trkpt lat="42.78554" lon="1.34112">
        <ele>839.7998</ele>
        <time>2025-09-13T12:30:50+02:00</time>
      </trkpt>
      <trkpt lat="42.78554" lon="1.34111">
        <ele>839.7998</ele>
        <time>2025-09-13T12:30:54+02:00</time>
      </trkpt>
      <trkpt lat="42.78554" lon="1.34111">
        <ele>839.7998</ele>
        <time>2025-09-13T12:30:55+02:00</time>
      </trkpt>
      <trkpt lat="42.78554" lon="1.34111">
        <ele>839.7998</ele>
        <time>2025-09-13T12:30:59+02:00</time>
      </trkpt>
      <trkpt lat="42.78554" lon="1.34111">
        <ele>839.7998</ele>
        <time>2025-09-13T12:31:01+02:00</time>
      </trkpt>
      <trkpt lat="42.78555" lon="1.34113">
        <ele>839.7998</ele>
        <time>2025-09-13T12:31:05+02:00</time>
      </trkpt>
      <trkpt lat="42.78555" lon="1.34113">
        <ele>839.7998</ele>
        <time>2025-09-13T12:31:06+02:00</time>
      </trkpt>
      <trkpt lat="42.78555" lon="1.34113">
        <ele>839.7998</ele>
        <time>2025-09-13T12:31:10+02:00</time>
      </trkpt>
      <trkpt lat="42.78555" lon="1.34113">
        <ele>839.7998</ele>
        <time>2025-09-13T12:31:11+02:00</time>
      </trkpt>
      <trkpt lat="42.78555" lon="1.34113">
        <ele>839.7998</ele>
        <time>2025-09-13T12:31:15+02:00</time>
      </trkpt>
      <trkpt lat="42.78555" lon="1.34113">
        <ele>839.7998</ele>
        <time>2025-09-13T12:31:16+02:00</time>
      </trkpt>
      <trkpt lat="42.78555" lon="1.34113">
        <ele>839.7998</ele>
        <time>2025-09-13T12:31:20+02:00</time>
      </trkpt>
      <trkpt lat="42.78555" lon="1.34113">
        <ele>839.7998</ele>
        <time>2025-09-13T12:31:21+02:00</time>
      </trkpt>
      <trkpt lat="42.78555" lon="1.34113">
        <ele>839.7998</ele>
        <time>2025-09-13T12:31:25+02:00</time>
      </trkpt>
      <trkpt lat="42.78555" lon="1.34113">
        <ele>839.7998</ele>
        <time>2025-09-13T12:31:26+02:00</time>
      </trkpt>
      <trkpt lat="42.78555" lon="1.34113">
        <ele>839.7998</ele>
        <time>2025-09-13T12:31:30+02:00</time>
      </trkpt>
      <trkpt lat="42.78555" lon="1.34113">
        <ele>839.7998</ele>
        <time>2025-09-13T12:31:31+02:00</time>
      </trkpt>
      <trkpt lat="42.78555" lon="1.34113">
        <ele>839.7998</ele>
        <time>2025-09-13T12:31:35+02:00</time>
      </trkpt>
      <trkpt lat="42.78555" lon="1.34113">
        <ele>839.7998</ele>
        <time>2025-09-13T12:31:36+02:00</time>
      </trkpt>
      <trkpt lat="42.78555" lon="1.34113">
        <ele>839.7998</ele>
        <time>2025-09-13T12:31:40+02:00</time>
      </trkpt>
      <trkpt lat="42.78555" lon="1.34113">
        <ele>839.7998</ele>
        <time>2025-09-13T12:31:41+02:00</time>
      </trkpt>
      <trkpt lat="42.78555" lon="1.34113">
        <ele>839.7998</ele>
        <time>2025-09-13T12:31:45+02:00</time>
      </trkpt>
      <trkpt lat="42.78555" lon="1.34113">
        <ele>839.7998</ele>
        <time>2025-09-13T12:31:46+02:00</time>
      </trkpt>
      <trkpt lat="42.78555" lon="1.34113">
        <ele>839.7998</ele>
        <time>2025-09-13T12:31:50+02:00</time>
      </trkpt>
      <trkpt lat="42.78555" lon="1.34113">
        <ele>839.7998</ele>
        <time>2025-09-13T12:31:51+02:00</time>
      </trkpt>
      <trkpt lat="42.78555" lon="1.34113">
        <ele>839.7998</ele>
        <time>2025-09-13T12:31:55+02:00</time>
      </trkpt>
      <trkpt lat="42.78555" lon="1.34113">
        <ele>839.7998</ele>
        <time>2025-09-13T12:31:56+02:00</time>
      </trkpt>
      <trkpt lat="42.78555" lon="1.34113">
        <ele>839.7998</ele>
        <time>2025-09-13T12:32:00+02:00</time>
      </trkpt>
      <trkpt lat="42.78555" lon="1.34113">
        <ele>839.7998</ele>
        <time>2025-09-13T12:32:01+02:00</time>
      </trkpt>
      <trkpt lat="42.78555" lon="1.34112">
        <ele>839.7998</ele>
        <time>2025-09-13T12:32:05+02:00</time>
      </trkpt>
      <trkpt lat="42.78555" lon="1.34112">
        <ele>839.7998</ele>
        <time>2025-09-13T12:32:06+02:00</time>
      </trkpt>
      <trkpt lat="42.78555" lon="1.34112">
        <ele>839.7998</ele>
        <time>2025-09-13T12:32:10+02:00</time>
      </trkpt>
      <trkpt lat="42.78555" lon="1.34112">
        <ele>839.7998</ele>
        <time>2025-09-13T12:32:11+02:00</time>
      </trkpt>
      <trkpt lat="42.78555" lon="1.34112">
        <ele>839.7998</ele>
        <time>2025-09-13T12:32:15+02:00</time>
      </trkpt>
      <trkpt lat="42.78555" lon="1.34112">
        <ele>839.7998</ele>
        <time>2025-09-13T12:32:16+02:00</time>
      </trkpt>
      <trkpt lat="42.78555" lon="1.34113">
        <ele>839.7998</ele>
        <time>2025-09-13T12:32:20+02:00</time>
      </trkpt>
      <trkpt lat="42.78555" lon="1.34112">
        <ele>839.7998</ele>
        <time>2025-09-13T12:32:21+02:00</time>
      </trkpt>
      <trkpt lat="42.78555" lon="1.34112">
        <ele>839.7998</ele>
        <time>2025-09-13T12:32:26+02:00</time>
      </trkpt>
      <trkpt lat="42.78555" lon="1.34112">
        <ele>839.7998</ele>
        <time>2025-09-13T12:32:27+02:00</time>
      </trkpt>
      <trkpt lat="42.78556" lon="1.34112">
        <ele>839.7998</ele>
        <time>2025-09-13T12:32:31+02:00</time>
      </trkpt>
      <trkpt lat="42.78556" lon="1.34112">
        <ele>839.7998</ele>
        <time>2025-09-13T12:32:32+02:00</time>
      </trkpt>
      <trkpt lat="42.78556" lon="1.34111">
        <ele>839.7998</ele>
        <time>2025-09-13T12:32:36+02:00</time>
      </trkpt>
      <trkpt lat="42.78556" lon="1.34111">
        <ele>839.7998</ele>
        <time>2025-09-13T12:32:37+02:00</time>
      </trkpt>
      <trkpt lat="42.78556" lon="1.34112">
        <ele>839.7998</ele>
        <time>2025-09-13T12:32:41+02:00</time>
      </trkpt>
      <trkpt lat="42.78556" lon="1.34112">
        <ele>839.7998</ele>
        <time>2025-09-13T12:32:42+02:00</time>
      </trkpt>
      <trkpt lat="42.78556" lon="1.34112">
        <ele>839.7998</ele>
        <time>2025-09-13T12:32:46+02:00</time>
      </trkpt>
      <trkpt lat="42.78556" lon="1.34112">
        <ele>839.7998</ele>
        <time>2025-09-13T12:32:47+02:00</time>
      </trkpt>
      <trkpt lat="42.78556" lon="1.34112">
        <ele>839.7998</ele>
        <time>2025-09-13T12:32:51+02:00</time>
      </trkpt>
      <trkpt lat="42.78556" lon="1.34112">
        <ele>839.7998</ele>
        <time>2025-09-13T12:32:52+02:00</time>
      </trkpt>
      <trkpt lat="42.78556" lon="1.34113">
        <ele>839.7998</ele>
        <time>2025-09-13T12:32:56+02:00</time>
      </trkpt>
      <trkpt lat="42.78556" lon="1.34113">
        <ele>839.7998</ele>
        <time>2025-09-13T12:32:57+02:00</time>
      </trkpt>
      <trkpt lat="42.78556" lon="1.34113">
        <ele>839.7998</ele>
        <time>2025-09-13T12:33:01+02:00</time>
      </trkpt>
      <trkpt lat="42.78556" lon="1.34113">
        <ele>839.7998</ele>
        <time>2025-09-13T12:33:02+02:00</time>
      </trkpt>
      <trkpt lat="42.78556" lon="1.34113">
        <ele>839.7998</ele>
        <time>2025-09-13T12:33:06+02:00</time>
      </trkpt>
      <trkpt lat="42.78555" lon="1.34113">
        <ele>839.7998</ele>
        <time>2025-09-13T12:33:07+02:00</time>
      </trkpt>
      <trkpt lat="42.78555" lon="1.34114">
        <ele>839.7998</ele>
        <time>2025-09-13T12:33:11+02:00</time>
      </trkpt>
      <trkpt lat="42.78555" lon="1.34114">
        <ele>839.7998</ele>
        <time>2025-09-13T12:33:12+02:00</time>
      </trkpt>
      <trkpt lat="42.78555" lon="1.34113">
        <ele>839.7998</ele>
        <time>2025-09-13T12:33:16+02:00</time>
      </trkpt>
      <trkpt lat="42.78555" lon="1.34113">
        <ele>839.7998</ele>
        <time>2025-09-13T12:33:17+02:00</time>
      </trkpt>
      <trkpt lat="42.78555" lon="1.34114">
        <ele>839.7998</ele>
        <time>2025-09-13T12:33:22+02:00</time>
      </trkpt>
      <trkpt lat="42.78555" lon="1.34114">
        <ele>839.7998</ele>
        <time>2025-09-13T12:33:23+02:00</time>
      </trkpt>
      <trkpt lat="42.78555" lon="1.34114">
        <ele>839.7998</ele>
        <time>2025-09-13T12:33:27+02:00</time>
      </trkpt>
      <trkpt lat="42.78555" lon="1.34114">
        <ele>839.7998</ele>
        <time>2025-09-13T12:33:28+02:00</time>
      </trkpt>
      <trkpt lat="42.78555" lon="1.34114">
        <ele>839.7998</ele>
        <time>2025-09-13T12:33:32+02:00</time>
      </trkpt>
      <trkpt lat="42.78555" lon="1.34114">
        <ele>839.7998</ele>
        <time>2025-09-13T12:33:33+02:00</time>
      </trkpt>
      <trkpt lat="42.78555" lon="1.34114">
        <ele>839.7998</ele>
        <time>2025-09-13T12:33:37+02:00</time>
      </trkpt>
      <trkpt lat="42.78555" lon="1.34115">
        <ele>839.7998</ele>
        <time>2025-09-13T12:33:38+02:00</time>
      </trkpt>
      <trkpt lat="42.78555" lon="1.34115">
        <ele>839.7998</ele>
        <time>2025-09-13T12:33:42+02:00</time>
      </trkpt>
      <trkpt lat="42.78555" lon="1.34115">
        <ele>839.7998</ele>
        <time>2025-09-13T12:33:43+02:00</time>
      </trkpt>
      <trkpt lat="42.78555" lon="1.34115">
        <ele>839.7998</ele>
        <time>2025-09-13T12:33:47+02:00</time>
      </trkpt>
      <trkpt lat="42.78555" lon="1.34115">
        <ele>839.7998</ele>
        <time>2025-09-13T12:33:48+02:00</time>
      </trkpt>
      <trkpt lat="42.78554" lon="1.34114">
        <ele>839.7998</ele>
        <time>2025-09-13T12:33:52+02:00</time>
      </trkpt>
      <trkpt lat="42.78554" lon="1.34114">
        <ele>839.7998</ele>
        <time>2025-09-13T12:33:53+02:00</time>
      </trkpt>
      <trkpt lat="42.78554" lon="1.34114">
        <ele>839.7998</ele>
        <time>2025-09-13T12:33:57+02:00</time>
      </trkpt>
      <trkpt lat="42.78554" lon="1.34114">
        <ele>839.7998</ele>
        <time>2025-09-13T12:33:58+02:00</time>
      </trkpt>
      <trkpt lat="42.78554" lon="1.34115">
        <ele>839.7998</ele>
        <time>2025-09-13T12:34:02+02:00</time>
      </trkpt>
      <trkpt lat="42.78553" lon="1.34115">
        <ele>839.7998</ele>
        <time>2025-09-13T12:34:03+02:00</time>
      </trkpt>
      <trkpt lat="42.78553" lon="1.34115">
        <ele>839.7998</ele>
        <time>2025-09-13T12:34:07+02:00</time>
      </trkpt>
      <trkpt lat="42.78553" lon="1.34115">
        <ele>839.7998</ele>
        <time>2025-09-13T12:34:08+02:00</time>
      </trkpt>
      <trkpt lat="42.78553" lon="1.34115">
        <ele>839.7998</ele>
        <time>2025-09-13T12:34:12+02:00</time>
      </trkpt>
      <trkpt lat="42.78553" lon="1.34115">
        <ele>839.7998</ele>
        <time>2025-09-13T12:34:13+02:00</time>
      </trkpt>
      <trkpt lat="42.78553" lon="1.34115">
        <ele>839.7998</ele>
        <time>2025-09-13T12:34:17+02:00</time>
      </trkpt>
      <trkpt lat="42.78553" lon="1.34114">
        <ele>839.7998</ele>
        <time>2025-09-13T12:34:18+02:00</time>
      </trkpt>
      <trkpt lat="42.78553" lon="1.34114">
        <ele>839.7998</ele>
        <time>2025-09-13T12:34:22+02:00</time>
      </trkpt>
      <trkpt lat="42.78553" lon="1.34115">
        <ele>839.7998</ele>
        <time>2025-09-13T12:34:23+02:00</time>
      </trkpt>
      <trkpt lat="42.78553" lon="1.34115">
        <ele>839.7998</ele>
        <time>2025-09-13T12:34:27+02:00</time>
      </trkpt>
      <trkpt lat="42.78553" lon="1.34115">
        <ele>839.7998</ele>
        <time>2025-09-13T12:34:28+02:00</time>
      </trkpt>
      <trkpt lat="42.7855" lon="1.34114">
        <ele>843.5</ele>
        <time>2025-09-13T12:34:32+02:00</time>
      </trkpt>
      <trkpt lat="42.7855" lon="1.34113">
        <ele>843.5</ele>
        <time>2025-09-13T12:34:33+02:00</time>
      </trkpt>
      <trkpt lat="42.78549" lon="1.34113">
        <ele>843.5</ele>
        <time>2025-09-13T12:34:37+02:00</time>
      </trkpt>
      <trkpt lat="42.78549" lon="1.34113">
        <ele>843.5</ele>
        <time>2025-09-13T12:34:38+02:00</time>
      </trkpt>
      <trkpt lat="42.78549" lon="1.34113">
        <ele>843.5</ele>
        <time>2025-09-13T12:34:42+02:00</time>
      </trkpt>
      <trkpt lat="42.78549" lon="1.34113">
        <ele>843.5</ele>
        <time>2025-09-13T12:34:43+02:00</time>
      </trkpt>
      <trkpt lat="42.78549" lon="1.34113">
        <ele>843.5</ele>
        <time>2025-09-13T12:34:47+02:00</time>
      </trkpt>
      <trkpt lat="42.78549" lon="1.34113">
        <ele>843.5</ele>
        <time>2025-09-13T12:34:48+02:00</time>
      </trkpt>
      <trkpt lat="42.78549" lon="1.34113">
        <ele>843.5</ele>
        <time>2025-09-13T12:34:52+02:00</time>
      </trkpt>
      <trkpt lat="42.78549" lon="1.34113">
        <ele>843.5</ele>
        <time>2025-09-13T12:34:53+02:00</time>
      </trkpt>
      <trkpt lat="42.78549" lon="1.34113">
        <ele>843.5</ele>
        <time>2025-09-13T12:34:57+02:00</time>
      </trkpt>
      <trkpt lat="42.78549" lon="1.34113">
        <ele>843.5</ele>
        <time>2025-09-13T12:34:58+02:00</time>
      </trkpt>
      <trkpt lat="42.78549" lon="1.34113">
        <ele>843.5</ele>
        <time>2025-09-13T12:35:02+02:00</time>
      </trkpt>
      <trkpt lat="42.78549" lon="1.34113">
        <ele>843.5</ele>
        <time>2025-09-13T12:35:03+02:00</time>
      </trkpt>
      <trkpt lat="42.7855" lon="1.34114">
        <ele>843.5</ele>
        <time>2025-09-13T12:35:07+02:00</time>
      </trkpt>
      <trkpt lat="42.7855" lon="1.34114">
        <ele>843.5</ele>
        <time>2025-09-13T12:35:08+02:00</time>
      </trkpt>
      <trkpt lat="42.7855" lon="1.34114">
        <ele>843.5</ele>
        <time>2025-09-13T12:35:12+02:00</time>
      </trkpt>
      <trkpt lat="42.7855" lon="1.34114">
        <ele>843.5</ele>
        <time>2025-09-13T12:35:13+02:00</time>
      </trkpt>
      <trkpt lat="42.7855" lon="1.34115">
        <ele>843.5</ele>
        <time>2025-09-13T12:35:17+02:00</time>
      </trkpt>
      <trkpt lat="42.7855" lon="1.34115">
        <ele>843.5</ele>
        <time>2025-09-13T12:35:18+02:00</time>
      </trkpt>
      <trkpt lat="42.7855" lon="1.34115">
        <ele>843.5</ele>
        <time>2025-09-13T12:35:22+02:00</time>
      </trkpt>
      <trkpt lat="42.7855" lon="1.34115">
        <ele>843.5</ele>
        <time>2025-09-13T12:35:23+02:00</time>
      </trkpt>
      <trkpt lat="42.7855" lon="1.34115">
        <ele>843.5</ele>
        <time>2025-09-13T12:35:27+02:00</time>
      </trkpt>
      <trkpt lat="42.7855" lon="1.34115">
        <ele>843.5</ele>
        <time>2025-09-13T12:35:28+02:00</time>
      </trkpt>
      <trkpt lat="42.78551" lon="1.34115">
        <ele>843.5</ele>
        <time>2025-09-13T12:35:32+02:00</time>
      </trkpt>
      <trkpt lat="42.78551" lon="1.34115">
        <ele>839.7998</ele>
        <time>2025-09-13T12:35:33+02:00</time>
      </trkpt>
      <trkpt lat="42.78552" lon="1.34114">
        <ele>839.7998</ele>
        <time>2025-09-13T12:35:37+02:00</time>
      </trkpt>
      <trkpt lat="42.78552" lon="1.34114">
        <ele>839.7998</ele>
        <time>2025-09-13T12:35:38+02:00</time>
      </trkpt>
      <trkpt lat="42.78552" lon="1.34114">
        <ele>839.7998</ele>
        <time>2025-09-13T12:35:42+02:00</time>
      </trkpt>
      <trkpt lat="42.78552" lon="1.34114">
        <ele>839.7998</ele>
        <time>2025-09-13T12:35:43+02:00</time>
      </trkpt>
      <trkpt lat="42.78552" lon="1.34114">
        <ele>839.7998</ele>
        <time>2025-09-13T12:35:47+02:00</time>
      </trkpt>
      <trkpt lat="42.78552" lon="1.34114">
        <ele>839.7998</ele>
        <time>2025-09-13T12:35:48+02:00</time>
      </trkpt>
      <trkpt lat="42.78552" lon="1.34114">
        <ele>839.7998</ele>
        <time>2025-09-13T12:35:52+02:00</time>
      </trkpt>
      <trkpt lat="42.78552" lon="1.34114">
        <ele>839.7998</ele>
        <time>2025-09-13T12:35:53+02:00</time>
      </trkpt>
      <trkpt lat="42.78552" lon="1.34114">
        <ele>839.7998</ele>
        <time>2025-09-13T12:35:57+02:00</time>
      </trkpt>
      <trkpt lat="42.78552" lon="1.34114">
        <ele>839.7998</ele>
        <time>2025-09-13T12:35:58+02:00</time>
      </trkpt>
      <trkpt lat="42.78552" lon="1.34115">
        <ele>839.7998</ele>
        <time>2025-09-13T12:36:02+02:00</time>
      </trkpt>
      <trkpt lat="42.78552" lon="1.34115">
        <ele>839.7998</ele>
        <time>2025-09-13T12:36:03+02:00</time>
      </trkpt>
      <trkpt lat="42.78552" lon="1.34115">
        <ele>839.7998</ele>
        <time>2025-09-13T12:36:07+02:00</time>
      </trkpt>
      <trkpt lat="42.78552" lon="1.34115">
        <ele>839.7998</ele>
        <time>2025-09-13T12:36:08+02:00</time>
      </trkpt>
      <trkpt lat="42.78552" lon="1.34115">
        <ele>839.7998</ele>
        <time>2025-09-13T12:36:12+02:00</time>
      </trkpt>
      <trkpt lat="42.78552" lon="1.34115">
        <ele>839.7998</ele>
        <time>2025-09-13T12:36:13+02:00</time>
      </trkpt>
      <trkpt lat="42.78552" lon="1.34116">
        <ele>839.7998</ele>
        <time>2025-09-13T12:36:17+02:00</time>
      </trkpt>
      <trkpt lat="42.78552" lon="1.34116">
        <ele>839.7998</ele>
        <time>2025-09-13T12:36:18+02:00</time>
      </trkpt>
      <trkpt lat="42.78552" lon="1.34118">
        <ele>839.7998</ele>
        <time>2025-09-13T12:36:22+02:00</time>
      </trkpt>
      <trkpt lat="42.78552" lon="1.34118">
        <ele>839.7998</ele>
        <time>2025-09-13T12:36:23+02:00</time>
      </trkpt>
      <trkpt lat="42.78552" lon="1.3412">
        <ele>839.7002</ele>
        <time>2025-09-13T12:36:27+02:00</time>
      </trkpt>
      <trkpt lat="42.78552" lon="1.34121">
        <ele>839.7002</ele>
        <time>2025-09-13T12:36:28+02:00</time>
      </trkpt>
      <trkpt lat="42.78551" lon="1.34126">
        <ele>839.7002</ele>
        <time>2025-09-13T12:36:32+02:00</time>
      </trkpt>
      <trkpt lat="42.78551" lon="1.34127">
        <ele>839.7002</ele>
        <time>2025-09-13T12:36:33+02:00</time>
      </trkpt>
      <trkpt lat="42.78551" lon="1.34133">
        <ele>843.2002</ele>
        <time>2025-09-13T12:36:36+02:00</time>
      </trkpt>
      <trkpt lat="42.78551" lon="1.34134">
        <ele>843.2002</ele>
        <time>2025-09-13T12:36:38+02:00</time>
      </trkpt>
      <trkpt lat="42.7855" lon="1.34138">
        <ele>843.1006</ele>
        <time>2025-09-13T12:36:42+02:00</time>
      </trkpt>
      <trkpt lat="42.7855" lon="1.34139">
        <ele>843.1006</ele>
        <time>2025-09-13T12:36:43+02:00</time>
      </trkpt>
      <trkpt lat="42.78548" lon="1.34142">
        <ele>843.1006</ele>
        <time>2025-09-13T12:36:47+02:00</time>
      </trkpt>
      <trkpt lat="42.78547" lon="1.34142">
        <ele>843.1006</ele>
        <time>2025-09-13T12:36:48+02:00</time>
      </trkpt>
      <trkpt lat="42.78545" lon="1.34146">
        <ele>843.1006</ele>
        <time>2025-09-13T12:36:52+02:00</time>
      </trkpt>
      <trkpt lat="42.78545" lon="1.34147">
        <ele>843.1006</ele>
        <time>2025-09-13T12:36:53+02:00</time>
      </trkpt>
      <trkpt lat="42.78543" lon="1.34152">
        <ele>846.4004</ele>
        <time>2025-09-13T12:36:57+02:00</time>
      </trkpt>
      <trkpt lat="42.78543" lon="1.34153">
        <ele>846.4004</ele>
        <time>2025-09-13T12:36:58+02:00</time>
      </trkpt>
      <trkpt lat="42.78541" lon="1.34158">
        <ele>846.2998</ele>
        <time>2025-09-13T12:37:02+02:00</time>
      </trkpt>
      <trkpt lat="42.7854" lon="1.34159">
        <ele>846.2998</ele>
        <time>2025-09-13T12:37:03+02:00</time>
      </trkpt>
      <trkpt lat="42.78539" lon="1.34162">
        <ele>846.2998</ele>
        <time>2025-09-13T12:37:07+02:00</time>
      </trkpt>
      <trkpt lat="42.78538" lon="1.34163">
        <ele>849.5</ele>
        <time>2025-09-13T12:37:08+02:00</time>
      </trkpt>
      <trkpt lat="42.78537" lon="1.34168">
        <ele>849.5</ele>
        <time>2025-09-13T12:37:12+02:00</time>
      </trkpt>
      <trkpt lat="42.78536" lon="1.34169">
        <ele>849.5</ele>
        <time>2025-09-13T12:37:13+02:00</time>
      </trkpt>
      <trkpt lat="42.78535" lon="1.34173">
        <ele>849.2998</ele>
        <time>2025-09-13T12:37:17+02:00</time>
      </trkpt>
      <trkpt lat="42.78535" lon="1.34174">
        <ele>849.2998</ele>
        <time>2025-09-13T12:37:18+02:00</time>
      </trkpt>
      <trkpt lat="42.78534" lon="1.34178">
        <ele>849.2998</ele>
        <time>2025-09-13T12:37:22+02:00</time>
      </trkpt>
      <trkpt lat="42.78534" lon="1.34179">
        <ele>849.2002</ele>
        <time>2025-09-13T12:37:23+02:00</time>
      </trkpt>
      <trkpt lat="42.78534" lon="1.34184">
        <ele>849.2002</ele>
        <time>2025-09-13T12:37:27+02:00</time>
      </trkpt>
      <trkpt lat="42.78534" lon="1.34185">
        <ele>849.2002</ele>
        <time>2025-09-13T12:37:28+02:00</time>
      </trkpt>
      <trkpt lat="42.78534" lon="1.34189">
        <ele>849</ele>
        <time>2025-09-13T12:37:32+02:00</time>
      </trkpt>
      <trkpt lat="42.78534" lon="1.3419">
        <ele>849</ele>
        <time>2025-09-13T12:37:33+02:00</time>
      </trkpt>
      <trkpt lat="42.78535" lon="1.34194">
        <ele>849</ele>
        <time>2025-09-13T12:37:37+02:00</time>
      </trkpt>
      <trkpt lat="42.78535" lon="1.34195">
        <ele>849</ele>
        <time>2025-09-13T12:37:38+02:00</time>
      </trkpt>
      <trkpt lat="42.78536" lon="1.342">
        <ele>848.7998</ele>
        <time>2025-09-13T12:37:42+02:00</time>
      </trkpt>
      <trkpt lat="42.78536" lon="1.34201">
        <ele>848.7998</ele>
        <time>2025-09-13T12:37:43+02:00</time>
      </trkpt>
      <trkpt lat="42.78537" lon="1.34206">
        <ele>848.5</ele>
        <time>2025-09-13T12:37:47+02:00</time>
      </trkpt>
      <trkpt lat="42.78537" lon="1.34207">
        <ele>848.5</ele>
        <time>2025-09-13T12:37:48+02:00</time>
      </trkpt>
      <trkpt lat="42.78537" lon="1.34212">
        <ele>848.5</ele>
        <time>2025-09-13T12:37:52+02:00</time>
      </trkpt>
      <trkpt lat="42.78538" lon="1.34213">
        <ele>848.5</ele>
        <time>2025-09-13T12:37:53+02:00</time>
      </trkpt>
      <trkpt lat="42.7854" lon="1.34217">
        <ele>845.4004</ele>
        <time>2025-09-13T12:37:57+02:00</time>
      </trkpt>
      <trkpt lat="42.7854" lon="1.34218">
        <ele>845.4004</ele>
        <time>2025-09-13T12:37:58+02:00</time>
      </trkpt>
      <trkpt lat="42.78542" lon="1.34222">
        <ele>845.4004</ele>
        <time>2025-09-13T12:38:02+02:00</time>
      </trkpt>
      <trkpt lat="42.78543" lon="1.34223">
        <ele>845.2002</ele>
        <time>2025-09-13T12:38:03+02:00</time>
      </trkpt>
      <trkpt lat="42.78545" lon="1.34228">
        <ele>842.5</ele>
        <time>2025-09-13T12:38:07+02:00</time>
      </trkpt>
      <trkpt lat="42.78545" lon="1.34229">
        <ele>842.5</ele>
        <time>2025-09-13T12:38:08+02:00</time>
      </trkpt>
      <trkpt lat="42.78547" lon="1.34234">
        <ele>842.4004</ele>
        <time>2025-09-13T12:38:12+02:00</time>
      </trkpt>
      <trkpt lat="42.78547" lon="1.34235">
        <ele>842.4004</ele>
        <time>2025-09-13T12:38:13+02:00</time>
      </trkpt>
      <trkpt lat="42.78547" lon="1.34239">
        <ele>842.4004</ele>
        <time>2025-09-13T12:38:17+02:00</time>
      </trkpt>
      <trkpt lat="42.78547" lon="1.3424">
        <ele>842.4004</ele>
        <time>2025-09-13T12:38:18+02:00</time>
      </trkpt>
      <trkpt lat="42.78544" lon="1.34243">
        <ele>844.7998</ele>
        <time>2025-09-13T12:38:22+02:00</time>
      </trkpt>
      <trkpt lat="42.78543" lon="1.34243">
        <ele>844.7998</ele>
        <time>2025-09-13T12:38:23+02:00</time>
      </trkpt>
      <trkpt lat="42.78539" lon="1.3424">
        <ele>844.7998</ele>
        <time>2025-09-13T12:38:27+02:00</time>
      </trkpt>
      <trkpt lat="42.78538" lon="1.34239">
        <ele>847.2002</ele>
        <time>2025-09-13T12:38:28+02:00</time>
      </trkpt>
      <trkpt lat="42.78535" lon="1.34236">
        <ele>847.5</ele>
        <time>2025-09-13T12:38:32+02:00</time>
      </trkpt>
      <trkpt lat="42.78534" lon="1.34236">
        <ele>847.5</ele>
        <time>2025-09-13T12:38:33+02:00</time>
      </trkpt>
      <trkpt lat="42.78532" lon="1.34231">
        <ele>850.1006</ele>
        <time>2025-09-13T12:38:37+02:00</time>
      </trkpt>
      <trkpt lat="42.78531" lon="1.3423">
        <ele>850.6006</ele>
        <time>2025-09-13T12:38:38+02:00</time>
      </trkpt>
      <trkpt lat="42.78529" lon="1.34227">
        <ele>850.6006</ele>
        <time>2025-09-13T12:38:42+02:00</time>
      </trkpt>
      <trkpt lat="42.78528" lon="1.34226">
        <ele>850.6006</ele>
        <time>2025-09-13T12:38:43+02:00</time>
      </trkpt>
      <trkpt lat="42.78525" lon="1.34223">
        <ele>853.2002</ele>
        <time>2025-09-13T12:38:47+02:00</time>
      </trkpt>
      <trkpt lat="42.78525" lon="1.34222">
        <ele>853.2002</ele>
        <time>2025-09-13T12:38:48+02:00</time>
      </trkpt>
      <trkpt lat="42.78523" lon="1.3422">
        <ele>853.7998</ele>
        <time>2025-09-13T12:38:52+02:00</time>
      </trkpt>
      <trkpt lat="42.78522" lon="1.3422">
        <ele>853.7998</ele>
        <time>2025-09-13T12:38:53+02:00</time>
      </trkpt>
      <trkpt lat="42.78521" lon="1.34221">
        <ele>853.7998</ele>
        <time>2025-09-13T12:38:57+02:00</time>
      </trkpt>
      <trkpt lat="42.7852" lon="1.34221">
        <ele>853.7998</ele>
        <time>2025-09-13T12:38:58+02:00</time>
      </trkpt>
      <trkpt lat="42.78519" lon="1.34222">
        <ele>856.5</ele>
        <time>2025-09-13T12:39:02+02:00</time>
      </trkpt>
      <trkpt lat="42.78518" lon="1.34222">
        <ele>855.7998</ele>
        <time>2025-09-13T12:39:03+02:00</time>
      </trkpt>
      <trkpt lat="42.78516" lon="1.34225">
        <ele>855.7998</ele>
        <time>2025-09-13T12:39:07+02:00</time>
      </trkpt>
      <trkpt lat="42.78516" lon="1.34226">
        <ele>855.7998</ele>
        <time>2025-09-13T12:39:08+02:00</time>
      </trkpt>
      <trkpt lat="42.78515" lon="1.34229">
        <ele>855.7998</ele>
        <time>2025-09-13T12:39:12+02:00</time>
      </trkpt>
      <trkpt lat="42.78515" lon="1.3423">
        <ele>855.7998</ele>
        <time>2025-09-13T12:39:13+02:00</time>
      </trkpt>
      <trkpt lat="42.78514" lon="1.34234">
        <ele>855</ele>
        <time>2025-09-13T12:39:17+02:00</time>
      </trkpt>
      <trkpt lat="42.78514" lon="1.34235">
        <ele>855</ele>
        <time>2025-09-13T12:39:18+02:00</time>
      </trkpt>
      <trkpt lat="42.78515" lon="1.3424">
        <ele>854.2998</ele>
        <time>2025-09-13T12:39:22+02:00</time>
      </trkpt>
      <trkpt lat="42.78515" lon="1.34241">
        <ele>854.2998</ele>
        <time>2025-09-13T12:39:23+02:00</time>
      </trkpt>
      <trkpt lat="42.78516" lon="1.34246">
        <ele>854.2998</ele>
        <time>2025-09-13T12:39:27+02:00</time>
      </trkpt>
      <trkpt lat="42.78516" lon="1.34247">
        <ele>854.2998</ele>
        <time>2025-09-13T12:39:28+02:00</time>
      </trkpt>
      <trkpt lat="42.78516" lon="1.34252">
        <ele>853.7002</ele>
        <time>2025-09-13T12:39:32+02:00</time>
      </trkpt>
      <trkpt lat="42.78516" lon="1.34253">
        <ele>853.7002</ele>
        <time>2025-09-13T12:39:33+02:00</time>
      </trkpt>
      <trkpt lat="42.78515" lon="1.34257">
        <ele>853.1006</ele>
        <time>2025-09-13T12:39:37+02:00</time>
      </trkpt>
      <trkpt lat="42.78515" lon="1.34258">
        <ele>853.1006</ele>
        <time>2025-09-13T12:39:38+02:00</time>
      </trkpt>
      <trkpt lat="42.78514" lon="1.34263">
        <ele>853.1006</ele>
        <time>2025-09-13T12:39:42+02:00</time>
      </trkpt>
      <trkpt lat="42.78513" lon="1.34264">
        <ele>853.1006</ele>
        <time>2025-09-13T12:39:43+02:00</time>
      </trkpt>
      <trkpt lat="42.78512" lon="1.34268">
        <ele>854.7002</ele>
        <time>2025-09-13T12:39:47+02:00</time>
      </trkpt>
      <trkpt lat="42.78512" lon="1.34269">
        <ele>854.7002</ele>
        <time>2025-09-13T12:39:48+02:00</time>
      </trkpt>
      <trkpt lat="42.7851" lon="1.34273">
        <ele>854.7002</ele>
        <time>2025-09-13T12:39:52+02:00</time>
      </trkpt>
      <trkpt lat="42.7851" lon="1.34274">
        <ele>854.2998</ele>
        <time>2025-09-13T12:39:53+02:00</time>
      </trkpt>
      <trkpt lat="42.78509" lon="1.34278">
        <ele>854.2998</ele>
        <time>2025-09-13T12:39:57+02:00</time>
      </trkpt>
      <trkpt lat="42.78509" lon="1.34278">
        <ele>854.2998</ele>
        <time>2025-09-13T12:39:58+02:00</time>
      </trkpt>
      <trkpt lat="42.78508" lon="1.34281">
        <ele>854.2998</ele>
        <time>2025-09-13T12:40:02+02:00</time>
      </trkpt>
      <trkpt lat="42.78508" lon="1.34282">
        <ele>854.2998</ele>
        <time>2025-09-13T12:40:03+02:00</time>
      </trkpt>
      <trkpt lat="42.78507" lon="1.34285">
        <ele>855.9004</ele>
        <time>2025-09-13T12:40:07+02:00</time>
      </trkpt>
      <trkpt lat="42.78506" lon="1.34286">
        <ele>855.9004</ele>
        <time>2025-09-13T12:40:08+02:00</time>
      </trkpt>
      <trkpt lat="42.78505" lon="1.3429">
        <ele>855.9004</ele>
        <time>2025-09-13T12:40:12+02:00</time>
      </trkpt>
      <trkpt lat="42.78505" lon="1.34291">
        <ele>855.5</ele>
        <time>2025-09-13T12:40:13+02:00</time>
      </trkpt>
      <trkpt lat="42.78504" lon="1.34295">
        <ele>855.5</ele>
        <time>2025-09-13T12:40:17+02:00</time>
      </trkpt>
      <trkpt lat="42.78503" lon="1.34296">
        <ele>855.5</ele>
        <time>2025-09-13T12:40:18+02:00</time>
      </trkpt>
      <trkpt lat="42.78502" lon="1.343">
        <ele>855.1006</ele>
        <time>2025-09-13T12:40:22+02:00</time>
      </trkpt>
      <trkpt lat="42.78501" lon="1.34301">
        <ele>855.1006</ele>
        <time>2025-09-13T12:40:23+02:00</time>
      </trkpt>
      <trkpt lat="42.78499" lon="1.34304">
        <ele>857</ele>
        <time>2025-09-13T12:40:27+02:00</time>
      </trkpt>
      <trkpt lat="42.78498" lon="1.34305">
        <ele>857</ele>
        <time>2025-09-13T12:40:28+02:00</time>
      </trkpt>
      <trkpt lat="42.78495" lon="1.34308">
        <ele>857</ele>
        <time>2025-09-13T12:40:32+02:00</time>
      </trkpt>
      <trkpt lat="42.78494" lon="1.34308">
        <ele>858.5</ele>
        <time>2025-09-13T12:40:33+02:00</time>
      </trkpt>
      <trkpt lat="42.78491" lon="1.3431">
        <ele>858.5</ele>
        <time>2025-09-13T12:40:37+02:00</time>
      </trkpt>
      <trkpt lat="42.7849" lon="1.3431">
        <ele>858.5</ele>
        <time>2025-09-13T12:40:38+02:00</time>
      </trkpt>
      <trkpt lat="42.78488" lon="1.34312">
        <ele>860.6006</ele>
        <time>2025-09-13T12:40:42+02:00</time>
      </trkpt>
      <trkpt lat="42.78487" lon="1.34313">
        <ele>860.6006</ele>
        <time>2025-09-13T12:40:43+02:00</time>
      </trkpt>
      <trkpt lat="42.78485" lon="1.34314">
        <ele>860.6006</ele>
        <time>2025-09-13T12:40:47+02:00</time>
      </trkpt>
      <trkpt lat="42.78484" lon="1.34314">
        <ele>860.6006</ele>
        <time>2025-09-13T12:40:48+02:00</time>
      </trkpt>
      <trkpt lat="42.78482" lon="1.34317">
        <ele>862.2002</ele>
        <time>2025-09-13T12:40:52+02:00</time>
      </trkpt>
      <trkpt lat="42.78481" lon="1.34317">
        <ele>862.2002</ele>
        <time>2025-09-13T12:40:53+02:00</time>
      </trkpt>
      <trkpt lat="42.78479" lon="1.3432">
        <ele>862.2002</ele>
        <time>2025-09-13T12:40:57+02:00</time>
      </trkpt>
      <trkpt lat="42.78479" lon="1.34321">
        <ele>862.2002</ele>
        <time>2025-09-13T12:40:58+02:00</time>
      </trkpt>
      <trkpt lat="42.78477" lon="1.34324">
        <ele>862.2002</ele>
        <time>2025-09-13T12:41:02+02:00</time>
      </trkpt>
      <trkpt lat="42.78477" lon="1.34325">
        <ele>862.2002</ele>
        <time>2025-09-13T12:41:03+02:00</time>
      </trkpt>
      <trkpt lat="42.78475" lon="1.34328">
        <ele>864.1006</ele>
        <time>2025-09-13T12:41:07+02:00</time>
      </trkpt>
      <trkpt lat="42.78475" lon="1.34329">
        <ele>864.1006</ele>
        <time>2025-09-13T12:41:08+02:00</time>
      </trkpt>
      <trkpt lat="42.78474" lon="1.34334">
        <ele>863.7998</ele>
        <time>2025-09-13T12:41:12+02:00</time>
      </trkpt>
      <trkpt lat="42.78474" lon="1.34335">
        <ele>863.7998</ele>
        <time>2025-09-13T12:41:13+02:00</time>
      </trkpt>
      <trkpt lat="42.78474" lon="1.3434">
        <ele>863.7998</ele>
        <time>2025-09-13T12:41:17+02:00</time>
      </trkpt>
      <trkpt lat="42.78473" lon="1.34341">
        <ele>863.7998</ele>
        <time>2025-09-13T12:41:18+02:00</time>
      </trkpt>
      <trkpt lat="42.78473" lon="1.34345">
        <ele>863.6006</ele>
        <time>2025-09-13T12:41:22+02:00</time>
      </trkpt>
      <trkpt lat="42.78472" lon="1.34346">
        <ele>863.6006</ele>
        <time>2025-09-13T12:41:23+02:00</time>
      </trkpt>
      <trkpt lat="42.78471" lon="1.3435">
        <ele>863.6006</ele>
        <time>2025-09-13T12:41:27+02:00</time>
      </trkpt>
      <trkpt lat="42.78471" lon="1.3435">
        <ele>863.6006</ele>
        <time>2025-09-13T12:41:28+02:00</time>
      </trkpt>
      <trkpt lat="42.78471" lon="1.3435">
        <ele>863.6006</ele>
        <time>2025-09-13T12:41:32+02:00</time>
      </trkpt>
      <trkpt lat="42.78471" lon="1.3435">
        <ele>863.6006</ele>
        <time>2025-09-13T12:41:33+02:00</time>
      </trkpt>
      <trkpt lat="42.78471" lon="1.3435">
        <ele>863.6006</ele>
        <time>2025-09-13T12:41:37+02:00</time>
      </trkpt>
      <trkpt lat="42.78471" lon="1.3435">
        <ele>863.6006</ele>
        <time>2025-09-13T12:41:38+02:00</time>
      </trkpt>
      <trkpt lat="42.78471" lon="1.34351">
        <ele>863.6006</ele>
        <time>2025-09-13T12:41:42+02:00</time>
      </trkpt>
      <trkpt lat="42.78471" lon="1.34351">
        <ele>863.6006</ele>
        <time>2025-09-13T12:41:43+02:00</time>
      </trkpt>
      <trkpt lat="42.78471" lon="1.34351">
        <ele>863.6006</ele>
        <time>2025-09-13T12:41:47+02:00</time>
      </trkpt>
      <trkpt lat="42.78471" lon="1.34351">
        <ele>863.6006</ele>
        <time>2025-09-13T12:41:48+02:00</time>
      </trkpt>
      <trkpt lat="42.78471" lon="1.34352">
        <ele>863.6006</ele>
        <time>2025-09-13T12:41:52+02:00</time>
      </trkpt>
      <trkpt lat="42.78471" lon="1.34352">
        <ele>863.6006</ele>
        <time>2025-09-13T12:41:53+02:00</time>
      </trkpt>
      <trkpt lat="42.78471" lon="1.34354">
        <ele>863.6006</ele>
        <time>2025-09-13T12:41:57+02:00</time>
      </trkpt>
      <trkpt lat="42.78471" lon="1.34355">
        <ele>863.6006</ele>
        <time>2025-09-13T12:41:58+02:00</time>
      </trkpt>
      <trkpt lat="42.78471" lon="1.34358">
        <ele>863.6006</ele>
        <time>2025-09-13T12:42:02+02:00</time>
      </trkpt>
      <trkpt lat="42.78471" lon="1.34359">
        <ele>863.6006</ele>
        <time>2025-09-13T12:42:03+02:00</time>
      </trkpt>
      <trkpt lat="42.7847" lon="1.34363">
        <ele>863.7002</ele>
        <time>2025-09-13T12:42:07+02:00</time>
      </trkpt>
      <trkpt lat="42.7847" lon="1.34363">
        <ele>863.7002</ele>
        <time>2025-09-13T12:42:08+02:00</time>
      </trkpt>
      <trkpt lat="42.78469" lon="1.34366">
        <ele>863.7002</ele>
        <time>2025-09-13T12:42:12+02:00</time>
      </trkpt>
      <trkpt lat="42.78469" lon="1.34366">
        <ele>863.7002</ele>
        <time>2025-09-13T12:42:13+02:00</time>
      </trkpt>
      <trkpt lat="42.78468" lon="1.34369">
        <ele>866.4004</ele>
        <time>2025-09-13T12:42:17+02:00</time>
      </trkpt>
      <trkpt lat="42.78468" lon="1.34369">
        <ele>866.4004</ele>
        <time>2025-09-13T12:42:18+02:00</time>
      </trkpt>
      <trkpt lat="42.78468" lon="1.34369">
        <ele>866.4004</ele>
        <time>2025-09-13T12:42:22+02:00</time>
      </trkpt>
      <trkpt lat="42.78468" lon="1.34369">
        <ele>866.4004</ele>
        <time>2025-09-13T12:42:23+02:00</time>
      </trkpt>
      <trkpt lat="42.78468" lon="1.34371">
        <ele>866.4004</ele>
        <time>2025-09-13T12:42:27+02:00</time>
      </trkpt>
      <trkpt lat="42.78467" lon="1.34371">
        <ele>866.4004</ele>
        <time>2025-09-13T12:42:28+02:00</time>
      </trkpt>
      <trkpt lat="42.78467" lon="1.34375">
        <ele>866.4004</ele>
        <time>2025-09-13T12:42:32+02:00</time>
      </trkpt>
      <trkpt lat="42.78467" lon="1.34376">
        <ele>866.4004</ele>
        <time>2025-09-13T12:42:33+02:00</time>
      </trkpt>
      <trkpt lat="42.78466" lon="1.3438">
        <ele>866.6006</ele>
        <time>2025-09-13T12:42:37+02:00</time>
      </trkpt>
      <trkpt lat="42.78465" lon="1.34381">
        <ele>866.6006</ele>
        <time>2025-09-13T12:42:38+02:00</time>
      </trkpt>
      <trkpt lat="42.78464" lon="1.34385">
        <ele>866.6006</ele>
        <time>2025-09-13T12:42:42+02:00</time>
      </trkpt>
      <trkpt lat="42.78464" lon="1.34386">
        <ele>866.9004</ele>
        <time>2025-09-13T12:42:43+02:00</time>
      </trkpt>
      <trkpt lat="42.78464" lon="1.34386">
        <ele>866.9004</ele>
        <time>2025-09-13T12:42:47+02:00</time>
      </trkpt>
      <trkpt lat="42.78464" lon="1.34386">
        <ele>866.9004</ele>
        <time>2025-09-13T12:42:48+02:00</time>
      </trkpt>
      <trkpt lat="42.78464" lon="1.34387">
        <ele>866.9004</ele>
        <time>2025-09-13T12:42:52+02:00</time>
      </trkpt>
      <trkpt lat="42.78464" lon="1.34387">
        <ele>866.9004</ele>
        <time>2025-09-13T12:42:53+02:00</time>
      </trkpt>
      <trkpt lat="42.78463" lon="1.3439">
        <ele>866.9004</ele>
        <time>2025-09-13T12:42:57+02:00</time>
      </trkpt>
      <trkpt lat="42.78463" lon="1.34391">
        <ele>866.9004</ele>
        <time>2025-09-13T12:42:58+02:00</time>
      </trkpt>
      <trkpt lat="42.78463" lon="1.34392">
        <ele>866.9004</ele>
        <time>2025-09-13T12:43:02+02:00</time>
      </trkpt>
      <trkpt lat="42.78463" lon="1.34392">
        <ele>866.9004</ele>
        <time>2025-09-13T12:43:03+02:00</time>
      </trkpt>
      <trkpt lat="42.78463" lon="1.34393">
        <ele>866.9004</ele>
        <time>2025-09-13T12:43:07+02:00</time>
      </trkpt>
      <trkpt lat="42.78463" lon="1.34393">
        <ele>866.9004</ele>
        <time>2025-09-13T12:43:08+02:00</time>
      </trkpt>
      <trkpt lat="42.78463" lon="1.34393">
        <ele>866.9004</ele>
        <time>2025-09-13T12:43:12+02:00</time>
      </trkpt>
      <trkpt lat="42.78463" lon="1.34394">
        <ele>866.9004</ele>
        <time>2025-09-13T12:43:13+02:00</time>
      </trkpt>
      <trkpt lat="42.78462" lon="1.34398">
        <ele>870</ele>
        <time>2025-09-13T12:43:17+02:00</time>
      </trkpt>
      <trkpt lat="42.78462" lon="1.344">
        <ele>870</ele>
        <time>2025-09-13T12:43:18+02:00</time>
      </trkpt>
      <trkpt lat="42.78459" lon="1.34407">
        <ele>870.5</ele>
        <time>2025-09-13T12:43:22+02:00</time>
      </trkpt>
      <trkpt lat="42.78458" lon="1.34408">
        <ele>870.5</ele>
        <time>2025-09-13T12:43:23+02:00</time>
      </trkpt>
      <trkpt lat="42.78456" lon="1.34412">
        <ele>874</ele>
        <time>2025-09-13T12:43:27+02:00</time>
      </trkpt>
      <trkpt lat="42.78455" lon="1.34413">
        <ele>874</ele>
        <time>2025-09-13T12:43:28+02:00</time>
      </trkpt>
      <trkpt lat="42.78455" lon="1.34417">
        <ele>874</ele>
        <time>2025-09-13T12:43:32+02:00</time>
      </trkpt>
      <trkpt lat="42.78454" lon="1.34418">
        <ele>874</ele>
        <time>2025-09-13T12:43:33+02:00</time>
      </trkpt>
      <trkpt lat="42.78454" lon="1.34421">
        <ele>874.6006</ele>
        <time>2025-09-13T12:43:37+02:00</time>
      </trkpt>
      <trkpt lat="42.78453" lon="1.34422">
        <ele>874.6006</ele>
        <time>2025-09-13T12:43:38+02:00</time>
      </trkpt>
      <trkpt lat="42.78453" lon="1.34426">
        <ele>874.6006</ele>
        <time>2025-09-13T12:43:42+02:00</time>
      </trkpt>
      <trkpt lat="42.78453" lon="1.34427">
        <ele>874.6006</ele>
        <time>2025-09-13T12:43:43+02:00</time>
      </trkpt>
      <trkpt lat="42.78453" lon="1.34431">
        <ele>875.2998</ele>
        <time>2025-09-13T12:43:47+02:00</time>
      </trkpt>
      <trkpt lat="42.78453" lon="1.34432">
        <ele>875.2998</ele>
        <time>2025-09-13T12:43:48+02:00</time>
      </trkpt>
      <trkpt lat="42.78452" lon="1.34437">
        <ele>876</ele>
        <time>2025-09-13T12:43:52+02:00</time>
      </trkpt>
      <trkpt lat="42.78452" lon="1.34438">
        <ele>876</ele>
        <time>2025-09-13T12:43:53+02:00</time>
      </trkpt>
      <trkpt lat="42.78452" lon="1.34443">
        <ele>876</ele>
        <time>2025-09-13T12:43:57+02:00</time>
      </trkpt>
      <trkpt lat="42.78452" lon="1.34444">
        <ele>876</ele>
        <time>2025-09-13T12:43:58+02:00</time>
      </trkpt>
      <trkpt lat="42.78453" lon="1.34448">
        <ele>876.7998</ele>
        <time>2025-09-13T12:44:02+02:00</time>
      </trkpt>
      <trkpt lat="42.78454" lon="1.34449">
        <ele>876.7998</ele>
        <time>2025-09-13T12:44:03+02:00</time>
      </trkpt>
      <trkpt lat="42.78455" lon="1.34454">
        <ele>877.5</ele>
        <time>2025-09-13T12:44:07+02:00</time>
      </trkpt>
      <trkpt lat="42.78456" lon="1.34455">
        <ele>877.5</ele>
        <time>2025-09-13T12:44:08+02:00</time>
      </trkpt>
      <trkpt lat="42.78457" lon="1.34461">
        <ele>874.6006</ele>
        <time>2025-09-13T12:44:12+02:00</time>
      </trkpt>
      <trkpt lat="42.78457" lon="1.34462">
        <ele>874.6006</ele>
        <time>2025-09-13T12:44:13+02:00</time>
      </trkpt>
      <trkpt lat="42.78459" lon="1.34466">
        <ele>875.2998</ele>
        <time>2025-09-13T12:44:17+02:00</time>
      </trkpt>
      <trkpt lat="42.78459" lon="1.34467">
        <ele>875.2998</ele>
        <time>2025-09-13T12:44:18+02:00</time>
      </trkpt>
      <trkpt lat="42.78462" lon="1.34471">
        <ele>876</ele>
        <time>2025-09-13T12:44:22+02:00</time>
      </trkpt>
      <trkpt lat="42.78463" lon="1.34472">
        <ele>876</ele>
        <time>2025-09-13T12:44:23+02:00</time>
      </trkpt>
      <trkpt lat="42.78465" lon="1.34476">
        <ele>873.2002</ele>
        <time>2025-09-13T12:44:27+02:00</time>
      </trkpt>
      <trkpt lat="42.78466" lon="1.34476">
        <ele>873.2002</ele>
        <time>2025-09-13T12:44:28+02:00</time>
      </trkpt>
      <trkpt lat="42.78467" lon="1.34479">
        <ele>873.2002</ele>
        <time>2025-09-13T12:44:32+02:00</time>
      </trkpt>
      <trkpt lat="42.78468" lon="1.3448">
        <ele>873.7998</ele>
        <time>2025-09-13T12:44:33+02:00</time>
      </trkpt>
      <trkpt lat="42.78468" lon="1.34486">
        <ele>873.7998</ele>
        <time>2025-09-13T12:44:37+02:00</time>
      </trkpt>
      <trkpt lat="42.78468" lon="1.34487">
        <ele>873.7998</ele>
        <time>2025-09-13T12:44:38+02:00</time>
      </trkpt>
      <trkpt lat="42.78468" lon="1.34492">
        <ele>874.5</ele>
        <time>2025-09-13T12:44:42+02:00</time>
      </trkpt>
      <trkpt lat="42.78468" lon="1.34493">
        <ele>874.5</ele>
        <time>2025-09-13T12:44:43+02:00</time>
      </trkpt>
      <trkpt lat="42.78467" lon="1.34498">
        <ele>875.1006</ele>
        <time>2025-09-13T12:44:47+02:00</time>
      </trkpt>
      <trkpt lat="42.78467" lon="1.34499">
        <ele>875.1006</ele>
        <time>2025-09-13T12:44:48+02:00</time>
      </trkpt>
      <trkpt lat="42.78466" lon="1.34504">
        <ele>875.1006</ele>
        <time>2025-09-13T12:44:52+02:00</time>
      </trkpt>
      <trkpt lat="42.78466" lon="1.34504">
        <ele>875.1006</ele>
        <time>2025-09-13T12:44:53+02:00</time>
      </trkpt>
      <trkpt lat="42.78464" lon="1.34508">
        <ele>875.6006</ele>
        <time>2025-09-13T12:44:57+02:00</time>
      </trkpt>
      <trkpt lat="42.78464" lon="1.34509">
        <ele>875.6006</ele>
        <time>2025-09-13T12:44:58+02:00</time>
      </trkpt>
      <trkpt lat="42.78461" lon="1.34513">
        <ele>878.4004</ele>
        <time>2025-09-13T12:45:02+02:00</time>
      </trkpt>
      <trkpt lat="42.78461" lon="1.34514">
        <ele>878.4004</ele>
        <time>2025-09-13T12:45:03+02:00</time>
      </trkpt>
      <trkpt lat="42.78458" lon="1.34516">
        <ele>878.9004</ele>
        <time>2025-09-13T12:45:07+02:00</time>
      </trkpt>
      <trkpt lat="42.78458" lon="1.34517">
        <ele>878.9004</ele>
        <time>2025-09-13T12:45:08+02:00</time>
      </trkpt>
      <trkpt lat="42.78456" lon="1.3452">
        <ele>881.7002</ele>
        <time>2025-09-13T12:45:12+02:00</time>
      </trkpt>
      <trkpt lat="42.78456" lon="1.34521">
        <ele>881.7002</ele>
        <time>2025-09-13T12:45:13+02:00</time>
      </trkpt>
      <trkpt lat="42.78455" lon="1.34526">
        <ele>882.1006</ele>
        <time>2025-09-13T12:45:17+02:00</time>
      </trkpt>
      <trkpt lat="42.78454" lon="1.34527">
        <ele>882.1006</ele>
        <time>2025-09-13T12:45:18+02:00</time>
      </trkpt>
      <trkpt lat="42.78453" lon="1.34532">
        <ele>882.4004</ele>
        <time>2025-09-13T12:45:22+02:00</time>
      </trkpt>
      <trkpt lat="42.78452" lon="1.34533">
        <ele>882.4004</ele>
        <time>2025-09-13T12:45:23+02:00</time>
      </trkpt>
      <trkpt lat="42.7845" lon="1.34537">
        <ele>885.1006</ele>
        <time>2025-09-13T12:45:27+02:00</time>
      </trkpt>
      <trkpt lat="42.78449" lon="1.34538">
        <ele>885.1006</ele>
        <time>2025-09-13T12:45:28+02:00</time>
      </trkpt>
      <trkpt lat="42.78447" lon="1.34542">
        <ele>885.2998</ele>
        <time>2025-09-13T12:45:32+02:00</time>
      </trkpt>
      <trkpt lat="42.78446" lon="1.34543">
        <ele>885.2998</ele>
        <time>2025-09-13T12:45:33+02:00</time>
      </trkpt>
      <trkpt lat="42.78444" lon="1.34546">
        <ele>888.2002</ele>
        <time>2025-09-13T12:45:37+02:00</time>
      </trkpt>
      <trkpt lat="42.78443" lon="1.34547">
        <ele>888.2002</ele>
        <time>2025-09-13T12:45:38+02:00</time>
      </trkpt>
      <trkpt lat="42.78441" lon="1.3455">
        <ele>888.2002</ele>
        <time>2025-09-13T12:45:42+02:00</time>
      </trkpt>
      <trkpt lat="42.78441" lon="1.34551">
        <ele>888.2002</ele>
        <time>2025-09-13T12:45:43+02:00</time>
      </trkpt>
      <trkpt lat="42.78439" lon="1.34556">
        <ele>888.2002</ele>
        <time>2025-09-13T12:45:47+02:00</time>
      </trkpt>
      <trkpt lat="42.78439" lon="1.34557">
        <ele>888.2998</ele>
        <time>2025-09-13T12:45:48+02:00</time>
      </trkpt>
      <trkpt lat="42.78438" lon="1.34562">
        <ele>888.2998</ele>
        <time>2025-09-13T12:45:52+02:00</time>
      </trkpt>
      <trkpt lat="42.78438" lon="1.34563">
        <ele>891.4004</ele>
        <time>2025-09-13T12:45:53+02:00</time>
      </trkpt>
      <trkpt lat="42.78437" lon="1.34568">
        <ele>891.4004</ele>
        <time>2025-09-13T12:45:57+02:00</time>
      </trkpt>
      <trkpt lat="42.78437" lon="1.34569">
        <ele>891.4004</ele>
        <time>2025-09-13T12:45:58+02:00</time>
      </trkpt>
      <trkpt lat="42.78437" lon="1.34574">
        <ele>891.4004</ele>
        <time>2025-09-13T12:46:02+02:00</time>
      </trkpt>
      <trkpt lat="42.78436" lon="1.34575">
        <ele>891.4004</ele>
        <time>2025-09-13T12:46:03+02:00</time>
      </trkpt>
      <trkpt lat="42.78435" lon="1.3458">
        <ele>891.4004</ele>
        <time>2025-09-13T12:46:07+02:00</time>
      </trkpt>
      <trkpt lat="42.78435" lon="1.34582">
        <ele>891.4004</ele>
        <time>2025-09-13T12:46:08+02:00</time>
      </trkpt>
      <trkpt lat="42.78433" lon="1.34587">
        <ele>891.4004</ele>
        <time>2025-09-13T12:46:12+02:00</time>
      </trkpt>
      <trkpt lat="42.78433" lon="1.34588">
        <ele>891.4004</ele>
        <time>2025-09-13T12:46:13+02:00</time>
      </trkpt>
      <trkpt lat="42.78432" lon="1.34592">
        <ele>891.2998</ele>
        <time>2025-09-13T12:46:17+02:00</time>
      </trkpt>
      <trkpt lat="42.78432" lon="1.34593">
        <ele>891.2998</ele>
        <time>2025-09-13T12:46:18+02:00</time>
      </trkpt>
      <trkpt lat="42.78431" lon="1.34598">
        <ele>894.5</ele>
        <time>2025-09-13T12:46:22+02:00</time>
      </trkpt>
      <trkpt lat="42.78431" lon="1.34599">
        <ele>894.5</ele>
        <time>2025-09-13T12:46:23+02:00</time>
      </trkpt>
      <trkpt lat="42.78429" lon="1.34603">
        <ele>894.2998</ele>
        <time>2025-09-13T12:46:27+02:00</time>
      </trkpt>
      <trkpt lat="42.78429" lon="1.34604">
        <ele>894.2998</ele>
        <time>2025-09-13T12:46:28+02:00</time>
      </trkpt>
      <trkpt lat="42.78428" lon="1.34607">
        <ele>894.2998</ele>
        <time>2025-09-13T12:46:32+02:00</time>
      </trkpt>
      <trkpt lat="42.78427" lon="1.34608">
        <ele>894.2998</ele>
        <time>2025-09-13T12:46:33+02:00</time>
      </trkpt>
      <trkpt lat="42.78425" lon="1.34612">
        <ele>894.2002</ele>
        <time>2025-09-13T12:46:37+02:00</time>
      </trkpt>
      <trkpt lat="42.78425" lon="1.34613">
        <ele>897.4004</ele>
        <time>2025-09-13T12:46:38+02:00</time>
      </trkpt>
      <trkpt lat="42.78423" lon="1.34616">
        <ele>897.4004</ele>
        <time>2025-09-13T12:46:42+02:00</time>
      </trkpt>
      <trkpt lat="42.78422" lon="1.34617">
        <ele>897.4004</ele>
        <time>2025-09-13T12:46:43+02:00</time>
      </trkpt>
      <trkpt lat="42.78421" lon="1.34619">
        <ele>897.2002</ele>
        <time>2025-09-13T12:46:47+02:00</time>
      </trkpt>
      <trkpt lat="42.78421" lon="1.3462">
        <ele>897.2002</ele>
        <time>2025-09-13T12:46:48+02:00</time>
      </trkpt>
      <trkpt lat="42.78421" lon="1.3462">
        <ele>897.2002</ele>
        <time>2025-09-13T12:46:52+02:00</time>
      </trkpt>
      <trkpt lat="42.78421" lon="1.34621">
        <ele>897.2002</ele>
        <time>2025-09-13T12:46:53+02:00</time>
      </trkpt>
      <trkpt lat="42.7842" lon="1.34623">
        <ele>897.2002</ele>
        <time>2025-09-13T12:46:57+02:00</time>
      </trkpt>
      <trkpt lat="42.78419" lon="1.34624">
        <ele>900.5</ele>
        <time>2025-09-13T12:46:58+02:00</time>
      </trkpt>
      <trkpt lat="42.78416" lon="1.34628">
        <ele>900.2998</ele>
        <time>2025-09-13T12:47:02+02:00</time>
      </trkpt>
      <trkpt lat="42.78415" lon="1.34629">
        <ele>900.2998</ele>
        <time>2025-09-13T12:47:03+02:00</time>
      </trkpt>
      <trkpt lat="42.78413" lon="1.34632">
        <ele>900.2998</ele>
        <time>2025-09-13T12:47:07+02:00</time>
      </trkpt>
      <trkpt lat="42.78413" lon="1.34633">
        <ele>900.2998</ele>
        <time>2025-09-13T12:47:08+02:00</time>
      </trkpt>
      <trkpt lat="42.7841" lon="1.34637">
        <ele>903.4004</ele>
        <time>2025-09-13T12:47:12+02:00</time>
      </trkpt>
      <trkpt lat="42.78409" lon="1.34639">
        <ele>903.4004</ele>
        <time>2025-09-13T12:47:13+02:00</time>
      </trkpt>
      <trkpt lat="42.78407" lon="1.34643">
        <ele>903.1006</ele>
        <time>2025-09-13T12:47:17+02:00</time>
      </trkpt>
      <trkpt lat="42.78407" lon="1.34644">
        <ele>903.1006</ele>
        <time>2025-09-13T12:47:18+02:00</time>
      </trkpt>
      <trkpt lat="42.78406" lon="1.34648">
        <ele>906.7002</ele>
        <time>2025-09-13T12:47:22+02:00</time>
      </trkpt>
      <trkpt lat="42.78405" lon="1.34649">
        <ele>906.7002</ele>
        <time>2025-09-13T12:47:23+02:00</time>
      </trkpt>
      <trkpt lat="42.78404" lon="1.34652">
        <ele>906.2998</ele>
        <time>2025-09-13T12:47:27+02:00</time>
      </trkpt>
      <trkpt lat="42.78404" lon="1.34652">
        <ele>906.2998</ele>
        <time>2025-09-13T12:47:28+02:00</time>
      </trkpt>
      <trkpt lat="42.78403" lon="1.34657">
        <ele>906.2998</ele>
        <time>2025-09-13T12:47:32+02:00</time>
      </trkpt>
      <trkpt lat="42.78402" lon="1.34658">
        <ele>906.2998</ele>
        <time>2025-09-13T12:47:33+02:00</time>
      </trkpt>
      <trkpt lat="42.78401" lon="1.34663">
        <ele>905.7998</ele>
        <time>2025-09-13T12:47:37+02:00</time>
      </trkpt>
      <trkpt lat="42.78401" lon="1.34664">
        <ele>905.7998</ele>
        <time>2025-09-13T12:47:38+02:00</time>
      </trkpt>
      <trkpt lat="42.784" lon="1.34669">
        <ele>909</ele>
        <time>2025-09-13T12:47:42+02:00</time>
      </trkpt>
      <trkpt lat="42.78399" lon="1.3467">
        <ele>909</ele>
        <time>2025-09-13T12:47:43+02:00</time>
      </trkpt>
      <trkpt lat="42.78398" lon="1.34674">
        <ele>909</ele>
        <time>2025-09-13T12:47:47+02:00</time>
      </trkpt>
      <trkpt lat="42.78397" lon="1.34675">
        <ele>909</ele>
        <time>2025-09-13T12:47:48+02:00</time>
      </trkpt>
      <trkpt lat="42.78395" lon="1.34679">
        <ele>908.2998</ele>
        <time>2025-09-13T12:47:52+02:00</time>
      </trkpt>
      <trkpt lat="42.78395" lon="1.3468">
        <ele>908.2998</ele>
        <time>2025-09-13T12:47:53+02:00</time>
      </trkpt>
      <trkpt lat="42.78394" lon="1.34684">
        <ele>912.1006</ele>
        <time>2025-09-13T12:47:57+02:00</time>
      </trkpt>
      <trkpt lat="42.78393" lon="1.34685">
        <ele>912.1006</ele>
        <time>2025-09-13T12:47:58+02:00</time>
      </trkpt>
      <trkpt lat="42.78392" lon="1.34689">
        <ele>911.4004</ele>
        <time>2025-09-13T12:48:02+02:00</time>
      </trkpt>
      <trkpt lat="42.78392" lon="1.3469">
        <ele>911.4004</ele>
        <time>2025-09-13T12:48:03+02:00</time>
      </trkpt>
      <trkpt lat="42.7839" lon="1.34695">
        <ele>910.6006</ele>
        <time>2025-09-13T12:48:07+02:00</time>
      </trkpt>
      <trkpt lat="42.78389" lon="1.34695">
        <ele>910.6006</ele>
        <time>2025-09-13T12:48:08+02:00</time>
      </trkpt>
      <trkpt lat="42.78387" lon="1.34699">
        <ele>914.4004</ele>
        <time>2025-09-13T12:48:12+02:00</time>
      </trkpt>
      <trkpt lat="42.78387" lon="1.34699">
        <ele>914.4004</ele>
        <time>2025-09-13T12:48:13+02:00</time>
      </trkpt>
      <trkpt lat="42.78385" lon="1.34702">
        <ele>914.4004</ele>
        <time>2025-09-13T12:48:17+02:00</time>
      </trkpt>
      <trkpt lat="42.78385" lon="1.34703">
        <ele>914.4004</ele>
        <time>2025-09-13T12:48:18+02:00</time>
      </trkpt>
      <trkpt lat="42.78384" lon="1.34703">
        <ele>913.6006</ele>
        <time>2025-09-13T12:48:22+02:00</time>
      </trkpt>
      <trkpt lat="42.78384" lon="1.34703">
        <ele>914.4004</ele>
        <time>2025-09-13T12:48:23+02:00</time>
      </trkpt>
      <trkpt lat="42.78384" lon="1.34702">
        <ele>914.4004</ele>
        <time>2025-09-13T12:48:27+02:00</time>
      </trkpt>
      <trkpt lat="42.78384" lon="1.34702">
        <ele>914.4004</ele>
        <time>2025-09-13T12:48:28+02:00</time>
      </trkpt>
      <trkpt lat="42.78382" lon="1.34705">
        <ele>913.6006</ele>
        <time>2025-09-13T12:48:32+02:00</time>
      </trkpt>
      <trkpt lat="42.78381" lon="1.34706">
        <ele>913.6006</ele>
        <time>2025-09-13T12:48:33+02:00</time>
      </trkpt>
      <trkpt lat="42.78379" lon="1.34712">
        <ele>916.7002</ele>
        <time>2025-09-13T12:48:37+02:00</time>
      </trkpt>
      <trkpt lat="42.78378" lon="1.34713">
        <ele>916.7002</ele>
        <time>2025-09-13T12:48:38+02:00</time>
      </trkpt>
      <trkpt lat="42.78377" lon="1.34716">
        <ele>916.7002</ele>
        <time>2025-09-13T12:48:42+02:00</time>
      </trkpt>
      <trkpt lat="42.78377" lon="1.34717">
        <ele>916.7002</ele>
        <time>2025-09-13T12:48:43+02:00</time>
      </trkpt>
      <trkpt lat="42.78375" lon="1.34722">
        <ele>915.9004</ele>
        <time>2025-09-13T12:48:47+02:00</time>
      </trkpt>
      <trkpt lat="42.78375" lon="1.34722">
        <ele>919.9004</ele>
        <time>2025-09-13T12:48:48+02:00</time>
      </trkpt>
      <trkpt lat="42.78373" lon="1.34726">
        <ele>919.9004</ele>
        <time>2025-09-13T12:48:52+02:00</time>
      </trkpt>
      <trkpt lat="42.78373" lon="1.34727">
        <ele>919.9004</ele>
        <time>2025-09-13T12:48:53+02:00</time>
      </trkpt>
      <trkpt lat="42.78371" lon="1.34731">
        <ele>919.1006</ele>
        <time>2025-09-13T12:48:57+02:00</time>
      </trkpt>
      <trkpt lat="42.78371" lon="1.34732">
        <ele>919.1006</ele>
        <time>2025-09-13T12:48:58+02:00</time>
      </trkpt>
      <trkpt lat="42.7837" lon="1.34736">
        <ele>919.1006</ele>
        <time>2025-09-13T12:49:02+02:00</time>
      </trkpt>
      <trkpt lat="42.7837" lon="1.34737">
        <ele>918.1006</ele>
        <time>2025-09-13T12:49:03+02:00</time>
      </trkpt>
      <trkpt lat="42.78368" lon="1.34742">
        <ele>921.9004</ele>
        <time>2025-09-13T12:49:07+02:00</time>
      </trkpt>
      <trkpt lat="42.78368" lon="1.34743">
        <ele>921.9004</ele>
        <time>2025-09-13T12:49:08+02:00</time>
      </trkpt>
      <trkpt lat="42.78366" lon="1.34747">
        <ele>920.9004</ele>
        <time>2025-09-13T12:49:12+02:00</time>
      </trkpt>
      <trkpt lat="42.78365" lon="1.34748">
        <ele>920.9004</ele>
        <time>2025-09-13T12:49:13+02:00</time>
      </trkpt>
      <trkpt lat="42.78363" lon="1.34753">
        <ele>920.9004</ele>
        <time>2025-09-13T12:49:17+02:00</time>
      </trkpt>
      <trkpt lat="42.78363" lon="1.34754">
        <ele>920.9004</ele>
        <time>2025-09-13T12:49:18+02:00</time>
      </trkpt>
      <trkpt lat="42.78361" lon="1.34759">
        <ele>923.2998</ele>
        <time>2025-09-13T12:49:22+02:00</time>
      </trkpt>
      <trkpt lat="42.7836" lon="1.3476">
        <ele>923.2998</ele>
        <time>2025-09-13T12:49:23+02:00</time>
      </trkpt>
      <trkpt lat="42.78358" lon="1.34764">
        <ele>922.1006</ele>
        <time>2025-09-13T12:49:27+02:00</time>
      </trkpt>
      <trkpt lat="42.78358" lon="1.34765">
        <ele>922.1006</ele>
        <time>2025-09-13T12:49:28+02:00</time>
      </trkpt>
      <trkpt lat="42.78355" lon="1.34769">
        <ele>925.4004</ele>
        <time>2025-09-13T12:49:32+02:00</time>
      </trkpt>
      <trkpt lat="42.78355" lon="1.3477">
        <ele>925.4004</ele>
        <time>2025-09-13T12:49:33+02:00</time>
      </trkpt>
      <trkpt lat="42.78352" lon="1.34774">
        <ele>924.1006</ele>
        <time>2025-09-13T12:49:37+02:00</time>
      </trkpt>
      <trkpt lat="42.78352" lon="1.34775">
        <ele>924.1006</ele>
        <time>2025-09-13T12:49:38+02:00</time>
      </trkpt>
      <trkpt lat="42.7835" lon="1.34779">
        <ele>924.1006</ele>
        <time>2025-09-13T12:49:42+02:00</time>
      </trkpt>
      <trkpt lat="42.7835" lon="1.3478">
        <ele>927.4004</ele>
        <time>2025-09-13T12:49:43+02:00</time>
      </trkpt>
      <trkpt lat="42.78348" lon="1.34784">
        <ele>926</ele>
        <time>2025-09-13T12:49:47+02:00</time>
      </trkpt>
      <trkpt lat="42.78348" lon="1.34785">
        <ele>926</ele>
        <time>2025-09-13T12:49:48+02:00</time>
      </trkpt>
      <trkpt lat="42.78346" lon="1.34788">
        <ele>926</ele>
        <time>2025-09-13T12:49:52+02:00</time>
      </trkpt>
      <trkpt lat="42.78346" lon="1.34789">
        <ele>924.5</ele>
        <time>2025-09-13T12:49:53+02:00</time>
      </trkpt>
      <trkpt lat="42.78345" lon="1.34793">
        <ele>924.5</ele>
        <time>2025-09-13T12:49:57+02:00</time>
      </trkpt>
      <trkpt lat="42.78345" lon="1.34793">
        <ele>924.5</ele>
        <time>2025-09-13T12:49:58+02:00</time>
      </trkpt>
      <trkpt lat="42.78344" lon="1.34797">
        <ele>924.5</ele>
        <time>2025-09-13T12:50:02+02:00</time>
      </trkpt>
      <trkpt lat="42.78343" lon="1.34798">
        <ele>926.1006</ele>
        <time>2025-09-13T12:50:03+02:00</time>
      </trkpt>
      <trkpt lat="42.78342" lon="1.34802">
        <ele>926.1006</ele>
        <time>2025-09-13T12:50:07+02:00</time>
      </trkpt>
      <trkpt lat="42.78341" lon="1.34803">
        <ele>926.1006</ele>
        <time>2025-09-13T12:50:08+02:00</time>
      </trkpt>
      <trkpt lat="42.7834" lon="1.34808">
        <ele>924.5</ele>
        <time>2025-09-13T12:50:12+02:00</time>
      </trkpt>
      <trkpt lat="42.7834" lon="1.34809">
        <ele>924.5</ele>
        <time>2025-09-13T12:50:13+02:00</time>
      </trkpt>
      <trkpt lat="42.78338" lon="1.34813">
        <ele>924.5</ele>
        <time>2025-09-13T12:50:17+02:00</time>
      </trkpt>
      <trkpt lat="42.78338" lon="1.34814">
        <ele>922.9004</ele>
        <time>2025-09-13T12:50:18+02:00</time>
      </trkpt>
      <trkpt lat="42.78337" lon="1.34818">
        <ele>925.9004</ele>
        <time>2025-09-13T12:50:22+02:00</time>
      </trkpt>
      <trkpt lat="42.78337" lon="1.34818">
        <ele>925.9004</ele>
        <time>2025-09-13T12:50:23+02:00</time>
      </trkpt>
      <trkpt lat="42.78337" lon="1.34817">
        <ele>922.9004</ele>
        <time>2025-09-13T12:50:27+02:00</time>
      </trkpt>
      <trkpt lat="42.78337" lon="1.34817">
        <ele>922.9004</ele>
        <time>2025-09-13T12:50:28+02:00</time>
      </trkpt>
      <trkpt lat="42.78337" lon="1.34818">
        <ele>922.9004</ele>
        <time>2025-09-13T12:50:32+02:00</time>
      </trkpt>
      <trkpt lat="42.78337" lon="1.34818">
        <ele>922.9004</ele>
        <time>2025-09-13T12:50:33+02:00</time>
      </trkpt>
      <trkpt lat="42.78337" lon="1.34818">
        <ele>922.9004</ele>
        <time>2025-09-13T12:50:37+02:00</time>
      </trkpt>
      <trkpt lat="42.78337" lon="1.34818">
        <ele>922.9004</ele>
        <time>2025-09-13T12:50:38+02:00</time>
      </trkpt>
      <trkpt lat="42.78337" lon="1.34818">
        <ele>922.9004</ele>
        <time>2025-09-13T12:50:42+02:00</time>
      </trkpt>
      <trkpt lat="42.78337" lon="1.34818">
        <ele>922.9004</ele>
        <time>2025-09-13T12:50:43+02:00</time>
      </trkpt>
      <trkpt lat="42.78337" lon="1.34818">
        <ele>922.9004</ele>
        <time>2025-09-13T12:50:47+02:00</time>
      </trkpt>
      <trkpt lat="42.78337" lon="1.34818">
        <ele>922.9004</ele>
        <time>2025-09-13T12:50:48+02:00</time>
      </trkpt>
      <trkpt lat="42.78337" lon="1.34818">
        <ele>922.9004</ele>
        <time>2025-09-13T12:50:52+02:00</time>
      </trkpt>
      <trkpt lat="42.78337" lon="1.34818">
        <ele>922.9004</ele>
        <time>2025-09-13T12:50:53+02:00</time>
      </trkpt>
      <trkpt lat="42.78337" lon="1.34821">
        <ele>925.9004</ele>
        <time>2025-09-13T12:50:57+02:00</time>
      </trkpt>
      <trkpt lat="42.78337" lon="1.34821">
        <ele>925.9004</ele>
        <time>2025-09-13T12:50:58+02:00</time>
      </trkpt>
      <trkpt lat="42.78336" lon="1.34822">
        <ele>925.9004</ele>
        <time>2025-09-13T12:51:02+02:00</time>
      </trkpt>
      <trkpt lat="42.78336" lon="1.34822">
        <ele>925.9004</ele>
        <time>2025-09-13T12:51:03+02:00</time>
      </trkpt>
      <trkpt lat="42.78337" lon="1.34823">
        <ele>924.2002</ele>
        <time>2025-09-13T12:51:07+02:00</time>
      </trkpt>
      <trkpt lat="42.78337" lon="1.34823">
        <ele>924.2002</ele>
        <time>2025-09-13T12:51:08+02:00</time>
      </trkpt>
      <trkpt lat="42.78337" lon="1.34824">
        <ele>921.2998</ele>
        <time>2025-09-13T12:51:12+02:00</time>
      </trkpt>
      <trkpt lat="42.78337" lon="1.34824">
        <ele>921.2998</ele>
        <time>2025-09-13T12:51:13+02:00</time>
      </trkpt>
      <trkpt lat="42.78337" lon="1.34824">
        <ele>924.2002</ele>
        <time>2025-09-13T12:51:17+02:00</time>
      </trkpt>
      <trkpt lat="42.78336" lon="1.34826">
        <ele>924.2002</ele>
        <time>2025-09-13T12:51:18+02:00</time>
      </trkpt>
      <trkpt lat="42.78332" lon="1.34833">
        <ele>922.4004</ele>
        <time>2025-09-13T12:51:22+02:00</time>
      </trkpt>
      <trkpt lat="42.78331" lon="1.34834">
        <ele>922.4004</ele>
        <time>2025-09-13T12:51:23+02:00</time>
      </trkpt>
      <trkpt lat="42.7833" lon="1.34839">
        <ele>925</ele>
        <time>2025-09-13T12:51:27+02:00</time>
      </trkpt>
      <trkpt lat="42.7833" lon="1.34841">
        <ele>923.2002</ele>
        <time>2025-09-13T12:51:28+02:00</time>
      </trkpt>
      <trkpt lat="42.7833" lon="1.34847">
        <ele>923.2002</ele>
        <time>2025-09-13T12:51:32+02:00</time>
      </trkpt>
      <trkpt lat="42.7833" lon="1.34848">
        <ele>923.2002</ele>
        <time>2025-09-13T12:51:33+02:00</time>
      </trkpt>
      <trkpt lat="42.78329" lon="1.34853">
        <ele>921.4004</ele>
        <time>2025-09-13T12:51:37+02:00</time>
      </trkpt>
      <trkpt lat="42.78329" lon="1.34855">
        <ele>921.4004</ele>
        <time>2025-09-13T12:51:38+02:00</time>
      </trkpt>
      <trkpt lat="42.78329" lon="1.34859">
        <ele>919.6006</ele>
        <time>2025-09-13T12:51:42+02:00</time>
      </trkpt>
      <trkpt lat="42.78329" lon="1.3486">
        <ele>919.6006</ele>
        <time>2025-09-13T12:51:43+02:00</time>
      </trkpt>
      <trkpt lat="42.7833" lon="1.34864">
        <ele>919.6006</ele>
        <time>2025-09-13T12:51:47+02:00</time>
      </trkpt>
      <trkpt lat="42.7833" lon="1.34865">
        <ele>919.6006</ele>
        <time>2025-09-13T12:51:48+02:00</time>
      </trkpt>
      <trkpt lat="42.78332" lon="1.3487">
        <ele>915.4004</ele>
        <time>2025-09-13T12:51:52+02:00</time>
      </trkpt>
      <trkpt lat="42.78333" lon="1.34871">
        <ele>915.4004</ele>
        <time>2025-09-13T12:51:53+02:00</time>
      </trkpt>
      <trkpt lat="42.78333" lon="1.34876">
        <ele>913.6006</ele>
        <time>2025-09-13T12:51:57+02:00</time>
      </trkpt>
      <trkpt lat="42.78333" lon="1.34877">
        <ele>913.6006</ele>
        <time>2025-09-13T12:51:58+02:00</time>
      </trkpt>
      <trkpt lat="42.78333" lon="1.34882">
        <ele>913.6006</ele>
        <time>2025-09-13T12:52:02+02:00</time>
      </trkpt>
      <trkpt lat="42.78332" lon="1.34883">
        <ele>911.7998</ele>
        <time>2025-09-13T12:52:03+02:00</time>
      </trkpt>
      <trkpt lat="42.78331" lon="1.34888">
        <ele>914</ele>
        <time>2025-09-13T12:52:07+02:00</time>
      </trkpt>
      <trkpt lat="42.7833" lon="1.34889">
        <ele>914</ele>
        <time>2025-09-13T12:52:08+02:00</time>
      </trkpt>
      <trkpt lat="42.78328" lon="1.34894">
        <ele>912.1006</ele>
        <time>2025-09-13T12:52:12+02:00</time>
      </trkpt>
      <trkpt lat="42.78328" lon="1.34895">
        <ele>912.1006</ele>
        <time>2025-09-13T12:52:13+02:00</time>
      </trkpt>
      <trkpt lat="42.78326" lon="1.34899">
        <ele>912.1006</ele>
        <time>2025-09-13T12:52:17+02:00</time>
      </trkpt>
      <trkpt lat="42.78326" lon="1.349">
        <ele>910.1006</ele>
        <time>2025-09-13T12:52:18+02:00</time>
      </trkpt>
      <trkpt lat="42.78324" lon="1.34905">
        <ele>912</ele>
        <time>2025-09-13T12:52:22+02:00</time>
      </trkpt>
      <trkpt lat="42.78323" lon="1.34906">
        <ele>912</ele>
        <time>2025-09-13T12:52:23+02:00</time>
      </trkpt>
      <trkpt lat="42.78321" lon="1.3491">
        <ele>909.9004</ele>
        <time>2025-09-13T12:52:27+02:00</time>
      </trkpt>
      <trkpt lat="42.7832" lon="1.34911">
        <ele>909.9004</ele>
        <time>2025-09-13T12:52:28+02:00</time>
      </trkpt>
      <trkpt lat="42.78318" lon="1.34915">
        <ele>909.9004</ele>
        <time>2025-09-13T12:52:32+02:00</time>
      </trkpt>
      <trkpt lat="42.78318" lon="1.34915">
        <ele>911.5</ele>
        <time>2025-09-13T12:52:33+02:00</time>
      </trkpt>
      <trkpt lat="42.78315" lon="1.34919">
        <ele>909.2002</ele>
        <time>2025-09-13T12:52:37+02:00</time>
      </trkpt>
      <trkpt lat="42.78314" lon="1.3492">
        <ele>909.2002</ele>
        <time>2025-09-13T12:52:38+02:00</time>
      </trkpt>
      <trkpt lat="42.78312" lon="1.34922">
        <ele>909.2002</ele>
        <time>2025-09-13T12:52:42+02:00</time>
      </trkpt>
      <trkpt lat="42.78311" lon="1.34922">
        <ele>910.6006</ele>
        <time>2025-09-13T12:52:43+02:00</time>
      </trkpt>
      <trkpt lat="42.78308" lon="1.34925">
        <ele>910.6006</ele>
        <time>2025-09-13T12:52:47+02:00</time>
      </trkpt>
      <trkpt lat="42.78307" lon="1.34925">
        <ele>910.6006</ele>
        <time>2025-09-13T12:52:48+02:00</time>
      </trkpt>
      <trkpt lat="42.78305" lon="1.34928">
        <ele>909.2998</ele>
        <time>2025-09-13T12:52:52+02:00</time>
      </trkpt>
      <trkpt lat="42.78304" lon="1.34929">
        <ele>909.2998</ele>
        <time>2025-09-13T12:52:53+02:00</time>
      </trkpt>
      <trkpt lat="42.783" lon="1.34931">
        <ele>909.2998</ele>
        <time>2025-09-13T12:52:57+02:00</time>
      </trkpt>
      <trkpt lat="42.78299" lon="1.34932">
        <ele>909.2998</ele>
        <time>2025-09-13T12:52:58+02:00</time>
      </trkpt>
      <trkpt lat="42.78297" lon="1.34935">
        <ele>907.6006</ele>
        <time>2025-09-13T12:53:02+02:00</time>
      </trkpt>
      <trkpt lat="42.78296" lon="1.34936">
        <ele>907.6006</ele>
        <time>2025-09-13T12:53:03+02:00</time>
      </trkpt>
      <trkpt lat="42.78294" lon="1.34938">
        <ele>907.6006</ele>
        <time>2025-09-13T12:53:07+02:00</time>
      </trkpt>
      <trkpt lat="42.78293" lon="1.34939">
        <ele>907.6006</ele>
        <time>2025-09-13T12:53:08+02:00</time>
      </trkpt>
      <trkpt lat="42.78291" lon="1.34941">
        <ele>908.2998</ele>
        <time>2025-09-13T12:53:12+02:00</time>
      </trkpt>
      <trkpt lat="42.7829" lon="1.34942">
        <ele>908.2998</ele>
        <time>2025-09-13T12:53:13+02:00</time>
      </trkpt>
      <trkpt lat="42.78287" lon="1.34944">
        <ele>905.7998</ele>
        <time>2025-09-13T12:53:17+02:00</time>
      </trkpt>
      <trkpt lat="42.78287" lon="1.34945">
        <ele>905.7998</ele>
        <time>2025-09-13T12:53:18+02:00</time>
      </trkpt>
      <trkpt lat="42.78284" lon="1.34947">
        <ele>906.4004</ele>
        <time>2025-09-13T12:53:22+02:00</time>
      </trkpt>
      <trkpt lat="42.78283" lon="1.34948">
        <ele>906.4004</ele>
        <time>2025-09-13T12:53:23+02:00</time>
      </trkpt>
      <trkpt lat="42.78279" lon="1.3495">
        <ele>906.7998</ele>
        <time>2025-09-13T12:53:27+02:00</time>
      </trkpt>
      <trkpt lat="42.78278" lon="1.3495">
        <ele>906.7998</ele>
        <time>2025-09-13T12:53:28+02:00</time>
      </trkpt>
      <trkpt lat="42.78275" lon="1.34951">
        <ele>906.7998</ele>
        <time>2025-09-13T12:53:32+02:00</time>
      </trkpt>
      <trkpt lat="42.78274" lon="1.3495">
        <ele>906.9004</ele>
        <time>2025-09-13T12:53:33+02:00</time>
      </trkpt>
      <trkpt lat="42.7827" lon="1.34949">
        <ele>906.9004</ele>
        <time>2025-09-13T12:53:37+02:00</time>
      </trkpt>
      <trkpt lat="42.78269" lon="1.34949">
        <ele>906.9004</ele>
        <time>2025-09-13T12:53:38+02:00</time>
      </trkpt>
      <trkpt lat="42.78266" lon="1.34947">
        <ele>906.9004</ele>
        <time>2025-09-13T12:53:42+02:00</time>
      </trkpt>
      <trkpt lat="42.78265" lon="1.34946">
        <ele>906.9004</ele>
        <time>2025-09-13T12:53:43+02:00</time>
      </trkpt>
      <trkpt lat="42.78262" lon="1.34944">
        <ele>906.9004</ele>
        <time>2025-09-13T12:53:47+02:00</time>
      </trkpt>
      <trkpt lat="42.78261" lon="1.34943">
        <ele>906.7002</ele>
        <time>2025-09-13T12:53:48+02:00</time>
      </trkpt>
      <trkpt lat="42.78258" lon="1.34941">
        <ele>909.4004</ele>
        <time>2025-09-13T12:53:52+02:00</time>
      </trkpt>
      <trkpt lat="42.78257" lon="1.3494">
        <ele>909.4004</ele>
        <time>2025-09-13T12:53:53+02:00</time>
      </trkpt>
      <trkpt lat="42.78253" lon="1.3494">
        <ele>909.2002</ele>
        <time>2025-09-13T12:53:57+02:00</time>
      </trkpt>
      <trkpt lat="42.78252" lon="1.34939">
        <ele>909.2002</ele>
        <time>2025-09-13T12:53:58+02:00</time>
      </trkpt>
      <trkpt lat="42.78248" lon="1.34938">
        <ele>908.9004</ele>
        <time>2025-09-13T12:54:02+02:00</time>
      </trkpt>
      <trkpt lat="42.78248" lon="1.34937">
        <ele>908.9004</ele>
        <time>2025-09-13T12:54:03+02:00</time>
      </trkpt>
      <trkpt lat="42.78245" lon="1.34934">
        <ele>911.5</ele>
        <time>2025-09-13T12:54:07+02:00</time>
      </trkpt>
      <trkpt lat="42.78244" lon="1.34933">
        <ele>911.5</ele>
        <time>2025-09-13T12:54:08+02:00</time>
      </trkpt>
      <trkpt lat="42.78243" lon="1.34929">
        <ele>911.5</ele>
        <time>2025-09-13T12:54:12+02:00</time>
      </trkpt>
      <trkpt lat="42.78242" lon="1.34928">
        <ele>911.2998</ele>
        <time>2025-09-13T12:54:13+02:00</time>
      </trkpt>
      <trkpt lat="42.78242" lon="1.34923">
        <ele>913.9004</ele>
        <time>2025-09-13T12:54:17+02:00</time>
      </trkpt>
      <trkpt lat="42.78241" lon="1.34922">
        <ele>913.9004</ele>
        <time>2025-09-13T12:54:18+02:00</time>
      </trkpt>
      <trkpt lat="42.78241" lon="1.34921">
        <ele>913.9004</ele>
        <time>2025-09-13T12:54:22+02:00</time>
      </trkpt>
      <trkpt lat="42.78241" lon="1.34922">
        <ele>913.9004</ele>
        <time>2025-09-13T12:54:23+02:00</time>
      </trkpt>
      <trkpt lat="42.78241" lon="1.34922">
        <ele>913.9004</ele>
        <time>2025-09-13T12:54:27+02:00</time>
      </trkpt>
      <trkpt lat="42.78241" lon="1.34923">
        <ele>913.9004</ele>
        <time>2025-09-13T12:54:28+02:00</time>
      </trkpt>
      <trkpt lat="42.78242" lon="1.34923">
        <ele>913.9004</ele>
        <time>2025-09-13T12:54:32+02:00</time>
      </trkpt>
      <trkpt lat="42.78242" lon="1.34923">
        <ele>913.9004</ele>
        <time>2025-09-13T12:54:33+02:00</time>
      </trkpt>
      <trkpt lat="42.78243" lon="1.34923">
        <ele>914.2002</ele>
        <time>2025-09-13T12:54:37+02:00</time>
      </trkpt>
      <trkpt lat="42.78243" lon="1.34923">
        <ele>914.2002</ele>
        <time>2025-09-13T12:54:38+02:00</time>
      </trkpt>
      <trkpt lat="42.78242" lon="1.34923">
        <ele>913.9004</ele>
        <time>2025-09-13T12:54:42+02:00</time>
      </trkpt>
      <trkpt lat="42.78242" lon="1.34923">
        <ele>913.9004</ele>
        <time>2025-09-13T12:54:43+02:00</time>
      </trkpt>
      <trkpt lat="42.78243" lon="1.34924">
        <ele>914.2002</ele>
        <time>2025-09-13T12:54:47+02:00</time>
      </trkpt>
      <trkpt lat="42.78243" lon="1.34924">
        <ele>914.2002</ele>
        <time>2025-09-13T12:54:48+02:00</time>
      </trkpt>
      <trkpt lat="42.78243" lon="1.34925">
        <ele>914.2002</ele>
        <time>2025-09-13T12:54:52+02:00</time>
      </trkpt>
      <trkpt lat="42.78243" lon="1.34925">
        <ele>914.2002</ele>
        <time>2025-09-13T12:54:53+02:00</time>
      </trkpt>
      <trkpt lat="42.78244" lon="1.34925">
        <ele>914.2002</ele>
        <time>2025-09-13T12:54:57+02:00</time>
      </trkpt>
      <trkpt lat="42.78244" lon="1.34925">
        <ele>914.2002</ele>
        <time>2025-09-13T12:54:58+02:00</time>
      </trkpt>
      <trkpt lat="42.78244" lon="1.34925">
        <ele>914.2002</ele>
        <time>2025-09-13T12:55:02+02:00</time>
      </trkpt>
      <trkpt lat="42.78244" lon="1.34925">
        <ele>914.2002</ele>
        <time>2025-09-13T12:55:03+02:00</time>
      </trkpt>
      <trkpt lat="42.78244" lon="1.34925">
        <ele>914.2002</ele>
        <time>2025-09-13T12:55:07+02:00</time>
      </trkpt>
      <trkpt lat="42.78244" lon="1.34925">
        <ele>914.2002</ele>
        <time>2025-09-13T12:55:08+02:00</time>
      </trkpt>
      <trkpt lat="42.78244" lon="1.34924">
        <ele>914.2002</ele>
        <time>2025-09-13T12:55:12+02:00</time>
      </trkpt>
      <trkpt lat="42.78244" lon="1.34924">
        <ele>914.2002</ele>
        <time>2025-09-13T12:55:13+02:00</time>
      </trkpt>
      <trkpt lat="42.78244" lon="1.34924">
        <ele>914.2002</ele>
        <time>2025-09-13T12:55:17+02:00</time>
      </trkpt>
      <trkpt lat="42.78244" lon="1.34924">
        <ele>914.2002</ele>
        <time>2025-09-13T12:55:18+02:00</time>
      </trkpt>
      <trkpt lat="42.78245" lon="1.34924">
        <ele>914.2002</ele>
        <time>2025-09-13T12:55:22+02:00</time>
      </trkpt>
      <trkpt lat="42.78245" lon="1.34924">
        <ele>914.2002</ele>
        <time>2025-09-13T12:55:23+02:00</time>
      </trkpt>
      <trkpt lat="42.78245" lon="1.34924">
        <ele>914.2002</ele>
        <time>2025-09-13T12:55:27+02:00</time>
      </trkpt>
      <trkpt lat="42.78245" lon="1.34924">
        <ele>914.2002</ele>
        <time>2025-09-13T12:55:28+02:00</time>
      </trkpt>
      <trkpt lat="42.78245" lon="1.34924">
        <ele>914.2002</ele>
        <time>2025-09-13T12:55:32+02:00</time>
      </trkpt>
      <trkpt lat="42.78245" lon="1.34924">
        <ele>914.2002</ele>
        <time>2025-09-13T12:55:33+02:00</time>
      </trkpt>
      <trkpt lat="42.78245" lon="1.34924">
        <ele>914.2002</ele>
        <time>2025-09-13T12:55:37+02:00</time>
      </trkpt>
      <trkpt lat="42.78245" lon="1.34924">
        <ele>914.2002</ele>
        <time>2025-09-13T12:55:38+02:00</time>
      </trkpt>
      <trkpt lat="42.78245" lon="1.34924">
        <ele>914.2002</ele>
        <time>2025-09-13T12:55:42+02:00</time>
      </trkpt>
      <trkpt lat="42.78245" lon="1.34924">
        <ele>914.2002</ele>
        <time>2025-09-13T12:55:43+02:00</time>
      </trkpt>
      <trkpt lat="42.78245" lon="1.34924">
        <ele>914.2002</ele>
        <time>2025-09-13T12:55:47+02:00</time>
      </trkpt>
      <trkpt lat="42.78245" lon="1.34924">
        <ele>914.2002</ele>
        <time>2025-09-13T12:55:48+02:00</time>
      </trkpt>
      <trkpt lat="42.78245" lon="1.34924">
        <ele>914.2002</ele>
        <time>2025-09-13T12:55:52+02:00</time>
      </trkpt>
      <trkpt lat="42.78245" lon="1.34924">
        <ele>914.2002</ele>
        <time>2025-09-13T12:55:53+02:00</time>
      </trkpt>
      <trkpt lat="42.78245" lon="1.34923">
        <ele>914.2002</ele>
        <time>2025-09-13T12:55:57+02:00</time>
      </trkpt>
      <trkpt lat="42.78245" lon="1.34922">
        <ele>914.2002</ele>
        <time>2025-09-13T12:55:58+02:00</time>
      </trkpt>
      <trkpt lat="42.78246" lon="1.34917">
        <ele>916.7998</ele>
        <time>2025-09-13T12:56:02+02:00</time>
      </trkpt>
      <trkpt lat="42.78245" lon="1.34915">
        <ele>916.7998</ele>
        <time>2025-09-13T12:56:03+02:00</time>
      </trkpt>
      <trkpt lat="42.78245" lon="1.34909">
        <ele>919.5</ele>
        <time>2025-09-13T12:56:07+02:00</time>
      </trkpt>
      <trkpt lat="42.78244" lon="1.34907">
        <ele>919.5</ele>
        <time>2025-09-13T12:56:08+02:00</time>
      </trkpt>
      <trkpt lat="42.78243" lon="1.34901">
        <ele>919.5</ele>
        <time>2025-09-13T12:56:12+02:00</time>
      </trkpt>
      <trkpt lat="42.78243" lon="1.349">
        <ele>922.1006</ele>
        <time>2025-09-13T12:56:13+02:00</time>
      </trkpt>
      <trkpt lat="42.7824" lon="1.34895">
        <ele>921.7998</ele>
        <time>2025-09-13T12:56:17+02:00</time>
      </trkpt>
      <trkpt lat="42.7824" lon="1.34894">
        <ele>921.7998</ele>
        <time>2025-09-13T12:56:18+02:00</time>
      </trkpt>
      <trkpt lat="42.78237" lon="1.34889">
        <ele>924.5</ele>
        <time>2025-09-13T12:56:22+02:00</time>
      </trkpt>
      <trkpt lat="42.78236" lon="1.34888">
        <ele>924.5</ele>
        <time>2025-09-13T12:56:23+02:00</time>
      </trkpt>
      <trkpt lat="42.78233" lon="1.34884">
        <ele>924.1006</ele>
        <time>2025-09-13T12:56:27+02:00</time>
      </trkpt>
      <trkpt lat="42.78233" lon="1.34883">
        <ele>926.7998</ele>
        <time>2025-09-13T12:56:28+02:00</time>
      </trkpt>
      <trkpt lat="42.7823" lon="1.34879">
        <ele>926.5</ele>
        <time>2025-09-13T12:56:32+02:00</time>
      </trkpt>
      <trkpt lat="42.78229" lon="1.34878">
        <ele>926.5</ele>
        <time>2025-09-13T12:56:33+02:00</time>
      </trkpt>
      <trkpt lat="42.78227" lon="1.34874">
        <ele>929.2002</ele>
        <time>2025-09-13T12:56:37+02:00</time>
      </trkpt>
      <trkpt lat="42.78226" lon="1.34873">
        <ele>929.2002</ele>
        <time>2025-09-13T12:56:38+02:00</time>
      </trkpt>
      <trkpt lat="42.78223" lon="1.34869">
        <ele>928.7002</ele>
        <time>2025-09-13T12:56:42+02:00</time>
      </trkpt>
      <trkpt lat="42.78222" lon="1.34868">
        <ele>928.7002</ele>
        <time>2025-09-13T12:56:43+02:00</time>
      </trkpt>
      <trkpt lat="42.78219" lon="1.34864">
        <ele>931.5</ele>
        <time>2025-09-13T12:56:47+02:00</time>
      </trkpt>
      <trkpt lat="42.78218" lon="1.34863">
        <ele>931.5</ele>
        <time>2025-09-13T12:56:48+02:00</time>
      </trkpt>
      <trkpt lat="42.78215" lon="1.3486">
        <ele>930.7998</ele>
        <time>2025-09-13T12:56:52+02:00</time>
      </trkpt>
      <trkpt lat="42.78214" lon="1.34859">
        <ele>930.7998</ele>
        <time>2025-09-13T12:56:53+02:00</time>
      </trkpt>
      <trkpt lat="42.78211" lon="1.34856">
        <ele>932.7002</ele>
        <time>2025-09-13T12:56:57+02:00</time>
      </trkpt>
      <trkpt lat="42.7821" lon="1.34856">
        <ele>932.7002</ele>
        <time>2025-09-13T12:56:58+02:00</time>
      </trkpt>
      <trkpt lat="42.78206" lon="1.34855">
        <ele>932.7002</ele>
        <time>2025-09-13T12:57:02+02:00</time>
      </trkpt>
      <trkpt lat="42.78205" lon="1.34855">
        <ele>932.7002</ele>
        <time>2025-09-13T12:57:03+02:00</time>
      </trkpt>
      <trkpt lat="42.78201" lon="1.34854">
        <ele>932</ele>
        <time>2025-09-13T12:57:07+02:00</time>
      </trkpt>
      <trkpt lat="42.782" lon="1.34854">
        <ele>932</ele>
        <time>2025-09-13T12:57:08+02:00</time>
      </trkpt>
      <trkpt lat="42.78196" lon="1.34853">
        <ele>931.4004</ele>
        <time>2025-09-13T12:57:12+02:00</time>
      </trkpt>
      <trkpt lat="42.78195" lon="1.34853">
        <ele>931.4004</ele>
        <time>2025-09-13T12:57:13+02:00</time>
      </trkpt>
      <trkpt lat="42.78191" lon="1.34853">
        <ele>930.9004</ele>
        <time>2025-09-13T12:57:17+02:00</time>
      </trkpt>
      <trkpt lat="42.7819" lon="1.34853">
        <ele>930.9004</ele>
        <time>2025-09-13T12:57:18+02:00</time>
      </trkpt>
      <trkpt lat="42.78186" lon="1.34853">
        <ele>930.9004</ele>
        <time>2025-09-13T12:57:22+02:00</time>
      </trkpt>
      <trkpt lat="42.78185" lon="1.34854">
        <ele>930.5</ele>
        <time>2025-09-13T12:57:23+02:00</time>
      </trkpt>
      <trkpt lat="42.78181" lon="1.34853">
        <ele>930.5</ele>
        <time>2025-09-13T12:57:27+02:00</time>
      </trkpt>
      <trkpt lat="42.7818" lon="1.34853">
        <ele>930.5</ele>
        <time>2025-09-13T12:57:28+02:00</time>
      </trkpt>
      <trkpt lat="42.78177" lon="1.34851">
        <ele>930.1006</ele>
        <time>2025-09-13T12:57:32+02:00</time>
      </trkpt>
      <trkpt lat="42.78176" lon="1.34851">
        <ele>930.1006</ele>
        <time>2025-09-13T12:57:33+02:00</time>
      </trkpt>
      <trkpt lat="42.78172" lon="1.34849">
        <ele>929.7002</ele>
        <time>2025-09-13T12:57:37+02:00</time>
      </trkpt>
      <trkpt lat="42.78171" lon="1.34849">
        <ele>929.7002</ele>
        <time>2025-09-13T12:57:38+02:00</time>
      </trkpt>
      <trkpt lat="42.78167" lon="1.34849">
        <ele>929.4004</ele>
        <time>2025-09-13T12:57:42+02:00</time>
      </trkpt>
      <trkpt lat="42.78166" lon="1.34849">
        <ele>929.4004</ele>
        <time>2025-09-13T12:57:43+02:00</time>
      </trkpt>
      <trkpt lat="42.78162" lon="1.34849">
        <ele>929.4004</ele>
        <time>2025-09-13T12:57:47+02:00</time>
      </trkpt>
      <trkpt lat="42.78162" lon="1.34849">
        <ele>929.4004</ele>
        <time>2025-09-13T12:57:48+02:00</time>
      </trkpt>
      <trkpt lat="42.78158" lon="1.34848">
        <ele>932</ele>
        <time>2025-09-13T12:57:52+02:00</time>
      </trkpt>
      <trkpt lat="42.78157" lon="1.34848">
        <ele>932</ele>
        <time>2025-09-13T12:57:53+02:00</time>
      </trkpt>
      <trkpt lat="42.78153" lon="1.34847">
        <ele>931.7002</ele>
        <time>2025-09-13T12:57:57+02:00</time>
      </trkpt>
      <trkpt lat="42.78152" lon="1.34846">
        <ele>931.7002</ele>
        <time>2025-09-13T12:57:58+02:00</time>
      </trkpt>
      <trkpt lat="42.78149" lon="1.34846">
        <ele>931.7002</ele>
        <time>2025-09-13T12:58:02+02:00</time>
      </trkpt>
      <trkpt lat="42.78148" lon="1.34846">
        <ele>931.7002</ele>
        <time>2025-09-13T12:58:03+02:00</time>
      </trkpt>
      <trkpt lat="42.78145" lon="1.34844">
        <ele>931.2998</ele>
        <time>2025-09-13T12:58:07+02:00</time>
      </trkpt>
      <trkpt lat="42.78144" lon="1.34844">
        <ele>931.2998</ele>
        <time>2025-09-13T12:58:08+02:00</time>
      </trkpt>
      <trkpt lat="42.7814" lon="1.34841">
        <ele>930.9004</ele>
        <time>2025-09-13T12:58:12+02:00</time>
      </trkpt>
      <trkpt lat="42.78139" lon="1.34841">
        <ele>930.9004</ele>
        <time>2025-09-13T12:58:13+02:00</time>
      </trkpt>
      <trkpt lat="42.78136" lon="1.34838">
        <ele>934.1006</ele>
        <time>2025-09-13T12:58:17+02:00</time>
      </trkpt>
      <trkpt lat="42.78135" lon="1.34838">
        <ele>933.7998</ele>
        <time>2025-09-13T12:58:18+02:00</time>
      </trkpt>
      <trkpt lat="42.78131" lon="1.34838">
        <ele>933.7998</ele>
        <time>2025-09-13T12:58:22+02:00</time>
      </trkpt>
      <trkpt lat="42.7813" lon="1.34838">
        <ele>933.7998</ele>
        <time>2025-09-13T12:58:23+02:00</time>
      </trkpt>
      <trkpt lat="42.78126" lon="1.34838">
        <ele>933.5</ele>
        <time>2025-09-13T12:58:27+02:00</time>
      </trkpt>
      <trkpt lat="42.78125" lon="1.34838">
        <ele>933.5</ele>
        <time>2025-09-13T12:58:28+02:00</time>
      </trkpt>
      <trkpt lat="42.78122" lon="1.34838">
        <ele>933.2998</ele>
        <time>2025-09-13T12:58:32+02:00</time>
      </trkpt>
      <trkpt lat="42.78121" lon="1.34838">
        <ele>933.2998</ele>
        <time>2025-09-13T12:58:33+02:00</time>
      </trkpt>
      <trkpt lat="42.78117" lon="1.34838">
        <ele>933.2998</ele>
        <time>2025-09-13T12:58:37+02:00</time>
      </trkpt>
      <trkpt lat="42.78116" lon="1.34838">
        <ele>933.1006</ele>
        <time>2025-09-13T12:58:38+02:00</time>
      </trkpt>
      <trkpt lat="42.78112" lon="1.34838">
        <ele>933.1006</ele>
        <time>2025-09-13T12:58:42+02:00</time>
      </trkpt>
      <trkpt lat="42.78111" lon="1.34838">
        <ele>933.1006</ele>
        <time>2025-09-13T12:58:43+02:00</time>
      </trkpt>
      <trkpt lat="42.78107" lon="1.34837">
        <ele>933</ele>
        <time>2025-09-13T12:58:47+02:00</time>
      </trkpt>
      <trkpt lat="42.78106" lon="1.34837">
        <ele>933</ele>
        <time>2025-09-13T12:58:48+02:00</time>
      </trkpt>
      <trkpt lat="42.78102" lon="1.34838">
        <ele>933</ele>
        <time>2025-09-13T12:58:52+02:00</time>
      </trkpt>
      <trkpt lat="42.78101" lon="1.34838">
        <ele>933</ele>
        <time>2025-09-13T12:58:53+02:00</time>
      </trkpt>
      <trkpt lat="42.78097" lon="1.34837">
        <ele>933.1006</ele>
        <time>2025-09-13T12:58:57+02:00</time>
      </trkpt>
      <trkpt lat="42.78096" lon="1.34837">
        <ele>933.1006</ele>
        <time>2025-09-13T12:58:58+02:00</time>
      </trkpt>
      <trkpt lat="42.78092" lon="1.34836">
        <ele>933.1006</ele>
        <time>2025-09-13T12:59:02+02:00</time>
      </trkpt>
      <trkpt lat="42.78091" lon="1.34836">
        <ele>933.2998</ele>
        <time>2025-09-13T12:59:03+02:00</time>
      </trkpt>
      <trkpt lat="42.78087" lon="1.34835">
        <ele>933.2998</ele>
        <time>2025-09-13T12:59:07+02:00</time>
      </trkpt>
      <trkpt lat="42.78086" lon="1.34835">
        <ele>933.2998</ele>
        <time>2025-09-13T12:59:08+02:00</time>
      </trkpt>
      <trkpt lat="42.78083" lon="1.34834">
        <ele>933.4004</ele>
        <time>2025-09-13T12:59:12+02:00</time>
      </trkpt>
      <trkpt lat="42.78082" lon="1.34834">
        <ele>933.4004</ele>
        <time>2025-09-13T12:59:13+02:00</time>
      </trkpt>
      <trkpt lat="42.78078" lon="1.34833">
        <ele>933.5</ele>
        <time>2025-09-13T12:59:17+02:00</time>
      </trkpt>
      <trkpt lat="42.78077" lon="1.34832">
        <ele>933.5</ele>
        <time>2025-09-13T12:59:18+02:00</time>
      </trkpt>
      <trkpt lat="42.78074" lon="1.34832">
        <ele>933.5</ele>
        <time>2025-09-13T12:59:22+02:00</time>
      </trkpt>
      <trkpt lat="42.78073" lon="1.34831">
        <ele>937.1006</ele>
        <time>2025-09-13T12:59:23+02:00</time>
      </trkpt>
      <trkpt lat="42.78069" lon="1.3483">
        <ele>937.1006</ele>
        <time>2025-09-13T12:59:27+02:00</time>
      </trkpt>
      <trkpt lat="42.78069" lon="1.3483">
        <ele>937.1006</ele>
        <time>2025-09-13T12:59:28+02:00</time>
      </trkpt>
      <trkpt lat="42.78065" lon="1.3483">
        <ele>937.1006</ele>
        <time>2025-09-13T12:59:32+02:00</time>
      </trkpt>
      <trkpt lat="42.78065" lon="1.34829">
        <ele>937.1006</ele>
        <time>2025-09-13T12:59:33+02:00</time>
      </trkpt>
      <trkpt lat="42.78061" lon="1.34829">
        <ele>937.1006</ele>
        <time>2025-09-13T12:59:37+02:00</time>
      </trkpt>
      <trkpt lat="42.7806" lon="1.34829">
        <ele>937.1006</ele>
        <time>2025-09-13T12:59:38+02:00</time>
      </trkpt>
      <trkpt lat="42.78056" lon="1.3483">
        <ele>937.2998</ele>
        <time>2025-09-13T12:59:42+02:00</time>
      </trkpt>
      <trkpt lat="42.78055" lon="1.3483">
        <ele>937.2998</ele>
        <time>2025-09-13T12:59:43+02:00</time>
      </trkpt>
      <trkpt lat="42.78052" lon="1.34829">
        <ele>937.4004</ele>
        <time>2025-09-13T12:59:47+02:00</time>
      </trkpt>
      <trkpt lat="42.78051" lon="1.34829">
        <ele>937.4004</ele>
        <time>2025-09-13T12:59:48+02:00</time>
      </trkpt>
      <trkpt lat="42.78047" lon="1.34828">
        <ele>937.7002</ele>
        <time>2025-09-13T12:59:52+02:00</time>
      </trkpt>
      <trkpt lat="42.78046" lon="1.34828">
        <ele>937.7002</ele>
        <time>2025-09-13T12:59:53+02:00</time>
      </trkpt>
      <trkpt lat="42.78042" lon="1.34827">
        <ele>937.7002</ele>
        <time>2025-09-13T12:59:57+02:00</time>
      </trkpt>
      <trkpt lat="42.78042" lon="1.34827">
        <ele>937.7002</ele>
        <time>2025-09-13T12:59:58+02:00</time>
      </trkpt>
      <trkpt lat="42.78038" lon="1.34826">
        <ele>938</ele>
        <time>2025-09-13T13:00:02+02:00</time>
      </trkpt>
      <trkpt lat="42.78037" lon="1.34825">
        <ele>938</ele>
        <time>2025-09-13T13:00:03+02:00</time>
      </trkpt>
      <trkpt lat="42.78034" lon="1.34824">
        <ele>938.4004</ele>
        <time>2025-09-13T13:00:07+02:00</time>
      </trkpt>
      <trkpt lat="42.78033" lon="1.34824">
        <ele>938.4004</ele>
        <time>2025-09-13T13:00:08+02:00</time>
      </trkpt>
      <trkpt lat="42.7803" lon="1.34822">
        <ele>942.2998</ele>
        <time>2025-09-13T13:00:12+02:00</time>
      </trkpt>
      <trkpt lat="42.78029" lon="1.34822">
        <ele>942.2998</ele>
        <time>2025-09-13T13:00:13+02:00</time>
      </trkpt>
      <trkpt lat="42.78025" lon="1.3482">
        <ele>942.7002</ele>
        <time>2025-09-13T13:00:17+02:00</time>
      </trkpt>
      <trkpt lat="42.78024" lon="1.3482">
        <ele>942.7002</ele>
        <time>2025-09-13T13:00:18+02:00</time>
      </trkpt>
      <trkpt lat="42.78021" lon="1.34819">
        <ele>943.1006</ele>
        <time>2025-09-13T13:00:22+02:00</time>
      </trkpt>
      <trkpt lat="42.7802" lon="1.34819">
        <ele>943.1006</ele>
        <time>2025-09-13T13:00:23+02:00</time>
      </trkpt>
      <trkpt lat="42.78019" lon="1.34818">
        <ele>943.1006</ele>
        <time>2025-09-13T13:00:27+02:00</time>
      </trkpt>
      <trkpt lat="42.78019" lon="1.34818">
        <ele>943.1006</ele>
        <time>2025-09-13T13:00:28+02:00</time>
      </trkpt>
      <trkpt lat="42.7802" lon="1.34818">
        <ele>943.1006</ele>
        <time>2025-09-13T13:00:32+02:00</time>
      </trkpt>
      <trkpt lat="42.7802" lon="1.34818">
        <ele>943.1006</ele>
        <time>2025-09-13T13:00:33+02:00</time>
      </trkpt>
      <trkpt lat="42.7802" lon="1.34818">
        <ele>943.1006</ele>
        <time>2025-09-13T13:00:37+02:00</time>
      </trkpt>
      <trkpt lat="42.78019" lon="1.34818">
        <ele>943.1006</ele>
        <time>2025-09-13T13:00:38+02:00</time>
      </trkpt>
      <trkpt lat="42.78018" lon="1.34818">
        <ele>943.1006</ele>
        <time>2025-09-13T13:00:42+02:00</time>
      </trkpt>
      <trkpt lat="42.78017" lon="1.34818">
        <ele>943.1006</ele>
        <time>2025-09-13T13:00:43+02:00</time>
      </trkpt>
      <trkpt lat="42.78012" lon="1.34819">
        <ele>943.5</ele>
        <time>2025-09-13T13:00:47+02:00</time>
      </trkpt>
      <trkpt lat="42.78011" lon="1.34819">
        <ele>943.5</ele>
        <time>2025-09-13T13:00:48+02:00</time>
      </trkpt>
      <trkpt lat="42.78012" lon="1.34819">
        <ele>943.5</ele>
        <time>2025-09-13T13:00:52+02:00</time>
      </trkpt>
      <trkpt lat="42.78011" lon="1.34819">
        <ele>943.5</ele>
        <time>2025-09-13T13:00:53+02:00</time>
      </trkpt>
      <trkpt lat="42.78011" lon="1.3482">
        <ele>943.5</ele>
        <time>2025-09-13T13:00:57+02:00</time>
      </trkpt>
      <trkpt lat="42.78011" lon="1.3482">
        <ele>943.5</ele>
        <time>2025-09-13T13:00:58+02:00</time>
      </trkpt>
      <trkpt lat="42.78011" lon="1.3482">
        <ele>943.5</ele>
        <time>2025-09-13T13:01:02+02:00</time>
      </trkpt>
      <trkpt lat="42.7801" lon="1.3482">
        <ele>943.5</ele>
        <time>2025-09-13T13:01:03+02:00</time>
      </trkpt>
      <trkpt lat="42.7801" lon="1.3482">
        <ele>943.5</ele>
        <time>2025-09-13T13:01:07+02:00</time>
      </trkpt>
      <trkpt lat="42.7801" lon="1.3482">
        <ele>943.5</ele>
        <time>2025-09-13T13:01:08+02:00</time>
      </trkpt>
      <trkpt lat="42.78011" lon="1.3482">
        <ele>943.5</ele>
        <time>2025-09-13T13:01:12+02:00</time>
      </trkpt>
      <trkpt lat="42.78011" lon="1.3482">
        <ele>943.5</ele>
        <time>2025-09-13T13:01:13+02:00</time>
      </trkpt>
      <trkpt lat="42.78011" lon="1.3482">
        <ele>943.5</ele>
        <time>2025-09-13T13:01:17+02:00</time>
      </trkpt>
      <trkpt lat="42.7801" lon="1.34821">
        <ele>943.5</ele>
        <time>2025-09-13T13:01:19+02:00</time>
      </trkpt>
      <trkpt lat="42.78011" lon="1.3482">
        <ele>943.5</ele>
        <time>2025-09-13T13:01:23+02:00</time>
      </trkpt>
      <trkpt lat="42.78011" lon="1.3482">
        <ele>943.5</ele>
        <time>2025-09-13T13:01:29+02:00</time>
      </trkpt>
      <trkpt lat="42.78011" lon="1.3482">
        <ele>943.5</ele>
        <time>2025-09-13T13:02:10+02:00</time>
      </trkpt>
      <trkpt lat="42.78011" lon="1.3482">
        <ele>943.5</ele>
        <time>2025-09-13T13:02:11+02:00</time>
      </trkpt>
      <trkpt lat="42.78011" lon="1.3482">
        <ele>943.5</ele>
        <time>2025-09-13T13:02:15+02:00</time>
      </trkpt>
      <trkpt lat="42.78011" lon="1.3482">
        <ele>943.5</ele>
        <time>2025-09-13T13:02:16+02:00</time>
      </trkpt>
      <trkpt lat="42.78011" lon="1.3482">
        <ele>943.5</ele>
        <time>2025-09-13T13:03:06+02:00</time>
      </trkpt>
      <trkpt lat="42.7801" lon="1.34825">
        <ele>939.6006</ele>
        <time>2025-09-13T13:03:24+02:00</time>
      </trkpt>
      <trkpt lat="42.78014" lon="1.34816">
        <ele>943.5</ele>
        <time>2025-09-13T13:03:28+02:00</time>
      </trkpt>
      <trkpt lat="42.78015" lon="1.34813">
        <ele>947.5</ele>
        <time>2025-09-13T13:03:29+02:00</time>
      </trkpt>
      <trkpt lat="42.78015" lon="1.3481">
        <ele>947.5</ele>
        <time>2025-09-13T13:03:33+02:00</time>
      </trkpt>
      <trkpt lat="42.78015" lon="1.34811">
        <ele>947.5</ele>
        <time>2025-09-13T13:03:34+02:00</time>
      </trkpt>
      <trkpt lat="42.78014" lon="1.34812">
        <ele>947.5</ele>
        <time>2025-09-13T13:03:38+02:00</time>
      </trkpt>
      <trkpt lat="42.78015" lon="1.34811">
        <ele>947.5</ele>
        <time>2025-09-13T13:03:39+02:00</time>
      </trkpt>
      <trkpt lat="42.78015" lon="1.34811">
        <ele>947.5</ele>
        <time>2025-09-13T13:03:43+02:00</time>
      </trkpt>
      <trkpt lat="42.78015" lon="1.34811">
        <ele>947.5</ele>
        <time>2025-09-13T13:03:44+02:00</time>
      </trkpt>
      <trkpt lat="42.78015" lon="1.34811">
        <ele>947.5</ele>
        <time>2025-09-13T13:03:48+02:00</time>
      </trkpt>
      <trkpt lat="42.78015" lon="1.34811">
        <ele>947.5</ele>
        <time>2025-09-13T13:03:49+02:00</time>
      </trkpt>
      <trkpt lat="42.78015" lon="1.34811">
        <ele>947.5</ele>
        <time>2025-09-13T13:03:53+02:00</time>
      </trkpt>
      <trkpt lat="42.78015" lon="1.34811">
        <ele>947.5</ele>
        <time>2025-09-13T13:03:54+02:00</time>
      </trkpt>
      <trkpt lat="42.78015" lon="1.34811">
        <ele>947.5</ele>
        <time>2025-09-13T13:03:58+02:00</time>
      </trkpt>
      <trkpt lat="42.78015" lon="1.34811">
        <ele>947.5</ele>
        <time>2025-09-13T13:03:59+02:00</time>
      </trkpt>
      <trkpt lat="42.78015" lon="1.34811">
        <ele>947.5</ele>
        <time>2025-09-13T13:04:03+02:00</time>
      </trkpt>
      <trkpt lat="42.78015" lon="1.34811">
        <ele>947.5</ele>
        <time>2025-09-13T13:04:04+02:00</time>
      </trkpt>
      <trkpt lat="42.78015" lon="1.34811">
        <ele>947.5</ele>
        <time>2025-09-13T13:04:08+02:00</time>
      </trkpt>
      <trkpt lat="42.78015" lon="1.34811">
        <ele>947.5</ele>
        <time>2025-09-13T13:04:09+02:00</time>
      </trkpt>
      <trkpt lat="42.78015" lon="1.34811">
        <ele>947.5</ele>
        <time>2025-09-13T13:04:13+02:00</time>
      </trkpt>
      <trkpt lat="42.78015" lon="1.34811">
        <ele>947.5</ele>
        <time>2025-09-13T13:04:14+02:00</time>
      </trkpt>
      <trkpt lat="42.78015" lon="1.34811">
        <ele>947.5</ele>
        <time>2025-09-13T13:04:18+02:00</time>
      </trkpt>
      <trkpt lat="42.78015" lon="1.34811">
        <ele>947.5</ele>
        <time>2025-09-13T13:04:19+02:00</time>
      </trkpt>
      <trkpt lat="42.78015" lon="1.34811">
        <ele>947.5</ele>
        <time>2025-09-13T13:04:23+02:00</time>
      </trkpt>
      <trkpt lat="42.78015" lon="1.34811">
        <ele>947.5</ele>
        <time>2025-09-13T13:04:24+02:00</time>
      </trkpt>
      <trkpt lat="42.78015" lon="1.34811">
        <ele>947.5</ele>
        <time>2025-09-13T13:04:28+02:00</time>
      </trkpt>
      <trkpt lat="42.78015" lon="1.34811">
        <ele>947.5</ele>
        <time>2025-09-13T13:04:29+02:00</time>
      </trkpt>
      <trkpt lat="42.78015" lon="1.34811">
        <ele>947.5</ele>
        <time>2025-09-13T13:04:33+02:00</time>
      </trkpt>
      <trkpt lat="42.78015" lon="1.34811">
        <ele>947.5</ele>
        <time>2025-09-13T13:04:34+02:00</time>
      </trkpt>
      <trkpt lat="42.78015" lon="1.34811">
        <ele>947.5</ele>
        <time>2025-09-13T13:04:38+02:00</time>
      </trkpt>
      <trkpt lat="42.78015" lon="1.34811">
        <ele>947.5</ele>
        <time>2025-09-13T13:04:39+02:00</time>
      </trkpt>
      <trkpt lat="42.78015" lon="1.34811">
        <ele>947.5</ele>
        <time>2025-09-13T13:04:43+02:00</time>
      </trkpt>
      <trkpt lat="42.78015" lon="1.34811">
        <ele>947.5</ele>
        <time>2025-09-13T13:04:44+02:00</time>
      </trkpt>
      <trkpt lat="42.78015" lon="1.34811">
        <ele>947.5</ele>
        <time>2025-09-13T13:04:48+02:00</time>
      </trkpt>
      <trkpt lat="42.78015" lon="1.34811">
        <ele>947.5</ele>
        <time>2025-09-13T13:04:49+02:00</time>
      </trkpt>
      <trkpt lat="42.78015" lon="1.34811">
        <ele>947.5</ele>
        <time>2025-09-13T13:04:53+02:00</time>
      </trkpt>
      <trkpt lat="42.78015" lon="1.34811">
        <ele>947.5</ele>
        <time>2025-09-13T13:04:54+02:00</time>
      </trkpt>
      <trkpt lat="42.78015" lon="1.34811">
        <ele>947.5</ele>
        <time>2025-09-13T13:04:58+02:00</time>
      </trkpt>
      <trkpt lat="42.78015" lon="1.34811">
        <ele>947.5</ele>
        <time>2025-09-13T13:04:59+02:00</time>
      </trkpt>
      <trkpt lat="42.78015" lon="1.34811">
        <ele>947.5</ele>
        <time>2025-09-13T13:05:03+02:00</time>
      </trkpt>
      <trkpt lat="42.78015" lon="1.34811">
        <ele>947.5</ele>
        <time>2025-09-13T13:05:04+02:00</time>
      </trkpt>
      <trkpt lat="42.78015" lon="1.34811">
        <ele>947.5</ele>
        <time>2025-09-13T13:05:08+02:00</time>
      </trkpt>
      <trkpt lat="42.78015" lon="1.34811">
        <ele>947.5</ele>
        <time>2025-09-13T13:05:09+02:00</time>
      </trkpt>
      <trkpt lat="42.78015" lon="1.34811">
        <ele>947.5</ele>
        <time>2025-09-13T13:05:13+02:00</time>
      </trkpt>
      <trkpt lat="42.78015" lon="1.34811">
        <ele>947.5</ele>
        <time>2025-09-13T13:05:14+02:00</time>
      </trkpt>
      <trkpt lat="42.78015" lon="1.34811">
        <ele>947.5</ele>
        <time>2025-09-13T13:05:18+02:00</time>
      </trkpt>
      <trkpt lat="42.78015" lon="1.34811">
        <ele>947.5</ele>
        <time>2025-09-13T13:05:19+02:00</time>
      </trkpt>
      <trkpt lat="42.78014" lon="1.34811">
        <ele>947.5</ele>
        <time>2025-09-13T13:05:23+02:00</time>
      </trkpt>
      <trkpt lat="42.78014" lon="1.34811">
        <ele>947.5</ele>
        <time>2025-09-13T13:05:24+02:00</time>
      </trkpt>
      <trkpt lat="42.78014" lon="1.34812">
        <ele>947.5</ele>
        <time>2025-09-13T13:05:28+02:00</time>
      </trkpt>
      <trkpt lat="42.78014" lon="1.34812">
        <ele>947.5</ele>
        <time>2025-09-13T13:05:29+02:00</time>
      </trkpt>
      <trkpt lat="42.78013" lon="1.34813">
        <ele>947.5</ele>
        <time>2025-09-13T13:05:33+02:00</time>
      </trkpt>
      <trkpt lat="42.78012" lon="1.34813">
        <ele>947.5</ele>
        <time>2025-09-13T13:05:34+02:00</time>
      </trkpt>
      <trkpt lat="42.78008" lon="1.34813">
        <ele>947.9004</ele>
        <time>2025-09-13T13:05:38+02:00</time>
      </trkpt>
      <trkpt lat="42.78006" lon="1.34813">
        <ele>947.9004</ele>
        <time>2025-09-13T13:05:39+02:00</time>
      </trkpt>
      <trkpt lat="42.78003" lon="1.34813">
        <ele>948.2998</ele>
        <time>2025-09-13T13:05:43+02:00</time>
      </trkpt>
      <trkpt lat="42.78002" lon="1.34813">
        <ele>948.2998</ele>
        <time>2025-09-13T13:05:44+02:00</time>
      </trkpt>
      <trkpt lat="42.77997" lon="1.34816">
        <ele>944.2998</ele>
        <time>2025-09-13T13:05:48+02:00</time>
      </trkpt>
      <trkpt lat="42.77996" lon="1.34816">
        <ele>944.7002</ele>
        <time>2025-09-13T13:05:49+02:00</time>
      </trkpt>
      <trkpt lat="42.7799" lon="1.34815">
        <ele>945.1006</ele>
        <time>2025-09-13T13:05:53+02:00</time>
      </trkpt>
      <trkpt lat="42.77989" lon="1.34815">
        <ele>945.1006</ele>
        <time>2025-09-13T13:05:54+02:00</time>
      </trkpt>
      <trkpt lat="42.77984" lon="1.34813">
        <ele>949</ele>
        <time>2025-09-13T13:05:58+02:00</time>
      </trkpt>
      <trkpt lat="42.77983" lon="1.34812">
        <ele>949.2998</ele>
        <time>2025-09-13T13:05:59+02:00</time>
      </trkpt>
      <trkpt lat="42.77979" lon="1.3481">
        <ele>949.2998</ele>
        <time>2025-09-13T13:06:03+02:00</time>
      </trkpt>
      <trkpt lat="42.77979" lon="1.34809">
        <ele>949.2998</ele>
        <time>2025-09-13T13:06:04+02:00</time>
      </trkpt>
      <trkpt lat="42.77975" lon="1.34805">
        <ele>953.5</ele>
        <time>2025-09-13T13:06:08+02:00</time>
      </trkpt>
      <trkpt lat="42.77974" lon="1.34804">
        <ele>953.5</ele>
        <time>2025-09-13T13:06:09+02:00</time>
      </trkpt>
      <trkpt lat="42.77971" lon="1.34801">
        <ele>953.7002</ele>
        <time>2025-09-13T13:06:13+02:00</time>
      </trkpt>
      <trkpt lat="42.7797" lon="1.348">
        <ele>953.7002</ele>
        <time>2025-09-13T13:06:14+02:00</time>
      </trkpt>
      <trkpt lat="42.77967" lon="1.348">
        <ele>953.7002</ele>
        <time>2025-09-13T13:06:18+02:00</time>
      </trkpt>
      <trkpt lat="42.77966" lon="1.34799">
        <ele>953.7002</ele>
        <time>2025-09-13T13:06:19+02:00</time>
      </trkpt>
      <trkpt lat="42.77963" lon="1.34799">
        <ele>953.7998</ele>
        <time>2025-09-13T13:06:23+02:00</time>
      </trkpt>
      <trkpt lat="42.77962" lon="1.34799">
        <ele>953.7998</ele>
        <time>2025-09-13T13:06:24+02:00</time>
      </trkpt>
      <trkpt lat="42.77959" lon="1.34798">
        <ele>953.7998</ele>
        <time>2025-09-13T13:06:28+02:00</time>
      </trkpt>
      <trkpt lat="42.77958" lon="1.34797">
        <ele>953.7998</ele>
        <time>2025-09-13T13:06:29+02:00</time>
      </trkpt>
      <trkpt lat="42.77954" lon="1.34797">
        <ele>957.5</ele>
        <time>2025-09-13T13:06:33+02:00</time>
      </trkpt>
      <trkpt lat="42.77953" lon="1.34796">
        <ele>957.5</ele>
        <time>2025-09-13T13:06:34+02:00</time>
      </trkpt>
      <trkpt lat="42.7795" lon="1.34795">
        <ele>957.4004</ele>
        <time>2025-09-13T13:06:38+02:00</time>
      </trkpt>
      <trkpt lat="42.77949" lon="1.34795">
        <ele>957.4004</ele>
        <time>2025-09-13T13:06:39+02:00</time>
      </trkpt>
      <trkpt lat="42.77945" lon="1.34793">
        <ele>957.2998</ele>
        <time>2025-09-13T13:06:43+02:00</time>
      </trkpt>
      <trkpt lat="42.77945" lon="1.34792">
        <ele>957.2998</ele>
        <time>2025-09-13T13:06:44+02:00</time>
      </trkpt>
      <trkpt lat="42.77941" lon="1.34791">
        <ele>957.2998</ele>
        <time>2025-09-13T13:06:48+02:00</time>
      </trkpt>
      <trkpt lat="42.7794" lon="1.34791">
        <ele>957.2998</ele>
        <time>2025-09-13T13:06:49+02:00</time>
      </trkpt>
      <trkpt lat="42.77937" lon="1.34789">
        <ele>957.2002</ele>
        <time>2025-09-13T13:06:53+02:00</time>
      </trkpt>
      <trkpt lat="42.77936" lon="1.34789">
        <ele>957.2002</ele>
        <time>2025-09-13T13:06:54+02:00</time>
      </trkpt>
      <trkpt lat="42.77932" lon="1.34788">
        <ele>960.6006</ele>
        <time>2025-09-13T13:06:58+02:00</time>
      </trkpt>
      <trkpt lat="42.77931" lon="1.34787">
        <ele>960.6006</ele>
        <time>2025-09-13T13:06:59+02:00</time>
      </trkpt>
      <trkpt lat="42.77927" lon="1.34786">
        <ele>960.4004</ele>
        <time>2025-09-13T13:07:03+02:00</time>
      </trkpt>
      <trkpt lat="42.77926" lon="1.34786">
        <ele>960.4004</ele>
        <time>2025-09-13T13:07:04+02:00</time>
      </trkpt>
      <trkpt lat="42.77923" lon="1.34786">
        <ele>960.4004</ele>
        <time>2025-09-13T13:07:08+02:00</time>
      </trkpt>
      <trkpt lat="42.77922" lon="1.34786">
        <ele>960.4004</ele>
        <time>2025-09-13T13:07:09+02:00</time>
      </trkpt>
      <trkpt lat="42.77918" lon="1.34787">
        <ele>960.2998</ele>
        <time>2025-09-13T13:07:13+02:00</time>
      </trkpt>
      <trkpt lat="42.77918" lon="1.34787">
        <ele>960.2998</ele>
        <time>2025-09-13T13:07:14+02:00</time>
      </trkpt>
      <trkpt lat="42.77914" lon="1.34787">
        <ele>960.2998</ele>
        <time>2025-09-13T13:07:18+02:00</time>
      </trkpt>
      <trkpt lat="42.77914" lon="1.34787">
        <ele>960.2998</ele>
        <time>2025-09-13T13:07:19+02:00</time>
      </trkpt>
      <trkpt lat="42.7791" lon="1.34788">
        <ele>960.2998</ele>
        <time>2025-09-13T13:07:23+02:00</time>
      </trkpt>
      <trkpt lat="42.77909" lon="1.34789">
        <ele>957.1006</ele>
        <time>2025-09-13T13:07:24+02:00</time>
      </trkpt>
      <trkpt lat="42.77905" lon="1.3479">
        <ele>957.2998</ele>
        <time>2025-09-13T13:07:28+02:00</time>
      </trkpt>
      <trkpt lat="42.77904" lon="1.3479">
        <ele>957.2998</ele>
        <time>2025-09-13T13:07:29+02:00</time>
      </trkpt>
      <trkpt lat="42.77901" lon="1.3479">
        <ele>957.6006</ele>
        <time>2025-09-13T13:07:33+02:00</time>
      </trkpt>
      <trkpt lat="42.779" lon="1.3479">
        <ele>957.6006</ele>
        <time>2025-09-13T13:07:34+02:00</time>
      </trkpt>
      <trkpt lat="42.77896" lon="1.3479">
        <ele>958.1006</ele>
        <time>2025-09-13T13:07:38+02:00</time>
      </trkpt>
      <trkpt lat="42.77895" lon="1.3479">
        <ele>958.1006</ele>
        <time>2025-09-13T13:07:39+02:00</time>
      </trkpt>
      <trkpt lat="42.7789" lon="1.3479">
        <ele>958.1006</ele>
        <time>2025-09-13T13:07:43+02:00</time>
      </trkpt>
      <trkpt lat="42.7789" lon="1.3479">
        <ele>958.1006</ele>
        <time>2025-09-13T13:07:44+02:00</time>
      </trkpt>
      <trkpt lat="42.77886" lon="1.34791">
        <ele>958.7002</ele>
        <time>2025-09-13T13:07:48+02:00</time>
      </trkpt>
      <trkpt lat="42.77885" lon="1.34791">
        <ele>958.7002</ele>
        <time>2025-09-13T13:07:49+02:00</time>
      </trkpt>
      <trkpt lat="42.77882" lon="1.34791">
        <ele>959.4004</ele>
        <time>2025-09-13T13:07:53+02:00</time>
      </trkpt>
      <trkpt lat="42.77881" lon="1.34792">
        <ele>959.4004</ele>
        <time>2025-09-13T13:07:54+02:00</time>
      </trkpt>
      <trkpt lat="42.77877" lon="1.34793">
        <ele>959.4004</ele>
        <time>2025-09-13T13:07:58+02:00</time>
      </trkpt>
      <trkpt lat="42.77876" lon="1.34793">
        <ele>960.2998</ele>
        <time>2025-09-13T13:07:59+02:00</time>
      </trkpt>
      <trkpt lat="42.77872" lon="1.34794">
        <ele>960.2998</ele>
        <time>2025-09-13T13:08:03+02:00</time>
      </trkpt>
      <trkpt lat="42.77872" lon="1.34795">
        <ele>960.2998</ele>
        <time>2025-09-13T13:08:04+02:00</time>
      </trkpt>
      <trkpt lat="42.77868" lon="1.34798">
        <ele>958.2002</ele>
        <time>2025-09-13T13:08:08+02:00</time>
      </trkpt>
      <trkpt lat="42.77868" lon="1.34798">
        <ele>958.2002</ele>
        <time>2025-09-13T13:08:09+02:00</time>
      </trkpt>
      <trkpt lat="42.77864" lon="1.34801">
        <ele>959.2002</ele>
        <time>2025-09-13T13:08:13+02:00</time>
      </trkpt>
      <trkpt lat="42.77863" lon="1.34802">
        <ele>959.2002</ele>
        <time>2025-09-13T13:08:14+02:00</time>
      </trkpt>
      <trkpt lat="42.77859" lon="1.34804">
        <ele>959.2002</ele>
        <time>2025-09-13T13:08:18+02:00</time>
      </trkpt>
      <trkpt lat="42.77858" lon="1.34805">
        <ele>959.2002</ele>
        <time>2025-09-13T13:08:19+02:00</time>
      </trkpt>
      <trkpt lat="42.77854" lon="1.34807">
        <ele>957.2002</ele>
        <time>2025-09-13T13:08:23+02:00</time>
      </trkpt>
      <trkpt lat="42.7785" lon="1.34808">
        <ele>958.2998</ele>
        <time>2025-09-13T13:08:28+02:00</time>
      </trkpt>
      <trkpt lat="42.77849" lon="1.34809">
        <ele>958.2998</ele>
        <time>2025-09-13T13:08:29+02:00</time>
      </trkpt>
      <trkpt lat="42.77846" lon="1.34809">
        <ele>958.2998</ele>
        <time>2025-09-13T13:08:33+02:00</time>
      </trkpt>
      <trkpt lat="42.77845" lon="1.34809">
        <ele>959.5</ele>
        <time>2025-09-13T13:08:34+02:00</time>
      </trkpt>
      <trkpt lat="42.77841" lon="1.3481">
        <ele>959.5</ele>
        <time>2025-09-13T13:08:38+02:00</time>
      </trkpt>
      <trkpt lat="42.7784" lon="1.3481">
        <ele>959.5</ele>
        <time>2025-09-13T13:08:39+02:00</time>
      </trkpt>
      <trkpt lat="42.77836" lon="1.3481">
        <ele>960.7998</ele>
        <time>2025-09-13T13:08:43+02:00</time>
      </trkpt>
      <trkpt lat="42.77835" lon="1.3481">
        <ele>960.7998</ele>
        <time>2025-09-13T13:08:44+02:00</time>
      </trkpt>
      <trkpt lat="42.77832" lon="1.34811">
        <ele>961.7998</ele>
        <time>2025-09-13T13:08:48+02:00</time>
      </trkpt>
      <trkpt lat="42.77831" lon="1.34811">
        <ele>961.7998</ele>
        <time>2025-09-13T13:08:49+02:00</time>
      </trkpt>
      <trkpt lat="42.77828" lon="1.34811">
        <ele>961.7998</ele>
        <time>2025-09-13T13:08:53+02:00</time>
      </trkpt>
      <trkpt lat="42.77827" lon="1.34811">
        <ele>961.7998</ele>
        <time>2025-09-13T13:08:54+02:00</time>
      </trkpt>
      <trkpt lat="42.77824" lon="1.34811">
        <ele>962</ele>
        <time>2025-09-13T13:08:58+02:00</time>
      </trkpt>
      <trkpt lat="42.77823" lon="1.34811">
        <ele>962</ele>
        <time>2025-09-13T13:08:59+02:00</time>
      </trkpt>
      <trkpt lat="42.77819" lon="1.34811">
        <ele>961.5</ele>
        <time>2025-09-13T13:09:03+02:00</time>
      </trkpt>
      <trkpt lat="42.77818" lon="1.34811">
        <ele>961.5</ele>
        <time>2025-09-13T13:09:04+02:00</time>
      </trkpt>
      <trkpt lat="42.77815" lon="1.34812">
        <ele>961.5</ele>
        <time>2025-09-13T13:09:08+02:00</time>
      </trkpt>
      <trkpt lat="42.77814" lon="1.34812">
        <ele>960.7998</ele>
        <time>2025-09-13T13:09:09+02:00</time>
      </trkpt>
      <trkpt lat="42.7781" lon="1.34812">
        <ele>960.7998</ele>
        <time>2025-09-13T13:09:13+02:00</time>
      </trkpt>
      <trkpt lat="42.77809" lon="1.34812">
        <ele>960.7998</ele>
        <time>2025-09-13T13:09:14+02:00</time>
      </trkpt>
      <trkpt lat="42.77806" lon="1.34813">
        <ele>960.1006</ele>
        <time>2025-09-13T13:09:18+02:00</time>
      </trkpt>
      <trkpt lat="42.77806" lon="1.34814">
        <ele>960.1006</ele>
        <time>2025-09-13T13:09:19+02:00</time>
      </trkpt>
      <trkpt lat="42.77806" lon="1.34815">
        <ele>956.7998</ele>
        <time>2025-09-13T13:09:23+02:00</time>
      </trkpt>
      <trkpt lat="42.77806" lon="1.34815">
        <ele>956.7998</ele>
        <time>2025-09-13T13:09:24+02:00</time>
      </trkpt>
      <trkpt lat="42.77806" lon="1.34816">
        <ele>956.7998</ele>
        <time>2025-09-13T13:09:28+02:00</time>
      </trkpt>
      <trkpt lat="42.77806" lon="1.34816">
        <ele>956.7998</ele>
        <time>2025-09-13T13:09:29+02:00</time>
      </trkpt>
      <trkpt lat="42.77806" lon="1.34816">
        <ele>956.7998</ele>
        <time>2025-09-13T13:09:33+02:00</time>
      </trkpt>
      <trkpt lat="42.77806" lon="1.34816">
        <ele>956.7998</ele>
        <time>2025-09-13T13:09:34+02:00</time>
      </trkpt>
      <trkpt lat="42.77805" lon="1.34816">
        <ele>956.7998</ele>
        <time>2025-09-13T13:09:38+02:00</time>
      </trkpt>
      <trkpt lat="42.77805" lon="1.34816">
        <ele>956.7998</ele>
        <time>2025-09-13T13:09:39+02:00</time>
      </trkpt>
      <trkpt lat="42.77805" lon="1.34816">
        <ele>956.7998</ele>
        <time>2025-09-13T13:09:43+02:00</time>
      </trkpt>
      <trkpt lat="42.77805" lon="1.34816">
        <ele>956.7998</ele>
        <time>2025-09-13T13:09:44+02:00</time>
      </trkpt>
      <trkpt lat="42.77804" lon="1.34816">
        <ele>956.7998</ele>
        <time>2025-09-13T13:09:48+02:00</time>
      </trkpt>
      <trkpt lat="42.77803" lon="1.34816">
        <ele>956.7998</ele>
        <time>2025-09-13T13:09:49+02:00</time>
      </trkpt>
      <trkpt lat="42.77803" lon="1.34816">
        <ele>956.7998</ele>
        <time>2025-09-13T13:09:53+02:00</time>
      </trkpt>
      <trkpt lat="42.77803" lon="1.34816">
        <ele>956.7998</ele>
        <time>2025-09-13T13:09:54+02:00</time>
      </trkpt>
      <trkpt lat="42.77803" lon="1.34816">
        <ele>956.7998</ele>
        <time>2025-09-13T13:09:58+02:00</time>
      </trkpt>
      <trkpt lat="42.77803" lon="1.34816">
        <ele>956.7998</ele>
        <time>2025-09-13T13:09:59+02:00</time>
      </trkpt>
      <trkpt lat="42.77803" lon="1.34816">
        <ele>956.7998</ele>
        <time>2025-09-13T13:10:03+02:00</time>
      </trkpt>
      <trkpt lat="42.77804" lon="1.34815">
        <ele>956.7998</ele>
        <time>2025-09-13T13:10:04+02:00</time>
      </trkpt>
      <trkpt lat="42.77801" lon="1.34813">
        <ele>958.6006</ele>
        <time>2025-09-13T13:10:08+02:00</time>
      </trkpt>
      <trkpt lat="42.77801" lon="1.34813">
        <ele>958.6006</ele>
        <time>2025-09-13T13:10:09+02:00</time>
      </trkpt>
      <trkpt lat="42.77796" lon="1.34812">
        <ele>958.6006</ele>
        <time>2025-09-13T13:10:13+02:00</time>
      </trkpt>
      <trkpt lat="42.77794" lon="1.34812">
        <ele>957.1006</ele>
        <time>2025-09-13T13:10:14+02:00</time>
      </trkpt>
      <trkpt lat="42.77788" lon="1.34811">
        <ele>956.5</ele>
        <time>2025-09-13T13:10:18+02:00</time>
      </trkpt>
      <trkpt lat="42.77787" lon="1.34811">
        <ele>956.5</ele>
        <time>2025-09-13T13:10:19+02:00</time>
      </trkpt>
      <trkpt lat="42.77783" lon="1.3481">
        <ele>956.5</ele>
        <time>2025-09-13T13:10:23+02:00</time>
      </trkpt>
      <trkpt lat="42.77782" lon="1.3481">
        <ele>957.9004</ele>
        <time>2025-09-13T13:10:24+02:00</time>
      </trkpt>
      <trkpt lat="42.77778" lon="1.34809">
        <ele>957.9004</ele>
        <time>2025-09-13T13:10:28+02:00</time>
      </trkpt>
      <trkpt lat="42.77777" lon="1.34809">
        <ele>957.9004</ele>
        <time>2025-09-13T13:10:29+02:00</time>
      </trkpt>
      <trkpt lat="42.77773" lon="1.34808">
        <ele>961.1006</ele>
        <time>2025-09-13T13:10:33+02:00</time>
      </trkpt>
      <trkpt lat="42.77772" lon="1.34808">
        <ele>961.1006</ele>
        <time>2025-09-13T13:10:34+02:00</time>
      </trkpt>
      <trkpt lat="42.77769" lon="1.3481">
        <ele>965</ele>
        <time>2025-09-13T13:10:38+02:00</time>
      </trkpt>
      <trkpt lat="42.77768" lon="1.3481">
        <ele>965</ele>
        <time>2025-09-13T13:10:39+02:00</time>
      </trkpt>
      <trkpt lat="42.77765" lon="1.34812">
        <ele>965</ele>
        <time>2025-09-13T13:10:43+02:00</time>
      </trkpt>
      <trkpt lat="42.77764" lon="1.34812">
        <ele>965</ele>
        <time>2025-09-13T13:10:44+02:00</time>
      </trkpt>
      <trkpt lat="42.77765" lon="1.34811">
        <ele>965</ele>
        <time>2025-09-13T13:10:48+02:00</time>
      </trkpt>
      <trkpt lat="42.77766" lon="1.34811">
        <ele>965</ele>
        <time>2025-09-13T13:10:49+02:00</time>
      </trkpt>
      <trkpt lat="42.77766" lon="1.34811">
        <ele>965</ele>
        <time>2025-09-13T13:10:53+02:00</time>
      </trkpt>
      <trkpt lat="42.77766" lon="1.34811">
        <ele>965</ele>
        <time>2025-09-13T13:10:54+02:00</time>
      </trkpt>
      <trkpt lat="42.77766" lon="1.34811">
        <ele>965</ele>
        <time>2025-09-13T13:10:58+02:00</time>
      </trkpt>
      <trkpt lat="42.77766" lon="1.34811">
        <ele>965</ele>
        <time>2025-09-13T13:10:59+02:00</time>
      </trkpt>
      <trkpt lat="42.77765" lon="1.34812">
        <ele>965</ele>
        <time>2025-09-13T13:11:03+02:00</time>
      </trkpt>
      <trkpt lat="42.77764" lon="1.34813">
        <ele>969.1006</ele>
        <time>2025-09-13T13:11:04+02:00</time>
      </trkpt>
      <trkpt lat="42.77759" lon="1.34817">
        <ele>966.2998</ele>
        <time>2025-09-13T13:11:08+02:00</time>
      </trkpt>
      <trkpt lat="42.77758" lon="1.34818">
        <ele>966.2998</ele>
        <time>2025-09-13T13:11:09+02:00</time>
      </trkpt>
      <trkpt lat="42.77754" lon="1.34822">
        <ele>970.4004</ele>
        <time>2025-09-13T13:11:13+02:00</time>
      </trkpt>
      <trkpt lat="42.77753" lon="1.34823">
        <ele>967.6006</ele>
        <time>2025-09-13T13:11:14+02:00</time>
      </trkpt>
      <trkpt lat="42.77749" lon="1.34827">
        <ele>971.7998</ele>
        <time>2025-09-13T13:11:18+02:00</time>
      </trkpt>
      <trkpt lat="42.77748" lon="1.34828">
        <ele>971.7998</ele>
        <time>2025-09-13T13:11:19+02:00</time>
      </trkpt>
      <trkpt lat="42.77745" lon="1.34833">
        <ele>972.6006</ele>
        <time>2025-09-13T13:11:23+02:00</time>
      </trkpt>
      <trkpt lat="42.77744" lon="1.34834">
        <ele>972.6006</ele>
        <time>2025-09-13T13:11:24+02:00</time>
      </trkpt>
      <trkpt lat="42.77741" lon="1.34838">
        <ele>972.6006</ele>
        <time>2025-09-13T13:11:28+02:00</time>
      </trkpt>
      <trkpt lat="42.7774" lon="1.3484">
        <ele>972.6006</ele>
        <time>2025-09-13T13:11:29+02:00</time>
      </trkpt>
      <trkpt lat="42.77738" lon="1.34843">
        <ele>972.2002</ele>
        <time>2025-09-13T13:11:33+02:00</time>
      </trkpt>
      <trkpt lat="42.77737" lon="1.34844">
        <ele>972.2002</ele>
        <time>2025-09-13T13:11:34+02:00</time>
      </trkpt>
      <trkpt lat="42.77734" lon="1.34846">
        <ele>972.2002</ele>
        <time>2025-09-13T13:11:38+02:00</time>
      </trkpt>
      <trkpt lat="42.77733" lon="1.34848">
        <ele>972.2002</ele>
        <time>2025-09-13T13:11:39+02:00</time>
      </trkpt>
      <trkpt lat="42.77731" lon="1.3485">
        <ele>971</ele>
        <time>2025-09-13T13:11:43+02:00</time>
      </trkpt>
      <trkpt lat="42.7773" lon="1.34851">
        <ele>971</ele>
        <time>2025-09-13T13:11:44+02:00</time>
      </trkpt>
      <trkpt lat="42.77732" lon="1.34851">
        <ele>971</ele>
        <time>2025-09-13T13:11:48+02:00</time>
      </trkpt>
      <trkpt lat="42.77733" lon="1.3485">
        <ele>968.9004</ele>
        <time>2025-09-13T13:11:49+02:00</time>
      </trkpt>
      <trkpt lat="42.77733" lon="1.34849">
        <ele>968.9004</ele>
        <time>2025-09-13T13:11:53+02:00</time>
      </trkpt>
      <trkpt lat="42.77733" lon="1.34849">
        <ele>968.9004</ele>
        <time>2025-09-13T13:11:54+02:00</time>
      </trkpt>
      <trkpt lat="42.77733" lon="1.34849">
        <ele>968.9004</ele>
        <time>2025-09-13T13:11:58+02:00</time>
      </trkpt>
      <trkpt lat="42.77733" lon="1.3485">
        <ele>968.9004</ele>
        <time>2025-09-13T13:11:59+02:00</time>
      </trkpt>
      <trkpt lat="42.7773" lon="1.34857">
        <ele>971</ele>
        <time>2025-09-13T13:12:03+02:00</time>
      </trkpt>
      <trkpt lat="42.7773" lon="1.34858">
        <ele>967.7002</ele>
        <time>2025-09-13T13:12:04+02:00</time>
      </trkpt>
      <trkpt lat="42.77727" lon="1.34862">
        <ele>967.7002</ele>
        <time>2025-09-13T13:12:08+02:00</time>
      </trkpt>
      <trkpt lat="42.77726" lon="1.34863">
        <ele>969.7998</ele>
        <time>2025-09-13T13:12:09+02:00</time>
      </trkpt>
      <trkpt lat="42.77722" lon="1.34866">
        <ele>966.5</ele>
        <time>2025-09-13T13:12:13+02:00</time>
      </trkpt>
      <trkpt lat="42.77721" lon="1.34867">
        <ele>966.5</ele>
        <time>2025-09-13T13:12:14+02:00</time>
      </trkpt>
      <trkpt lat="42.77718" lon="1.3487">
        <ele>969</ele>
        <time>2025-09-13T13:12:18+02:00</time>
      </trkpt>
      <trkpt lat="42.77717" lon="1.34871">
        <ele>969</ele>
        <time>2025-09-13T13:12:19+02:00</time>
      </trkpt>
      <trkpt lat="42.77714" lon="1.34874">
        <ele>969</ele>
        <time>2025-09-13T13:12:23+02:00</time>
      </trkpt>
      <trkpt lat="42.77713" lon="1.34874">
        <ele>968.2998</ele>
        <time>2025-09-13T13:12:24+02:00</time>
      </trkpt>
      <trkpt lat="42.7771" lon="1.34877">
        <ele>968.2998</ele>
        <time>2025-09-13T13:12:28+02:00</time>
      </trkpt>
      <trkpt lat="42.77709" lon="1.34877">
        <ele>968.2998</ele>
        <time>2025-09-13T13:12:29+02:00</time>
      </trkpt>
      <trkpt lat="42.77705" lon="1.3488">
        <ele>971</ele>
        <time>2025-09-13T13:12:33+02:00</time>
      </trkpt>
      <trkpt lat="42.77704" lon="1.3488">
        <ele>971</ele>
        <time>2025-09-13T13:12:34+02:00</time>
      </trkpt>
      <trkpt lat="42.77702" lon="1.34882">
        <ele>971</ele>
        <time>2025-09-13T13:12:38+02:00</time>
      </trkpt>
      <trkpt lat="42.77702" lon="1.34883">
        <ele>971</ele>
        <time>2025-09-13T13:12:39+02:00</time>
      </trkpt>
      <trkpt lat="42.77701" lon="1.34884">
        <ele>967.7002</ele>
        <time>2025-09-13T13:12:43+02:00</time>
      </trkpt>
      <trkpt lat="42.777" lon="1.34886">
        <ele>970.6006</ele>
        <time>2025-09-13T13:12:44+02:00</time>
      </trkpt>
      <trkpt lat="42.77695" lon="1.3489">
        <ele>970.6006</ele>
        <time>2025-09-13T13:12:48+02:00</time>
      </trkpt>
      <trkpt lat="42.77694" lon="1.3489">
        <ele>973.6006</ele>
        <time>2025-09-13T13:12:49+02:00</time>
      </trkpt>
      <trkpt lat="42.77691" lon="1.34892">
        <ele>970.2002</ele>
        <time>2025-09-13T13:12:53+02:00</time>
      </trkpt>
      <trkpt lat="42.7769" lon="1.34893">
        <ele>970.2002</ele>
        <time>2025-09-13T13:12:54+02:00</time>
      </trkpt>
      <trkpt lat="42.77686" lon="1.34895">
        <ele>973.2002</ele>
        <time>2025-09-13T13:12:58+02:00</time>
      </trkpt>
      <trkpt lat="42.77685" lon="1.34896">
        <ele>973.2002</ele>
        <time>2025-09-13T13:12:59+02:00</time>
      </trkpt>
      <trkpt lat="42.77682" lon="1.34899">
        <ele>973.2002</ele>
        <time>2025-09-13T13:13:03+02:00</time>
      </trkpt>
      <trkpt lat="42.77681" lon="1.349">
        <ele>972.7998</ele>
        <time>2025-09-13T13:13:04+02:00</time>
      </trkpt>
      <trkpt lat="42.77678" lon="1.34904">
        <ele>972.7998</ele>
        <time>2025-09-13T13:13:08+02:00</time>
      </trkpt>
      <trkpt lat="42.77677" lon="1.34905">
        <ele>972.7998</ele>
        <time>2025-09-13T13:13:09+02:00</time>
      </trkpt>
      <trkpt lat="42.77674" lon="1.34908">
        <ele>975.7998</ele>
        <time>2025-09-13T13:13:13+02:00</time>
      </trkpt>
      <trkpt lat="42.77674" lon="1.34909">
        <ele>972.2998</ele>
        <time>2025-09-13T13:13:14+02:00</time>
      </trkpt>
      <trkpt lat="42.77671" lon="1.34913">
        <ele>972.2998</ele>
        <time>2025-09-13T13:13:18+02:00</time>
      </trkpt>
      <trkpt lat="42.7767" lon="1.34915">
        <ele>972.2998</ele>
        <time>2025-09-13T13:13:19+02:00</time>
      </trkpt>
      <trkpt lat="42.77668" lon="1.34919">
        <ele>971.7998</ele>
        <time>2025-09-13T13:13:23+02:00</time>
      </trkpt>
      <trkpt lat="42.77667" lon="1.3492">
        <ele>971.7998</ele>
        <time>2025-09-13T13:13:24+02:00</time>
      </trkpt>
      <trkpt lat="42.77664" lon="1.34924">
        <ele>971.7998</ele>
        <time>2025-09-13T13:13:28+02:00</time>
      </trkpt>
      <trkpt lat="42.77664" lon="1.34925">
        <ele>971.7998</ele>
        <time>2025-09-13T13:13:29+02:00</time>
      </trkpt>
      <trkpt lat="42.77661" lon="1.34929">
        <ele>971.2998</ele>
        <time>2025-09-13T13:13:33+02:00</time>
      </trkpt>
      <trkpt lat="42.7766" lon="1.3493">
        <ele>971.2998</ele>
        <time>2025-09-13T13:13:34+02:00</time>
      </trkpt>
      <trkpt lat="42.77657" lon="1.34934">
        <ele>967.9004</ele>
        <time>2025-09-13T13:13:38+02:00</time>
      </trkpt>
      <trkpt lat="42.77657" lon="1.34936">
        <ele>967.9004</ele>
        <time>2025-09-13T13:13:39+02:00</time>
      </trkpt>
      <trkpt lat="42.77655" lon="1.3494">
        <ele>971</ele>
        <time>2025-09-13T13:13:43+02:00</time>
      </trkpt>
      <trkpt lat="42.77654" lon="1.34941">
        <ele>971</ele>
        <time>2025-09-13T13:13:44+02:00</time>
      </trkpt>
      <trkpt lat="42.77651" lon="1.34944">
        <ele>967.6006</ele>
        <time>2025-09-13T13:13:48+02:00</time>
      </trkpt>
      <trkpt lat="42.7765" lon="1.34945">
        <ele>967.6006</ele>
        <time>2025-09-13T13:13:49+02:00</time>
      </trkpt>
      <trkpt lat="42.77647" lon="1.34948">
        <ele>970.7998</ele>
        <time>2025-09-13T13:13:53+02:00</time>
      </trkpt>
      <trkpt lat="42.77646" lon="1.34949">
        <ele>970.7998</ele>
        <time>2025-09-13T13:13:54+02:00</time>
      </trkpt>
      <trkpt lat="42.77643" lon="1.34951">
        <ele>973.9004</ele>
        <time>2025-09-13T13:13:58+02:00</time>
      </trkpt>
      <trkpt lat="42.77642" lon="1.34952">
        <ele>970.5</ele>
        <time>2025-09-13T13:13:59+02:00</time>
      </trkpt>
      <trkpt lat="42.77639" lon="1.34954">
        <ele>970.5</ele>
        <time>2025-09-13T13:14:03+02:00</time>
      </trkpt>
      <trkpt lat="42.77638" lon="1.34954">
        <ele>970.5</ele>
        <time>2025-09-13T13:14:04+02:00</time>
      </trkpt>
      <trkpt lat="42.77634" lon="1.34956">
        <ele>973.4004</ele>
        <time>2025-09-13T13:14:08+02:00</time>
      </trkpt>
      <trkpt lat="42.77633" lon="1.34956">
        <ele>973.4004</ele>
        <time>2025-09-13T13:14:09+02:00</time>
      </trkpt>
      <trkpt lat="42.77629" lon="1.34958">
        <ele>976.2002</ele>
        <time>2025-09-13T13:14:13+02:00</time>
      </trkpt>
      <trkpt lat="42.77628" lon="1.34958">
        <ele>976.2002</ele>
        <time>2025-09-13T13:14:14+02:00</time>
      </trkpt>
      <trkpt lat="42.77625" lon="1.3496">
        <ele>979</ele>
        <time>2025-09-13T13:14:18+02:00</time>
      </trkpt>
      <trkpt lat="42.77624" lon="1.3496">
        <ele>975.2998</ele>
        <time>2025-09-13T13:14:19+02:00</time>
      </trkpt>
      <trkpt lat="42.77621" lon="1.34962">
        <ele>975.2998</ele>
        <time>2025-09-13T13:14:23+02:00</time>
      </trkpt>
      <trkpt lat="42.7762" lon="1.34963">
        <ele>975.2998</ele>
        <time>2025-09-13T13:14:24+02:00</time>
      </trkpt>
      <trkpt lat="42.7762" lon="1.34965">
        <ele>975.2998</ele>
        <time>2025-09-13T13:14:28+02:00</time>
      </trkpt>
      <trkpt lat="42.7762" lon="1.34965">
        <ele>975.2998</ele>
        <time>2025-09-13T13:14:29+02:00</time>
      </trkpt>
      <trkpt lat="42.77621" lon="1.34966">
        <ele>975.2998</ele>
        <time>2025-09-13T13:14:33+02:00</time>
      </trkpt>
      <trkpt lat="42.77621" lon="1.34966">
        <ele>975.2998</ele>
        <time>2025-09-13T13:14:34+02:00</time>
      </trkpt>
      <trkpt lat="42.77621" lon="1.34966">
        <ele>975.2998</ele>
        <time>2025-09-13T13:14:38+02:00</time>
      </trkpt>
      <trkpt lat="42.77621" lon="1.34966">
        <ele>975.2998</ele>
        <time>2025-09-13T13:14:39+02:00</time>
      </trkpt>
      <trkpt lat="42.77621" lon="1.34967">
        <ele>975.2998</ele>
        <time>2025-09-13T13:14:43+02:00</time>
      </trkpt>
      <trkpt lat="42.77622" lon="1.34967">
        <ele>975.2998</ele>
        <time>2025-09-13T13:14:44+02:00</time>
      </trkpt>
      <trkpt lat="42.77622" lon="1.34966">
        <ele>975.2998</ele>
        <time>2025-09-13T13:14:48+02:00</time>
      </trkpt>
      <trkpt lat="42.77622" lon="1.34966">
        <ele>975.2998</ele>
        <time>2025-09-13T13:14:49+02:00</time>
      </trkpt>
      <trkpt lat="42.77623" lon="1.34966">
        <ele>975.2998</ele>
        <time>2025-09-13T13:14:53+02:00</time>
      </trkpt>
      <trkpt lat="42.77623" lon="1.34966">
        <ele>975.2998</ele>
        <time>2025-09-13T13:14:54+02:00</time>
      </trkpt>
      <trkpt lat="42.77622" lon="1.34966">
        <ele>975.2998</ele>
        <time>2025-09-13T13:14:58+02:00</time>
      </trkpt>
      <trkpt lat="42.77621" lon="1.34966">
        <ele>975.2998</ele>
        <time>2025-09-13T13:14:59+02:00</time>
      </trkpt>
      <trkpt lat="42.77616" lon="1.34969">
        <ele>974.2998</ele>
        <time>2025-09-13T13:15:03+02:00</time>
      </trkpt>
      <trkpt lat="42.77615" lon="1.3497">
        <ele>974.2998</ele>
        <time>2025-09-13T13:15:04+02:00</time>
      </trkpt>
      <trkpt lat="42.7761" lon="1.34973">
        <ele>977</ele>
        <time>2025-09-13T13:15:08+02:00</time>
      </trkpt>
      <trkpt lat="42.77608" lon="1.34974">
        <ele>977</ele>
        <time>2025-09-13T13:15:09+02:00</time>
      </trkpt>
      <trkpt lat="42.77604" lon="1.34977">
        <ele>979.7998</ele>
        <time>2025-09-13T13:15:13+02:00</time>
      </trkpt>
      <trkpt lat="42.77603" lon="1.34978">
        <ele>975.9004</ele>
        <time>2025-09-13T13:15:14+02:00</time>
      </trkpt>
      <trkpt lat="42.776" lon="1.34981">
        <ele>978.7002</ele>
        <time>2025-09-13T13:15:18+02:00</time>
      </trkpt>
      <trkpt lat="42.77599" lon="1.34981">
        <ele>978.7002</ele>
        <time>2025-09-13T13:15:19+02:00</time>
      </trkpt>
      <trkpt lat="42.77595" lon="1.34985">
        <ele>978.7002</ele>
        <time>2025-09-13T13:15:23+02:00</time>
      </trkpt>
      <trkpt lat="42.77595" lon="1.34986">
        <ele>978.7002</ele>
        <time>2025-09-13T13:15:24+02:00</time>
      </trkpt>
      <trkpt lat="42.77592" lon="1.34989">
        <ele>977.7002</ele>
        <time>2025-09-13T13:15:28+02:00</time>
      </trkpt>
      <trkpt lat="42.77591" lon="1.3499">
        <ele>977.7002</ele>
        <time>2025-09-13T13:15:29+02:00</time>
      </trkpt>
      <trkpt lat="42.77588" lon="1.34994">
        <ele>977.7002</ele>
        <time>2025-09-13T13:15:33+02:00</time>
      </trkpt>
      <trkpt lat="42.77587" lon="1.34995">
        <ele>974.2002</ele>
        <time>2025-09-13T13:15:34+02:00</time>
      </trkpt>
      <trkpt lat="42.77585" lon="1.34998">
        <ele>977</ele>
        <time>2025-09-13T13:15:38+02:00</time>
      </trkpt>
      <trkpt lat="42.77584" lon="1.34998">
        <ele>977</ele>
        <time>2025-09-13T13:15:39+02:00</time>
      </trkpt>
      <trkpt lat="42.77582" lon="1.35002">
        <ele>977</ele>
        <time>2025-09-13T13:15:43+02:00</time>
      </trkpt>
      <trkpt lat="42.77581" lon="1.35003">
        <ele>979.7998</ele>
        <time>2025-09-13T13:15:44+02:00</time>
      </trkpt>
      <trkpt lat="42.77578" lon="1.35006">
        <ele>976.2998</ele>
        <time>2025-09-13T13:15:48+02:00</time>
      </trkpt>
      <trkpt lat="42.77578" lon="1.35007">
        <ele>976.2998</ele>
        <time>2025-09-13T13:15:49+02:00</time>
      </trkpt>
      <trkpt lat="42.77575" lon="1.35011">
        <ele>976.2998</ele>
        <time>2025-09-13T13:15:53+02:00</time>
      </trkpt>
      <trkpt lat="42.77575" lon="1.35012">
        <ele>973</ele>
        <time>2025-09-13T13:15:54+02:00</time>
      </trkpt>
      <trkpt lat="42.77573" lon="1.35017">
        <ele>975.7998</ele>
        <time>2025-09-13T13:15:58+02:00</time>
      </trkpt>
      <trkpt lat="42.77573" lon="1.35018">
        <ele>975.7998</ele>
        <time>2025-09-13T13:15:59+02:00</time>
      </trkpt>
      <trkpt lat="42.77571" lon="1.35023">
        <ele>972.6006</ele>
        <time>2025-09-13T13:16:03+02:00</time>
      </trkpt>
      <trkpt lat="42.7757" lon="1.35025">
        <ele>972.6006</ele>
        <time>2025-09-13T13:16:04+02:00</time>
      </trkpt>
      <trkpt lat="42.77568" lon="1.35029">
        <ele>972.4004</ele>
        <time>2025-09-13T13:16:08+02:00</time>
      </trkpt>
      <trkpt lat="42.77568" lon="1.3503">
        <ele>972.4004</ele>
        <time>2025-09-13T13:16:09+02:00</time>
      </trkpt>
      <trkpt lat="42.77565" lon="1.35033">
        <ele>972.4004</ele>
        <time>2025-09-13T13:16:13+02:00</time>
      </trkpt>
      <trkpt lat="42.77564" lon="1.35034">
        <ele>972.4004</ele>
        <time>2025-09-13T13:16:14+02:00</time>
      </trkpt>
      <trkpt lat="42.77561" lon="1.35036">
        <ele>975.1006</ele>
        <time>2025-09-13T13:16:18+02:00</time>
      </trkpt>
      <trkpt lat="42.7756" lon="1.35036">
        <ele>975.1006</ele>
        <time>2025-09-13T13:16:19+02:00</time>
      </trkpt>
      <trkpt lat="42.77557" lon="1.35038">
        <ele>972.2998</ele>
        <time>2025-09-13T13:16:23+02:00</time>
      </trkpt>
      <trkpt lat="42.77556" lon="1.35038">
        <ele>972.2998</ele>
        <time>2025-09-13T13:16:24+02:00</time>
      </trkpt>
      <trkpt lat="42.77553" lon="1.35039">
        <ele>975</ele>
        <time>2025-09-13T13:16:28+02:00</time>
      </trkpt>
      <trkpt lat="42.77552" lon="1.35039">
        <ele>975</ele>
        <time>2025-09-13T13:16:29+02:00</time>
      </trkpt>
      <trkpt lat="42.77548" lon="1.3504">
        <ele>977.7002</ele>
        <time>2025-09-13T13:16:33+02:00</time>
      </trkpt>
      <trkpt lat="42.77548" lon="1.3504">
        <ele>977.7002</ele>
        <time>2025-09-13T13:16:34+02:00</time>
      </trkpt>
      <trkpt lat="42.77544" lon="1.3504">
        <ele>977.7002</ele>
        <time>2025-09-13T13:16:38+02:00</time>
      </trkpt>
      <trkpt lat="42.77543" lon="1.3504">
        <ele>980.4004</ele>
        <time>2025-09-13T13:16:39+02:00</time>
      </trkpt>
      <trkpt lat="42.77539" lon="1.35041">
        <ele>980.4004</ele>
        <time>2025-09-13T13:16:43+02:00</time>
      </trkpt>
      <trkpt lat="42.77538" lon="1.35042">
        <ele>980.4004</ele>
        <time>2025-09-13T13:16:44+02:00</time>
      </trkpt>
      <trkpt lat="42.77535" lon="1.35043">
        <ele>983.2002</ele>
        <time>2025-09-13T13:16:48+02:00</time>
      </trkpt>
      <trkpt lat="42.77534" lon="1.35043">
        <ele>983.2002</ele>
        <time>2025-09-13T13:16:49+02:00</time>
      </trkpt>
      <trkpt lat="42.7753" lon="1.35045">
        <ele>986</ele>
        <time>2025-09-13T13:16:53+02:00</time>
      </trkpt>
      <trkpt lat="42.7753" lon="1.35046">
        <ele>986</ele>
        <time>2025-09-13T13:16:54+02:00</time>
      </trkpt>
      <trkpt lat="42.77526" lon="1.35049">
        <ele>983</ele>
        <time>2025-09-13T13:16:58+02:00</time>
      </trkpt>
      <trkpt lat="42.77526" lon="1.3505">
        <ele>983</ele>
        <time>2025-09-13T13:16:59+02:00</time>
      </trkpt>
      <trkpt lat="42.77524" lon="1.35055">
        <ele>983.2998</ele>
        <time>2025-09-13T13:17:03+02:00</time>
      </trkpt>
      <trkpt lat="42.77523" lon="1.35056">
        <ele>983.2998</ele>
        <time>2025-09-13T13:17:04+02:00</time>
      </trkpt>
      <trkpt lat="42.7752" lon="1.3506">
        <ele>983.2998</ele>
        <time>2025-09-13T13:17:08+02:00</time>
      </trkpt>
      <trkpt lat="42.77519" lon="1.3506">
        <ele>983.2998</ele>
        <time>2025-09-13T13:17:09+02:00</time>
      </trkpt>
      <trkpt lat="42.77516" lon="1.35063">
        <ele>984.1006</ele>
        <time>2025-09-13T13:17:13+02:00</time>
      </trkpt>
      <trkpt lat="42.77516" lon="1.35064">
        <ele>984.1006</ele>
        <time>2025-09-13T13:17:14+02:00</time>
      </trkpt>
      <trkpt lat="42.77512" lon="1.35067">
        <ele>984.1006</ele>
        <time>2025-09-13T13:17:18+02:00</time>
      </trkpt>
      <trkpt lat="42.77511" lon="1.35067">
        <ele>986.6006</ele>
        <time>2025-09-13T13:17:19+02:00</time>
      </trkpt>
      <trkpt lat="42.77508" lon="1.35071">
        <ele>986.6006</ele>
        <time>2025-09-13T13:17:23+02:00</time>
      </trkpt>
      <trkpt lat="42.77507" lon="1.35073">
        <ele>985</ele>
        <time>2025-09-13T13:17:24+02:00</time>
      </trkpt>
      <trkpt lat="42.77504" lon="1.35077">
        <ele>987.2002</ele>
        <time>2025-09-13T13:17:28+02:00</time>
      </trkpt>
      <trkpt lat="42.77503" lon="1.35079">
        <ele>987.2002</ele>
        <time>2025-09-13T13:17:29+02:00</time>
      </trkpt>
      <trkpt lat="42.77501" lon="1.35084">
        <ele>985.7998</ele>
        <time>2025-09-13T13:17:33+02:00</time>
      </trkpt>
      <trkpt lat="42.775" lon="1.35085">
        <ele>985.7998</ele>
        <time>2025-09-13T13:17:34+02:00</time>
      </trkpt>
      <trkpt lat="42.77497" lon="1.3509">
        <ele>986.5</ele>
        <time>2025-09-13T13:17:38+02:00</time>
      </trkpt>
      <trkpt lat="42.77497" lon="1.35092">
        <ele>986.5</ele>
        <time>2025-09-13T13:17:39+02:00</time>
      </trkpt>
      <trkpt lat="42.77493" lon="1.35097">
        <ele>986.5</ele>
        <time>2025-09-13T13:17:43+02:00</time>
      </trkpt>
      <trkpt lat="42.77493" lon="1.35098">
        <ele>987.4004</ele>
        <time>2025-09-13T13:17:44+02:00</time>
      </trkpt>
      <trkpt lat="42.7749" lon="1.35102">
        <ele>987.4004</ele>
        <time>2025-09-13T13:17:48+02:00</time>
      </trkpt>
      <trkpt lat="42.77489" lon="1.35103">
        <ele>987.4004</ele>
        <time>2025-09-13T13:17:49+02:00</time>
      </trkpt>
      <trkpt lat="42.77486" lon="1.35107">
        <ele>988.2998</ele>
        <time>2025-09-13T13:17:53+02:00</time>
      </trkpt>
      <trkpt lat="42.77485" lon="1.35108">
        <ele>988.2998</ele>
        <time>2025-09-13T13:17:54+02:00</time>
      </trkpt>
      <trkpt lat="42.7748" lon="1.35111">
        <ele>989.7998</ele>
        <time>2025-09-13T13:17:58+02:00</time>
      </trkpt>
      <trkpt lat="42.77476" lon="1.35113">
        <ele>989.7998</ele>
        <time>2025-09-13T13:18:03+02:00</time>
      </trkpt>
      <trkpt lat="42.77475" lon="1.35113">
        <ele>989.7998</ele>
        <time>2025-09-13T13:18:04+02:00</time>
      </trkpt>
      <trkpt lat="42.77472" lon="1.35115">
        <ele>990.6006</ele>
        <time>2025-09-13T13:18:08+02:00</time>
      </trkpt>
      <trkpt lat="42.77471" lon="1.35115">
        <ele>990.6006</ele>
        <time>2025-09-13T13:18:09+02:00</time>
      </trkpt>
      <trkpt lat="42.77467" lon="1.35117">
        <ele>992.2998</ele>
        <time>2025-09-13T13:18:13+02:00</time>
      </trkpt>
      <trkpt lat="42.77467" lon="1.35118">
        <ele>992.2998</ele>
        <time>2025-09-13T13:18:14+02:00</time>
      </trkpt>
      <trkpt lat="42.77466" lon="1.35119">
        <ele>992.2998</ele>
        <time>2025-09-13T13:18:18+02:00</time>
      </trkpt>
      <trkpt lat="42.77466" lon="1.35118">
        <ele>992.2998</ele>
        <time>2025-09-13T13:18:19+02:00</time>
      </trkpt>
      <trkpt lat="42.77467" lon="1.35118">
        <ele>992.2998</ele>
        <time>2025-09-13T13:18:23+02:00</time>
      </trkpt>
      <trkpt lat="42.77467" lon="1.35118">
        <ele>992.2998</ele>
        <time>2025-09-13T13:18:24+02:00</time>
      </trkpt>
      <trkpt lat="42.77466" lon="1.35119">
        <ele>992.2998</ele>
        <time>2025-09-13T13:18:28+02:00</time>
      </trkpt>
      <trkpt lat="42.77466" lon="1.3512">
        <ele>992.2998</ele>
        <time>2025-09-13T13:18:29+02:00</time>
      </trkpt>
      <trkpt lat="42.77466" lon="1.3512">
        <ele>992.2998</ele>
        <time>2025-09-13T13:18:33+02:00</time>
      </trkpt>
      <trkpt lat="42.77466" lon="1.3512">
        <ele>992.2998</ele>
        <time>2025-09-13T13:18:34+02:00</time>
      </trkpt>
      <trkpt lat="42.77465" lon="1.35121">
        <ele>992.2998</ele>
        <time>2025-09-13T13:18:38+02:00</time>
      </trkpt>
      <trkpt lat="42.77465" lon="1.35121">
        <ele>992.2998</ele>
        <time>2025-09-13T13:18:39+02:00</time>
      </trkpt>
      <trkpt lat="42.77465" lon="1.35121">
        <ele>992.2998</ele>
        <time>2025-09-13T13:18:43+02:00</time>
      </trkpt>
      <trkpt lat="42.77465" lon="1.35121">
        <ele>992.2998</ele>
        <time>2025-09-13T13:18:44+02:00</time>
      </trkpt>
      <trkpt lat="42.77465" lon="1.3512">
        <ele>992.2998</ele>
        <time>2025-09-13T13:18:48+02:00</time>
      </trkpt>
      <trkpt lat="42.77465" lon="1.3512">
        <ele>992.2998</ele>
        <time>2025-09-13T13:18:49+02:00</time>
      </trkpt>
      <trkpt lat="42.77465" lon="1.3512">
        <ele>992.2998</ele>
        <time>2025-09-13T13:18:53+02:00</time>
      </trkpt>
      <trkpt lat="42.77465" lon="1.35121">
        <ele>992.2998</ele>
        <time>2025-09-13T13:18:54+02:00</time>
      </trkpt>
      <trkpt lat="42.77465" lon="1.35121">
        <ele>992.2998</ele>
        <time>2025-09-13T13:18:58+02:00</time>
      </trkpt>
      <trkpt lat="42.77465" lon="1.35121">
        <ele>992.2998</ele>
        <time>2025-09-13T13:18:59+02:00</time>
      </trkpt>
      <trkpt lat="42.77462" lon="1.35124">
        <ele>991.9004</ele>
        <time>2025-09-13T13:19:03+02:00</time>
      </trkpt>
      <trkpt lat="42.77461" lon="1.35125">
        <ele>993.5</ele>
        <time>2025-09-13T13:19:04+02:00</time>
      </trkpt>
      <trkpt lat="42.77458" lon="1.3513">
        <ele>993.5</ele>
        <time>2025-09-13T13:19:08+02:00</time>
      </trkpt>
      <trkpt lat="42.77458" lon="1.3513">
        <ele>993.5</ele>
        <time>2025-09-13T13:19:09+02:00</time>
      </trkpt>
      <trkpt lat="42.77458" lon="1.3513">
        <ele>993.5</ele>
        <time>2025-09-13T13:19:13+02:00</time>
      </trkpt>
      <trkpt lat="42.77459" lon="1.3513">
        <ele>993.5</ele>
        <time>2025-09-13T13:19:14+02:00</time>
      </trkpt>
      <trkpt lat="42.77459" lon="1.35131">
        <ele>993.5</ele>
        <time>2025-09-13T13:19:18+02:00</time>
      </trkpt>
      <trkpt lat="42.77458" lon="1.35131">
        <ele>993.5</ele>
        <time>2025-09-13T13:19:19+02:00</time>
      </trkpt>
      <trkpt lat="42.77458" lon="1.35133">
        <ele>993.4004</ele>
        <time>2025-09-13T13:19:23+02:00</time>
      </trkpt>
      <trkpt lat="42.77457" lon="1.35134">
        <ele>993.4004</ele>
        <time>2025-09-13T13:19:24+02:00</time>
      </trkpt>
      <trkpt lat="42.77454" lon="1.35138">
        <ele>994.9004</ele>
        <time>2025-09-13T13:19:28+02:00</time>
      </trkpt>
      <trkpt lat="42.77453" lon="1.35139">
        <ele>994.9004</ele>
        <time>2025-09-13T13:19:29+02:00</time>
      </trkpt>
      <trkpt lat="42.7745" lon="1.35141">
        <ele>995</ele>
        <time>2025-09-13T13:19:33+02:00</time>
      </trkpt>
      <trkpt lat="42.77449" lon="1.35142">
        <ele>995</ele>
        <time>2025-09-13T13:19:34+02:00</time>
      </trkpt>
      <trkpt lat="42.77445" lon="1.35143">
        <ele>996.2002</ele>
        <time>2025-09-13T13:19:38+02:00</time>
      </trkpt>
      <trkpt lat="42.77444" lon="1.35143">
        <ele>996.2002</ele>
        <time>2025-09-13T13:19:39+02:00</time>
      </trkpt>
      <trkpt lat="42.7744" lon="1.35144">
        <ele>997.2002</ele>
        <time>2025-09-13T13:19:43+02:00</time>
      </trkpt>
      <trkpt lat="42.77439" lon="1.35145">
        <ele>997.2002</ele>
        <time>2025-09-13T13:19:44+02:00</time>
      </trkpt>
      <trkpt lat="42.77436" lon="1.35147">
        <ele>997.2002</ele>
        <time>2025-09-13T13:19:48+02:00</time>
      </trkpt>
      <trkpt lat="42.77436" lon="1.35148">
        <ele>998.2998</ele>
        <time>2025-09-13T13:19:49+02:00</time>
      </trkpt>
      <trkpt lat="42.77433" lon="1.35151">
        <ele>996.9004</ele>
        <time>2025-09-13T13:19:53+02:00</time>
      </trkpt>
      <trkpt lat="42.77433" lon="1.35151">
        <ele>996.9004</ele>
        <time>2025-09-13T13:19:54+02:00</time>
      </trkpt>
      <trkpt lat="42.7743" lon="1.35153">
        <ele>998.2002</ele>
        <time>2025-09-13T13:19:58+02:00</time>
      </trkpt>
      <trkpt lat="42.77429" lon="1.35154">
        <ele>998.2002</ele>
        <time>2025-09-13T13:19:59+02:00</time>
      </trkpt>
      <trkpt lat="42.77426" lon="1.35155">
        <ele>998.2002</ele>
        <time>2025-09-13T13:20:03+02:00</time>
      </trkpt>
      <trkpt lat="42.77425" lon="1.35155">
        <ele>998.2002</ele>
        <time>2025-09-13T13:20:04+02:00</time>
      </trkpt>
      <trkpt lat="42.77421" lon="1.35157">
        <ele>1000.7002</ele>
        <time>2025-09-13T13:20:08+02:00</time>
      </trkpt>
      <trkpt lat="42.77421" lon="1.35157">
        <ele>1000.7002</ele>
        <time>2025-09-13T13:20:09+02:00</time>
      </trkpt>
      <trkpt lat="42.77417" lon="1.35159">
        <ele>1002.6006</ele>
        <time>2025-09-13T13:20:13+02:00</time>
      </trkpt>
      <trkpt lat="42.77416" lon="1.35159">
        <ele>1002.6006</ele>
        <time>2025-09-13T13:20:14+02:00</time>
      </trkpt>
      <trkpt lat="42.77413" lon="1.35161">
        <ele>1002.6006</ele>
        <time>2025-09-13T13:20:18+02:00</time>
      </trkpt>
      <trkpt lat="42.77412" lon="1.35162">
        <ele>1002.6006</ele>
        <time>2025-09-13T13:20:19+02:00</time>
      </trkpt>
      <trkpt lat="42.77409" lon="1.35164">
        <ele>1005.5</ele>
        <time>2025-09-13T13:20:23+02:00</time>
      </trkpt>
      <trkpt lat="42.77409" lon="1.35165">
        <ele>1005.5</ele>
        <time>2025-09-13T13:20:24+02:00</time>
      </trkpt>
      <trkpt lat="42.77406" lon="1.35167">
        <ele>1003.7998</ele>
        <time>2025-09-13T13:20:28+02:00</time>
      </trkpt>
      <trkpt lat="42.77405" lon="1.35167">
        <ele>1003.7998</ele>
        <time>2025-09-13T13:20:29+02:00</time>
      </trkpt>
      <trkpt lat="42.77401" lon="1.35169">
        <ele>1006.2002</ele>
        <time>2025-09-13T13:20:33+02:00</time>
      </trkpt>
      <trkpt lat="42.774" lon="1.35169">
        <ele>1006.2002</ele>
        <time>2025-09-13T13:20:34+02:00</time>
      </trkpt>
      <trkpt lat="42.77397" lon="1.3517">
        <ele>1008.2998</ele>
        <time>2025-09-13T13:20:38+02:00</time>
      </trkpt>
      <trkpt lat="42.77396" lon="1.35171">
        <ele>1008.2998</ele>
        <time>2025-09-13T13:20:39+02:00</time>
      </trkpt>
      <trkpt lat="42.77393" lon="1.35173">
        <ele>1008.2998</ele>
        <time>2025-09-13T13:20:43+02:00</time>
      </trkpt>
      <trkpt lat="42.77392" lon="1.35173">
        <ele>1008.2998</ele>
        <time>2025-09-13T13:20:44+02:00</time>
      </trkpt>
      <trkpt lat="42.7739" lon="1.35174">
        <ele>1010.1006</ele>
        <time>2025-09-13T13:20:48+02:00</time>
      </trkpt>
      <trkpt lat="42.77389" lon="1.35174">
        <ele>1010.1006</ele>
        <time>2025-09-13T13:20:49+02:00</time>
      </trkpt>
      <trkpt lat="42.77386" lon="1.35175">
        <ele>1012</ele>
        <time>2025-09-13T13:20:53+02:00</time>
      </trkpt>
      <trkpt lat="42.77385" lon="1.35176">
        <ele>1012</ele>
        <time>2025-09-13T13:20:54+02:00</time>
      </trkpt>
      <trkpt lat="42.77382" lon="1.35178">
        <ele>1012</ele>
        <time>2025-09-13T13:20:58+02:00</time>
      </trkpt>
      <trkpt lat="42.77381" lon="1.35179">
        <ele>1012</ele>
        <time>2025-09-13T13:20:59+02:00</time>
      </trkpt>
      <trkpt lat="42.77377" lon="1.3518">
        <ele>1013.7998</ele>
        <time>2025-09-13T13:21:03+02:00</time>
      </trkpt>
      <trkpt lat="42.77376" lon="1.35181">
        <ele>1013.7998</ele>
        <time>2025-09-13T13:21:04+02:00</time>
      </trkpt>
      <trkpt lat="42.77373" lon="1.35182">
        <ele>1013.7998</ele>
        <time>2025-09-13T13:21:08+02:00</time>
      </trkpt>
      <trkpt lat="42.77372" lon="1.35183">
        <ele>1015.5</ele>
        <time>2025-09-13T13:21:09+02:00</time>
      </trkpt>
      <trkpt lat="42.77369" lon="1.35184">
        <ele>1015.2002</ele>
        <time>2025-09-13T13:21:13+02:00</time>
      </trkpt>
      <trkpt lat="42.77369" lon="1.35184">
        <ele>1015.2002</ele>
        <time>2025-09-13T13:21:14+02:00</time>
      </trkpt>
      <trkpt lat="42.77366" lon="1.35184">
        <ele>1016.5</ele>
        <time>2025-09-13T13:21:18+02:00</time>
      </trkpt>
      <trkpt lat="42.77365" lon="1.35184">
        <ele>1016.5</ele>
        <time>2025-09-13T13:21:19+02:00</time>
      </trkpt>
      <trkpt lat="42.77363" lon="1.35185">
        <ele>1016.5</ele>
        <time>2025-09-13T13:21:23+02:00</time>
      </trkpt>
      <trkpt lat="42.77362" lon="1.35185">
        <ele>1016.5</ele>
        <time>2025-09-13T13:21:24+02:00</time>
      </trkpt>
      <trkpt lat="42.77359" lon="1.35186">
        <ele>1018.1006</ele>
        <time>2025-09-13T13:21:28+02:00</time>
      </trkpt>
      <trkpt lat="42.77358" lon="1.35187">
        <ele>1018.1006</ele>
        <time>2025-09-13T13:21:29+02:00</time>
      </trkpt>
      <trkpt lat="42.77355" lon="1.35189">
        <ele>1018.1006</ele>
        <time>2025-09-13T13:21:33+02:00</time>
      </trkpt>
      <trkpt lat="42.77355" lon="1.35189">
        <ele>1018.1006</ele>
        <time>2025-09-13T13:21:34+02:00</time>
      </trkpt>
      <trkpt lat="42.77352" lon="1.35191">
        <ele>1019.9004</ele>
        <time>2025-09-13T13:21:38+02:00</time>
      </trkpt>
      <trkpt lat="42.77351" lon="1.35191">
        <ele>1019.9004</ele>
        <time>2025-09-13T13:21:39+02:00</time>
      </trkpt>
      <trkpt lat="42.77348" lon="1.35194">
        <ele>1018.9004</ele>
        <time>2025-09-13T13:21:43+02:00</time>
      </trkpt>
      <trkpt lat="42.77347" lon="1.35194">
        <ele>1020.7002</ele>
        <time>2025-09-13T13:21:44+02:00</time>
      </trkpt>
      <trkpt lat="42.77344" lon="1.35196">
        <ele>1020.7002</ele>
        <time>2025-09-13T13:21:48+02:00</time>
      </trkpt>
      <trkpt lat="42.77343" lon="1.35197">
        <ele>1020.7002</ele>
        <time>2025-09-13T13:21:49+02:00</time>
      </trkpt>
      <trkpt lat="42.7734" lon="1.35199">
        <ele>1022.4004</ele>
        <time>2025-09-13T13:21:53+02:00</time>
      </trkpt>
      <trkpt lat="42.7734" lon="1.35199">
        <ele>1022.4004</ele>
        <time>2025-09-13T13:21:54+02:00</time>
      </trkpt>
      <trkpt lat="42.77337" lon="1.35201">
        <ele>1021.6006</ele>
        <time>2025-09-13T13:21:58+02:00</time>
      </trkpt>
      <trkpt lat="42.77336" lon="1.35202">
        <ele>1021.6006</ele>
        <time>2025-09-13T13:21:59+02:00</time>
      </trkpt>
      <trkpt lat="42.77333" lon="1.35205">
        <ele>1023.2998</ele>
        <time>2025-09-13T13:22:03+02:00</time>
      </trkpt>
      <trkpt lat="42.77332" lon="1.35206">
        <ele>1023.2998</ele>
        <time>2025-09-13T13:22:04+02:00</time>
      </trkpt>
      <trkpt lat="42.7733" lon="1.3521">
        <ele>1022.6006</ele>
        <time>2025-09-13T13:22:08+02:00</time>
      </trkpt>
      <trkpt lat="42.77329" lon="1.35211">
        <ele>1024.4004</ele>
        <time>2025-09-13T13:22:09+02:00</time>
      </trkpt>
      <trkpt lat="42.77328" lon="1.35214">
        <ele>1024.4004</ele>
        <time>2025-09-13T13:22:13+02:00</time>
      </trkpt>
      <trkpt lat="42.77328" lon="1.35214">
        <ele>1024.4004</ele>
        <time>2025-09-13T13:22:14+02:00</time>
      </trkpt>
      <trkpt lat="42.77328" lon="1.35214">
        <ele>1024.4004</ele>
        <time>2025-09-13T13:22:18+02:00</time>
      </trkpt>
      <trkpt lat="42.77328" lon="1.35214">
        <ele>1024.4004</ele>
        <time>2025-09-13T13:22:19+02:00</time>
      </trkpt>
      <trkpt lat="42.77328" lon="1.35215">
        <ele>1024.4004</ele>
        <time>2025-09-13T13:22:23+02:00</time>
      </trkpt>
      <trkpt lat="42.77328" lon="1.35215">
        <ele>1024.4004</ele>
        <time>2025-09-13T13:22:24+02:00</time>
      </trkpt>
      <trkpt lat="42.77328" lon="1.35217">
        <ele>1024.4004</ele>
        <time>2025-09-13T13:22:28+02:00</time>
      </trkpt>
      <trkpt lat="42.77328" lon="1.35218">
        <ele>1024</ele>
        <time>2025-09-13T13:22:30+02:00</time>
      </trkpt>
      <trkpt lat="42.77328" lon="1.35218">
        <ele>1024</ele>
        <time>2025-09-13T13:22:34+02:00</time>
      </trkpt>
      <trkpt lat="42.77328" lon="1.35218">
        <ele>1024</ele>
        <time>2025-09-13T13:22:35+02:00</time>
      </trkpt>
      <trkpt lat="42.77328" lon="1.35218">
        <ele>1024</ele>
        <time>2025-09-13T13:22:39+02:00</time>
      </trkpt>
      <trkpt lat="42.77328" lon="1.35218">
        <ele>1024</ele>
        <time>2025-09-13T13:22:40+02:00</time>
      </trkpt>
      <trkpt lat="42.77326" lon="1.3522">
        <ele>1024</ele>
        <time>2025-09-13T13:22:44+02:00</time>
      </trkpt>
      <trkpt lat="42.77325" lon="1.35221">
        <ele>1024</ele>
        <time>2025-09-13T13:22:45+02:00</time>
      </trkpt>
      <trkpt lat="42.77322" lon="1.35224">
        <ele>1025.7002</ele>
        <time>2025-09-13T13:22:49+02:00</time>
      </trkpt>
      <trkpt lat="42.77322" lon="1.35225">
        <ele>1025.7002</ele>
        <time>2025-09-13T13:22:50+02:00</time>
      </trkpt>
      <trkpt lat="42.77319" lon="1.35227">
        <ele>1025.4004</ele>
        <time>2025-09-13T13:22:54+02:00</time>
      </trkpt>
      <trkpt lat="42.77318" lon="1.35227">
        <ele>1025.4004</ele>
        <time>2025-09-13T13:22:55+02:00</time>
      </trkpt>
      <trkpt lat="42.77316" lon="1.35229">
        <ele>1026.9004</ele>
        <time>2025-09-13T13:22:59+02:00</time>
      </trkpt>
      <trkpt lat="42.77315" lon="1.3523">
        <ele>1026.9004</ele>
        <time>2025-09-13T13:23:00+02:00</time>
      </trkpt>
      <trkpt lat="42.77312" lon="1.35232">
        <ele>1026.9004</ele>
        <time>2025-09-13T13:23:04+02:00</time>
      </trkpt>
      <trkpt lat="42.77311" lon="1.35232">
        <ele>1026.9004</ele>
        <time>2025-09-13T13:23:05+02:00</time>
      </trkpt>
      <trkpt lat="42.77309" lon="1.35233">
        <ele>1028.2998</ele>
        <time>2025-09-13T13:23:09+02:00</time>
      </trkpt>
      <trkpt lat="42.77309" lon="1.35233">
        <ele>1028.2998</ele>
        <time>2025-09-13T13:23:10+02:00</time>
      </trkpt>
      <trkpt lat="42.77307" lon="1.35234">
        <ele>1028.2998</ele>
        <time>2025-09-13T13:23:14+02:00</time>
      </trkpt>
      <trkpt lat="42.77307" lon="1.35235">
        <ele>1028.2998</ele>
        <time>2025-09-13T13:23:15+02:00</time>
      </trkpt>
      <trkpt lat="42.77304" lon="1.35236">
        <ele>1028</ele>
        <time>2025-09-13T13:23:19+02:00</time>
      </trkpt>
      <trkpt lat="42.77304" lon="1.35237">
        <ele>1028</ele>
        <time>2025-09-13T13:23:20+02:00</time>
      </trkpt>
      <trkpt lat="42.77302" lon="1.3524">
        <ele>1029.4004</ele>
        <time>2025-09-13T13:23:24+02:00</time>
      </trkpt>
      <trkpt lat="42.77301" lon="1.35241">
        <ele>1029.4004</ele>
        <time>2025-09-13T13:23:25+02:00</time>
      </trkpt>
      <trkpt lat="42.77298" lon="1.35245">
        <ele>1029.4004</ele>
        <time>2025-09-13T13:23:29+02:00</time>
      </trkpt>
      <trkpt lat="42.77298" lon="1.35246">
        <ele>1029.4004</ele>
        <time>2025-09-13T13:23:30+02:00</time>
      </trkpt>
      <trkpt lat="42.77296" lon="1.3525">
        <ele>1030.6006</ele>
        <time>2025-09-13T13:23:34+02:00</time>
      </trkpt>
      <trkpt lat="42.77296" lon="1.35252">
        <ele>1030.6006</ele>
        <time>2025-09-13T13:23:35+02:00</time>
      </trkpt>
      <trkpt lat="42.77295" lon="1.35257">
        <ele>1030.9004</ele>
        <time>2025-09-13T13:23:39+02:00</time>
      </trkpt>
      <trkpt lat="42.77294" lon="1.35258">
        <ele>1030.9004</ele>
        <time>2025-09-13T13:23:40+02:00</time>
      </trkpt>
      <trkpt lat="42.77292" lon="1.35262">
        <ele>1031.5</ele>
        <time>2025-09-13T13:23:44+02:00</time>
      </trkpt>
      <trkpt lat="42.77292" lon="1.35263">
        <ele>1031.5</ele>
        <time>2025-09-13T13:23:45+02:00</time>
      </trkpt>
      <trkpt lat="42.77291" lon="1.35266">
        <ele>1031.5</ele>
        <time>2025-09-13T13:23:49+02:00</time>
      </trkpt>
      <trkpt lat="42.77291" lon="1.35267">
        <ele>1031.5</ele>
        <time>2025-09-13T13:23:50+02:00</time>
      </trkpt>
      <trkpt lat="42.7729" lon="1.3527">
        <ele>1033.2998</ele>
        <time>2025-09-13T13:23:54+02:00</time>
      </trkpt>
      <trkpt lat="42.7729" lon="1.35271">
        <ele>1033.2998</ele>
        <time>2025-09-13T13:23:55+02:00</time>
      </trkpt>
      <trkpt lat="42.77288" lon="1.35273">
        <ele>1033.2998</ele>
        <time>2025-09-13T13:23:59+02:00</time>
      </trkpt>
      <trkpt lat="42.77288" lon="1.35274">
        <ele>1033.2998</ele>
        <time>2025-09-13T13:24:00+02:00</time>
      </trkpt>
      <trkpt lat="42.77286" lon="1.35276">
        <ele>1033.2998</ele>
        <time>2025-09-13T13:24:04+02:00</time>
      </trkpt>
      <trkpt lat="42.77285" lon="1.35276">
        <ele>1033.2998</ele>
        <time>2025-09-13T13:24:05+02:00</time>
      </trkpt>
      <trkpt lat="42.77284" lon="1.35277">
        <ele>1034.2998</ele>
        <time>2025-09-13T13:24:09+02:00</time>
      </trkpt>
      <trkpt lat="42.77284" lon="1.35277">
        <ele>1034.2998</ele>
        <time>2025-09-13T13:24:10+02:00</time>
      </trkpt>
      <trkpt lat="42.77284" lon="1.35278">
        <ele>1034.2998</ele>
        <time>2025-09-13T13:24:14+02:00</time>
      </trkpt>
      <trkpt lat="42.77283" lon="1.35278">
        <ele>1034.7998</ele>
        <time>2025-09-13T13:24:15+02:00</time>
      </trkpt>
      <trkpt lat="42.77281" lon="1.3528">
        <ele>1034.7998</ele>
        <time>2025-09-13T13:24:19+02:00</time>
      </trkpt>
      <trkpt lat="42.7728" lon="1.35281">
        <ele>1034.7998</ele>
        <time>2025-09-13T13:24:20+02:00</time>
      </trkpt>
      <trkpt lat="42.77277" lon="1.35282">
        <ele>1035.9004</ele>
        <time>2025-09-13T13:24:24+02:00</time>
      </trkpt>
      <trkpt lat="42.77276" lon="1.35282">
        <ele>1035.9004</ele>
        <time>2025-09-13T13:24:25+02:00</time>
      </trkpt>
      <trkpt lat="42.77274" lon="1.35283">
        <ele>1035.9004</ele>
        <time>2025-09-13T13:24:29+02:00</time>
      </trkpt>
      <trkpt lat="42.77274" lon="1.35283">
        <ele>1035.9004</ele>
        <time>2025-09-13T13:24:30+02:00</time>
      </trkpt>
      <trkpt lat="42.77274" lon="1.35284">
        <ele>1035.9004</ele>
        <time>2025-09-13T13:24:34+02:00</time>
      </trkpt>
      <trkpt lat="42.77273" lon="1.35284">
        <ele>1035.9004</ele>
        <time>2025-09-13T13:24:35+02:00</time>
      </trkpt>
      <trkpt lat="42.77272" lon="1.35285">
        <ele>1037.1006</ele>
        <time>2025-09-13T13:24:39+02:00</time>
      </trkpt>
      <trkpt lat="42.77271" lon="1.35285">
        <ele>1037.1006</ele>
        <time>2025-09-13T13:24:40+02:00</time>
      </trkpt>
      <trkpt lat="42.77267" lon="1.35288">
        <ele>1037.2998</ele>
        <time>2025-09-13T13:24:44+02:00</time>
      </trkpt>
      <trkpt lat="42.77266" lon="1.35289">
        <ele>1037.2998</ele>
        <time>2025-09-13T13:24:45+02:00</time>
      </trkpt>
      <trkpt lat="42.77263" lon="1.3529">
        <ele>1038.5</ele>
        <time>2025-09-13T13:24:49+02:00</time>
      </trkpt>
      <trkpt lat="42.77262" lon="1.35291">
        <ele>1038.5</ele>
        <time>2025-09-13T13:24:50+02:00</time>
      </trkpt>
      <trkpt lat="42.7726" lon="1.35292">
        <ele>1039.7002</ele>
        <time>2025-09-13T13:24:54+02:00</time>
      </trkpt>
      <trkpt lat="42.7726" lon="1.35292">
        <ele>1039.7002</ele>
        <time>2025-09-13T13:24:55+02:00</time>
      </trkpt>
      <trkpt lat="42.7726" lon="1.35291">
        <ele>1039.7002</ele>
        <time>2025-09-13T13:24:59+02:00</time>
      </trkpt>
      <trkpt lat="42.7726" lon="1.35291">
        <ele>1039.7002</ele>
        <time>2025-09-13T13:25:00+02:00</time>
      </trkpt>
      <trkpt lat="42.7726" lon="1.3529">
        <ele>1038.5</ele>
        <time>2025-09-13T13:25:04+02:00</time>
      </trkpt>
      <trkpt lat="42.7726" lon="1.3529">
        <ele>1039.7002</ele>
        <time>2025-09-13T13:25:05+02:00</time>
      </trkpt>
      <trkpt lat="42.77259" lon="1.35293">
        <ele>1039.7002</ele>
        <time>2025-09-13T13:25:09+02:00</time>
      </trkpt>
      <trkpt lat="42.77258" lon="1.35294">
        <ele>1039.7002</ele>
        <time>2025-09-13T13:25:10+02:00</time>
      </trkpt>
      <trkpt lat="42.77256" lon="1.35295">
        <ele>1039.7998</ele>
        <time>2025-09-13T13:25:14+02:00</time>
      </trkpt>
      <trkpt lat="42.77256" lon="1.35296">
        <ele>1039.7998</ele>
        <time>2025-09-13T13:25:15+02:00</time>
      </trkpt>
      <trkpt lat="42.77253" lon="1.35296">
        <ele>1041</ele>
        <time>2025-09-13T13:25:19+02:00</time>
      </trkpt>
      <trkpt lat="42.77253" lon="1.35296">
        <ele>1041</ele>
        <time>2025-09-13T13:25:20+02:00</time>
      </trkpt>
      <trkpt lat="42.77251" lon="1.35296">
        <ele>1041</ele>
        <time>2025-09-13T13:25:24+02:00</time>
      </trkpt>
      <trkpt lat="42.77251" lon="1.35297">
        <ele>1041</ele>
        <time>2025-09-13T13:25:25+02:00</time>
      </trkpt>
      <trkpt lat="42.77249" lon="1.35298">
        <ele>1041</ele>
        <time>2025-09-13T13:25:29+02:00</time>
      </trkpt>
      <trkpt lat="42.77249" lon="1.35299">
        <ele>1041</ele>
        <time>2025-09-13T13:25:30+02:00</time>
      </trkpt>
      <trkpt lat="42.77249" lon="1.35301">
        <ele>1041</ele>
        <time>2025-09-13T13:25:34+02:00</time>
      </trkpt>
      <trkpt lat="42.77249" lon="1.35302">
        <ele>1041</ele>
        <time>2025-09-13T13:25:35+02:00</time>
      </trkpt>
      <trkpt lat="42.77248" lon="1.35304">
        <ele>1041.2002</ele>
        <time>2025-09-13T13:25:39+02:00</time>
      </trkpt>
      <trkpt lat="42.77247" lon="1.35304">
        <ele>1042.2998</ele>
        <time>2025-09-13T13:25:40+02:00</time>
      </trkpt>
      <trkpt lat="42.77245" lon="1.35306">
        <ele>1042.2998</ele>
        <time>2025-09-13T13:25:44+02:00</time>
      </trkpt>
      <trkpt lat="42.77245" lon="1.35307">
        <ele>1042.2998</ele>
        <time>2025-09-13T13:25:45+02:00</time>
      </trkpt>
      <trkpt lat="42.77242" lon="1.35308">
        <ele>1042.2998</ele>
        <time>2025-09-13T13:25:49+02:00</time>
      </trkpt>
      <trkpt lat="42.77241" lon="1.35308">
        <ele>1042.2998</ele>
        <time>2025-09-13T13:25:50+02:00</time>
      </trkpt>
      <trkpt lat="42.77239" lon="1.35308">
        <ele>1043.5</ele>
        <time>2025-09-13T13:25:54+02:00</time>
      </trkpt>
      <trkpt lat="42.77239" lon="1.35309">
        <ele>1043.5</ele>
        <time>2025-09-13T13:25:55+02:00</time>
      </trkpt>
      <trkpt lat="42.77237" lon="1.35313">
        <ele>1043.9004</ele>
        <time>2025-09-13T13:25:59+02:00</time>
      </trkpt>
      <trkpt lat="42.77236" lon="1.35314">
        <ele>1043.9004</ele>
        <time>2025-09-13T13:26:00+02:00</time>
      </trkpt>
      <trkpt lat="42.77234" lon="1.35316">
        <ele>1044.9004</ele>
        <time>2025-09-13T13:26:04+02:00</time>
      </trkpt>
      <trkpt lat="42.77234" lon="1.35317">
        <ele>1044.9004</ele>
        <time>2025-09-13T13:26:05+02:00</time>
      </trkpt>
      <trkpt lat="42.77234" lon="1.35318">
        <ele>1044.9004</ele>
        <time>2025-09-13T13:26:09+02:00</time>
      </trkpt>
      <trkpt lat="42.77234" lon="1.35318">
        <ele>1044.9004</ele>
        <time>2025-09-13T13:26:10+02:00</time>
      </trkpt>
      <trkpt lat="42.77233" lon="1.35319">
        <ele>1044.9004</ele>
        <time>2025-09-13T13:26:14+02:00</time>
      </trkpt>
      <trkpt lat="42.77232" lon="1.35319">
        <ele>1044.9004</ele>
        <time>2025-09-13T13:26:15+02:00</time>
      </trkpt>
      <trkpt lat="42.77229" lon="1.35322">
        <ele>1045.6006</ele>
        <time>2025-09-13T13:26:19+02:00</time>
      </trkpt>
      <trkpt lat="42.77228" lon="1.35323">
        <ele>1046.5</ele>
        <time>2025-09-13T13:26:20+02:00</time>
      </trkpt>
      <trkpt lat="42.77224" lon="1.35325">
        <ele>1046.5</ele>
        <time>2025-09-13T13:26:24+02:00</time>
      </trkpt>
      <trkpt lat="42.77224" lon="1.35326">
        <ele>1046.5</ele>
        <time>2025-09-13T13:26:25+02:00</time>
      </trkpt>
      <trkpt lat="42.7722" lon="1.35328">
        <ele>1047.4004</ele>
        <time>2025-09-13T13:26:29+02:00</time>
      </trkpt>
      <trkpt lat="42.77219" lon="1.35329">
        <ele>1047.4004</ele>
        <time>2025-09-13T13:26:30+02:00</time>
      </trkpt>
      <trkpt lat="42.77216" lon="1.3533">
        <ele>1048.2998</ele>
        <time>2025-09-13T13:26:34+02:00</time>
      </trkpt>
      <trkpt lat="42.77215" lon="1.3533">
        <ele>1049.1006</ele>
        <time>2025-09-13T13:26:35+02:00</time>
      </trkpt>
      <trkpt lat="42.77213" lon="1.35329">
        <ele>1048.2002</ele>
        <time>2025-09-13T13:26:39+02:00</time>
      </trkpt>
      <trkpt lat="42.77212" lon="1.35329">
        <ele>1048.2002</ele>
        <time>2025-09-13T13:26:40+02:00</time>
      </trkpt>
      <trkpt lat="42.7721" lon="1.35329">
        <ele>1048.2002</ele>
        <time>2025-09-13T13:26:44+02:00</time>
      </trkpt>
      <trkpt lat="42.7721" lon="1.35329">
        <ele>1048.2002</ele>
        <time>2025-09-13T13:26:45+02:00</time>
      </trkpt>
      <trkpt lat="42.77211" lon="1.35328">
        <ele>1048.2002</ele>
        <time>2025-09-13T13:26:49+02:00</time>
      </trkpt>
      <trkpt lat="42.77211" lon="1.35328">
        <ele>1048.2002</ele>
        <time>2025-09-13T13:26:50+02:00</time>
      </trkpt>
      <trkpt lat="42.77211" lon="1.35327">
        <ele>1048.2002</ele>
        <time>2025-09-13T13:26:54+02:00</time>
      </trkpt>
      <trkpt lat="42.77211" lon="1.35327">
        <ele>1048.2002</ele>
        <time>2025-09-13T13:26:55+02:00</time>
      </trkpt>
      <trkpt lat="42.77211" lon="1.35327">
        <ele>1048.2002</ele>
        <time>2025-09-13T13:26:59+02:00</time>
      </trkpt>
      <trkpt lat="42.77211" lon="1.35327">
        <ele>1048.2002</ele>
        <time>2025-09-13T13:27:00+02:00</time>
      </trkpt>
      <trkpt lat="42.77211" lon="1.35327">
        <ele>1048.2002</ele>
        <time>2025-09-13T13:27:04+02:00</time>
      </trkpt>
      <trkpt lat="42.77211" lon="1.35327">
        <ele>1048.2002</ele>
        <time>2025-09-13T13:27:05+02:00</time>
      </trkpt>
      <trkpt lat="42.77211" lon="1.35327">
        <ele>1048.2002</ele>
        <time>2025-09-13T13:27:09+02:00</time>
      </trkpt>
      <trkpt lat="42.77211" lon="1.35327">
        <ele>1048.2002</ele>
        <time>2025-09-13T13:27:10+02:00</time>
      </trkpt>
      <trkpt lat="42.77212" lon="1.35327">
        <ele>1048.2002</ele>
        <time>2025-09-13T13:27:14+02:00</time>
      </trkpt>
      <trkpt lat="42.77212" lon="1.35327">
        <ele>1048.2002</ele>
        <time>2025-09-13T13:27:15+02:00</time>
      </trkpt>
      <trkpt lat="42.77211" lon="1.35326">
        <ele>1048.2002</ele>
        <time>2025-09-13T13:27:19+02:00</time>
      </trkpt>
      <trkpt lat="42.77211" lon="1.35326">
        <ele>1048.2002</ele>
        <time>2025-09-13T13:27:20+02:00</time>
      </trkpt>
      <trkpt lat="42.77211" lon="1.35326">
        <ele>1048.2002</ele>
        <time>2025-09-13T13:27:24+02:00</time>
      </trkpt>
      <trkpt lat="42.77211" lon="1.35326">
        <ele>1048.2002</ele>
        <time>2025-09-13T13:27:25+02:00</time>
      </trkpt>
      <trkpt lat="42.77212" lon="1.35326">
        <ele>1048.2002</ele>
        <time>2025-09-13T13:27:29+02:00</time>
      </trkpt>
      <trkpt lat="42.77212" lon="1.35326">
        <ele>1048.2002</ele>
        <time>2025-09-13T13:27:30+02:00</time>
      </trkpt>
      <trkpt lat="42.77214" lon="1.35327">
        <ele>1048.2002</ele>
        <time>2025-09-13T13:27:34+02:00</time>
      </trkpt>
      <trkpt lat="42.77215" lon="1.35326">
        <ele>1048.2002</ele>
        <time>2025-09-13T13:27:35+02:00</time>
      </trkpt>
      <trkpt lat="42.77218" lon="1.35327">
        <ele>1047.4004</ele>
        <time>2025-09-13T13:27:39+02:00</time>
      </trkpt>
      <trkpt lat="42.77219" lon="1.35327">
        <ele>1047.4004</ele>
        <time>2025-09-13T13:27:40+02:00</time>
      </trkpt>
      <trkpt lat="42.77219" lon="1.35327">
        <ele>1047.4004</ele>
        <time>2025-09-13T13:27:44+02:00</time>
      </trkpt>
      <trkpt lat="42.77219" lon="1.35326">
        <ele>1047.4004</ele>
        <time>2025-09-13T13:27:45+02:00</time>
      </trkpt>
      <trkpt lat="42.77218" lon="1.35326">
        <ele>1047.4004</ele>
        <time>2025-09-13T13:27:49+02:00</time>
      </trkpt>
      <trkpt lat="42.77218" lon="1.35326">
        <ele>1047.4004</ele>
        <time>2025-09-13T13:27:50+02:00</time>
      </trkpt>
      <trkpt lat="42.77218" lon="1.35326">
        <ele>1047.4004</ele>
        <time>2025-09-13T13:27:54+02:00</time>
      </trkpt>
      <trkpt lat="42.77218" lon="1.35326">
        <ele>1047.4004</ele>
        <time>2025-09-13T13:27:55+02:00</time>
      </trkpt>
      <trkpt lat="42.77217" lon="1.35325">
        <ele>1047.4004</ele>
        <time>2025-09-13T13:27:59+02:00</time>
      </trkpt>
      <trkpt lat="42.77217" lon="1.35324">
        <ele>1047.4004</ele>
        <time>2025-09-13T13:28:00+02:00</time>
      </trkpt>
      <trkpt lat="42.77217" lon="1.35324">
        <ele>1047.4004</ele>
        <time>2025-09-13T13:28:04+02:00</time>
      </trkpt>
      <trkpt lat="42.77217" lon="1.35324">
        <ele>1047.4004</ele>
        <time>2025-09-13T13:28:05+02:00</time>
      </trkpt>
      <trkpt lat="42.77217" lon="1.35324">
        <ele>1047.4004</ele>
        <time>2025-09-13T13:28:09+02:00</time>
      </trkpt>
      <trkpt lat="42.77217" lon="1.35324">
        <ele>1047.4004</ele>
        <time>2025-09-13T13:28:10+02:00</time>
      </trkpt>
      <trkpt lat="42.77217" lon="1.35325">
        <ele>1047.4004</ele>
        <time>2025-09-13T13:28:14+02:00</time>
      </trkpt>
      <trkpt lat="42.77217" lon="1.35325">
        <ele>1047.4004</ele>
        <time>2025-09-13T13:28:15+02:00</time>
      </trkpt>
      <trkpt lat="42.77217" lon="1.35325">
        <ele>1047.4004</ele>
        <time>2025-09-13T13:28:19+02:00</time>
      </trkpt>
      <trkpt lat="42.77217" lon="1.35325">
        <ele>1047.4004</ele>
        <time>2025-09-13T13:28:20+02:00</time>
      </trkpt>
      <trkpt lat="42.77217" lon="1.35325">
        <ele>1047.4004</ele>
        <time>2025-09-13T13:28:24+02:00</time>
      </trkpt>
      <trkpt lat="42.77217" lon="1.35325">
        <ele>1047.4004</ele>
        <time>2025-09-13T13:28:25+02:00</time>
      </trkpt>
      <trkpt lat="42.77217" lon="1.35324">
        <ele>1047.4004</ele>
        <time>2025-09-13T13:28:29+02:00</time>
      </trkpt>
      <trkpt lat="42.77217" lon="1.35324">
        <ele>1047.4004</ele>
        <time>2025-09-13T13:28:30+02:00</time>
      </trkpt>
      <trkpt lat="42.77217" lon="1.35324">
        <ele>1047.4004</ele>
        <time>2025-09-13T13:28:34+02:00</time>
      </trkpt>
      <trkpt lat="42.77217" lon="1.35324">
        <ele>1047.4004</ele>
        <time>2025-09-13T13:28:35+02:00</time>
      </trkpt>
      <trkpt lat="42.77217" lon="1.35324">
        <ele>1047.4004</ele>
        <time>2025-09-13T13:28:39+02:00</time>
      </trkpt>
      <trkpt lat="42.77217" lon="1.35324">
        <ele>1047.4004</ele>
        <time>2025-09-13T13:28:40+02:00</time>
      </trkpt>
      <trkpt lat="42.77216" lon="1.35324">
        <ele>1047.4004</ele>
        <time>2025-09-13T13:28:44+02:00</time>
      </trkpt>
      <trkpt lat="42.77216" lon="1.35324">
        <ele>1047.4004</ele>
        <time>2025-09-13T13:28:45+02:00</time>
      </trkpt>
      <trkpt lat="42.77216" lon="1.35324">
        <ele>1047.4004</ele>
        <time>2025-09-13T13:28:49+02:00</time>
      </trkpt>
      <trkpt lat="42.77216" lon="1.35324">
        <ele>1047.4004</ele>
        <time>2025-09-13T13:28:50+02:00</time>
      </trkpt>
      <trkpt lat="42.77216" lon="1.35324">
        <ele>1047.4004</ele>
        <time>2025-09-13T13:28:54+02:00</time>
      </trkpt>
      <trkpt lat="42.77216" lon="1.35324">
        <ele>1047.4004</ele>
        <time>2025-09-13T13:28:55+02:00</time>
      </trkpt>
      <trkpt lat="42.77216" lon="1.35324">
        <ele>1047.4004</ele>
        <time>2025-09-13T13:28:59+02:00</time>
      </trkpt>
      <trkpt lat="42.77216" lon="1.35324">
        <ele>1047.4004</ele>
        <time>2025-09-13T13:29:00+02:00</time>
      </trkpt>
      <trkpt lat="42.77216" lon="1.35324">
        <ele>1047.4004</ele>
        <time>2025-09-13T13:29:04+02:00</time>
      </trkpt>
      <trkpt lat="42.77216" lon="1.35324">
        <ele>1047.4004</ele>
        <time>2025-09-13T13:29:05+02:00</time>
      </trkpt>
      <trkpt lat="42.77216" lon="1.35324">
        <ele>1047.4004</ele>
        <time>2025-09-13T13:29:09+02:00</time>
      </trkpt>
      <trkpt lat="42.77216" lon="1.35324">
        <ele>1047.4004</ele>
        <time>2025-09-13T13:29:10+02:00</time>
      </trkpt>
      <trkpt lat="42.77216" lon="1.35324">
        <ele>1047.4004</ele>
        <time>2025-09-13T13:29:14+02:00</time>
      </trkpt>
      <trkpt lat="42.77216" lon="1.35324">
        <ele>1047.4004</ele>
        <time>2025-09-13T13:29:15+02:00</time>
      </trkpt>
      <trkpt lat="42.77216" lon="1.35324">
        <ele>1047.4004</ele>
        <time>2025-09-13T13:29:19+02:00</time>
      </trkpt>
      <trkpt lat="42.77216" lon="1.35324">
        <ele>1047.4004</ele>
        <time>2025-09-13T13:29:20+02:00</time>
      </trkpt>
      <trkpt lat="42.77218" lon="1.35324">
        <ele>1047.4004</ele>
        <time>2025-09-13T13:29:24+02:00</time>
      </trkpt>
      <trkpt lat="42.77218" lon="1.35325">
        <ele>1047.4004</ele>
        <time>2025-09-13T13:29:25+02:00</time>
      </trkpt>
      <trkpt lat="42.77218" lon="1.35325">
        <ele>1047.4004</ele>
        <time>2025-09-13T13:29:29+02:00</time>
      </trkpt>
      <trkpt lat="42.77218" lon="1.35325">
        <ele>1047.4004</ele>
        <time>2025-09-13T13:29:30+02:00</time>
      </trkpt>
      <trkpt lat="42.77218" lon="1.35325">
        <ele>1047.4004</ele>
        <time>2025-09-13T13:29:34+02:00</time>
      </trkpt>
      <trkpt lat="42.77218" lon="1.35325">
        <ele>1047.4004</ele>
        <time>2025-09-13T13:29:35+02:00</time>
      </trkpt>
      <trkpt lat="42.77218" lon="1.35325">
        <ele>1047.4004</ele>
        <time>2025-09-13T13:29:39+02:00</time>
      </trkpt>
      <trkpt lat="42.77219" lon="1.35325">
        <ele>1047.4004</ele>
        <time>2025-09-13T13:29:40+02:00</time>
      </trkpt>
      <trkpt lat="42.77219" lon="1.35325">
        <ele>1047.4004</ele>
        <time>2025-09-13T13:29:44+02:00</time>
      </trkpt>
      <trkpt lat="42.77219" lon="1.35325">
        <ele>1047.4004</ele>
        <time>2025-09-13T13:29:45+02:00</time>
      </trkpt>
      <trkpt lat="42.77219" lon="1.35325">
        <ele>1047.4004</ele>
        <time>2025-09-13T13:29:49+02:00</time>
      </trkpt>
      <trkpt lat="42.77219" lon="1.35325">
        <ele>1047.4004</ele>
        <time>2025-09-13T13:29:50+02:00</time>
      </trkpt>
      <trkpt lat="42.77219" lon="1.35325">
        <ele>1047.4004</ele>
        <time>2025-09-13T13:29:54+02:00</time>
      </trkpt>
      <trkpt lat="42.77219" lon="1.35325">
        <ele>1047.4004</ele>
        <time>2025-09-13T13:29:55+02:00</time>
      </trkpt>
      <trkpt lat="42.77219" lon="1.35324">
        <ele>1047.4004</ele>
        <time>2025-09-13T13:29:59+02:00</time>
      </trkpt>
      <trkpt lat="42.77219" lon="1.35324">
        <ele>1047.4004</ele>
        <time>2025-09-13T13:30:00+02:00</time>
      </trkpt>
      <trkpt lat="42.77217" lon="1.35323">
        <ele>1047.4004</ele>
        <time>2025-09-13T13:30:04+02:00</time>
      </trkpt>
      <trkpt lat="42.77216" lon="1.35322">
        <ele>1047.4004</ele>
        <time>2025-09-13T13:30:05+02:00</time>
      </trkpt>
      <trkpt lat="42.77214" lon="1.3532">
        <ele>1047.9004</ele>
        <time>2025-09-13T13:30:09+02:00</time>
      </trkpt>
      <trkpt lat="42.77214" lon="1.35319">
        <ele>1047.9004</ele>
        <time>2025-09-13T13:30:10+02:00</time>
      </trkpt>
      <trkpt lat="42.77213" lon="1.35318">
        <ele>1047.9004</ele>
        <time>2025-09-13T13:30:14+02:00</time>
      </trkpt>
      <trkpt lat="42.77213" lon="1.35318">
        <ele>1047.9004</ele>
        <time>2025-09-13T13:30:15+02:00</time>
      </trkpt>
      <trkpt lat="42.7721" lon="1.3532">
        <ele>1047.9004</ele>
        <time>2025-09-13T13:30:19+02:00</time>
      </trkpt>
      <trkpt lat="42.77209" lon="1.35321">
        <ele>1048.2002</ele>
        <time>2025-09-13T13:30:20+02:00</time>
      </trkpt>
      <trkpt lat="42.77207" lon="1.35326">
        <ele>1049</ele>
        <time>2025-09-13T13:30:24+02:00</time>
      </trkpt>
      <trkpt lat="42.77206" lon="1.35327">
        <ele>1049</ele>
        <time>2025-09-13T13:30:25+02:00</time>
      </trkpt>
      <trkpt lat="42.77203" lon="1.35331">
        <ele>1050.4004</ele>
        <time>2025-09-13T13:30:29+02:00</time>
      </trkpt>
      <trkpt lat="42.77202" lon="1.35332">
        <ele>1050.4004</ele>
        <time>2025-09-13T13:30:30+02:00</time>
      </trkpt>
      <trkpt lat="42.77198" lon="1.35334">
        <ele>1050.4004</ele>
        <time>2025-09-13T13:30:34+02:00</time>
      </trkpt>
      <trkpt lat="42.77197" lon="1.35334">
        <ele>1050.4004</ele>
        <time>2025-09-13T13:30:35+02:00</time>
      </trkpt>
      <trkpt lat="42.77194" lon="1.35334">
        <ele>1051.1006</ele>
        <time>2025-09-13T13:30:39+02:00</time>
      </trkpt>
      <trkpt lat="42.77193" lon="1.35333">
        <ele>1051.1006</ele>
        <time>2025-09-13T13:30:40+02:00</time>
      </trkpt>
      <trkpt lat="42.7719" lon="1.35334">
        <ele>1051.7002</ele>
        <time>2025-09-13T13:30:44+02:00</time>
      </trkpt>
      <trkpt lat="42.77189" lon="1.35334">
        <ele>1051.7002</ele>
        <time>2025-09-13T13:30:45+02:00</time>
      </trkpt>
      <trkpt lat="42.77186" lon="1.35335">
        <ele>1051.7002</ele>
        <time>2025-09-13T13:30:49+02:00</time>
      </trkpt>
      <trkpt lat="42.77186" lon="1.35335">
        <ele>1051.7002</ele>
        <time>2025-09-13T13:30:50+02:00</time>
      </trkpt>
      <trkpt lat="42.77182" lon="1.35337">
        <ele>1052.4004</ele>
        <time>2025-09-13T13:30:54+02:00</time>
      </trkpt>
      <trkpt lat="42.77181" lon="1.35337">
        <ele>1052.4004</ele>
        <time>2025-09-13T13:30:55+02:00</time>
      </trkpt>
      <trkpt lat="42.7718" lon="1.35341">
        <ele>1053.1006</ele>
        <time>2025-09-13T13:30:59+02:00</time>
      </trkpt>
      <trkpt lat="42.7718" lon="1.35341">
        <ele>1053.1006</ele>
        <time>2025-09-13T13:31:00+02:00</time>
      </trkpt>
      <trkpt lat="42.7718" lon="1.35341">
        <ele>1053.1006</ele>
        <time>2025-09-13T13:31:04+02:00</time>
      </trkpt>
      <trkpt lat="42.7718" lon="1.35341">
        <ele>1053.1006</ele>
        <time>2025-09-13T13:31:05+02:00</time>
      </trkpt>
      <trkpt lat="42.7718" lon="1.35342">
        <ele>1053.1006</ele>
        <time>2025-09-13T13:31:09+02:00</time>
      </trkpt>
      <trkpt lat="42.7718" lon="1.35342">
        <ele>1053.1006</ele>
        <time>2025-09-13T13:31:10+02:00</time>
      </trkpt>
      <trkpt lat="42.7718" lon="1.35342">
        <ele>1053.1006</ele>
        <time>2025-09-13T13:31:14+02:00</time>
      </trkpt>
      <trkpt lat="42.7718" lon="1.35343">
        <ele>1053.1006</ele>
        <time>2025-09-13T13:31:15+02:00</time>
      </trkpt>
      <trkpt lat="42.7718" lon="1.35343">
        <ele>1053.1006</ele>
        <time>2025-09-13T13:31:19+02:00</time>
      </trkpt>
      <trkpt lat="42.7718" lon="1.35341">
        <ele>1053.1006</ele>
        <time>2025-09-13T13:31:20+02:00</time>
      </trkpt>
      <trkpt lat="42.77178" lon="1.35341">
        <ele>1053.6006</ele>
        <time>2025-09-13T13:31:24+02:00</time>
      </trkpt>
      <trkpt lat="42.77176" lon="1.3534">
        <ele>1053.6006</ele>
        <time>2025-09-13T13:31:25+02:00</time>
      </trkpt>
      <trkpt lat="42.77173" lon="1.35335">
        <ele>1053</ele>
        <time>2025-09-13T13:31:29+02:00</time>
      </trkpt>
      <trkpt lat="42.77172" lon="1.35334">
        <ele>1053</ele>
        <time>2025-09-13T13:31:30+02:00</time>
      </trkpt>
      <trkpt lat="42.77169" lon="1.3533">
        <ele>1053.5</ele>
        <time>2025-09-13T13:31:34+02:00</time>
      </trkpt>
      <trkpt lat="42.77169" lon="1.35329">
        <ele>1053.5</ele>
        <time>2025-09-13T13:31:35+02:00</time>
      </trkpt>
      <trkpt lat="42.77166" lon="1.35325">
        <ele>1053.5</ele>
        <time>2025-09-13T13:31:39+02:00</time>
      </trkpt>
      <trkpt lat="42.77165" lon="1.35324">
        <ele>1054</ele>
        <time>2025-09-13T13:31:40+02:00</time>
      </trkpt>
      <trkpt lat="42.77163" lon="1.35321">
        <ele>1054</ele>
        <time>2025-09-13T13:31:44+02:00</time>
      </trkpt>
      <trkpt lat="42.77162" lon="1.3532">
        <ele>1054.6006</ele>
        <time>2025-09-13T13:31:45+02:00</time>
      </trkpt>
      <trkpt lat="42.77159" lon="1.35319">
        <ele>1055</ele>
        <time>2025-09-13T13:31:49+02:00</time>
      </trkpt>
      <trkpt lat="42.77157" lon="1.35318">
        <ele>1055</ele>
        <time>2025-09-13T13:31:50+02:00</time>
      </trkpt>
      <trkpt lat="42.77152" lon="1.35319">
        <ele>1055.5</ele>
        <time>2025-09-13T13:31:54+02:00</time>
      </trkpt>
      <trkpt lat="42.77151" lon="1.35319">
        <ele>1055.5</ele>
        <time>2025-09-13T13:31:55+02:00</time>
      </trkpt>
      <trkpt lat="42.77148" lon="1.35321">
        <ele>1055.5</ele>
        <time>2025-09-13T13:31:59+02:00</time>
      </trkpt>
      <trkpt lat="42.77147" lon="1.35321">
        <ele>1054.5</ele>
        <time>2025-09-13T13:32:00+02:00</time>
      </trkpt>
      <trkpt lat="42.77144" lon="1.35322">
        <ele>1054.7002</ele>
        <time>2025-09-13T13:32:04+02:00</time>
      </trkpt>
      <trkpt lat="42.77144" lon="1.35323">
        <ele>1054.7002</ele>
        <time>2025-09-13T13:32:05+02:00</time>
      </trkpt>
      <trkpt lat="42.77143" lon="1.35325">
        <ele>1054.7002</ele>
        <time>2025-09-13T13:32:10+02:00</time>
      </trkpt>
      <trkpt lat="42.77143" lon="1.35325">
        <ele>1054.7002</ele>
        <time>2025-09-13T13:32:11+02:00</time>
      </trkpt>
      <trkpt lat="42.77142" lon="1.35325">
        <ele>1054.7002</ele>
        <time>2025-09-13T13:32:15+02:00</time>
      </trkpt>
      <trkpt lat="42.77141" lon="1.35326">
        <ele>1054.7002</ele>
        <time>2025-09-13T13:32:16+02:00</time>
      </trkpt>
      <trkpt lat="42.77136" lon="1.35329">
        <ele>1054.7998</ele>
        <time>2025-09-13T13:32:20+02:00</time>
      </trkpt>
      <trkpt lat="42.77136" lon="1.35329">
        <ele>1054.7998</ele>
        <time>2025-09-13T13:32:21+02:00</time>
      </trkpt>
      <trkpt lat="42.77137" lon="1.35329">
        <ele>1054.7998</ele>
        <time>2025-09-13T13:32:26+02:00</time>
      </trkpt>
      <trkpt lat="42.77137" lon="1.35329">
        <ele>1054.7998</ele>
        <time>2025-09-13T13:32:27+02:00</time>
      </trkpt>
      <trkpt lat="42.77135" lon="1.35329">
        <ele>1054.7998</ele>
        <time>2025-09-13T13:32:31+02:00</time>
      </trkpt>
      <trkpt lat="42.77134" lon="1.35329">
        <ele>1055</ele>
        <time>2025-09-13T13:32:32+02:00</time>
      </trkpt>
      <trkpt lat="42.77127" lon="1.35329">
        <ele>1055.5</ele>
        <time>2025-09-13T13:32:36+02:00</time>
      </trkpt>
      <trkpt lat="42.77126" lon="1.35329">
        <ele>1054.1006</ele>
        <time>2025-09-13T13:32:37+02:00</time>
      </trkpt>
      <trkpt lat="42.77123" lon="1.35334">
        <ele>1054.1006</ele>
        <time>2025-09-13T13:32:41+02:00</time>
      </trkpt>
      <trkpt lat="42.77122" lon="1.35335">
        <ele>1054.1006</ele>
        <time>2025-09-13T13:32:42+02:00</time>
      </trkpt>
      <trkpt lat="42.77119" lon="1.3534">
        <ele>1054.2002</ele>
        <time>2025-09-13T13:32:46+02:00</time>
      </trkpt>
      <trkpt lat="42.77119" lon="1.35341">
        <ele>1054.2002</ele>
        <time>2025-09-13T13:32:47+02:00</time>
      </trkpt>
      <trkpt lat="42.77117" lon="1.35345">
        <ele>1054.2002</ele>
        <time>2025-09-13T13:32:51+02:00</time>
      </trkpt>
      <trkpt lat="42.77116" lon="1.35346">
        <ele>1054.2002</ele>
        <time>2025-09-13T13:32:52+02:00</time>
      </trkpt>
      <trkpt lat="42.77113" lon="1.3535">
        <ele>1054.5</ele>
        <time>2025-09-13T13:32:56+02:00</time>
      </trkpt>
      <trkpt lat="42.77113" lon="1.35351">
        <ele>1054.5</ele>
        <time>2025-09-13T13:32:57+02:00</time>
      </trkpt>
      <trkpt lat="42.77111" lon="1.35355">
        <ele>1054.4004</ele>
        <time>2025-09-13T13:33:01+02:00</time>
      </trkpt>
      <trkpt lat="42.7711" lon="1.35356">
        <ele>1054.4004</ele>
        <time>2025-09-13T13:33:02+02:00</time>
      </trkpt>
      <trkpt lat="42.77108" lon="1.35361">
        <ele>1054.6006</ele>
        <time>2025-09-13T13:33:06+02:00</time>
      </trkpt>
      <trkpt lat="42.77107" lon="1.35363">
        <ele>1054.6006</ele>
        <time>2025-09-13T13:33:07+02:00</time>
      </trkpt>
      <trkpt lat="42.77105" lon="1.35367">
        <ele>1054.5</ele>
        <time>2025-09-13T13:33:11+02:00</time>
      </trkpt>
      <trkpt lat="42.77105" lon="1.35367">
        <ele>1054.5</ele>
        <time>2025-09-13T13:33:12+02:00</time>
      </trkpt>
      <trkpt lat="42.77102" lon="1.35371">
        <ele>1054.5</ele>
        <time>2025-09-13T13:33:16+02:00</time>
      </trkpt>
      <trkpt lat="42.77101" lon="1.35371">
        <ele>1054.4004</ele>
        <time>2025-09-13T13:33:17+02:00</time>
      </trkpt>
      <trkpt lat="42.77096" lon="1.3537">
        <ele>1054.4004</ele>
        <time>2025-09-13T13:33:21+02:00</time>
      </trkpt>
      <trkpt lat="42.77095" lon="1.35369">
        <ele>1054.2002</ele>
        <time>2025-09-13T13:33:22+02:00</time>
      </trkpt>
      <trkpt lat="42.77091" lon="1.35366">
        <ele>1054.2002</ele>
        <time>2025-09-13T13:33:26+02:00</time>
      </trkpt>
      <trkpt lat="42.7709" lon="1.35365">
        <ele>1054.2002</ele>
        <time>2025-09-13T13:33:27+02:00</time>
      </trkpt>
      <trkpt lat="42.77089" lon="1.35363">
        <ele>1055</ele>
        <time>2025-09-13T13:33:32+02:00</time>
      </trkpt>
      <trkpt lat="42.77089" lon="1.35364">
        <ele>1055</ele>
        <time>2025-09-13T13:33:33+02:00</time>
      </trkpt>
      <trkpt lat="42.77089" lon="1.35364">
        <ele>1054.2002</ele>
        <time>2025-09-13T13:33:37+02:00</time>
      </trkpt>
      <trkpt lat="42.77089" lon="1.35364">
        <ele>1054.2002</ele>
        <time>2025-09-13T13:33:38+02:00</time>
      </trkpt>
      <trkpt lat="42.77089" lon="1.35363">
        <ele>1055</ele>
        <time>2025-09-13T13:33:42+02:00</time>
      </trkpt>
      <trkpt lat="42.77089" lon="1.35363">
        <ele>1055</ele>
        <time>2025-09-13T13:33:43+02:00</time>
      </trkpt>
      <trkpt lat="42.77089" lon="1.35362">
        <ele>1055</ele>
        <time>2025-09-13T13:33:47+02:00</time>
      </trkpt>
      <trkpt lat="42.77089" lon="1.35362">
        <ele>1055</ele>
        <time>2025-09-13T13:33:48+02:00</time>
      </trkpt>
      <trkpt lat="42.77088" lon="1.35359">
        <ele>1055</ele>
        <time>2025-09-13T13:33:52+02:00</time>
      </trkpt>
      <trkpt lat="42.77087" lon="1.35359">
        <ele>1055</ele>
        <time>2025-09-13T13:33:53+02:00</time>
      </trkpt>
      <trkpt lat="42.7708" lon="1.35359">
        <ele>1055.5</ele>
        <time>2025-09-13T13:33:57+02:00</time>
      </trkpt>
      <trkpt lat="42.77079" lon="1.35358">
        <ele>1055.5</ele>
        <time>2025-09-13T13:33:58+02:00</time>
      </trkpt>
      <trkpt lat="42.77074" lon="1.35356">
        <ele>1056.2998</ele>
        <time>2025-09-13T13:34:02+02:00</time>
      </trkpt>
      <trkpt lat="42.77073" lon="1.35356">
        <ele>1056.2998</ele>
        <time>2025-09-13T13:34:03+02:00</time>
      </trkpt>
      <trkpt lat="42.77068" lon="1.35355">
        <ele>1058.7002</ele>
        <time>2025-09-13T13:34:07+02:00</time>
      </trkpt>
      <trkpt lat="42.77067" lon="1.35355">
        <ele>1058.7002</ele>
        <time>2025-09-13T13:34:08+02:00</time>
      </trkpt>
      <trkpt lat="42.77063" lon="1.35356">
        <ele>1058.1006</ele>
        <time>2025-09-13T13:34:12+02:00</time>
      </trkpt>
      <trkpt lat="42.77063" lon="1.35357">
        <ele>1058.1006</ele>
        <time>2025-09-13T13:34:13+02:00</time>
      </trkpt>
      <trkpt lat="42.77059" lon="1.35361">
        <ele>1058.1006</ele>
        <time>2025-09-13T13:34:17+02:00</time>
      </trkpt>
      <trkpt lat="42.77059" lon="1.35362">
        <ele>1058.1006</ele>
        <time>2025-09-13T13:34:18+02:00</time>
      </trkpt>
      <trkpt lat="42.77057" lon="1.35365">
        <ele>1057.5</ele>
        <time>2025-09-13T13:34:22+02:00</time>
      </trkpt>
      <trkpt lat="42.77057" lon="1.35366">
        <ele>1057.5</ele>
        <time>2025-09-13T13:34:23+02:00</time>
      </trkpt>
      <trkpt lat="42.77055" lon="1.3537">
        <ele>1057.5</ele>
        <time>2025-09-13T13:34:27+02:00</time>
      </trkpt>
      <trkpt lat="42.77055" lon="1.3537">
        <ele>1057.5</ele>
        <time>2025-09-13T13:34:28+02:00</time>
      </trkpt>
      <trkpt lat="42.77054" lon="1.35373">
        <ele>1056.4004</ele>
        <time>2025-09-13T13:34:32+02:00</time>
      </trkpt>
      <trkpt lat="42.77054" lon="1.35373">
        <ele>1056.4004</ele>
        <time>2025-09-13T13:34:33+02:00</time>
      </trkpt>
      <trkpt lat="42.77052" lon="1.35376">
        <ele>1056.4004</ele>
        <time>2025-09-13T13:34:37+02:00</time>
      </trkpt>
      <trkpt lat="42.77052" lon="1.35376">
        <ele>1056.4004</ele>
        <time>2025-09-13T13:34:38+02:00</time>
      </trkpt>
      <trkpt lat="42.77052" lon="1.35379">
        <ele>1057.2998</ele>
        <time>2025-09-13T13:34:42+02:00</time>
      </trkpt>
      <trkpt lat="42.77052" lon="1.3538">
        <ele>1057.2998</ele>
        <time>2025-09-13T13:34:43+02:00</time>
      </trkpt>
      <trkpt lat="42.7705" lon="1.35383">
        <ele>1056.5</ele>
        <time>2025-09-13T13:34:47+02:00</time>
      </trkpt>
      <trkpt lat="42.7705" lon="1.35383">
        <ele>1056.5</ele>
        <time>2025-09-13T13:34:48+02:00</time>
      </trkpt>
      <trkpt lat="42.77051" lon="1.35382">
        <ele>1056.5</ele>
        <time>2025-09-13T13:34:52+02:00</time>
      </trkpt>
      <trkpt lat="42.77051" lon="1.35381">
        <ele>1056.5</ele>
        <time>2025-09-13T13:34:53+02:00</time>
      </trkpt>
      <trkpt lat="42.77051" lon="1.3538">
        <ele>1057.2998</ele>
        <time>2025-09-13T13:34:57+02:00</time>
      </trkpt>
      <trkpt lat="42.77051" lon="1.3538">
        <ele>1057.2998</ele>
        <time>2025-09-13T13:34:58+02:00</time>
      </trkpt>
      <trkpt lat="42.77052" lon="1.3538">
        <ele>1057.2998</ele>
        <time>2025-09-13T13:35:02+02:00</time>
      </trkpt>
      <trkpt lat="42.77052" lon="1.3538">
        <ele>1057.2998</ele>
        <time>2025-09-13T13:35:03+02:00</time>
      </trkpt>
      <trkpt lat="42.77052" lon="1.3538">
        <ele>1057.2998</ele>
        <time>2025-09-13T13:35:07+02:00</time>
      </trkpt>
      <trkpt lat="42.77052" lon="1.3538">
        <ele>1057.2998</ele>
        <time>2025-09-13T13:35:08+02:00</time>
      </trkpt>
      <trkpt lat="42.77052" lon="1.3538">
        <ele>1057.2998</ele>
        <time>2025-09-13T13:35:12+02:00</time>
      </trkpt>
      <trkpt lat="42.77052" lon="1.3538">
        <ele>1057.2998</ele>
        <time>2025-09-13T13:35:13+02:00</time>
      </trkpt>
      <trkpt lat="42.77052" lon="1.3538">
        <ele>1057.2998</ele>
        <time>2025-09-13T13:35:17+02:00</time>
      </trkpt>
      <trkpt lat="42.77052" lon="1.3538">
        <ele>1057.2998</ele>
        <time>2025-09-13T13:35:18+02:00</time>
      </trkpt>
      <trkpt lat="42.77052" lon="1.3538">
        <ele>1056.4004</ele>
        <time>2025-09-13T13:35:22+02:00</time>
      </trkpt>
      <trkpt lat="42.77052" lon="1.3538">
        <ele>1056.4004</ele>
        <time>2025-09-13T13:35:23+02:00</time>
      </trkpt>
      <trkpt lat="42.77052" lon="1.3538">
        <ele>1056.4004</ele>
        <time>2025-09-13T13:35:27+02:00</time>
      </trkpt>
      <trkpt lat="42.77052" lon="1.3538">
        <ele>1056.4004</ele>
        <time>2025-09-13T13:35:28+02:00</time>
      </trkpt>
      <trkpt lat="42.77052" lon="1.3538">
        <ele>1056.4004</ele>
        <time>2025-09-13T13:35:32+02:00</time>
      </trkpt>
      <trkpt lat="42.77052" lon="1.3538">
        <ele>1056.4004</ele>
        <time>2025-09-13T13:35:33+02:00</time>
      </trkpt>
      <trkpt lat="42.77051" lon="1.35382">
        <ele>1056.5</ele>
        <time>2025-09-13T13:35:37+02:00</time>
      </trkpt>
      <trkpt lat="42.77051" lon="1.35382">
        <ele>1056.5</ele>
        <time>2025-09-13T13:35:38+02:00</time>
      </trkpt>
      <trkpt lat="42.7705" lon="1.35385">
        <ele>1056.5</ele>
        <time>2025-09-13T13:35:42+02:00</time>
      </trkpt>
      <trkpt lat="42.77048" lon="1.35386">
        <ele>1056.5</ele>
        <time>2025-09-13T13:35:43+02:00</time>
      </trkpt>
      <trkpt lat="42.77045" lon="1.3539">
        <ele>1056.9004</ele>
        <time>2025-09-13T13:35:47+02:00</time>
      </trkpt>
      <trkpt lat="42.77044" lon="1.35391">
        <ele>1056.9004</ele>
        <time>2025-09-13T13:35:48+02:00</time>
      </trkpt>
      <trkpt lat="42.77043" lon="1.35395">
        <ele>1056.9004</ele>
        <time>2025-09-13T13:35:52+02:00</time>
      </trkpt>
      <trkpt lat="42.77042" lon="1.35396">
        <ele>1056.9004</ele>
        <time>2025-09-13T13:35:53+02:00</time>
      </trkpt>
      <trkpt lat="42.7704" lon="1.354">
        <ele>1056.5</ele>
        <time>2025-09-13T13:35:57+02:00</time>
      </trkpt>
      <trkpt lat="42.7704" lon="1.35401">
        <ele>1056.5</ele>
        <time>2025-09-13T13:35:58+02:00</time>
      </trkpt>
      <trkpt lat="42.77038" lon="1.35405">
        <ele>1057.2998</ele>
        <time>2025-09-13T13:36:02+02:00</time>
      </trkpt>
      <trkpt lat="42.77038" lon="1.35406">
        <ele>1057.2998</ele>
        <time>2025-09-13T13:36:03+02:00</time>
      </trkpt>
      <trkpt lat="42.77036" lon="1.35409">
        <ele>1057</ele>
        <time>2025-09-13T13:36:07+02:00</time>
      </trkpt>
      <trkpt lat="42.77035" lon="1.35409">
        <ele>1057</ele>
        <time>2025-09-13T13:36:08+02:00</time>
      </trkpt>
      <trkpt lat="42.77032" lon="1.35412">
        <ele>1057.9004</ele>
        <time>2025-09-13T13:36:12+02:00</time>
      </trkpt>
      <trkpt lat="42.77032" lon="1.35413">
        <ele>1057.9004</ele>
        <time>2025-09-13T13:36:13+02:00</time>
      </trkpt>
      <trkpt lat="42.77029" lon="1.35415">
        <ele>1057.9004</ele>
        <time>2025-09-13T13:36:17+02:00</time>
      </trkpt>
      <trkpt lat="42.77029" lon="1.35416">
        <ele>1058</ele>
        <time>2025-09-13T13:36:18+02:00</time>
      </trkpt>
      <trkpt lat="42.77027" lon="1.35419">
        <ele>1058</ele>
        <time>2025-09-13T13:36:22+02:00</time>
      </trkpt>
      <trkpt lat="42.77027" lon="1.35419">
        <ele>1058</ele>
        <time>2025-09-13T13:36:23+02:00</time>
      </trkpt>
      <trkpt lat="42.77025" lon="1.35421">
        <ele>1058.9004</ele>
        <time>2025-09-13T13:36:27+02:00</time>
      </trkpt>
      <trkpt lat="42.77024" lon="1.35421">
        <ele>1058.9004</ele>
        <time>2025-09-13T13:36:28+02:00</time>
      </trkpt>
      <trkpt lat="42.77022" lon="1.35424">
        <ele>1058.9004</ele>
        <time>2025-09-13T13:36:32+02:00</time>
      </trkpt>
      <trkpt lat="42.77022" lon="1.35424">
        <ele>1059.4004</ele>
        <time>2025-09-13T13:36:33+02:00</time>
      </trkpt>
      <trkpt lat="42.77019" lon="1.35426">
        <ele>1060.2002</ele>
        <time>2025-09-13T13:36:37+02:00</time>
      </trkpt>
      <trkpt lat="42.77019" lon="1.35426">
        <ele>1060.2002</ele>
        <time>2025-09-13T13:36:38+02:00</time>
      </trkpt>
      <trkpt lat="42.77017" lon="1.3543">
        <ele>1060.2002</ele>
        <time>2025-09-13T13:36:42+02:00</time>
      </trkpt>
      <trkpt lat="42.77017" lon="1.3543">
        <ele>1060.2002</ele>
        <time>2025-09-13T13:36:43+02:00</time>
      </trkpt>
      <trkpt lat="42.77015" lon="1.35434">
        <ele>1060.7998</ele>
        <time>2025-09-13T13:36:47+02:00</time>
      </trkpt>
      <trkpt lat="42.77015" lon="1.35435">
        <ele>1060.7998</ele>
        <time>2025-09-13T13:36:48+02:00</time>
      </trkpt>
      <trkpt lat="42.77015" lon="1.3544">
        <ele>1060.7998</ele>
        <time>2025-09-13T13:36:52+02:00</time>
      </trkpt>
      <trkpt lat="42.77015" lon="1.35441">
        <ele>1061.4004</ele>
        <time>2025-09-13T13:36:53+02:00</time>
      </trkpt>
      <trkpt lat="42.77015" lon="1.35446">
        <ele>1061.4004</ele>
        <time>2025-09-13T13:36:57+02:00</time>
      </trkpt>
      <trkpt lat="42.77016" lon="1.35447">
        <ele>1061.4004</ele>
        <time>2025-09-13T13:36:58+02:00</time>
      </trkpt>
      <trkpt lat="42.77018" lon="1.3545">
        <ele>1062.2002</ele>
        <time>2025-09-13T13:37:02+02:00</time>
      </trkpt>
      <trkpt lat="42.77018" lon="1.35451">
        <ele>1062.2002</ele>
        <time>2025-09-13T13:37:03+02:00</time>
      </trkpt>
      <trkpt lat="42.77019" lon="1.35455">
        <ele>1062.2002</ele>
        <time>2025-09-13T13:37:07+02:00</time>
      </trkpt>
      <trkpt lat="42.77019" lon="1.35456">
        <ele>1062.2002</ele>
        <time>2025-09-13T13:37:08+02:00</time>
      </trkpt>
      <trkpt lat="42.77017" lon="1.35458">
        <ele>1063.2002</ele>
        <time>2025-09-13T13:37:12+02:00</time>
      </trkpt>
      <trkpt lat="42.77016" lon="1.35458">
        <ele>1063.2002</ele>
        <time>2025-09-13T13:37:13+02:00</time>
      </trkpt>
      <trkpt lat="42.77014" lon="1.35461">
        <ele>1063.2002</ele>
        <time>2025-09-13T13:37:17+02:00</time>
      </trkpt>
      <trkpt lat="42.77013" lon="1.35461">
        <ele>1064.5</ele>
        <time>2025-09-13T13:37:18+02:00</time>
      </trkpt>
      <trkpt lat="42.77011" lon="1.35462">
        <ele>1064.5</ele>
        <time>2025-09-13T13:37:22+02:00</time>
      </trkpt>
      <trkpt lat="42.7701" lon="1.35463">
        <ele>1064.5</ele>
        <time>2025-09-13T13:37:23+02:00</time>
      </trkpt>
      <trkpt lat="42.77009" lon="1.35465">
        <ele>1064.5</ele>
        <time>2025-09-13T13:37:27+02:00</time>
      </trkpt>
      <trkpt lat="42.77008" lon="1.35465">
        <ele>1064.5</ele>
        <time>2025-09-13T13:37:28+02:00</time>
      </trkpt>
      <trkpt lat="42.77005" lon="1.35467">
        <ele>1067.2998</ele>
        <time>2025-09-13T13:37:32+02:00</time>
      </trkpt>
      <trkpt lat="42.77004" lon="1.35467">
        <ele>1067.2998</ele>
        <time>2025-09-13T13:37:33+02:00</time>
      </trkpt>
      <trkpt lat="42.77002" lon="1.35467">
        <ele>1067.2998</ele>
        <time>2025-09-13T13:37:37+02:00</time>
      </trkpt>
      <trkpt lat="42.77001" lon="1.35466">
        <ele>1066.7002</ele>
        <time>2025-09-13T13:37:38+02:00</time>
      </trkpt>
      <trkpt lat="42.76999" lon="1.35469">
        <ele>1068.2002</ele>
        <time>2025-09-13T13:37:42+02:00</time>
      </trkpt>
      <trkpt lat="42.76999" lon="1.3547">
        <ele>1068.2002</ele>
        <time>2025-09-13T13:37:43+02:00</time>
      </trkpt>
      <trkpt lat="42.76999" lon="1.35477">
        <ele>1069.5</ele>
        <time>2025-09-13T13:37:47+02:00</time>
      </trkpt>
      <trkpt lat="42.76998" lon="1.35478">
        <ele>1069.5</ele>
        <time>2025-09-13T13:37:48+02:00</time>
      </trkpt>
      <trkpt lat="42.76995" lon="1.35481">
        <ele>1069.5</ele>
        <time>2025-09-13T13:37:52+02:00</time>
      </trkpt>
      <trkpt lat="42.76995" lon="1.35481">
        <ele>1070.1006</ele>
        <time>2025-09-13T13:37:53+02:00</time>
      </trkpt>
      <trkpt lat="42.76992" lon="1.35482">
        <ele>1070.1006</ele>
        <time>2025-09-13T13:37:57+02:00</time>
      </trkpt>
      <trkpt lat="42.76991" lon="1.35483">
        <ele>1070.1006</ele>
        <time>2025-09-13T13:37:58+02:00</time>
      </trkpt>
      <trkpt lat="42.76989" lon="1.35485">
        <ele>1071.6006</ele>
        <time>2025-09-13T13:38:02+02:00</time>
      </trkpt>
      <trkpt lat="42.76988" lon="1.35485">
        <ele>1071.6006</ele>
        <time>2025-09-13T13:38:03+02:00</time>
      </trkpt>
      <trkpt lat="42.76986" lon="1.35487">
        <ele>1071.6006</ele>
        <time>2025-09-13T13:38:07+02:00</time>
      </trkpt>
      <trkpt lat="42.76986" lon="1.35487">
        <ele>1071.6006</ele>
        <time>2025-09-13T13:38:08+02:00</time>
      </trkpt>
      <trkpt lat="42.76983" lon="1.35487">
        <ele>1071.6006</ele>
        <time>2025-09-13T13:38:12+02:00</time>
      </trkpt>
      <trkpt lat="42.76983" lon="1.35488">
        <ele>1071.6006</ele>
        <time>2025-09-13T13:38:13+02:00</time>
      </trkpt>
      <trkpt lat="42.76981" lon="1.35491">
        <ele>1072.2002</ele>
        <time>2025-09-13T13:38:17+02:00</time>
      </trkpt>
      <trkpt lat="42.76981" lon="1.35493">
        <ele>1073</ele>
        <time>2025-09-13T13:38:18+02:00</time>
      </trkpt>
      <trkpt lat="42.7698" lon="1.35497">
        <ele>1073</ele>
        <time>2025-09-13T13:38:22+02:00</time>
      </trkpt>
      <trkpt lat="42.7698" lon="1.35497">
        <ele>1073</ele>
        <time>2025-09-13T13:38:23+02:00</time>
      </trkpt>
      <trkpt lat="42.76978" lon="1.35502">
        <ele>1074.2998</ele>
        <time>2025-09-13T13:38:27+02:00</time>
      </trkpt>
      <trkpt lat="42.76978" lon="1.35502">
        <ele>1074.2998</ele>
        <time>2025-09-13T13:38:28+02:00</time>
      </trkpt>
      <trkpt lat="42.76978" lon="1.35506">
        <ele>1074.2998</ele>
        <time>2025-09-13T13:38:32+02:00</time>
      </trkpt>
      <trkpt lat="42.76978" lon="1.35506">
        <ele>1074.2998</ele>
        <time>2025-09-13T13:38:33+02:00</time>
      </trkpt>
      <trkpt lat="42.76978" lon="1.35508">
        <ele>1074.2998</ele>
        <time>2025-09-13T13:38:37+02:00</time>
      </trkpt>
      <trkpt lat="42.76978" lon="1.35508">
        <ele>1074.2998</ele>
        <time>2025-09-13T13:38:38+02:00</time>
      </trkpt>
      <trkpt lat="42.76977" lon="1.35511">
        <ele>1076.7002</ele>
        <time>2025-09-13T13:38:42+02:00</time>
      </trkpt>
      <trkpt lat="42.76977" lon="1.35512">
        <ele>1076.7002</ele>
        <time>2025-09-13T13:38:43+02:00</time>
      </trkpt>
      <trkpt lat="42.76974" lon="1.35515">
        <ele>1076.9004</ele>
        <time>2025-09-13T13:38:47+02:00</time>
      </trkpt>
      <trkpt lat="42.76974" lon="1.35515">
        <ele>1076.9004</ele>
        <time>2025-09-13T13:38:48+02:00</time>
      </trkpt>
      <trkpt lat="42.76974" lon="1.35519">
        <ele>1079.5</ele>
        <time>2025-09-13T13:38:52+02:00</time>
      </trkpt>
      <trkpt lat="42.76974" lon="1.35519">
        <ele>1079.5</ele>
        <time>2025-09-13T13:38:53+02:00</time>
      </trkpt>
      <trkpt lat="42.76974" lon="1.35522">
        <ele>1079.5</ele>
        <time>2025-09-13T13:38:57+02:00</time>
      </trkpt>
      <trkpt lat="42.76974" lon="1.35521">
        <ele>1079.5</ele>
        <time>2025-09-13T13:38:58+02:00</time>
      </trkpt>
      <trkpt lat="42.76974" lon="1.35521">
        <ele>1079.5</ele>
        <time>2025-09-13T13:39:02+02:00</time>
      </trkpt>
      <trkpt lat="42.76974" lon="1.35521">
        <ele>1079.5</ele>
        <time>2025-09-13T13:39:03+02:00</time>
      </trkpt>
      <trkpt lat="42.76974" lon="1.35521">
        <ele>1079.5</ele>
        <time>2025-09-13T13:39:07+02:00</time>
      </trkpt>
      <trkpt lat="42.76974" lon="1.35521">
        <ele>1079.5</ele>
        <time>2025-09-13T13:39:08+02:00</time>
      </trkpt>
      <trkpt lat="42.76974" lon="1.35521">
        <ele>1079.5</ele>
        <time>2025-09-13T13:39:12+02:00</time>
      </trkpt>
      <trkpt lat="42.76974" lon="1.35521">
        <ele>1079.5</ele>
        <time>2025-09-13T13:39:13+02:00</time>
      </trkpt>
      <trkpt lat="42.76974" lon="1.35522">
        <ele>1079.5</ele>
        <time>2025-09-13T13:39:17+02:00</time>
      </trkpt>
      <trkpt lat="42.76974" lon="1.35522">
        <ele>1079.5</ele>
        <time>2025-09-13T13:39:18+02:00</time>
      </trkpt>
      <trkpt lat="42.76973" lon="1.35522">
        <ele>1079.5</ele>
        <time>2025-09-13T13:39:22+02:00</time>
      </trkpt>
      <trkpt lat="42.76973" lon="1.35522">
        <ele>1079.5</ele>
        <time>2025-09-13T13:39:23+02:00</time>
      </trkpt>
      <trkpt lat="42.76972" lon="1.35523">
        <ele>1079.5</ele>
        <time>2025-09-13T13:39:27+02:00</time>
      </trkpt>
      <trkpt lat="42.76972" lon="1.35523">
        <ele>1079.5</ele>
        <time>2025-09-13T13:39:28+02:00</time>
      </trkpt>
      <trkpt lat="42.76972" lon="1.35523">
        <ele>1079.5</ele>
        <time>2025-09-13T13:39:32+02:00</time>
      </trkpt>
      <trkpt lat="42.76972" lon="1.35523">
        <ele>1079.5</ele>
        <time>2025-09-13T13:39:33+02:00</time>
      </trkpt>
      <trkpt lat="42.76972" lon="1.35523">
        <ele>1079.5</ele>
        <time>2025-09-13T13:39:37+02:00</time>
      </trkpt>
      <trkpt lat="42.76971" lon="1.35524">
        <ele>1079.5</ele>
        <time>2025-09-13T13:39:38+02:00</time>
      </trkpt>
      <trkpt lat="42.76971" lon="1.35524">
        <ele>1079.5</ele>
        <time>2025-09-13T13:39:42+02:00</time>
      </trkpt>
      <trkpt lat="42.76971" lon="1.35524">
        <ele>1079.5</ele>
        <time>2025-09-13T13:39:43+02:00</time>
      </trkpt>
      <trkpt lat="42.76971" lon="1.35524">
        <ele>1079.5</ele>
        <time>2025-09-13T13:39:47+02:00</time>
      </trkpt>
      <trkpt lat="42.76971" lon="1.35524">
        <ele>1079.5</ele>
        <time>2025-09-13T13:39:48+02:00</time>
      </trkpt>
      <trkpt lat="42.76971" lon="1.35524">
        <ele>1079.5</ele>
        <time>2025-09-13T13:39:52+02:00</time>
      </trkpt>
      <trkpt lat="42.76971" lon="1.35524">
        <ele>1079.5</ele>
        <time>2025-09-13T13:39:53+02:00</time>
      </trkpt>
      <trkpt lat="42.76971" lon="1.35524">
        <ele>1079.5</ele>
        <time>2025-09-13T13:39:57+02:00</time>
      </trkpt>
      <trkpt lat="42.76971" lon="1.35524">
        <ele>1079.5</ele>
        <time>2025-09-13T13:39:58+02:00</time>
      </trkpt>
      <trkpt lat="42.76971" lon="1.35524">
        <ele>1079.5</ele>
        <time>2025-09-13T13:40:02+02:00</time>
      </trkpt>
      <trkpt lat="42.76971" lon="1.35524">
        <ele>1079.5</ele>
        <time>2025-09-13T13:40:03+02:00</time>
      </trkpt>
      <trkpt lat="42.76972" lon="1.35526">
        <ele>1079.5</ele>
        <time>2025-09-13T13:40:07+02:00</time>
      </trkpt>
      <trkpt lat="42.76972" lon="1.35526">
        <ele>1079.5</ele>
        <time>2025-09-13T13:40:08+02:00</time>
      </trkpt>
      <trkpt lat="42.76972" lon="1.35526">
        <ele>1079.5</ele>
        <time>2025-09-13T13:40:12+02:00</time>
      </trkpt>
      <trkpt lat="42.76972" lon="1.35526">
        <ele>1079.5</ele>
        <time>2025-09-13T13:40:13+02:00</time>
      </trkpt>
      <trkpt lat="42.76973" lon="1.35523">
        <ele>1079.5</ele>
        <time>2025-09-13T13:40:17+02:00</time>
      </trkpt>
      <trkpt lat="42.76973" lon="1.35522">
        <ele>1079.5</ele>
        <time>2025-09-13T13:40:18+02:00</time>
      </trkpt>
      <trkpt lat="42.76973" lon="1.35522">
        <ele>1079.5</ele>
        <time>2025-09-13T13:40:22+02:00</time>
      </trkpt>
      <trkpt lat="42.76973" lon="1.35522">
        <ele>1079.5</ele>
        <time>2025-09-13T13:40:23+02:00</time>
      </trkpt>
      <trkpt lat="42.76972" lon="1.35522">
        <ele>1079.5</ele>
        <time>2025-09-13T13:40:27+02:00</time>
      </trkpt>
      <trkpt lat="42.76972" lon="1.35522">
        <ele>1079.5</ele>
        <time>2025-09-13T13:40:28+02:00</time>
      </trkpt>
      <trkpt lat="42.76972" lon="1.35524">
        <ele>1079.5</ele>
        <time>2025-09-13T13:40:32+02:00</time>
      </trkpt>
      <trkpt lat="42.76972" lon="1.35524">
        <ele>1079.5</ele>
        <time>2025-09-13T13:40:33+02:00</time>
      </trkpt>
      <trkpt lat="42.76971" lon="1.35529">
        <ele>1082.5</ele>
        <time>2025-09-13T13:40:37+02:00</time>
      </trkpt>
      <trkpt lat="42.7697" lon="1.35531">
        <ele>1082.5</ele>
        <time>2025-09-13T13:40:38+02:00</time>
      </trkpt>
      <trkpt lat="42.7697" lon="1.35532">
        <ele>1082.5</ele>
        <time>2025-09-13T13:40:42+02:00</time>
      </trkpt>
      <trkpt lat="42.7697" lon="1.35532">
        <ele>1082.5</ele>
        <time>2025-09-13T13:40:43+02:00</time>
      </trkpt>
      <trkpt lat="42.7697" lon="1.35531">
        <ele>1082.5</ele>
        <time>2025-09-13T13:40:47+02:00</time>
      </trkpt>
      <trkpt lat="42.7697" lon="1.35531">
        <ele>1082.5</ele>
        <time>2025-09-13T13:40:48+02:00</time>
      </trkpt>
      <trkpt lat="42.7697" lon="1.35531">
        <ele>1082.5</ele>
        <time>2025-09-13T13:40:52+02:00</time>
      </trkpt>
      <trkpt lat="42.7697" lon="1.35532">
        <ele>1082.5</ele>
        <time>2025-09-13T13:40:53+02:00</time>
      </trkpt>
      <trkpt lat="42.7697" lon="1.35532">
        <ele>1082.5</ele>
        <time>2025-09-13T13:40:57+02:00</time>
      </trkpt>
      <trkpt lat="42.7697" lon="1.35532">
        <ele>1082.5</ele>
        <time>2025-09-13T13:40:58+02:00</time>
      </trkpt>
      <trkpt lat="42.7697" lon="1.35532">
        <ele>1082.5</ele>
        <time>2025-09-13T13:41:02+02:00</time>
      </trkpt>
      <trkpt lat="42.7697" lon="1.35532">
        <ele>1082.5</ele>
        <time>2025-09-13T13:41:03+02:00</time>
      </trkpt>
      <trkpt lat="42.7697" lon="1.35532">
        <ele>1082.5</ele>
        <time>2025-09-13T13:41:07+02:00</time>
      </trkpt>
      <trkpt lat="42.7697" lon="1.35532">
        <ele>1082.5</ele>
        <time>2025-09-13T13:41:08+02:00</time>
      </trkpt>
      <trkpt lat="42.7697" lon="1.35532">
        <ele>1082.5</ele>
        <time>2025-09-13T13:41:12+02:00</time>
      </trkpt>
      <trkpt lat="42.7697" lon="1.35532">
        <ele>1082.5</ele>
        <time>2025-09-13T13:41:13+02:00</time>
      </trkpt>
      <trkpt lat="42.7697" lon="1.35532">
        <ele>1082.5</ele>
        <time>2025-09-13T13:41:17+02:00</time>
      </trkpt>
      <trkpt lat="42.7697" lon="1.35532">
        <ele>1082.5</ele>
        <time>2025-09-13T13:41:18+02:00</time>
      </trkpt>
      <trkpt lat="42.7697" lon="1.35532">
        <ele>1082.5</ele>
        <time>2025-09-13T13:41:22+02:00</time>
      </trkpt>
      <trkpt lat="42.7697" lon="1.35532">
        <ele>1082.5</ele>
        <time>2025-09-13T13:41:23+02:00</time>
      </trkpt>
      <trkpt lat="42.7697" lon="1.35532">
        <ele>1082.5</ele>
        <time>2025-09-13T13:41:27+02:00</time>
      </trkpt>
      <trkpt lat="42.7697" lon="1.35532">
        <ele>1082.5</ele>
        <time>2025-09-13T13:41:28+02:00</time>
      </trkpt>
      <trkpt lat="42.7697" lon="1.35532">
        <ele>1082.5</ele>
        <time>2025-09-13T13:41:32+02:00</time>
      </trkpt>
      <trkpt lat="42.7697" lon="1.35532">
        <ele>1082.5</ele>
        <time>2025-09-13T13:41:33+02:00</time>
      </trkpt>
      <trkpt lat="42.7697" lon="1.35532">
        <ele>1082.5</ele>
        <time>2025-09-13T13:41:37+02:00</time>
      </trkpt>
      <trkpt lat="42.7697" lon="1.35532">
        <ele>1082.5</ele>
        <time>2025-09-13T13:41:38+02:00</time>
      </trkpt>
      <trkpt lat="42.7697" lon="1.35532">
        <ele>1082.5</ele>
        <time>2025-09-13T13:41:42+02:00</time>
      </trkpt>
      <trkpt lat="42.7697" lon="1.35532">
        <ele>1082.5</ele>
        <time>2025-09-13T13:41:43+02:00</time>
      </trkpt>
      <trkpt lat="42.7697" lon="1.35532">
        <ele>1082.5</ele>
        <time>2025-09-13T13:41:47+02:00</time>
      </trkpt>
      <trkpt lat="42.7697" lon="1.35532">
        <ele>1082.5</ele>
        <time>2025-09-13T13:41:48+02:00</time>
      </trkpt>
      <trkpt lat="42.7697" lon="1.35531">
        <ele>1082.5</ele>
        <time>2025-09-13T13:41:52+02:00</time>
      </trkpt>
      <trkpt lat="42.76971" lon="1.35531">
        <ele>1082.5</ele>
        <time>2025-09-13T13:41:53+02:00</time>
      </trkpt>
      <trkpt lat="42.7697" lon="1.35532">
        <ele>1082.5</ele>
        <time>2025-09-13T13:41:57+02:00</time>
      </trkpt>
      <trkpt lat="42.7697" lon="1.35532">
        <ele>1082.2002</ele>
        <time>2025-09-13T13:41:58+02:00</time>
      </trkpt>
      <trkpt lat="42.7697" lon="1.35526">
        <ele>1079.5</ele>
        <time>2025-09-13T13:42:02+02:00</time>
      </trkpt>
      <trkpt lat="42.7697" lon="1.35525">
        <ele>1079.5</ele>
        <time>2025-09-13T13:42:03+02:00</time>
      </trkpt>
      <trkpt lat="42.7697" lon="1.35525">
        <ele>1079.5</ele>
        <time>2025-09-13T13:42:07+02:00</time>
      </trkpt>
      <trkpt lat="42.76971" lon="1.35526">
        <ele>1079.5</ele>
        <time>2025-09-13T13:42:08+02:00</time>
      </trkpt>
      <trkpt lat="42.7697" lon="1.35531">
        <ele>1082.5</ele>
        <time>2025-09-13T13:42:12+02:00</time>
      </trkpt>
      <trkpt lat="42.7697" lon="1.35532">
        <ele>1082.5</ele>
        <time>2025-09-13T13:42:13+02:00</time>
      </trkpt>
      <trkpt lat="42.76968" lon="1.35533">
        <ele>1082.2002</ele>
        <time>2025-09-13T13:42:17+02:00</time>
      </trkpt>
      <trkpt lat="42.76968" lon="1.35532">
        <ele>1082.2002</ele>
        <time>2025-09-13T13:42:18+02:00</time>
      </trkpt>
      <trkpt lat="42.76968" lon="1.35532">
        <ele>1082.2002</ele>
        <time>2025-09-13T13:42:22+02:00</time>
      </trkpt>
      <trkpt lat="42.76968" lon="1.35532">
        <ele>1082.2002</ele>
        <time>2025-09-13T13:42:23+02:00</time>
      </trkpt>
      <trkpt lat="42.76968" lon="1.35532">
        <ele>1082.2002</ele>
        <time>2025-09-13T13:42:27+02:00</time>
      </trkpt>
      <trkpt lat="42.76968" lon="1.35532">
        <ele>1082.2002</ele>
        <time>2025-09-13T13:42:28+02:00</time>
      </trkpt>
      <trkpt lat="42.76967" lon="1.35532">
        <ele>1082.2002</ele>
        <time>2025-09-13T13:42:32+02:00</time>
      </trkpt>
      <trkpt lat="42.76966" lon="1.35533">
        <ele>1082.2002</ele>
        <time>2025-09-13T13:42:33+02:00</time>
      </trkpt>
      <trkpt lat="42.76964" lon="1.35534">
        <ele>1082.2002</ele>
        <time>2025-09-13T13:42:37+02:00</time>
      </trkpt>
      <trkpt lat="42.76964" lon="1.35534">
        <ele>1082.2002</ele>
        <time>2025-09-13T13:42:38+02:00</time>
      </trkpt>
      <trkpt lat="42.76964" lon="1.35535">
        <ele>1082.2002</ele>
        <time>2025-09-13T13:42:42+02:00</time>
      </trkpt>
      <trkpt lat="42.76964" lon="1.35535">
        <ele>1082.2002</ele>
        <time>2025-09-13T13:42:43+02:00</time>
      </trkpt>
      <trkpt lat="42.76965" lon="1.35536">
        <ele>1085.5</ele>
        <time>2025-09-13T13:42:47+02:00</time>
      </trkpt>
      <trkpt lat="42.76965" lon="1.35536">
        <ele>1085.5</ele>
        <time>2025-09-13T13:42:48+02:00</time>
      </trkpt>
      <trkpt lat="42.76965" lon="1.35536">
        <ele>1085.5</ele>
        <time>2025-09-13T13:42:52+02:00</time>
      </trkpt>
      <trkpt lat="42.76965" lon="1.35536">
        <ele>1085.5</ele>
        <time>2025-09-13T13:42:53+02:00</time>
      </trkpt>
      <trkpt lat="42.76965" lon="1.35536">
        <ele>1085.5</ele>
        <time>2025-09-13T13:42:57+02:00</time>
      </trkpt>
      <trkpt lat="42.76965" lon="1.35536">
        <ele>1085.5</ele>
        <time>2025-09-13T13:42:58+02:00</time>
      </trkpt>
      <trkpt lat="42.76965" lon="1.35536">
        <ele>1085.5</ele>
        <time>2025-09-13T13:43:02+02:00</time>
      </trkpt>
      <trkpt lat="42.76964" lon="1.35536">
        <ele>1085.5</ele>
        <time>2025-09-13T13:43:03+02:00</time>
      </trkpt>
      <trkpt lat="42.76964" lon="1.35535">
        <ele>1082.2002</ele>
        <time>2025-09-13T13:43:07+02:00</time>
      </trkpt>
      <trkpt lat="42.76964" lon="1.35535">
        <ele>1082.2002</ele>
        <time>2025-09-13T13:43:08+02:00</time>
      </trkpt>
      <trkpt lat="42.76963" lon="1.35534">
        <ele>1082.2998</ele>
        <time>2025-09-13T13:43:12+02:00</time>
      </trkpt>
      <trkpt lat="42.76963" lon="1.35534">
        <ele>1082.2998</ele>
        <time>2025-09-13T13:43:13+02:00</time>
      </trkpt>
      <trkpt lat="42.76963" lon="1.35534">
        <ele>1082.2998</ele>
        <time>2025-09-13T13:43:17+02:00</time>
      </trkpt>
      <trkpt lat="42.76963" lon="1.35534">
        <ele>1082.2998</ele>
        <time>2025-09-13T13:43:18+02:00</time>
      </trkpt>
      <trkpt lat="42.76963" lon="1.35535">
        <ele>1082.2998</ele>
        <time>2025-09-13T13:43:22+02:00</time>
      </trkpt>
      <trkpt lat="42.76964" lon="1.35535">
        <ele>1082.2998</ele>
        <time>2025-09-13T13:43:23+02:00</time>
      </trkpt>
      <trkpt lat="42.76964" lon="1.35535">
        <ele>1085.5</ele>
        <time>2025-09-13T13:43:27+02:00</time>
      </trkpt>
      <trkpt lat="42.76964" lon="1.35535">
        <ele>1085.5</ele>
        <time>2025-09-13T13:43:28+02:00</time>
      </trkpt>
      <trkpt lat="42.76964" lon="1.35535">
        <ele>1085.5</ele>
        <time>2025-09-13T13:43:32+02:00</time>
      </trkpt>
      <trkpt lat="42.76964" lon="1.35535">
        <ele>1085.5</ele>
        <time>2025-09-13T13:43:33+02:00</time>
      </trkpt>
      <trkpt lat="42.76964" lon="1.35536">
        <ele>1085.5</ele>
        <time>2025-09-13T13:43:37+02:00</time>
      </trkpt>
      <trkpt lat="42.76965" lon="1.35536">
        <ele>1085.5</ele>
        <time>2025-09-13T13:43:38+02:00</time>
      </trkpt>
      <trkpt lat="42.76965" lon="1.35536">
        <ele>1085.5</ele>
        <time>2025-09-13T13:43:42+02:00</time>
      </trkpt>
      <trkpt lat="42.76965" lon="1.35536">
        <ele>1085.5</ele>
        <time>2025-09-13T13:43:43+02:00</time>
      </trkpt>
      <trkpt lat="42.76965" lon="1.35538">
        <ele>1085.5</ele>
        <time>2025-09-13T13:43:47+02:00</time>
      </trkpt>
      <trkpt lat="42.76965" lon="1.35538">
        <ele>1085.5</ele>
        <time>2025-09-13T13:43:48+02:00</time>
      </trkpt>
      <trkpt lat="42.76965" lon="1.35539">
        <ele>1085.5</ele>
        <time>2025-09-13T13:43:52+02:00</time>
      </trkpt>
      <trkpt lat="42.76965" lon="1.35539">
        <ele>1085.5</ele>
        <time>2025-09-13T13:43:53+02:00</time>
      </trkpt>
      <trkpt lat="42.76965" lon="1.35539">
        <ele>1085.5</ele>
        <time>2025-09-13T13:43:57+02:00</time>
      </trkpt>
      <trkpt lat="42.76965" lon="1.35539">
        <ele>1085.5</ele>
        <time>2025-09-13T13:43:58+02:00</time>
      </trkpt>
      <trkpt lat="42.76965" lon="1.35539">
        <ele>1085.5</ele>
        <time>2025-09-13T13:44:02+02:00</time>
      </trkpt>
      <trkpt lat="42.76965" lon="1.35539">
        <ele>1085.5</ele>
        <time>2025-09-13T13:44:03+02:00</time>
      </trkpt>
      <trkpt lat="42.76965" lon="1.3554">
        <ele>1085.5</ele>
        <time>2025-09-13T13:44:07+02:00</time>
      </trkpt>
      <trkpt lat="42.76965" lon="1.3554">
        <ele>1085.5</ele>
        <time>2025-09-13T13:44:08+02:00</time>
      </trkpt>
      <trkpt lat="42.76964" lon="1.3554">
        <ele>1085.5</ele>
        <time>2025-09-13T13:44:12+02:00</time>
      </trkpt>
      <trkpt lat="42.76964" lon="1.3554">
        <ele>1085.5</ele>
        <time>2025-09-13T13:44:13+02:00</time>
      </trkpt>
      <trkpt lat="42.76964" lon="1.3554">
        <ele>1085.5</ele>
        <time>2025-09-13T13:44:17+02:00</time>
      </trkpt>
      <trkpt lat="42.76964" lon="1.3554">
        <ele>1085.5</ele>
        <time>2025-09-13T13:44:18+02:00</time>
      </trkpt>
      <trkpt lat="42.76964" lon="1.3554">
        <ele>1085.5</ele>
        <time>2025-09-13T13:44:22+02:00</time>
      </trkpt>
      <trkpt lat="42.76964" lon="1.3554">
        <ele>1085.5</ele>
        <time>2025-09-13T13:44:23+02:00</time>
      </trkpt>
      <trkpt lat="42.76964" lon="1.3554">
        <ele>1085.5</ele>
        <time>2025-09-13T13:44:27+02:00</time>
      </trkpt>
      <trkpt lat="42.76964" lon="1.3554">
        <ele>1085.5</ele>
        <time>2025-09-13T13:44:28+02:00</time>
      </trkpt>
      <trkpt lat="42.76964" lon="1.3554">
        <ele>1085.5</ele>
        <time>2025-09-13T13:44:32+02:00</time>
      </trkpt>
      <trkpt lat="42.76964" lon="1.3554">
        <ele>1085.5</ele>
        <time>2025-09-13T13:44:33+02:00</time>
      </trkpt>
      <trkpt lat="42.76964" lon="1.3554">
        <ele>1085.5</ele>
        <time>2025-09-13T13:44:37+02:00</time>
      </trkpt>
      <trkpt lat="42.76964" lon="1.3554">
        <ele>1085.5</ele>
        <time>2025-09-13T13:44:38+02:00</time>
      </trkpt>
      <trkpt lat="42.76964" lon="1.3554">
        <ele>1085.5</ele>
        <time>2025-09-13T13:44:42+02:00</time>
      </trkpt>
      <trkpt lat="42.76964" lon="1.3554">
        <ele>1085.5</ele>
        <time>2025-09-13T13:44:43+02:00</time>
      </trkpt>
      <trkpt lat="42.76964" lon="1.3554">
        <ele>1085.5</ele>
        <time>2025-09-13T13:44:47+02:00</time>
      </trkpt>
      <trkpt lat="42.76964" lon="1.3554">
        <ele>1085.5</ele>
        <time>2025-09-13T13:44:48+02:00</time>
      </trkpt>
      <trkpt lat="42.76964" lon="1.35539">
        <ele>1085.5</ele>
        <time>2025-09-13T13:44:52+02:00</time>
      </trkpt>
      <trkpt lat="42.76964" lon="1.35539">
        <ele>1085.5</ele>
        <time>2025-09-13T13:44:53+02:00</time>
      </trkpt>
      <trkpt lat="42.76964" lon="1.35537">
        <ele>1085.5</ele>
        <time>2025-09-13T13:44:57+02:00</time>
      </trkpt>
      <trkpt lat="42.76964" lon="1.35537">
        <ele>1085.5</ele>
        <time>2025-09-13T13:44:58+02:00</time>
      </trkpt>
      <trkpt lat="42.76964" lon="1.35537">
        <ele>1085.5</ele>
        <time>2025-09-13T13:45:02+02:00</time>
      </trkpt>
      <trkpt lat="42.76964" lon="1.35537">
        <ele>1085.5</ele>
        <time>2025-09-13T13:45:03+02:00</time>
      </trkpt>
      <trkpt lat="42.76963" lon="1.35538">
        <ele>1085.6006</ele>
        <time>2025-09-13T13:45:08+02:00</time>
      </trkpt>
      <trkpt lat="42.76963" lon="1.35538">
        <ele>1085.6006</ele>
        <time>2025-09-13T13:45:09+02:00</time>
      </trkpt>
      <trkpt lat="42.76963" lon="1.35538">
        <ele>1085.6006</ele>
        <time>2025-09-13T13:45:13+02:00</time>
      </trkpt>
      <trkpt lat="42.76963" lon="1.35538">
        <ele>1085.6006</ele>
        <time>2025-09-13T13:45:14+02:00</time>
      </trkpt>
      <trkpt lat="42.76963" lon="1.35539">
        <ele>1085.6006</ele>
        <time>2025-09-13T13:45:18+02:00</time>
      </trkpt>
      <trkpt lat="42.76963" lon="1.35539">
        <ele>1085.6006</ele>
        <time>2025-09-13T13:45:19+02:00</time>
      </trkpt>
      <trkpt lat="42.76963" lon="1.35539">
        <ele>1085.6006</ele>
        <time>2025-09-13T13:45:23+02:00</time>
      </trkpt>
      <trkpt lat="42.76963" lon="1.35539">
        <ele>1085.6006</ele>
        <time>2025-09-13T13:45:24+02:00</time>
      </trkpt>
      <trkpt lat="42.76963" lon="1.35539">
        <ele>1085.6006</ele>
        <time>2025-09-13T13:45:28+02:00</time>
      </trkpt>
      <trkpt lat="42.76963" lon="1.35539">
        <ele>1085.6006</ele>
        <time>2025-09-13T13:45:29+02:00</time>
      </trkpt>
      <trkpt lat="42.76963" lon="1.35539">
        <ele>1085.6006</ele>
        <time>2025-09-13T13:45:33+02:00</time>
      </trkpt>
      <trkpt lat="42.76963" lon="1.35539">
        <ele>1085.6006</ele>
        <time>2025-09-13T13:45:34+02:00</time>
      </trkpt>
      <trkpt lat="42.76963" lon="1.35539">
        <ele>1085.6006</ele>
        <time>2025-09-13T13:45:38+02:00</time>
      </trkpt>
      <trkpt lat="42.76963" lon="1.35539">
        <ele>1085.6006</ele>
        <time>2025-09-13T13:45:39+02:00</time>
      </trkpt>
      <trkpt lat="42.76963" lon="1.35539">
        <ele>1085.6006</ele>
        <time>2025-09-13T13:45:43+02:00</time>
      </trkpt>
      <trkpt lat="42.76963" lon="1.35539">
        <ele>1085.6006</ele>
        <time>2025-09-13T13:45:44+02:00</time>
      </trkpt>
      <trkpt lat="42.76963" lon="1.35539">
        <ele>1085.6006</ele>
        <time>2025-09-13T13:45:48+02:00</time>
      </trkpt>
      <trkpt lat="42.76963" lon="1.35539">
        <ele>1085.6006</ele>
        <time>2025-09-13T13:45:49+02:00</time>
      </trkpt>
      <trkpt lat="42.76963" lon="1.35539">
        <ele>1085.6006</ele>
        <time>2025-09-13T13:45:53+02:00</time>
      </trkpt>
      <trkpt lat="42.76963" lon="1.35539">
        <ele>1085.6006</ele>
        <time>2025-09-13T13:45:54+02:00</time>
      </trkpt>
      <trkpt lat="42.76963" lon="1.35539">
        <ele>1085.6006</ele>
        <time>2025-09-13T13:45:58+02:00</time>
      </trkpt>
      <trkpt lat="42.76963" lon="1.35539">
        <ele>1085.6006</ele>
        <time>2025-09-13T13:45:59+02:00</time>
      </trkpt>
      <trkpt lat="42.76963" lon="1.35539">
        <ele>1085.6006</ele>
        <time>2025-09-13T13:46:03+02:00</time>
      </trkpt>
      <trkpt lat="42.76963" lon="1.35539">
        <ele>1085.6006</ele>
        <time>2025-09-13T13:46:04+02:00</time>
      </trkpt>
      <trkpt lat="42.76963" lon="1.35539">
        <ele>1085.6006</ele>
        <time>2025-09-13T13:46:08+02:00</time>
      </trkpt>
      <trkpt lat="42.76963" lon="1.35539">
        <ele>1085.6006</ele>
        <time>2025-09-13T13:46:09+02:00</time>
      </trkpt>
      <trkpt lat="42.76963" lon="1.35539">
        <ele>1085.6006</ele>
        <time>2025-09-13T13:46:13+02:00</time>
      </trkpt>
      <trkpt lat="42.76963" lon="1.35539">
        <ele>1085.6006</ele>
        <time>2025-09-13T13:46:14+02:00</time>
      </trkpt>
      <trkpt lat="42.76963" lon="1.35539">
        <ele>1085.6006</ele>
        <time>2025-09-13T13:46:18+02:00</time>
      </trkpt>
      <trkpt lat="42.76963" lon="1.35539">
        <ele>1085.6006</ele>
        <time>2025-09-13T13:46:19+02:00</time>
      </trkpt>
      <trkpt lat="42.76963" lon="1.35539">
        <ele>1085.6006</ele>
        <time>2025-09-13T13:46:23+02:00</time>
      </trkpt>
      <trkpt lat="42.76963" lon="1.35539">
        <ele>1085.6006</ele>
        <time>2025-09-13T13:46:24+02:00</time>
      </trkpt>
      <trkpt lat="42.76963" lon="1.35539">
        <ele>1085.6006</ele>
        <time>2025-09-13T13:46:28+02:00</time>
      </trkpt>
      <trkpt lat="42.76963" lon="1.35539">
        <ele>1085.6006</ele>
        <time>2025-09-13T13:46:29+02:00</time>
      </trkpt>
      <trkpt lat="42.76963" lon="1.35539">
        <ele>1085.6006</ele>
        <time>2025-09-13T13:46:33+02:00</time>
      </trkpt>
      <trkpt lat="42.76963" lon="1.35539">
        <ele>1085.6006</ele>
        <time>2025-09-13T13:46:34+02:00</time>
      </trkpt>
      <trkpt lat="42.76963" lon="1.35539">
        <ele>1085.6006</ele>
        <time>2025-09-13T13:46:38+02:00</time>
      </trkpt>
      <trkpt lat="42.76963" lon="1.35539">
        <ele>1085.6006</ele>
        <time>2025-09-13T13:46:39+02:00</time>
      </trkpt>
      <trkpt lat="42.76963" lon="1.35539">
        <ele>1085.6006</ele>
        <time>2025-09-13T13:46:43+02:00</time>
      </trkpt>
      <trkpt lat="42.76963" lon="1.35539">
        <ele>1085.6006</ele>
        <time>2025-09-13T13:46:44+02:00</time>
      </trkpt>
      <trkpt lat="42.76963" lon="1.35539">
        <ele>1085.6006</ele>
        <time>2025-09-13T13:46:48+02:00</time>
      </trkpt>
      <trkpt lat="42.76963" lon="1.35539">
        <ele>1085.6006</ele>
        <time>2025-09-13T13:46:49+02:00</time>
      </trkpt>
      <trkpt lat="42.76963" lon="1.35539">
        <ele>1085.6006</ele>
        <time>2025-09-13T13:46:53+02:00</time>
      </trkpt>
      <trkpt lat="42.76963" lon="1.35539">
        <ele>1085.6006</ele>
        <time>2025-09-13T13:46:54+02:00</time>
      </trkpt>
      <trkpt lat="42.76963" lon="1.35539">
        <ele>1085.6006</ele>
        <time>2025-09-13T13:46:58+02:00</time>
      </trkpt>
      <trkpt lat="42.76963" lon="1.35539">
        <ele>1085.6006</ele>
        <time>2025-09-13T13:46:59+02:00</time>
      </trkpt>
      <trkpt lat="42.76963" lon="1.35539">
        <ele>1085.6006</ele>
        <time>2025-09-13T13:47:03+02:00</time>
      </trkpt>
      <trkpt lat="42.76963" lon="1.35539">
        <ele>1085.6006</ele>
        <time>2025-09-13T13:47:04+02:00</time>
      </trkpt>
      <trkpt lat="42.76963" lon="1.35539">
        <ele>1085.6006</ele>
        <time>2025-09-13T13:47:08+02:00</time>
      </trkpt>
      <trkpt lat="42.76963" lon="1.35539">
        <ele>1085.6006</ele>
        <time>2025-09-13T13:47:09+02:00</time>
      </trkpt>
      <trkpt lat="42.76963" lon="1.35539">
        <ele>1085.6006</ele>
        <time>2025-09-13T13:47:13+02:00</time>
      </trkpt>
      <trkpt lat="42.76963" lon="1.35539">
        <ele>1085.6006</ele>
        <time>2025-09-13T13:47:14+02:00</time>
      </trkpt>
      <trkpt lat="42.76963" lon="1.35539">
        <ele>1085.6006</ele>
        <time>2025-09-13T13:47:18+02:00</time>
      </trkpt>
      <trkpt lat="42.76963" lon="1.35539">
        <ele>1085.6006</ele>
        <time>2025-09-13T13:47:19+02:00</time>
      </trkpt>
      <trkpt lat="42.76963" lon="1.35539">
        <ele>1085.6006</ele>
        <time>2025-09-13T13:47:23+02:00</time>
      </trkpt>
      <trkpt lat="42.76963" lon="1.35539">
        <ele>1085.6006</ele>
        <time>2025-09-13T13:47:24+02:00</time>
      </trkpt>
      <trkpt lat="42.76963" lon="1.35539">
        <ele>1085.6006</ele>
        <time>2025-09-13T13:47:28+02:00</time>
      </trkpt>
      <trkpt lat="42.76963" lon="1.35539">
        <ele>1085.6006</ele>
        <time>2025-09-13T13:47:29+02:00</time>
      </trkpt>
      <trkpt lat="42.76963" lon="1.35539">
        <ele>1085.6006</ele>
        <time>2025-09-13T13:47:33+02:00</time>
      </trkpt>
      <trkpt lat="42.76963" lon="1.35539">
        <ele>1085.6006</ele>
        <time>2025-09-13T13:47:34+02:00</time>
      </trkpt>
      <trkpt lat="42.76963" lon="1.35539">
        <ele>1085.6006</ele>
        <time>2025-09-13T13:47:38+02:00</time>
      </trkpt>
      <trkpt lat="42.76963" lon="1.35539">
        <ele>1085.6006</ele>
        <time>2025-09-13T13:47:39+02:00</time>
      </trkpt>
      <trkpt lat="42.76963" lon="1.35539">
        <ele>1085.6006</ele>
        <time>2025-09-13T13:47:43+02:00</time>
      </trkpt>
      <trkpt lat="42.76963" lon="1.35539">
        <ele>1085.6006</ele>
        <time>2025-09-13T13:47:44+02:00</time>
      </trkpt>
      <trkpt lat="42.76963" lon="1.35539">
        <ele>1085.6006</ele>
        <time>2025-09-13T13:47:48+02:00</time>
      </trkpt>
      <trkpt lat="42.76963" lon="1.35539">
        <ele>1085.6006</ele>
        <time>2025-09-13T13:47:49+02:00</time>
      </trkpt>
      <trkpt lat="42.76963" lon="1.35539">
        <ele>1085.6006</ele>
        <time>2025-09-13T13:47:53+02:00</time>
      </trkpt>
      <trkpt lat="42.76963" lon="1.35539">
        <ele>1085.6006</ele>
        <time>2025-09-13T13:47:54+02:00</time>
      </trkpt>
      <trkpt lat="42.76963" lon="1.35539">
        <ele>1085.6006</ele>
        <time>2025-09-13T13:47:58+02:00</time>
      </trkpt>
      <trkpt lat="42.76963" lon="1.35539">
        <ele>1085.6006</ele>
        <time>2025-09-13T13:47:59+02:00</time>
      </trkpt>
      <trkpt lat="42.76963" lon="1.35539">
        <ele>1085.6006</ele>
        <time>2025-09-13T13:48:03+02:00</time>
      </trkpt>
      <trkpt lat="42.76963" lon="1.35539">
        <ele>1085.6006</ele>
        <time>2025-09-13T13:48:04+02:00</time>
      </trkpt>
      <trkpt lat="42.76963" lon="1.35539">
        <ele>1085.6006</ele>
        <time>2025-09-13T13:48:08+02:00</time>
      </trkpt>
      <trkpt lat="42.76963" lon="1.35539">
        <ele>1085.6006</ele>
        <time>2025-09-13T13:48:09+02:00</time>
      </trkpt>
      <trkpt lat="42.76963" lon="1.35539">
        <ele>1085.6006</ele>
        <time>2025-09-13T13:48:13+02:00</time>
      </trkpt>
      <trkpt lat="42.76963" lon="1.35539">
        <ele>1085.6006</ele>
        <time>2025-09-13T13:48:14+02:00</time>
      </trkpt>
      <trkpt lat="42.76963" lon="1.35539">
        <ele>1085.6006</ele>
        <time>2025-09-13T13:48:18+02:00</time>
      </trkpt>
      <trkpt lat="42.76963" lon="1.35539">
        <ele>1085.6006</ele>
        <time>2025-09-13T13:48:19+02:00</time>
      </trkpt>
      <trkpt lat="42.76963" lon="1.35539">
        <ele>1085.6006</ele>
        <time>2025-09-13T13:48:23+02:00</time>
      </trkpt>
      <trkpt lat="42.76963" lon="1.35539">
        <ele>1085.6006</ele>
        <time>2025-09-13T13:48:24+02:00</time>
      </trkpt>
      <trkpt lat="42.76963" lon="1.35539">
        <ele>1085.6006</ele>
        <time>2025-09-13T13:48:28+02:00</time>
      </trkpt>
      <trkpt lat="42.76963" lon="1.35539">
        <ele>1085.6006</ele>
        <time>2025-09-13T13:48:29+02:00</time>
      </trkpt>
      <trkpt lat="42.76963" lon="1.35539">
        <ele>1085.6006</ele>
        <time>2025-09-13T13:48:33+02:00</time>
      </trkpt>
      <trkpt lat="42.76963" lon="1.35539">
        <ele>1085.6006</ele>
        <time>2025-09-13T13:48:34+02:00</time>
      </trkpt>
      <trkpt lat="42.76963" lon="1.35539">
        <ele>1085.6006</ele>
        <time>2025-09-13T13:48:38+02:00</time>
      </trkpt>
      <trkpt lat="42.76963" lon="1.35539">
        <ele>1085.6006</ele>
        <time>2025-09-13T13:48:39+02:00</time>
      </trkpt>
      <trkpt lat="42.76963" lon="1.35539">
        <ele>1085.6006</ele>
        <time>2025-09-13T13:48:43+02:00</time>
      </trkpt>
      <trkpt lat="42.76963" lon="1.35539">
        <ele>1085.6006</ele>
        <time>2025-09-13T13:48:44+02:00</time>
      </trkpt>
      <trkpt lat="42.76963" lon="1.35539">
        <ele>1085.6006</ele>
        <time>2025-09-13T13:48:48+02:00</time>
      </trkpt>
      <trkpt lat="42.76963" lon="1.35539">
        <ele>1085.6006</ele>
        <time>2025-09-13T13:48:49+02:00</time>
      </trkpt>
      <trkpt lat="42.76963" lon="1.35539">
        <ele>1085.6006</ele>
        <time>2025-09-13T13:48:53+02:00</time>
      </trkpt>
      <trkpt lat="42.76963" lon="1.35539">
        <ele>1085.6006</ele>
        <time>2025-09-13T13:48:54+02:00</time>
      </trkpt>
      <trkpt lat="42.76963" lon="1.35539">
        <ele>1085.6006</ele>
        <time>2025-09-13T13:48:58+02:00</time>
      </trkpt>
      <trkpt lat="42.76963" lon="1.35539">
        <ele>1085.6006</ele>
        <time>2025-09-13T13:48:59+02:00</time>
      </trkpt>
      <trkpt lat="42.76963" lon="1.35539">
        <ele>1085.6006</ele>
        <time>2025-09-13T13:49:03+02:00</time>
      </trkpt>
      <trkpt lat="42.76963" lon="1.35539">
        <ele>1085.6006</ele>
        <time>2025-09-13T13:49:04+02:00</time>
      </trkpt>
      <trkpt lat="42.76963" lon="1.35539">
        <ele>1085.6006</ele>
        <time>2025-09-13T13:49:08+02:00</time>
      </trkpt>
      <trkpt lat="42.76963" lon="1.35539">
        <ele>1085.6006</ele>
        <time>2025-09-13T13:49:09+02:00</time>
      </trkpt>
      <trkpt lat="42.76963" lon="1.35539">
        <ele>1085.6006</ele>
        <time>2025-09-13T13:49:13+02:00</time>
      </trkpt>
      <trkpt lat="42.76963" lon="1.35539">
        <ele>1085.6006</ele>
        <time>2025-09-13T13:49:14+02:00</time>
      </trkpt>
      <trkpt lat="42.76963" lon="1.35539">
        <ele>1085.6006</ele>
        <time>2025-09-13T13:49:18+02:00</time>
      </trkpt>
      <trkpt lat="42.76963" lon="1.35539">
        <ele>1085.6006</ele>
        <time>2025-09-13T13:49:19+02:00</time>
      </trkpt>
      <trkpt lat="42.76963" lon="1.35539">
        <ele>1085.6006</ele>
        <time>2025-09-13T13:49:23+02:00</time>
      </trkpt>
      <trkpt lat="42.76963" lon="1.35539">
        <ele>1085.6006</ele>
        <time>2025-09-13T13:49:24+02:00</time>
      </trkpt>
      <trkpt lat="42.76963" lon="1.35538">
        <ele>1085.6006</ele>
        <time>2025-09-13T13:49:28+02:00</time>
      </trkpt>
      <trkpt lat="42.76963" lon="1.35538">
        <ele>1085.6006</ele>
        <time>2025-09-13T13:49:29+02:00</time>
      </trkpt>
      <trkpt lat="42.76963" lon="1.35538">
        <ele>1085.6006</ele>
        <time>2025-09-13T13:49:33+02:00</time>
      </trkpt>
      <trkpt lat="42.76963" lon="1.35538">
        <ele>1085.6006</ele>
        <time>2025-09-13T13:49:34+02:00</time>
      </trkpt>
      <trkpt lat="42.76963" lon="1.35538">
        <ele>1085.6006</ele>
        <time>2025-09-13T13:49:38+02:00</time>
      </trkpt>
      <trkpt lat="42.76963" lon="1.35538">
        <ele>1085.6006</ele>
        <time>2025-09-13T13:49:39+02:00</time>
      </trkpt>
      <trkpt lat="42.76963" lon="1.35538">
        <ele>1085.6006</ele>
        <time>2025-09-13T13:49:43+02:00</time>
      </trkpt>
      <trkpt lat="42.76963" lon="1.35538">
        <ele>1085.6006</ele>
        <time>2025-09-13T13:49:44+02:00</time>
      </trkpt>
      <trkpt lat="42.76963" lon="1.35538">
        <ele>1085.6006</ele>
        <time>2025-09-13T13:49:48+02:00</time>
      </trkpt>
      <trkpt lat="42.76963" lon="1.35538">
        <ele>1085.6006</ele>
        <time>2025-09-13T13:49:49+02:00</time>
      </trkpt>
      <trkpt lat="42.76963" lon="1.35538">
        <ele>1085.6006</ele>
        <time>2025-09-13T13:49:53+02:00</time>
      </trkpt>
      <trkpt lat="42.76963" lon="1.35538">
        <ele>1085.6006</ele>
        <time>2025-09-13T13:49:54+02:00</time>
      </trkpt>
      <trkpt lat="42.76963" lon="1.35538">
        <ele>1085.6006</ele>
        <time>2025-09-13T13:49:58+02:00</time>
      </trkpt>
      <trkpt lat="42.76963" lon="1.35538">
        <ele>1085.6006</ele>
        <time>2025-09-13T13:49:59+02:00</time>
      </trkpt>
      <trkpt lat="42.76964" lon="1.35538">
        <ele>1085.5</ele>
        <time>2025-09-13T13:50:03+02:00</time>
      </trkpt>
      <trkpt lat="42.76964" lon="1.35538">
        <ele>1085.5</ele>
        <time>2025-09-13T13:50:04+02:00</time>
      </trkpt>
      <trkpt lat="42.76964" lon="1.35538">
        <ele>1085.5</ele>
        <time>2025-09-13T13:50:08+02:00</time>
      </trkpt>
      <trkpt lat="42.76964" lon="1.35538">
        <ele>1085.5</ele>
        <time>2025-09-13T13:50:09+02:00</time>
      </trkpt>
      <trkpt lat="42.76964" lon="1.35538">
        <ele>1085.5</ele>
        <time>2025-09-13T13:50:13+02:00</time>
      </trkpt>
      <trkpt lat="42.76964" lon="1.35538">
        <ele>1085.5</ele>
        <time>2025-09-13T13:50:14+02:00</time>
      </trkpt>
      <trkpt lat="42.76964" lon="1.35538">
        <ele>1085.5</ele>
        <time>2025-09-13T13:50:18+02:00</time>
      </trkpt>
      <trkpt lat="42.76964" lon="1.35538">
        <ele>1085.5</ele>
        <time>2025-09-13T13:50:19+02:00</time>
      </trkpt>
      <trkpt lat="42.76964" lon="1.35538">
        <ele>1085.5</ele>
        <time>2025-09-13T13:50:23+02:00</time>
      </trkpt>
      <trkpt lat="42.76964" lon="1.35538">
        <ele>1085.5</ele>
        <time>2025-09-13T13:50:24+02:00</time>
      </trkpt>
      <trkpt lat="42.76964" lon="1.35538">
        <ele>1085.5</ele>
        <time>2025-09-13T13:50:28+02:00</time>
      </trkpt>
      <trkpt lat="42.76964" lon="1.35538">
        <ele>1085.5</ele>
        <time>2025-09-13T13:50:29+02:00</time>
      </trkpt>
      <trkpt lat="42.76964" lon="1.35538">
        <ele>1085.5</ele>
        <time>2025-09-13T13:50:33+02:00</time>
      </trkpt>
      <trkpt lat="42.76964" lon="1.35538">
        <ele>1085.5</ele>
        <time>2025-09-13T13:50:34+02:00</time>
      </trkpt>
      <trkpt lat="42.76964" lon="1.35537">
        <ele>1085.5</ele>
        <time>2025-09-13T13:50:38+02:00</time>
      </trkpt>
      <trkpt lat="42.76964" lon="1.35537">
        <ele>1085.5</ele>
        <time>2025-09-13T13:50:39+02:00</time>
      </trkpt>
      <trkpt lat="42.76964" lon="1.35537">
        <ele>1085.5</ele>
        <time>2025-09-13T13:50:43+02:00</time>
      </trkpt>
      <trkpt lat="42.76964" lon="1.35537">
        <ele>1085.5</ele>
        <time>2025-09-13T13:50:44+02:00</time>
      </trkpt>
      <trkpt lat="42.76964" lon="1.35537">
        <ele>1085.5</ele>
        <time>2025-09-13T13:50:48+02:00</time>
      </trkpt>
      <trkpt lat="42.76964" lon="1.35537">
        <ele>1085.5</ele>
        <time>2025-09-13T13:50:49+02:00</time>
      </trkpt>
      <trkpt lat="42.76964" lon="1.35537">
        <ele>1085.5</ele>
        <time>2025-09-13T13:50:53+02:00</time>
      </trkpt>
      <trkpt lat="42.76964" lon="1.35537">
        <ele>1085.5</ele>
        <time>2025-09-13T13:50:54+02:00</time>
      </trkpt>
      <trkpt lat="42.76964" lon="1.35537">
        <ele>1085.5</ele>
        <time>2025-09-13T13:50:58+02:00</time>
      </trkpt>
      <trkpt lat="42.76964" lon="1.35538">
        <ele>1085.5</ele>
        <time>2025-09-13T13:50:59+02:00</time>
      </trkpt>
      <trkpt lat="42.76964" lon="1.35538">
        <ele>1085.5</ele>
        <time>2025-09-13T13:51:03+02:00</time>
      </trkpt>
      <trkpt lat="42.76964" lon="1.35538">
        <ele>1085.5</ele>
        <time>2025-09-13T13:51:04+02:00</time>
      </trkpt>
      <trkpt lat="42.76964" lon="1.35538">
        <ele>1085.5</ele>
        <time>2025-09-13T13:51:08+02:00</time>
      </trkpt>
      <trkpt lat="42.76964" lon="1.35538">
        <ele>1085.5</ele>
        <time>2025-09-13T13:51:09+02:00</time>
      </trkpt>
      <trkpt lat="42.76965" lon="1.35537">
        <ele>1085.5</ele>
        <time>2025-09-13T13:51:13+02:00</time>
      </trkpt>
      <trkpt lat="42.76964" lon="1.35537">
        <ele>1085.5</ele>
        <time>2025-09-13T13:51:14+02:00</time>
      </trkpt>
      <trkpt lat="42.76964" lon="1.35537">
        <ele>1085.5</ele>
        <time>2025-09-13T13:51:18+02:00</time>
      </trkpt>
      <trkpt lat="42.76964" lon="1.35537">
        <ele>1085.5</ele>
        <time>2025-09-13T13:51:19+02:00</time>
      </trkpt>
      <trkpt lat="42.76964" lon="1.35537">
        <ele>1085.5</ele>
        <time>2025-09-13T13:51:23+02:00</time>
      </trkpt>
      <trkpt lat="42.76964" lon="1.35537">
        <ele>1085.5</ele>
        <time>2025-09-13T13:51:24+02:00</time>
      </trkpt>
      <trkpt lat="42.76964" lon="1.35537">
        <ele>1085.5</ele>
        <time>2025-09-13T13:51:28+02:00</time>
      </trkpt>
      <trkpt lat="42.76964" lon="1.35537">
        <ele>1085.5</ele>
        <time>2025-09-13T13:51:29+02:00</time>
      </trkpt>
      <trkpt lat="42.76964" lon="1.35537">
        <ele>1085.5</ele>
        <time>2025-09-13T13:51:33+02:00</time>
      </trkpt>
      <trkpt lat="42.76964" lon="1.35537">
        <ele>1085.5</ele>
        <time>2025-09-13T13:51:34+02:00</time>
      </trkpt>
      <trkpt lat="42.76964" lon="1.35537">
        <ele>1085.5</ele>
        <time>2025-09-13T13:51:38+02:00</time>
      </trkpt>
      <trkpt lat="42.76964" lon="1.35537">
        <ele>1085.5</ele>
        <time>2025-09-13T13:51:39+02:00</time>
      </trkpt>
      <trkpt lat="42.76964" lon="1.35537">
        <ele>1085.5</ele>
        <time>2025-09-13T13:51:43+02:00</time>
      </trkpt>
      <trkpt lat="42.76964" lon="1.35537">
        <ele>1085.5</ele>
        <time>2025-09-13T13:51:44+02:00</time>
      </trkpt>
      <trkpt lat="42.76964" lon="1.35537">
        <ele>1085.5</ele>
        <time>2025-09-13T13:51:48+02:00</time>
      </trkpt>
      <trkpt lat="42.76964" lon="1.35537">
        <ele>1085.5</ele>
        <time>2025-09-13T13:51:49+02:00</time>
      </trkpt>
      <trkpt lat="42.76964" lon="1.35537">
        <ele>1085.5</ele>
        <time>2025-09-13T13:51:53+02:00</time>
      </trkpt>
      <trkpt lat="42.76964" lon="1.35537">
        <ele>1085.5</ele>
        <time>2025-09-13T13:51:54+02:00</time>
      </trkpt>
      <trkpt lat="42.76964" lon="1.35537">
        <ele>1085.5</ele>
        <time>2025-09-13T13:51:58+02:00</time>
      </trkpt>
      <trkpt lat="42.76964" lon="1.35537">
        <ele>1085.5</ele>
        <time>2025-09-13T13:51:59+02:00</time>
      </trkpt>
      <trkpt lat="42.76964" lon="1.35537">
        <ele>1085.5</ele>
        <time>2025-09-13T13:52:03+02:00</time>
      </trkpt>
      <trkpt lat="42.76964" lon="1.35537">
        <ele>1085.5</ele>
        <time>2025-09-13T13:52:04+02:00</time>
      </trkpt>
      <trkpt lat="42.76964" lon="1.35537">
        <ele>1085.5</ele>
        <time>2025-09-13T13:52:08+02:00</time>
      </trkpt>
      <trkpt lat="42.76964" lon="1.35537">
        <ele>1085.5</ele>
        <time>2025-09-13T13:52:09+02:00</time>
      </trkpt>
      <trkpt lat="42.76964" lon="1.35537">
        <ele>1085.5</ele>
        <time>2025-09-13T13:52:13+02:00</time>
      </trkpt>
      <trkpt lat="42.76964" lon="1.35537">
        <ele>1085.5</ele>
        <time>2025-09-13T13:52:14+02:00</time>
      </trkpt>
      <trkpt lat="42.76964" lon="1.35537">
        <ele>1085.5</ele>
        <time>2025-09-13T13:52:18+02:00</time>
      </trkpt>
      <trkpt lat="42.76964" lon="1.35537">
        <ele>1085.5</ele>
        <time>2025-09-13T13:52:19+02:00</time>
      </trkpt>
      <trkpt lat="42.76964" lon="1.35537">
        <ele>1085.5</ele>
        <time>2025-09-13T13:52:23+02:00</time>
      </trkpt>
      <trkpt lat="42.76964" lon="1.35537">
        <ele>1085.5</ele>
        <time>2025-09-13T13:52:24+02:00</time>
      </trkpt>
      <trkpt lat="42.76964" lon="1.35537">
        <ele>1085.5</ele>
        <time>2025-09-13T13:52:28+02:00</time>
      </trkpt>
      <trkpt lat="42.76964" lon="1.35537">
        <ele>1085.5</ele>
        <time>2025-09-13T13:52:29+02:00</time>
      </trkpt>
      <trkpt lat="42.76964" lon="1.35537">
        <ele>1085.5</ele>
        <time>2025-09-13T13:52:33+02:00</time>
      </trkpt>
      <trkpt lat="42.76964" lon="1.35537">
        <ele>1085.5</ele>
        <time>2025-09-13T13:52:34+02:00</time>
      </trkpt>
      <trkpt lat="42.76964" lon="1.35537">
        <ele>1085.5</ele>
        <time>2025-09-13T13:52:38+02:00</time>
      </trkpt>
      <trkpt lat="42.76964" lon="1.35537">
        <ele>1085.5</ele>
        <time>2025-09-13T13:52:39+02:00</time>
      </trkpt>
      <trkpt lat="42.76964" lon="1.35537">
        <ele>1085.5</ele>
        <time>2025-09-13T13:52:43+02:00</time>
      </trkpt>
      <trkpt lat="42.76964" lon="1.35537">
        <ele>1085.5</ele>
        <time>2025-09-13T13:52:44+02:00</time>
      </trkpt>
      <trkpt lat="42.76964" lon="1.35537">
        <ele>1085.5</ele>
        <time>2025-09-13T13:52:48+02:00</time>
      </trkpt>
      <trkpt lat="42.76964" lon="1.35537">
        <ele>1085.5</ele>
        <time>2025-09-13T13:52:49+02:00</time>
      </trkpt>
      <trkpt lat="42.76964" lon="1.35537">
        <ele>1085.5</ele>
        <time>2025-09-13T13:52:53+02:00</time>
      </trkpt>
      <trkpt lat="42.76964" lon="1.35537">
        <ele>1085.5</ele>
        <time>2025-09-13T13:52:54+02:00</time>
      </trkpt>
      <trkpt lat="42.76964" lon="1.35537">
        <ele>1085.5</ele>
        <time>2025-09-13T13:52:58+02:00</time>
      </trkpt>
      <trkpt lat="42.76964" lon="1.35537">
        <ele>1085.5</ele>
        <time>2025-09-13T13:52:59+02:00</time>
      </trkpt>
      <trkpt lat="42.76964" lon="1.35537">
        <ele>1085.5</ele>
        <time>2025-09-13T13:53:03+02:00</time>
      </trkpt>
      <trkpt lat="42.76964" lon="1.35537">
        <ele>1085.5</ele>
        <time>2025-09-13T13:53:04+02:00</time>
      </trkpt>
      <trkpt lat="42.76964" lon="1.35537">
        <ele>1085.5</ele>
        <time>2025-09-13T13:53:08+02:00</time>
      </trkpt>
      <trkpt lat="42.76964" lon="1.35537">
        <ele>1085.5</ele>
        <time>2025-09-13T13:53:09+02:00</time>
      </trkpt>
      <trkpt lat="42.76964" lon="1.35537">
        <ele>1085.5</ele>
        <time>2025-09-13T13:53:13+02:00</time>
      </trkpt>
      <trkpt lat="42.76964" lon="1.35537">
        <ele>1085.5</ele>
        <time>2025-09-13T13:53:14+02:00</time>
      </trkpt>
      <trkpt lat="42.76964" lon="1.35537">
        <ele>1085.5</ele>
        <time>2025-09-13T13:53:18+02:00</time>
      </trkpt>
      <trkpt lat="42.76964" lon="1.35537">
        <ele>1085.5</ele>
        <time>2025-09-13T13:53:19+02:00</time>
      </trkpt>
      <trkpt lat="42.76964" lon="1.35537">
        <ele>1085.5</ele>
        <time>2025-09-13T13:53:23+02:00</time>
      </trkpt>
      <trkpt lat="42.76964" lon="1.35537">
        <ele>1085.5</ele>
        <time>2025-09-13T13:53:24+02:00</time>
      </trkpt>
      <trkpt lat="42.76964" lon="1.35537">
        <ele>1085.5</ele>
        <time>2025-09-13T13:53:28+02:00</time>
      </trkpt>
      <trkpt lat="42.76964" lon="1.35537">
        <ele>1085.5</ele>
        <time>2025-09-13T13:53:29+02:00</time>
      </trkpt>
      <trkpt lat="42.76964" lon="1.35537">
        <ele>1085.5</ele>
        <time>2025-09-13T13:53:33+02:00</time>
      </trkpt>
      <trkpt lat="42.76964" lon="1.35537">
        <ele>1085.5</ele>
        <time>2025-09-13T13:53:34+02:00</time>
      </trkpt>
      <trkpt lat="42.76964" lon="1.35537">
        <ele>1085.5</ele>
        <time>2025-09-13T13:53:38+02:00</time>
      </trkpt>
      <trkpt lat="42.76964" lon="1.35537">
        <ele>1085.5</ele>
        <time>2025-09-13T13:53:39+02:00</time>
      </trkpt>
      <trkpt lat="42.76964" lon="1.35537">
        <ele>1085.5</ele>
        <time>2025-09-13T13:53:43+02:00</time>
      </trkpt>
      <trkpt lat="42.76964" lon="1.35537">
        <ele>1085.5</ele>
        <time>2025-09-13T13:53:44+02:00</time>
      </trkpt>
      <trkpt lat="42.76964" lon="1.35537">
        <ele>1085.5</ele>
        <time>2025-09-13T13:53:49+02:00</time>
      </trkpt>
      <trkpt lat="42.76964" lon="1.35537">
        <ele>1085.5</ele>
        <time>2025-09-13T13:53:50+02:00</time>
      </trkpt>
      <trkpt lat="42.76963" lon="1.35537">
        <ele>1085.6006</ele>
        <time>2025-09-13T13:53:54+02:00</time>
      </trkpt>
      <trkpt lat="42.76963" lon="1.35536">
        <ele>1085.6006</ele>
        <time>2025-09-13T13:53:55+02:00</time>
      </trkpt>
      <trkpt lat="42.76963" lon="1.35535">
        <ele>1082.2998</ele>
        <time>2025-09-13T13:53:59+02:00</time>
      </trkpt>
      <trkpt lat="42.76963" lon="1.35535">
        <ele>1082.2998</ele>
        <time>2025-09-13T13:54:00+02:00</time>
      </trkpt>
      <trkpt lat="42.76964" lon="1.35536">
        <ele>1085.5</ele>
        <time>2025-09-13T13:54:06+02:00</time>
      </trkpt>
      <trkpt lat="42.76964" lon="1.35537">
        <ele>1085.5</ele>
        <time>2025-09-13T13:54:07+02:00</time>
      </trkpt>
      <trkpt lat="42.76964" lon="1.35537">
        <ele>1085.5</ele>
        <time>2025-09-13T13:54:11+02:00</time>
      </trkpt>
      <trkpt lat="42.76964" lon="1.35537">
        <ele>1085.5</ele>
        <time>2025-09-13T13:54:12+02:00</time>
      </trkpt>
      <trkpt lat="42.76965" lon="1.35537">
        <ele>1085.5</ele>
        <time>2025-09-13T13:54:16+02:00</time>
      </trkpt>
      <trkpt lat="42.76965" lon="1.35537">
        <ele>1085.5</ele>
        <time>2025-09-13T13:54:17+02:00</time>
      </trkpt>
      <trkpt lat="42.76964" lon="1.35537">
        <ele>1085.5</ele>
        <time>2025-09-13T13:54:22+02:00</time>
      </trkpt>
      <trkpt lat="42.76964" lon="1.35537">
        <ele>1085.5</ele>
        <time>2025-09-13T13:54:23+02:00</time>
      </trkpt>
      <trkpt lat="42.76964" lon="1.35538">
        <ele>1085.5</ele>
        <time>2025-09-13T13:54:27+02:00</time>
      </trkpt>
      <trkpt lat="42.76964" lon="1.35538">
        <ele>1085.5</ele>
        <time>2025-09-13T13:54:28+02:00</time>
      </trkpt>
      <trkpt lat="42.76964" lon="1.35538">
        <ele>1085.5</ele>
        <time>2025-09-13T13:54:32+02:00</time>
      </trkpt>
      <trkpt lat="42.76964" lon="1.35537">
        <ele>1085.5</ele>
        <time>2025-09-13T13:54:33+02:00</time>
      </trkpt>
      <trkpt lat="42.76964" lon="1.35538">
        <ele>1085.5</ele>
        <time>2025-09-13T13:54:37+02:00</time>
      </trkpt>
      <trkpt lat="42.76964" lon="1.35538">
        <ele>1085.5</ele>
        <time>2025-09-13T13:54:38+02:00</time>
      </trkpt>
      <trkpt lat="42.76964" lon="1.35537">
        <ele>1085.5</ele>
        <time>2025-09-13T13:54:42+02:00</time>
      </trkpt>
      <trkpt lat="42.76964" lon="1.35537">
        <ele>1085.5</ele>
        <time>2025-09-13T13:54:43+02:00</time>
      </trkpt>
      <trkpt lat="42.76964" lon="1.35537">
        <ele>1085.5</ele>
        <time>2025-09-13T13:54:47+02:00</time>
      </trkpt>
      <trkpt lat="42.76964" lon="1.35537">
        <ele>1085.5</ele>
        <time>2025-09-13T13:54:48+02:00</time>
      </trkpt>
      <trkpt lat="42.76964" lon="1.35537">
        <ele>1085.5</ele>
        <time>2025-09-13T13:54:52+02:00</time>
      </trkpt>
      <trkpt lat="42.76964" lon="1.35537">
        <ele>1085.5</ele>
        <time>2025-09-13T13:54:53+02:00</time>
      </trkpt>
      <trkpt lat="42.76965" lon="1.35537">
        <ele>1085.5</ele>
        <time>2025-09-13T13:54:57+02:00</time>
      </trkpt>
      <trkpt lat="42.76965" lon="1.35537">
        <ele>1085.5</ele>
        <time>2025-09-13T13:54:58+02:00</time>
      </trkpt>
      <trkpt lat="42.76965" lon="1.35537">
        <ele>1085.5</ele>
        <time>2025-09-13T13:55:02+02:00</time>
      </trkpt>
      <trkpt lat="42.76965" lon="1.35537">
        <ele>1085.5</ele>
        <time>2025-09-13T13:55:03+02:00</time>
      </trkpt>
      <trkpt lat="42.76965" lon="1.35537">
        <ele>1085.5</ele>
        <time>2025-09-13T13:55:07+02:00</time>
      </trkpt>
      <trkpt lat="42.76965" lon="1.35537">
        <ele>1085.5</ele>
        <time>2025-09-13T13:55:08+02:00</time>
      </trkpt>
      <trkpt lat="42.76965" lon="1.35537">
        <ele>1085.5</ele>
        <time>2025-09-13T13:55:12+02:00</time>
      </trkpt>
      <trkpt lat="42.76965" lon="1.35537">
        <ele>1085.5</ele>
        <time>2025-09-13T13:55:13+02:00</time>
      </trkpt>
      <trkpt lat="42.76965" lon="1.35537">
        <ele>1085.5</ele>
        <time>2025-09-13T13:55:17+02:00</time>
      </trkpt>
      <trkpt lat="42.76965" lon="1.35537">
        <ele>1085.5</ele>
        <time>2025-09-13T13:55:18+02:00</time>
      </trkpt>
      <trkpt lat="42.76964" lon="1.35538">
        <ele>1085.5</ele>
        <time>2025-09-13T13:55:22+02:00</time>
      </trkpt>
      <trkpt lat="42.76964" lon="1.35538">
        <ele>1085.5</ele>
        <time>2025-09-13T13:55:23+02:00</time>
      </trkpt>
      <trkpt lat="42.76965" lon="1.35538">
        <ele>1085.5</ele>
        <time>2025-09-13T13:55:27+02:00</time>
      </trkpt>
      <trkpt lat="42.76965" lon="1.35538">
        <ele>1085.5</ele>
        <time>2025-09-13T13:55:28+02:00</time>
      </trkpt>
      <trkpt lat="42.76965" lon="1.35538">
        <ele>1085.5</ele>
        <time>2025-09-13T13:55:32+02:00</time>
      </trkpt>
      <trkpt lat="42.76965" lon="1.35538">
        <ele>1085.5</ele>
        <time>2025-09-13T13:55:33+02:00</time>
      </trkpt>
      <trkpt lat="42.76966" lon="1.35538">
        <ele>1085.5</ele>
        <time>2025-09-13T13:55:37+02:00</time>
      </trkpt>
      <trkpt lat="42.76966" lon="1.35538">
        <ele>1085.5</ele>
        <time>2025-09-13T13:55:38+02:00</time>
      </trkpt>
      <trkpt lat="42.76966" lon="1.35536">
        <ele>1085.5</ele>
        <time>2025-09-13T13:55:42+02:00</time>
      </trkpt>
      <trkpt lat="42.76965" lon="1.35536">
        <ele>1085.5</ele>
        <time>2025-09-13T13:55:43+02:00</time>
      </trkpt>
      <trkpt lat="42.76965" lon="1.35536">
        <ele>1085.5</ele>
        <time>2025-09-13T13:55:47+02:00</time>
      </trkpt>
      <trkpt lat="42.76965" lon="1.35536">
        <ele>1085.5</ele>
        <time>2025-09-13T13:55:48+02:00</time>
      </trkpt>
      <trkpt lat="42.76965" lon="1.35536">
        <ele>1085.5</ele>
        <time>2025-09-13T13:55:52+02:00</time>
      </trkpt>
      <trkpt lat="42.76965" lon="1.35536">
        <ele>1085.5</ele>
        <time>2025-09-13T13:55:57+02:00</time>
      </trkpt>
      <trkpt lat="42.76965" lon="1.35536">
        <ele>1085.5</ele>
        <time>2025-09-13T13:55:58+02:00</time>
      </trkpt>
      <trkpt lat="42.76966" lon="1.35536">
        <ele>1085.5</ele>
        <time>2025-09-13T13:56:02+02:00</time>
      </trkpt>
      <trkpt lat="42.76966" lon="1.35536">
        <ele>1085.5</ele>
        <time>2025-09-13T13:56:03+02:00</time>
      </trkpt>
      <trkpt lat="42.76966" lon="1.35536">
        <ele>1085.5</ele>
        <time>2025-09-13T13:56:07+02:00</time>
      </trkpt>
      <trkpt lat="42.76966" lon="1.35536">
        <ele>1085.5</ele>
        <time>2025-09-13T13:56:08+02:00</time>
      </trkpt>
      <trkpt lat="42.76965" lon="1.35535">
        <ele>1082.2002</ele>
        <time>2025-09-13T13:56:12+02:00</time>
      </trkpt>
      <trkpt lat="42.76965" lon="1.35535">
        <ele>1082.2002</ele>
        <time>2025-09-13T13:56:13+02:00</time>
      </trkpt>
      <trkpt lat="42.76965" lon="1.35534">
        <ele>1082.2002</ele>
        <time>2025-09-13T13:56:17+02:00</time>
      </trkpt>
      <trkpt lat="42.76965" lon="1.35534">
        <ele>1082.2002</ele>
        <time>2025-09-13T13:56:18+02:00</time>
      </trkpt>
      <trkpt lat="42.76965" lon="1.35534">
        <ele>1082.2002</ele>
        <time>2025-09-13T13:56:22+02:00</time>
      </trkpt>
      <trkpt lat="42.76965" lon="1.35534">
        <ele>1082.2002</ele>
        <time>2025-09-13T13:56:23+02:00</time>
      </trkpt>
      <trkpt lat="42.76965" lon="1.35535">
        <ele>1082.2002</ele>
        <time>2025-09-13T13:56:27+02:00</time>
      </trkpt>
      <trkpt lat="42.76965" lon="1.35535">
        <ele>1082.2002</ele>
        <time>2025-09-13T13:56:28+02:00</time>
      </trkpt>
      <trkpt lat="42.76965" lon="1.35535">
        <ele>1082.2002</ele>
        <time>2025-09-13T13:56:32+02:00</time>
      </trkpt>
      <trkpt lat="42.76965" lon="1.35535">
        <ele>1082.2002</ele>
        <time>2025-09-13T13:56:33+02:00</time>
      </trkpt>
      <trkpt lat="42.76965" lon="1.35535">
        <ele>1082.2002</ele>
        <time>2025-09-13T13:56:37+02:00</time>
      </trkpt>
      <trkpt lat="42.76965" lon="1.35535">
        <ele>1082.2002</ele>
        <time>2025-09-13T13:56:38+02:00</time>
      </trkpt>
      <trkpt lat="42.76965" lon="1.35535">
        <ele>1082.2002</ele>
        <time>2025-09-13T13:56:42+02:00</time>
      </trkpt>
      <trkpt lat="42.76965" lon="1.35535">
        <ele>1082.2002</ele>
        <time>2025-09-13T13:56:43+02:00</time>
      </trkpt>
      <trkpt lat="42.76965" lon="1.35535">
        <ele>1082.2002</ele>
        <time>2025-09-13T13:56:47+02:00</time>
      </trkpt>
      <trkpt lat="42.76965" lon="1.35535">
        <ele>1082.2002</ele>
        <time>2025-09-13T13:56:48+02:00</time>
      </trkpt>
      <trkpt lat="42.76965" lon="1.35535">
        <ele>1082.2002</ele>
        <time>2025-09-13T13:56:52+02:00</time>
      </trkpt>
      <trkpt lat="42.76965" lon="1.35535">
        <ele>1082.2002</ele>
        <time>2025-09-13T13:56:53+02:00</time>
      </trkpt>
      <trkpt lat="42.76965" lon="1.35534">
        <ele>1082.2002</ele>
        <time>2025-09-13T13:56:57+02:00</time>
      </trkpt>
      <trkpt lat="42.76965" lon="1.35534">
        <ele>1082.2002</ele>
        <time>2025-09-13T13:56:58+02:00</time>
      </trkpt>
      <trkpt lat="42.76965" lon="1.35534">
        <ele>1082.2002</ele>
        <time>2025-09-13T13:57:02+02:00</time>
      </trkpt>
      <trkpt lat="42.76965" lon="1.35534">
        <ele>1082.2002</ele>
        <time>2025-09-13T13:57:03+02:00</time>
      </trkpt>
      <trkpt lat="42.76965" lon="1.35534">
        <ele>1082.2002</ele>
        <time>2025-09-13T13:57:07+02:00</time>
      </trkpt>
      <trkpt lat="42.76965" lon="1.35534">
        <ele>1082.2002</ele>
        <time>2025-09-13T13:57:08+02:00</time>
      </trkpt>
      <trkpt lat="42.76965" lon="1.35534">
        <ele>1082.2002</ele>
        <time>2025-09-13T13:57:12+02:00</time>
      </trkpt>
      <trkpt lat="42.76965" lon="1.35534">
        <ele>1082.2002</ele>
        <time>2025-09-13T13:57:13+02:00</time>
      </trkpt>
      <trkpt lat="42.76965" lon="1.35534">
        <ele>1082.2002</ele>
        <time>2025-09-13T13:57:17+02:00</time>
      </trkpt>
      <trkpt lat="42.76965" lon="1.35534">
        <ele>1082.2002</ele>
        <time>2025-09-13T13:57:18+02:00</time>
      </trkpt>
      <trkpt lat="42.76965" lon="1.35534">
        <ele>1082.2002</ele>
        <time>2025-09-13T13:57:22+02:00</time>
      </trkpt>
      <trkpt lat="42.76965" lon="1.35534">
        <ele>1082.2002</ele>
        <time>2025-09-13T13:57:23+02:00</time>
      </trkpt>
      <trkpt lat="42.76965" lon="1.35534">
        <ele>1082.2002</ele>
        <time>2025-09-13T13:57:27+02:00</time>
      </trkpt>
      <trkpt lat="42.76965" lon="1.35534">
        <ele>1082.2002</ele>
        <time>2025-09-13T13:57:28+02:00</time>
      </trkpt>
      <trkpt lat="42.76965" lon="1.35534">
        <ele>1082.2002</ele>
        <time>2025-09-13T13:57:32+02:00</time>
      </trkpt>
      <trkpt lat="42.76965" lon="1.35534">
        <ele>1082.2002</ele>
        <time>2025-09-13T13:57:33+02:00</time>
      </trkpt>
      <trkpt lat="42.76965" lon="1.35534">
        <ele>1082.2002</ele>
        <time>2025-09-13T13:57:37+02:00</time>
      </trkpt>
      <trkpt lat="42.76965" lon="1.35534">
        <ele>1082.2002</ele>
        <time>2025-09-13T13:57:38+02:00</time>
      </trkpt>
      <trkpt lat="42.76965" lon="1.35534">
        <ele>1082.2002</ele>
        <time>2025-09-13T13:57:42+02:00</time>
      </trkpt>
      <trkpt lat="42.76965" lon="1.35534">
        <ele>1082.2002</ele>
        <time>2025-09-13T13:57:43+02:00</time>
      </trkpt>
      <trkpt lat="42.76964" lon="1.35533">
        <ele>1082.2002</ele>
        <time>2025-09-13T13:57:47+02:00</time>
      </trkpt>
      <trkpt lat="42.76964" lon="1.35533">
        <ele>1082.2002</ele>
        <time>2025-09-13T13:57:48+02:00</time>
      </trkpt>
      <trkpt lat="42.76965" lon="1.35533">
        <ele>1082.2002</ele>
        <time>2025-09-13T13:57:52+02:00</time>
      </trkpt>
      <trkpt lat="42.76965" lon="1.35532">
        <ele>1082.2002</ele>
        <time>2025-09-13T13:57:53+02:00</time>
      </trkpt>
      <trkpt lat="42.76969" lon="1.35533">
        <ele>1082.2002</ele>
        <time>2025-09-13T13:57:57+02:00</time>
      </trkpt>
      <trkpt lat="42.7697" lon="1.35534">
        <ele>1082.2002</ele>
        <time>2025-09-13T13:57:58+02:00</time>
      </trkpt>
      <trkpt lat="42.76973" lon="1.35538">
        <ele>1085.9004</ele>
        <time>2025-09-13T13:58:03+02:00</time>
      </trkpt>
      <trkpt lat="42.76973" lon="1.3554">
        <ele>1085.9004</ele>
        <time>2025-09-13T13:58:04+02:00</time>
      </trkpt>
      <trkpt lat="42.76974" lon="1.35545">
        <ele>1089.5</ele>
        <time>2025-09-13T13:58:09+02:00</time>
      </trkpt>
      <trkpt lat="42.76975" lon="1.35546">
        <ele>1089.5</ele>
        <time>2025-09-13T13:58:10+02:00</time>
      </trkpt>
      <trkpt lat="42.76976" lon="1.35551">
        <ele>1089.5</ele>
        <time>2025-09-13T13:58:14+02:00</time>
      </trkpt>
      <trkpt lat="42.76976" lon="1.35552">
        <ele>1089.5</ele>
        <time>2025-09-13T13:58:15+02:00</time>
      </trkpt>
      <trkpt lat="42.76973" lon="1.35553">
        <ele>1093.5</ele>
        <time>2025-09-13T13:58:19+02:00</time>
      </trkpt>
      <trkpt lat="42.76972" lon="1.35553">
        <ele>1093.5</ele>
        <time>2025-09-13T13:58:20+02:00</time>
      </trkpt>
      <trkpt lat="42.76968" lon="1.3555">
        <ele>1089.2002</ele>
        <time>2025-09-13T13:58:25+02:00</time>
      </trkpt>
      <trkpt lat="42.76968" lon="1.35549">
        <ele>1089.2002</ele>
        <time>2025-09-13T13:58:26+02:00</time>
      </trkpt>
      <trkpt lat="42.76965" lon="1.35545">
        <ele>1089.2002</ele>
        <time>2025-09-13T13:58:30+02:00</time>
      </trkpt>
      <trkpt lat="42.76965" lon="1.35545">
        <ele>1089.2002</ele>
        <time>2025-09-13T13:58:31+02:00</time>
      </trkpt>
      <trkpt lat="42.76962" lon="1.35545">
        <ele>1089.1006</ele>
        <time>2025-09-13T13:58:35+02:00</time>
      </trkpt>
      <trkpt lat="42.76962" lon="1.35545">
        <ele>1089.1006</ele>
        <time>2025-09-13T13:58:36+02:00</time>
      </trkpt>
      <trkpt lat="42.76959" lon="1.35543">
        <ele>1085.6006</ele>
        <time>2025-09-13T13:58:40+02:00</time>
      </trkpt>
      <trkpt lat="42.76958" lon="1.35543">
        <ele>1085.6006</ele>
        <time>2025-09-13T13:58:41+02:00</time>
      </trkpt>
      <trkpt lat="42.76955" lon="1.35542">
        <ele>1085.9004</ele>
        <time>2025-09-13T13:58:45+02:00</time>
      </trkpt>
      <trkpt lat="42.76954" lon="1.35542">
        <ele>1085.9004</ele>
        <time>2025-09-13T13:58:46+02:00</time>
      </trkpt>
      <trkpt lat="42.76952" lon="1.35545">
        <ele>1089.2998</ele>
        <time>2025-09-13T13:58:50+02:00</time>
      </trkpt>
      <trkpt lat="42.76951" lon="1.35546">
        <ele>1089.2998</ele>
        <time>2025-09-13T13:58:51+02:00</time>
      </trkpt>
      <trkpt lat="42.76949" lon="1.35547">
        <ele>1089.7998</ele>
        <time>2025-09-13T13:58:55+02:00</time>
      </trkpt>
      <trkpt lat="42.76949" lon="1.35547">
        <ele>1089.7998</ele>
        <time>2025-09-13T13:58:56+02:00</time>
      </trkpt>
      <trkpt lat="42.76947" lon="1.35548">
        <ele>1089.7998</ele>
        <time>2025-09-13T13:59:00+02:00</time>
      </trkpt>
      <trkpt lat="42.76946" lon="1.35549">
        <ele>1089.7998</ele>
        <time>2025-09-13T13:59:01+02:00</time>
      </trkpt>
      <trkpt lat="42.76945" lon="1.35552">
        <ele>1089.7998</ele>
        <time>2025-09-13T13:59:05+02:00</time>
      </trkpt>
      <trkpt lat="42.76944" lon="1.35553">
        <ele>1094.1006</ele>
        <time>2025-09-13T13:59:06+02:00</time>
      </trkpt>
      <trkpt lat="42.76942" lon="1.35555">
        <ele>1094.1006</ele>
        <time>2025-09-13T13:59:10+02:00</time>
      </trkpt>
      <trkpt lat="42.76941" lon="1.35556">
        <ele>1094.1006</ele>
        <time>2025-09-13T13:59:11+02:00</time>
      </trkpt>
      <trkpt lat="42.76939" lon="1.35559">
        <ele>1094.1006</ele>
        <time>2025-09-13T13:59:15+02:00</time>
      </trkpt>
      <trkpt lat="42.76938" lon="1.35559">
        <ele>1094.7998</ele>
        <time>2025-09-13T13:59:16+02:00</time>
      </trkpt>
      <trkpt lat="42.76935" lon="1.3556">
        <ele>1094.7998</ele>
        <time>2025-09-13T13:59:20+02:00</time>
      </trkpt>
      <trkpt lat="42.76935" lon="1.3556">
        <ele>1094.7998</ele>
        <time>2025-09-13T13:59:21+02:00</time>
      </trkpt>
      <trkpt lat="42.76931" lon="1.3556">
        <ele>1095.6006</ele>
        <time>2025-09-13T13:59:25+02:00</time>
      </trkpt>
      <trkpt lat="42.76931" lon="1.35559">
        <ele>1095.6006</ele>
        <time>2025-09-13T13:59:26+02:00</time>
      </trkpt>
      <trkpt lat="42.76928" lon="1.35559">
        <ele>1095.6006</ele>
        <time>2025-09-13T13:59:30+02:00</time>
      </trkpt>
      <trkpt lat="42.76927" lon="1.35559">
        <ele>1095.6006</ele>
        <time>2025-09-13T13:59:31+02:00</time>
      </trkpt>
      <trkpt lat="42.76925" lon="1.35559">
        <ele>1096.5</ele>
        <time>2025-09-13T13:59:35+02:00</time>
      </trkpt>
      <trkpt lat="42.76925" lon="1.35559">
        <ele>1096.5</ele>
        <time>2025-09-13T13:59:36+02:00</time>
      </trkpt>
      <trkpt lat="42.76923" lon="1.35559">
        <ele>1096.5</ele>
        <time>2025-09-13T13:59:40+02:00</time>
      </trkpt>
      <trkpt lat="42.76923" lon="1.35559">
        <ele>1096.5</ele>
        <time>2025-09-13T13:59:41+02:00</time>
      </trkpt>
      <trkpt lat="42.76921" lon="1.3556">
        <ele>1096.5</ele>
        <time>2025-09-13T13:59:45+02:00</time>
      </trkpt>
      <trkpt lat="42.76918" lon="1.3556">
        <ele>1097.4004</ele>
        <time>2025-09-13T13:59:50+02:00</time>
      </trkpt>
      <trkpt lat="42.76917" lon="1.3556">
        <ele>1097.4004</ele>
        <time>2025-09-13T13:59:51+02:00</time>
      </trkpt>
      <trkpt lat="42.76915" lon="1.3556">
        <ele>1097.4004</ele>
        <time>2025-09-13T13:59:55+02:00</time>
      </trkpt>
      <trkpt lat="42.76915" lon="1.3556">
        <ele>1097.4004</ele>
        <time>2025-09-13T13:59:56+02:00</time>
      </trkpt>
      <trkpt lat="42.76913" lon="1.3556">
        <ele>1098.2998</ele>
        <time>2025-09-13T14:00:00+02:00</time>
      </trkpt>
      <trkpt lat="42.76913" lon="1.3556">
        <ele>1098.2998</ele>
        <time>2025-09-13T14:00:01+02:00</time>
      </trkpt>
      <trkpt lat="42.76911" lon="1.3556">
        <ele>1098.2998</ele>
        <time>2025-09-13T14:00:05+02:00</time>
      </trkpt>
      <trkpt lat="42.76911" lon="1.3556">
        <ele>1098.2998</ele>
        <time>2025-09-13T14:00:06+02:00</time>
      </trkpt>
      <trkpt lat="42.7691" lon="1.35559">
        <ele>1098.2998</ele>
        <time>2025-09-13T14:00:10+02:00</time>
      </trkpt>
      <trkpt lat="42.76909" lon="1.35559">
        <ele>1098.2998</ele>
        <time>2025-09-13T14:00:11+02:00</time>
      </trkpt>
      <trkpt lat="42.76907" lon="1.35558">
        <ele>1098.2998</ele>
        <time>2025-09-13T14:00:15+02:00</time>
      </trkpt>
      <trkpt lat="42.76906" lon="1.35558">
        <ele>1099.2002</ele>
        <time>2025-09-13T14:00:16+02:00</time>
      </trkpt>
      <trkpt lat="42.76904" lon="1.35557">
        <ele>1099.2002</ele>
        <time>2025-09-13T14:00:20+02:00</time>
      </trkpt>
      <trkpt lat="42.76903" lon="1.35557">
        <ele>1099.2002</ele>
        <time>2025-09-13T14:00:21+02:00</time>
      </trkpt>
      <trkpt lat="42.76902" lon="1.35556">
        <ele>1099.2002</ele>
        <time>2025-09-13T14:00:25+02:00</time>
      </trkpt>
      <trkpt lat="42.76901" lon="1.35556">
        <ele>1099.2002</ele>
        <time>2025-09-13T14:00:26+02:00</time>
      </trkpt>
      <trkpt lat="42.769" lon="1.35555">
        <ele>1100.1006</ele>
        <time>2025-09-13T14:00:30+02:00</time>
      </trkpt>
      <trkpt lat="42.769" lon="1.35555">
        <ele>1100.1006</ele>
        <time>2025-09-13T14:00:31+02:00</time>
      </trkpt>
      <trkpt lat="42.76899" lon="1.35554">
        <ele>1100.1006</ele>
        <time>2025-09-13T14:00:35+02:00</time>
      </trkpt>
      <trkpt lat="42.76898" lon="1.35554">
        <ele>1100.1006</ele>
        <time>2025-09-13T14:00:36+02:00</time>
      </trkpt>
      <trkpt lat="42.76897" lon="1.35553">
        <ele>1100.1006</ele>
        <time>2025-09-13T14:00:39+02:00</time>
      </trkpt>
      <trkpt lat="42.76897" lon="1.35553">
        <ele>1100.1006</ele>
        <time>2025-09-13T14:00:41+02:00</time>
      </trkpt>
      <trkpt lat="42.76895" lon="1.35553">
        <ele>1100.1006</ele>
        <time>2025-09-13T14:00:45+02:00</time>
      </trkpt>
      <trkpt lat="42.76895" lon="1.35553">
        <ele>1100.1006</ele>
        <time>2025-09-13T14:00:46+02:00</time>
      </trkpt>
      <trkpt lat="42.76893" lon="1.35553">
        <ele>1101.1006</ele>
        <time>2025-09-13T14:00:50+02:00</time>
      </trkpt>
      <trkpt lat="42.76893" lon="1.35552">
        <ele>1101.1006</ele>
        <time>2025-09-13T14:00:51+02:00</time>
      </trkpt>
      <trkpt lat="42.76891" lon="1.35553">
        <ele>1101.1006</ele>
        <time>2025-09-13T14:00:55+02:00</time>
      </trkpt>
      <trkpt lat="42.7689" lon="1.35553">
        <ele>1101.1006</ele>
        <time>2025-09-13T14:00:56+02:00</time>
      </trkpt>
      <trkpt lat="42.76889" lon="1.35554">
        <ele>1101.1006</ele>
        <time>2025-09-13T14:01:00+02:00</time>
      </trkpt>
      <trkpt lat="42.76889" lon="1.35555">
        <ele>1101.1006</ele>
        <time>2025-09-13T14:01:01+02:00</time>
      </trkpt>
      <trkpt lat="42.76889" lon="1.35557">
        <ele>1101.1006</ele>
        <time>2025-09-13T14:01:05+02:00</time>
      </trkpt>
      <trkpt lat="42.76889" lon="1.35558">
        <ele>1101.1006</ele>
        <time>2025-09-13T14:01:06+02:00</time>
      </trkpt>
      <trkpt lat="42.76889" lon="1.3556">
        <ele>1101.1006</ele>
        <time>2025-09-13T14:01:10+02:00</time>
      </trkpt>
      <trkpt lat="42.76889" lon="1.3556">
        <ele>1101.1006</ele>
        <time>2025-09-13T14:01:11+02:00</time>
      </trkpt>
      <trkpt lat="42.76889" lon="1.35562">
        <ele>1104</ele>
        <time>2025-09-13T14:01:15+02:00</time>
      </trkpt>
      <trkpt lat="42.76889" lon="1.35562">
        <ele>1104</ele>
        <time>2025-09-13T14:01:16+02:00</time>
      </trkpt>
      <trkpt lat="42.76889" lon="1.35565">
        <ele>1104</ele>
        <time>2025-09-13T14:01:20+02:00</time>
      </trkpt>
      <trkpt lat="42.76889" lon="1.35567">
        <ele>1104</ele>
        <time>2025-09-13T14:01:21+02:00</time>
      </trkpt>
      <trkpt lat="42.76891" lon="1.35573">
        <ele>1107.2002</ele>
        <time>2025-09-13T14:01:25+02:00</time>
      </trkpt>
      <trkpt lat="42.76891" lon="1.35574">
        <ele>1107.2002</ele>
        <time>2025-09-13T14:01:26+02:00</time>
      </trkpt>
      <trkpt lat="42.76894" lon="1.35581">
        <ele>1110.7002</ele>
        <time>2025-09-13T14:01:30+02:00</time>
      </trkpt>
      <trkpt lat="42.76895" lon="1.35582">
        <ele>1110.1006</ele>
        <time>2025-09-13T14:01:31+02:00</time>
      </trkpt>
      <trkpt lat="42.76897" lon="1.35588">
        <ele>1113.9004</ele>
        <time>2025-09-13T14:01:35+02:00</time>
      </trkpt>
      <trkpt lat="42.76898" lon="1.35589">
        <ele>1113.9004</ele>
        <time>2025-09-13T14:01:36+02:00</time>
      </trkpt>
      <trkpt lat="42.769" lon="1.35593">
        <ele>1113.9004</ele>
        <time>2025-09-13T14:01:40+02:00</time>
      </trkpt>
      <trkpt lat="42.769" lon="1.35594">
        <ele>1113.9004</ele>
        <time>2025-09-13T14:01:41+02:00</time>
      </trkpt>
      <trkpt lat="42.76901" lon="1.35596">
        <ele>1117.4004</ele>
        <time>2025-09-13T14:01:45+02:00</time>
      </trkpt>
      <trkpt lat="42.76902" lon="1.35597">
        <ele>1117.4004</ele>
        <time>2025-09-13T14:01:46+02:00</time>
      </trkpt>
      <trkpt lat="42.76903" lon="1.35601">
        <ele>1117.4004</ele>
        <time>2025-09-13T14:01:50+02:00</time>
      </trkpt>
      <trkpt lat="42.76904" lon="1.35601">
        <ele>1117.4004</ele>
        <time>2025-09-13T14:01:51+02:00</time>
      </trkpt>
      <trkpt lat="42.76906" lon="1.35604">
        <ele>1117.4004</ele>
        <time>2025-09-13T14:01:55+02:00</time>
      </trkpt>
      <trkpt lat="42.76907" lon="1.35604">
        <ele>1121.2998</ele>
        <time>2025-09-13T14:01:56+02:00</time>
      </trkpt>
      <trkpt lat="42.76909" lon="1.35605">
        <ele>1121.2998</ele>
        <time>2025-09-13T14:02:00+02:00</time>
      </trkpt>
      <trkpt lat="42.76909" lon="1.35605">
        <ele>1121.2998</ele>
        <time>2025-09-13T14:02:01+02:00</time>
      </trkpt>
      <trkpt lat="42.7691" lon="1.35603">
        <ele>1117</ele>
        <time>2025-09-13T14:02:05+02:00</time>
      </trkpt>
      <trkpt lat="42.7691" lon="1.35603">
        <ele>1117</ele>
        <time>2025-09-13T14:02:06+02:00</time>
      </trkpt>
      <trkpt lat="42.76912" lon="1.35604">
        <ele>1121.2998</ele>
        <time>2025-09-13T14:02:10+02:00</time>
      </trkpt>
      <trkpt lat="42.76912" lon="1.35605">
        <ele>1121.2998</ele>
        <time>2025-09-13T14:02:11+02:00</time>
      </trkpt>
      <trkpt lat="42.76913" lon="1.35606">
        <ele>1121</ele>
        <time>2025-09-13T14:02:15+02:00</time>
      </trkpt>
      <trkpt lat="42.76913" lon="1.35605">
        <ele>1121.2998</ele>
        <time>2025-09-13T14:02:16+02:00</time>
      </trkpt>
      <trkpt lat="42.76913" lon="1.35605">
        <ele>1121.2998</ele>
        <time>2025-09-13T14:02:20+02:00</time>
      </trkpt>
      <trkpt lat="42.76913" lon="1.35605">
        <ele>1121.2998</ele>
        <time>2025-09-13T14:02:21+02:00</time>
      </trkpt>
      <trkpt lat="42.76914" lon="1.35605">
        <ele>1121</ele>
        <time>2025-09-13T14:02:25+02:00</time>
      </trkpt>
      <trkpt lat="42.76915" lon="1.35605">
        <ele>1121</ele>
        <time>2025-09-13T14:02:26+02:00</time>
      </trkpt>
      <trkpt lat="42.76918" lon="1.35606">
        <ele>1121</ele>
        <time>2025-09-13T14:02:30+02:00</time>
      </trkpt>
      <trkpt lat="42.76919" lon="1.35607">
        <ele>1121</ele>
        <time>2025-09-13T14:02:31+02:00</time>
      </trkpt>
      <trkpt lat="42.76922" lon="1.3561">
        <ele>1120.7998</ele>
        <time>2025-09-13T14:02:35+02:00</time>
      </trkpt>
      <trkpt lat="42.76922" lon="1.35611">
        <ele>1120.7998</ele>
        <time>2025-09-13T14:02:36+02:00</time>
      </trkpt>
      <trkpt lat="42.76922" lon="1.35612">
        <ele>1120.7998</ele>
        <time>2025-09-13T14:02:40+02:00</time>
      </trkpt>
      <trkpt lat="42.76922" lon="1.35611">
        <ele>1120.7998</ele>
        <time>2025-09-13T14:02:41+02:00</time>
      </trkpt>
      <trkpt lat="42.76922" lon="1.35611">
        <ele>1120.7998</ele>
        <time>2025-09-13T14:02:45+02:00</time>
      </trkpt>
      <trkpt lat="42.76922" lon="1.35611">
        <ele>1120.7998</ele>
        <time>2025-09-13T14:02:46+02:00</time>
      </trkpt>
      <trkpt lat="42.76922" lon="1.35611">
        <ele>1120.7998</ele>
        <time>2025-09-13T14:02:50+02:00</time>
      </trkpt>
      <trkpt lat="42.76922" lon="1.35611">
        <ele>1120.7998</ele>
        <time>2025-09-13T14:02:51+02:00</time>
      </trkpt>
      <trkpt lat="42.76921" lon="1.3561">
        <ele>1120.7998</ele>
        <time>2025-09-13T14:02:55+02:00</time>
      </trkpt>
      <trkpt lat="42.76921" lon="1.35609">
        <ele>1120.7998</ele>
        <time>2025-09-13T14:02:56+02:00</time>
      </trkpt>
      <trkpt lat="42.76921" lon="1.35609">
        <ele>1120.7998</ele>
        <time>2025-09-13T14:03:00+02:00</time>
      </trkpt>
      <trkpt lat="42.76921" lon="1.35609">
        <ele>1120.7998</ele>
        <time>2025-09-13T14:03:01+02:00</time>
      </trkpt>
      <trkpt lat="42.76921" lon="1.35609">
        <ele>1120.7998</ele>
        <time>2025-09-13T14:03:05+02:00</time>
      </trkpt>
      <trkpt lat="42.76921" lon="1.35609">
        <ele>1120.7998</ele>
        <time>2025-09-13T14:03:06+02:00</time>
      </trkpt>
      <trkpt lat="42.76921" lon="1.35609">
        <ele>1120.7998</ele>
        <time>2025-09-13T14:03:10+02:00</time>
      </trkpt>
      <trkpt lat="42.76921" lon="1.35609">
        <ele>1120.7998</ele>
        <time>2025-09-13T14:03:11+02:00</time>
      </trkpt>
      <trkpt lat="42.7692" lon="1.35609">
        <ele>1120.7998</ele>
        <time>2025-09-13T14:03:15+02:00</time>
      </trkpt>
      <trkpt lat="42.7692" lon="1.35609">
        <ele>1120.7998</ele>
        <time>2025-09-13T14:03:16+02:00</time>
      </trkpt>
      <trkpt lat="42.76919" lon="1.35608">
        <ele>1121</ele>
        <time>2025-09-13T14:03:21+02:00</time>
      </trkpt>
      <trkpt lat="42.76919" lon="1.35608">
        <ele>1121</ele>
        <time>2025-09-13T14:03:22+02:00</time>
      </trkpt>
      <trkpt lat="42.76919" lon="1.35607">
        <ele>1121</ele>
        <time>2025-09-13T14:03:26+02:00</time>
      </trkpt>
      <trkpt lat="42.76919" lon="1.35606">
        <ele>1121</ele>
        <time>2025-09-13T14:03:27+02:00</time>
      </trkpt>
      <trkpt lat="42.76917" lon="1.35605">
        <ele>1121</ele>
        <time>2025-09-13T14:03:31+02:00</time>
      </trkpt>
      <trkpt lat="42.76916" lon="1.35604">
        <ele>1116.6006</ele>
        <time>2025-09-13T14:03:36+02:00</time>
      </trkpt>
      <trkpt lat="42.76915" lon="1.35603">
        <ele>1116.6006</ele>
        <time>2025-09-13T14:03:37+02:00</time>
      </trkpt>
      <trkpt lat="42.76911" lon="1.356">
        <ele>1117</ele>
        <time>2025-09-13T14:03:41+02:00</time>
      </trkpt>
      <trkpt lat="42.7691" lon="1.356">
        <ele>1117</ele>
        <time>2025-09-13T14:03:42+02:00</time>
      </trkpt>
      <trkpt lat="42.76905" lon="1.35599">
        <ele>1117.4004</ele>
        <time>2025-09-13T14:03:46+02:00</time>
      </trkpt>
      <trkpt lat="42.76904" lon="1.35599">
        <ele>1117.4004</ele>
        <time>2025-09-13T14:03:47+02:00</time>
      </trkpt>
      <trkpt lat="42.76901" lon="1.35598">
        <ele>1117.4004</ele>
        <time>2025-09-13T14:03:51+02:00</time>
      </trkpt>
      <trkpt lat="42.76901" lon="1.35598">
        <ele>1117.4004</ele>
        <time>2025-09-13T14:03:52+02:00</time>
      </trkpt>
      <trkpt lat="42.769" lon="1.35598">
        <ele>1117.9004</ele>
        <time>2025-09-13T14:03:56+02:00</time>
      </trkpt>
      <trkpt lat="42.76899" lon="1.35598">
        <ele>1117.9004</ele>
        <time>2025-09-13T14:03:57+02:00</time>
      </trkpt>
      <trkpt lat="42.76897" lon="1.35599">
        <ele>1117.9004</ele>
        <time>2025-09-13T14:04:01+02:00</time>
      </trkpt>
      <trkpt lat="42.76898" lon="1.35599">
        <ele>1117.9004</ele>
        <time>2025-09-13T14:04:03+02:00</time>
      </trkpt>
      <trkpt lat="42.76899" lon="1.356">
        <ele>1117.9004</ele>
        <time>2025-09-13T14:04:07+02:00</time>
      </trkpt>
      <trkpt lat="42.76899" lon="1.356">
        <ele>1117.9004</ele>
        <time>2025-09-13T14:04:08+02:00</time>
      </trkpt>
      <trkpt lat="42.76898" lon="1.35601">
        <ele>1117.9004</ele>
        <time>2025-09-13T14:04:12+02:00</time>
      </trkpt>
      <trkpt lat="42.76898" lon="1.35601">
        <ele>1117.9004</ele>
        <time>2025-09-13T14:04:13+02:00</time>
      </trkpt>
      <trkpt lat="42.76895" lon="1.35603">
        <ele>1117.9004</ele>
        <time>2025-09-13T14:04:17+02:00</time>
      </trkpt>
      <trkpt lat="42.76894" lon="1.35604">
        <ele>1122.2002</ele>
        <time>2025-09-13T14:04:18+02:00</time>
      </trkpt>
      <trkpt lat="42.7689" lon="1.35606">
        <ele>1122.2002</ele>
        <time>2025-09-13T14:04:22+02:00</time>
      </trkpt>
      <trkpt lat="42.76889" lon="1.35607">
        <ele>1122.2002</ele>
        <time>2025-09-13T14:04:23+02:00</time>
      </trkpt>
      <trkpt lat="42.76884" lon="1.35608">
        <ele>1122.4004</ele>
        <time>2025-09-13T14:04:27+02:00</time>
      </trkpt>
      <trkpt lat="42.76883" lon="1.35608">
        <ele>1122.4004</ele>
        <time>2025-09-13T14:04:28+02:00</time>
      </trkpt>
      <trkpt lat="42.76879" lon="1.35609">
        <ele>1122.6006</ele>
        <time>2025-09-13T14:04:33+02:00</time>
      </trkpt>
      <trkpt lat="42.76879" lon="1.35609">
        <ele>1122.6006</ele>
        <time>2025-09-13T14:04:34+02:00</time>
      </trkpt>
      <trkpt lat="42.76876" lon="1.35608">
        <ele>1122.6006</ele>
        <time>2025-09-13T14:04:38+02:00</time>
      </trkpt>
      <trkpt lat="42.76876" lon="1.35609">
        <ele>1122.6006</ele>
        <time>2025-09-13T14:04:39+02:00</time>
      </trkpt>
      <trkpt lat="42.76874" lon="1.35609">
        <ele>1122.7002</ele>
        <time>2025-09-13T14:04:43+02:00</time>
      </trkpt>
      <trkpt lat="42.76874" lon="1.35608">
        <ele>1122.7002</ele>
        <time>2025-09-13T14:04:44+02:00</time>
      </trkpt>
      <trkpt lat="42.76872" lon="1.35608">
        <ele>1122.7002</ele>
        <time>2025-09-13T14:04:48+02:00</time>
      </trkpt>
      <trkpt lat="42.76871" lon="1.35608">
        <ele>1122.7002</ele>
        <time>2025-09-13T14:04:49+02:00</time>
      </trkpt>
      <trkpt lat="42.76869" lon="1.35608">
        <ele>1122.7998</ele>
        <time>2025-09-13T14:04:53+02:00</time>
      </trkpt>
      <trkpt lat="42.76868" lon="1.35609">
        <ele>1122.7998</ele>
        <time>2025-09-13T14:04:54+02:00</time>
      </trkpt>
      <trkpt lat="42.76865" lon="1.3561">
        <ele>1122.7998</ele>
        <time>2025-09-13T14:04:58+02:00</time>
      </trkpt>
      <trkpt lat="42.76864" lon="1.3561">
        <ele>1122.7998</ele>
        <time>2025-09-13T14:04:59+02:00</time>
      </trkpt>
      <trkpt lat="42.76861" lon="1.35609">
        <ele>1122.7998</ele>
        <time>2025-09-13T14:05:03+02:00</time>
      </trkpt>
      <trkpt lat="42.7686" lon="1.35608">
        <ele>1122.7998</ele>
        <time>2025-09-13T14:05:04+02:00</time>
      </trkpt>
      <trkpt lat="42.76859" lon="1.35607">
        <ele>1122.7998</ele>
        <time>2025-09-13T14:05:09+02:00</time>
      </trkpt>
      <trkpt lat="42.76858" lon="1.35607">
        <ele>1122.7998</ele>
        <time>2025-09-13T14:05:10+02:00</time>
      </trkpt>
      <trkpt lat="42.76855" lon="1.35607">
        <ele>1122.9004</ele>
        <time>2025-09-13T14:05:14+02:00</time>
      </trkpt>
      <trkpt lat="42.76855" lon="1.35607">
        <ele>1122.9004</ele>
        <time>2025-09-13T14:05:15+02:00</time>
      </trkpt>
      <trkpt lat="42.76851" lon="1.35608">
        <ele>1122.9004</ele>
        <time>2025-09-13T14:05:19+02:00</time>
      </trkpt>
      <trkpt lat="42.76848" lon="1.3561">
        <ele>1123.1006</ele>
        <time>2025-09-13T14:05:24+02:00</time>
      </trkpt>
      <trkpt lat="42.76847" lon="1.3561">
        <ele>1123.1006</ele>
        <time>2025-09-13T14:05:25+02:00</time>
      </trkpt>
      <trkpt lat="42.76844" lon="1.35611">
        <ele>1123.1006</ele>
        <time>2025-09-13T14:05:29+02:00</time>
      </trkpt>
      <trkpt lat="42.76844" lon="1.35611">
        <ele>1123.4004</ele>
        <time>2025-09-13T14:05:30+02:00</time>
      </trkpt>
      <trkpt lat="42.7684" lon="1.35612">
        <ele>1123.4004</ele>
        <time>2025-09-13T14:05:34+02:00</time>
      </trkpt>
      <trkpt lat="42.7684" lon="1.35613">
        <ele>1126.7998</ele>
        <time>2025-09-13T14:05:35+02:00</time>
      </trkpt>
      <trkpt lat="42.76837" lon="1.35614">
        <ele>1126.9004</ele>
        <time>2025-09-13T14:05:39+02:00</time>
      </trkpt>
      <trkpt lat="42.76837" lon="1.35614">
        <ele>1126.9004</ele>
        <time>2025-09-13T14:05:40+02:00</time>
      </trkpt>
      <trkpt lat="42.76835" lon="1.35615">
        <ele>1126.9004</ele>
        <time>2025-09-13T14:05:44+02:00</time>
      </trkpt>
      <trkpt lat="42.76833" lon="1.35615">
        <ele>1126.9004</ele>
        <time>2025-09-13T14:05:45+02:00</time>
      </trkpt>
      <trkpt lat="42.76831" lon="1.35617">
        <ele>1127.1006</ele>
        <time>2025-09-13T14:05:49+02:00</time>
      </trkpt>
      <trkpt lat="42.7683" lon="1.35618">
        <ele>1127.1006</ele>
        <time>2025-09-13T14:05:50+02:00</time>
      </trkpt>
      <trkpt lat="42.76827" lon="1.35619">
        <ele>1127.1006</ele>
        <time>2025-09-13T14:05:54+02:00</time>
      </trkpt>
      <trkpt lat="42.76826" lon="1.35619">
        <ele>1127.1006</ele>
        <time>2025-09-13T14:05:55+02:00</time>
      </trkpt>
      <trkpt lat="42.76822" lon="1.35619">
        <ele>1127.1006</ele>
        <time>2025-09-13T14:05:59+02:00</time>
      </trkpt>
      <trkpt lat="42.76821" lon="1.35619">
        <ele>1127.1006</ele>
        <time>2025-09-13T14:06:00+02:00</time>
      </trkpt>
      <trkpt lat="42.76819" lon="1.35619">
        <ele>1127.1006</ele>
        <time>2025-09-13T14:06:04+02:00</time>
      </trkpt>
      <trkpt lat="42.76819" lon="1.35619">
        <ele>1127.1006</ele>
        <time>2025-09-13T14:06:05+02:00</time>
      </trkpt>
      <trkpt lat="42.76818" lon="1.35618">
        <ele>1127.2002</ele>
        <time>2025-09-13T14:06:09+02:00</time>
      </trkpt>
      <trkpt lat="42.76818" lon="1.35618">
        <ele>1127.2002</ele>
        <time>2025-09-13T14:06:10+02:00</time>
      </trkpt>
      <trkpt lat="42.76815" lon="1.35619">
        <ele>1127.2002</ele>
        <time>2025-09-13T14:06:14+02:00</time>
      </trkpt>
      <trkpt lat="42.76814" lon="1.3562">
        <ele>1127.2002</ele>
        <time>2025-09-13T14:06:15+02:00</time>
      </trkpt>
      <trkpt lat="42.76811" lon="1.3562">
        <ele>1127.2998</ele>
        <time>2025-09-13T14:06:19+02:00</time>
      </trkpt>
      <trkpt lat="42.7681" lon="1.3562">
        <ele>1127.2998</ele>
        <time>2025-09-13T14:06:20+02:00</time>
      </trkpt>
      <trkpt lat="42.76808" lon="1.3562">
        <ele>1127.2998</ele>
        <time>2025-09-13T14:06:24+02:00</time>
      </trkpt>
      <trkpt lat="42.76808" lon="1.3562">
        <ele>1127.2998</ele>
        <time>2025-09-13T14:06:25+02:00</time>
      </trkpt>
      <trkpt lat="42.76804" lon="1.35621">
        <ele>1130.5</ele>
        <time>2025-09-13T14:06:29+02:00</time>
      </trkpt>
      <trkpt lat="42.76803" lon="1.35621">
        <ele>1130.5</ele>
        <time>2025-09-13T14:06:30+02:00</time>
      </trkpt>
      <trkpt lat="42.76801" lon="1.35622">
        <ele>1130.5</ele>
        <time>2025-09-13T14:06:34+02:00</time>
      </trkpt>
      <trkpt lat="42.76801" lon="1.35622">
        <ele>1130.5</ele>
        <time>2025-09-13T14:06:35+02:00</time>
      </trkpt>
      <trkpt lat="42.76798" lon="1.35622">
        <ele>1130.7002</ele>
        <time>2025-09-13T14:06:39+02:00</time>
      </trkpt>
      <trkpt lat="42.76798" lon="1.35622">
        <ele>1130.7002</ele>
        <time>2025-09-13T14:06:40+02:00</time>
      </trkpt>
      <trkpt lat="42.76793" lon="1.35621">
        <ele>1128.7002</ele>
        <time>2025-09-13T14:06:44+02:00</time>
      </trkpt>
      <trkpt lat="42.76792" lon="1.35621">
        <ele>1128.7002</ele>
        <time>2025-09-13T14:06:45+02:00</time>
      </trkpt>
      <trkpt lat="42.76788" lon="1.35621">
        <ele>1128.7002</ele>
        <time>2025-09-13T14:06:49+02:00</time>
      </trkpt>
      <trkpt lat="42.76787" lon="1.35621">
        <ele>1128.7002</ele>
        <time>2025-09-13T14:06:50+02:00</time>
      </trkpt>
      <trkpt lat="42.76784" lon="1.35622">
        <ele>1131.7002</ele>
        <time>2025-09-13T14:06:54+02:00</time>
      </trkpt>
      <trkpt lat="42.76783" lon="1.35622">
        <ele>1131.7002</ele>
        <time>2025-09-13T14:06:55+02:00</time>
      </trkpt>
      <trkpt lat="42.76781" lon="1.35625">
        <ele>1131.7002</ele>
        <time>2025-09-13T14:06:59+02:00</time>
      </trkpt>
      <trkpt lat="42.7678" lon="1.35626">
        <ele>1132.7998</ele>
        <time>2025-09-13T14:07:00+02:00</time>
      </trkpt>
      <trkpt lat="42.76778" lon="1.35627">
        <ele>1132.7998</ele>
        <time>2025-09-13T14:07:04+02:00</time>
      </trkpt>
      <trkpt lat="42.76778" lon="1.35628">
        <ele>1132.7998</ele>
        <time>2025-09-13T14:07:05+02:00</time>
      </trkpt>
      <trkpt lat="42.76775" lon="1.3563">
        <ele>1132.7998</ele>
        <time>2025-09-13T14:07:08+02:00</time>
      </trkpt>
      <trkpt lat="42.76775" lon="1.3563">
        <ele>1135.2998</ele>
        <time>2025-09-13T14:07:10+02:00</time>
      </trkpt>
      <trkpt lat="42.76776" lon="1.3563">
        <ele>1135.2998</ele>
        <time>2025-09-13T14:07:14+02:00</time>
      </trkpt>
      <trkpt lat="42.76776" lon="1.3563">
        <ele>1135.2998</ele>
        <time>2025-09-13T14:07:15+02:00</time>
      </trkpt>
      <trkpt lat="42.76776" lon="1.35631">
        <ele>1135.2998</ele>
        <time>2025-09-13T14:07:19+02:00</time>
      </trkpt>
      <trkpt lat="42.76776" lon="1.35631">
        <ele>1135.2998</ele>
        <time>2025-09-13T14:07:20+02:00</time>
      </trkpt>
      <trkpt lat="42.76774" lon="1.35632">
        <ele>1136.4004</ele>
        <time>2025-09-13T14:07:24+02:00</time>
      </trkpt>
      <trkpt lat="42.76773" lon="1.35633">
        <ele>1136.4004</ele>
        <time>2025-09-13T14:07:25+02:00</time>
      </trkpt>
      <trkpt lat="42.76771" lon="1.35634">
        <ele>1136.4004</ele>
        <time>2025-09-13T14:07:29+02:00</time>
      </trkpt>
      <trkpt lat="42.7677" lon="1.35634">
        <ele>1136.4004</ele>
        <time>2025-09-13T14:07:30+02:00</time>
      </trkpt>
      <trkpt lat="42.76769" lon="1.35634">
        <ele>1136.4004</ele>
        <time>2025-09-13T14:07:34+02:00</time>
      </trkpt>
      <trkpt lat="42.76769" lon="1.35634">
        <ele>1136.4004</ele>
        <time>2025-09-13T14:07:35+02:00</time>
      </trkpt>
      <trkpt lat="42.76766" lon="1.35636">
        <ele>1137.4004</ele>
        <time>2025-09-13T14:07:39+02:00</time>
      </trkpt>
      <trkpt lat="42.76765" lon="1.35637">
        <ele>1137.4004</ele>
        <time>2025-09-13T14:07:41+02:00</time>
      </trkpt>
      <trkpt lat="42.76762" lon="1.35639">
        <ele>1140.4004</ele>
        <time>2025-09-13T14:07:45+02:00</time>
      </trkpt>
      <trkpt lat="42.76761" lon="1.3564">
        <ele>1140.4004</ele>
        <time>2025-09-13T14:07:47+02:00</time>
      </trkpt>
      <trkpt lat="42.76758" lon="1.35641">
        <ele>1140.4004</ele>
        <time>2025-09-13T14:07:51+02:00</time>
      </trkpt>
      <trkpt lat="42.76757" lon="1.35642">
        <ele>1140.4004</ele>
        <time>2025-09-13T14:07:52+02:00</time>
      </trkpt>
      <trkpt lat="42.76756" lon="1.35643">
        <ele>1140.9004</ele>
        <time>2025-09-13T14:07:56+02:00</time>
      </trkpt>
      <trkpt lat="42.76755" lon="1.35643">
        <ele>1140.9004</ele>
        <time>2025-09-13T14:07:57+02:00</time>
      </trkpt>
      <trkpt lat="42.76751" lon="1.35645">
        <ele>1140.9004</ele>
        <time>2025-09-13T14:08:01+02:00</time>
      </trkpt>
      <trkpt lat="42.7675" lon="1.35646">
        <ele>1140.9004</ele>
        <time>2025-09-13T14:08:02+02:00</time>
      </trkpt>
      <trkpt lat="42.76748" lon="1.35648">
        <ele>1144.2002</ele>
        <time>2025-09-13T14:08:06+02:00</time>
      </trkpt>
      <trkpt lat="42.76748" lon="1.35648">
        <ele>1144.2002</ele>
        <time>2025-09-13T14:08:07+02:00</time>
      </trkpt>
      <trkpt lat="42.76747" lon="1.35649">
        <ele>1144.2002</ele>
        <time>2025-09-13T14:08:11+02:00</time>
      </trkpt>
      <trkpt lat="42.76747" lon="1.35649">
        <ele>1144.2002</ele>
        <time>2025-09-13T14:08:12+02:00</time>
      </trkpt>
      <trkpt lat="42.76747" lon="1.35649">
        <ele>1144.2002</ele>
        <time>2025-09-13T14:08:16+02:00</time>
      </trkpt>
      <trkpt lat="42.76746" lon="1.3565">
        <ele>1144.2002</ele>
        <time>2025-09-13T14:08:17+02:00</time>
      </trkpt>
      <trkpt lat="42.76745" lon="1.3565">
        <ele>1144.2002</ele>
        <time>2025-09-13T14:08:21+02:00</time>
      </trkpt>
      <trkpt lat="42.76744" lon="1.3565">
        <ele>1144.2002</ele>
        <time>2025-09-13T14:08:22+02:00</time>
      </trkpt>
      <trkpt lat="42.76744" lon="1.35651">
        <ele>1144.2002</ele>
        <time>2025-09-13T14:08:26+02:00</time>
      </trkpt>
      <trkpt lat="42.76744" lon="1.35651">
        <ele>1144.2002</ele>
        <time>2025-09-13T14:08:27+02:00</time>
      </trkpt>
      <trkpt lat="42.76743" lon="1.35652">
        <ele>1144.2002</ele>
        <time>2025-09-13T14:08:31+02:00</time>
      </trkpt>
      <trkpt lat="42.76743" lon="1.35652">
        <ele>1145</ele>
        <time>2025-09-13T14:08:32+02:00</time>
      </trkpt>
      <trkpt lat="42.76742" lon="1.35654">
        <ele>1145</ele>
        <time>2025-09-13T14:08:36+02:00</time>
      </trkpt>
      <trkpt lat="42.76742" lon="1.35655">
        <ele>1145</ele>
        <time>2025-09-13T14:08:37+02:00</time>
      </trkpt>
      <trkpt lat="42.7674" lon="1.35657">
        <ele>1147.9004</ele>
        <time>2025-09-13T14:08:41+02:00</time>
      </trkpt>
      <trkpt lat="42.76739" lon="1.35658">
        <ele>1147.9004</ele>
        <time>2025-09-13T14:08:42+02:00</time>
      </trkpt>
      <trkpt lat="42.76737" lon="1.3566">
        <ele>1147.9004</ele>
        <time>2025-09-13T14:08:46+02:00</time>
      </trkpt>
      <trkpt lat="42.76737" lon="1.35661">
        <ele>1147.9004</ele>
        <time>2025-09-13T14:08:47+02:00</time>
      </trkpt>
      <trkpt lat="42.76735" lon="1.35664">
        <ele>1148.7002</ele>
        <time>2025-09-13T14:08:51+02:00</time>
      </trkpt>
      <trkpt lat="42.76735" lon="1.35664">
        <ele>1151.5</ele>
        <time>2025-09-13T14:08:52+02:00</time>
      </trkpt>
      <trkpt lat="42.76734" lon="1.35667">
        <ele>1151.5</ele>
        <time>2025-09-13T14:08:56+02:00</time>
      </trkpt>
      <trkpt lat="42.76734" lon="1.35668">
        <ele>1151.5</ele>
        <time>2025-09-13T14:08:57+02:00</time>
      </trkpt>
      <trkpt lat="42.76734" lon="1.3567">
        <ele>1151.5</ele>
        <time>2025-09-13T14:09:01+02:00</time>
      </trkpt>
      <trkpt lat="42.76734" lon="1.35671">
        <ele>1151.5</ele>
        <time>2025-09-13T14:09:02+02:00</time>
      </trkpt>
      <trkpt lat="42.76734" lon="1.35672">
        <ele>1151.5</ele>
        <time>2025-09-13T14:09:06+02:00</time>
      </trkpt>
      <trkpt lat="42.76734" lon="1.35673">
        <ele>1154.4004</ele>
        <time>2025-09-13T14:09:07+02:00</time>
      </trkpt>
      <trkpt lat="42.76734" lon="1.35676">
        <ele>1154.4004</ele>
        <time>2025-09-13T14:09:11+02:00</time>
      </trkpt>
      <trkpt lat="42.76734" lon="1.35676">
        <ele>1154.4004</ele>
        <time>2025-09-13T14:09:12+02:00</time>
      </trkpt>
      <trkpt lat="42.76734" lon="1.35678">
        <ele>1154.4004</ele>
        <time>2025-09-13T14:09:16+02:00</time>
      </trkpt>
      <trkpt lat="42.76734" lon="1.35678">
        <ele>1154.4004</ele>
        <time>2025-09-13T14:09:17+02:00</time>
      </trkpt>
      <trkpt lat="42.76734" lon="1.35679">
        <ele>1154.4004</ele>
        <time>2025-09-13T14:09:21+02:00</time>
      </trkpt>
      <trkpt lat="42.76734" lon="1.35679">
        <ele>1154.4004</ele>
        <time>2025-09-13T14:09:22+02:00</time>
      </trkpt>
      <trkpt lat="42.76734" lon="1.35679">
        <ele>1154.4004</ele>
        <time>2025-09-13T14:09:26+02:00</time>
      </trkpt>
      <trkpt lat="42.76734" lon="1.35679">
        <ele>1154.4004</ele>
        <time>2025-09-13T14:09:27+02:00</time>
      </trkpt>
      <trkpt lat="42.76734" lon="1.3568">
        <ele>1154.4004</ele>
        <time>2025-09-13T14:09:31+02:00</time>
      </trkpt>
      <trkpt lat="42.76735" lon="1.3568">
        <ele>1154.4004</ele>
        <time>2025-09-13T14:09:32+02:00</time>
      </trkpt>
      <trkpt lat="42.76735" lon="1.3568">
        <ele>1154.4004</ele>
        <time>2025-09-13T14:09:36+02:00</time>
      </trkpt>
      <trkpt lat="42.76735" lon="1.3568">
        <ele>1154.4004</ele>
        <time>2025-09-13T14:09:37+02:00</time>
      </trkpt>
      <trkpt lat="42.76735" lon="1.3568">
        <ele>1154.4004</ele>
        <time>2025-09-13T14:09:41+02:00</time>
      </trkpt>
      <trkpt lat="42.76735" lon="1.3568">
        <ele>1154.4004</ele>
        <time>2025-09-13T14:09:42+02:00</time>
      </trkpt>
      <trkpt lat="42.76735" lon="1.3568">
        <ele>1154.4004</ele>
        <time>2025-09-13T14:09:46+02:00</time>
      </trkpt>
      <trkpt lat="42.76735" lon="1.3568">
        <ele>1154.4004</ele>
        <time>2025-09-13T14:09:47+02:00</time>
      </trkpt>
      <trkpt lat="42.76735" lon="1.3568">
        <ele>1154.4004</ele>
        <time>2025-09-13T14:09:51+02:00</time>
      </trkpt>
      <trkpt lat="42.76735" lon="1.3568">
        <ele>1154.4004</ele>
        <time>2025-09-13T14:09:52+02:00</time>
      </trkpt>
      <trkpt lat="42.76735" lon="1.3568">
        <ele>1154.4004</ele>
        <time>2025-09-13T14:09:56+02:00</time>
      </trkpt>
      <trkpt lat="42.76735" lon="1.3568">
        <ele>1154.4004</ele>
        <time>2025-09-13T14:09:57+02:00</time>
      </trkpt>
      <trkpt lat="42.76735" lon="1.3568">
        <ele>1154.4004</ele>
        <time>2025-09-13T14:10:01+02:00</time>
      </trkpt>
      <trkpt lat="42.76735" lon="1.3568">
        <ele>1154.4004</ele>
        <time>2025-09-13T14:10:02+02:00</time>
      </trkpt>
      <trkpt lat="42.76735" lon="1.3568">
        <ele>1154.4004</ele>
        <time>2025-09-13T14:10:06+02:00</time>
      </trkpt>
      <trkpt lat="42.76735" lon="1.3568">
        <ele>1154.4004</ele>
        <time>2025-09-13T14:10:07+02:00</time>
      </trkpt>
      <trkpt lat="42.76735" lon="1.3568">
        <ele>1154.4004</ele>
        <time>2025-09-13T14:10:11+02:00</time>
      </trkpt>
      <trkpt lat="42.76735" lon="1.3568">
        <ele>1154.4004</ele>
        <time>2025-09-13T14:10:12+02:00</time>
      </trkpt>
      <trkpt lat="42.76735" lon="1.3568">
        <ele>1154.4004</ele>
        <time>2025-09-13T14:10:16+02:00</time>
      </trkpt>
      <trkpt lat="42.76735" lon="1.3568">
        <ele>1154.4004</ele>
        <time>2025-09-13T14:10:17+02:00</time>
      </trkpt>
      <trkpt lat="42.76735" lon="1.3568">
        <ele>1154.4004</ele>
        <time>2025-09-13T14:10:21+02:00</time>
      </trkpt>
      <trkpt lat="42.76735" lon="1.3568">
        <ele>1154.4004</ele>
        <time>2025-09-13T14:10:22+02:00</time>
      </trkpt>
      <trkpt lat="42.76735" lon="1.35681">
        <ele>1154.4004</ele>
        <time>2025-09-13T14:10:26+02:00</time>
      </trkpt>
      <trkpt lat="42.76735" lon="1.35681">
        <ele>1154.4004</ele>
        <time>2025-09-13T14:10:27+02:00</time>
      </trkpt>
      <trkpt lat="42.76735" lon="1.35681">
        <ele>1154.4004</ele>
        <time>2025-09-13T14:10:31+02:00</time>
      </trkpt>
      <trkpt lat="42.76735" lon="1.35681">
        <ele>1154.4004</ele>
        <time>2025-09-13T14:10:32+02:00</time>
      </trkpt>
      <trkpt lat="42.76735" lon="1.35681">
        <ele>1154.4004</ele>
        <time>2025-09-13T14:10:36+02:00</time>
      </trkpt>
      <trkpt lat="42.76736" lon="1.35681">
        <ele>1154.4004</ele>
        <time>2025-09-13T14:10:37+02:00</time>
      </trkpt>
      <trkpt lat="42.76736" lon="1.35682">
        <ele>1157.5</ele>
        <time>2025-09-13T14:10:41+02:00</time>
      </trkpt>
      <trkpt lat="42.76736" lon="1.35682">
        <ele>1157.5</ele>
        <time>2025-09-13T14:10:42+02:00</time>
      </trkpt>
      <trkpt lat="42.76737" lon="1.35682">
        <ele>1157.5</ele>
        <time>2025-09-13T14:10:46+02:00</time>
      </trkpt>
      <trkpt lat="42.76737" lon="1.35682">
        <ele>1157.5</ele>
        <time>2025-09-13T14:10:47+02:00</time>
      </trkpt>
      <trkpt lat="42.76736" lon="1.35682">
        <ele>1157.5</ele>
        <time>2025-09-13T14:10:51+02:00</time>
      </trkpt>
      <trkpt lat="42.76736" lon="1.35681">
        <ele>1157.5</ele>
        <time>2025-09-13T14:10:52+02:00</time>
      </trkpt>
      <trkpt lat="42.76736" lon="1.3568">
        <ele>1154.4004</ele>
        <time>2025-09-13T14:10:56+02:00</time>
      </trkpt>
      <trkpt lat="42.76736" lon="1.3568">
        <ele>1154.4004</ele>
        <time>2025-09-13T14:10:57+02:00</time>
      </trkpt>
      <trkpt lat="42.76736" lon="1.3568">
        <ele>1154.4004</ele>
        <time>2025-09-13T14:11:01+02:00</time>
      </trkpt>
      <trkpt lat="42.76736" lon="1.3568">
        <ele>1154.4004</ele>
        <time>2025-09-13T14:11:02+02:00</time>
      </trkpt>
      <trkpt lat="42.76736" lon="1.3568">
        <ele>1154.4004</ele>
        <time>2025-09-13T14:11:07+02:00</time>
      </trkpt>
      <trkpt lat="42.76736" lon="1.3568">
        <ele>1154.4004</ele>
        <time>2025-09-13T14:11:08+02:00</time>
      </trkpt>
      <trkpt lat="42.76736" lon="1.35681">
        <ele>1154.4004</ele>
        <time>2025-09-13T14:11:12+02:00</time>
      </trkpt>
      <trkpt lat="42.76736" lon="1.35681">
        <ele>1154.4004</ele>
        <time>2025-09-13T14:11:13+02:00</time>
      </trkpt>
      <trkpt lat="42.76737" lon="1.35679">
        <ele>1154.4004</ele>
        <time>2025-09-13T14:11:17+02:00</time>
      </trkpt>
      <trkpt lat="42.76737" lon="1.35679">
        <ele>1153.9004</ele>
        <time>2025-09-13T14:11:18+02:00</time>
      </trkpt>
      <trkpt lat="42.76739" lon="1.35679">
        <ele>1153.9004</ele>
        <time>2025-09-13T14:11:22+02:00</time>
      </trkpt>
      <trkpt lat="42.7674" lon="1.35679">
        <ele>1153.9004</ele>
        <time>2025-09-13T14:11:23+02:00</time>
      </trkpt>
      <trkpt lat="42.76742" lon="1.3568">
        <ele>1153.9004</ele>
        <time>2025-09-13T14:11:27+02:00</time>
      </trkpt>
      <trkpt lat="42.76743" lon="1.35681">
        <ele>1157</ele>
        <time>2025-09-13T14:11:28+02:00</time>
      </trkpt>
      <trkpt lat="42.76745" lon="1.35686">
        <ele>1156.6006</ele>
        <time>2025-09-13T14:11:32+02:00</time>
      </trkpt>
      <trkpt lat="42.76746" lon="1.35687">
        <ele>1156.6006</ele>
        <time>2025-09-13T14:11:33+02:00</time>
      </trkpt>
      <trkpt lat="42.76748" lon="1.35688">
        <ele>1156.6006</ele>
        <time>2025-09-13T14:11:37+02:00</time>
      </trkpt>
      <trkpt lat="42.76749" lon="1.35688">
        <ele>1156.6006</ele>
        <time>2025-09-13T14:11:38+02:00</time>
      </trkpt>
      <trkpt lat="42.76753" lon="1.35688">
        <ele>1156.2998</ele>
        <time>2025-09-13T14:11:42+02:00</time>
      </trkpt>
      <trkpt lat="42.76754" lon="1.35689">
        <ele>1156.2998</ele>
        <time>2025-09-13T14:11:43+02:00</time>
      </trkpt>
      <trkpt lat="42.76756" lon="1.35691">
        <ele>1159.6006</ele>
        <time>2025-09-13T14:11:47+02:00</time>
      </trkpt>
      <trkpt lat="42.76756" lon="1.35692">
        <ele>1159.6006</ele>
        <time>2025-09-13T14:11:48+02:00</time>
      </trkpt>
      <trkpt lat="42.76758" lon="1.35695">
        <ele>1159.6006</ele>
        <time>2025-09-13T14:11:52+02:00</time>
      </trkpt>
      <trkpt lat="42.76758" lon="1.35696">
        <ele>1159.6006</ele>
        <time>2025-09-13T14:11:53+02:00</time>
      </trkpt>
      <trkpt lat="42.76761" lon="1.35697">
        <ele>1159.6006</ele>
        <time>2025-09-13T14:11:57+02:00</time>
      </trkpt>
      <trkpt lat="42.76761" lon="1.35698">
        <ele>1159.6006</ele>
        <time>2025-09-13T14:11:58+02:00</time>
      </trkpt>
      <trkpt lat="42.76763" lon="1.35699">
        <ele>1163.4004</ele>
        <time>2025-09-13T14:12:02+02:00</time>
      </trkpt>
      <trkpt lat="42.76764" lon="1.35699">
        <ele>1163.4004</ele>
        <time>2025-09-13T14:12:03+02:00</time>
      </trkpt>
      <trkpt lat="42.76766" lon="1.35701">
        <ele>1163.4004</ele>
        <time>2025-09-13T14:12:07+02:00</time>
      </trkpt>
      <trkpt lat="42.76766" lon="1.35701">
        <ele>1163.4004</ele>
        <time>2025-09-13T14:12:08+02:00</time>
      </trkpt>
      <trkpt lat="42.76766" lon="1.35701">
        <ele>1163.4004</ele>
        <time>2025-09-13T14:12:12+02:00</time>
      </trkpt>
      <trkpt lat="42.76767" lon="1.35701">
        <ele>1163.4004</ele>
        <time>2025-09-13T14:12:13+02:00</time>
      </trkpt>
      <trkpt lat="42.76769" lon="1.35703">
        <ele>1163.5</ele>
        <time>2025-09-13T14:12:17+02:00</time>
      </trkpt>
      <trkpt lat="42.76769" lon="1.35703">
        <ele>1163.5</ele>
        <time>2025-09-13T14:12:18+02:00</time>
      </trkpt>
      <trkpt lat="42.76771" lon="1.35702">
        <ele>1163.5</ele>
        <time>2025-09-13T14:12:21+02:00</time>
      </trkpt>
      <trkpt lat="42.76771" lon="1.35702">
        <ele>1163.5</ele>
        <time>2025-09-13T14:12:23+02:00</time>
      </trkpt>
      <trkpt lat="42.76772" lon="1.35703">
        <ele>1163.5</ele>
        <time>2025-09-13T14:12:27+02:00</time>
      </trkpt>
      <trkpt lat="42.76772" lon="1.35703">
        <ele>1163.5</ele>
        <time>2025-09-13T14:12:28+02:00</time>
      </trkpt>
      <trkpt lat="42.76775" lon="1.35704">
        <ele>1163.5</ele>
        <time>2025-09-13T14:12:32+02:00</time>
      </trkpt>
      <trkpt lat="42.76776" lon="1.35704">
        <ele>1163.5</ele>
        <time>2025-09-13T14:12:33+02:00</time>
      </trkpt>
      <trkpt lat="42.76778" lon="1.35704">
        <ele>1163.5</ele>
        <time>2025-09-13T14:12:36+02:00</time>
      </trkpt>
      <trkpt lat="42.76777" lon="1.35704">
        <ele>1163.5</ele>
        <time>2025-09-13T14:12:38+02:00</time>
      </trkpt>
      <trkpt lat="42.76777" lon="1.35705">
        <ele>1163.5</ele>
        <time>2025-09-13T14:12:42+02:00</time>
      </trkpt>
      <trkpt lat="42.76778" lon="1.35705">
        <ele>1163.5</ele>
        <time>2025-09-13T14:12:43+02:00</time>
      </trkpt>
      <trkpt lat="42.76781" lon="1.35707">
        <ele>1163.5</ele>
        <time>2025-09-13T14:12:47+02:00</time>
      </trkpt>
      <trkpt lat="42.76781" lon="1.35707">
        <ele>1167.9004</ele>
        <time>2025-09-13T14:12:48+02:00</time>
      </trkpt>
      <trkpt lat="42.7678" lon="1.35707">
        <ele>1167.9004</ele>
        <time>2025-09-13T14:12:52+02:00</time>
      </trkpt>
      <trkpt lat="42.76781" lon="1.35708">
        <ele>1167.9004</ele>
        <time>2025-09-13T14:12:53+02:00</time>
      </trkpt>
      <trkpt lat="42.76784" lon="1.35709">
        <ele>1167.9004</ele>
        <time>2025-09-13T14:12:57+02:00</time>
      </trkpt>
      <trkpt lat="42.76785" lon="1.35709">
        <ele>1167.9004</ele>
        <time>2025-09-13T14:12:58+02:00</time>
      </trkpt>
      <trkpt lat="42.76788" lon="1.3571">
        <ele>1168</ele>
        <time>2025-09-13T14:13:01+02:00</time>
      </trkpt>
      <trkpt lat="42.76788" lon="1.3571">
        <ele>1168</ele>
        <time>2025-09-13T14:13:03+02:00</time>
      </trkpt>
      <trkpt lat="42.76788" lon="1.35711">
        <ele>1168</ele>
        <time>2025-09-13T14:13:07+02:00</time>
      </trkpt>
      <trkpt lat="42.76788" lon="1.35711">
        <ele>1168</ele>
        <time>2025-09-13T14:13:08+02:00</time>
      </trkpt>
      <trkpt lat="42.76788" lon="1.35711">
        <ele>1168</ele>
        <time>2025-09-13T14:13:12+02:00</time>
      </trkpt>
      <trkpt lat="42.76788" lon="1.35711">
        <ele>1168</ele>
        <time>2025-09-13T14:13:13+02:00</time>
      </trkpt>
      <trkpt lat="42.76788" lon="1.35712">
        <ele>1168</ele>
        <time>2025-09-13T14:13:17+02:00</time>
      </trkpt>
      <trkpt lat="42.76788" lon="1.35712">
        <ele>1168</ele>
        <time>2025-09-13T14:13:18+02:00</time>
      </trkpt>
      <trkpt lat="42.76788" lon="1.35712">
        <ele>1168</ele>
        <time>2025-09-13T14:13:22+02:00</time>
      </trkpt>
      <trkpt lat="42.76788" lon="1.35712">
        <ele>1168</ele>
        <time>2025-09-13T14:13:23+02:00</time>
      </trkpt>
      <trkpt lat="42.76786" lon="1.35713">
        <ele>1167.9004</ele>
        <time>2025-09-13T14:13:27+02:00</time>
      </trkpt>
      <trkpt lat="42.76786" lon="1.35713">
        <ele>1167.9004</ele>
        <time>2025-09-13T14:13:28+02:00</time>
      </trkpt>
      <trkpt lat="42.76784" lon="1.35716">
        <ele>1172.5</ele>
        <time>2025-09-13T14:13:33+02:00</time>
      </trkpt>
      <trkpt lat="42.76782" lon="1.35716">
        <ele>1172.5</ele>
        <time>2025-09-13T14:13:38+02:00</time>
      </trkpt>
      <trkpt lat="42.76782" lon="1.35716">
        <ele>1172.5</ele>
        <time>2025-09-13T14:13:39+02:00</time>
      </trkpt>
      <trkpt lat="42.76779" lon="1.35717">
        <ele>1172.4004</ele>
        <time>2025-09-13T14:13:43+02:00</time>
      </trkpt>
      <trkpt lat="42.76779" lon="1.35717">
        <ele>1172.4004</ele>
        <time>2025-09-13T14:13:44+02:00</time>
      </trkpt>
      <trkpt lat="42.76776" lon="1.35718">
        <ele>1172.4004</ele>
        <time>2025-09-13T14:13:48+02:00</time>
      </trkpt>
      <trkpt lat="42.76776" lon="1.35718">
        <ele>1172.4004</ele>
        <time>2025-09-13T14:13:49+02:00</time>
      </trkpt>
      <trkpt lat="42.76774" lon="1.35718">
        <ele>1172.2002</ele>
        <time>2025-09-13T14:13:53+02:00</time>
      </trkpt>
      <trkpt lat="42.76774" lon="1.35718">
        <ele>1172.2002</ele>
        <time>2025-09-13T14:13:54+02:00</time>
      </trkpt>
      <trkpt lat="42.76772" lon="1.35719">
        <ele>1172.2002</ele>
        <time>2025-09-13T14:13:58+02:00</time>
      </trkpt>
      <trkpt lat="42.76771" lon="1.35719">
        <ele>1172.2002</ele>
        <time>2025-09-13T14:13:59+02:00</time>
      </trkpt>
      <trkpt lat="42.76768" lon="1.35721">
        <ele>1172.2002</ele>
        <time>2025-09-13T14:14:03+02:00</time>
      </trkpt>
      <trkpt lat="42.76768" lon="1.35721">
        <ele>1172</ele>
        <time>2025-09-13T14:14:04+02:00</time>
      </trkpt>
      <trkpt lat="42.76764" lon="1.35723">
        <ele>1172</ele>
        <time>2025-09-13T14:14:09+02:00</time>
      </trkpt>
      <trkpt lat="42.76763" lon="1.35723">
        <ele>1172</ele>
        <time>2025-09-13T14:14:10+02:00</time>
      </trkpt>
      <trkpt lat="42.76761" lon="1.35724">
        <ele>1171.7002</ele>
        <time>2025-09-13T14:14:14+02:00</time>
      </trkpt>
      <trkpt lat="42.7676" lon="1.35724">
        <ele>1171.7002</ele>
        <time>2025-09-13T14:14:15+02:00</time>
      </trkpt>
      <trkpt lat="42.76758" lon="1.35725">
        <ele>1176.1006</ele>
        <time>2025-09-13T14:14:19+02:00</time>
      </trkpt>
      <trkpt lat="42.76758" lon="1.35725">
        <ele>1176.1006</ele>
        <time>2025-09-13T14:14:20+02:00</time>
      </trkpt>
      <trkpt lat="42.76755" lon="1.35727">
        <ele>1175.7998</ele>
        <time>2025-09-13T14:14:24+02:00</time>
      </trkpt>
      <trkpt lat="42.76755" lon="1.35727">
        <ele>1175.7998</ele>
        <time>2025-09-13T14:14:25+02:00</time>
      </trkpt>
      <trkpt lat="42.76753" lon="1.3573">
        <ele>1175.7998</ele>
        <time>2025-09-13T14:14:29+02:00</time>
      </trkpt>
      <trkpt lat="42.76752" lon="1.35731">
        <ele>1175.7998</ele>
        <time>2025-09-13T14:14:30+02:00</time>
      </trkpt>
      <trkpt lat="42.7675" lon="1.35733">
        <ele>1180.4004</ele>
        <time>2025-09-13T14:14:34+02:00</time>
      </trkpt>
      <trkpt lat="42.76749" lon="1.35733">
        <ele>1180.4004</ele>
        <time>2025-09-13T14:14:35+02:00</time>
      </trkpt>
      <trkpt lat="42.76749" lon="1.35735">
        <ele>1180</ele>
        <time>2025-09-13T14:14:39+02:00</time>
      </trkpt>
      <trkpt lat="42.76749" lon="1.35736">
        <ele>1180</ele>
        <time>2025-09-13T14:14:40+02:00</time>
      </trkpt>
      <trkpt lat="42.76748" lon="1.35738">
        <ele>1180</ele>
        <time>2025-09-13T14:14:45+02:00</time>
      </trkpt>
      <trkpt lat="42.76747" lon="1.35738">
        <ele>1180</ele>
        <time>2025-09-13T14:14:46+02:00</time>
      </trkpt>
      <trkpt lat="42.76745" lon="1.35743">
        <ele>1184.5</ele>
        <time>2025-09-13T14:14:50+02:00</time>
      </trkpt>
      <trkpt lat="42.76745" lon="1.35743">
        <ele>1184.5</ele>
        <time>2025-09-13T14:14:51+02:00</time>
      </trkpt>
      <trkpt lat="42.76743" lon="1.35746">
        <ele>1184.5</ele>
        <time>2025-09-13T14:14:55+02:00</time>
      </trkpt>
      <trkpt lat="42.76743" lon="1.35747">
        <ele>1184</ele>
        <time>2025-09-13T14:14:56+02:00</time>
      </trkpt>
      <trkpt lat="42.7674" lon="1.35749">
        <ele>1184</ele>
        <time>2025-09-13T14:15:00+02:00</time>
      </trkpt>
      <trkpt lat="42.7674" lon="1.35749">
        <ele>1184</ele>
        <time>2025-09-13T14:15:01+02:00</time>
      </trkpt>
      <trkpt lat="42.76738" lon="1.35751">
        <ele>1188.4004</ele>
        <time>2025-09-13T14:15:05+02:00</time>
      </trkpt>
      <trkpt lat="42.76738" lon="1.35751">
        <ele>1188.4004</ele>
        <time>2025-09-13T14:15:06+02:00</time>
      </trkpt>
      <trkpt lat="42.76737" lon="1.35752">
        <ele>1188.4004</ele>
        <time>2025-09-13T14:15:10+02:00</time>
      </trkpt>
      <trkpt lat="42.76737" lon="1.35753">
        <ele>1187.7998</ele>
        <time>2025-09-13T14:15:11+02:00</time>
      </trkpt>
      <trkpt lat="42.76736" lon="1.35753">
        <ele>1187.7998</ele>
        <time>2025-09-13T14:15:15+02:00</time>
      </trkpt>
      <trkpt lat="42.76736" lon="1.35753">
        <ele>1187.7998</ele>
        <time>2025-09-13T14:15:16+02:00</time>
      </trkpt>
      <trkpt lat="42.76733" lon="1.35754">
        <ele>1187.7998</ele>
        <time>2025-09-13T14:15:20+02:00</time>
      </trkpt>
      <trkpt lat="42.76732" lon="1.35756">
        <ele>1187.7998</ele>
        <time>2025-09-13T14:15:25+02:00</time>
      </trkpt>
      <trkpt lat="42.76731" lon="1.35757">
        <ele>1187.7998</ele>
        <time>2025-09-13T14:15:26+02:00</time>
      </trkpt>
      <trkpt lat="42.76728" lon="1.35759">
        <ele>1191.2998</ele>
        <time>2025-09-13T14:15:30+02:00</time>
      </trkpt>
      <trkpt lat="42.76727" lon="1.3576">
        <ele>1191.2998</ele>
        <time>2025-09-13T14:15:31+02:00</time>
      </trkpt>
      <trkpt lat="42.76725" lon="1.35762">
        <ele>1191.2998</ele>
        <time>2025-09-13T14:15:36+02:00</time>
      </trkpt>
      <trkpt lat="42.76724" lon="1.35762">
        <ele>1191.2998</ele>
        <time>2025-09-13T14:15:37+02:00</time>
      </trkpt>
      <trkpt lat="42.76724" lon="1.35763">
        <ele>1190.5</ele>
        <time>2025-09-13T14:15:41+02:00</time>
      </trkpt>
      <trkpt lat="42.76724" lon="1.35763">
        <ele>1190.5</ele>
        <time>2025-09-13T14:15:42+02:00</time>
      </trkpt>
      <trkpt lat="42.76723" lon="1.35765">
        <ele>1190.5</ele>
        <time>2025-09-13T14:15:47+02:00</time>
      </trkpt>
      <trkpt lat="42.76722" lon="1.35766">
        <ele>1190.5</ele>
        <time>2025-09-13T14:15:48+02:00</time>
      </trkpt>
      <trkpt lat="42.76722" lon="1.35768">
        <ele>1194.6006</ele>
        <time>2025-09-13T14:15:53+02:00</time>
      </trkpt>
      <trkpt lat="42.76722" lon="1.35769">
        <ele>1194.6006</ele>
        <time>2025-09-13T14:15:54+02:00</time>
      </trkpt>
      <trkpt lat="42.76721" lon="1.35773">
        <ele>1194.6006</ele>
        <time>2025-09-13T14:15:58+02:00</time>
      </trkpt>
      <trkpt lat="42.76721" lon="1.35774">
        <ele>1194.6006</ele>
        <time>2025-09-13T14:15:59+02:00</time>
      </trkpt>
      <trkpt lat="42.76718" lon="1.35779">
        <ele>1198.7998</ele>
        <time>2025-09-13T14:16:03+02:00</time>
      </trkpt>
      <trkpt lat="42.76717" lon="1.35783">
        <ele>1197.7998</ele>
        <time>2025-09-13T14:16:08+02:00</time>
      </trkpt>
      <trkpt lat="42.76717" lon="1.35784">
        <ele>1197.7998</ele>
        <time>2025-09-13T14:16:09+02:00</time>
      </trkpt>
      <trkpt lat="42.76716" lon="1.35787">
        <ele>1201.7998</ele>
        <time>2025-09-13T14:16:13+02:00</time>
      </trkpt>
      <trkpt lat="42.76716" lon="1.35788">
        <ele>1201.7998</ele>
        <time>2025-09-13T14:16:14+02:00</time>
      </trkpt>
      <trkpt lat="42.76715" lon="1.35787">
        <ele>1201.7998</ele>
        <time>2025-09-13T14:16:18+02:00</time>
      </trkpt>
      <trkpt lat="42.76715" lon="1.35787">
        <ele>1201.7998</ele>
        <time>2025-09-13T14:16:19+02:00</time>
      </trkpt>
      <trkpt lat="42.76715" lon="1.35787">
        <ele>1201.7998</ele>
        <time>2025-09-13T14:16:23+02:00</time>
      </trkpt>
      <trkpt lat="42.76714" lon="1.35787">
        <ele>1201.7998</ele>
        <time>2025-09-13T14:16:24+02:00</time>
      </trkpt>
      <trkpt lat="42.76714" lon="1.35787">
        <ele>1201.7998</ele>
        <time>2025-09-13T14:16:28+02:00</time>
      </trkpt>
      <trkpt lat="42.76714" lon="1.35787">
        <ele>1201.7998</ele>
        <time>2025-09-13T14:16:29+02:00</time>
      </trkpt>
      <trkpt lat="42.76713" lon="1.35787">
        <ele>1201.7998</ele>
        <time>2025-09-13T14:16:33+02:00</time>
      </trkpt>
      <trkpt lat="42.76713" lon="1.35788">
        <ele>1201.7998</ele>
        <time>2025-09-13T14:16:34+02:00</time>
      </trkpt>
      <trkpt lat="42.7671" lon="1.35791">
        <ele>1200.7002</ele>
        <time>2025-09-13T14:16:38+02:00</time>
      </trkpt>
      <trkpt lat="42.76709" lon="1.35791">
        <ele>1200.7002</ele>
        <time>2025-09-13T14:16:39+02:00</time>
      </trkpt>
      <trkpt lat="42.76705" lon="1.35793">
        <ele>1204.5</ele>
        <time>2025-09-13T14:16:43+02:00</time>
      </trkpt>
      <trkpt lat="42.76704" lon="1.35793">
        <ele>1203.1006</ele>
        <time>2025-09-13T14:16:44+02:00</time>
      </trkpt>
      <trkpt lat="42.76702" lon="1.35796">
        <ele>1203.1006</ele>
        <time>2025-09-13T14:16:48+02:00</time>
      </trkpt>
      <trkpt lat="42.76702" lon="1.35797">
        <ele>1203.1006</ele>
        <time>2025-09-13T14:16:49+02:00</time>
      </trkpt>
      <trkpt lat="42.767" lon="1.35801">
        <ele>1203.1006</ele>
        <time>2025-09-13T14:16:53+02:00</time>
      </trkpt>
      <trkpt lat="42.767" lon="1.35802">
        <ele>1206.7998</ele>
        <time>2025-09-13T14:16:54+02:00</time>
      </trkpt>
      <trkpt lat="42.76699" lon="1.35806">
        <ele>1205.2002</ele>
        <time>2025-09-13T14:16:58+02:00</time>
      </trkpt>
      <trkpt lat="42.76698" lon="1.35807">
        <ele>1205.2002</ele>
        <time>2025-09-13T14:16:59+02:00</time>
      </trkpt>
      <trkpt lat="42.76697" lon="1.35809">
        <ele>1205.2002</ele>
        <time>2025-09-13T14:17:03+02:00</time>
      </trkpt>
      <trkpt lat="42.76697" lon="1.35809">
        <ele>1205.2002</ele>
        <time>2025-09-13T14:17:04+02:00</time>
      </trkpt>
      <trkpt lat="42.76697" lon="1.35809">
        <ele>1205.2002</ele>
        <time>2025-09-13T14:17:09+02:00</time>
      </trkpt>
      <trkpt lat="42.76698" lon="1.35809">
        <ele>1205.2002</ele>
        <time>2025-09-13T14:17:10+02:00</time>
      </trkpt>
      <trkpt lat="42.76697" lon="1.35809">
        <ele>1205.2002</ele>
        <time>2025-09-13T14:17:14+02:00</time>
      </trkpt>
      <trkpt lat="42.76697" lon="1.3581">
        <ele>1205.2002</ele>
        <time>2025-09-13T14:17:15+02:00</time>
      </trkpt>
      <trkpt lat="42.76695" lon="1.35811">
        <ele>1208.9004</ele>
        <time>2025-09-13T14:17:19+02:00</time>
      </trkpt>
      <trkpt lat="42.76695" lon="1.35811">
        <ele>1208.9004</ele>
        <time>2025-09-13T14:17:20+02:00</time>
      </trkpt>
      <trkpt lat="42.76693" lon="1.35813">
        <ele>1208.9004</ele>
        <time>2025-09-13T14:17:24+02:00</time>
      </trkpt>
      <trkpt lat="42.76692" lon="1.35813">
        <ele>1207.2998</ele>
        <time>2025-09-13T14:17:25+02:00</time>
      </trkpt>
      <trkpt lat="42.76691" lon="1.35814">
        <ele>1207.2998</ele>
        <time>2025-09-13T14:17:29+02:00</time>
      </trkpt>
      <trkpt lat="42.76691" lon="1.35814">
        <ele>1207.2998</ele>
        <time>2025-09-13T14:17:30+02:00</time>
      </trkpt>
      <trkpt lat="42.76688" lon="1.35815">
        <ele>1207.2998</ele>
        <time>2025-09-13T14:17:35+02:00</time>
      </trkpt>
      <trkpt lat="42.76687" lon="1.35815">
        <ele>1207.2998</ele>
        <time>2025-09-13T14:17:36+02:00</time>
      </trkpt>
      <trkpt lat="42.76686" lon="1.35815">
        <ele>1205.9004</ele>
        <time>2025-09-13T14:17:40+02:00</time>
      </trkpt>
      <trkpt lat="42.76686" lon="1.35815">
        <ele>1205.9004</ele>
        <time>2025-09-13T14:17:41+02:00</time>
      </trkpt>
      <trkpt lat="42.76684" lon="1.35815">
        <ele>1205.9004</ele>
        <time>2025-09-13T14:17:45+02:00</time>
      </trkpt>
      <trkpt lat="42.76683" lon="1.35814">
        <ele>1205.9004</ele>
        <time>2025-09-13T14:17:46+02:00</time>
      </trkpt>
      <trkpt lat="42.76681" lon="1.35815">
        <ele>1205.9004</ele>
        <time>2025-09-13T14:17:50+02:00</time>
      </trkpt>
      <trkpt lat="42.7668" lon="1.35815">
        <ele>1205.9004</ele>
        <time>2025-09-13T14:17:51+02:00</time>
      </trkpt>
      <trkpt lat="42.76678" lon="1.35816">
        <ele>1204.7002</ele>
        <time>2025-09-13T14:17:55+02:00</time>
      </trkpt>
      <trkpt lat="42.76678" lon="1.35816">
        <ele>1204.7002</ele>
        <time>2025-09-13T14:17:57+02:00</time>
      </trkpt>
      <trkpt lat="42.76677" lon="1.35815">
        <ele>1204.7002</ele>
        <time>2025-09-13T14:18:01+02:00</time>
      </trkpt>
      <trkpt lat="42.76676" lon="1.35815">
        <ele>1204.7002</ele>
        <time>2025-09-13T14:18:02+02:00</time>
      </trkpt>
      <trkpt lat="42.76673" lon="1.35814">
        <ele>1203.6006</ele>
        <time>2025-09-13T14:18:06+02:00</time>
      </trkpt>
      <trkpt lat="42.76673" lon="1.35814">
        <ele>1203.6006</ele>
        <time>2025-09-13T14:18:07+02:00</time>
      </trkpt>
      <trkpt lat="42.76672" lon="1.35814">
        <ele>1203.6006</ele>
        <time>2025-09-13T14:18:11+02:00</time>
      </trkpt>
      <trkpt lat="42.76671" lon="1.35814">
        <ele>1203.6006</ele>
        <time>2025-09-13T14:18:12+02:00</time>
      </trkpt>
      <trkpt lat="42.76671" lon="1.35813">
        <ele>1203.6006</ele>
        <time>2025-09-13T14:18:16+02:00</time>
      </trkpt>
      <trkpt lat="42.76671" lon="1.35813">
        <ele>1203.6006</ele>
        <time>2025-09-13T14:18:17+02:00</time>
      </trkpt>
      <trkpt lat="42.76669" lon="1.35812">
        <ele>1203.6006</ele>
        <time>2025-09-13T14:18:21+02:00</time>
      </trkpt>
      <trkpt lat="42.76669" lon="1.35811">
        <ele>1203.6006</ele>
        <time>2025-09-13T14:18:22+02:00</time>
      </trkpt>
      <trkpt lat="42.76667" lon="1.35812">
        <ele>1202.5</ele>
        <time>2025-09-13T14:18:26+02:00</time>
      </trkpt>
      <trkpt lat="42.76667" lon="1.35812">
        <ele>1202.5</ele>
        <time>2025-09-13T14:18:27+02:00</time>
      </trkpt>
      <trkpt lat="42.76666" lon="1.35813">
        <ele>1202.5</ele>
        <time>2025-09-13T14:18:31+02:00</time>
      </trkpt>
      <trkpt lat="42.76665" lon="1.35813">
        <ele>1202.5</ele>
        <time>2025-09-13T14:18:32+02:00</time>
      </trkpt>
      <trkpt lat="42.76663" lon="1.35815">
        <ele>1202.5</ele>
        <time>2025-09-13T14:18:36+02:00</time>
      </trkpt>
      <trkpt lat="42.76662" lon="1.35815">
        <ele>1202.5</ele>
        <time>2025-09-13T14:18:37+02:00</time>
      </trkpt>
      <trkpt lat="42.76659" lon="1.35817">
        <ele>1201.6006</ele>
        <time>2025-09-13T14:18:41+02:00</time>
      </trkpt>
      <trkpt lat="42.76659" lon="1.35817">
        <ele>1201.6006</ele>
        <time>2025-09-13T14:18:42+02:00</time>
      </trkpt>
      <trkpt lat="42.76657" lon="1.35818">
        <ele>1201.6006</ele>
        <time>2025-09-13T14:18:46+02:00</time>
      </trkpt>
      <trkpt lat="42.76657" lon="1.35819">
        <ele>1204.2998</ele>
        <time>2025-09-13T14:18:47+02:00</time>
      </trkpt>
      <trkpt lat="42.76657" lon="1.35819">
        <ele>1204.2998</ele>
        <time>2025-09-13T14:18:51+02:00</time>
      </trkpt>
      <trkpt lat="42.76656" lon="1.35819">
        <ele>1204.2998</ele>
        <time>2025-09-13T14:18:52+02:00</time>
      </trkpt>
      <trkpt lat="42.76655" lon="1.3582">
        <ele>1204.2998</ele>
        <time>2025-09-13T14:18:56+02:00</time>
      </trkpt>
      <trkpt lat="42.76655" lon="1.3582">
        <ele>1203.2998</ele>
        <time>2025-09-13T14:18:57+02:00</time>
      </trkpt>
      <trkpt lat="42.76652" lon="1.35821">
        <ele>1203.2998</ele>
        <time>2025-09-13T14:19:01+02:00</time>
      </trkpt>
      <trkpt lat="42.76652" lon="1.35821">
        <ele>1203.2998</ele>
        <time>2025-09-13T14:19:02+02:00</time>
      </trkpt>
      <trkpt lat="42.76651" lon="1.35824">
        <ele>1203.2998</ele>
        <time>2025-09-13T14:19:06+02:00</time>
      </trkpt>
      <trkpt lat="42.7665" lon="1.35824">
        <ele>1203.2998</ele>
        <time>2025-09-13T14:19:07+02:00</time>
      </trkpt>
      <trkpt lat="42.7665" lon="1.35827">
        <ele>1203.2998</ele>
        <time>2025-09-13T14:19:11+02:00</time>
      </trkpt>
      <trkpt lat="42.7665" lon="1.35827">
        <ele>1205.9004</ele>
        <time>2025-09-13T14:19:12+02:00</time>
      </trkpt>
      <trkpt lat="42.76651" lon="1.35829">
        <ele>1205.9004</ele>
        <time>2025-09-13T14:19:16+02:00</time>
      </trkpt>
      <trkpt lat="42.7665" lon="1.3583">
        <ele>1205.9004</ele>
        <time>2025-09-13T14:19:17+02:00</time>
      </trkpt>
      <trkpt lat="42.76649" lon="1.35829">
        <ele>1205.9004</ele>
        <time>2025-09-13T14:19:21+02:00</time>
      </trkpt>
      <trkpt lat="42.76649" lon="1.35829">
        <ele>1205.9004</ele>
        <time>2025-09-13T14:19:22+02:00</time>
      </trkpt>
      <trkpt lat="42.76649" lon="1.35826">
        <ele>1203.2998</ele>
        <time>2025-09-13T14:19:26+02:00</time>
      </trkpt>
      <trkpt lat="42.76648" lon="1.35826">
        <ele>1202.2998</ele>
        <time>2025-09-13T14:19:27+02:00</time>
      </trkpt>
      <trkpt lat="42.76647" lon="1.35826">
        <ele>1202.2998</ele>
        <time>2025-09-13T14:19:31+02:00</time>
      </trkpt>
      <trkpt lat="42.76647" lon="1.35827">
        <ele>1202.2998</ele>
        <time>2025-09-13T14:19:32+02:00</time>
      </trkpt>
      <trkpt lat="42.76644" lon="1.35827">
        <ele>1204.7002</ele>
        <time>2025-09-13T14:19:36+02:00</time>
      </trkpt>
      <trkpt lat="42.76643" lon="1.35827">
        <ele>1204.7002</ele>
        <time>2025-09-13T14:19:37+02:00</time>
      </trkpt>
      <trkpt lat="42.76641" lon="1.35827">
        <ele>1203.7998</ele>
        <time>2025-09-13T14:19:41+02:00</time>
      </trkpt>
      <trkpt lat="42.7664" lon="1.35828">
        <ele>1203.7998</ele>
        <time>2025-09-13T14:19:42+02:00</time>
      </trkpt>
      <trkpt lat="42.7664" lon="1.35828">
        <ele>1203.7998</ele>
        <time>2025-09-13T14:19:46+02:00</time>
      </trkpt>
      <trkpt lat="42.7664" lon="1.35828">
        <ele>1203.7998</ele>
        <time>2025-09-13T14:19:47+02:00</time>
      </trkpt>
      <trkpt lat="42.7664" lon="1.35828">
        <ele>1203.7998</ele>
        <time>2025-09-13T14:19:51+02:00</time>
      </trkpt>
      <trkpt lat="42.7664" lon="1.35828">
        <ele>1203.7998</ele>
        <time>2025-09-13T14:19:52+02:00</time>
      </trkpt>
      <trkpt lat="42.76639" lon="1.35828">
        <ele>1203.7998</ele>
        <time>2025-09-13T14:19:56+02:00</time>
      </trkpt>
      <trkpt lat="42.76639" lon="1.35828">
        <ele>1203.7998</ele>
        <time>2025-09-13T14:19:57+02:00</time>
      </trkpt>
      <trkpt lat="42.76638" lon="1.35828">
        <ele>1203.7998</ele>
        <time>2025-09-13T14:20:01+02:00</time>
      </trkpt>
      <trkpt lat="42.76638" lon="1.35828">
        <ele>1203.7998</ele>
        <time>2025-09-13T14:20:02+02:00</time>
      </trkpt>
      <trkpt lat="42.76636" lon="1.35831">
        <ele>1203.7998</ele>
        <time>2025-09-13T14:20:06+02:00</time>
      </trkpt>
      <trkpt lat="42.76636" lon="1.35831">
        <ele>1202.9004</ele>
        <time>2025-09-13T14:20:07+02:00</time>
      </trkpt>
      <trkpt lat="42.76633" lon="1.35835">
        <ele>1202.9004</ele>
        <time>2025-09-13T14:20:11+02:00</time>
      </trkpt>
      <trkpt lat="42.76632" lon="1.35836">
        <ele>1202.9004</ele>
        <time>2025-09-13T14:20:12+02:00</time>
      </trkpt>
      <trkpt lat="42.76631" lon="1.35839">
        <ele>1205.2998</ele>
        <time>2025-09-13T14:20:16+02:00</time>
      </trkpt>
      <trkpt lat="42.7663" lon="1.3584">
        <ele>1205.2998</ele>
        <time>2025-09-13T14:20:17+02:00</time>
      </trkpt>
      <trkpt lat="42.76628" lon="1.35841">
        <ele>1204.4004</ele>
        <time>2025-09-13T14:20:21+02:00</time>
      </trkpt>
      <trkpt lat="42.76628" lon="1.35841">
        <ele>1204.4004</ele>
        <time>2025-09-13T14:20:22+02:00</time>
      </trkpt>
      <trkpt lat="42.76627" lon="1.35842">
        <ele>1204.4004</ele>
        <time>2025-09-13T14:20:26+02:00</time>
      </trkpt>
      <trkpt lat="42.76627" lon="1.35842">
        <ele>1204.4004</ele>
        <time>2025-09-13T14:20:27+02:00</time>
      </trkpt>
      <trkpt lat="42.76627" lon="1.35845">
        <ele>1206.6006</ele>
        <time>2025-09-13T14:20:31+02:00</time>
      </trkpt>
      <trkpt lat="42.76627" lon="1.35846">
        <ele>1206.6006</ele>
        <time>2025-09-13T14:20:32+02:00</time>
      </trkpt>
      <trkpt lat="42.76626" lon="1.35846">
        <ele>1206.6006</ele>
        <time>2025-09-13T14:20:36+02:00</time>
      </trkpt>
      <trkpt lat="42.76626" lon="1.35846">
        <ele>1206.6006</ele>
        <time>2025-09-13T14:20:37+02:00</time>
      </trkpt>
      <trkpt lat="42.76626" lon="1.35847">
        <ele>1206.6006</ele>
        <time>2025-09-13T14:20:41+02:00</time>
      </trkpt>
      <trkpt lat="42.76626" lon="1.35847">
        <ele>1206.6006</ele>
        <time>2025-09-13T14:20:42+02:00</time>
      </trkpt>
      <trkpt lat="42.76626" lon="1.35849">
        <ele>1206.6006</ele>
        <time>2025-09-13T14:20:46+02:00</time>
      </trkpt>
      <trkpt lat="42.76626" lon="1.3585">
        <ele>1206.6006</ele>
        <time>2025-09-13T14:20:47+02:00</time>
      </trkpt>
      <trkpt lat="42.76625" lon="1.35851">
        <ele>1206.6006</ele>
        <time>2025-09-13T14:20:51+02:00</time>
      </trkpt>
      <trkpt lat="42.76624" lon="1.35852">
        <ele>1206.6006</ele>
        <time>2025-09-13T14:20:52+02:00</time>
      </trkpt>
      <trkpt lat="42.76623" lon="1.35854">
        <ele>1207.7002</ele>
        <time>2025-09-13T14:20:56+02:00</time>
      </trkpt>
      <trkpt lat="42.76623" lon="1.35854">
        <ele>1207.7002</ele>
        <time>2025-09-13T14:20:57+02:00</time>
      </trkpt>
      <trkpt lat="42.76622" lon="1.35855">
        <ele>1207.7002</ele>
        <time>2025-09-13T14:21:01+02:00</time>
      </trkpt>
      <trkpt lat="42.76622" lon="1.35855">
        <ele>1207.7002</ele>
        <time>2025-09-13T14:21:02+02:00</time>
      </trkpt>
      <trkpt lat="42.7662" lon="1.35857">
        <ele>1207.7002</ele>
        <time>2025-09-13T14:21:06+02:00</time>
      </trkpt>
      <trkpt lat="42.76619" lon="1.35857">
        <ele>1207.7002</ele>
        <time>2025-09-13T14:21:07+02:00</time>
      </trkpt>
      <trkpt lat="42.76618" lon="1.35858">
        <ele>1207.7002</ele>
        <time>2025-09-13T14:21:11+02:00</time>
      </trkpt>
      <trkpt lat="42.76618" lon="1.35858">
        <ele>1207.7002</ele>
        <time>2025-09-13T14:21:12+02:00</time>
      </trkpt>
      <trkpt lat="42.76619" lon="1.35858">
        <ele>1207.7002</ele>
        <time>2025-09-13T14:21:16+02:00</time>
      </trkpt>
      <trkpt lat="42.76619" lon="1.35858">
        <ele>1207.7002</ele>
        <time>2025-09-13T14:21:17+02:00</time>
      </trkpt>
      <trkpt lat="42.76619" lon="1.3586">
        <ele>1207.7002</ele>
        <time>2025-09-13T14:21:21+02:00</time>
      </trkpt>
      <trkpt lat="42.76618" lon="1.35861">
        <ele>1207.7002</ele>
        <time>2025-09-13T14:21:22+02:00</time>
      </trkpt>
      <trkpt lat="42.76618" lon="1.35863">
        <ele>1210.1006</ele>
        <time>2025-09-13T14:21:26+02:00</time>
      </trkpt>
      <trkpt lat="42.76618" lon="1.35863">
        <ele>1210.1006</ele>
        <time>2025-09-13T14:21:27+02:00</time>
      </trkpt>
      <trkpt lat="42.76617" lon="1.35864">
        <ele>1210.1006</ele>
        <time>2025-09-13T14:21:31+02:00</time>
      </trkpt>
      <trkpt lat="42.76617" lon="1.35864">
        <ele>1210.1006</ele>
        <time>2025-09-13T14:21:32+02:00</time>
      </trkpt>
      <trkpt lat="42.76617" lon="1.35864">
        <ele>1209.2998</ele>
        <time>2025-09-13T14:21:36+02:00</time>
      </trkpt>
      <trkpt lat="42.76617" lon="1.35864">
        <ele>1210.1006</ele>
        <time>2025-09-13T14:21:37+02:00</time>
      </trkpt>
      <trkpt lat="42.76617" lon="1.35865">
        <ele>1210.1006</ele>
        <time>2025-09-13T14:21:41+02:00</time>
      </trkpt>
      <trkpt lat="42.76618" lon="1.35866">
        <ele>1210.1006</ele>
        <time>2025-09-13T14:21:42+02:00</time>
      </trkpt>
      <trkpt lat="42.76619" lon="1.35868">
        <ele>1210.1006</ele>
        <time>2025-09-13T14:21:46+02:00</time>
      </trkpt>
      <trkpt lat="42.76619" lon="1.35868">
        <ele>1210.1006</ele>
        <time>2025-09-13T14:21:47+02:00</time>
      </trkpt>
      <trkpt lat="42.76619" lon="1.35869">
        <ele>1210.1006</ele>
        <time>2025-09-13T14:21:51+02:00</time>
      </trkpt>
      <trkpt lat="42.76619" lon="1.3587">
        <ele>1210.1006</ele>
        <time>2025-09-13T14:21:52+02:00</time>
      </trkpt>
      <trkpt lat="42.76618" lon="1.35873">
        <ele>1212.7002</ele>
        <time>2025-09-13T14:21:56+02:00</time>
      </trkpt>
      <trkpt lat="42.76618" lon="1.35873">
        <ele>1212.7002</ele>
        <time>2025-09-13T14:21:57+02:00</time>
      </trkpt>
      <trkpt lat="42.76617" lon="1.35876">
        <ele>1211.7002</ele>
        <time>2025-09-13T14:22:01+02:00</time>
      </trkpt>
      <trkpt lat="42.76617" lon="1.35877">
        <ele>1211.7002</ele>
        <time>2025-09-13T14:22:02+02:00</time>
      </trkpt>
      <trkpt lat="42.76616" lon="1.35879">
        <ele>1214</ele>
        <time>2025-09-13T14:22:06+02:00</time>
      </trkpt>
      <trkpt lat="42.76616" lon="1.3588">
        <ele>1214</ele>
        <time>2025-09-13T14:22:07+02:00</time>
      </trkpt>
      <trkpt lat="42.76614" lon="1.35882">
        <ele>1214</ele>
        <time>2025-09-13T14:22:11+02:00</time>
      </trkpt>
      <trkpt lat="42.76614" lon="1.35882">
        <ele>1214</ele>
        <time>2025-09-13T14:22:12+02:00</time>
      </trkpt>
      <trkpt lat="42.76613" lon="1.35884">
        <ele>1214</ele>
        <time>2025-09-13T14:22:16+02:00</time>
      </trkpt>
      <trkpt lat="42.76612" lon="1.35884">
        <ele>1214</ele>
        <time>2025-09-13T14:22:17+02:00</time>
      </trkpt>
      <trkpt lat="42.7661" lon="1.35885">
        <ele>1212.7002</ele>
        <time>2025-09-13T14:22:21+02:00</time>
      </trkpt>
      <trkpt lat="42.7661" lon="1.35885">
        <ele>1212.7002</ele>
        <time>2025-09-13T14:22:22+02:00</time>
      </trkpt>
      <trkpt lat="42.76608" lon="1.35887">
        <ele>1212.7002</ele>
        <time>2025-09-13T14:22:26+02:00</time>
      </trkpt>
      <trkpt lat="42.76608" lon="1.35887">
        <ele>1214.7002</ele>
        <time>2025-09-13T14:22:27+02:00</time>
      </trkpt>
      <trkpt lat="42.76607" lon="1.35889">
        <ele>1214.7002</ele>
        <time>2025-09-13T14:22:31+02:00</time>
      </trkpt>
      <trkpt lat="42.76606" lon="1.35889">
        <ele>1214.7002</ele>
        <time>2025-09-13T14:22:32+02:00</time>
      </trkpt>
      <trkpt lat="42.76605" lon="1.35891">
        <ele>1214.7002</ele>
        <time>2025-09-13T14:22:36+02:00</time>
      </trkpt>
      <trkpt lat="42.76605" lon="1.35892">
        <ele>1214.7002</ele>
        <time>2025-09-13T14:22:37+02:00</time>
      </trkpt>
      <trkpt lat="42.76605" lon="1.35894">
        <ele>1214.7002</ele>
        <time>2025-09-13T14:22:41+02:00</time>
      </trkpt>
      <trkpt lat="42.76605" lon="1.35894">
        <ele>1214.7002</ele>
        <time>2025-09-13T14:22:42+02:00</time>
      </trkpt>
      <trkpt lat="42.76605" lon="1.35894">
        <ele>1214.7002</ele>
        <time>2025-09-13T14:22:46+02:00</time>
      </trkpt>
      <trkpt lat="42.76605" lon="1.35894">
        <ele>1214.7002</ele>
        <time>2025-09-13T14:22:47+02:00</time>
      </trkpt>
      <trkpt lat="42.76605" lon="1.35894">
        <ele>1214.7002</ele>
        <time>2025-09-13T14:22:51+02:00</time>
      </trkpt>
      <trkpt lat="42.76605" lon="1.35894">
        <ele>1214.7002</ele>
        <time>2025-09-13T14:22:52+02:00</time>
      </trkpt>
      <trkpt lat="42.76606" lon="1.35895">
        <ele>1214.7002</ele>
        <time>2025-09-13T14:22:56+02:00</time>
      </trkpt>
      <trkpt lat="42.76606" lon="1.35895">
        <ele>1214.7002</ele>
        <time>2025-09-13T14:22:57+02:00</time>
      </trkpt>
      <trkpt lat="42.76606" lon="1.35896">
        <ele>1217.2998</ele>
        <time>2025-09-13T14:23:01+02:00</time>
      </trkpt>
      <trkpt lat="42.76606" lon="1.35896">
        <ele>1217.2998</ele>
        <time>2025-09-13T14:23:02+02:00</time>
      </trkpt>
      <trkpt lat="42.76606" lon="1.35898">
        <ele>1217.2998</ele>
        <time>2025-09-13T14:23:08+02:00</time>
      </trkpt>
      <trkpt lat="42.76606" lon="1.35898">
        <ele>1217.2998</ele>
        <time>2025-09-13T14:23:09+02:00</time>
      </trkpt>
      <trkpt lat="42.76605" lon="1.35901">
        <ele>1217.2998</ele>
        <time>2025-09-13T14:23:13+02:00</time>
      </trkpt>
      <trkpt lat="42.76605" lon="1.35902">
        <ele>1217.2998</ele>
        <time>2025-09-13T14:23:14+02:00</time>
      </trkpt>
      <trkpt lat="42.76605" lon="1.35904">
        <ele>1217.2998</ele>
        <time>2025-09-13T14:23:18+02:00</time>
      </trkpt>
      <trkpt lat="42.76604" lon="1.35904">
        <ele>1219.9004</ele>
        <time>2025-09-13T14:23:20+02:00</time>
      </trkpt>
      <trkpt lat="42.76603" lon="1.35907">
        <ele>1219.9004</ele>
        <time>2025-09-13T14:23:24+02:00</time>
      </trkpt>
      <trkpt lat="42.76603" lon="1.35907">
        <ele>1219.9004</ele>
        <time>2025-09-13T14:23:25+02:00</time>
      </trkpt>
      <trkpt lat="42.76602" lon="1.3591">
        <ele>1219.9004</ele>
        <time>2025-09-13T14:23:30+02:00</time>
      </trkpt>
      <trkpt lat="42.76602" lon="1.35911">
        <ele>1219.9004</ele>
        <time>2025-09-13T14:23:31+02:00</time>
      </trkpt>
      <trkpt lat="42.76602" lon="1.35912">
        <ele>1219.9004</ele>
        <time>2025-09-13T14:23:35+02:00</time>
      </trkpt>
      <trkpt lat="42.76601" lon="1.35913">
        <ele>1219.9004</ele>
        <time>2025-09-13T14:23:37+02:00</time>
      </trkpt>
      <trkpt lat="42.766" lon="1.35916">
        <ele>1223</ele>
        <time>2025-09-13T14:23:41+02:00</time>
      </trkpt>
      <trkpt lat="42.766" lon="1.35917">
        <ele>1223</ele>
        <time>2025-09-13T14:23:42+02:00</time>
      </trkpt>
      <trkpt lat="42.766" lon="1.35921">
        <ele>1223</ele>
        <time>2025-09-13T14:23:46+02:00</time>
      </trkpt>
      <trkpt lat="42.766" lon="1.35922">
        <ele>1226</ele>
        <time>2025-09-13T14:23:47+02:00</time>
      </trkpt>
      <trkpt lat="42.76599" lon="1.35924">
        <ele>1226</ele>
        <time>2025-09-13T14:23:51+02:00</time>
      </trkpt>
      <trkpt lat="42.76599" lon="1.35924">
        <ele>1226</ele>
        <time>2025-09-13T14:23:52+02:00</time>
      </trkpt>
      <trkpt lat="42.76599" lon="1.35925">
        <ele>1226</ele>
        <time>2025-09-13T14:23:56+02:00</time>
      </trkpt>
      <trkpt lat="42.76599" lon="1.35925">
        <ele>1226</ele>
        <time>2025-09-13T14:23:57+02:00</time>
      </trkpt>
      <trkpt lat="42.76598" lon="1.35928">
        <ele>1226</ele>
        <time>2025-09-13T14:24:01+02:00</time>
      </trkpt>
      <trkpt lat="42.76598" lon="1.35929">
        <ele>1225</ele>
        <time>2025-09-13T14:24:02+02:00</time>
      </trkpt>
      <trkpt lat="42.76596" lon="1.35932">
        <ele>1227.6006</ele>
        <time>2025-09-13T14:24:06+02:00</time>
      </trkpt>
      <trkpt lat="42.76596" lon="1.35932">
        <ele>1227.6006</ele>
        <time>2025-09-13T14:24:07+02:00</time>
      </trkpt>
      <trkpt lat="42.76595" lon="1.35934">
        <ele>1227.6006</ele>
        <time>2025-09-13T14:24:12+02:00</time>
      </trkpt>
      <trkpt lat="42.76594" lon="1.35935">
        <ele>1227.6006</ele>
        <time>2025-09-13T14:24:13+02:00</time>
      </trkpt>
      <trkpt lat="42.76594" lon="1.35935">
        <ele>1227.6006</ele>
        <time>2025-09-13T14:24:17+02:00</time>
      </trkpt>
      <trkpt lat="42.76594" lon="1.35935">
        <ele>1227.6006</ele>
        <time>2025-09-13T14:24:18+02:00</time>
      </trkpt>
      <trkpt lat="42.76592" lon="1.35937">
        <ele>1226.5</ele>
        <time>2025-09-13T14:24:23+02:00</time>
      </trkpt>
      <trkpt lat="42.76591" lon="1.35938">
        <ele>1226.5</ele>
        <time>2025-09-13T14:24:24+02:00</time>
      </trkpt>
      <trkpt lat="42.76591" lon="1.35938">
        <ele>1226.5</ele>
        <time>2025-09-13T14:24:28+02:00</time>
      </trkpt>
      <trkpt lat="42.76591" lon="1.35938">
        <ele>1226.5</ele>
        <time>2025-09-13T14:24:29+02:00</time>
      </trkpt>
      <trkpt lat="42.76592" lon="1.35938">
        <ele>1226.5</ele>
        <time>2025-09-13T14:24:33+02:00</time>
      </trkpt>
      <trkpt lat="42.76592" lon="1.35938">
        <ele>1226.5</ele>
        <time>2025-09-13T14:24:34+02:00</time>
      </trkpt>
      <trkpt lat="42.76592" lon="1.35938">
        <ele>1226.5</ele>
        <time>2025-09-13T14:24:38+02:00</time>
      </trkpt>
      <trkpt lat="42.76592" lon="1.35938">
        <ele>1226.5</ele>
        <time>2025-09-13T14:24:39+02:00</time>
      </trkpt>
      <trkpt lat="42.76591" lon="1.35939">
        <ele>1229</ele>
        <time>2025-09-13T14:24:43+02:00</time>
      </trkpt>
      <trkpt lat="42.76591" lon="1.3594">
        <ele>1229</ele>
        <time>2025-09-13T14:24:44+02:00</time>
      </trkpt>
      <trkpt lat="42.76589" lon="1.35941">
        <ele>1229</ele>
        <time>2025-09-13T14:24:48+02:00</time>
      </trkpt>
      <trkpt lat="42.76589" lon="1.35941">
        <ele>1229</ele>
        <time>2025-09-13T14:24:49+02:00</time>
      </trkpt>
      <trkpt lat="42.76589" lon="1.35941">
        <ele>1229</ele>
        <time>2025-09-13T14:24:53+02:00</time>
      </trkpt>
      <trkpt lat="42.76589" lon="1.35941">
        <ele>1229</ele>
        <time>2025-09-13T14:24:54+02:00</time>
      </trkpt>
      <trkpt lat="42.76589" lon="1.35941">
        <ele>1229</ele>
        <time>2025-09-13T14:24:58+02:00</time>
      </trkpt>
      <trkpt lat="42.76589" lon="1.35941">
        <ele>1229</ele>
        <time>2025-09-13T14:24:59+02:00</time>
      </trkpt>
      <trkpt lat="42.76589" lon="1.35941">
        <ele>1229</ele>
        <time>2025-09-13T14:25:03+02:00</time>
      </trkpt>
      <trkpt lat="42.76589" lon="1.35941">
        <ele>1229</ele>
        <time>2025-09-13T14:25:04+02:00</time>
      </trkpt>
      <trkpt lat="42.76589" lon="1.35942">
        <ele>1229</ele>
        <time>2025-09-13T14:25:08+02:00</time>
      </trkpt>
      <trkpt lat="42.76589" lon="1.35942">
        <ele>1229</ele>
        <time>2025-09-13T14:25:09+02:00</time>
      </trkpt>
      <trkpt lat="42.7659" lon="1.35944">
        <ele>1229</ele>
        <time>2025-09-13T14:25:13+02:00</time>
      </trkpt>
      <trkpt lat="42.7659" lon="1.35944">
        <ele>1229</ele>
        <time>2025-09-13T14:25:14+02:00</time>
      </trkpt>
      <trkpt lat="42.7659" lon="1.35944">
        <ele>1229</ele>
        <time>2025-09-13T14:25:18+02:00</time>
      </trkpt>
      <trkpt lat="42.7659" lon="1.35944">
        <ele>1229</ele>
        <time>2025-09-13T14:25:19+02:00</time>
      </trkpt>
      <trkpt lat="42.7659" lon="1.35944">
        <ele>1229</ele>
        <time>2025-09-13T14:25:23+02:00</time>
      </trkpt>
      <trkpt lat="42.7659" lon="1.35944">
        <ele>1229</ele>
        <time>2025-09-13T14:25:24+02:00</time>
      </trkpt>
      <trkpt lat="42.7659" lon="1.35944">
        <ele>1229</ele>
        <time>2025-09-13T14:25:28+02:00</time>
      </trkpt>
      <trkpt lat="42.7659" lon="1.35944">
        <ele>1229</ele>
        <time>2025-09-13T14:25:29+02:00</time>
      </trkpt>
      <trkpt lat="42.7659" lon="1.35944">
        <ele>1229</ele>
        <time>2025-09-13T14:25:33+02:00</time>
      </trkpt>
      <trkpt lat="42.7659" lon="1.35945">
        <ele>1229</ele>
        <time>2025-09-13T14:25:34+02:00</time>
      </trkpt>
      <trkpt lat="42.7659" lon="1.35945">
        <ele>1229</ele>
        <time>2025-09-13T14:25:38+02:00</time>
      </trkpt>
      <trkpt lat="42.7659" lon="1.35945">
        <ele>1229</ele>
        <time>2025-09-13T14:25:39+02:00</time>
      </trkpt>
      <trkpt lat="42.7659" lon="1.35945">
        <ele>1229</ele>
        <time>2025-09-13T14:25:43+02:00</time>
      </trkpt>
      <trkpt lat="42.7659" lon="1.35945">
        <ele>1229</ele>
        <time>2025-09-13T14:25:44+02:00</time>
      </trkpt>
      <trkpt lat="42.7659" lon="1.35945">
        <ele>1229</ele>
        <time>2025-09-13T14:25:48+02:00</time>
      </trkpt>
      <trkpt lat="42.7659" lon="1.35945">
        <ele>1229</ele>
        <time>2025-09-13T14:25:49+02:00</time>
      </trkpt>
      <trkpt lat="42.7659" lon="1.35945">
        <ele>1229</ele>
        <time>2025-09-13T14:25:53+02:00</time>
      </trkpt>
      <trkpt lat="42.7659" lon="1.35945">
        <ele>1229</ele>
        <time>2025-09-13T14:25:54+02:00</time>
      </trkpt>
      <trkpt lat="42.76589" lon="1.35946">
        <ele>1229</ele>
        <time>2025-09-13T14:25:58+02:00</time>
      </trkpt>
      <trkpt lat="42.76589" lon="1.35946">
        <ele>1229</ele>
        <time>2025-09-13T14:25:59+02:00</time>
      </trkpt>
      <trkpt lat="42.76589" lon="1.35946">
        <ele>1229</ele>
        <time>2025-09-13T14:26:03+02:00</time>
      </trkpt>
      <trkpt lat="42.76589" lon="1.35946">
        <ele>1229</ele>
        <time>2025-09-13T14:26:04+02:00</time>
      </trkpt>
      <trkpt lat="42.76589" lon="1.35946">
        <ele>1229</ele>
        <time>2025-09-13T14:26:08+02:00</time>
      </trkpt>
      <trkpt lat="42.76589" lon="1.35947">
        <ele>1229</ele>
        <time>2025-09-13T14:26:09+02:00</time>
      </trkpt>
      <trkpt lat="42.76589" lon="1.35947">
        <ele>1231.5</ele>
        <time>2025-09-13T14:26:13+02:00</time>
      </trkpt>
      <trkpt lat="42.76589" lon="1.35948">
        <ele>1231.5</ele>
        <time>2025-09-13T14:26:14+02:00</time>
      </trkpt>
      <trkpt lat="42.76587" lon="1.35949">
        <ele>1231.5</ele>
        <time>2025-09-13T14:26:18+02:00</time>
      </trkpt>
      <trkpt lat="42.76587" lon="1.35949">
        <ele>1231.5</ele>
        <time>2025-09-13T14:26:19+02:00</time>
      </trkpt>
      <trkpt lat="42.76586" lon="1.35951">
        <ele>1231.5</ele>
        <time>2025-09-13T14:26:23+02:00</time>
      </trkpt>
      <trkpt lat="42.76585" lon="1.35952">
        <ele>1230.5</ele>
        <time>2025-09-13T14:26:24+02:00</time>
      </trkpt>
      <trkpt lat="42.76584" lon="1.35955">
        <ele>1230.5</ele>
        <time>2025-09-13T14:26:28+02:00</time>
      </trkpt>
      <trkpt lat="42.76583" lon="1.35956">
        <ele>1230.5</ele>
        <time>2025-09-13T14:26:29+02:00</time>
      </trkpt>
      <trkpt lat="42.7658" lon="1.35958">
        <ele>1233</ele>
        <time>2025-09-13T14:26:33+02:00</time>
      </trkpt>
      <trkpt lat="42.76576" lon="1.35959">
        <ele>1232.2002</ele>
        <time>2025-09-13T14:26:38+02:00</time>
      </trkpt>
      <trkpt lat="42.76576" lon="1.35959">
        <ele>1232.2002</ele>
        <time>2025-09-13T14:26:39+02:00</time>
      </trkpt>
      <trkpt lat="42.76573" lon="1.3596">
        <ele>1232.2002</ele>
        <time>2025-09-13T14:26:43+02:00</time>
      </trkpt>
      <trkpt lat="42.76573" lon="1.35961">
        <ele>1231.7002</ele>
        <time>2025-09-13T14:26:44+02:00</time>
      </trkpt>
      <trkpt lat="42.76572" lon="1.35966">
        <ele>1233.9004</ele>
        <time>2025-09-13T14:26:48+02:00</time>
      </trkpt>
      <trkpt lat="42.76572" lon="1.35967">
        <ele>1233.9004</ele>
        <time>2025-09-13T14:26:49+02:00</time>
      </trkpt>
      <trkpt lat="42.76571" lon="1.35972">
        <ele>1233.9004</ele>
        <time>2025-09-13T14:26:53+02:00</time>
      </trkpt>
      <trkpt lat="42.76571" lon="1.35973">
        <ele>1236.1006</ele>
        <time>2025-09-13T14:26:54+02:00</time>
      </trkpt>
      <trkpt lat="42.7657" lon="1.35977">
        <ele>1236.1006</ele>
        <time>2025-09-13T14:26:58+02:00</time>
      </trkpt>
      <trkpt lat="42.7657" lon="1.35977">
        <ele>1236.1006</ele>
        <time>2025-09-13T14:26:59+02:00</time>
      </trkpt>
      <trkpt lat="42.76568" lon="1.35981">
        <ele>1236.1006</ele>
        <time>2025-09-13T14:27:03+02:00</time>
      </trkpt>
      <trkpt lat="42.76568" lon="1.35982">
        <ele>1238.2998</ele>
        <time>2025-09-13T14:27:04+02:00</time>
      </trkpt>
      <trkpt lat="42.76566" lon="1.35985">
        <ele>1237.6006</ele>
        <time>2025-09-13T14:27:08+02:00</time>
      </trkpt>
      <trkpt lat="42.76565" lon="1.35985">
        <ele>1237.6006</ele>
        <time>2025-09-13T14:27:09+02:00</time>
      </trkpt>
      <trkpt lat="42.76563" lon="1.35987">
        <ele>1237.6006</ele>
        <time>2025-09-13T14:27:13+02:00</time>
      </trkpt>
      <trkpt lat="42.76562" lon="1.35987">
        <ele>1237.6006</ele>
        <time>2025-09-13T14:27:14+02:00</time>
      </trkpt>
      <trkpt lat="42.76561" lon="1.35988">
        <ele>1237.6006</ele>
        <time>2025-09-13T14:27:18+02:00</time>
      </trkpt>
      <trkpt lat="42.7656" lon="1.35988">
        <ele>1237</ele>
        <time>2025-09-13T14:27:19+02:00</time>
      </trkpt>
      <trkpt lat="42.76558" lon="1.35989">
        <ele>1237</ele>
        <time>2025-09-13T14:27:23+02:00</time>
      </trkpt>
      <trkpt lat="42.76558" lon="1.35989">
        <ele>1237</ele>
        <time>2025-09-13T14:27:24+02:00</time>
      </trkpt>
      <trkpt lat="42.76557" lon="1.35992">
        <ele>1239.1006</ele>
        <time>2025-09-13T14:27:28+02:00</time>
      </trkpt>
      <trkpt lat="42.76557" lon="1.35992">
        <ele>1239.1006</ele>
        <time>2025-09-13T14:27:29+02:00</time>
      </trkpt>
      <trkpt lat="42.76556" lon="1.35993">
        <ele>1239.1006</ele>
        <time>2025-09-13T14:27:33+02:00</time>
      </trkpt>
      <trkpt lat="42.76556" lon="1.35994">
        <ele>1239.1006</ele>
        <time>2025-09-13T14:27:34+02:00</time>
      </trkpt>
      <trkpt lat="42.76555" lon="1.35996">
        <ele>1239.1006</ele>
        <time>2025-09-13T14:27:38+02:00</time>
      </trkpt>
      <trkpt lat="42.76555" lon="1.35997">
        <ele>1239.1006</ele>
        <time>2025-09-13T14:27:39+02:00</time>
      </trkpt>
      <trkpt lat="42.76556" lon="1.36">
        <ele>1241.2998</ele>
        <time>2025-09-13T14:27:43+02:00</time>
      </trkpt>
      <trkpt lat="42.76556" lon="1.36">
        <ele>1241.2998</ele>
        <time>2025-09-13T14:27:44+02:00</time>
      </trkpt>
      <trkpt lat="42.76556" lon="1.36004">
        <ele>1241.2998</ele>
        <time>2025-09-13T14:27:48+02:00</time>
      </trkpt>
      <trkpt lat="42.76556" lon="1.36004">
        <ele>1241.2998</ele>
        <time>2025-09-13T14:27:49+02:00</time>
      </trkpt>
      <trkpt lat="42.76555" lon="1.36008">
        <ele>1243.5</ele>
        <time>2025-09-13T14:27:53+02:00</time>
      </trkpt>
      <trkpt lat="42.76554" lon="1.36009">
        <ele>1243.5</ele>
        <time>2025-09-13T14:27:54+02:00</time>
      </trkpt>
      <trkpt lat="42.76553" lon="1.36013">
        <ele>1242.7998</ele>
        <time>2025-09-13T14:27:58+02:00</time>
      </trkpt>
      <trkpt lat="42.76552" lon="1.36013">
        <ele>1242.7998</ele>
        <time>2025-09-13T14:27:59+02:00</time>
      </trkpt>
      <trkpt lat="42.76551" lon="1.36014">
        <ele>1242.7998</ele>
        <time>2025-09-13T14:28:04+02:00</time>
      </trkpt>
      <trkpt lat="42.7655" lon="1.36014">
        <ele>1242.7998</ele>
        <time>2025-09-13T14:28:05+02:00</time>
      </trkpt>
      <trkpt lat="42.7655" lon="1.36015">
        <ele>1242.7998</ele>
        <time>2025-09-13T14:28:09+02:00</time>
      </trkpt>
      <trkpt lat="42.7655" lon="1.36015">
        <ele>1242.7998</ele>
        <time>2025-09-13T14:28:10+02:00</time>
      </trkpt>
      <trkpt lat="42.76548" lon="1.36018">
        <ele>1245</ele>
        <time>2025-09-13T14:28:14+02:00</time>
      </trkpt>
      <trkpt lat="42.76548" lon="1.36018">
        <ele>1245</ele>
        <time>2025-09-13T14:28:15+02:00</time>
      </trkpt>
      <trkpt lat="42.76547" lon="1.36022">
        <ele>1244.2998</ele>
        <time>2025-09-13T14:28:19+02:00</time>
      </trkpt>
      <trkpt lat="42.76547" lon="1.36023">
        <ele>1244.2998</ele>
        <time>2025-09-13T14:28:20+02:00</time>
      </trkpt>
      <trkpt lat="42.76545" lon="1.36025">
        <ele>1246.4004</ele>
        <time>2025-09-13T14:28:24+02:00</time>
      </trkpt>
      <trkpt lat="42.76545" lon="1.36026">
        <ele>1246.4004</ele>
        <time>2025-09-13T14:28:25+02:00</time>
      </trkpt>
      <trkpt lat="42.76545" lon="1.36029">
        <ele>1246.4004</ele>
        <time>2025-09-13T14:28:29+02:00</time>
      </trkpt>
      <trkpt lat="42.76545" lon="1.3603">
        <ele>1246.4004</ele>
        <time>2025-09-13T14:28:30+02:00</time>
      </trkpt>
      <trkpt lat="42.76546" lon="1.36031">
        <ele>1246.4004</ele>
        <time>2025-09-13T14:28:34+02:00</time>
      </trkpt>
      <trkpt lat="42.76546" lon="1.36032">
        <ele>1246.4004</ele>
        <time>2025-09-13T14:28:35+02:00</time>
      </trkpt>
      <trkpt lat="42.76545" lon="1.36033">
        <ele>1246.4004</ele>
        <time>2025-09-13T14:28:39+02:00</time>
      </trkpt>
      <trkpt lat="42.76545" lon="1.36033">
        <ele>1246.4004</ele>
        <time>2025-09-13T14:28:40+02:00</time>
      </trkpt>
      <trkpt lat="42.76545" lon="1.36034">
        <ele>1248.7998</ele>
        <time>2025-09-13T14:28:44+02:00</time>
      </trkpt>
      <trkpt lat="42.76544" lon="1.36034">
        <ele>1248.7998</ele>
        <time>2025-09-13T14:28:45+02:00</time>
      </trkpt>
      <trkpt lat="42.76544" lon="1.36036">
        <ele>1248.7998</ele>
        <time>2025-09-13T14:28:49+02:00</time>
      </trkpt>
      <trkpt lat="42.76544" lon="1.36036">
        <ele>1248.7998</ele>
        <time>2025-09-13T14:28:50+02:00</time>
      </trkpt>
      <trkpt lat="42.76544" lon="1.36038">
        <ele>1248.7998</ele>
        <time>2025-09-13T14:28:54+02:00</time>
      </trkpt>
      <trkpt lat="42.76544" lon="1.36039">
        <ele>1248.7998</ele>
        <time>2025-09-13T14:28:55+02:00</time>
      </trkpt>
      <trkpt lat="42.76543" lon="1.36042">
        <ele>1251.2002</ele>
        <time>2025-09-13T14:28:59+02:00</time>
      </trkpt>
      <trkpt lat="42.76543" lon="1.36043">
        <ele>1251.2002</ele>
        <time>2025-09-13T14:29:00+02:00</time>
      </trkpt>
      <trkpt lat="42.76542" lon="1.36046">
        <ele>1251.2002</ele>
        <time>2025-09-13T14:29:04+02:00</time>
      </trkpt>
      <trkpt lat="42.76542" lon="1.36046">
        <ele>1251.2002</ele>
        <time>2025-09-13T14:29:05+02:00</time>
      </trkpt>
      <trkpt lat="42.76542" lon="1.36048">
        <ele>1251.2002</ele>
        <time>2025-09-13T14:29:09+02:00</time>
      </trkpt>
      <trkpt lat="42.76542" lon="1.36048">
        <ele>1251.2002</ele>
        <time>2025-09-13T14:29:10+02:00</time>
      </trkpt>
      <trkpt lat="42.76542" lon="1.36049">
        <ele>1251.2002</ele>
        <time>2025-09-13T14:29:14+02:00</time>
      </trkpt>
      <trkpt lat="42.76542" lon="1.36049">
        <ele>1251.2002</ele>
        <time>2025-09-13T14:29:15+02:00</time>
      </trkpt>
      <trkpt lat="42.76542" lon="1.3605">
        <ele>1251.2002</ele>
        <time>2025-09-13T14:29:19+02:00</time>
      </trkpt>
      <trkpt lat="42.76542" lon="1.3605">
        <ele>1253.9004</ele>
        <time>2025-09-13T14:29:20+02:00</time>
      </trkpt>
      <trkpt lat="42.76542" lon="1.36051">
        <ele>1253.9004</ele>
        <time>2025-09-13T14:29:24+02:00</time>
      </trkpt>
      <trkpt lat="42.76542" lon="1.3605">
        <ele>1253.9004</ele>
        <time>2025-09-13T14:29:26+02:00</time>
      </trkpt>
      <trkpt lat="42.76542" lon="1.3605">
        <ele>1253.9004</ele>
        <time>2025-09-13T14:29:30+02:00</time>
      </trkpt>
      <trkpt lat="42.76542" lon="1.3605">
        <ele>1253.9004</ele>
        <time>2025-09-13T14:29:32+02:00</time>
      </trkpt>
      <trkpt lat="42.76542" lon="1.36051">
        <ele>1253.9004</ele>
        <time>2025-09-13T14:29:37+02:00</time>
      </trkpt>
      <trkpt lat="42.76542" lon="1.36051">
        <ele>1253.9004</ele>
        <time>2025-09-13T14:29:38+02:00</time>
      </trkpt>
      <trkpt lat="42.76541" lon="1.36052">
        <ele>1252.7002</ele>
        <time>2025-09-13T14:29:42+02:00</time>
      </trkpt>
      <trkpt lat="42.76541" lon="1.36052">
        <ele>1252.7002</ele>
        <time>2025-09-13T14:29:43+02:00</time>
      </trkpt>
      <trkpt lat="42.7654" lon="1.36054">
        <ele>1252.7002</ele>
        <time>2025-09-13T14:29:47+02:00</time>
      </trkpt>
      <trkpt lat="42.7654" lon="1.36055">
        <ele>1252.7002</ele>
        <time>2025-09-13T14:29:48+02:00</time>
      </trkpt>
      <trkpt lat="42.76539" lon="1.36057">
        <ele>1252.7002</ele>
        <time>2025-09-13T14:29:51+02:00</time>
      </trkpt>
      <trkpt lat="42.76539" lon="1.36058">
        <ele>1252.7002</ele>
        <time>2025-09-13T14:29:52+02:00</time>
      </trkpt>
      <trkpt lat="42.76539" lon="1.36059">
        <ele>1255.4004</ele>
        <time>2025-09-13T14:29:57+02:00</time>
      </trkpt>
      <trkpt lat="42.76539" lon="1.36059">
        <ele>1255.4004</ele>
        <time>2025-09-13T14:29:58+02:00</time>
      </trkpt>
      <trkpt lat="42.76539" lon="1.36059">
        <ele>1255.4004</ele>
        <time>2025-09-13T14:30:02+02:00</time>
      </trkpt>
      <trkpt lat="42.76539" lon="1.36059">
        <ele>1255.4004</ele>
        <time>2025-09-13T14:30:03+02:00</time>
      </trkpt>
      <trkpt lat="42.76539" lon="1.3606">
        <ele>1255.4004</ele>
        <time>2025-09-13T14:30:07+02:00</time>
      </trkpt>
      <trkpt lat="42.76539" lon="1.3606">
        <ele>1255.4004</ele>
        <time>2025-09-13T14:30:08+02:00</time>
      </trkpt>
      <trkpt lat="42.76538" lon="1.36061">
        <ele>1255.4004</ele>
        <time>2025-09-13T14:30:12+02:00</time>
      </trkpt>
      <trkpt lat="42.76538" lon="1.36061">
        <ele>1255.4004</ele>
        <time>2025-09-13T14:30:13+02:00</time>
      </trkpt>
      <trkpt lat="42.76538" lon="1.36063">
        <ele>1255.4004</ele>
        <time>2025-09-13T14:30:17+02:00</time>
      </trkpt>
      <trkpt lat="42.76538" lon="1.36063">
        <ele>1255.4004</ele>
        <time>2025-09-13T14:30:18+02:00</time>
      </trkpt>
      <trkpt lat="42.76538" lon="1.36063">
        <ele>1255.4004</ele>
        <time>2025-09-13T14:30:22+02:00</time>
      </trkpt>
      <trkpt lat="42.76538" lon="1.36063">
        <ele>1255.4004</ele>
        <time>2025-09-13T14:30:23+02:00</time>
      </trkpt>
      <trkpt lat="42.76539" lon="1.36065">
        <ele>1255.4004</ele>
        <time>2025-09-13T14:30:27+02:00</time>
      </trkpt>
      <trkpt lat="42.76539" lon="1.36065">
        <ele>1255.4004</ele>
        <time>2025-09-13T14:30:28+02:00</time>
      </trkpt>
      <trkpt lat="42.76538" lon="1.36068">
        <ele>1258.2998</ele>
        <time>2025-09-13T14:30:32+02:00</time>
      </trkpt>
      <trkpt lat="42.76538" lon="1.36069">
        <ele>1258.2998</ele>
        <time>2025-09-13T14:30:33+02:00</time>
      </trkpt>
      <trkpt lat="42.76536" lon="1.3607">
        <ele>1258.2998</ele>
        <time>2025-09-13T14:30:37+02:00</time>
      </trkpt>
      <trkpt lat="42.76536" lon="1.3607">
        <ele>1258.2998</ele>
        <time>2025-09-13T14:30:38+02:00</time>
      </trkpt>
      <trkpt lat="42.76535" lon="1.36071">
        <ele>1256.7998</ele>
        <time>2025-09-13T14:30:42+02:00</time>
      </trkpt>
      <trkpt lat="42.76535" lon="1.36071">
        <ele>1256.7998</ele>
        <time>2025-09-13T14:30:43+02:00</time>
      </trkpt>
      <trkpt lat="42.76534" lon="1.36073">
        <ele>1256.7998</ele>
        <time>2025-09-13T14:30:47+02:00</time>
      </trkpt>
      <trkpt lat="42.76534" lon="1.36074">
        <ele>1256.7998</ele>
        <time>2025-09-13T14:30:48+02:00</time>
      </trkpt>
      <trkpt lat="42.76533" lon="1.36075">
        <ele>1256.7998</ele>
        <time>2025-09-13T14:30:53+02:00</time>
      </trkpt>
      <trkpt lat="42.76533" lon="1.36076">
        <ele>1256.7998</ele>
        <time>2025-09-13T14:30:54+02:00</time>
      </trkpt>
      <trkpt lat="42.76532" lon="1.36078">
        <ele>1259.7002</ele>
        <time>2025-09-13T14:30:58+02:00</time>
      </trkpt>
      <trkpt lat="42.76532" lon="1.36078">
        <ele>1259.7002</ele>
        <time>2025-09-13T14:30:59+02:00</time>
      </trkpt>
      <trkpt lat="42.76532" lon="1.36079">
        <ele>1259.7002</ele>
        <time>2025-09-13T14:31:03+02:00</time>
      </trkpt>
      <trkpt lat="42.76532" lon="1.3608">
        <ele>1259.7002</ele>
        <time>2025-09-13T14:31:04+02:00</time>
      </trkpt>
      <trkpt lat="42.76532" lon="1.36082">
        <ele>1259.7002</ele>
        <time>2025-09-13T14:31:08+02:00</time>
      </trkpt>
      <trkpt lat="42.76532" lon="1.36083">
        <ele>1259.7002</ele>
        <time>2025-09-13T14:31:10+02:00</time>
      </trkpt>
      <trkpt lat="42.76531" lon="1.36085">
        <ele>1262.9004</ele>
        <time>2025-09-13T14:31:14+02:00</time>
      </trkpt>
      <trkpt lat="42.76531" lon="1.36086">
        <ele>1262.9004</ele>
        <time>2025-09-13T14:31:15+02:00</time>
      </trkpt>
      <trkpt lat="42.7653" lon="1.36089">
        <ele>1262.9004</ele>
        <time>2025-09-13T14:31:19+02:00</time>
      </trkpt>
      <trkpt lat="42.76529" lon="1.36091">
        <ele>1262.9004</ele>
        <time>2025-09-13T14:31:20+02:00</time>
      </trkpt>
      <trkpt lat="42.76528" lon="1.36095">
        <ele>1264.2002</ele>
        <time>2025-09-13T14:31:24+02:00</time>
      </trkpt>
      <trkpt lat="42.76528" lon="1.36095">
        <ele>1264.2002</ele>
        <time>2025-09-13T14:31:25+02:00</time>
      </trkpt>
      <trkpt lat="42.76526" lon="1.36098">
        <ele>1264.2002</ele>
        <time>2025-09-13T14:31:29+02:00</time>
      </trkpt>
      <trkpt lat="42.76526" lon="1.36099">
        <ele>1264.2002</ele>
        <time>2025-09-13T14:31:30+02:00</time>
      </trkpt>
      <trkpt lat="42.76524" lon="1.36102">
        <ele>1267.5</ele>
        <time>2025-09-13T14:31:34+02:00</time>
      </trkpt>
      <trkpt lat="42.76523" lon="1.36103">
        <ele>1267.5</ele>
        <time>2025-09-13T14:31:35+02:00</time>
      </trkpt>
      <trkpt lat="42.76519" lon="1.36106">
        <ele>1265.4004</ele>
        <time>2025-09-13T14:31:40+02:00</time>
      </trkpt>
      <trkpt lat="42.76519" lon="1.36106">
        <ele>1265.4004</ele>
        <time>2025-09-13T14:31:41+02:00</time>
      </trkpt>
      <trkpt lat="42.76516" lon="1.36106">
        <ele>1265.4004</ele>
        <time>2025-09-13T14:31:45+02:00</time>
      </trkpt>
      <trkpt lat="42.76516" lon="1.36107">
        <ele>1263.4004</ele>
        <time>2025-09-13T14:31:46+02:00</time>
      </trkpt>
      <trkpt lat="42.76515" lon="1.36108">
        <ele>1263.4004</ele>
        <time>2025-09-13T14:31:50+02:00</time>
      </trkpt>
      <trkpt lat="42.76515" lon="1.36108">
        <ele>1263.4004</ele>
        <time>2025-09-13T14:31:51+02:00</time>
      </trkpt>
      <trkpt lat="42.76514" lon="1.36109">
        <ele>1263.4004</ele>
        <time>2025-09-13T14:31:55+02:00</time>
      </trkpt>
      <trkpt lat="42.76514" lon="1.3611">
        <ele>1263.4004</ele>
        <time>2025-09-13T14:31:56+02:00</time>
      </trkpt>
      <trkpt lat="42.76513" lon="1.36112">
        <ele>1266.4004</ele>
        <time>2025-09-13T14:32:00+02:00</time>
      </trkpt>
      <trkpt lat="42.76513" lon="1.36113">
        <ele>1266.4004</ele>
        <time>2025-09-13T14:32:01+02:00</time>
      </trkpt>
      <trkpt lat="42.76512" lon="1.36116">
        <ele>1266.4004</ele>
        <time>2025-09-13T14:32:05+02:00</time>
      </trkpt>
      <trkpt lat="42.76512" lon="1.36116">
        <ele>1266.4004</ele>
        <time>2025-09-13T14:32:06+02:00</time>
      </trkpt>
      <trkpt lat="42.76512" lon="1.36115">
        <ele>1266.4004</ele>
        <time>2025-09-13T14:32:10+02:00</time>
      </trkpt>
      <trkpt lat="42.76512" lon="1.36115">
        <ele>1266.4004</ele>
        <time>2025-09-13T14:32:11+02:00</time>
      </trkpt>
      <trkpt lat="42.76512" lon="1.36115">
        <ele>1266.4004</ele>
        <time>2025-09-13T14:32:15+02:00</time>
      </trkpt>
      <trkpt lat="42.76511" lon="1.36116">
        <ele>1266.4004</ele>
        <time>2025-09-13T14:32:16+02:00</time>
      </trkpt>
      <trkpt lat="42.7651" lon="1.36118">
        <ele>1266.4004</ele>
        <time>2025-09-13T14:32:20+02:00</time>
      </trkpt>
      <trkpt lat="42.7651" lon="1.36118">
        <ele>1266.4004</ele>
        <time>2025-09-13T14:32:21+02:00</time>
      </trkpt>
      <trkpt lat="42.76509" lon="1.36121">
        <ele>1267.5</ele>
        <time>2025-09-13T14:32:25+02:00</time>
      </trkpt>
      <trkpt lat="42.76509" lon="1.36122">
        <ele>1267.5</ele>
        <time>2025-09-13T14:32:26+02:00</time>
      </trkpt>
      <trkpt lat="42.76509" lon="1.36126">
        <ele>1267.5</ele>
        <time>2025-09-13T14:32:30+02:00</time>
      </trkpt>
      <trkpt lat="42.76509" lon="1.36127">
        <ele>1267.5</ele>
        <time>2025-09-13T14:32:31+02:00</time>
      </trkpt>
      <trkpt lat="42.76509" lon="1.36127">
        <ele>1267.5</ele>
        <time>2025-09-13T14:32:35+02:00</time>
      </trkpt>
      <trkpt lat="42.76509" lon="1.36127">
        <ele>1267.5</ele>
        <time>2025-09-13T14:32:36+02:00</time>
      </trkpt>
      <trkpt lat="42.7651" lon="1.36127">
        <ele>1267.5</ele>
        <time>2025-09-13T14:32:40+02:00</time>
      </trkpt>
      <trkpt lat="42.7651" lon="1.36128">
        <ele>1270.9004</ele>
        <time>2025-09-13T14:32:41+02:00</time>
      </trkpt>
      <trkpt lat="42.7651" lon="1.36129">
        <ele>1270.9004</ele>
        <time>2025-09-13T14:32:45+02:00</time>
      </trkpt>
      <trkpt lat="42.7651" lon="1.3613">
        <ele>1270.9004</ele>
        <time>2025-09-13T14:32:46+02:00</time>
      </trkpt>
      <trkpt lat="42.76509" lon="1.36131">
        <ele>1270.9004</ele>
        <time>2025-09-13T14:32:51+02:00</time>
      </trkpt>
      <trkpt lat="42.76509" lon="1.36132">
        <ele>1270.9004</ele>
        <time>2025-09-13T14:32:52+02:00</time>
      </trkpt>
      <trkpt lat="42.76508" lon="1.36135">
        <ele>1270.9004</ele>
        <time>2025-09-13T14:32:56+02:00</time>
      </trkpt>
      <trkpt lat="42.76507" lon="1.36135">
        <ele>1270.9004</ele>
        <time>2025-09-13T14:32:57+02:00</time>
      </trkpt>
      <trkpt lat="42.76507" lon="1.36136">
        <ele>1270.9004</ele>
        <time>2025-09-13T14:33:01+02:00</time>
      </trkpt>
      <trkpt lat="42.76507" lon="1.36136">
        <ele>1270.9004</ele>
        <time>2025-09-13T14:33:02+02:00</time>
      </trkpt>
      <trkpt lat="42.76506" lon="1.36138">
        <ele>1274.2998</ele>
        <time>2025-09-13T14:33:06+02:00</time>
      </trkpt>
      <trkpt lat="42.76506" lon="1.36138">
        <ele>1274.2998</ele>
        <time>2025-09-13T14:33:07+02:00</time>
      </trkpt>
      <trkpt lat="42.76505" lon="1.36139">
        <ele>1274.2998</ele>
        <time>2025-09-13T14:33:12+02:00</time>
      </trkpt>
      <trkpt lat="42.76505" lon="1.3614">
        <ele>1274.2998</ele>
        <time>2025-09-13T14:33:13+02:00</time>
      </trkpt>
      <trkpt lat="42.76503" lon="1.36141">
        <ele>1272</ele>
        <time>2025-09-13T14:33:17+02:00</time>
      </trkpt>
      <trkpt lat="42.76503" lon="1.36142">
        <ele>1272</ele>
        <time>2025-09-13T14:33:18+02:00</time>
      </trkpt>
      <trkpt lat="42.765" lon="1.36143">
        <ele>1272</ele>
        <time>2025-09-13T14:33:22+02:00</time>
      </trkpt>
      <trkpt lat="42.76498" lon="1.36145">
        <ele>1275.4004</ele>
        <time>2025-09-13T14:33:27+02:00</time>
      </trkpt>
      <trkpt lat="42.76497" lon="1.36145">
        <ele>1273</ele>
        <time>2025-09-13T14:33:28+02:00</time>
      </trkpt>
      <trkpt lat="42.76494" lon="1.36148">
        <ele>1273</ele>
        <time>2025-09-13T14:33:32+02:00</time>
      </trkpt>
      <trkpt lat="42.76493" lon="1.36148">
        <ele>1273</ele>
        <time>2025-09-13T14:33:33+02:00</time>
      </trkpt>
      <trkpt lat="42.7649" lon="1.36149">
        <ele>1270.7998</ele>
        <time>2025-09-13T14:33:37+02:00</time>
      </trkpt>
      <trkpt lat="42.76489" lon="1.36149">
        <ele>1270.7998</ele>
        <time>2025-09-13T14:33:38+02:00</time>
      </trkpt>
      <trkpt lat="42.76487" lon="1.3615">
        <ele>1270.7998</ele>
        <time>2025-09-13T14:33:42+02:00</time>
      </trkpt>
      <trkpt lat="42.76487" lon="1.3615">
        <ele>1270.7998</ele>
        <time>2025-09-13T14:33:43+02:00</time>
      </trkpt>
      <trkpt lat="42.76485" lon="1.3615">
        <ele>1270.7998</ele>
        <time>2025-09-13T14:33:47+02:00</time>
      </trkpt>
      <trkpt lat="42.76485" lon="1.36149">
        <ele>1270.7998</ele>
        <time>2025-09-13T14:33:48+02:00</time>
      </trkpt>
      <trkpt lat="42.76485" lon="1.36149">
        <ele>1270.7998</ele>
        <time>2025-09-13T14:33:52+02:00</time>
      </trkpt>
      <trkpt lat="42.76485" lon="1.36149">
        <ele>1270.7998</ele>
        <time>2025-09-13T14:33:53+02:00</time>
      </trkpt>
      <trkpt lat="42.76484" lon="1.36149">
        <ele>1268.9004</ele>
        <time>2025-09-13T14:33:57+02:00</time>
      </trkpt>
      <trkpt lat="42.76483" lon="1.36149">
        <ele>1268.9004</ele>
        <time>2025-09-13T14:33:58+02:00</time>
      </trkpt>
      <trkpt lat="42.76483" lon="1.36149">
        <ele>1268.9004</ele>
        <time>2025-09-13T14:34:02+02:00</time>
      </trkpt>
      <trkpt lat="42.76482" lon="1.36149">
        <ele>1268.9004</ele>
        <time>2025-09-13T14:34:03+02:00</time>
      </trkpt>
      <trkpt lat="42.76481" lon="1.3615">
        <ele>1268.9004</ele>
        <time>2025-09-13T14:34:07+02:00</time>
      </trkpt>
      <trkpt lat="42.76481" lon="1.3615">
        <ele>1268.9004</ele>
        <time>2025-09-13T14:34:08+02:00</time>
      </trkpt>
      <trkpt lat="42.76481" lon="1.3615">
        <ele>1268.9004</ele>
        <time>2025-09-13T14:34:12+02:00</time>
      </trkpt>
      <trkpt lat="42.76481" lon="1.36151">
        <ele>1268.9004</ele>
        <time>2025-09-13T14:34:13+02:00</time>
      </trkpt>
      <trkpt lat="42.76481" lon="1.36152">
        <ele>1268.9004</ele>
        <time>2025-09-13T14:34:17+02:00</time>
      </trkpt>
      <trkpt lat="42.76481" lon="1.36152">
        <ele>1268.9004</ele>
        <time>2025-09-13T14:34:18+02:00</time>
      </trkpt>
      <trkpt lat="42.7648" lon="1.36153">
        <ele>1268.9004</ele>
        <time>2025-09-13T14:34:22+02:00</time>
      </trkpt>
      <trkpt lat="42.7648" lon="1.36153">
        <ele>1268.9004</ele>
        <time>2025-09-13T14:34:23+02:00</time>
      </trkpt>
      <trkpt lat="42.7648" lon="1.36154">
        <ele>1272.2002</ele>
        <time>2025-09-13T14:34:27+02:00</time>
      </trkpt>
      <trkpt lat="42.7648" lon="1.36154">
        <ele>1272.2002</ele>
        <time>2025-09-13T14:34:28+02:00</time>
      </trkpt>
      <trkpt lat="42.7648" lon="1.36155">
        <ele>1272.2002</ele>
        <time>2025-09-13T14:34:32+02:00</time>
      </trkpt>
      <trkpt lat="42.76479" lon="1.36155">
        <ele>1272.2002</ele>
        <time>2025-09-13T14:34:33+02:00</time>
      </trkpt>
      <trkpt lat="42.76479" lon="1.36156">
        <ele>1272.2002</ele>
        <time>2025-09-13T14:34:37+02:00</time>
      </trkpt>
      <trkpt lat="42.76479" lon="1.36156">
        <ele>1272.2002</ele>
        <time>2025-09-13T14:34:38+02:00</time>
      </trkpt>
      <trkpt lat="42.76479" lon="1.36157">
        <ele>1272.2002</ele>
        <time>2025-09-13T14:34:43+02:00</time>
      </trkpt>
      <trkpt lat="42.76479" lon="1.36157">
        <ele>1272.2002</ele>
        <time>2025-09-13T14:34:44+02:00</time>
      </trkpt>
      <trkpt lat="42.76479" lon="1.36157">
        <ele>1272.2002</ele>
        <time>2025-09-13T14:34:48+02:00</time>
      </trkpt>
      <trkpt lat="42.76479" lon="1.36157">
        <ele>1272.2002</ele>
        <time>2025-09-13T14:34:49+02:00</time>
      </trkpt>
      <trkpt lat="42.76479" lon="1.36157">
        <ele>1272.2002</ele>
        <time>2025-09-13T14:34:53+02:00</time>
      </trkpt>
      <trkpt lat="42.76479" lon="1.36158">
        <ele>1272.2002</ele>
        <time>2025-09-13T14:34:54+02:00</time>
      </trkpt>
      <trkpt lat="42.76479" lon="1.36158">
        <ele>1272.2002</ele>
        <time>2025-09-13T14:34:58+02:00</time>
      </trkpt>
      <trkpt lat="42.76479" lon="1.36158">
        <ele>1272.2002</ele>
        <time>2025-09-13T14:34:59+02:00</time>
      </trkpt>
      <trkpt lat="42.76479" lon="1.36156">
        <ele>1272.2002</ele>
        <time>2025-09-13T14:35:03+02:00</time>
      </trkpt>
      <trkpt lat="42.76479" lon="1.36157">
        <ele>1272.2002</ele>
        <time>2025-09-13T14:35:05+02:00</time>
      </trkpt>
      <trkpt lat="42.76477" lon="1.36157">
        <ele>1270.2002</ele>
        <time>2025-09-13T14:35:09+02:00</time>
      </trkpt>
      <trkpt lat="42.76477" lon="1.36157">
        <ele>1270.2002</ele>
        <time>2025-09-13T14:35:10+02:00</time>
      </trkpt>
      <trkpt lat="42.76475" lon="1.36158">
        <ele>1270.2002</ele>
        <time>2025-09-13T14:35:14+02:00</time>
      </trkpt>
      <trkpt lat="42.76475" lon="1.36158">
        <ele>1270.2002</ele>
        <time>2025-09-13T14:35:15+02:00</time>
      </trkpt>
      <trkpt lat="42.76475" lon="1.36157">
        <ele>1270.2002</ele>
        <time>2025-09-13T14:35:19+02:00</time>
      </trkpt>
      <trkpt lat="42.76474" lon="1.36158">
        <ele>1270.2002</ele>
        <time>2025-09-13T14:35:20+02:00</time>
      </trkpt>
      <trkpt lat="42.76474" lon="1.36158">
        <ele>1270.2002</ele>
        <time>2025-09-13T14:35:24+02:00</time>
      </trkpt>
      <trkpt lat="42.76474" lon="1.36158">
        <ele>1270.2002</ele>
        <time>2025-09-13T14:35:25+02:00</time>
      </trkpt>
      <trkpt lat="42.76474" lon="1.36158">
        <ele>1270.2002</ele>
        <time>2025-09-13T14:35:29+02:00</time>
      </trkpt>
      <trkpt lat="42.76474" lon="1.36158">
        <ele>1270.2002</ele>
        <time>2025-09-13T14:35:30+02:00</time>
      </trkpt>
      <trkpt lat="42.76473" lon="1.3616">
        <ele>1270.2002</ele>
        <time>2025-09-13T14:35:34+02:00</time>
      </trkpt>
      <trkpt lat="42.76472" lon="1.3616">
        <ele>1270.2002</ele>
        <time>2025-09-13T14:35:35+02:00</time>
      </trkpt>
      <trkpt lat="42.7647" lon="1.36162">
        <ele>1268.4004</ele>
        <time>2025-09-13T14:35:39+02:00</time>
      </trkpt>
      <trkpt lat="42.76469" lon="1.36161">
        <ele>1268.4004</ele>
        <time>2025-09-13T14:35:44+02:00</time>
      </trkpt>
      <trkpt lat="42.76468" lon="1.36161">
        <ele>1268.4004</ele>
        <time>2025-09-13T14:35:45+02:00</time>
      </trkpt>
      <trkpt lat="42.76467" lon="1.36161">
        <ele>1268.4004</ele>
        <time>2025-09-13T14:35:49+02:00</time>
      </trkpt>
      <trkpt lat="42.76466" lon="1.36161">
        <ele>1268.4004</ele>
        <time>2025-09-13T14:35:50+02:00</time>
      </trkpt>
      <trkpt lat="42.76465" lon="1.36161">
        <ele>1266.7002</ele>
        <time>2025-09-13T14:35:54+02:00</time>
      </trkpt>
      <trkpt lat="42.76465" lon="1.36161">
        <ele>1266.7002</ele>
        <time>2025-09-13T14:35:55+02:00</time>
      </trkpt>
      <trkpt lat="42.76463" lon="1.36161">
        <ele>1266.7002</ele>
        <time>2025-09-13T14:35:59+02:00</time>
      </trkpt>
      <trkpt lat="42.76462" lon="1.36161">
        <ele>1266.7002</ele>
        <time>2025-09-13T14:36:00+02:00</time>
      </trkpt>
      <trkpt lat="42.76461" lon="1.36163">
        <ele>1269.9004</ele>
        <time>2025-09-13T14:36:04+02:00</time>
      </trkpt>
      <trkpt lat="42.7646" lon="1.36163">
        <ele>1269.9004</ele>
        <time>2025-09-13T14:36:05+02:00</time>
      </trkpt>
      <trkpt lat="42.7646" lon="1.36165">
        <ele>1269.9004</ele>
        <time>2025-09-13T14:36:09+02:00</time>
      </trkpt>
      <trkpt lat="42.76459" lon="1.36166">
        <ele>1268.2002</ele>
        <time>2025-09-13T14:36:10+02:00</time>
      </trkpt>
      <trkpt lat="42.76458" lon="1.36168">
        <ele>1268.2002</ele>
        <time>2025-09-13T14:36:15+02:00</time>
      </trkpt>
      <trkpt lat="42.76457" lon="1.36169">
        <ele>1268.2002</ele>
        <time>2025-09-13T14:36:16+02:00</time>
      </trkpt>
      <trkpt lat="42.76454" lon="1.36173">
        <ele>1271.6006</ele>
        <time>2025-09-13T14:36:20+02:00</time>
      </trkpt>
      <trkpt lat="42.76454" lon="1.36174">
        <ele>1271.6006</ele>
        <time>2025-09-13T14:36:21+02:00</time>
      </trkpt>
      <trkpt lat="42.76453" lon="1.36177">
        <ele>1270.2002</ele>
        <time>2025-09-13T14:36:25+02:00</time>
      </trkpt>
      <trkpt lat="42.76453" lon="1.36178">
        <ele>1270.2002</ele>
        <time>2025-09-13T14:36:26+02:00</time>
      </trkpt>
      <trkpt lat="42.76452" lon="1.36182">
        <ele>1273.6006</ele>
        <time>2025-09-13T14:36:30+02:00</time>
      </trkpt>
      <trkpt lat="42.76451" lon="1.36183">
        <ele>1273.6006</ele>
        <time>2025-09-13T14:36:31+02:00</time>
      </trkpt>
      <trkpt lat="42.76449" lon="1.36187">
        <ele>1273.6006</ele>
        <time>2025-09-13T14:36:35+02:00</time>
      </trkpt>
      <trkpt lat="42.76449" lon="1.36188">
        <ele>1277.2002</ele>
        <time>2025-09-13T14:36:36+02:00</time>
      </trkpt>
      <trkpt lat="42.76446" lon="1.36192">
        <ele>1275.9004</ele>
        <time>2025-09-13T14:36:40+02:00</time>
      </trkpt>
      <trkpt lat="42.76446" lon="1.36193">
        <ele>1275.9004</ele>
        <time>2025-09-13T14:36:41+02:00</time>
      </trkpt>
      <trkpt lat="42.76444" lon="1.36197">
        <ele>1279.4004</ele>
        <time>2025-09-13T14:36:45+02:00</time>
      </trkpt>
      <trkpt lat="42.76443" lon="1.36198">
        <ele>1279.4004</ele>
        <time>2025-09-13T14:36:46+02:00</time>
      </trkpt>
      <trkpt lat="42.76442" lon="1.36203">
        <ele>1279.4004</ele>
        <time>2025-09-13T14:36:50+02:00</time>
      </trkpt>
      <trkpt lat="42.76441" lon="1.36203">
        <ele>1279.4004</ele>
        <time>2025-09-13T14:36:51+02:00</time>
      </trkpt>
      <trkpt lat="42.76437" lon="1.36204">
        <ele>1278.1006</ele>
        <time>2025-09-13T14:36:55+02:00</time>
      </trkpt>
      <trkpt lat="42.76437" lon="1.36204">
        <ele>1278.1006</ele>
        <time>2025-09-13T14:36:56+02:00</time>
      </trkpt>
      <trkpt lat="42.76433" lon="1.36206">
        <ele>1280.5</ele>
        <time>2025-09-13T14:37:00+02:00</time>
      </trkpt>
      <trkpt lat="42.76433" lon="1.36206">
        <ele>1280.5</ele>
        <time>2025-09-13T14:37:01+02:00</time>
      </trkpt>
      <trkpt lat="42.76429" lon="1.36208">
        <ele>1280.5</ele>
        <time>2025-09-13T14:37:05+02:00</time>
      </trkpt>
      <trkpt lat="42.76428" lon="1.36208">
        <ele>1280.5</ele>
        <time>2025-09-13T14:37:06+02:00</time>
      </trkpt>
      <trkpt lat="42.76424" lon="1.36211">
        <ele>1279.7002</ele>
        <time>2025-09-13T14:37:10+02:00</time>
      </trkpt>
      <trkpt lat="42.76421" lon="1.36213">
        <ele>1279.2998</ele>
        <time>2025-09-13T14:37:15+02:00</time>
      </trkpt>
      <trkpt lat="42.7642" lon="1.36213">
        <ele>1279.2998</ele>
        <time>2025-09-13T14:37:16+02:00</time>
      </trkpt>
      <trkpt lat="42.76417" lon="1.36215">
        <ele>1282.7998</ele>
        <time>2025-09-13T14:37:20+02:00</time>
      </trkpt>
      <trkpt lat="42.76417" lon="1.36215">
        <ele>1282.7998</ele>
        <time>2025-09-13T14:37:21+02:00</time>
      </trkpt>
      <trkpt lat="42.76416" lon="1.36215">
        <ele>1282.7998</ele>
        <time>2025-09-13T14:37:25+02:00</time>
      </trkpt>
      <trkpt lat="42.76417" lon="1.36215">
        <ele>1282.7998</ele>
        <time>2025-09-13T14:37:26+02:00</time>
      </trkpt>
      <trkpt lat="42.76417" lon="1.36215">
        <ele>1282.7998</ele>
        <time>2025-09-13T14:37:30+02:00</time>
      </trkpt>
      <trkpt lat="42.76417" lon="1.36215">
        <ele>1282.7998</ele>
        <time>2025-09-13T14:37:31+02:00</time>
      </trkpt>
      <trkpt lat="42.76416" lon="1.36215">
        <ele>1282.7998</ele>
        <time>2025-09-13T14:37:35+02:00</time>
      </trkpt>
      <trkpt lat="42.76416" lon="1.36214">
        <ele>1282.7998</ele>
        <time>2025-09-13T14:37:36+02:00</time>
      </trkpt>
      <trkpt lat="42.76416" lon="1.36214">
        <ele>1282.7998</ele>
        <time>2025-09-13T14:37:41+02:00</time>
      </trkpt>
      <trkpt lat="42.76416" lon="1.36214">
        <ele>1282.7998</ele>
        <time>2025-09-13T14:37:42+02:00</time>
      </trkpt>
      <trkpt lat="42.76416" lon="1.36215">
        <ele>1282.7998</ele>
        <time>2025-09-13T14:37:46+02:00</time>
      </trkpt>
      <trkpt lat="42.76416" lon="1.36215">
        <ele>1282.7998</ele>
        <time>2025-09-13T14:37:47+02:00</time>
      </trkpt>
      <trkpt lat="42.76416" lon="1.36215">
        <ele>1282.7998</ele>
        <time>2025-09-13T14:37:51+02:00</time>
      </trkpt>
      <trkpt lat="42.76416" lon="1.36215">
        <ele>1282.7998</ele>
        <time>2025-09-13T14:37:52+02:00</time>
      </trkpt>
      <trkpt lat="42.76414" lon="1.36216">
        <ele>1282.4004</ele>
        <time>2025-09-13T14:37:56+02:00</time>
      </trkpt>
      <trkpt lat="42.7641" lon="1.36214">
        <ele>1282.4004</ele>
        <time>2025-09-13T14:38:01+02:00</time>
      </trkpt>
      <trkpt lat="42.76409" lon="1.36214">
        <ele>1282.2002</ele>
        <time>2025-09-13T14:38:02+02:00</time>
      </trkpt>
      <trkpt lat="42.76405" lon="1.36213">
        <ele>1279</ele>
        <time>2025-09-13T14:38:06+02:00</time>
      </trkpt>
      <trkpt lat="42.76404" lon="1.36213">
        <ele>1279</ele>
        <time>2025-09-13T14:38:07+02:00</time>
      </trkpt>
      <trkpt lat="42.76401" lon="1.36213">
        <ele>1279.1006</ele>
        <time>2025-09-13T14:38:12+02:00</time>
      </trkpt>
      <trkpt lat="42.764" lon="1.36212">
        <ele>1279.1006</ele>
        <time>2025-09-13T14:38:13+02:00</time>
      </trkpt>
      <trkpt lat="42.76399" lon="1.36212">
        <ele>1279.1006</ele>
        <time>2025-09-13T14:38:18+02:00</time>
      </trkpt>
      <trkpt lat="42.76398" lon="1.36211">
        <ele>1279.1006</ele>
        <time>2025-09-13T14:38:19+02:00</time>
      </trkpt>
      <trkpt lat="42.76395" lon="1.36212">
        <ele>1279.5</ele>
        <time>2025-09-13T14:38:23+02:00</time>
      </trkpt>
      <trkpt lat="42.76394" lon="1.36212">
        <ele>1279.5</ele>
        <time>2025-09-13T14:38:24+02:00</time>
      </trkpt>
      <trkpt lat="42.76391" lon="1.36214">
        <ele>1282.5</ele>
        <time>2025-09-13T14:38:28+02:00</time>
      </trkpt>
      <trkpt lat="42.76391" lon="1.36214">
        <ele>1282.5</ele>
        <time>2025-09-13T14:38:29+02:00</time>
      </trkpt>
      <trkpt lat="42.76388" lon="1.36214">
        <ele>1283.1006</ele>
        <time>2025-09-13T14:38:33+02:00</time>
      </trkpt>
      <trkpt lat="42.76388" lon="1.36214">
        <ele>1283.1006</ele>
        <time>2025-09-13T14:38:34+02:00</time>
      </trkpt>
      <trkpt lat="42.76388" lon="1.36214">
        <ele>1283.1006</ele>
        <time>2025-09-13T14:38:39+02:00</time>
      </trkpt>
      <trkpt lat="42.76388" lon="1.36214">
        <ele>1283.1006</ele>
        <time>2025-09-13T14:38:40+02:00</time>
      </trkpt>
      <trkpt lat="42.76387" lon="1.36214">
        <ele>1283.1006</ele>
        <time>2025-09-13T14:38:44+02:00</time>
      </trkpt>
      <trkpt lat="42.76386" lon="1.36213">
        <ele>1280.2002</ele>
        <time>2025-09-13T14:38:45+02:00</time>
      </trkpt>
      <trkpt lat="42.76384" lon="1.36212">
        <ele>1280.2002</ele>
        <time>2025-09-13T14:38:49+02:00</time>
      </trkpt>
      <trkpt lat="42.76384" lon="1.36212">
        <ele>1281.4004</ele>
        <time>2025-09-13T14:38:51+02:00</time>
      </trkpt>
      <trkpt lat="42.76382" lon="1.36212">
        <ele>1281.4004</ele>
        <time>2025-09-13T14:38:55+02:00</time>
      </trkpt>
      <trkpt lat="42.76381" lon="1.36211">
        <ele>1281.4004</ele>
        <time>2025-09-13T14:38:56+02:00</time>
      </trkpt>
      <trkpt lat="42.76379" lon="1.36211">
        <ele>1281.4004</ele>
        <time>2025-09-13T14:39:00+02:00</time>
      </trkpt>
      <trkpt lat="42.76379" lon="1.36211">
        <ele>1281.4004</ele>
        <time>2025-09-13T14:39:01+02:00</time>
      </trkpt>
      <trkpt lat="42.76378" lon="1.36212">
        <ele>1281.4004</ele>
        <time>2025-09-13T14:39:05+02:00</time>
      </trkpt>
      <trkpt lat="42.76378" lon="1.36212">
        <ele>1281.4004</ele>
        <time>2025-09-13T14:39:06+02:00</time>
      </trkpt>
      <trkpt lat="42.76376" lon="1.36211">
        <ele>1283.2002</ele>
        <time>2025-09-13T14:39:10+02:00</time>
      </trkpt>
      <trkpt lat="42.76375" lon="1.3621">
        <ele>1283.2002</ele>
        <time>2025-09-13T14:39:11+02:00</time>
      </trkpt>
      <trkpt lat="42.76372" lon="1.36209">
        <ele>1283.2002</ele>
        <time>2025-09-13T14:39:15+02:00</time>
      </trkpt>
      <trkpt lat="42.76372" lon="1.36208">
        <ele>1283.2002</ele>
        <time>2025-09-13T14:39:16+02:00</time>
      </trkpt>
      <trkpt lat="42.76373" lon="1.36209">
        <ele>1283.2002</ele>
        <time>2025-09-13T14:39:21+02:00</time>
      </trkpt>
      <trkpt lat="42.76373" lon="1.36209">
        <ele>1283.2002</ele>
        <time>2025-09-13T14:39:22+02:00</time>
      </trkpt>
      <trkpt lat="42.76373" lon="1.36209">
        <ele>1283.2002</ele>
        <time>2025-09-13T14:39:26+02:00</time>
      </trkpt>
      <trkpt lat="42.76373" lon="1.36209">
        <ele>1283.2002</ele>
        <time>2025-09-13T14:39:27+02:00</time>
      </trkpt>
      <trkpt lat="42.76372" lon="1.36209">
        <ele>1283.2002</ele>
        <time>2025-09-13T14:39:31+02:00</time>
      </trkpt>
      <trkpt lat="42.76372" lon="1.36209">
        <ele>1283.2002</ele>
        <time>2025-09-13T14:39:33+02:00</time>
      </trkpt>
      <trkpt lat="42.7637" lon="1.36211">
        <ele>1285.6006</ele>
        <time>2025-09-13T14:39:37+02:00</time>
      </trkpt>
      <trkpt lat="42.7637" lon="1.36211">
        <ele>1285.6006</ele>
        <time>2025-09-13T14:39:38+02:00</time>
      </trkpt>
      <trkpt lat="42.76369" lon="1.36211">
        <ele>1285.6006</ele>
        <time>2025-09-13T14:39:42+02:00</time>
      </trkpt>
      <trkpt lat="42.76369" lon="1.36211">
        <ele>1285.6006</ele>
        <time>2025-09-13T14:39:43+02:00</time>
      </trkpt>
      <trkpt lat="42.7637" lon="1.36211">
        <ele>1285.6006</ele>
        <time>2025-09-13T14:39:47+02:00</time>
      </trkpt>
      <trkpt lat="42.7637" lon="1.36211">
        <ele>1285.6006</ele>
        <time>2025-09-13T14:39:48+02:00</time>
      </trkpt>
      <trkpt lat="42.76371" lon="1.36212">
        <ele>1285.6006</ele>
        <time>2025-09-13T14:39:52+02:00</time>
      </trkpt>
      <trkpt lat="42.76371" lon="1.36212">
        <ele>1285.6006</ele>
        <time>2025-09-13T14:39:53+02:00</time>
      </trkpt>
      <trkpt lat="42.76371" lon="1.36213">
        <ele>1285.6006</ele>
        <time>2025-09-13T14:39:57+02:00</time>
      </trkpt>
      <trkpt lat="42.76371" lon="1.36213">
        <ele>1285.6006</ele>
        <time>2025-09-13T14:39:58+02:00</time>
      </trkpt>
      <trkpt lat="42.76372" lon="1.36214">
        <ele>1285.6006</ele>
        <time>2025-09-13T14:40:02+02:00</time>
      </trkpt>
      <trkpt lat="42.76372" lon="1.36215">
        <ele>1285.6006</ele>
        <time>2025-09-13T14:40:03+02:00</time>
      </trkpt>
      <trkpt lat="42.76372" lon="1.36216">
        <ele>1285.6006</ele>
        <time>2025-09-13T14:40:07+02:00</time>
      </trkpt>
      <trkpt lat="42.76372" lon="1.36217">
        <ele>1285.6006</ele>
        <time>2025-09-13T14:40:08+02:00</time>
      </trkpt>
      <trkpt lat="42.76372" lon="1.36217">
        <ele>1285.6006</ele>
        <time>2025-09-13T14:40:12+02:00</time>
      </trkpt>
      <trkpt lat="42.76371" lon="1.36216">
        <ele>1285.6006</ele>
        <time>2025-09-13T14:40:13+02:00</time>
      </trkpt>
      <trkpt lat="42.7637" lon="1.36217">
        <ele>1287.7002</ele>
        <time>2025-09-13T14:40:17+02:00</time>
      </trkpt>
      <trkpt lat="42.76369" lon="1.36218">
        <ele>1287.7002</ele>
        <time>2025-09-13T14:40:18+02:00</time>
      </trkpt>
      <trkpt lat="42.76366" lon="1.3622">
        <ele>1287.7002</ele>
        <time>2025-09-13T14:40:22+02:00</time>
      </trkpt>
      <trkpt lat="42.76366" lon="1.3622">
        <ele>1287.7002</ele>
        <time>2025-09-13T14:40:23+02:00</time>
      </trkpt>
      <trkpt lat="42.76364" lon="1.36222">
        <ele>1292.2002</ele>
        <time>2025-09-13T14:40:27+02:00</time>
      </trkpt>
      <trkpt lat="42.76364" lon="1.36222">
        <ele>1292.2002</ele>
        <time>2025-09-13T14:40:28+02:00</time>
      </trkpt>
      <trkpt lat="42.76364" lon="1.36222">
        <ele>1292.2002</ele>
        <time>2025-09-13T14:40:32+02:00</time>
      </trkpt>
      <trkpt lat="42.76364" lon="1.36222">
        <ele>1292.2002</ele>
        <time>2025-09-13T14:40:33+02:00</time>
      </trkpt>
      <trkpt lat="42.76363" lon="1.36223">
        <ele>1292.2002</ele>
        <time>2025-09-13T14:40:37+02:00</time>
      </trkpt>
      <trkpt lat="42.76362" lon="1.36224">
        <ele>1292.2002</ele>
        <time>2025-09-13T14:40:38+02:00</time>
      </trkpt>
      <trkpt lat="42.7636" lon="1.36225">
        <ele>1292.2002</ele>
        <time>2025-09-13T14:40:42+02:00</time>
      </trkpt>
      <trkpt lat="42.76359" lon="1.36225">
        <ele>1292.2002</ele>
        <time>2025-09-13T14:40:43+02:00</time>
      </trkpt>
      <trkpt lat="42.76357" lon="1.36225">
        <ele>1295.2998</ele>
        <time>2025-09-13T14:40:47+02:00</time>
      </trkpt>
      <trkpt lat="42.76357" lon="1.36226">
        <ele>1295.2998</ele>
        <time>2025-09-13T14:40:48+02:00</time>
      </trkpt>
      <trkpt lat="42.76356" lon="1.36226">
        <ele>1295.2998</ele>
        <time>2025-09-13T14:40:52+02:00</time>
      </trkpt>
      <trkpt lat="42.76356" lon="1.36226">
        <ele>1295.2998</ele>
        <time>2025-09-13T14:40:53+02:00</time>
      </trkpt>
      <trkpt lat="42.76356" lon="1.36226">
        <ele>1295.2998</ele>
        <time>2025-09-13T14:40:57+02:00</time>
      </trkpt>
      <trkpt lat="42.76356" lon="1.36226">
        <ele>1295.2998</ele>
        <time>2025-09-13T14:40:58+02:00</time>
      </trkpt>
      <trkpt lat="42.76356" lon="1.36226">
        <ele>1295.2998</ele>
        <time>2025-09-13T14:41:02+02:00</time>
      </trkpt>
      <trkpt lat="42.76356" lon="1.36226">
        <ele>1295.2998</ele>
        <time>2025-09-13T14:41:03+02:00</time>
      </trkpt>
      <trkpt lat="42.76356" lon="1.36226">
        <ele>1295.2998</ele>
        <time>2025-09-13T14:41:07+02:00</time>
      </trkpt>
      <trkpt lat="42.76356" lon="1.36227">
        <ele>1295.2998</ele>
        <time>2025-09-13T14:41:08+02:00</time>
      </trkpt>
      <trkpt lat="42.76357" lon="1.36228">
        <ele>1295.2998</ele>
        <time>2025-09-13T14:41:12+02:00</time>
      </trkpt>
      <trkpt lat="42.76357" lon="1.36227">
        <ele>1295.2998</ele>
        <time>2025-09-13T14:41:13+02:00</time>
      </trkpt>
      <trkpt lat="42.76357" lon="1.36226">
        <ele>1295.2998</ele>
        <time>2025-09-13T14:41:18+02:00</time>
      </trkpt>
      <trkpt lat="42.76357" lon="1.36226">
        <ele>1295.2998</ele>
        <time>2025-09-13T14:41:19+02:00</time>
      </trkpt>
      <trkpt lat="42.76358" lon="1.36225">
        <ele>1295.2998</ele>
        <time>2025-09-13T14:41:23+02:00</time>
      </trkpt>
      <trkpt lat="42.76358" lon="1.36224">
        <ele>1295.2998</ele>
        <time>2025-09-13T14:41:24+02:00</time>
      </trkpt>
      <trkpt lat="42.76358" lon="1.36223">
        <ele>1295.2998</ele>
        <time>2025-09-13T14:41:28+02:00</time>
      </trkpt>
      <trkpt lat="42.76358" lon="1.36223">
        <ele>1295.2998</ele>
        <time>2025-09-13T14:41:29+02:00</time>
      </trkpt>
      <trkpt lat="42.76358" lon="1.36222">
        <ele>1295.2998</ele>
        <time>2025-09-13T14:41:34+02:00</time>
      </trkpt>
      <trkpt lat="42.76358" lon="1.36222">
        <ele>1295.2998</ele>
        <time>2025-09-13T14:41:35+02:00</time>
      </trkpt>
      <trkpt lat="42.7636" lon="1.36221">
        <ele>1290.2998</ele>
        <time>2025-09-13T14:41:40+02:00</time>
      </trkpt>
      <trkpt lat="42.7636" lon="1.36221">
        <ele>1290.2998</ele>
        <time>2025-09-13T14:41:41+02:00</time>
      </trkpt>
      <trkpt lat="42.76361" lon="1.36219">
        <ele>1290.2998</ele>
        <time>2025-09-13T14:41:45+02:00</time>
      </trkpt>
      <trkpt lat="42.76361" lon="1.36219">
        <ele>1290.2998</ele>
        <time>2025-09-13T14:41:46+02:00</time>
      </trkpt>
      <trkpt lat="42.76362" lon="1.36219">
        <ele>1290.2998</ele>
        <time>2025-09-13T14:41:50+02:00</time>
      </trkpt>
      <trkpt lat="42.76362" lon="1.36218">
        <ele>1290.2998</ele>
        <time>2025-09-13T14:41:51+02:00</time>
      </trkpt>
      <trkpt lat="42.76362" lon="1.36217">
        <ele>1290.2998</ele>
        <time>2025-09-13T14:41:55+02:00</time>
      </trkpt>
      <trkpt lat="42.76362" lon="1.36217">
        <ele>1290.2998</ele>
        <time>2025-09-13T14:41:56+02:00</time>
      </trkpt>
      <trkpt lat="42.76362" lon="1.36214">
        <ele>1290.2998</ele>
        <time>2025-09-13T14:42:00+02:00</time>
      </trkpt>
      <trkpt lat="42.76362" lon="1.36214">
        <ele>1290.2998</ele>
        <time>2025-09-13T14:42:01+02:00</time>
      </trkpt>
      <trkpt lat="42.76362" lon="1.36213">
        <ele>1288.2998</ele>
        <time>2025-09-13T14:42:04+02:00</time>
      </trkpt>
      <trkpt lat="42.76362" lon="1.36213">
        <ele>1288.2998</ele>
        <time>2025-09-13T14:42:05+02:00</time>
      </trkpt>
      <trkpt lat="42.76363" lon="1.36211">
        <ele>1288.2998</ele>
        <time>2025-09-13T14:42:10+02:00</time>
      </trkpt>
      <trkpt lat="42.76364" lon="1.3621">
        <ele>1288.2998</ele>
        <time>2025-09-13T14:42:15+02:00</time>
      </trkpt>
      <trkpt lat="42.76364" lon="1.3621">
        <ele>1288.2998</ele>
        <time>2025-09-13T14:42:16+02:00</time>
      </trkpt>
      <trkpt lat="42.76366" lon="1.36208">
        <ele>1285.6006</ele>
        <time>2025-09-13T14:42:20+02:00</time>
      </trkpt>
      <trkpt lat="42.76366" lon="1.36208">
        <ele>1285.6006</ele>
        <time>2025-09-13T14:42:21+02:00</time>
      </trkpt>
      <trkpt lat="42.76367" lon="1.36208">
        <ele>1285.6006</ele>
        <time>2025-09-13T14:42:25+02:00</time>
      </trkpt>
      <trkpt lat="42.76367" lon="1.36208">
        <ele>1285.6006</ele>
        <time>2025-09-13T14:42:26+02:00</time>
      </trkpt>
      <trkpt lat="42.76367" lon="1.36209">
        <ele>1285.6006</ele>
        <time>2025-09-13T14:42:30+02:00</time>
      </trkpt>
      <trkpt lat="42.76367" lon="1.36209">
        <ele>1285.6006</ele>
        <time>2025-09-13T14:42:31+02:00</time>
      </trkpt>
      <trkpt lat="42.76367" lon="1.36209">
        <ele>1285.6006</ele>
        <time>2025-09-13T14:42:35+02:00</time>
      </trkpt>
      <trkpt lat="42.76367" lon="1.36209">
        <ele>1285.6006</ele>
        <time>2025-09-13T14:42:37+02:00</time>
      </trkpt>
      <trkpt lat="42.76367" lon="1.3621">
        <ele>1285.6006</ele>
        <time>2025-09-13T14:42:41+02:00</time>
      </trkpt>
      <trkpt lat="42.76367" lon="1.3621">
        <ele>1285.6006</ele>
        <time>2025-09-13T14:42:42+02:00</time>
      </trkpt>
      <trkpt lat="42.76367" lon="1.3621">
        <ele>1285.6006</ele>
        <time>2025-09-13T14:42:46+02:00</time>
      </trkpt>
      <trkpt lat="42.76367" lon="1.3621">
        <ele>1285.6006</ele>
        <time>2025-09-13T14:42:47+02:00</time>
      </trkpt>
      <trkpt lat="42.76368" lon="1.36212">
        <ele>1285.6006</ele>
        <time>2025-09-13T14:42:52+02:00</time>
      </trkpt>
      <trkpt lat="42.76368" lon="1.36212">
        <ele>1285.6006</ele>
        <time>2025-09-13T14:42:53+02:00</time>
      </trkpt>
      <trkpt lat="42.76368" lon="1.36212">
        <ele>1285.6006</ele>
        <time>2025-09-13T14:42:57+02:00</time>
      </trkpt>
      <trkpt lat="42.76368" lon="1.36212">
        <ele>1285.6006</ele>
        <time>2025-09-13T14:42:59+02:00</time>
      </trkpt>
      <trkpt lat="42.76367" lon="1.36211">
        <ele>1285.6006</ele>
        <time>2025-09-13T14:43:03+02:00</time>
      </trkpt>
      <trkpt lat="42.76366" lon="1.3621">
        <ele>1285.6006</ele>
        <time>2025-09-13T14:43:04+02:00</time>
      </trkpt>
      <trkpt lat="42.76365" lon="1.36208">
        <ele>1288.2998</ele>
        <time>2025-09-13T14:43:08+02:00</time>
      </trkpt>
      <trkpt lat="42.76365" lon="1.36208">
        <ele>1288.2998</ele>
        <time>2025-09-13T14:43:09+02:00</time>
      </trkpt>
      <trkpt lat="42.76364" lon="1.36207">
        <ele>1288.2998</ele>
        <time>2025-09-13T14:43:13+02:00</time>
      </trkpt>
      <trkpt lat="42.76364" lon="1.36207">
        <ele>1288.2998</ele>
        <time>2025-09-13T14:43:14+02:00</time>
      </trkpt>
      <trkpt lat="42.76364" lon="1.36207">
        <ele>1288.2998</ele>
        <time>2025-09-13T14:43:18+02:00</time>
      </trkpt>
      <trkpt lat="42.76363" lon="1.36207">
        <ele>1288.2998</ele>
        <time>2025-09-13T14:43:19+02:00</time>
      </trkpt>
      <trkpt lat="42.76363" lon="1.36206">
        <ele>1288.2998</ele>
        <time>2025-09-13T14:43:23+02:00</time>
      </trkpt>
      <trkpt lat="42.76362" lon="1.36206">
        <ele>1288.2998</ele>
        <time>2025-09-13T14:43:24+02:00</time>
      </trkpt>
      <trkpt lat="42.76361" lon="1.36205">
        <ele>1286.4004</ele>
        <time>2025-09-13T14:43:28+02:00</time>
      </trkpt>
      <trkpt lat="42.76361" lon="1.36205">
        <ele>1286.4004</ele>
        <time>2025-09-13T14:43:29+02:00</time>
      </trkpt>
      <trkpt lat="42.76359" lon="1.36205">
        <ele>1291.4004</ele>
        <time>2025-09-13T14:43:33+02:00</time>
      </trkpt>
      <trkpt lat="42.76358" lon="1.36205">
        <ele>1291.4004</ele>
        <time>2025-09-13T14:43:34+02:00</time>
      </trkpt>
      <trkpt lat="42.76356" lon="1.36206">
        <ele>1291.4004</ele>
        <time>2025-09-13T14:43:38+02:00</time>
      </trkpt>
      <trkpt lat="42.76356" lon="1.36206">
        <ele>1291.4004</ele>
        <time>2025-09-13T14:43:39+02:00</time>
      </trkpt>
      <trkpt lat="42.76355" lon="1.36207">
        <ele>1291.4004</ele>
        <time>2025-09-13T14:43:43+02:00</time>
      </trkpt>
      <trkpt lat="42.76355" lon="1.36207">
        <ele>1291.4004</ele>
        <time>2025-09-13T14:43:44+02:00</time>
      </trkpt>
      <trkpt lat="42.76355" lon="1.36208">
        <ele>1291.4004</ele>
        <time>2025-09-13T14:43:48+02:00</time>
      </trkpt>
      <trkpt lat="42.76355" lon="1.36208">
        <ele>1291.4004</ele>
        <time>2025-09-13T14:43:49+02:00</time>
      </trkpt>
      <trkpt lat="42.76354" lon="1.36208">
        <ele>1291.4004</ele>
        <time>2025-09-13T14:43:53+02:00</time>
      </trkpt>
      <trkpt lat="42.76354" lon="1.36208">
        <ele>1291.4004</ele>
        <time>2025-09-13T14:43:54+02:00</time>
      </trkpt>
      <trkpt lat="42.76353" lon="1.36208">
        <ele>1291.4004</ele>
        <time>2025-09-13T14:43:58+02:00</time>
      </trkpt>
      <trkpt lat="42.76352" lon="1.36208">
        <ele>1294.7998</ele>
        <time>2025-09-13T14:43:59+02:00</time>
      </trkpt>
      <trkpt lat="42.76349" lon="1.36208">
        <ele>1294.7998</ele>
        <time>2025-09-13T14:44:03+02:00</time>
      </trkpt>
      <trkpt lat="42.76349" lon="1.36207">
        <ele>1294.7998</ele>
        <time>2025-09-13T14:44:04+02:00</time>
      </trkpt>
      <trkpt lat="42.76346" lon="1.36204">
        <ele>1295.2998</ele>
        <time>2025-09-13T14:44:08+02:00</time>
      </trkpt>
      <trkpt lat="42.76345" lon="1.36204">
        <ele>1295.2998</ele>
        <time>2025-09-13T14:44:09+02:00</time>
      </trkpt>
      <trkpt lat="42.76344" lon="1.36202">
        <ele>1295.2998</ele>
        <time>2025-09-13T14:44:13+02:00</time>
      </trkpt>
      <trkpt lat="42.76343" lon="1.36202">
        <ele>1295.2998</ele>
        <time>2025-09-13T14:44:14+02:00</time>
      </trkpt>
      <trkpt lat="42.76342" lon="1.36201">
        <ele>1295.2998</ele>
        <time>2025-09-13T14:44:18+02:00</time>
      </trkpt>
      <trkpt lat="42.76342" lon="1.362">
        <ele>1295.2998</ele>
        <time>2025-09-13T14:44:19+02:00</time>
      </trkpt>
      <trkpt lat="42.7634" lon="1.362">
        <ele>1295.2998</ele>
        <time>2025-09-13T14:44:24+02:00</time>
      </trkpt>
      <trkpt lat="42.7634" lon="1.362">
        <ele>1295.2998</ele>
        <time>2025-09-13T14:44:25+02:00</time>
      </trkpt>
      <trkpt lat="42.76341" lon="1.362">
        <ele>1295.2998</ele>
        <time>2025-09-13T14:44:29+02:00</time>
      </trkpt>
      <trkpt lat="42.76341" lon="1.362">
        <ele>1295.2998</ele>
        <time>2025-09-13T14:44:30+02:00</time>
      </trkpt>
      <trkpt lat="42.76341" lon="1.362">
        <ele>1295.2998</ele>
        <time>2025-09-13T14:44:34+02:00</time>
      </trkpt>
      <trkpt lat="42.76341" lon="1.362">
        <ele>1295.2998</ele>
        <time>2025-09-13T14:44:35+02:00</time>
      </trkpt>
      <trkpt lat="42.7634" lon="1.362">
        <ele>1295.2998</ele>
        <time>2025-09-13T14:44:39+02:00</time>
      </trkpt>
      <trkpt lat="42.7634" lon="1.362">
        <ele>1295.2998</ele>
        <time>2025-09-13T14:44:40+02:00</time>
      </trkpt>
      <trkpt lat="42.76339" lon="1.362">
        <ele>1298.2998</ele>
        <time>2025-09-13T14:44:45+02:00</time>
      </trkpt>
      <trkpt lat="42.76339" lon="1.362">
        <ele>1298.2998</ele>
        <time>2025-09-13T14:44:46+02:00</time>
      </trkpt>
      <trkpt lat="42.7634" lon="1.362">
        <ele>1295.2998</ele>
        <time>2025-09-13T14:44:50+02:00</time>
      </trkpt>
      <trkpt lat="42.76342" lon="1.36197">
        <ele>1295.2998</ele>
        <time>2025-09-13T14:44:55+02:00</time>
      </trkpt>
      <trkpt lat="42.76343" lon="1.36196">
        <ele>1292.4004</ele>
        <time>2025-09-13T14:45:01+02:00</time>
      </trkpt>
      <trkpt lat="42.76343" lon="1.36197">
        <ele>1295.2998</ele>
        <time>2025-09-13T14:45:06+02:00</time>
      </trkpt>
      <trkpt lat="42.76344" lon="1.362">
        <ele>1295.2998</ele>
        <time>2025-09-13T14:45:17+02:00</time>
      </trkpt>
      <trkpt lat="42.76344" lon="1.362">
        <ele>1295.2998</ele>
        <time>2025-09-13T14:45:21+02:00</time>
      </trkpt>
      <trkpt lat="42.76344" lon="1.362">
        <ele>1295.2998</ele>
        <time>2025-09-13T14:45:27+02:00</time>
      </trkpt>
      <trkpt lat="42.76344" lon="1.362">
        <ele>1295.2998</ele>
        <time>2025-09-13T14:45:31+02:00</time>
      </trkpt>
      <trkpt lat="42.76344" lon="1.362">
        <ele>1295.2998</ele>
        <time>2025-09-13T14:45:37+02:00</time>
      </trkpt>
      <trkpt lat="42.76344" lon="1.362">
        <ele>1295.2998</ele>
        <time>2025-09-13T14:45:41+02:00</time>
      </trkpt>
      <trkpt lat="42.76344" lon="1.362">
        <ele>1295.2998</ele>
        <time>2025-09-13T14:45:45+02:00</time>
      </trkpt>
      <trkpt lat="42.76344" lon="1.36199">
        <ele>1295.2998</ele>
        <time>2025-09-13T14:45:46+02:00</time>
      </trkpt>
      <trkpt lat="42.76344" lon="1.36199">
        <ele>1295.2998</ele>
        <time>2025-09-13T14:45:50+02:00</time>
      </trkpt>
      <trkpt lat="42.76344" lon="1.36199">
        <ele>1295.2998</ele>
        <time>2025-09-13T14:45:51+02:00</time>
      </trkpt>
      <trkpt lat="42.76343" lon="1.36199">
        <ele>1295.2998</ele>
        <time>2025-09-13T14:45:55+02:00</time>
      </trkpt>
      <trkpt lat="42.76343" lon="1.36199">
        <ele>1295.2998</ele>
        <time>2025-09-13T14:45:56+02:00</time>
      </trkpt>
      <trkpt lat="42.76343" lon="1.36199">
        <ele>1295.2998</ele>
        <time>2025-09-13T14:46:00+02:00</time>
      </trkpt>
      <trkpt lat="42.76343" lon="1.36199">
        <ele>1295.2998</ele>
        <time>2025-09-13T14:46:01+02:00</time>
      </trkpt>
      <trkpt lat="42.76343" lon="1.36199">
        <ele>1295.2998</ele>
        <time>2025-09-13T14:46:05+02:00</time>
      </trkpt>
      <trkpt lat="42.76343" lon="1.36198">
        <ele>1295.2998</ele>
        <time>2025-09-13T14:46:06+02:00</time>
      </trkpt>
      <trkpt lat="42.76342" lon="1.36198">
        <ele>1295.2998</ele>
        <time>2025-09-13T14:46:10+02:00</time>
      </trkpt>
      <trkpt lat="42.76342" lon="1.36198">
        <ele>1295.2998</ele>
        <time>2025-09-13T14:46:11+02:00</time>
      </trkpt>
      <trkpt lat="42.76343" lon="1.36199">
        <ele>1295.2998</ele>
        <time>2025-09-13T14:46:15+02:00</time>
      </trkpt>
      <trkpt lat="42.76342" lon="1.36199">
        <ele>1295.2998</ele>
        <time>2025-09-13T14:46:16+02:00</time>
      </trkpt>
      <trkpt lat="42.76342" lon="1.362">
        <ele>1295.2998</ele>
        <time>2025-09-13T14:46:20+02:00</time>
      </trkpt>
      <trkpt lat="42.76342" lon="1.362">
        <ele>1295.2998</ele>
        <time>2025-09-13T14:46:21+02:00</time>
      </trkpt>
      <trkpt lat="42.76341" lon="1.36202">
        <ele>1295.2998</ele>
        <time>2025-09-13T14:46:25+02:00</time>
      </trkpt>
      <trkpt lat="42.76341" lon="1.36202">
        <ele>1295.2998</ele>
        <time>2025-09-13T14:46:26+02:00</time>
      </trkpt>
      <trkpt lat="42.76341" lon="1.36202">
        <ele>1295.2998</ele>
        <time>2025-09-13T14:46:30+02:00</time>
      </trkpt>
      <trkpt lat="42.76341" lon="1.36202">
        <ele>1295.2998</ele>
        <time>2025-09-13T14:46:31+02:00</time>
      </trkpt>
      <trkpt lat="42.76341" lon="1.36201">
        <ele>1295.2998</ele>
        <time>2025-09-13T14:46:35+02:00</time>
      </trkpt>
      <trkpt lat="42.76341" lon="1.36201">
        <ele>1295.2998</ele>
        <time>2025-09-13T14:46:36+02:00</time>
      </trkpt>
      <trkpt lat="42.76341" lon="1.36201">
        <ele>1295.2998</ele>
        <time>2025-09-13T14:46:40+02:00</time>
      </trkpt>
      <trkpt lat="42.76341" lon="1.36201">
        <ele>1295.2998</ele>
        <time>2025-09-13T14:46:41+02:00</time>
      </trkpt>
      <trkpt lat="42.76341" lon="1.362">
        <ele>1295.2998</ele>
        <time>2025-09-13T14:46:45+02:00</time>
      </trkpt>
      <trkpt lat="42.76341" lon="1.362">
        <ele>1295.2998</ele>
        <time>2025-09-13T14:46:46+02:00</time>
      </trkpt>
      <trkpt lat="42.76341" lon="1.362">
        <ele>1295.2998</ele>
        <time>2025-09-13T14:46:51+02:00</time>
      </trkpt>
      <trkpt lat="42.76341" lon="1.362">
        <ele>1295.2998</ele>
        <time>2025-09-13T14:46:52+02:00</time>
      </trkpt>
      <trkpt lat="42.76341" lon="1.362">
        <ele>1295.2998</ele>
        <time>2025-09-13T14:46:56+02:00</time>
      </trkpt>
      <trkpt lat="42.76341" lon="1.362">
        <ele>1295.2998</ele>
        <time>2025-09-13T14:46:57+02:00</time>
      </trkpt>
      <trkpt lat="42.76341" lon="1.362">
        <ele>1295.2998</ele>
        <time>2025-09-13T14:47:01+02:00</time>
      </trkpt>
      <trkpt lat="42.76341" lon="1.362">
        <ele>1295.2998</ele>
        <time>2025-09-13T14:47:02+02:00</time>
      </trkpt>
      <trkpt lat="42.76341" lon="1.362">
        <ele>1295.2998</ele>
        <time>2025-09-13T14:47:06+02:00</time>
      </trkpt>
      <trkpt lat="42.76341" lon="1.362">
        <ele>1295.2998</ele>
        <time>2025-09-13T14:47:07+02:00</time>
      </trkpt>
      <trkpt lat="42.76341" lon="1.362">
        <ele>1295.2998</ele>
        <time>2025-09-13T14:47:11+02:00</time>
      </trkpt>
      <trkpt lat="42.76341" lon="1.362">
        <ele>1295.2998</ele>
        <time>2025-09-13T14:47:12+02:00</time>
      </trkpt>
      <trkpt lat="42.76341" lon="1.362">
        <ele>1295.2998</ele>
        <time>2025-09-13T14:47:16+02:00</time>
      </trkpt>
      <trkpt lat="42.76341" lon="1.362">
        <ele>1295.2998</ele>
        <time>2025-09-13T14:47:17+02:00</time>
      </trkpt>
      <trkpt lat="42.76341" lon="1.362">
        <ele>1295.2998</ele>
        <time>2025-09-13T14:47:21+02:00</time>
      </trkpt>
      <trkpt lat="42.76341" lon="1.362">
        <ele>1295.2998</ele>
        <time>2025-09-13T14:47:22+02:00</time>
      </trkpt>
      <trkpt lat="42.76341" lon="1.362">
        <ele>1295.2998</ele>
        <time>2025-09-13T14:47:26+02:00</time>
      </trkpt>
      <trkpt lat="42.76341" lon="1.362">
        <ele>1295.2998</ele>
        <time>2025-09-13T14:47:27+02:00</time>
      </trkpt>
      <trkpt lat="42.76341" lon="1.362">
        <ele>1295.2998</ele>
        <time>2025-09-13T14:47:31+02:00</time>
      </trkpt>
      <trkpt lat="42.76341" lon="1.362">
        <ele>1295.2998</ele>
        <time>2025-09-13T14:47:32+02:00</time>
      </trkpt>
      <trkpt lat="42.76341" lon="1.362">
        <ele>1295.2998</ele>
        <time>2025-09-13T14:47:36+02:00</time>
      </trkpt>
      <trkpt lat="42.76341" lon="1.362">
        <ele>1295.2998</ele>
        <time>2025-09-13T14:47:37+02:00</time>
      </trkpt>
      <trkpt lat="42.76341" lon="1.362">
        <ele>1295.2998</ele>
        <time>2025-09-13T14:47:41+02:00</time>
      </trkpt>
      <trkpt lat="42.76341" lon="1.362">
        <ele>1295.2998</ele>
        <time>2025-09-13T14:47:42+02:00</time>
      </trkpt>
      <trkpt lat="42.76341" lon="1.362">
        <ele>1295.2998</ele>
        <time>2025-09-13T14:47:46+02:00</time>
      </trkpt>
      <trkpt lat="42.76341" lon="1.362">
        <ele>1295.2998</ele>
        <time>2025-09-13T14:47:47+02:00</time>
      </trkpt>
      <trkpt lat="42.76341" lon="1.362">
        <ele>1295.2998</ele>
        <time>2025-09-13T14:47:51+02:00</time>
      </trkpt>
      <trkpt lat="42.76341" lon="1.362">
        <ele>1295.2998</ele>
        <time>2025-09-13T14:47:52+02:00</time>
      </trkpt>
      <trkpt lat="42.76341" lon="1.362">
        <ele>1295.2998</ele>
        <time>2025-09-13T14:47:56+02:00</time>
      </trkpt>
      <trkpt lat="42.76341" lon="1.362">
        <ele>1295.2998</ele>
        <time>2025-09-13T14:47:57+02:00</time>
      </trkpt>
      <trkpt lat="42.76341" lon="1.362">
        <ele>1295.2998</ele>
        <time>2025-09-13T14:48:01+02:00</time>
      </trkpt>
      <trkpt lat="42.76341" lon="1.362">
        <ele>1295.2998</ele>
        <time>2025-09-13T14:48:02+02:00</time>
      </trkpt>
      <trkpt lat="42.76341" lon="1.362">
        <ele>1295.2998</ele>
        <time>2025-09-13T14:48:06+02:00</time>
      </trkpt>
      <trkpt lat="42.76341" lon="1.362">
        <ele>1295.2998</ele>
        <time>2025-09-13T14:48:07+02:00</time>
      </trkpt>
      <trkpt lat="42.76341" lon="1.362">
        <ele>1295.2998</ele>
        <time>2025-09-13T14:48:11+02:00</time>
      </trkpt>
      <trkpt lat="42.76341" lon="1.36199">
        <ele>1295.2998</ele>
        <time>2025-09-13T14:48:12+02:00</time>
      </trkpt>
      <trkpt lat="42.76341" lon="1.36197">
        <ele>1295.2998</ele>
        <time>2025-09-13T14:48:16+02:00</time>
      </trkpt>
      <trkpt lat="42.76341" lon="1.36197">
        <ele>1295.2998</ele>
        <time>2025-09-13T14:48:17+02:00</time>
      </trkpt>
      <trkpt lat="42.76341" lon="1.36196">
        <ele>1295.2998</ele>
        <time>2025-09-13T14:48:21+02:00</time>
      </trkpt>
      <trkpt lat="42.76341" lon="1.36196">
        <ele>1295.2998</ele>
        <time>2025-09-13T14:48:22+02:00</time>
      </trkpt>
      <trkpt lat="42.76341" lon="1.36196">
        <ele>1295.2998</ele>
        <time>2025-09-13T14:48:26+02:00</time>
      </trkpt>
      <trkpt lat="42.76341" lon="1.36196">
        <ele>1295.2998</ele>
        <time>2025-09-13T14:48:27+02:00</time>
      </trkpt>
      <trkpt lat="42.76341" lon="1.36196">
        <ele>1295.2998</ele>
        <time>2025-09-13T14:48:31+02:00</time>
      </trkpt>
      <trkpt lat="42.7634" lon="1.36196">
        <ele>1295.2998</ele>
        <time>2025-09-13T14:48:32+02:00</time>
      </trkpt>
      <trkpt lat="42.7634" lon="1.36196">
        <ele>1295.2998</ele>
        <time>2025-09-13T14:48:36+02:00</time>
      </trkpt>
      <trkpt lat="42.76341" lon="1.36197">
        <ele>1295.2998</ele>
        <time>2025-09-13T14:48:37+02:00</time>
      </trkpt>
      <trkpt lat="42.7634" lon="1.36197">
        <ele>1295.2998</ele>
        <time>2025-09-13T14:48:41+02:00</time>
      </trkpt>
      <trkpt lat="42.7634" lon="1.36197">
        <ele>1295.2998</ele>
        <time>2025-09-13T14:48:42+02:00</time>
      </trkpt>
      <trkpt lat="42.7634" lon="1.36196">
        <ele>1292.4004</ele>
        <time>2025-09-13T14:48:46+02:00</time>
      </trkpt>
      <trkpt lat="42.7634" lon="1.36196">
        <ele>1292.4004</ele>
        <time>2025-09-13T14:48:47+02:00</time>
      </trkpt>
      <trkpt lat="42.7634" lon="1.36196">
        <ele>1292.4004</ele>
        <time>2025-09-13T14:48:51+02:00</time>
      </trkpt>
      <trkpt lat="42.7634" lon="1.36196">
        <ele>1292.4004</ele>
        <time>2025-09-13T14:48:52+02:00</time>
      </trkpt>
      <trkpt lat="42.76341" lon="1.36195">
        <ele>1292.4004</ele>
        <time>2025-09-13T14:48:56+02:00</time>
      </trkpt>
      <trkpt lat="42.76341" lon="1.36195">
        <ele>1292.4004</ele>
        <time>2025-09-13T14:48:57+02:00</time>
      </trkpt>
      <trkpt lat="42.76342" lon="1.36195">
        <ele>1292.4004</ele>
        <time>2025-09-13T14:49:01+02:00</time>
      </trkpt>
      <trkpt lat="42.76342" lon="1.36195">
        <ele>1292.4004</ele>
        <time>2025-09-13T14:49:02+02:00</time>
      </trkpt>
      <trkpt lat="42.76342" lon="1.36195">
        <ele>1292.4004</ele>
        <time>2025-09-13T14:49:06+02:00</time>
      </trkpt>
      <trkpt lat="42.76342" lon="1.36195">
        <ele>1292.4004</ele>
        <time>2025-09-13T14:49:07+02:00</time>
      </trkpt>
      <trkpt lat="42.76343" lon="1.36195">
        <ele>1292.4004</ele>
        <time>2025-09-13T14:49:11+02:00</time>
      </trkpt>
      <trkpt lat="42.76343" lon="1.36195">
        <ele>1292.4004</ele>
        <time>2025-09-13T14:49:12+02:00</time>
      </trkpt>
      <trkpt lat="42.76342" lon="1.36195">
        <ele>1292.4004</ele>
        <time>2025-09-13T14:49:16+02:00</time>
      </trkpt>
      <trkpt lat="42.76342" lon="1.36195">
        <ele>1292.4004</ele>
        <time>2025-09-13T14:49:17+02:00</time>
      </trkpt>
      <trkpt lat="42.76342" lon="1.36195">
        <ele>1292.4004</ele>
        <time>2025-09-13T14:49:21+02:00</time>
      </trkpt>
      <trkpt lat="42.76342" lon="1.36195">
        <ele>1292.4004</ele>
        <time>2025-09-13T14:49:22+02:00</time>
      </trkpt>
      <trkpt lat="42.76342" lon="1.36196">
        <ele>1292.4004</ele>
        <time>2025-09-13T14:49:26+02:00</time>
      </trkpt>
      <trkpt lat="42.76342" lon="1.36195">
        <ele>1292.4004</ele>
        <time>2025-09-13T14:49:27+02:00</time>
      </trkpt>
      <trkpt lat="42.76342" lon="1.36195">
        <ele>1292.4004</ele>
        <time>2025-09-13T14:49:32+02:00</time>
      </trkpt>
      <trkpt lat="42.76341" lon="1.36194">
        <ele>1292.4004</ele>
        <time>2025-09-13T14:49:33+02:00</time>
      </trkpt>
      <trkpt lat="42.76341" lon="1.36194">
        <ele>1292.4004</ele>
        <time>2025-09-13T14:49:37+02:00</time>
      </trkpt>
      <trkpt lat="42.76341" lon="1.36194">
        <ele>1292.4004</ele>
        <time>2025-09-13T14:49:38+02:00</time>
      </trkpt>
      <trkpt lat="42.76341" lon="1.36194">
        <ele>1292.4004</ele>
        <time>2025-09-13T14:49:42+02:00</time>
      </trkpt>
      <trkpt lat="42.76341" lon="1.36193">
        <ele>1292.4004</ele>
        <time>2025-09-13T14:49:47+02:00</time>
      </trkpt>
      <trkpt lat="42.76341" lon="1.36193">
        <ele>1292.4004</ele>
        <time>2025-09-13T14:49:48+02:00</time>
      </trkpt>
      <trkpt lat="42.7634" lon="1.36192">
        <ele>1295</ele>
        <time>2025-09-13T14:49:52+02:00</time>
      </trkpt>
      <trkpt lat="42.7634" lon="1.36191">
        <ele>1295</ele>
        <time>2025-09-13T14:49:53+02:00</time>
      </trkpt>
      <trkpt lat="42.7634" lon="1.36191">
        <ele>1295</ele>
        <time>2025-09-13T14:49:57+02:00</time>
      </trkpt>
      <trkpt lat="42.7634" lon="1.36191">
        <ele>1295</ele>
        <time>2025-09-13T14:49:58+02:00</time>
      </trkpt>
      <trkpt lat="42.76339" lon="1.3619">
        <ele>1295</ele>
        <time>2025-09-13T14:50:02+02:00</time>
      </trkpt>
      <trkpt lat="42.76339" lon="1.36189">
        <ele>1295</ele>
        <time>2025-09-13T14:50:03+02:00</time>
      </trkpt>
      <trkpt lat="42.76338" lon="1.36186">
        <ele>1292.4004</ele>
        <time>2025-09-13T14:50:07+02:00</time>
      </trkpt>
      <trkpt lat="42.76338" lon="1.36186">
        <ele>1292.4004</ele>
        <time>2025-09-13T14:50:08+02:00</time>
      </trkpt>
      <trkpt lat="42.76337" lon="1.36185">
        <ele>1292.4004</ele>
        <time>2025-09-13T14:50:13+02:00</time>
      </trkpt>
      <trkpt lat="42.76337" lon="1.36185">
        <ele>1292.4004</ele>
        <time>2025-09-13T14:50:14+02:00</time>
      </trkpt>
      <trkpt lat="42.76337" lon="1.36183">
        <ele>1292.4004</ele>
        <time>2025-09-13T14:50:18+02:00</time>
      </trkpt>
      <trkpt lat="42.76337" lon="1.36183">
        <ele>1292.4004</ele>
        <time>2025-09-13T14:50:19+02:00</time>
      </trkpt>
      <trkpt lat="42.76336" lon="1.36181">
        <ele>1292.4004</ele>
        <time>2025-09-13T14:50:23+02:00</time>
      </trkpt>
      <trkpt lat="42.76336" lon="1.36181">
        <ele>1292.4004</ele>
        <time>2025-09-13T14:50:24+02:00</time>
      </trkpt>
      <trkpt lat="42.76336" lon="1.36179">
        <ele>1292.4004</ele>
        <time>2025-09-13T14:50:29+02:00</time>
      </trkpt>
      <trkpt lat="42.76336" lon="1.36179">
        <ele>1292.4004</ele>
        <time>2025-09-13T14:50:30+02:00</time>
      </trkpt>
      <trkpt lat="42.76335" lon="1.36178">
        <ele>1290.7998</ele>
        <time>2025-09-13T14:50:34+02:00</time>
      </trkpt>
      <trkpt lat="42.76335" lon="1.36178">
        <ele>1290.7998</ele>
        <time>2025-09-13T14:50:35+02:00</time>
      </trkpt>
      <trkpt lat="42.76335" lon="1.36178">
        <ele>1290.7998</ele>
        <time>2025-09-13T14:50:39+02:00</time>
      </trkpt>
      <trkpt lat="42.76335" lon="1.36178">
        <ele>1290.7998</ele>
        <time>2025-09-13T14:50:40+02:00</time>
      </trkpt>
      <trkpt lat="42.76335" lon="1.36178">
        <ele>1290.7998</ele>
        <time>2025-09-13T14:50:44+02:00</time>
      </trkpt>
      <trkpt lat="42.76335" lon="1.36178">
        <ele>1290.7998</ele>
        <time>2025-09-13T14:50:45+02:00</time>
      </trkpt>
      <trkpt lat="42.76334" lon="1.36177">
        <ele>1290.7998</ele>
        <time>2025-09-13T14:50:49+02:00</time>
      </trkpt>
      <trkpt lat="42.76334" lon="1.36177">
        <ele>1290.7998</ele>
        <time>2025-09-13T14:50:50+02:00</time>
      </trkpt>
      <trkpt lat="42.76334" lon="1.36176">
        <ele>1290.7998</ele>
        <time>2025-09-13T14:50:54+02:00</time>
      </trkpt>
      <trkpt lat="42.76334" lon="1.36176">
        <ele>1290.7998</ele>
        <time>2025-09-13T14:50:55+02:00</time>
      </trkpt>
      <trkpt lat="42.76334" lon="1.36176">
        <ele>1290.7998</ele>
        <time>2025-09-13T14:50:59+02:00</time>
      </trkpt>
      <trkpt lat="42.76334" lon="1.36176">
        <ele>1290.7998</ele>
        <time>2025-09-13T14:51:00+02:00</time>
      </trkpt>
      <trkpt lat="42.76334" lon="1.36176">
        <ele>1290.7998</ele>
        <time>2025-09-13T14:51:05+02:00</time>
      </trkpt>
      <trkpt lat="42.76334" lon="1.36176">
        <ele>1290.7998</ele>
        <time>2025-09-13T14:51:06+02:00</time>
      </trkpt>
      <trkpt lat="42.76335" lon="1.36177">
        <ele>1290.7998</ele>
        <time>2025-09-13T14:51:10+02:00</time>
      </trkpt>
      <trkpt lat="42.76335" lon="1.36177">
        <ele>1290.7998</ele>
        <time>2025-09-13T14:51:11+02:00</time>
      </trkpt>
      <trkpt lat="42.76335" lon="1.36178">
        <ele>1290.7998</ele>
        <time>2025-09-13T14:51:15+02:00</time>
      </trkpt>
      <trkpt lat="42.76336" lon="1.36178">
        <ele>1290.7998</ele>
        <time>2025-09-13T14:51:16+02:00</time>
      </trkpt>
      <trkpt lat="42.76337" lon="1.36179">
        <ele>1292.4004</ele>
        <time>2025-09-13T14:51:20+02:00</time>
      </trkpt>
      <trkpt lat="42.76337" lon="1.3618">
        <ele>1292.4004</ele>
        <time>2025-09-13T14:51:21+02:00</time>
      </trkpt>
      <trkpt lat="42.76338" lon="1.36181">
        <ele>1292.4004</ele>
        <time>2025-09-13T14:51:25+02:00</time>
      </trkpt>
      <trkpt lat="42.76338" lon="1.36181">
        <ele>1292.4004</ele>
        <time>2025-09-13T14:51:26+02:00</time>
      </trkpt>
      <trkpt lat="42.76337" lon="1.3618">
        <ele>1292.4004</ele>
        <time>2025-09-13T14:51:30+02:00</time>
      </trkpt>
      <trkpt lat="42.76337" lon="1.3618">
        <ele>1292.4004</ele>
        <time>2025-09-13T14:51:31+02:00</time>
      </trkpt>
      <trkpt lat="42.76336" lon="1.36179">
        <ele>1290.7998</ele>
        <time>2025-09-13T14:51:35+02:00</time>
      </trkpt>
      <trkpt lat="42.76336" lon="1.36179">
        <ele>1290.7998</ele>
        <time>2025-09-13T14:51:36+02:00</time>
      </trkpt>
      <trkpt lat="42.76337" lon="1.3618">
        <ele>1292.4004</ele>
        <time>2025-09-13T14:51:40+02:00</time>
      </trkpt>
      <trkpt lat="42.76337" lon="1.3618">
        <ele>1292.4004</ele>
        <time>2025-09-13T14:51:41+02:00</time>
      </trkpt>
      <trkpt lat="42.76337" lon="1.3618">
        <ele>1292.4004</ele>
        <time>2025-09-13T14:51:45+02:00</time>
      </trkpt>
      <trkpt lat="42.76337" lon="1.3618">
        <ele>1292.4004</ele>
        <time>2025-09-13T14:51:46+02:00</time>
      </trkpt>
      <trkpt lat="42.76337" lon="1.3618">
        <ele>1292.4004</ele>
        <time>2025-09-13T14:51:50+02:00</time>
      </trkpt>
      <trkpt lat="42.76337" lon="1.3618">
        <ele>1292.4004</ele>
        <time>2025-09-13T14:51:51+02:00</time>
      </trkpt>
      <trkpt lat="42.76338" lon="1.3618">
        <ele>1292.4004</ele>
        <time>2025-09-13T14:51:55+02:00</time>
      </trkpt>
      <trkpt lat="42.76338" lon="1.3618">
        <ele>1292.4004</ele>
        <time>2025-09-13T14:51:56+02:00</time>
      </trkpt>
      <trkpt lat="42.76338" lon="1.3618">
        <ele>1292.4004</ele>
        <time>2025-09-13T14:52:00+02:00</time>
      </trkpt>
      <trkpt lat="42.76338" lon="1.3618">
        <ele>1292.4004</ele>
        <time>2025-09-13T14:52:01+02:00</time>
      </trkpt>
      <trkpt lat="42.76338" lon="1.3618">
        <ele>1292.4004</ele>
        <time>2025-09-13T14:52:05+02:00</time>
      </trkpt>
      <trkpt lat="42.76338" lon="1.3618">
        <ele>1292.4004</ele>
        <time>2025-09-13T14:52:06+02:00</time>
      </trkpt>
      <trkpt lat="42.76338" lon="1.3618">
        <ele>1292.4004</ele>
        <time>2025-09-13T14:52:10+02:00</time>
      </trkpt>
      <trkpt lat="42.76338" lon="1.3618">
        <ele>1292.4004</ele>
        <time>2025-09-13T14:52:11+02:00</time>
      </trkpt>
      <trkpt lat="42.76338" lon="1.3618">
        <ele>1292.4004</ele>
        <time>2025-09-13T14:52:15+02:00</time>
      </trkpt>
      <trkpt lat="42.76338" lon="1.3618">
        <ele>1292.4004</ele>
        <time>2025-09-13T14:52:16+02:00</time>
      </trkpt>
      <trkpt lat="42.76338" lon="1.3618">
        <ele>1292.4004</ele>
        <time>2025-09-13T14:52:20+02:00</time>
      </trkpt>
      <trkpt lat="42.76338" lon="1.3618">
        <ele>1292.4004</ele>
        <time>2025-09-13T14:52:21+02:00</time>
      </trkpt>
      <trkpt lat="42.76338" lon="1.3618">
        <ele>1292.4004</ele>
        <time>2025-09-13T14:52:25+02:00</time>
      </trkpt>
      <trkpt lat="42.76338" lon="1.3618">
        <ele>1292.4004</ele>
        <time>2025-09-13T14:52:26+02:00</time>
      </trkpt>
      <trkpt lat="42.76338" lon="1.3618">
        <ele>1292.4004</ele>
        <time>2025-09-13T14:52:30+02:00</time>
      </trkpt>
      <trkpt lat="42.76338" lon="1.3618">
        <ele>1292.4004</ele>
        <time>2025-09-13T14:52:31+02:00</time>
      </trkpt>
      <trkpt lat="42.76338" lon="1.3618">
        <ele>1292.4004</ele>
        <time>2025-09-13T14:52:35+02:00</time>
      </trkpt>
      <trkpt lat="42.76338" lon="1.3618">
        <ele>1292.4004</ele>
        <time>2025-09-13T14:52:36+02:00</time>
      </trkpt>
      <trkpt lat="42.76338" lon="1.3618">
        <ele>1292.4004</ele>
        <time>2025-09-13T14:52:40+02:00</time>
      </trkpt>
      <trkpt lat="42.76338" lon="1.3618">
        <ele>1292.4004</ele>
        <time>2025-09-13T14:52:41+02:00</time>
      </trkpt>
      <trkpt lat="42.76338" lon="1.3618">
        <ele>1292.4004</ele>
        <time>2025-09-13T14:52:45+02:00</time>
      </trkpt>
      <trkpt lat="42.76338" lon="1.3618">
        <ele>1292.4004</ele>
        <time>2025-09-13T14:52:46+02:00</time>
      </trkpt>
      <trkpt lat="42.76338" lon="1.3618">
        <ele>1292.4004</ele>
        <time>2025-09-13T14:52:50+02:00</time>
      </trkpt>
      <trkpt lat="42.76338" lon="1.3618">
        <ele>1292.4004</ele>
        <time>2025-09-13T14:52:51+02:00</time>
      </trkpt>
      <trkpt lat="42.76338" lon="1.3618">
        <ele>1292.4004</ele>
        <time>2025-09-13T14:52:55+02:00</time>
      </trkpt>
      <trkpt lat="42.76338" lon="1.3618">
        <ele>1292.4004</ele>
        <time>2025-09-13T14:52:56+02:00</time>
      </trkpt>
      <trkpt lat="42.76338" lon="1.3618">
        <ele>1292.4004</ele>
        <time>2025-09-13T14:53:00+02:00</time>
      </trkpt>
      <trkpt lat="42.76338" lon="1.3618">
        <ele>1292.4004</ele>
        <time>2025-09-13T14:53:01+02:00</time>
      </trkpt>
      <trkpt lat="42.76338" lon="1.3618">
        <ele>1292.4004</ele>
        <time>2025-09-13T14:53:05+02:00</time>
      </trkpt>
      <trkpt lat="42.76338" lon="1.3618">
        <ele>1292.4004</ele>
        <time>2025-09-13T14:53:06+02:00</time>
      </trkpt>
      <trkpt lat="42.76338" lon="1.3618">
        <ele>1292.4004</ele>
        <time>2025-09-13T14:53:10+02:00</time>
      </trkpt>
      <trkpt lat="42.76338" lon="1.3618">
        <ele>1292.4004</ele>
        <time>2025-09-13T14:53:11+02:00</time>
      </trkpt>
      <trkpt lat="42.76338" lon="1.3618">
        <ele>1292.4004</ele>
        <time>2025-09-13T14:53:15+02:00</time>
      </trkpt>
      <trkpt lat="42.76338" lon="1.3618">
        <ele>1292.4004</ele>
        <time>2025-09-13T14:53:16+02:00</time>
      </trkpt>
      <trkpt lat="42.76338" lon="1.3618">
        <ele>1292.4004</ele>
        <time>2025-09-13T14:53:20+02:00</time>
      </trkpt>
      <trkpt lat="42.76338" lon="1.3618">
        <ele>1292.4004</ele>
        <time>2025-09-13T14:53:21+02:00</time>
      </trkpt>
      <trkpt lat="42.76338" lon="1.3618">
        <ele>1292.4004</ele>
        <time>2025-09-13T14:53:25+02:00</time>
      </trkpt>
      <trkpt lat="42.76338" lon="1.3618">
        <ele>1292.4004</ele>
        <time>2025-09-13T14:53:26+02:00</time>
      </trkpt>
      <trkpt lat="42.76338" lon="1.3618">
        <ele>1292.4004</ele>
        <time>2025-09-13T14:53:30+02:00</time>
      </trkpt>
      <trkpt lat="42.76338" lon="1.3618">
        <ele>1292.4004</ele>
        <time>2025-09-13T14:53:31+02:00</time>
      </trkpt>
      <trkpt lat="42.76338" lon="1.3618">
        <ele>1292.4004</ele>
        <time>2025-09-13T14:53:35+02:00</time>
      </trkpt>
      <trkpt lat="42.76338" lon="1.3618">
        <ele>1292.4004</ele>
        <time>2025-09-13T14:53:36+02:00</time>
      </trkpt>
      <trkpt lat="42.76338" lon="1.3618">
        <ele>1292.4004</ele>
        <time>2025-09-13T14:53:40+02:00</time>
      </trkpt>
      <trkpt lat="42.76338" lon="1.3618">
        <ele>1292.4004</ele>
        <time>2025-09-13T14:53:41+02:00</time>
      </trkpt>
      <trkpt lat="42.76338" lon="1.3618">
        <ele>1292.4004</ele>
        <time>2025-09-13T14:53:45+02:00</time>
      </trkpt>
      <trkpt lat="42.76338" lon="1.3618">
        <ele>1292.4004</ele>
        <time>2025-09-13T14:53:46+02:00</time>
      </trkpt>
      <trkpt lat="42.76338" lon="1.3618">
        <ele>1292.4004</ele>
        <time>2025-09-13T14:53:50+02:00</time>
      </trkpt>
      <trkpt lat="42.76338" lon="1.3618">
        <ele>1292.4004</ele>
        <time>2025-09-13T14:53:51+02:00</time>
      </trkpt>
      <trkpt lat="42.76338" lon="1.3618">
        <ele>1292.4004</ele>
        <time>2025-09-13T14:53:55+02:00</time>
      </trkpt>
      <trkpt lat="42.76338" lon="1.3618">
        <ele>1292.4004</ele>
        <time>2025-09-13T14:53:56+02:00</time>
      </trkpt>
      <trkpt lat="42.76338" lon="1.3618">
        <ele>1292.4004</ele>
        <time>2025-09-13T14:54:00+02:00</time>
      </trkpt>
      <trkpt lat="42.76338" lon="1.3618">
        <ele>1292.4004</ele>
        <time>2025-09-13T14:54:01+02:00</time>
      </trkpt>
      <trkpt lat="42.76338" lon="1.3618">
        <ele>1292.4004</ele>
        <time>2025-09-13T14:54:05+02:00</time>
      </trkpt>
      <trkpt lat="42.76338" lon="1.3618">
        <ele>1292.4004</ele>
        <time>2025-09-13T14:54:06+02:00</time>
      </trkpt>
      <trkpt lat="42.76338" lon="1.36182">
        <ele>1292.4004</ele>
        <time>2025-09-13T14:54:10+02:00</time>
      </trkpt>
      <trkpt lat="42.76338" lon="1.36182">
        <ele>1292.4004</ele>
        <time>2025-09-13T14:54:11+02:00</time>
      </trkpt>
      <trkpt lat="42.76338" lon="1.36183">
        <ele>1292.4004</ele>
        <time>2025-09-13T14:54:15+02:00</time>
      </trkpt>
      <trkpt lat="42.76338" lon="1.36183">
        <ele>1292.4004</ele>
        <time>2025-09-13T14:54:16+02:00</time>
      </trkpt>
      <trkpt lat="42.76338" lon="1.36184">
        <ele>1292.4004</ele>
        <time>2025-09-13T14:54:20+02:00</time>
      </trkpt>
      <trkpt lat="42.76338" lon="1.36184">
        <ele>1292.4004</ele>
        <time>2025-09-13T14:54:21+02:00</time>
      </trkpt>
      <trkpt lat="42.76338" lon="1.36184">
        <ele>1292.4004</ele>
        <time>2025-09-13T14:54:25+02:00</time>
      </trkpt>
      <trkpt lat="42.76338" lon="1.36184">
        <ele>1292.4004</ele>
        <time>2025-09-13T14:54:26+02:00</time>
      </trkpt>
      <trkpt lat="42.76338" lon="1.36184">
        <ele>1292.4004</ele>
        <time>2025-09-13T14:54:30+02:00</time>
      </trkpt>
      <trkpt lat="42.76338" lon="1.36184">
        <ele>1292.4004</ele>
        <time>2025-09-13T14:54:31+02:00</time>
      </trkpt>
      <trkpt lat="42.76338" lon="1.36184">
        <ele>1292.4004</ele>
        <time>2025-09-13T14:54:35+02:00</time>
      </trkpt>
      <trkpt lat="42.76338" lon="1.36184">
        <ele>1292.4004</ele>
        <time>2025-09-13T14:54:36+02:00</time>
      </trkpt>
      <trkpt lat="42.76338" lon="1.36184">
        <ele>1292.4004</ele>
        <time>2025-09-13T14:54:40+02:00</time>
      </trkpt>
      <trkpt lat="42.76338" lon="1.36184">
        <ele>1292.4004</ele>
        <time>2025-09-13T14:54:41+02:00</time>
      </trkpt>
      <trkpt lat="42.76338" lon="1.36184">
        <ele>1292.4004</ele>
        <time>2025-09-13T14:54:45+02:00</time>
      </trkpt>
      <trkpt lat="42.76338" lon="1.36184">
        <ele>1292.4004</ele>
        <time>2025-09-13T14:54:46+02:00</time>
      </trkpt>
      <trkpt lat="42.76338" lon="1.36184">
        <ele>1292.4004</ele>
        <time>2025-09-13T14:54:50+02:00</time>
      </trkpt>
      <trkpt lat="42.76338" lon="1.36184">
        <ele>1292.4004</ele>
        <time>2025-09-13T14:54:51+02:00</time>
      </trkpt>
      <trkpt lat="42.76338" lon="1.36184">
        <ele>1292.4004</ele>
        <time>2025-09-13T14:54:55+02:00</time>
      </trkpt>
      <trkpt lat="42.76338" lon="1.36184">
        <ele>1292.4004</ele>
        <time>2025-09-13T14:54:56+02:00</time>
      </trkpt>
      <trkpt lat="42.76338" lon="1.36184">
        <ele>1292.4004</ele>
        <time>2025-09-13T14:55:00+02:00</time>
      </trkpt>
      <trkpt lat="42.76338" lon="1.36184">
        <ele>1292.4004</ele>
        <time>2025-09-13T14:55:01+02:00</time>
      </trkpt>
      <trkpt lat="42.76338" lon="1.36184">
        <ele>1292.4004</ele>
        <time>2025-09-13T14:55:05+02:00</time>
      </trkpt>
      <trkpt lat="42.76338" lon="1.36184">
        <ele>1292.4004</ele>
        <time>2025-09-13T14:55:06+02:00</time>
      </trkpt>
      <trkpt lat="42.76338" lon="1.36183">
        <ele>1292.4004</ele>
        <time>2025-09-13T14:55:10+02:00</time>
      </trkpt>
      <trkpt lat="42.76338" lon="1.36183">
        <ele>1292.4004</ele>
        <time>2025-09-13T14:55:11+02:00</time>
      </trkpt>
      <trkpt lat="42.76338" lon="1.36183">
        <ele>1292.4004</ele>
        <time>2025-09-13T14:55:15+02:00</time>
      </trkpt>
      <trkpt lat="42.76338" lon="1.36183">
        <ele>1292.4004</ele>
        <time>2025-09-13T14:55:16+02:00</time>
      </trkpt>
      <trkpt lat="42.76338" lon="1.36183">
        <ele>1292.4004</ele>
        <time>2025-09-13T14:55:20+02:00</time>
      </trkpt>
      <trkpt lat="42.76338" lon="1.36183">
        <ele>1292.4004</ele>
        <time>2025-09-13T14:55:21+02:00</time>
      </trkpt>
      <trkpt lat="42.76338" lon="1.36183">
        <ele>1292.4004</ele>
        <time>2025-09-13T14:55:25+02:00</time>
      </trkpt>
      <trkpt lat="42.76338" lon="1.36183">
        <ele>1292.4004</ele>
        <time>2025-09-13T14:55:26+02:00</time>
      </trkpt>
      <trkpt lat="42.76338" lon="1.36183">
        <ele>1292.4004</ele>
        <time>2025-09-13T14:55:30+02:00</time>
      </trkpt>
      <trkpt lat="42.76338" lon="1.36183">
        <ele>1292.4004</ele>
        <time>2025-09-13T14:55:31+02:00</time>
      </trkpt>
      <trkpt lat="42.76338" lon="1.36183">
        <ele>1292.4004</ele>
        <time>2025-09-13T14:55:35+02:00</time>
      </trkpt>
      <trkpt lat="42.76338" lon="1.36183">
        <ele>1292.4004</ele>
        <time>2025-09-13T14:55:36+02:00</time>
      </trkpt>
      <trkpt lat="42.76338" lon="1.36183">
        <ele>1292.4004</ele>
        <time>2025-09-13T14:55:40+02:00</time>
      </trkpt>
      <trkpt lat="42.76338" lon="1.36183">
        <ele>1292.4004</ele>
        <time>2025-09-13T14:55:41+02:00</time>
      </trkpt>
      <trkpt lat="42.76338" lon="1.36183">
        <ele>1292.4004</ele>
        <time>2025-09-13T14:55:45+02:00</time>
      </trkpt>
      <trkpt lat="42.76338" lon="1.36183">
        <ele>1292.4004</ele>
        <time>2025-09-13T14:55:46+02:00</time>
      </trkpt>
      <trkpt lat="42.76338" lon="1.36183">
        <ele>1292.4004</ele>
        <time>2025-09-13T14:55:50+02:00</time>
      </trkpt>
      <trkpt lat="42.76338" lon="1.36183">
        <ele>1292.4004</ele>
        <time>2025-09-13T14:55:51+02:00</time>
      </trkpt>
      <trkpt lat="42.76337" lon="1.36183">
        <ele>1292.4004</ele>
        <time>2025-09-13T14:55:55+02:00</time>
      </trkpt>
      <trkpt lat="42.76337" lon="1.36183">
        <ele>1292.4004</ele>
        <time>2025-09-13T14:55:56+02:00</time>
      </trkpt>
      <trkpt lat="42.76337" lon="1.36183">
        <ele>1292.4004</ele>
        <time>2025-09-13T14:56:00+02:00</time>
      </trkpt>
      <trkpt lat="42.76337" lon="1.36183">
        <ele>1292.4004</ele>
        <time>2025-09-13T14:56:01+02:00</time>
      </trkpt>
      <trkpt lat="42.76337" lon="1.36183">
        <ele>1292.4004</ele>
        <time>2025-09-13T14:56:05+02:00</time>
      </trkpt>
      <trkpt lat="42.76337" lon="1.36183">
        <ele>1292.4004</ele>
        <time>2025-09-13T14:56:06+02:00</time>
      </trkpt>
      <trkpt lat="42.76337" lon="1.36183">
        <ele>1292.4004</ele>
        <time>2025-09-13T14:56:10+02:00</time>
      </trkpt>
      <trkpt lat="42.76337" lon="1.36183">
        <ele>1292.4004</ele>
        <time>2025-09-13T14:56:11+02:00</time>
      </trkpt>
      <trkpt lat="42.76337" lon="1.36183">
        <ele>1292.4004</ele>
        <time>2025-09-13T14:56:15+02:00</time>
      </trkpt>
      <trkpt lat="42.76337" lon="1.36183">
        <ele>1292.4004</ele>
        <time>2025-09-13T14:56:16+02:00</time>
      </trkpt>
      <trkpt lat="42.76337" lon="1.36181">
        <ele>1292.4004</ele>
        <time>2025-09-13T14:56:20+02:00</time>
      </trkpt>
      <trkpt lat="42.76337" lon="1.36181">
        <ele>1292.4004</ele>
        <time>2025-09-13T14:56:21+02:00</time>
      </trkpt>
      <trkpt lat="42.76337" lon="1.3618">
        <ele>1292.4004</ele>
        <time>2025-09-13T14:56:25+02:00</time>
      </trkpt>
      <trkpt lat="42.76337" lon="1.3618">
        <ele>1292.4004</ele>
        <time>2025-09-13T14:56:26+02:00</time>
      </trkpt>
      <trkpt lat="42.76336" lon="1.3618">
        <ele>1292.4004</ele>
        <time>2025-09-13T14:56:30+02:00</time>
      </trkpt>
      <trkpt lat="42.76336" lon="1.3618">
        <ele>1292.4004</ele>
        <time>2025-09-13T14:56:31+02:00</time>
      </trkpt>
      <trkpt lat="42.76336" lon="1.3618">
        <ele>1292.4004</ele>
        <time>2025-09-13T14:56:35+02:00</time>
      </trkpt>
      <trkpt lat="42.76336" lon="1.3618">
        <ele>1292.4004</ele>
        <time>2025-09-13T14:56:36+02:00</time>
      </trkpt>
      <trkpt lat="42.76336" lon="1.3618">
        <ele>1292.4004</ele>
        <time>2025-09-13T14:56:40+02:00</time>
      </trkpt>
      <trkpt lat="42.76336" lon="1.3618">
        <ele>1292.4004</ele>
        <time>2025-09-13T14:56:41+02:00</time>
      </trkpt>
      <trkpt lat="42.76336" lon="1.3618">
        <ele>1292.4004</ele>
        <time>2025-09-13T14:56:45+02:00</time>
      </trkpt>
      <trkpt lat="42.76336" lon="1.3618">
        <ele>1292.4004</ele>
        <time>2025-09-13T14:56:46+02:00</time>
      </trkpt>
      <trkpt lat="42.76336" lon="1.3618">
        <ele>1292.4004</ele>
        <time>2025-09-13T14:56:50+02:00</time>
      </trkpt>
      <trkpt lat="42.76336" lon="1.3618">
        <ele>1292.4004</ele>
        <time>2025-09-13T14:56:51+02:00</time>
      </trkpt>
      <trkpt lat="42.76336" lon="1.3618">
        <ele>1292.4004</ele>
        <time>2025-09-13T14:56:55+02:00</time>
      </trkpt>
      <trkpt lat="42.76336" lon="1.3618">
        <ele>1292.4004</ele>
        <time>2025-09-13T14:56:56+02:00</time>
      </trkpt>
      <trkpt lat="42.76336" lon="1.3618">
        <ele>1292.4004</ele>
        <time>2025-09-13T14:57:00+02:00</time>
      </trkpt>
      <trkpt lat="42.76336" lon="1.3618">
        <ele>1292.4004</ele>
        <time>2025-09-13T14:57:01+02:00</time>
      </trkpt>
      <trkpt lat="42.76336" lon="1.3618">
        <ele>1292.4004</ele>
        <time>2025-09-13T14:57:05+02:00</time>
      </trkpt>
      <trkpt lat="42.76336" lon="1.3618">
        <ele>1292.4004</ele>
        <time>2025-09-13T14:57:06+02:00</time>
      </trkpt>
      <trkpt lat="42.76336" lon="1.3618">
        <ele>1292.4004</ele>
        <time>2025-09-13T14:57:10+02:00</time>
      </trkpt>
      <trkpt lat="42.76336" lon="1.3618">
        <ele>1292.4004</ele>
        <time>2025-09-13T14:57:11+02:00</time>
      </trkpt>
      <trkpt lat="42.76336" lon="1.3618">
        <ele>1292.4004</ele>
        <time>2025-09-13T14:57:15+02:00</time>
      </trkpt>
      <trkpt lat="42.76336" lon="1.3618">
        <ele>1292.4004</ele>
        <time>2025-09-13T14:57:16+02:00</time>
      </trkpt>
      <trkpt lat="42.76336" lon="1.3618">
        <ele>1292.4004</ele>
        <time>2025-09-13T14:57:20+02:00</time>
      </trkpt>
      <trkpt lat="42.76336" lon="1.36179">
        <ele>1292.4004</ele>
        <time>2025-09-13T14:57:21+02:00</time>
      </trkpt>
      <trkpt lat="42.76336" lon="1.36179">
        <ele>1292.4004</ele>
        <time>2025-09-13T14:57:25+02:00</time>
      </trkpt>
      <trkpt lat="42.76336" lon="1.36179">
        <ele>1292.4004</ele>
        <time>2025-09-13T14:57:26+02:00</time>
      </trkpt>
      <trkpt lat="42.76336" lon="1.36179">
        <ele>1292.4004</ele>
        <time>2025-09-13T14:57:30+02:00</time>
      </trkpt>
      <trkpt lat="42.76336" lon="1.36179">
        <ele>1292.4004</ele>
        <time>2025-09-13T14:57:31+02:00</time>
      </trkpt>
      <trkpt lat="42.76336" lon="1.36179">
        <ele>1292.4004</ele>
        <time>2025-09-13T14:57:35+02:00</time>
      </trkpt>
      <trkpt lat="42.76336" lon="1.36179">
        <ele>1292.4004</ele>
        <time>2025-09-13T14:57:36+02:00</time>
      </trkpt>
      <trkpt lat="42.76336" lon="1.36179">
        <ele>1292.4004</ele>
        <time>2025-09-13T14:57:40+02:00</time>
      </trkpt>
      <trkpt lat="42.76336" lon="1.36179">
        <ele>1292.4004</ele>
        <time>2025-09-13T14:57:41+02:00</time>
      </trkpt>
      <trkpt lat="42.76336" lon="1.36179">
        <ele>1292.4004</ele>
        <time>2025-09-13T14:57:45+02:00</time>
      </trkpt>
      <trkpt lat="42.76336" lon="1.36179">
        <ele>1292.4004</ele>
        <time>2025-09-13T14:57:46+02:00</time>
      </trkpt>
      <trkpt lat="42.76336" lon="1.36179">
        <ele>1292.4004</ele>
        <time>2025-09-13T14:57:50+02:00</time>
      </trkpt>
      <trkpt lat="42.76336" lon="1.36179">
        <ele>1292.4004</ele>
        <time>2025-09-13T14:57:51+02:00</time>
      </trkpt>
      <trkpt lat="42.76336" lon="1.36179">
        <ele>1292.4004</ele>
        <time>2025-09-13T14:57:55+02:00</time>
      </trkpt>
      <trkpt lat="42.76336" lon="1.36179">
        <ele>1292.4004</ele>
        <time>2025-09-13T14:57:56+02:00</time>
      </trkpt>
      <trkpt lat="42.76336" lon="1.36179">
        <ele>1292.4004</ele>
        <time>2025-09-13T14:58:00+02:00</time>
      </trkpt>
      <trkpt lat="42.76336" lon="1.36179">
        <ele>1292.4004</ele>
        <time>2025-09-13T14:58:01+02:00</time>
      </trkpt>
      <trkpt lat="42.76336" lon="1.36179">
        <ele>1292.4004</ele>
        <time>2025-09-13T14:58:05+02:00</time>
      </trkpt>
      <trkpt lat="42.76336" lon="1.36179">
        <ele>1292.4004</ele>
        <time>2025-09-13T14:58:06+02:00</time>
      </trkpt>
      <trkpt lat="42.76336" lon="1.36179">
        <ele>1292.4004</ele>
        <time>2025-09-13T14:58:10+02:00</time>
      </trkpt>
      <trkpt lat="42.76336" lon="1.36179">
        <ele>1292.4004</ele>
        <time>2025-09-13T14:58:11+02:00</time>
      </trkpt>
      <trkpt lat="42.76336" lon="1.36179">
        <ele>1292.4004</ele>
        <time>2025-09-13T14:58:15+02:00</time>
      </trkpt>
      <trkpt lat="42.76336" lon="1.36179">
        <ele>1292.4004</ele>
        <time>2025-09-13T14:58:16+02:00</time>
      </trkpt>
      <trkpt lat="42.76336" lon="1.36179">
        <ele>1292.4004</ele>
        <time>2025-09-13T14:58:20+02:00</time>
      </trkpt>
      <trkpt lat="42.76336" lon="1.36179">
        <ele>1292.4004</ele>
        <time>2025-09-13T14:58:21+02:00</time>
      </trkpt>
      <trkpt lat="42.76336" lon="1.36179">
        <ele>1292.4004</ele>
        <time>2025-09-13T14:58:25+02:00</time>
      </trkpt>
      <trkpt lat="42.76336" lon="1.36179">
        <ele>1292.4004</ele>
        <time>2025-09-13T14:58:26+02:00</time>
      </trkpt>
      <trkpt lat="42.76336" lon="1.36179">
        <ele>1292.4004</ele>
        <time>2025-09-13T14:58:30+02:00</time>
      </trkpt>
      <trkpt lat="42.76336" lon="1.36179">
        <ele>1292.4004</ele>
        <time>2025-09-13T14:58:31+02:00</time>
      </trkpt>
      <trkpt lat="42.76336" lon="1.36179">
        <ele>1292.4004</ele>
        <time>2025-09-13T14:58:35+02:00</time>
      </trkpt>
      <trkpt lat="42.76336" lon="1.36179">
        <ele>1292.4004</ele>
        <time>2025-09-13T14:58:36+02:00</time>
      </trkpt>
      <trkpt lat="42.76336" lon="1.36179">
        <ele>1292.4004</ele>
        <time>2025-09-13T14:58:40+02:00</time>
      </trkpt>
      <trkpt lat="42.76336" lon="1.36179">
        <ele>1292.4004</ele>
        <time>2025-09-13T14:58:41+02:00</time>
      </trkpt>
      <trkpt lat="42.76336" lon="1.36179">
        <ele>1292.4004</ele>
        <time>2025-09-13T14:58:45+02:00</time>
      </trkpt>
      <trkpt lat="42.76336" lon="1.36179">
        <ele>1292.4004</ele>
        <time>2025-09-13T14:58:46+02:00</time>
      </trkpt>
      <trkpt lat="42.76336" lon="1.36179">
        <ele>1292.4004</ele>
        <time>2025-09-13T14:58:50+02:00</time>
      </trkpt>
      <trkpt lat="42.76336" lon="1.36179">
        <ele>1292.4004</ele>
        <time>2025-09-13T14:58:51+02:00</time>
      </trkpt>
      <trkpt lat="42.76336" lon="1.36179">
        <ele>1292.4004</ele>
        <time>2025-09-13T14:58:55+02:00</time>
      </trkpt>
      <trkpt lat="42.76336" lon="1.36179">
        <ele>1292.4004</ele>
        <time>2025-09-13T14:58:56+02:00</time>
      </trkpt>
      <trkpt lat="42.76336" lon="1.36179">
        <ele>1292.4004</ele>
        <time>2025-09-13T14:59:00+02:00</time>
      </trkpt>
      <trkpt lat="42.76336" lon="1.36179">
        <ele>1292.4004</ele>
        <time>2025-09-13T14:59:01+02:00</time>
      </trkpt>
      <trkpt lat="42.76336" lon="1.36179">
        <ele>1292.4004</ele>
        <time>2025-09-13T14:59:05+02:00</time>
      </trkpt>
      <trkpt lat="42.76336" lon="1.36179">
        <ele>1292.4004</ele>
        <time>2025-09-13T14:59:06+02:00</time>
      </trkpt>
      <trkpt lat="42.76336" lon="1.36179">
        <ele>1292.4004</ele>
        <time>2025-09-13T14:59:10+02:00</time>
      </trkpt>
      <trkpt lat="42.76336" lon="1.36179">
        <ele>1292.4004</ele>
        <time>2025-09-13T14:59:11+02:00</time>
      </trkpt>
      <trkpt lat="42.76336" lon="1.36179">
        <ele>1292.4004</ele>
        <time>2025-09-13T14:59:15+02:00</time>
      </trkpt>
      <trkpt lat="42.76336" lon="1.36179">
        <ele>1292.4004</ele>
        <time>2025-09-13T14:59:16+02:00</time>
      </trkpt>
      <trkpt lat="42.76336" lon="1.36179">
        <ele>1292.4004</ele>
        <time>2025-09-13T14:59:20+02:00</time>
      </trkpt>
      <trkpt lat="42.76336" lon="1.36179">
        <ele>1292.4004</ele>
        <time>2025-09-13T14:59:21+02:00</time>
      </trkpt>
      <trkpt lat="42.76336" lon="1.36179">
        <ele>1292.4004</ele>
        <time>2025-09-13T14:59:25+02:00</time>
      </trkpt>
      <trkpt lat="42.76336" lon="1.36179">
        <ele>1292.4004</ele>
        <time>2025-09-13T14:59:26+02:00</time>
      </trkpt>
      <trkpt lat="42.76336" lon="1.36179">
        <ele>1292.4004</ele>
        <time>2025-09-13T14:59:30+02:00</time>
      </trkpt>
      <trkpt lat="42.76336" lon="1.36179">
        <ele>1292.4004</ele>
        <time>2025-09-13T14:59:31+02:00</time>
      </trkpt>
      <trkpt lat="42.76336" lon="1.36179">
        <ele>1292.4004</ele>
        <time>2025-09-13T14:59:35+02:00</time>
      </trkpt>
      <trkpt lat="42.76336" lon="1.36179">
        <ele>1292.4004</ele>
        <time>2025-09-13T14:59:36+02:00</time>
      </trkpt>
      <trkpt lat="42.76336" lon="1.36179">
        <ele>1292.4004</ele>
        <time>2025-09-13T14:59:40+02:00</time>
      </trkpt>
      <trkpt lat="42.76336" lon="1.36179">
        <ele>1292.4004</ele>
        <time>2025-09-13T14:59:41+02:00</time>
      </trkpt>
      <trkpt lat="42.76336" lon="1.36179">
        <ele>1292.4004</ele>
        <time>2025-09-13T14:59:45+02:00</time>
      </trkpt>
      <trkpt lat="42.76336" lon="1.36179">
        <ele>1292.4004</ele>
        <time>2025-09-13T14:59:46+02:00</time>
      </trkpt>
      <trkpt lat="42.76336" lon="1.36179">
        <ele>1292.4004</ele>
        <time>2025-09-13T14:59:50+02:00</time>
      </trkpt>
      <trkpt lat="42.76336" lon="1.36179">
        <ele>1292.4004</ele>
        <time>2025-09-13T14:59:51+02:00</time>
      </trkpt>
      <trkpt lat="42.76336" lon="1.36179">
        <ele>1292.4004</ele>
        <time>2025-09-13T14:59:55+02:00</time>
      </trkpt>
      <trkpt lat="42.76336" lon="1.36179">
        <ele>1292.4004</ele>
        <time>2025-09-13T14:59:56+02:00</time>
      </trkpt>
      <trkpt lat="42.76336" lon="1.36179">
        <ele>1292.4004</ele>
        <time>2025-09-13T15:00:00+02:00</time>
      </trkpt>
      <trkpt lat="42.76336" lon="1.36179">
        <ele>1292.4004</ele>
        <time>2025-09-13T15:00:01+02:00</time>
      </trkpt>
      <trkpt lat="42.76336" lon="1.36179">
        <ele>1292.4004</ele>
        <time>2025-09-13T15:00:05+02:00</time>
      </trkpt>
      <trkpt lat="42.76336" lon="1.36179">
        <ele>1292.4004</ele>
        <time>2025-09-13T15:00:06+02:00</time>
      </trkpt>
      <trkpt lat="42.76336" lon="1.36179">
        <ele>1292.4004</ele>
        <time>2025-09-13T15:00:10+02:00</time>
      </trkpt>
      <trkpt lat="42.76336" lon="1.36179">
        <ele>1292.4004</ele>
        <time>2025-09-13T15:00:11+02:00</time>
      </trkpt>
      <trkpt lat="42.76336" lon="1.36179">
        <ele>1292.4004</ele>
        <time>2025-09-13T15:00:15+02:00</time>
      </trkpt>
      <trkpt lat="42.76336" lon="1.36179">
        <ele>1292.4004</ele>
        <time>2025-09-13T15:00:16+02:00</time>
      </trkpt>
      <trkpt lat="42.76336" lon="1.36179">
        <ele>1292.4004</ele>
        <time>2025-09-13T15:00:20+02:00</time>
      </trkpt>
      <trkpt lat="42.76336" lon="1.36179">
        <ele>1292.4004</ele>
        <time>2025-09-13T15:00:21+02:00</time>
      </trkpt>
      <trkpt lat="42.76336" lon="1.36179">
        <ele>1292.4004</ele>
        <time>2025-09-13T15:00:25+02:00</time>
      </trkpt>
      <trkpt lat="42.76336" lon="1.36179">
        <ele>1292.4004</ele>
        <time>2025-09-13T15:00:26+02:00</time>
      </trkpt>
      <trkpt lat="42.76336" lon="1.36179">
        <ele>1292.4004</ele>
        <time>2025-09-13T15:00:30+02:00</time>
      </trkpt>
      <trkpt lat="42.76336" lon="1.36179">
        <ele>1292.4004</ele>
        <time>2025-09-13T15:00:31+02:00</time>
      </trkpt>
      <trkpt lat="42.76336" lon="1.36179">
        <ele>1292.4004</ele>
        <time>2025-09-13T15:00:35+02:00</time>
      </trkpt>
      <trkpt lat="42.76336" lon="1.36179">
        <ele>1292.4004</ele>
        <time>2025-09-13T15:00:36+02:00</time>
      </trkpt>
      <trkpt lat="42.76336" lon="1.36179">
        <ele>1292.4004</ele>
        <time>2025-09-13T15:00:40+02:00</time>
      </trkpt>
      <trkpt lat="42.76336" lon="1.36179">
        <ele>1292.4004</ele>
        <time>2025-09-13T15:00:41+02:00</time>
      </trkpt>
      <trkpt lat="42.76336" lon="1.36179">
        <ele>1292.4004</ele>
        <time>2025-09-13T15:00:45+02:00</time>
      </trkpt>
      <trkpt lat="42.76336" lon="1.36179">
        <ele>1292.4004</ele>
        <time>2025-09-13T15:00:46+02:00</time>
      </trkpt>
      <trkpt lat="42.76336" lon="1.36179">
        <ele>1292.4004</ele>
        <time>2025-09-13T15:00:50+02:00</time>
      </trkpt>
      <trkpt lat="42.76336" lon="1.36179">
        <ele>1292.4004</ele>
        <time>2025-09-13T15:00:51+02:00</time>
      </trkpt>
      <trkpt lat="42.76336" lon="1.36179">
        <ele>1292.4004</ele>
        <time>2025-09-13T15:00:55+02:00</time>
      </trkpt>
      <trkpt lat="42.76336" lon="1.36179">
        <ele>1292.4004</ele>
        <time>2025-09-13T15:00:56+02:00</time>
      </trkpt>
      <trkpt lat="42.76336" lon="1.36179">
        <ele>1292.4004</ele>
        <time>2025-09-13T15:01:00+02:00</time>
      </trkpt>
      <trkpt lat="42.76336" lon="1.36179">
        <ele>1292.4004</ele>
        <time>2025-09-13T15:01:01+02:00</time>
      </trkpt>
      <trkpt lat="42.76336" lon="1.36179">
        <ele>1292.4004</ele>
        <time>2025-09-13T15:01:05+02:00</time>
      </trkpt>
      <trkpt lat="42.76336" lon="1.36179">
        <ele>1292.4004</ele>
        <time>2025-09-13T15:01:06+02:00</time>
      </trkpt>
      <trkpt lat="42.76336" lon="1.36179">
        <ele>1292.4004</ele>
        <time>2025-09-13T15:01:10+02:00</time>
      </trkpt>
      <trkpt lat="42.76336" lon="1.36179">
        <ele>1292.4004</ele>
        <time>2025-09-13T15:01:11+02:00</time>
      </trkpt>
      <trkpt lat="42.76336" lon="1.36179">
        <ele>1292.4004</ele>
        <time>2025-09-13T15:01:15+02:00</time>
      </trkpt>
      <trkpt lat="42.76336" lon="1.36179">
        <ele>1292.4004</ele>
        <time>2025-09-13T15:01:16+02:00</time>
      </trkpt>
      <trkpt lat="42.76336" lon="1.36179">
        <ele>1292.4004</ele>
        <time>2025-09-13T15:01:20+02:00</time>
      </trkpt>
      <trkpt lat="42.76336" lon="1.36179">
        <ele>1292.4004</ele>
        <time>2025-09-13T15:01:21+02:00</time>
      </trkpt>
      <trkpt lat="42.76336" lon="1.36179">
        <ele>1292.4004</ele>
        <time>2025-09-13T15:01:25+02:00</time>
      </trkpt>
      <trkpt lat="42.76336" lon="1.36179">
        <ele>1292.4004</ele>
        <time>2025-09-13T15:01:26+02:00</time>
      </trkpt>
      <trkpt lat="42.76336" lon="1.36179">
        <ele>1292.4004</ele>
        <time>2025-09-13T15:01:30+02:00</time>
      </trkpt>
      <trkpt lat="42.76336" lon="1.36179">
        <ele>1292.4004</ele>
        <time>2025-09-13T15:01:31+02:00</time>
      </trkpt>
      <trkpt lat="42.76336" lon="1.36179">
        <ele>1292.4004</ele>
        <time>2025-09-13T15:01:35+02:00</time>
      </trkpt>
      <trkpt lat="42.76336" lon="1.36179">
        <ele>1292.4004</ele>
        <time>2025-09-13T15:01:36+02:00</time>
      </trkpt>
      <trkpt lat="42.76336" lon="1.36179">
        <ele>1292.4004</ele>
        <time>2025-09-13T15:01:40+02:00</time>
      </trkpt>
      <trkpt lat="42.76336" lon="1.36179">
        <ele>1292.4004</ele>
        <time>2025-09-13T15:01:41+02:00</time>
      </trkpt>
      <trkpt lat="42.76336" lon="1.36179">
        <ele>1292.4004</ele>
        <time>2025-09-13T15:01:45+02:00</time>
      </trkpt>
      <trkpt lat="42.76336" lon="1.36179">
        <ele>1292.4004</ele>
        <time>2025-09-13T15:01:46+02:00</time>
      </trkpt>
      <trkpt lat="42.76336" lon="1.36179">
        <ele>1290.7998</ele>
        <time>2025-09-13T15:01:50+02:00</time>
      </trkpt>
      <trkpt lat="42.76336" lon="1.36179">
        <ele>1290.7998</ele>
        <time>2025-09-13T15:01:51+02:00</time>
      </trkpt>
      <trkpt lat="42.76336" lon="1.36179">
        <ele>1290.7998</ele>
        <time>2025-09-13T15:01:55+02:00</time>
      </trkpt>
      <trkpt lat="42.76336" lon="1.36179">
        <ele>1290.7998</ele>
        <time>2025-09-13T15:01:56+02:00</time>
      </trkpt>
      <trkpt lat="42.76336" lon="1.36179">
        <ele>1290.7998</ele>
        <time>2025-09-13T15:02:00+02:00</time>
      </trkpt>
      <trkpt lat="42.76336" lon="1.36179">
        <ele>1290.7998</ele>
        <time>2025-09-13T15:02:01+02:00</time>
      </trkpt>
      <trkpt lat="42.76336" lon="1.36179">
        <ele>1290.7998</ele>
        <time>2025-09-13T15:02:05+02:00</time>
      </trkpt>
      <trkpt lat="42.76336" lon="1.36179">
        <ele>1290.7998</ele>
        <time>2025-09-13T15:02:06+02:00</time>
      </trkpt>
      <trkpt lat="42.76336" lon="1.36179">
        <ele>1290.7998</ele>
        <time>2025-09-13T15:02:10+02:00</time>
      </trkpt>
      <trkpt lat="42.76336" lon="1.36179">
        <ele>1290.7998</ele>
        <time>2025-09-13T15:02:11+02:00</time>
      </trkpt>
      <trkpt lat="42.76336" lon="1.36179">
        <ele>1290.7998</ele>
        <time>2025-09-13T15:02:15+02:00</time>
      </trkpt>
      <trkpt lat="42.76336" lon="1.36179">
        <ele>1290.7998</ele>
        <time>2025-09-13T15:02:16+02:00</time>
      </trkpt>
      <trkpt lat="42.76336" lon="1.36179">
        <ele>1290.7998</ele>
        <time>2025-09-13T15:02:20+02:00</time>
      </trkpt>
      <trkpt lat="42.76336" lon="1.36179">
        <ele>1290.7998</ele>
        <time>2025-09-13T15:02:21+02:00</time>
      </trkpt>
      <trkpt lat="42.76336" lon="1.36179">
        <ele>1290.7998</ele>
        <time>2025-09-13T15:02:25+02:00</time>
      </trkpt>
      <trkpt lat="42.76336" lon="1.36179">
        <ele>1290.7998</ele>
        <time>2025-09-13T15:02:26+02:00</time>
      </trkpt>
      <trkpt lat="42.76336" lon="1.36179">
        <ele>1290.7998</ele>
        <time>2025-09-13T15:02:30+02:00</time>
      </trkpt>
      <trkpt lat="42.76336" lon="1.36179">
        <ele>1290.7998</ele>
        <time>2025-09-13T15:02:31+02:00</time>
      </trkpt>
      <trkpt lat="42.76336" lon="1.36179">
        <ele>1290.7998</ele>
        <time>2025-09-13T15:02:35+02:00</time>
      </trkpt>
      <trkpt lat="42.76336" lon="1.36179">
        <ele>1290.7998</ele>
        <time>2025-09-13T15:02:36+02:00</time>
      </trkpt>
      <trkpt lat="42.76336" lon="1.36179">
        <ele>1290.7998</ele>
        <time>2025-09-13T15:02:40+02:00</time>
      </trkpt>
      <trkpt lat="42.76336" lon="1.36179">
        <ele>1290.7998</ele>
        <time>2025-09-13T15:02:41+02:00</time>
      </trkpt>
      <trkpt lat="42.76336" lon="1.36179">
        <ele>1290.7998</ele>
        <time>2025-09-13T15:02:45+02:00</time>
      </trkpt>
      <trkpt lat="42.76336" lon="1.36179">
        <ele>1290.7998</ele>
        <time>2025-09-13T15:02:46+02:00</time>
      </trkpt>
      <trkpt lat="42.76336" lon="1.36179">
        <ele>1290.7998</ele>
        <time>2025-09-13T15:02:50+02:00</time>
      </trkpt>
      <trkpt lat="42.76336" lon="1.36179">
        <ele>1290.7998</ele>
        <time>2025-09-13T15:02:51+02:00</time>
      </trkpt>
      <trkpt lat="42.76336" lon="1.36179">
        <ele>1290.7998</ele>
        <time>2025-09-13T15:02:55+02:00</time>
      </trkpt>
      <trkpt lat="42.76336" lon="1.36179">
        <ele>1290.7998</ele>
        <time>2025-09-13T15:02:56+02:00</time>
      </trkpt>
      <trkpt lat="42.76336" lon="1.36179">
        <ele>1290.7998</ele>
        <time>2025-09-13T15:03:00+02:00</time>
      </trkpt>
      <trkpt lat="42.76336" lon="1.36179">
        <ele>1290.7998</ele>
        <time>2025-09-13T15:03:01+02:00</time>
      </trkpt>
      <trkpt lat="42.76336" lon="1.36179">
        <ele>1290.7998</ele>
        <time>2025-09-13T15:03:05+02:00</time>
      </trkpt>
      <trkpt lat="42.76336" lon="1.36179">
        <ele>1290.7998</ele>
        <time>2025-09-13T15:03:06+02:00</time>
      </trkpt>
      <trkpt lat="42.76336" lon="1.36179">
        <ele>1290.7998</ele>
        <time>2025-09-13T15:03:10+02:00</time>
      </trkpt>
      <trkpt lat="42.76336" lon="1.36179">
        <ele>1290.7998</ele>
        <time>2025-09-13T15:03:11+02:00</time>
      </trkpt>
      <trkpt lat="42.76336" lon="1.36179">
        <ele>1290.7998</ele>
        <time>2025-09-13T15:03:15+02:00</time>
      </trkpt>
      <trkpt lat="42.76336" lon="1.36179">
        <ele>1290.7998</ele>
        <time>2025-09-13T15:03:16+02:00</time>
      </trkpt>
      <trkpt lat="42.76336" lon="1.36179">
        <ele>1290.7998</ele>
        <time>2025-09-13T15:03:20+02:00</time>
      </trkpt>
      <trkpt lat="42.76336" lon="1.36179">
        <ele>1290.7998</ele>
        <time>2025-09-13T15:03:21+02:00</time>
      </trkpt>
      <trkpt lat="42.76336" lon="1.36179">
        <ele>1290.7998</ele>
        <time>2025-09-13T15:03:25+02:00</time>
      </trkpt>
      <trkpt lat="42.76336" lon="1.36179">
        <ele>1290.7998</ele>
        <time>2025-09-13T15:03:26+02:00</time>
      </trkpt>
      <trkpt lat="42.76336" lon="1.36179">
        <ele>1290.7998</ele>
        <time>2025-09-13T15:03:30+02:00</time>
      </trkpt>
      <trkpt lat="42.76336" lon="1.36179">
        <ele>1290.7998</ele>
        <time>2025-09-13T15:03:31+02:00</time>
      </trkpt>
      <trkpt lat="42.76336" lon="1.36179">
        <ele>1290.7998</ele>
        <time>2025-09-13T15:03:35+02:00</time>
      </trkpt>
      <trkpt lat="42.76336" lon="1.36179">
        <ele>1290.7998</ele>
        <time>2025-09-13T15:03:36+02:00</time>
      </trkpt>
      <trkpt lat="42.76336" lon="1.36179">
        <ele>1290.7998</ele>
        <time>2025-09-13T15:03:40+02:00</time>
      </trkpt>
      <trkpt lat="42.76336" lon="1.36179">
        <ele>1290.7998</ele>
        <time>2025-09-13T15:03:41+02:00</time>
      </trkpt>
      <trkpt lat="42.76336" lon="1.36179">
        <ele>1290.7998</ele>
        <time>2025-09-13T15:03:45+02:00</time>
      </trkpt>
      <trkpt lat="42.76336" lon="1.36179">
        <ele>1290.7998</ele>
        <time>2025-09-13T15:03:46+02:00</time>
      </trkpt>
      <trkpt lat="42.76336" lon="1.36179">
        <ele>1290.7998</ele>
        <time>2025-09-13T15:03:50+02:00</time>
      </trkpt>
      <trkpt lat="42.76336" lon="1.36179">
        <ele>1290.7998</ele>
        <time>2025-09-13T15:03:51+02:00</time>
      </trkpt>
      <trkpt lat="42.76336" lon="1.36179">
        <ele>1290.7998</ele>
        <time>2025-09-13T15:03:55+02:00</time>
      </trkpt>
      <trkpt lat="42.76336" lon="1.36179">
        <ele>1290.7998</ele>
        <time>2025-09-13T15:03:56+02:00</time>
      </trkpt>
      <trkpt lat="42.76336" lon="1.36179">
        <ele>1290.7998</ele>
        <time>2025-09-13T15:04:00+02:00</time>
      </trkpt>
      <trkpt lat="42.76336" lon="1.36179">
        <ele>1290.7998</ele>
        <time>2025-09-13T15:04:01+02:00</time>
      </trkpt>
      <trkpt lat="42.76336" lon="1.36179">
        <ele>1290.7998</ele>
        <time>2025-09-13T15:04:05+02:00</time>
      </trkpt>
      <trkpt lat="42.76336" lon="1.36179">
        <ele>1290.7998</ele>
        <time>2025-09-13T15:04:06+02:00</time>
      </trkpt>
      <trkpt lat="42.76336" lon="1.36179">
        <ele>1290.7998</ele>
        <time>2025-09-13T15:04:10+02:00</time>
      </trkpt>
      <trkpt lat="42.76336" lon="1.36179">
        <ele>1290.7998</ele>
        <time>2025-09-13T15:04:11+02:00</time>
      </trkpt>
      <trkpt lat="42.76336" lon="1.36179">
        <ele>1290.7998</ele>
        <time>2025-09-13T15:04:15+02:00</time>
      </trkpt>
      <trkpt lat="42.76336" lon="1.36179">
        <ele>1290.7998</ele>
        <time>2025-09-13T15:04:16+02:00</time>
      </trkpt>
      <trkpt lat="42.76336" lon="1.36179">
        <ele>1290.7998</ele>
        <time>2025-09-13T15:04:20+02:00</time>
      </trkpt>
      <trkpt lat="42.76336" lon="1.36179">
        <ele>1290.7998</ele>
        <time>2025-09-13T15:04:21+02:00</time>
      </trkpt>
      <trkpt lat="42.76336" lon="1.36179">
        <ele>1290.7998</ele>
        <time>2025-09-13T15:04:25+02:00</time>
      </trkpt>
      <trkpt lat="42.76336" lon="1.36179">
        <ele>1290.7998</ele>
        <time>2025-09-13T15:04:26+02:00</time>
      </trkpt>
      <trkpt lat="42.76336" lon="1.36179">
        <ele>1290.7998</ele>
        <time>2025-09-13T15:04:30+02:00</time>
      </trkpt>
      <trkpt lat="42.76336" lon="1.36179">
        <ele>1290.7998</ele>
        <time>2025-09-13T15:04:31+02:00</time>
      </trkpt>
      <trkpt lat="42.76336" lon="1.36179">
        <ele>1290.7998</ele>
        <time>2025-09-13T15:04:35+02:00</time>
      </trkpt>
      <trkpt lat="42.76336" lon="1.36179">
        <ele>1290.7998</ele>
        <time>2025-09-13T15:04:36+02:00</time>
      </trkpt>
      <trkpt lat="42.76336" lon="1.36179">
        <ele>1290.7998</ele>
        <time>2025-09-13T15:04:40+02:00</time>
      </trkpt>
      <trkpt lat="42.76336" lon="1.36179">
        <ele>1290.7998</ele>
        <time>2025-09-13T15:04:41+02:00</time>
      </trkpt>
      <trkpt lat="42.76336" lon="1.36179">
        <ele>1290.7998</ele>
        <time>2025-09-13T15:04:45+02:00</time>
      </trkpt>
      <trkpt lat="42.76336" lon="1.36179">
        <ele>1290.7998</ele>
        <time>2025-09-13T15:04:46+02:00</time>
      </trkpt>
      <trkpt lat="42.76336" lon="1.36179">
        <ele>1290.7998</ele>
        <time>2025-09-13T15:04:50+02:00</time>
      </trkpt>
      <trkpt lat="42.76336" lon="1.36179">
        <ele>1290.7998</ele>
        <time>2025-09-13T15:04:51+02:00</time>
      </trkpt>
      <trkpt lat="42.76336" lon="1.36179">
        <ele>1290.7998</ele>
        <time>2025-09-13T15:04:55+02:00</time>
      </trkpt>
      <trkpt lat="42.76336" lon="1.36179">
        <ele>1290.7998</ele>
        <time>2025-09-13T15:04:56+02:00</time>
      </trkpt>
      <trkpt lat="42.76336" lon="1.36179">
        <ele>1290.7998</ele>
        <time>2025-09-13T15:05:00+02:00</time>
      </trkpt>
      <trkpt lat="42.76336" lon="1.36179">
        <ele>1290.7998</ele>
        <time>2025-09-13T15:05:01+02:00</time>
      </trkpt>
      <trkpt lat="42.76336" lon="1.36179">
        <ele>1290.7998</ele>
        <time>2025-09-13T15:05:05+02:00</time>
      </trkpt>
      <trkpt lat="42.76336" lon="1.36179">
        <ele>1290.7998</ele>
        <time>2025-09-13T15:05:06+02:00</time>
      </trkpt>
      <trkpt lat="42.76336" lon="1.36179">
        <ele>1290.7998</ele>
        <time>2025-09-13T15:05:10+02:00</time>
      </trkpt>
      <trkpt lat="42.76336" lon="1.36179">
        <ele>1290.7998</ele>
        <time>2025-09-13T15:05:11+02:00</time>
      </trkpt>
      <trkpt lat="42.76336" lon="1.36179">
        <ele>1290.7998</ele>
        <time>2025-09-13T15:05:15+02:00</time>
      </trkpt>
      <trkpt lat="42.76336" lon="1.36179">
        <ele>1290.7998</ele>
        <time>2025-09-13T15:05:16+02:00</time>
      </trkpt>
      <trkpt lat="42.76336" lon="1.36179">
        <ele>1290.7998</ele>
        <time>2025-09-13T15:05:20+02:00</time>
      </trkpt>
      <trkpt lat="42.76336" lon="1.36179">
        <ele>1290.7998</ele>
        <time>2025-09-13T15:05:21+02:00</time>
      </trkpt>
      <trkpt lat="42.76336" lon="1.36179">
        <ele>1290.7998</ele>
        <time>2025-09-13T15:05:25+02:00</time>
      </trkpt>
      <trkpt lat="42.76336" lon="1.36179">
        <ele>1290.7998</ele>
        <time>2025-09-13T15:05:26+02:00</time>
      </trkpt>
      <trkpt lat="42.76336" lon="1.36179">
        <ele>1290.7998</ele>
        <time>2025-09-13T15:05:30+02:00</time>
      </trkpt>
      <trkpt lat="42.76336" lon="1.36179">
        <ele>1290.7998</ele>
        <time>2025-09-13T15:05:31+02:00</time>
      </trkpt>
      <trkpt lat="42.76336" lon="1.36179">
        <ele>1290.7998</ele>
        <time>2025-09-13T15:05:35+02:00</time>
      </trkpt>
      <trkpt lat="42.76336" lon="1.36179">
        <ele>1290.7998</ele>
        <time>2025-09-13T15:05:36+02:00</time>
      </trkpt>
      <trkpt lat="42.76336" lon="1.36179">
        <ele>1290.7998</ele>
        <time>2025-09-13T15:05:40+02:00</time>
      </trkpt>
      <trkpt lat="42.76336" lon="1.36179">
        <ele>1290.7998</ele>
        <time>2025-09-13T15:05:41+02:00</time>
      </trkpt>
      <trkpt lat="42.76336" lon="1.36179">
        <ele>1290.7998</ele>
        <time>2025-09-13T15:05:45+02:00</time>
      </trkpt>
      <trkpt lat="42.76336" lon="1.36179">
        <ele>1290.7998</ele>
        <time>2025-09-13T15:05:46+02:00</time>
      </trkpt>
      <trkpt lat="42.76336" lon="1.36179">
        <ele>1290.7998</ele>
        <time>2025-09-13T15:05:50+02:00</time>
      </trkpt>
      <trkpt lat="42.76336" lon="1.36179">
        <ele>1290.7998</ele>
        <time>2025-09-13T15:05:51+02:00</time>
      </trkpt>
      <trkpt lat="42.76336" lon="1.36179">
        <ele>1290.7998</ele>
        <time>2025-09-13T15:05:55+02:00</time>
      </trkpt>
      <trkpt lat="42.76336" lon="1.36179">
        <ele>1290.7998</ele>
        <time>2025-09-13T15:05:56+02:00</time>
      </trkpt>
      <trkpt lat="42.76336" lon="1.36179">
        <ele>1290.7998</ele>
        <time>2025-09-13T15:06:00+02:00</time>
      </trkpt>
      <trkpt lat="42.76336" lon="1.36179">
        <ele>1290.7998</ele>
        <time>2025-09-13T15:06:01+02:00</time>
      </trkpt>
      <trkpt lat="42.76336" lon="1.36179">
        <ele>1290.7998</ele>
        <time>2025-09-13T15:06:05+02:00</time>
      </trkpt>
      <trkpt lat="42.76336" lon="1.36179">
        <ele>1290.7998</ele>
        <time>2025-09-13T15:06:06+02:00</time>
      </trkpt>
      <trkpt lat="42.76336" lon="1.36179">
        <ele>1290.7998</ele>
        <time>2025-09-13T15:06:10+02:00</time>
      </trkpt>
      <trkpt lat="42.76336" lon="1.36179">
        <ele>1290.7998</ele>
        <time>2025-09-13T15:06:11+02:00</time>
      </trkpt>
      <trkpt lat="42.76336" lon="1.36179">
        <ele>1290.7998</ele>
        <time>2025-09-13T15:06:15+02:00</time>
      </trkpt>
      <trkpt lat="42.76336" lon="1.36179">
        <ele>1290.7998</ele>
        <time>2025-09-13T15:06:16+02:00</time>
      </trkpt>
      <trkpt lat="42.76336" lon="1.36179">
        <ele>1290.7998</ele>
        <time>2025-09-13T15:06:20+02:00</time>
      </trkpt>
      <trkpt lat="42.76336" lon="1.36179">
        <ele>1290.7998</ele>
        <time>2025-09-13T15:06:21+02:00</time>
      </trkpt>
      <trkpt lat="42.76336" lon="1.36179">
        <ele>1290.7998</ele>
        <time>2025-09-13T15:06:25+02:00</time>
      </trkpt>
      <trkpt lat="42.76336" lon="1.36179">
        <ele>1290.7998</ele>
        <time>2025-09-13T15:06:26+02:00</time>
      </trkpt>
      <trkpt lat="42.76336" lon="1.36179">
        <ele>1290.7998</ele>
        <time>2025-09-13T15:06:30+02:00</time>
      </trkpt>
      <trkpt lat="42.76336" lon="1.36179">
        <ele>1290.7998</ele>
        <time>2025-09-13T15:06:31+02:00</time>
      </trkpt>
      <trkpt lat="42.76336" lon="1.36179">
        <ele>1290.7998</ele>
        <time>2025-09-13T15:06:35+02:00</time>
      </trkpt>
      <trkpt lat="42.76336" lon="1.36179">
        <ele>1290.7998</ele>
        <time>2025-09-13T15:06:36+02:00</time>
      </trkpt>
      <trkpt lat="42.76336" lon="1.36179">
        <ele>1290.7998</ele>
        <time>2025-09-13T15:06:40+02:00</time>
      </trkpt>
      <trkpt lat="42.76336" lon="1.36179">
        <ele>1290.7998</ele>
        <time>2025-09-13T15:06:41+02:00</time>
      </trkpt>
      <trkpt lat="42.76336" lon="1.36179">
        <ele>1290.7998</ele>
        <time>2025-09-13T15:06:45+02:00</time>
      </trkpt>
      <trkpt lat="42.76336" lon="1.36179">
        <ele>1290.7998</ele>
        <time>2025-09-13T15:06:46+02:00</time>
      </trkpt>
      <trkpt lat="42.76336" lon="1.36179">
        <ele>1290.7998</ele>
        <time>2025-09-13T15:06:50+02:00</time>
      </trkpt>
      <trkpt lat="42.76336" lon="1.36179">
        <ele>1290.7998</ele>
        <time>2025-09-13T15:06:51+02:00</time>
      </trkpt>
      <trkpt lat="42.76336" lon="1.36179">
        <ele>1290.7998</ele>
        <time>2025-09-13T15:06:55+02:00</time>
      </trkpt>
      <trkpt lat="42.76336" lon="1.36179">
        <ele>1290.7998</ele>
        <time>2025-09-13T15:06:56+02:00</time>
      </trkpt>
      <trkpt lat="42.76336" lon="1.36179">
        <ele>1290.7998</ele>
        <time>2025-09-13T15:07:00+02:00</time>
      </trkpt>
      <trkpt lat="42.76336" lon="1.36179">
        <ele>1290.7998</ele>
        <time>2025-09-13T15:07:01+02:00</time>
      </trkpt>
      <trkpt lat="42.76336" lon="1.36179">
        <ele>1290.7998</ele>
        <time>2025-09-13T15:07:05+02:00</time>
      </trkpt>
      <trkpt lat="42.76336" lon="1.36179">
        <ele>1290.7998</ele>
        <time>2025-09-13T15:07:06+02:00</time>
      </trkpt>
      <trkpt lat="42.76336" lon="1.36179">
        <ele>1290.7998</ele>
        <time>2025-09-13T15:07:10+02:00</time>
      </trkpt>
      <trkpt lat="42.76336" lon="1.36179">
        <ele>1290.7998</ele>
        <time>2025-09-13T15:07:11+02:00</time>
      </trkpt>
      <trkpt lat="42.76336" lon="1.36179">
        <ele>1290.7998</ele>
        <time>2025-09-13T15:07:15+02:00</time>
      </trkpt>
      <trkpt lat="42.76336" lon="1.36179">
        <ele>1290.7998</ele>
        <time>2025-09-13T15:07:16+02:00</time>
      </trkpt>
      <trkpt lat="42.76336" lon="1.36179">
        <ele>1290.7998</ele>
        <time>2025-09-13T15:07:20+02:00</time>
      </trkpt>
      <trkpt lat="42.76336" lon="1.36179">
        <ele>1290.7998</ele>
        <time>2025-09-13T15:07:21+02:00</time>
      </trkpt>
      <trkpt lat="42.76336" lon="1.36179">
        <ele>1290.7998</ele>
        <time>2025-09-13T15:07:25+02:00</time>
      </trkpt>
      <trkpt lat="42.76336" lon="1.36179">
        <ele>1290.7998</ele>
        <time>2025-09-13T15:07:26+02:00</time>
      </trkpt>
      <trkpt lat="42.76336" lon="1.36179">
        <ele>1290.7998</ele>
        <time>2025-09-13T15:07:30+02:00</time>
      </trkpt>
      <trkpt lat="42.76336" lon="1.36179">
        <ele>1290.7998</ele>
        <time>2025-09-13T15:07:31+02:00</time>
      </trkpt>
      <trkpt lat="42.76336" lon="1.36179">
        <ele>1290.7998</ele>
        <time>2025-09-13T15:07:35+02:00</time>
      </trkpt>
      <trkpt lat="42.76336" lon="1.36179">
        <ele>1290.7998</ele>
        <time>2025-09-13T15:07:36+02:00</time>
      </trkpt>
      <trkpt lat="42.76336" lon="1.36179">
        <ele>1290.7998</ele>
        <time>2025-09-13T15:07:40+02:00</time>
      </trkpt>
      <trkpt lat="42.76336" lon="1.36179">
        <ele>1290.7998</ele>
        <time>2025-09-13T15:07:41+02:00</time>
      </trkpt>
      <trkpt lat="42.76336" lon="1.36179">
        <ele>1290.7998</ele>
        <time>2025-09-13T15:07:45+02:00</time>
      </trkpt>
      <trkpt lat="42.76336" lon="1.36179">
        <ele>1290.7998</ele>
        <time>2025-09-13T15:07:46+02:00</time>
      </trkpt>
      <trkpt lat="42.76336" lon="1.36179">
        <ele>1290.7998</ele>
        <time>2025-09-13T15:07:50+02:00</time>
      </trkpt>
      <trkpt lat="42.76336" lon="1.36179">
        <ele>1290.7998</ele>
        <time>2025-09-13T15:07:51+02:00</time>
      </trkpt>
      <trkpt lat="42.76336" lon="1.36179">
        <ele>1290.7998</ele>
        <time>2025-09-13T15:07:55+02:00</time>
      </trkpt>
      <trkpt lat="42.76336" lon="1.36179">
        <ele>1290.7998</ele>
        <time>2025-09-13T15:07:56+02:00</time>
      </trkpt>
      <trkpt lat="42.76336" lon="1.36179">
        <ele>1290.7998</ele>
        <time>2025-09-13T15:08:00+02:00</time>
      </trkpt>
      <trkpt lat="42.76336" lon="1.36179">
        <ele>1290.7998</ele>
        <time>2025-09-13T15:08:01+02:00</time>
      </trkpt>
      <trkpt lat="42.76336" lon="1.36179">
        <ele>1290.7998</ele>
        <time>2025-09-13T15:08:05+02:00</time>
      </trkpt>
      <trkpt lat="42.76336" lon="1.36179">
        <ele>1290.7998</ele>
        <time>2025-09-13T15:08:06+02:00</time>
      </trkpt>
      <trkpt lat="42.76336" lon="1.36179">
        <ele>1290.7998</ele>
        <time>2025-09-13T15:08:10+02:00</time>
      </trkpt>
      <trkpt lat="42.76336" lon="1.36179">
        <ele>1290.7998</ele>
        <time>2025-09-13T15:08:11+02:00</time>
      </trkpt>
      <trkpt lat="42.76336" lon="1.36179">
        <ele>1290.7998</ele>
        <time>2025-09-13T15:08:15+02:00</time>
      </trkpt>
      <trkpt lat="42.76336" lon="1.36179">
        <ele>1290.7998</ele>
        <time>2025-09-13T15:08:16+02:00</time>
      </trkpt>
      <trkpt lat="42.76336" lon="1.36179">
        <ele>1290.7998</ele>
        <time>2025-09-13T15:08:20+02:00</time>
      </trkpt>
      <trkpt lat="42.76336" lon="1.36179">
        <ele>1290.7998</ele>
        <time>2025-09-13T15:08:21+02:00</time>
      </trkpt>
      <trkpt lat="42.76336" lon="1.36179">
        <ele>1290.7998</ele>
        <time>2025-09-13T15:08:25+02:00</time>
      </trkpt>
      <trkpt lat="42.76336" lon="1.36179">
        <ele>1290.7998</ele>
        <time>2025-09-13T15:08:26+02:00</time>
      </trkpt>
      <trkpt lat="42.76336" lon="1.36179">
        <ele>1290.7998</ele>
        <time>2025-09-13T15:08:30+02:00</time>
      </trkpt>
      <trkpt lat="42.76336" lon="1.36179">
        <ele>1290.7998</ele>
        <time>2025-09-13T15:08:31+02:00</time>
      </trkpt>
      <trkpt lat="42.76336" lon="1.36179">
        <ele>1290.7998</ele>
        <time>2025-09-13T15:08:35+02:00</time>
      </trkpt>
      <trkpt lat="42.76336" lon="1.36179">
        <ele>1290.7998</ele>
        <time>2025-09-13T15:08:36+02:00</time>
      </trkpt>
      <trkpt lat="42.76336" lon="1.36179">
        <ele>1290.7998</ele>
        <time>2025-09-13T15:08:40+02:00</time>
      </trkpt>
      <trkpt lat="42.76336" lon="1.36179">
        <ele>1290.7998</ele>
        <time>2025-09-13T15:08:41+02:00</time>
      </trkpt>
      <trkpt lat="42.76336" lon="1.36179">
        <ele>1290.7998</ele>
        <time>2025-09-13T15:08:45+02:00</time>
      </trkpt>
      <trkpt lat="42.76336" lon="1.36179">
        <ele>1290.7998</ele>
        <time>2025-09-13T15:08:46+02:00</time>
      </trkpt>
      <trkpt lat="42.76336" lon="1.36179">
        <ele>1290.7998</ele>
        <time>2025-09-13T15:08:50+02:00</time>
      </trkpt>
      <trkpt lat="42.76336" lon="1.36179">
        <ele>1290.7998</ele>
        <time>2025-09-13T15:08:51+02:00</time>
      </trkpt>
      <trkpt lat="42.76336" lon="1.36179">
        <ele>1290.7998</ele>
        <time>2025-09-13T15:08:55+02:00</time>
      </trkpt>
      <trkpt lat="42.76336" lon="1.36179">
        <ele>1290.7998</ele>
        <time>2025-09-13T15:08:56+02:00</time>
      </trkpt>
      <trkpt lat="42.76336" lon="1.36179">
        <ele>1290.7998</ele>
        <time>2025-09-13T15:09:00+02:00</time>
      </trkpt>
      <trkpt lat="42.76336" lon="1.36179">
        <ele>1290.7998</ele>
        <time>2025-09-13T15:09:01+02:00</time>
      </trkpt>
      <trkpt lat="42.76336" lon="1.36179">
        <ele>1290.7998</ele>
        <time>2025-09-13T15:09:05+02:00</time>
      </trkpt>
      <trkpt lat="42.76336" lon="1.36179">
        <ele>1290.7998</ele>
        <time>2025-09-13T15:09:06+02:00</time>
      </trkpt>
      <trkpt lat="42.76336" lon="1.36179">
        <ele>1290.7998</ele>
        <time>2025-09-13T15:09:10+02:00</time>
      </trkpt>
      <trkpt lat="42.76336" lon="1.36179">
        <ele>1290.7998</ele>
        <time>2025-09-13T15:09:11+02:00</time>
      </trkpt>
      <trkpt lat="42.76336" lon="1.36179">
        <ele>1290.7998</ele>
        <time>2025-09-13T15:09:15+02:00</time>
      </trkpt>
      <trkpt lat="42.76336" lon="1.36179">
        <ele>1290.7998</ele>
        <time>2025-09-13T15:09:16+02:00</time>
      </trkpt>
      <trkpt lat="42.76336" lon="1.36179">
        <ele>1290.7998</ele>
        <time>2025-09-13T15:09:20+02:00</time>
      </trkpt>
      <trkpt lat="42.76336" lon="1.36179">
        <ele>1290.7998</ele>
        <time>2025-09-13T15:09:21+02:00</time>
      </trkpt>
      <trkpt lat="42.76336" lon="1.36179">
        <ele>1290.7998</ele>
        <time>2025-09-13T15:09:25+02:00</time>
      </trkpt>
      <trkpt lat="42.76336" lon="1.36179">
        <ele>1290.7998</ele>
        <time>2025-09-13T15:09:26+02:00</time>
      </trkpt>
      <trkpt lat="42.76336" lon="1.36179">
        <ele>1290.7998</ele>
        <time>2025-09-13T15:09:30+02:00</time>
      </trkpt>
      <trkpt lat="42.76336" lon="1.36179">
        <ele>1290.7998</ele>
        <time>2025-09-13T15:09:31+02:00</time>
      </trkpt>
      <trkpt lat="42.76336" lon="1.36179">
        <ele>1290.7998</ele>
        <time>2025-09-13T15:09:35+02:00</time>
      </trkpt>
      <trkpt lat="42.76336" lon="1.36179">
        <ele>1290.7998</ele>
        <time>2025-09-13T15:09:36+02:00</time>
      </trkpt>
      <trkpt lat="42.76336" lon="1.36179">
        <ele>1290.7998</ele>
        <time>2025-09-13T15:09:40+02:00</time>
      </trkpt>
      <trkpt lat="42.76336" lon="1.36179">
        <ele>1290.7998</ele>
        <time>2025-09-13T15:09:41+02:00</time>
      </trkpt>
      <trkpt lat="42.76336" lon="1.36179">
        <ele>1290.7998</ele>
        <time>2025-09-13T15:09:45+02:00</time>
      </trkpt>
      <trkpt lat="42.76336" lon="1.36179">
        <ele>1290.7998</ele>
        <time>2025-09-13T15:09:46+02:00</time>
      </trkpt>
      <trkpt lat="42.76336" lon="1.36179">
        <ele>1290.7998</ele>
        <time>2025-09-13T15:09:50+02:00</time>
      </trkpt>
      <trkpt lat="42.76336" lon="1.36179">
        <ele>1290.7998</ele>
        <time>2025-09-13T15:09:51+02:00</time>
      </trkpt>
      <trkpt lat="42.76336" lon="1.36179">
        <ele>1290.7998</ele>
        <time>2025-09-13T15:09:55+02:00</time>
      </trkpt>
      <trkpt lat="42.76336" lon="1.36179">
        <ele>1290.7998</ele>
        <time>2025-09-13T15:09:56+02:00</time>
      </trkpt>
      <trkpt lat="42.76336" lon="1.36179">
        <ele>1290.7998</ele>
        <time>2025-09-13T15:10:00+02:00</time>
      </trkpt>
      <trkpt lat="42.76336" lon="1.36179">
        <ele>1290.7998</ele>
        <time>2025-09-13T15:10:01+02:00</time>
      </trkpt>
      <trkpt lat="42.76336" lon="1.36179">
        <ele>1290.7998</ele>
        <time>2025-09-13T15:10:05+02:00</time>
      </trkpt>
      <trkpt lat="42.76336" lon="1.36179">
        <ele>1290.7998</ele>
        <time>2025-09-13T15:10:06+02:00</time>
      </trkpt>
      <trkpt lat="42.76336" lon="1.36179">
        <ele>1290.7998</ele>
        <time>2025-09-13T15:10:10+02:00</time>
      </trkpt>
      <trkpt lat="42.76336" lon="1.36179">
        <ele>1290.7998</ele>
        <time>2025-09-13T15:10:11+02:00</time>
      </trkpt>
      <trkpt lat="42.76336" lon="1.36179">
        <ele>1290.7998</ele>
        <time>2025-09-13T15:10:15+02:00</time>
      </trkpt>
      <trkpt lat="42.76336" lon="1.36179">
        <ele>1290.7998</ele>
        <time>2025-09-13T15:10:16+02:00</time>
      </trkpt>
      <trkpt lat="42.76336" lon="1.36179">
        <ele>1290.7998</ele>
        <time>2025-09-13T15:10:20+02:00</time>
      </trkpt>
      <trkpt lat="42.76336" lon="1.36179">
        <ele>1290.7998</ele>
        <time>2025-09-13T15:10:21+02:00</time>
      </trkpt>
      <trkpt lat="42.76336" lon="1.36179">
        <ele>1290.7998</ele>
        <time>2025-09-13T15:10:25+02:00</time>
      </trkpt>
      <trkpt lat="42.76336" lon="1.36179">
        <ele>1290.7998</ele>
        <time>2025-09-13T15:10:26+02:00</time>
      </trkpt>
      <trkpt lat="42.76336" lon="1.36179">
        <ele>1290.7998</ele>
        <time>2025-09-13T15:10:30+02:00</time>
      </trkpt>
      <trkpt lat="42.76336" lon="1.36179">
        <ele>1290.7998</ele>
        <time>2025-09-13T15:10:31+02:00</time>
      </trkpt>
      <trkpt lat="42.76336" lon="1.36179">
        <ele>1290.7998</ele>
        <time>2025-09-13T15:10:35+02:00</time>
      </trkpt>
      <trkpt lat="42.76336" lon="1.36179">
        <ele>1290.7998</ele>
        <time>2025-09-13T15:10:36+02:00</time>
      </trkpt>
      <trkpt lat="42.76336" lon="1.36179">
        <ele>1290.7998</ele>
        <time>2025-09-13T15:10:40+02:00</time>
      </trkpt>
      <trkpt lat="42.76336" lon="1.36179">
        <ele>1290.7998</ele>
        <time>2025-09-13T15:10:41+02:00</time>
      </trkpt>
      <trkpt lat="42.76336" lon="1.36179">
        <ele>1290.7998</ele>
        <time>2025-09-13T15:10:45+02:00</time>
      </trkpt>
      <trkpt lat="42.76336" lon="1.36179">
        <ele>1290.7998</ele>
        <time>2025-09-13T15:10:46+02:00</time>
      </trkpt>
      <trkpt lat="42.76336" lon="1.36179">
        <ele>1290.7998</ele>
        <time>2025-09-13T15:10:50+02:00</time>
      </trkpt>
      <trkpt lat="42.76336" lon="1.36179">
        <ele>1290.7998</ele>
        <time>2025-09-13T15:10:51+02:00</time>
      </trkpt>
      <trkpt lat="42.76336" lon="1.36179">
        <ele>1290.7998</ele>
        <time>2025-09-13T15:10:55+02:00</time>
      </trkpt>
      <trkpt lat="42.76336" lon="1.36179">
        <ele>1290.7998</ele>
        <time>2025-09-13T15:10:56+02:00</time>
      </trkpt>
      <trkpt lat="42.76336" lon="1.36179">
        <ele>1290.7998</ele>
        <time>2025-09-13T15:11:00+02:00</time>
      </trkpt>
      <trkpt lat="42.76336" lon="1.36179">
        <ele>1290.7998</ele>
        <time>2025-09-13T15:11:01+02:00</time>
      </trkpt>
      <trkpt lat="42.76336" lon="1.36179">
        <ele>1290.7998</ele>
        <time>2025-09-13T15:11:05+02:00</time>
      </trkpt>
      <trkpt lat="42.76336" lon="1.36179">
        <ele>1290.7998</ele>
        <time>2025-09-13T15:11:06+02:00</time>
      </trkpt>
      <trkpt lat="42.76336" lon="1.36179">
        <ele>1290.7998</ele>
        <time>2025-09-13T15:11:10+02:00</time>
      </trkpt>
      <trkpt lat="42.76336" lon="1.36179">
        <ele>1290.7998</ele>
        <time>2025-09-13T15:11:11+02:00</time>
      </trkpt>
      <trkpt lat="42.76336" lon="1.36179">
        <ele>1290.7998</ele>
        <time>2025-09-13T15:11:15+02:00</time>
      </trkpt>
      <trkpt lat="42.76336" lon="1.36179">
        <ele>1290.7998</ele>
        <time>2025-09-13T15:11:16+02:00</time>
      </trkpt>
      <trkpt lat="42.76336" lon="1.36179">
        <ele>1290.7998</ele>
        <time>2025-09-13T15:11:20+02:00</time>
      </trkpt>
      <trkpt lat="42.76336" lon="1.36179">
        <ele>1290.7998</ele>
        <time>2025-09-13T15:11:21+02:00</time>
      </trkpt>
      <trkpt lat="42.76336" lon="1.36179">
        <ele>1290.7998</ele>
        <time>2025-09-13T15:11:25+02:00</time>
      </trkpt>
      <trkpt lat="42.76336" lon="1.36179">
        <ele>1290.7998</ele>
        <time>2025-09-13T15:11:26+02:00</time>
      </trkpt>
      <trkpt lat="42.76336" lon="1.36179">
        <ele>1290.7998</ele>
        <time>2025-09-13T15:11:30+02:00</time>
      </trkpt>
      <trkpt lat="42.76336" lon="1.36179">
        <ele>1290.7998</ele>
        <time>2025-09-13T15:11:31+02:00</time>
      </trkpt>
      <trkpt lat="42.76336" lon="1.36179">
        <ele>1290.7998</ele>
        <time>2025-09-13T15:11:35+02:00</time>
      </trkpt>
      <trkpt lat="42.76336" lon="1.36179">
        <ele>1290.7998</ele>
        <time>2025-09-13T15:11:36+02:00</time>
      </trkpt>
      <trkpt lat="42.76336" lon="1.36179">
        <ele>1290.7998</ele>
        <time>2025-09-13T15:11:40+02:00</time>
      </trkpt>
      <trkpt lat="42.76336" lon="1.36179">
        <ele>1290.7998</ele>
        <time>2025-09-13T15:11:41+02:00</time>
      </trkpt>
      <trkpt lat="42.76336" lon="1.36179">
        <ele>1290.7998</ele>
        <time>2025-09-13T15:11:45+02:00</time>
      </trkpt>
      <trkpt lat="42.76336" lon="1.36179">
        <ele>1290.7998</ele>
        <time>2025-09-13T15:11:46+02:00</time>
      </trkpt>
      <trkpt lat="42.76336" lon="1.36179">
        <ele>1290.7998</ele>
        <time>2025-09-13T15:11:50+02:00</time>
      </trkpt>
      <trkpt lat="42.76336" lon="1.36179">
        <ele>1290.7998</ele>
        <time>2025-09-13T15:11:51+02:00</time>
      </trkpt>
      <trkpt lat="42.76336" lon="1.36179">
        <ele>1290.7998</ele>
        <time>2025-09-13T15:11:55+02:00</time>
      </trkpt>
      <trkpt lat="42.76336" lon="1.36179">
        <ele>1290.7998</ele>
        <time>2025-09-13T15:11:56+02:00</time>
      </trkpt>
      <trkpt lat="42.76336" lon="1.36179">
        <ele>1290.7998</ele>
        <time>2025-09-13T15:12:00+02:00</time>
      </trkpt>
      <trkpt lat="42.76336" lon="1.36179">
        <ele>1290.7998</ele>
        <time>2025-09-13T15:12:01+02:00</time>
      </trkpt>
      <trkpt lat="42.76336" lon="1.36179">
        <ele>1290.7998</ele>
        <time>2025-09-13T15:12:05+02:00</time>
      </trkpt>
      <trkpt lat="42.76336" lon="1.36179">
        <ele>1290.7998</ele>
        <time>2025-09-13T15:12:06+02:00</time>
      </trkpt>
      <trkpt lat="42.76336" lon="1.36179">
        <ele>1290.7998</ele>
        <time>2025-09-13T15:12:10+02:00</time>
      </trkpt>
      <trkpt lat="42.76336" lon="1.36179">
        <ele>1290.7998</ele>
        <time>2025-09-13T15:12:11+02:00</time>
      </trkpt>
      <trkpt lat="42.76336" lon="1.36179">
        <ele>1290.7998</ele>
        <time>2025-09-13T15:12:15+02:00</time>
      </trkpt>
      <trkpt lat="42.76336" lon="1.36179">
        <ele>1290.7998</ele>
        <time>2025-09-13T15:12:16+02:00</time>
      </trkpt>
      <trkpt lat="42.76336" lon="1.36179">
        <ele>1290.7998</ele>
        <time>2025-09-13T15:12:20+02:00</time>
      </trkpt>
      <trkpt lat="42.76336" lon="1.36179">
        <ele>1290.7998</ele>
        <time>2025-09-13T15:12:21+02:00</time>
      </trkpt>
      <trkpt lat="42.76336" lon="1.36179">
        <ele>1290.7998</ele>
        <time>2025-09-13T15:12:25+02:00</time>
      </trkpt>
      <trkpt lat="42.76336" lon="1.36179">
        <ele>1290.7998</ele>
        <time>2025-09-13T15:12:26+02:00</time>
      </trkpt>
      <trkpt lat="42.76336" lon="1.36179">
        <ele>1290.7998</ele>
        <time>2025-09-13T15:12:30+02:00</time>
      </trkpt>
      <trkpt lat="42.76336" lon="1.36179">
        <ele>1290.7998</ele>
        <time>2025-09-13T15:12:31+02:00</time>
      </trkpt>
      <trkpt lat="42.76336" lon="1.36179">
        <ele>1290.7998</ele>
        <time>2025-09-13T15:12:35+02:00</time>
      </trkpt>
      <trkpt lat="42.76336" lon="1.36179">
        <ele>1290.7998</ele>
        <time>2025-09-13T15:12:36+02:00</time>
      </trkpt>
      <trkpt lat="42.76336" lon="1.36179">
        <ele>1290.7998</ele>
        <time>2025-09-13T15:12:40+02:00</time>
      </trkpt>
      <trkpt lat="42.76336" lon="1.36179">
        <ele>1290.7998</ele>
        <time>2025-09-13T15:12:41+02:00</time>
      </trkpt>
      <trkpt lat="42.76336" lon="1.36179">
        <ele>1290.7998</ele>
        <time>2025-09-13T15:12:45+02:00</time>
      </trkpt>
      <trkpt lat="42.76336" lon="1.36179">
        <ele>1290.7998</ele>
        <time>2025-09-13T15:12:46+02:00</time>
      </trkpt>
      <trkpt lat="42.76336" lon="1.36179">
        <ele>1290.7998</ele>
        <time>2025-09-13T15:12:50+02:00</time>
      </trkpt>
      <trkpt lat="42.76336" lon="1.36179">
        <ele>1290.7998</ele>
        <time>2025-09-13T15:12:51+02:00</time>
      </trkpt>
      <trkpt lat="42.76336" lon="1.36179">
        <ele>1290.7998</ele>
        <time>2025-09-13T15:12:55+02:00</time>
      </trkpt>
      <trkpt lat="42.76336" lon="1.36179">
        <ele>1290.7998</ele>
        <time>2025-09-13T15:12:56+02:00</time>
      </trkpt>
      <trkpt lat="42.76336" lon="1.36179">
        <ele>1290.7998</ele>
        <time>2025-09-13T15:13:00+02:00</time>
      </trkpt>
      <trkpt lat="42.76336" lon="1.36179">
        <ele>1290.7998</ele>
        <time>2025-09-13T15:13:01+02:00</time>
      </trkpt>
      <trkpt lat="42.76336" lon="1.36179">
        <ele>1290.7998</ele>
        <time>2025-09-13T15:13:05+02:00</time>
      </trkpt>
      <trkpt lat="42.76336" lon="1.36179">
        <ele>1290.7998</ele>
        <time>2025-09-13T15:13:06+02:00</time>
      </trkpt>
      <trkpt lat="42.76336" lon="1.36179">
        <ele>1290.7998</ele>
        <time>2025-09-13T15:13:10+02:00</time>
      </trkpt>
      <trkpt lat="42.76336" lon="1.36179">
        <ele>1290.7998</ele>
        <time>2025-09-13T15:13:11+02:00</time>
      </trkpt>
      <trkpt lat="42.76336" lon="1.36179">
        <ele>1290.7998</ele>
        <time>2025-09-13T15:13:15+02:00</time>
      </trkpt>
      <trkpt lat="42.76336" lon="1.36179">
        <ele>1290.7998</ele>
        <time>2025-09-13T15:13:16+02:00</time>
      </trkpt>
      <trkpt lat="42.76336" lon="1.36179">
        <ele>1290.7998</ele>
        <time>2025-09-13T15:13:20+02:00</time>
      </trkpt>
      <trkpt lat="42.76336" lon="1.36179">
        <ele>1290.7998</ele>
        <time>2025-09-13T15:13:21+02:00</time>
      </trkpt>
      <trkpt lat="42.76336" lon="1.36179">
        <ele>1290.7998</ele>
        <time>2025-09-13T15:13:25+02:00</time>
      </trkpt>
      <trkpt lat="42.76336" lon="1.36179">
        <ele>1290.7998</ele>
        <time>2025-09-13T15:13:26+02:00</time>
      </trkpt>
      <trkpt lat="42.76336" lon="1.36179">
        <ele>1290.7998</ele>
        <time>2025-09-13T15:13:30+02:00</time>
      </trkpt>
      <trkpt lat="42.76336" lon="1.36179">
        <ele>1290.7998</ele>
        <time>2025-09-13T15:13:31+02:00</time>
      </trkpt>
      <trkpt lat="42.76336" lon="1.36179">
        <ele>1290.7998</ele>
        <time>2025-09-13T15:13:35+02:00</time>
      </trkpt>
      <trkpt lat="42.76336" lon="1.36179">
        <ele>1290.7998</ele>
        <time>2025-09-13T15:13:36+02:00</time>
      </trkpt>
      <trkpt lat="42.76336" lon="1.36179">
        <ele>1290.7998</ele>
        <time>2025-09-13T15:13:40+02:00</time>
      </trkpt>
      <trkpt lat="42.76336" lon="1.36179">
        <ele>1290.7998</ele>
        <time>2025-09-13T15:13:41+02:00</time>
      </trkpt>
      <trkpt lat="42.76336" lon="1.36179">
        <ele>1290.7998</ele>
        <time>2025-09-13T15:13:45+02:00</time>
      </trkpt>
      <trkpt lat="42.76336" lon="1.36179">
        <ele>1290.7998</ele>
        <time>2025-09-13T15:13:46+02:00</time>
      </trkpt>
      <trkpt lat="42.76336" lon="1.36179">
        <ele>1290.7998</ele>
        <time>2025-09-13T15:13:50+02:00</time>
      </trkpt>
      <trkpt lat="42.76336" lon="1.36179">
        <ele>1290.7998</ele>
        <time>2025-09-13T15:13:51+02:00</time>
      </trkpt>
      <trkpt lat="42.76336" lon="1.36179">
        <ele>1290.7998</ele>
        <time>2025-09-13T15:13:55+02:00</time>
      </trkpt>
      <trkpt lat="42.76336" lon="1.36179">
        <ele>1290.7998</ele>
        <time>2025-09-13T15:13:56+02:00</time>
      </trkpt>
      <trkpt lat="42.76336" lon="1.36179">
        <ele>1290.7998</ele>
        <time>2025-09-13T15:14:00+02:00</time>
      </trkpt>
      <trkpt lat="42.76336" lon="1.36179">
        <ele>1290.7998</ele>
        <time>2025-09-13T15:14:01+02:00</time>
      </trkpt>
      <trkpt lat="42.76336" lon="1.36179">
        <ele>1290.7998</ele>
        <time>2025-09-13T15:14:05+02:00</time>
      </trkpt>
      <trkpt lat="42.76336" lon="1.36178">
        <ele>1290.7998</ele>
        <time>2025-09-13T15:14:06+02:00</time>
      </trkpt>
      <trkpt lat="42.76336" lon="1.36178">
        <ele>1290.7998</ele>
        <time>2025-09-13T15:14:10+02:00</time>
      </trkpt>
      <trkpt lat="42.76336" lon="1.36178">
        <ele>1290.7998</ele>
        <time>2025-09-13T15:14:11+02:00</time>
      </trkpt>
      <trkpt lat="42.76336" lon="1.36178">
        <ele>1290.7998</ele>
        <time>2025-09-13T15:14:15+02:00</time>
      </trkpt>
      <trkpt lat="42.76336" lon="1.36178">
        <ele>1290.7998</ele>
        <time>2025-09-13T15:14:16+02:00</time>
      </trkpt>
      <trkpt lat="42.76336" lon="1.36178">
        <ele>1290.7998</ele>
        <time>2025-09-13T15:14:20+02:00</time>
      </trkpt>
      <trkpt lat="42.76336" lon="1.36178">
        <ele>1290.7998</ele>
        <time>2025-09-13T15:14:21+02:00</time>
      </trkpt>
      <trkpt lat="42.76336" lon="1.36178">
        <ele>1290.7998</ele>
        <time>2025-09-13T15:14:25+02:00</time>
      </trkpt>
      <trkpt lat="42.76336" lon="1.36178">
        <ele>1290.7998</ele>
        <time>2025-09-13T15:14:26+02:00</time>
      </trkpt>
      <trkpt lat="42.76336" lon="1.36178">
        <ele>1290.7998</ele>
        <time>2025-09-13T15:14:30+02:00</time>
      </trkpt>
      <trkpt lat="42.76336" lon="1.36178">
        <ele>1290.7998</ele>
        <time>2025-09-13T15:14:31+02:00</time>
      </trkpt>
      <trkpt lat="42.76336" lon="1.36178">
        <ele>1290.7998</ele>
        <time>2025-09-13T15:14:35+02:00</time>
      </trkpt>
      <trkpt lat="42.76336" lon="1.36178">
        <ele>1290.7998</ele>
        <time>2025-09-13T15:14:36+02:00</time>
      </trkpt>
      <trkpt lat="42.76336" lon="1.36178">
        <ele>1290.7998</ele>
        <time>2025-09-13T15:14:40+02:00</time>
      </trkpt>
      <trkpt lat="42.76336" lon="1.36178">
        <ele>1290.7998</ele>
        <time>2025-09-13T15:14:41+02:00</time>
      </trkpt>
      <trkpt lat="42.76336" lon="1.36178">
        <ele>1290.7998</ele>
        <time>2025-09-13T15:14:45+02:00</time>
      </trkpt>
      <trkpt lat="42.76336" lon="1.36178">
        <ele>1290.7998</ele>
        <time>2025-09-13T15:14:46+02:00</time>
      </trkpt>
      <trkpt lat="42.76336" lon="1.36178">
        <ele>1290.7998</ele>
        <time>2025-09-13T15:14:50+02:00</time>
      </trkpt>
      <trkpt lat="42.76336" lon="1.36178">
        <ele>1290.7998</ele>
        <time>2025-09-13T15:14:51+02:00</time>
      </trkpt>
      <trkpt lat="42.76336" lon="1.36178">
        <ele>1290.7998</ele>
        <time>2025-09-13T15:14:55+02:00</time>
      </trkpt>
      <trkpt lat="42.76336" lon="1.36178">
        <ele>1290.7998</ele>
        <time>2025-09-13T15:14:56+02:00</time>
      </trkpt>
      <trkpt lat="42.76336" lon="1.36178">
        <ele>1290.7998</ele>
        <time>2025-09-13T15:15:00+02:00</time>
      </trkpt>
      <trkpt lat="42.76336" lon="1.36178">
        <ele>1290.7998</ele>
        <time>2025-09-13T15:15:01+02:00</time>
      </trkpt>
      <trkpt lat="42.76336" lon="1.36178">
        <ele>1290.7998</ele>
        <time>2025-09-13T15:15:05+02:00</time>
      </trkpt>
      <trkpt lat="42.76336" lon="1.36178">
        <ele>1290.7998</ele>
        <time>2025-09-13T15:15:06+02:00</time>
      </trkpt>
      <trkpt lat="42.76336" lon="1.36178">
        <ele>1290.7998</ele>
        <time>2025-09-13T15:15:10+02:00</time>
      </trkpt>
      <trkpt lat="42.76336" lon="1.36178">
        <ele>1290.7998</ele>
        <time>2025-09-13T15:15:11+02:00</time>
      </trkpt>
      <trkpt lat="42.76336" lon="1.36178">
        <ele>1290.7998</ele>
        <time>2025-09-13T15:15:15+02:00</time>
      </trkpt>
      <trkpt lat="42.76336" lon="1.36178">
        <ele>1290.7998</ele>
        <time>2025-09-13T15:15:16+02:00</time>
      </trkpt>
      <trkpt lat="42.76336" lon="1.36178">
        <ele>1290.7998</ele>
        <time>2025-09-13T15:15:20+02:00</time>
      </trkpt>
      <trkpt lat="42.76336" lon="1.36178">
        <ele>1290.7998</ele>
        <time>2025-09-13T15:15:21+02:00</time>
      </trkpt>
      <trkpt lat="42.76336" lon="1.36178">
        <ele>1290.7998</ele>
        <time>2025-09-13T15:15:25+02:00</time>
      </trkpt>
      <trkpt lat="42.76336" lon="1.36178">
        <ele>1290.7998</ele>
        <time>2025-09-13T15:15:26+02:00</time>
      </trkpt>
      <trkpt lat="42.76336" lon="1.36178">
        <ele>1290.7998</ele>
        <time>2025-09-13T15:15:30+02:00</time>
      </trkpt>
      <trkpt lat="42.76336" lon="1.36178">
        <ele>1290.7998</ele>
        <time>2025-09-13T15:15:31+02:00</time>
      </trkpt>
      <trkpt lat="42.76336" lon="1.36178">
        <ele>1290.7998</ele>
        <time>2025-09-13T15:15:35+02:00</time>
      </trkpt>
      <trkpt lat="42.76336" lon="1.36178">
        <ele>1290.7998</ele>
        <time>2025-09-13T15:15:36+02:00</time>
      </trkpt>
      <trkpt lat="42.76336" lon="1.36178">
        <ele>1290.7998</ele>
        <time>2025-09-13T15:15:40+02:00</time>
      </trkpt>
      <trkpt lat="42.76336" lon="1.36178">
        <ele>1290.7998</ele>
        <time>2025-09-13T15:15:41+02:00</time>
      </trkpt>
      <trkpt lat="42.76336" lon="1.36178">
        <ele>1290.7998</ele>
        <time>2025-09-13T15:15:45+02:00</time>
      </trkpt>
      <trkpt lat="42.76336" lon="1.36178">
        <ele>1290.7998</ele>
        <time>2025-09-13T15:15:46+02:00</time>
      </trkpt>
      <trkpt lat="42.76336" lon="1.36178">
        <ele>1290.7998</ele>
        <time>2025-09-13T15:15:50+02:00</time>
      </trkpt>
      <trkpt lat="42.76336" lon="1.36178">
        <ele>1290.7998</ele>
        <time>2025-09-13T15:15:51+02:00</time>
      </trkpt>
      <trkpt lat="42.76336" lon="1.36178">
        <ele>1290.7998</ele>
        <time>2025-09-13T15:15:55+02:00</time>
      </trkpt>
      <trkpt lat="42.76335" lon="1.36178">
        <ele>1290.7998</ele>
        <time>2025-09-13T15:15:56+02:00</time>
      </trkpt>
      <trkpt lat="42.76334" lon="1.36178">
        <ele>1290.7998</ele>
        <time>2025-09-13T15:16:00+02:00</time>
      </trkpt>
      <trkpt lat="42.76334" lon="1.36177">
        <ele>1290.7998</ele>
        <time>2025-09-13T15:16:01+02:00</time>
      </trkpt>
      <trkpt lat="42.76334" lon="1.36177">
        <ele>1290.7998</ele>
        <time>2025-09-13T15:16:05+02:00</time>
      </trkpt>
      <trkpt lat="42.76334" lon="1.36177">
        <ele>1290.7998</ele>
        <time>2025-09-13T15:16:06+02:00</time>
      </trkpt>
      <trkpt lat="42.76334" lon="1.36177">
        <ele>1290.7998</ele>
        <time>2025-09-13T15:16:10+02:00</time>
      </trkpt>
      <trkpt lat="42.76334" lon="1.36177">
        <ele>1290.7998</ele>
        <time>2025-09-13T15:16:11+02:00</time>
      </trkpt>
      <trkpt lat="42.76334" lon="1.36177">
        <ele>1290.7998</ele>
        <time>2025-09-13T15:16:15+02:00</time>
      </trkpt>
      <trkpt lat="42.76334" lon="1.36177">
        <ele>1290.7998</ele>
        <time>2025-09-13T15:16:16+02:00</time>
      </trkpt>
      <trkpt lat="42.76334" lon="1.36177">
        <ele>1290.7998</ele>
        <time>2025-09-13T15:16:20+02:00</time>
      </trkpt>
      <trkpt lat="42.76334" lon="1.36177">
        <ele>1290.7998</ele>
        <time>2025-09-13T15:16:21+02:00</time>
      </trkpt>
      <trkpt lat="42.76334" lon="1.36178">
        <ele>1290.7998</ele>
        <time>2025-09-13T15:16:25+02:00</time>
      </trkpt>
      <trkpt lat="42.76334" lon="1.36178">
        <ele>1290.7998</ele>
        <time>2025-09-13T15:16:26+02:00</time>
      </trkpt>
      <trkpt lat="42.76333" lon="1.36177">
        <ele>1294.5</ele>
        <time>2025-09-13T15:16:30+02:00</time>
      </trkpt>
      <trkpt lat="42.76333" lon="1.36178">
        <ele>1294.5</ele>
        <time>2025-09-13T15:16:31+02:00</time>
      </trkpt>
      <trkpt lat="42.76334" lon="1.36178">
        <ele>1290.7998</ele>
        <time>2025-09-13T15:16:35+02:00</time>
      </trkpt>
      <trkpt lat="42.76334" lon="1.36178">
        <ele>1290.7998</ele>
        <time>2025-09-13T15:16:36+02:00</time>
      </trkpt>
      <trkpt lat="42.76333" lon="1.36178">
        <ele>1294.5</ele>
        <time>2025-09-13T15:16:40+02:00</time>
      </trkpt>
      <trkpt lat="42.76333" lon="1.36177">
        <ele>1294.5</ele>
        <time>2025-09-13T15:16:41+02:00</time>
      </trkpt>
      <trkpt lat="42.76333" lon="1.36177">
        <ele>1294.5</ele>
        <time>2025-09-13T15:16:45+02:00</time>
      </trkpt>
      <trkpt lat="42.76333" lon="1.36177">
        <ele>1294.5</ele>
        <time>2025-09-13T15:16:46+02:00</time>
      </trkpt>
      <trkpt lat="42.76333" lon="1.36177">
        <ele>1294.5</ele>
        <time>2025-09-13T15:16:50+02:00</time>
      </trkpt>
      <trkpt lat="42.76333" lon="1.36177">
        <ele>1294.5</ele>
        <time>2025-09-13T15:16:51+02:00</time>
      </trkpt>
      <trkpt lat="42.76333" lon="1.36177">
        <ele>1294.5</ele>
        <time>2025-09-13T15:16:55+02:00</time>
      </trkpt>
      <trkpt lat="42.76333" lon="1.36177">
        <ele>1294.5</ele>
        <time>2025-09-13T15:16:56+02:00</time>
      </trkpt>
      <trkpt lat="42.76333" lon="1.36177">
        <ele>1294.5</ele>
        <time>2025-09-13T15:17:00+02:00</time>
      </trkpt>
      <trkpt lat="42.76333" lon="1.36177">
        <ele>1294.5</ele>
        <time>2025-09-13T15:17:01+02:00</time>
      </trkpt>
      <trkpt lat="42.76333" lon="1.36177">
        <ele>1294.5</ele>
        <time>2025-09-13T15:17:05+02:00</time>
      </trkpt>
      <trkpt lat="42.76333" lon="1.36177">
        <ele>1294.5</ele>
        <time>2025-09-13T15:17:06+02:00</time>
      </trkpt>
      <trkpt lat="42.76333" lon="1.36177">
        <ele>1294.5</ele>
        <time>2025-09-13T15:17:10+02:00</time>
      </trkpt>
      <trkpt lat="42.76333" lon="1.36177">
        <ele>1294.5</ele>
        <time>2025-09-13T15:17:11+02:00</time>
      </trkpt>
      <trkpt lat="42.76333" lon="1.36177">
        <ele>1294.5</ele>
        <time>2025-09-13T15:17:15+02:00</time>
      </trkpt>
      <trkpt lat="42.76333" lon="1.36177">
        <ele>1294.5</ele>
        <time>2025-09-13T15:17:16+02:00</time>
      </trkpt>
      <trkpt lat="42.76333" lon="1.36177">
        <ele>1294.5</ele>
        <time>2025-09-13T15:17:20+02:00</time>
      </trkpt>
      <trkpt lat="42.76333" lon="1.36177">
        <ele>1294.5</ele>
        <time>2025-09-13T15:17:21+02:00</time>
      </trkpt>
      <trkpt lat="42.76333" lon="1.36176">
        <ele>1294.5</ele>
        <time>2025-09-13T15:17:25+02:00</time>
      </trkpt>
      <trkpt lat="42.76333" lon="1.36176">
        <ele>1294.5</ele>
        <time>2025-09-13T15:17:26+02:00</time>
      </trkpt>
      <trkpt lat="42.76333" lon="1.36176">
        <ele>1294.5</ele>
        <time>2025-09-13T15:17:30+02:00</time>
      </trkpt>
      <trkpt lat="42.76333" lon="1.36176">
        <ele>1294.5</ele>
        <time>2025-09-13T15:17:31+02:00</time>
      </trkpt>
      <trkpt lat="42.76333" lon="1.36176">
        <ele>1294.5</ele>
        <time>2025-09-13T15:17:35+02:00</time>
      </trkpt>
      <trkpt lat="42.76333" lon="1.36176">
        <ele>1294.5</ele>
        <time>2025-09-13T15:17:36+02:00</time>
      </trkpt>
      <trkpt lat="42.76333" lon="1.36176">
        <ele>1294.5</ele>
        <time>2025-09-13T15:17:40+02:00</time>
      </trkpt>
      <trkpt lat="42.76333" lon="1.36176">
        <ele>1294.5</ele>
        <time>2025-09-13T15:17:41+02:00</time>
      </trkpt>
      <trkpt lat="42.76333" lon="1.36176">
        <ele>1294.5</ele>
        <time>2025-09-13T15:17:45+02:00</time>
      </trkpt>
      <trkpt lat="42.76333" lon="1.36176">
        <ele>1294.5</ele>
        <time>2025-09-13T15:17:46+02:00</time>
      </trkpt>
      <trkpt lat="42.76333" lon="1.36176">
        <ele>1294.5</ele>
        <time>2025-09-13T15:17:50+02:00</time>
      </trkpt>
      <trkpt lat="42.76333" lon="1.36176">
        <ele>1294.5</ele>
        <time>2025-09-13T15:17:51+02:00</time>
      </trkpt>
      <trkpt lat="42.76333" lon="1.36176">
        <ele>1294.5</ele>
        <time>2025-09-13T15:17:55+02:00</time>
      </trkpt>
      <trkpt lat="42.76333" lon="1.36176">
        <ele>1294.5</ele>
        <time>2025-09-13T15:17:56+02:00</time>
      </trkpt>
      <trkpt lat="42.76333" lon="1.36176">
        <ele>1294.5</ele>
        <time>2025-09-13T15:18:00+02:00</time>
      </trkpt>
      <trkpt lat="42.76333" lon="1.36176">
        <ele>1294.5</ele>
        <time>2025-09-13T15:18:01+02:00</time>
      </trkpt>
      <trkpt lat="42.76333" lon="1.36176">
        <ele>1294.5</ele>
        <time>2025-09-13T15:18:05+02:00</time>
      </trkpt>
      <trkpt lat="42.76333" lon="1.36176">
        <ele>1294.5</ele>
        <time>2025-09-13T15:18:06+02:00</time>
      </trkpt>
      <trkpt lat="42.76333" lon="1.36176">
        <ele>1294.5</ele>
        <time>2025-09-13T15:18:10+02:00</time>
      </trkpt>
      <trkpt lat="42.76333" lon="1.36176">
        <ele>1294.5</ele>
        <time>2025-09-13T15:18:11+02:00</time>
      </trkpt>
      <trkpt lat="42.76333" lon="1.36176">
        <ele>1294.5</ele>
        <time>2025-09-13T15:18:15+02:00</time>
      </trkpt>
      <trkpt lat="42.76333" lon="1.36176">
        <ele>1294.5</ele>
        <time>2025-09-13T15:18:16+02:00</time>
      </trkpt>
      <trkpt lat="42.76333" lon="1.36176">
        <ele>1294.5</ele>
        <time>2025-09-13T15:18:20+02:00</time>
      </trkpt>
      <trkpt lat="42.76333" lon="1.36176">
        <ele>1294.5</ele>
        <time>2025-09-13T15:18:21+02:00</time>
      </trkpt>
      <trkpt lat="42.76333" lon="1.36176">
        <ele>1294.5</ele>
        <time>2025-09-13T15:18:25+02:00</time>
      </trkpt>
      <trkpt lat="42.76333" lon="1.36176">
        <ele>1294.5</ele>
        <time>2025-09-13T15:18:26+02:00</time>
      </trkpt>
      <trkpt lat="42.76333" lon="1.36176">
        <ele>1294.5</ele>
        <time>2025-09-13T15:18:30+02:00</time>
      </trkpt>
      <trkpt lat="42.76333" lon="1.36176">
        <ele>1294.5</ele>
        <time>2025-09-13T15:18:31+02:00</time>
      </trkpt>
      <trkpt lat="42.76333" lon="1.36176">
        <ele>1294.5</ele>
        <time>2025-09-13T15:18:35+02:00</time>
      </trkpt>
      <trkpt lat="42.76333" lon="1.36176">
        <ele>1294.5</ele>
        <time>2025-09-13T15:18:36+02:00</time>
      </trkpt>
      <trkpt lat="42.76333" lon="1.36176">
        <ele>1294.5</ele>
        <time>2025-09-13T15:18:40+02:00</time>
      </trkpt>
      <trkpt lat="42.76333" lon="1.36176">
        <ele>1294.5</ele>
        <time>2025-09-13T15:18:41+02:00</time>
      </trkpt>
      <trkpt lat="42.76333" lon="1.36176">
        <ele>1294.5</ele>
        <time>2025-09-13T15:18:45+02:00</time>
      </trkpt>
      <trkpt lat="42.76333" lon="1.36176">
        <ele>1294.5</ele>
        <time>2025-09-13T15:18:46+02:00</time>
      </trkpt>
      <trkpt lat="42.76333" lon="1.36176">
        <ele>1294.5</ele>
        <time>2025-09-13T15:18:50+02:00</time>
      </trkpt>
      <trkpt lat="42.76333" lon="1.36176">
        <ele>1294.5</ele>
        <time>2025-09-13T15:18:51+02:00</time>
      </trkpt>
      <trkpt lat="42.76333" lon="1.36176">
        <ele>1294.5</ele>
        <time>2025-09-13T15:18:55+02:00</time>
      </trkpt>
      <trkpt lat="42.76333" lon="1.36176">
        <ele>1294.5</ele>
        <time>2025-09-13T15:18:56+02:00</time>
      </trkpt>
      <trkpt lat="42.76333" lon="1.36176">
        <ele>1294.5</ele>
        <time>2025-09-13T15:19:00+02:00</time>
      </trkpt>
      <trkpt lat="42.76333" lon="1.36176">
        <ele>1294.5</ele>
        <time>2025-09-13T15:19:01+02:00</time>
      </trkpt>
      <trkpt lat="42.76333" lon="1.36176">
        <ele>1294.5</ele>
        <time>2025-09-13T15:19:05+02:00</time>
      </trkpt>
      <trkpt lat="42.76333" lon="1.36176">
        <ele>1294.5</ele>
        <time>2025-09-13T15:19:06+02:00</time>
      </trkpt>
      <trkpt lat="42.76333" lon="1.36176">
        <ele>1294.5</ele>
        <time>2025-09-13T15:19:10+02:00</time>
      </trkpt>
      <trkpt lat="42.76333" lon="1.36176">
        <ele>1294.5</ele>
        <time>2025-09-13T15:19:11+02:00</time>
      </trkpt>
      <trkpt lat="42.76333" lon="1.36176">
        <ele>1294.5</ele>
        <time>2025-09-13T15:19:15+02:00</time>
      </trkpt>
      <trkpt lat="42.76333" lon="1.36176">
        <ele>1294.5</ele>
        <time>2025-09-13T15:19:16+02:00</time>
      </trkpt>
      <trkpt lat="42.76333" lon="1.36176">
        <ele>1294.5</ele>
        <time>2025-09-13T15:19:20+02:00</time>
      </trkpt>
      <trkpt lat="42.76333" lon="1.36176">
        <ele>1294.5</ele>
        <time>2025-09-13T15:19:21+02:00</time>
      </trkpt>
      <trkpt lat="42.76333" lon="1.36176">
        <ele>1294.5</ele>
        <time>2025-09-13T15:19:25+02:00</time>
      </trkpt>
      <trkpt lat="42.76333" lon="1.36176">
        <ele>1294.5</ele>
        <time>2025-09-13T15:19:26+02:00</time>
      </trkpt>
      <trkpt lat="42.76333" lon="1.36176">
        <ele>1294.5</ele>
        <time>2025-09-13T15:19:30+02:00</time>
      </trkpt>
      <trkpt lat="42.76333" lon="1.36176">
        <ele>1294.5</ele>
        <time>2025-09-13T15:19:31+02:00</time>
      </trkpt>
      <trkpt lat="42.76333" lon="1.36176">
        <ele>1294.5</ele>
        <time>2025-09-13T15:19:35+02:00</time>
      </trkpt>
      <trkpt lat="42.76333" lon="1.36176">
        <ele>1294.5</ele>
        <time>2025-09-13T15:19:36+02:00</time>
      </trkpt>
      <trkpt lat="42.76333" lon="1.36176">
        <ele>1294.5</ele>
        <time>2025-09-13T15:19:40+02:00</time>
      </trkpt>
      <trkpt lat="42.76333" lon="1.36176">
        <ele>1294.5</ele>
        <time>2025-09-13T15:19:41+02:00</time>
      </trkpt>
      <trkpt lat="42.76333" lon="1.36176">
        <ele>1294.5</ele>
        <time>2025-09-13T15:19:45+02:00</time>
      </trkpt>
      <trkpt lat="42.76333" lon="1.36176">
        <ele>1294.5</ele>
        <time>2025-09-13T15:19:46+02:00</time>
      </trkpt>
      <trkpt lat="42.76333" lon="1.36176">
        <ele>1294.5</ele>
        <time>2025-09-13T15:19:50+02:00</time>
      </trkpt>
      <trkpt lat="42.76333" lon="1.36176">
        <ele>1294.5</ele>
        <time>2025-09-13T15:19:51+02:00</time>
      </trkpt>
      <trkpt lat="42.76333" lon="1.36176">
        <ele>1294.5</ele>
        <time>2025-09-13T15:19:55+02:00</time>
      </trkpt>
      <trkpt lat="42.76333" lon="1.36176">
        <ele>1294.5</ele>
        <time>2025-09-13T15:19:56+02:00</time>
      </trkpt>
      <trkpt lat="42.76333" lon="1.36176">
        <ele>1294.5</ele>
        <time>2025-09-13T15:20:00+02:00</time>
      </trkpt>
      <trkpt lat="42.76333" lon="1.36176">
        <ele>1294.5</ele>
        <time>2025-09-13T15:20:01+02:00</time>
      </trkpt>
      <trkpt lat="42.76333" lon="1.36176">
        <ele>1294.5</ele>
        <time>2025-09-13T15:20:05+02:00</time>
      </trkpt>
      <trkpt lat="42.76333" lon="1.36176">
        <ele>1294.5</ele>
        <time>2025-09-13T15:20:06+02:00</time>
      </trkpt>
      <trkpt lat="42.76333" lon="1.36176">
        <ele>1294.5</ele>
        <time>2025-09-13T15:20:10+02:00</time>
      </trkpt>
      <trkpt lat="42.76333" lon="1.36176">
        <ele>1294.5</ele>
        <time>2025-09-13T15:20:11+02:00</time>
      </trkpt>
      <trkpt lat="42.76333" lon="1.36176">
        <ele>1294.5</ele>
        <time>2025-09-13T15:20:15+02:00</time>
      </trkpt>
      <trkpt lat="42.76333" lon="1.36176">
        <ele>1294.5</ele>
        <time>2025-09-13T15:20:16+02:00</time>
      </trkpt>
      <trkpt lat="42.76333" lon="1.36176">
        <ele>1294.5</ele>
        <time>2025-09-13T15:20:20+02:00</time>
      </trkpt>
      <trkpt lat="42.76333" lon="1.36176">
        <ele>1294.5</ele>
        <time>2025-09-13T15:20:21+02:00</time>
      </trkpt>
      <trkpt lat="42.76333" lon="1.36176">
        <ele>1294.5</ele>
        <time>2025-09-13T15:20:25+02:00</time>
      </trkpt>
      <trkpt lat="42.76333" lon="1.36176">
        <ele>1294.5</ele>
        <time>2025-09-13T15:20:26+02:00</time>
      </trkpt>
      <trkpt lat="42.76333" lon="1.36176">
        <ele>1294.5</ele>
        <time>2025-09-13T15:20:30+02:00</time>
      </trkpt>
      <trkpt lat="42.76334" lon="1.36176">
        <ele>1290.7998</ele>
        <time>2025-09-13T15:20:31+02:00</time>
      </trkpt>
      <trkpt lat="42.76334" lon="1.36176">
        <ele>1290.7998</ele>
        <time>2025-09-13T15:20:35+02:00</time>
      </trkpt>
      <trkpt lat="42.76334" lon="1.36176">
        <ele>1290.7998</ele>
        <time>2025-09-13T15:20:36+02:00</time>
      </trkpt>
      <trkpt lat="42.76334" lon="1.36176">
        <ele>1290.7998</ele>
        <time>2025-09-13T15:20:40+02:00</time>
      </trkpt>
      <trkpt lat="42.76334" lon="1.36176">
        <ele>1290.7998</ele>
        <time>2025-09-13T15:20:41+02:00</time>
      </trkpt>
      <trkpt lat="42.76334" lon="1.36176">
        <ele>1290.7998</ele>
        <time>2025-09-13T15:20:45+02:00</time>
      </trkpt>
      <trkpt lat="42.76334" lon="1.36176">
        <ele>1290.7998</ele>
        <time>2025-09-13T15:20:46+02:00</time>
      </trkpt>
      <trkpt lat="42.76334" lon="1.36175">
        <ele>1290.7998</ele>
        <time>2025-09-13T15:20:50+02:00</time>
      </trkpt>
      <trkpt lat="42.76334" lon="1.36175">
        <ele>1290.7998</ele>
        <time>2025-09-13T15:20:51+02:00</time>
      </trkpt>
      <trkpt lat="42.76334" lon="1.36175">
        <ele>1290.7998</ele>
        <time>2025-09-13T15:20:55+02:00</time>
      </trkpt>
      <trkpt lat="42.76334" lon="1.36175">
        <ele>1290.7998</ele>
        <time>2025-09-13T15:20:56+02:00</time>
      </trkpt>
      <trkpt lat="42.76333" lon="1.36175">
        <ele>1294.5</ele>
        <time>2025-09-13T15:21:00+02:00</time>
      </trkpt>
      <trkpt lat="42.76333" lon="1.36175">
        <ele>1294.5</ele>
        <time>2025-09-13T15:21:01+02:00</time>
      </trkpt>
      <trkpt lat="42.76333" lon="1.36175">
        <ele>1294.5</ele>
        <time>2025-09-13T15:21:05+02:00</time>
      </trkpt>
      <trkpt lat="42.76333" lon="1.36175">
        <ele>1294.5</ele>
        <time>2025-09-13T15:21:06+02:00</time>
      </trkpt>
      <trkpt lat="42.76333" lon="1.36175">
        <ele>1294.5</ele>
        <time>2025-09-13T15:21:10+02:00</time>
      </trkpt>
      <trkpt lat="42.76333" lon="1.36175">
        <ele>1294.5</ele>
        <time>2025-09-13T15:21:11+02:00</time>
      </trkpt>
      <trkpt lat="42.76333" lon="1.36175">
        <ele>1294.5</ele>
        <time>2025-09-13T15:21:15+02:00</time>
      </trkpt>
      <trkpt lat="42.76333" lon="1.36175">
        <ele>1294.5</ele>
        <time>2025-09-13T15:21:16+02:00</time>
      </trkpt>
      <trkpt lat="42.76334" lon="1.36175">
        <ele>1290.7998</ele>
        <time>2025-09-13T15:21:20+02:00</time>
      </trkpt>
      <trkpt lat="42.76334" lon="1.36175">
        <ele>1290.7998</ele>
        <time>2025-09-13T15:21:21+02:00</time>
      </trkpt>
      <trkpt lat="42.76334" lon="1.36173">
        <ele>1290.7998</ele>
        <time>2025-09-13T15:21:25+02:00</time>
      </trkpt>
      <trkpt lat="42.76334" lon="1.36173">
        <ele>1290.7998</ele>
        <time>2025-09-13T15:21:26+02:00</time>
      </trkpt>
      <trkpt lat="42.76333" lon="1.36171">
        <ele>1294.5</ele>
        <time>2025-09-13T15:21:30+02:00</time>
      </trkpt>
      <trkpt lat="42.76333" lon="1.36171">
        <ele>1294.5</ele>
        <time>2025-09-13T15:21:31+02:00</time>
      </trkpt>
      <trkpt lat="42.76332" lon="1.3617">
        <ele>1293.9004</ele>
        <time>2025-09-13T15:21:35+02:00</time>
      </trkpt>
      <trkpt lat="42.76332" lon="1.3617">
        <ele>1293.9004</ele>
        <time>2025-09-13T15:21:36+02:00</time>
      </trkpt>
      <trkpt lat="42.76332" lon="1.3617">
        <ele>1293.9004</ele>
        <time>2025-09-13T15:21:40+02:00</time>
      </trkpt>
      <trkpt lat="42.76332" lon="1.3617">
        <ele>1293.9004</ele>
        <time>2025-09-13T15:21:41+02:00</time>
      </trkpt>
      <trkpt lat="42.76332" lon="1.3617">
        <ele>1293.9004</ele>
        <time>2025-09-13T15:21:45+02:00</time>
      </trkpt>
      <trkpt lat="42.76332" lon="1.3617">
        <ele>1293.9004</ele>
        <time>2025-09-13T15:21:46+02:00</time>
      </trkpt>
      <trkpt lat="42.76332" lon="1.3617">
        <ele>1293.9004</ele>
        <time>2025-09-13T15:21:50+02:00</time>
      </trkpt>
      <trkpt lat="42.76332" lon="1.3617">
        <ele>1293.9004</ele>
        <time>2025-09-13T15:21:51+02:00</time>
      </trkpt>
      <trkpt lat="42.76332" lon="1.3617">
        <ele>1293.9004</ele>
        <time>2025-09-13T15:21:55+02:00</time>
      </trkpt>
      <trkpt lat="42.76332" lon="1.3617">
        <ele>1293.9004</ele>
        <time>2025-09-13T15:21:56+02:00</time>
      </trkpt>
      <trkpt lat="42.76332" lon="1.3617">
        <ele>1293.9004</ele>
        <time>2025-09-13T15:22:00+02:00</time>
      </trkpt>
      <trkpt lat="42.76332" lon="1.3617">
        <ele>1293.9004</ele>
        <time>2025-09-13T15:22:01+02:00</time>
      </trkpt>
      <trkpt lat="42.76332" lon="1.3617">
        <ele>1293.9004</ele>
        <time>2025-09-13T15:22:05+02:00</time>
      </trkpt>
      <trkpt lat="42.76332" lon="1.3617">
        <ele>1293.9004</ele>
        <time>2025-09-13T15:22:06+02:00</time>
      </trkpt>
      <trkpt lat="42.76332" lon="1.3617">
        <ele>1293.9004</ele>
        <time>2025-09-13T15:22:10+02:00</time>
      </trkpt>
      <trkpt lat="42.76332" lon="1.3617">
        <ele>1293.9004</ele>
        <time>2025-09-13T15:22:11+02:00</time>
      </trkpt>
      <trkpt lat="42.76332" lon="1.3617">
        <ele>1293.9004</ele>
        <time>2025-09-13T15:22:15+02:00</time>
      </trkpt>
      <trkpt lat="42.76332" lon="1.3617">
        <ele>1293.9004</ele>
        <time>2025-09-13T15:22:16+02:00</time>
      </trkpt>
      <trkpt lat="42.76332" lon="1.3617">
        <ele>1293.9004</ele>
        <time>2025-09-13T15:22:20+02:00</time>
      </trkpt>
      <trkpt lat="42.76332" lon="1.3617">
        <ele>1293.9004</ele>
        <time>2025-09-13T15:22:21+02:00</time>
      </trkpt>
      <trkpt lat="42.76332" lon="1.3617">
        <ele>1293.9004</ele>
        <time>2025-09-13T15:22:25+02:00</time>
      </trkpt>
      <trkpt lat="42.76332" lon="1.3617">
        <ele>1293.9004</ele>
        <time>2025-09-13T15:22:26+02:00</time>
      </trkpt>
      <trkpt lat="42.76332" lon="1.3617">
        <ele>1293.9004</ele>
        <time>2025-09-13T15:22:30+02:00</time>
      </trkpt>
      <trkpt lat="42.76332" lon="1.3617">
        <ele>1293.9004</ele>
        <time>2025-09-13T15:22:31+02:00</time>
      </trkpt>
      <trkpt lat="42.76332" lon="1.3617">
        <ele>1293.9004</ele>
        <time>2025-09-13T15:22:35+02:00</time>
      </trkpt>
      <trkpt lat="42.76332" lon="1.3617">
        <ele>1293.9004</ele>
        <time>2025-09-13T15:22:36+02:00</time>
      </trkpt>
      <trkpt lat="42.76332" lon="1.3617">
        <ele>1293.9004</ele>
        <time>2025-09-13T15:22:40+02:00</time>
      </trkpt>
      <trkpt lat="42.76332" lon="1.3617">
        <ele>1293.9004</ele>
        <time>2025-09-13T15:22:41+02:00</time>
      </trkpt>
      <trkpt lat="42.76332" lon="1.3617">
        <ele>1293.9004</ele>
        <time>2025-09-13T15:22:45+02:00</time>
      </trkpt>
      <trkpt lat="42.76332" lon="1.3617">
        <ele>1293.9004</ele>
        <time>2025-09-13T15:22:46+02:00</time>
      </trkpt>
      <trkpt lat="42.76332" lon="1.3617">
        <ele>1293.9004</ele>
        <time>2025-09-13T15:22:50+02:00</time>
      </trkpt>
      <trkpt lat="42.76332" lon="1.3617">
        <ele>1293.9004</ele>
        <time>2025-09-13T15:22:51+02:00</time>
      </trkpt>
      <trkpt lat="42.76334" lon="1.36173">
        <ele>1290.7998</ele>
        <time>2025-09-13T15:22:55+02:00</time>
      </trkpt>
      <trkpt lat="42.76335" lon="1.36174">
        <ele>1290.7998</ele>
        <time>2025-09-13T15:22:56+02:00</time>
      </trkpt>
      <trkpt lat="42.76336" lon="1.36177">
        <ele>1290.7998</ele>
        <time>2025-09-13T15:23:00+02:00</time>
      </trkpt>
      <trkpt lat="42.76336" lon="1.36177">
        <ele>1290.7998</ele>
        <time>2025-09-13T15:23:01+02:00</time>
      </trkpt>
      <trkpt lat="42.76337" lon="1.36178">
        <ele>1290.7998</ele>
        <time>2025-09-13T15:23:05+02:00</time>
      </trkpt>
      <trkpt lat="42.76337" lon="1.36178">
        <ele>1290.7998</ele>
        <time>2025-09-13T15:23:06+02:00</time>
      </trkpt>
      <trkpt lat="42.76337" lon="1.36178">
        <ele>1290.7998</ele>
        <time>2025-09-13T15:23:10+02:00</time>
      </trkpt>
      <trkpt lat="42.76337" lon="1.36178">
        <ele>1290.7998</ele>
        <time>2025-09-13T15:23:11+02:00</time>
      </trkpt>
      <trkpt lat="42.76337" lon="1.36178">
        <ele>1290.7998</ele>
        <time>2025-09-13T15:23:15+02:00</time>
      </trkpt>
      <trkpt lat="42.76337" lon="1.36178">
        <ele>1290.7998</ele>
        <time>2025-09-13T15:23:16+02:00</time>
      </trkpt>
      <trkpt lat="42.76337" lon="1.36178">
        <ele>1290.7998</ele>
        <time>2025-09-13T15:23:20+02:00</time>
      </trkpt>
      <trkpt lat="42.76337" lon="1.36178">
        <ele>1290.7998</ele>
        <time>2025-09-13T15:23:21+02:00</time>
      </trkpt>
      <trkpt lat="42.76337" lon="1.36178">
        <ele>1290.7998</ele>
        <time>2025-09-13T15:23:25+02:00</time>
      </trkpt>
      <trkpt lat="42.76337" lon="1.36178">
        <ele>1290.7998</ele>
        <time>2025-09-13T15:23:26+02:00</time>
      </trkpt>
      <trkpt lat="42.76337" lon="1.36178">
        <ele>1290.7998</ele>
        <time>2025-09-13T15:23:30+02:00</time>
      </trkpt>
      <trkpt lat="42.76337" lon="1.36178">
        <ele>1290.7998</ele>
        <time>2025-09-13T15:23:31+02:00</time>
      </trkpt>
      <trkpt lat="42.76337" lon="1.36178">
        <ele>1290.7998</ele>
        <time>2025-09-13T15:23:35+02:00</time>
      </trkpt>
      <trkpt lat="42.76337" lon="1.36178">
        <ele>1290.7998</ele>
        <time>2025-09-13T15:23:36+02:00</time>
      </trkpt>
      <trkpt lat="42.76337" lon="1.36178">
        <ele>1290.7998</ele>
        <time>2025-09-13T15:23:40+02:00</time>
      </trkpt>
      <trkpt lat="42.76337" lon="1.36178">
        <ele>1290.7998</ele>
        <time>2025-09-13T15:23:41+02:00</time>
      </trkpt>
      <trkpt lat="42.76337" lon="1.36178">
        <ele>1290.7998</ele>
        <time>2025-09-13T15:23:45+02:00</time>
      </trkpt>
      <trkpt lat="42.76337" lon="1.36178">
        <ele>1290.7998</ele>
        <time>2025-09-13T15:23:46+02:00</time>
      </trkpt>
      <trkpt lat="42.76337" lon="1.36178">
        <ele>1290.7998</ele>
        <time>2025-09-13T15:23:50+02:00</time>
      </trkpt>
      <trkpt lat="42.76337" lon="1.36178">
        <ele>1290.7998</ele>
        <time>2025-09-13T15:23:51+02:00</time>
      </trkpt>
      <trkpt lat="42.76337" lon="1.36179">
        <ele>1290.7998</ele>
        <time>2025-09-13T15:23:55+02:00</time>
      </trkpt>
      <trkpt lat="42.76337" lon="1.36179">
        <ele>1292.4004</ele>
        <time>2025-09-13T15:23:56+02:00</time>
      </trkpt>
      <trkpt lat="42.76338" lon="1.36179">
        <ele>1292.4004</ele>
        <time>2025-09-13T15:24:00+02:00</time>
      </trkpt>
      <trkpt lat="42.76337" lon="1.36179">
        <ele>1292.4004</ele>
        <time>2025-09-13T15:24:01+02:00</time>
      </trkpt>
      <trkpt lat="42.76338" lon="1.3618">
        <ele>1292.4004</ele>
        <time>2025-09-13T15:24:05+02:00</time>
      </trkpt>
      <trkpt lat="42.76338" lon="1.3618">
        <ele>1292.4004</ele>
        <time>2025-09-13T15:24:06+02:00</time>
      </trkpt>
      <trkpt lat="42.76338" lon="1.3618">
        <ele>1292.4004</ele>
        <time>2025-09-13T15:24:10+02:00</time>
      </trkpt>
      <trkpt lat="42.76338" lon="1.3618">
        <ele>1292.4004</ele>
        <time>2025-09-13T15:24:11+02:00</time>
      </trkpt>
      <trkpt lat="42.76338" lon="1.3618">
        <ele>1292.4004</ele>
        <time>2025-09-13T15:24:15+02:00</time>
      </trkpt>
      <trkpt lat="42.76338" lon="1.3618">
        <ele>1292.4004</ele>
        <time>2025-09-13T15:24:16+02:00</time>
      </trkpt>
      <trkpt lat="42.76338" lon="1.3618">
        <ele>1292.4004</ele>
        <time>2025-09-13T15:24:20+02:00</time>
      </trkpt>
      <trkpt lat="42.76338" lon="1.3618">
        <ele>1292.4004</ele>
        <time>2025-09-13T15:24:21+02:00</time>
      </trkpt>
      <trkpt lat="42.76338" lon="1.3618">
        <ele>1292.4004</ele>
        <time>2025-09-13T15:24:25+02:00</time>
      </trkpt>
      <trkpt lat="42.76338" lon="1.3618">
        <ele>1292.4004</ele>
        <time>2025-09-13T15:24:26+02:00</time>
      </trkpt>
      <trkpt lat="42.76339" lon="1.36182">
        <ele>1292.4004</ele>
        <time>2025-09-13T15:24:30+02:00</time>
      </trkpt>
      <trkpt lat="42.76339" lon="1.36182">
        <ele>1292.4004</ele>
        <time>2025-09-13T15:24:31+02:00</time>
      </trkpt>
      <trkpt lat="42.7634" lon="1.36182">
        <ele>1290</ele>
        <time>2025-09-13T15:24:35+02:00</time>
      </trkpt>
      <trkpt lat="42.76341" lon="1.36182">
        <ele>1290</ele>
        <time>2025-09-13T15:24:36+02:00</time>
      </trkpt>
      <trkpt lat="42.7634" lon="1.36182">
        <ele>1292.4004</ele>
        <time>2025-09-13T15:24:40+02:00</time>
      </trkpt>
      <trkpt lat="42.76339" lon="1.36182">
        <ele>1292.4004</ele>
        <time>2025-09-13T15:24:41+02:00</time>
      </trkpt>
      <trkpt lat="42.76339" lon="1.36182">
        <ele>1292.4004</ele>
        <time>2025-09-13T15:24:45+02:00</time>
      </trkpt>
      <trkpt lat="42.76339" lon="1.36182">
        <ele>1292.4004</ele>
        <time>2025-09-13T15:24:46+02:00</time>
      </trkpt>
      <trkpt lat="42.76339" lon="1.36182">
        <ele>1292.4004</ele>
        <time>2025-09-13T15:24:50+02:00</time>
      </trkpt>
      <trkpt lat="42.76339" lon="1.36182">
        <ele>1292.4004</ele>
        <time>2025-09-13T15:24:51+02:00</time>
      </trkpt>
      <trkpt lat="42.76339" lon="1.36182">
        <ele>1292.4004</ele>
        <time>2025-09-13T15:24:55+02:00</time>
      </trkpt>
      <trkpt lat="42.76339" lon="1.36182">
        <ele>1292.4004</ele>
        <time>2025-09-13T15:24:56+02:00</time>
      </trkpt>
      <trkpt lat="42.76339" lon="1.36182">
        <ele>1292.4004</ele>
        <time>2025-09-13T15:25:00+02:00</time>
      </trkpt>
      <trkpt lat="42.76339" lon="1.36182">
        <ele>1292.4004</ele>
        <time>2025-09-13T15:25:01+02:00</time>
      </trkpt>
      <trkpt lat="42.76339" lon="1.36182">
        <ele>1292.4004</ele>
        <time>2025-09-13T15:25:05+02:00</time>
      </trkpt>
      <trkpt lat="42.76339" lon="1.36182">
        <ele>1292.4004</ele>
        <time>2025-09-13T15:25:06+02:00</time>
      </trkpt>
      <trkpt lat="42.76339" lon="1.36182">
        <ele>1292.4004</ele>
        <time>2025-09-13T15:25:10+02:00</time>
      </trkpt>
      <trkpt lat="42.76339" lon="1.36182">
        <ele>1292.4004</ele>
        <time>2025-09-13T15:25:11+02:00</time>
      </trkpt>
      <trkpt lat="42.76339" lon="1.36182">
        <ele>1292.4004</ele>
        <time>2025-09-13T15:25:15+02:00</time>
      </trkpt>
      <trkpt lat="42.76339" lon="1.36182">
        <ele>1292.4004</ele>
        <time>2025-09-13T15:25:16+02:00</time>
      </trkpt>
      <trkpt lat="42.76339" lon="1.36182">
        <ele>1292.4004</ele>
        <time>2025-09-13T15:25:20+02:00</time>
      </trkpt>
      <trkpt lat="42.76339" lon="1.36182">
        <ele>1292.4004</ele>
        <time>2025-09-13T15:25:21+02:00</time>
      </trkpt>
      <trkpt lat="42.76339" lon="1.36182">
        <ele>1292.4004</ele>
        <time>2025-09-13T15:25:25+02:00</time>
      </trkpt>
      <trkpt lat="42.76339" lon="1.36182">
        <ele>1292.4004</ele>
        <time>2025-09-13T15:25:26+02:00</time>
      </trkpt>
      <trkpt lat="42.76339" lon="1.36183">
        <ele>1292.4004</ele>
        <time>2025-09-13T15:25:30+02:00</time>
      </trkpt>
      <trkpt lat="42.76338" lon="1.36183">
        <ele>1292.4004</ele>
        <time>2025-09-13T15:25:31+02:00</time>
      </trkpt>
      <trkpt lat="42.76338" lon="1.36183">
        <ele>1292.4004</ele>
        <time>2025-09-13T15:25:35+02:00</time>
      </trkpt>
      <trkpt lat="42.76338" lon="1.36183">
        <ele>1292.4004</ele>
        <time>2025-09-13T15:25:36+02:00</time>
      </trkpt>
      <trkpt lat="42.76338" lon="1.36183">
        <ele>1292.4004</ele>
        <time>2025-09-13T15:25:40+02:00</time>
      </trkpt>
      <trkpt lat="42.76338" lon="1.36183">
        <ele>1292.4004</ele>
        <time>2025-09-13T15:25:41+02:00</time>
      </trkpt>
      <trkpt lat="42.76338" lon="1.36182">
        <ele>1292.4004</ele>
        <time>2025-09-13T15:25:45+02:00</time>
      </trkpt>
      <trkpt lat="42.76338" lon="1.36182">
        <ele>1292.4004</ele>
        <time>2025-09-13T15:25:46+02:00</time>
      </trkpt>
      <trkpt lat="42.76338" lon="1.36182">
        <ele>1292.4004</ele>
        <time>2025-09-13T15:25:50+02:00</time>
      </trkpt>
      <trkpt lat="42.76338" lon="1.36182">
        <ele>1292.4004</ele>
        <time>2025-09-13T15:25:51+02:00</time>
      </trkpt>
      <trkpt lat="42.76338" lon="1.36182">
        <ele>1292.4004</ele>
        <time>2025-09-13T15:25:55+02:00</time>
      </trkpt>
      <trkpt lat="42.76338" lon="1.36182">
        <ele>1292.4004</ele>
        <time>2025-09-13T15:25:56+02:00</time>
      </trkpt>
      <trkpt lat="42.76338" lon="1.36182">
        <ele>1292.4004</ele>
        <time>2025-09-13T15:26:00+02:00</time>
      </trkpt>
      <trkpt lat="42.76338" lon="1.36182">
        <ele>1292.4004</ele>
        <time>2025-09-13T15:26:01+02:00</time>
      </trkpt>
      <trkpt lat="42.76338" lon="1.36182">
        <ele>1292.4004</ele>
        <time>2025-09-13T15:26:05+02:00</time>
      </trkpt>
      <trkpt lat="42.76337" lon="1.36182">
        <ele>1292.4004</ele>
        <time>2025-09-13T15:26:06+02:00</time>
      </trkpt>
      <trkpt lat="42.76336" lon="1.36181">
        <ele>1292.4004</ele>
        <time>2025-09-13T15:26:10+02:00</time>
      </trkpt>
      <trkpt lat="42.76336" lon="1.36181">
        <ele>1292.4004</ele>
        <time>2025-09-13T15:26:11+02:00</time>
      </trkpt>
      <trkpt lat="42.76333" lon="1.3618">
        <ele>1295.7998</ele>
        <time>2025-09-13T15:26:15+02:00</time>
      </trkpt>
      <trkpt lat="42.76333" lon="1.3618">
        <ele>1295.7998</ele>
        <time>2025-09-13T15:26:16+02:00</time>
      </trkpt>
      <trkpt lat="42.76333" lon="1.36181">
        <ele>1295.7998</ele>
        <time>2025-09-13T15:26:20+02:00</time>
      </trkpt>
      <trkpt lat="42.76333" lon="1.36181">
        <ele>1295.7998</ele>
        <time>2025-09-13T15:26:21+02:00</time>
      </trkpt>
      <trkpt lat="42.76333" lon="1.36181">
        <ele>1295.7998</ele>
        <time>2025-09-13T15:26:25+02:00</time>
      </trkpt>
      <trkpt lat="42.76333" lon="1.36181">
        <ele>1295.7998</ele>
        <time>2025-09-13T15:26:26+02:00</time>
      </trkpt>
      <trkpt lat="42.76333" lon="1.36181">
        <ele>1295.7998</ele>
        <time>2025-09-13T15:26:30+02:00</time>
      </trkpt>
      <trkpt lat="42.76333" lon="1.36181">
        <ele>1295.7998</ele>
        <time>2025-09-13T15:26:31+02:00</time>
      </trkpt>
      <trkpt lat="42.76333" lon="1.36181">
        <ele>1295.7998</ele>
        <time>2025-09-13T15:26:35+02:00</time>
      </trkpt>
      <trkpt lat="42.76333" lon="1.36181">
        <ele>1295.7998</ele>
        <time>2025-09-13T15:26:36+02:00</time>
      </trkpt>
      <trkpt lat="42.76333" lon="1.36181">
        <ele>1295.7998</ele>
        <time>2025-09-13T15:26:40+02:00</time>
      </trkpt>
      <trkpt lat="42.76333" lon="1.36181">
        <ele>1295.7998</ele>
        <time>2025-09-13T15:26:41+02:00</time>
      </trkpt>
      <trkpt lat="42.76333" lon="1.36181">
        <ele>1295.7998</ele>
        <time>2025-09-13T15:26:45+02:00</time>
      </trkpt>
      <trkpt lat="42.76333" lon="1.36181">
        <ele>1295.7998</ele>
        <time>2025-09-13T15:26:46+02:00</time>
      </trkpt>
      <trkpt lat="42.76333" lon="1.36181">
        <ele>1295.7998</ele>
        <time>2025-09-13T15:26:50+02:00</time>
      </trkpt>
      <trkpt lat="42.76333" lon="1.36181">
        <ele>1295.7998</ele>
        <time>2025-09-13T15:26:51+02:00</time>
      </trkpt>
      <trkpt lat="42.76333" lon="1.36181">
        <ele>1295.7998</ele>
        <time>2025-09-13T15:26:55+02:00</time>
      </trkpt>
      <trkpt lat="42.76333" lon="1.36181">
        <ele>1295.7998</ele>
        <time>2025-09-13T15:26:56+02:00</time>
      </trkpt>
      <trkpt lat="42.76333" lon="1.36181">
        <ele>1295.7998</ele>
        <time>2025-09-13T15:27:00+02:00</time>
      </trkpt>
      <trkpt lat="42.76333" lon="1.36181">
        <ele>1295.7998</ele>
        <time>2025-09-13T15:27:01+02:00</time>
      </trkpt>
      <trkpt lat="42.76333" lon="1.36181">
        <ele>1295.7998</ele>
        <time>2025-09-13T15:27:05+02:00</time>
      </trkpt>
      <trkpt lat="42.76333" lon="1.36181">
        <ele>1295.7998</ele>
        <time>2025-09-13T15:27:06+02:00</time>
      </trkpt>
      <trkpt lat="42.76333" lon="1.36181">
        <ele>1295.7998</ele>
        <time>2025-09-13T15:27:10+02:00</time>
      </trkpt>
      <trkpt lat="42.76333" lon="1.36181">
        <ele>1295.7998</ele>
        <time>2025-09-13T15:27:11+02:00</time>
      </trkpt>
      <trkpt lat="42.76333" lon="1.36181">
        <ele>1295.7998</ele>
        <time>2025-09-13T15:27:15+02:00</time>
      </trkpt>
      <trkpt lat="42.76333" lon="1.36181">
        <ele>1295.7998</ele>
        <time>2025-09-13T15:27:16+02:00</time>
      </trkpt>
      <trkpt lat="42.76333" lon="1.36181">
        <ele>1295.7998</ele>
        <time>2025-09-13T15:27:20+02:00</time>
      </trkpt>
      <trkpt lat="42.76333" lon="1.36181">
        <ele>1295.7998</ele>
        <time>2025-09-13T15:27:21+02:00</time>
      </trkpt>
      <trkpt lat="42.76333" lon="1.36181">
        <ele>1295.7998</ele>
        <time>2025-09-13T15:27:25+02:00</time>
      </trkpt>
      <trkpt lat="42.76333" lon="1.36181">
        <ele>1295.7998</ele>
        <time>2025-09-13T15:27:26+02:00</time>
      </trkpt>
      <trkpt lat="42.76333" lon="1.36181">
        <ele>1295.7998</ele>
        <time>2025-09-13T15:27:30+02:00</time>
      </trkpt>
      <trkpt lat="42.76333" lon="1.36181">
        <ele>1295.7998</ele>
        <time>2025-09-13T15:27:31+02:00</time>
      </trkpt>
      <trkpt lat="42.76333" lon="1.36181">
        <ele>1295.7998</ele>
        <time>2025-09-13T15:27:35+02:00</time>
      </trkpt>
      <trkpt lat="42.76333" lon="1.36181">
        <ele>1295.7998</ele>
        <time>2025-09-13T15:27:36+02:00</time>
      </trkpt>
      <trkpt lat="42.76333" lon="1.36181">
        <ele>1295.7998</ele>
        <time>2025-09-13T15:27:40+02:00</time>
      </trkpt>
      <trkpt lat="42.76333" lon="1.36181">
        <ele>1295.7998</ele>
        <time>2025-09-13T15:27:41+02:00</time>
      </trkpt>
      <trkpt lat="42.76333" lon="1.36181">
        <ele>1295.7998</ele>
        <time>2025-09-13T15:27:45+02:00</time>
      </trkpt>
      <trkpt lat="42.76333" lon="1.36181">
        <ele>1295.7998</ele>
        <time>2025-09-13T15:27:46+02:00</time>
      </trkpt>
      <trkpt lat="42.76333" lon="1.36181">
        <ele>1295.7998</ele>
        <time>2025-09-13T15:27:50+02:00</time>
      </trkpt>
      <trkpt lat="42.76333" lon="1.36181">
        <ele>1295.7998</ele>
        <time>2025-09-13T15:27:51+02:00</time>
      </trkpt>
      <trkpt lat="42.76333" lon="1.36181">
        <ele>1295.7998</ele>
        <time>2025-09-13T15:27:55+02:00</time>
      </trkpt>
      <trkpt lat="42.76333" lon="1.36181">
        <ele>1295.7998</ele>
        <time>2025-09-13T15:27:56+02:00</time>
      </trkpt>
      <trkpt lat="42.76333" lon="1.36181">
        <ele>1295.7998</ele>
        <time>2025-09-13T15:28:00+02:00</time>
      </trkpt>
      <trkpt lat="42.76333" lon="1.36181">
        <ele>1295.7998</ele>
        <time>2025-09-13T15:28:01+02:00</time>
      </trkpt>
      <trkpt lat="42.76333" lon="1.36181">
        <ele>1295.7998</ele>
        <time>2025-09-13T15:28:05+02:00</time>
      </trkpt>
      <trkpt lat="42.76333" lon="1.36181">
        <ele>1295.7998</ele>
        <time>2025-09-13T15:28:06+02:00</time>
      </trkpt>
      <trkpt lat="42.76333" lon="1.36181">
        <ele>1295.7998</ele>
        <time>2025-09-13T15:28:10+02:00</time>
      </trkpt>
      <trkpt lat="42.76333" lon="1.36181">
        <ele>1295.7998</ele>
        <time>2025-09-13T15:28:11+02:00</time>
      </trkpt>
      <trkpt lat="42.76334" lon="1.36181">
        <ele>1292.4004</ele>
        <time>2025-09-13T15:28:15+02:00</time>
      </trkpt>
      <trkpt lat="42.76334" lon="1.36181">
        <ele>1292.4004</ele>
        <time>2025-09-13T15:28:16+02:00</time>
      </trkpt>
      <trkpt lat="42.76334" lon="1.36181">
        <ele>1292.4004</ele>
        <time>2025-09-13T15:28:20+02:00</time>
      </trkpt>
      <trkpt lat="42.76334" lon="1.36181">
        <ele>1292.4004</ele>
        <time>2025-09-13T15:28:21+02:00</time>
      </trkpt>
      <trkpt lat="42.76334" lon="1.36181">
        <ele>1292.4004</ele>
        <time>2025-09-13T15:28:25+02:00</time>
      </trkpt>
      <trkpt lat="42.76334" lon="1.36181">
        <ele>1292.4004</ele>
        <time>2025-09-13T15:28:26+02:00</time>
      </trkpt>
      <trkpt lat="42.76334" lon="1.36181">
        <ele>1292.4004</ele>
        <time>2025-09-13T15:28:30+02:00</time>
      </trkpt>
      <trkpt lat="42.76334" lon="1.36181">
        <ele>1292.4004</ele>
        <time>2025-09-13T15:28:31+02:00</time>
      </trkpt>
      <trkpt lat="42.76334" lon="1.36181">
        <ele>1292.4004</ele>
        <time>2025-09-13T15:28:35+02:00</time>
      </trkpt>
      <trkpt lat="42.76334" lon="1.36181">
        <ele>1292.4004</ele>
        <time>2025-09-13T15:28:36+02:00</time>
      </trkpt>
      <trkpt lat="42.76334" lon="1.36181">
        <ele>1292.4004</ele>
        <time>2025-09-13T15:28:40+02:00</time>
      </trkpt>
      <trkpt lat="42.76334" lon="1.36181">
        <ele>1292.4004</ele>
        <time>2025-09-13T15:28:41+02:00</time>
      </trkpt>
      <trkpt lat="42.76334" lon="1.36181">
        <ele>1292.4004</ele>
        <time>2025-09-13T15:28:45+02:00</time>
      </trkpt>
      <trkpt lat="42.76334" lon="1.36181">
        <ele>1292.4004</ele>
        <time>2025-09-13T15:28:46+02:00</time>
      </trkpt>
      <trkpt lat="42.76334" lon="1.36181">
        <ele>1292.4004</ele>
        <time>2025-09-13T15:28:50+02:00</time>
      </trkpt>
      <trkpt lat="42.76334" lon="1.36181">
        <ele>1292.4004</ele>
        <time>2025-09-13T15:28:51+02:00</time>
      </trkpt>
      <trkpt lat="42.76334" lon="1.36181">
        <ele>1292.4004</ele>
        <time>2025-09-13T15:28:55+02:00</time>
      </trkpt>
      <trkpt lat="42.76334" lon="1.36181">
        <ele>1292.4004</ele>
        <time>2025-09-13T15:28:56+02:00</time>
      </trkpt>
      <trkpt lat="42.76334" lon="1.36181">
        <ele>1292.4004</ele>
        <time>2025-09-13T15:29:00+02:00</time>
      </trkpt>
      <trkpt lat="42.76334" lon="1.36181">
        <ele>1292.4004</ele>
        <time>2025-09-13T15:29:01+02:00</time>
      </trkpt>
      <trkpt lat="42.76334" lon="1.36181">
        <ele>1292.4004</ele>
        <time>2025-09-13T15:29:05+02:00</time>
      </trkpt>
      <trkpt lat="42.76334" lon="1.36181">
        <ele>1292.4004</ele>
        <time>2025-09-13T15:29:06+02:00</time>
      </trkpt>
      <trkpt lat="42.76334" lon="1.36181">
        <ele>1292.4004</ele>
        <time>2025-09-13T15:29:10+02:00</time>
      </trkpt>
      <trkpt lat="42.76334" lon="1.36181">
        <ele>1292.4004</ele>
        <time>2025-09-13T15:29:11+02:00</time>
      </trkpt>
      <trkpt lat="42.76334" lon="1.36181">
        <ele>1292.4004</ele>
        <time>2025-09-13T15:29:15+02:00</time>
      </trkpt>
      <trkpt lat="42.76334" lon="1.36181">
        <ele>1292.4004</ele>
        <time>2025-09-13T15:29:16+02:00</time>
      </trkpt>
      <trkpt lat="42.76334" lon="1.36181">
        <ele>1292.4004</ele>
        <time>2025-09-13T15:29:20+02:00</time>
      </trkpt>
      <trkpt lat="42.76334" lon="1.36181">
        <ele>1292.4004</ele>
        <time>2025-09-13T15:29:21+02:00</time>
      </trkpt>
      <trkpt lat="42.76334" lon="1.36181">
        <ele>1292.4004</ele>
        <time>2025-09-13T15:29:25+02:00</time>
      </trkpt>
      <trkpt lat="42.76334" lon="1.36181">
        <ele>1292.4004</ele>
        <time>2025-09-13T15:29:26+02:00</time>
      </trkpt>
      <trkpt lat="42.76334" lon="1.36181">
        <ele>1292.4004</ele>
        <time>2025-09-13T15:29:30+02:00</time>
      </trkpt>
      <trkpt lat="42.76334" lon="1.36181">
        <ele>1292.4004</ele>
        <time>2025-09-13T15:29:31+02:00</time>
      </trkpt>
      <trkpt lat="42.76334" lon="1.36181">
        <ele>1292.4004</ele>
        <time>2025-09-13T15:29:35+02:00</time>
      </trkpt>
      <trkpt lat="42.76334" lon="1.36181">
        <ele>1292.4004</ele>
        <time>2025-09-13T15:29:36+02:00</time>
      </trkpt>
      <trkpt lat="42.76334" lon="1.36181">
        <ele>1292.4004</ele>
        <time>2025-09-13T15:29:40+02:00</time>
      </trkpt>
      <trkpt lat="42.76334" lon="1.36181">
        <ele>1292.4004</ele>
        <time>2025-09-13T15:29:41+02:00</time>
      </trkpt>
      <trkpt lat="42.76334" lon="1.36181">
        <ele>1292.4004</ele>
        <time>2025-09-13T15:29:45+02:00</time>
      </trkpt>
      <trkpt lat="42.76334" lon="1.36181">
        <ele>1292.4004</ele>
        <time>2025-09-13T15:29:46+02:00</time>
      </trkpt>
      <trkpt lat="42.76334" lon="1.36181">
        <ele>1292.4004</ele>
        <time>2025-09-13T15:29:50+02:00</time>
      </trkpt>
      <trkpt lat="42.76334" lon="1.36181">
        <ele>1292.4004</ele>
        <time>2025-09-13T15:29:51+02:00</time>
      </trkpt>
      <trkpt lat="42.76334" lon="1.36181">
        <ele>1292.4004</ele>
        <time>2025-09-13T15:29:55+02:00</time>
      </trkpt>
      <trkpt lat="42.76334" lon="1.36181">
        <ele>1292.4004</ele>
        <time>2025-09-13T15:29:56+02:00</time>
      </trkpt>
      <trkpt lat="42.76334" lon="1.36182">
        <ele>1292.4004</ele>
        <time>2025-09-13T15:30:00+02:00</time>
      </trkpt>
      <trkpt lat="42.76334" lon="1.36182">
        <ele>1292.4004</ele>
        <time>2025-09-13T15:30:01+02:00</time>
      </trkpt>
      <trkpt lat="42.76334" lon="1.36182">
        <ele>1292.4004</ele>
        <time>2025-09-13T15:30:05+02:00</time>
      </trkpt>
      <trkpt lat="42.76334" lon="1.36182">
        <ele>1292.4004</ele>
        <time>2025-09-13T15:30:06+02:00</time>
      </trkpt>
      <trkpt lat="42.76334" lon="1.36183">
        <ele>1292.4004</ele>
        <time>2025-09-13T15:30:10+02:00</time>
      </trkpt>
      <trkpt lat="42.76334" lon="1.36183">
        <ele>1292.4004</ele>
        <time>2025-09-13T15:30:11+02:00</time>
      </trkpt>
      <trkpt lat="42.76335" lon="1.36184">
        <ele>1292.4004</ele>
        <time>2025-09-13T15:30:15+02:00</time>
      </trkpt>
      <trkpt lat="42.76335" lon="1.36184">
        <ele>1292.4004</ele>
        <time>2025-09-13T15:30:16+02:00</time>
      </trkpt>
      <trkpt lat="42.76335" lon="1.36184">
        <ele>1292.4004</ele>
        <time>2025-09-13T15:30:20+02:00</time>
      </trkpt>
      <trkpt lat="42.76335" lon="1.36184">
        <ele>1292.4004</ele>
        <time>2025-09-13T15:30:21+02:00</time>
      </trkpt>
      <trkpt lat="42.76335" lon="1.36184">
        <ele>1292.4004</ele>
        <time>2025-09-13T15:30:25+02:00</time>
      </trkpt>
      <trkpt lat="42.76335" lon="1.36184">
        <ele>1292.4004</ele>
        <time>2025-09-13T15:30:26+02:00</time>
      </trkpt>
      <trkpt lat="42.76334" lon="1.36183">
        <ele>1292.4004</ele>
        <time>2025-09-13T15:30:52+02:00</time>
      </trkpt>
      <trkpt lat="42.76334" lon="1.36183">
        <ele>1292.4004</ele>
        <time>2025-09-13T15:30:55+02:00</time>
      </trkpt>
      <trkpt lat="42.76334" lon="1.36183">
        <ele>1292.4004</ele>
        <time>2025-09-13T15:30:56+02:00</time>
      </trkpt>
      <trkpt lat="42.76333" lon="1.36183">
        <ele>1295.7998</ele>
        <time>2025-09-13T15:31:00+02:00</time>
      </trkpt>
      <trkpt lat="42.76333" lon="1.36183">
        <ele>1295.7998</ele>
        <time>2025-09-13T15:31:01+02:00</time>
      </trkpt>
      <trkpt lat="42.76333" lon="1.36183">
        <ele>1295.7998</ele>
        <time>2025-09-13T15:31:05+02:00</time>
      </trkpt>
      <trkpt lat="42.76333" lon="1.36183">
        <ele>1295.7998</ele>
        <time>2025-09-13T15:31:06+02:00</time>
      </trkpt>
      <trkpt lat="42.76333" lon="1.36183">
        <ele>1295.7998</ele>
        <time>2025-09-13T15:31:10+02:00</time>
      </trkpt>
      <trkpt lat="42.76333" lon="1.36183">
        <ele>1295.7998</ele>
        <time>2025-09-13T15:31:11+02:00</time>
      </trkpt>
      <trkpt lat="42.76333" lon="1.36184">
        <ele>1295.7998</ele>
        <time>2025-09-13T15:31:15+02:00</time>
      </trkpt>
      <trkpt lat="42.76333" lon="1.36184">
        <ele>1295.7998</ele>
        <time>2025-09-13T15:31:16+02:00</time>
      </trkpt>
      <trkpt lat="42.76333" lon="1.36185">
        <ele>1295.7998</ele>
        <time>2025-09-13T15:31:20+02:00</time>
      </trkpt>
      <trkpt lat="42.76333" lon="1.36185">
        <ele>1295.7998</ele>
        <time>2025-09-13T15:31:21+02:00</time>
      </trkpt>
      <trkpt lat="42.76333" lon="1.36184">
        <ele>1295.7998</ele>
        <time>2025-09-13T15:31:25+02:00</time>
      </trkpt>
      <trkpt lat="42.76333" lon="1.36185">
        <ele>1295.7998</ele>
        <time>2025-09-13T15:31:26+02:00</time>
      </trkpt>
      <trkpt lat="42.76333" lon="1.36184">
        <ele>1295.7998</ele>
        <time>2025-09-13T15:31:30+02:00</time>
      </trkpt>
      <trkpt lat="42.76333" lon="1.36184">
        <ele>1295.7998</ele>
        <time>2025-09-13T15:31:31+02:00</time>
      </trkpt>
      <trkpt lat="42.76333" lon="1.36184">
        <ele>1295.7998</ele>
        <time>2025-09-13T15:31:35+02:00</time>
      </trkpt>
      <trkpt lat="42.76333" lon="1.36184">
        <ele>1295.7998</ele>
        <time>2025-09-13T15:31:36+02:00</time>
      </trkpt>
      <trkpt lat="42.76333" lon="1.36184">
        <ele>1295.7998</ele>
        <time>2025-09-13T15:31:40+02:00</time>
      </trkpt>
      <trkpt lat="42.76333" lon="1.36184">
        <ele>1295.7998</ele>
        <time>2025-09-13T15:31:41+02:00</time>
      </trkpt>
      <trkpt lat="42.76333" lon="1.36184">
        <ele>1295.7998</ele>
        <time>2025-09-13T15:31:45+02:00</time>
      </trkpt>
      <trkpt lat="42.76333" lon="1.36184">
        <ele>1295.7998</ele>
        <time>2025-09-13T15:31:46+02:00</time>
      </trkpt>
      <trkpt lat="42.76333" lon="1.36184">
        <ele>1295.7998</ele>
        <time>2025-09-13T15:31:50+02:00</time>
      </trkpt>
      <trkpt lat="42.76333" lon="1.36184">
        <ele>1295.7998</ele>
        <time>2025-09-13T15:31:51+02:00</time>
      </trkpt>
      <trkpt lat="42.76333" lon="1.36184">
        <ele>1295.7998</ele>
        <time>2025-09-13T15:31:55+02:00</time>
      </trkpt>
      <trkpt lat="42.76333" lon="1.36184">
        <ele>1295.7998</ele>
        <time>2025-09-13T15:31:56+02:00</time>
      </trkpt>
      <trkpt lat="42.76333" lon="1.36184">
        <ele>1295.7998</ele>
        <time>2025-09-13T15:32:00+02:00</time>
      </trkpt>
      <trkpt lat="42.76333" lon="1.36184">
        <ele>1295.7998</ele>
        <time>2025-09-13T15:32:01+02:00</time>
      </trkpt>
      <trkpt lat="42.76333" lon="1.36184">
        <ele>1295.7998</ele>
        <time>2025-09-13T15:32:05+02:00</time>
      </trkpt>
      <trkpt lat="42.76333" lon="1.36184">
        <ele>1295.7998</ele>
        <time>2025-09-13T15:32:06+02:00</time>
      </trkpt>
      <trkpt lat="42.76333" lon="1.36184">
        <ele>1295.7998</ele>
        <time>2025-09-13T15:32:10+02:00</time>
      </trkpt>
      <trkpt lat="42.76333" lon="1.36184">
        <ele>1295.7998</ele>
        <time>2025-09-13T15:32:11+02:00</time>
      </trkpt>
      <trkpt lat="42.76333" lon="1.36184">
        <ele>1295.7998</ele>
        <time>2025-09-13T15:32:15+02:00</time>
      </trkpt>
      <trkpt lat="42.76333" lon="1.36184">
        <ele>1295.7998</ele>
        <time>2025-09-13T15:32:16+02:00</time>
      </trkpt>
      <trkpt lat="42.76333" lon="1.36184">
        <ele>1295.7998</ele>
        <time>2025-09-13T15:32:20+02:00</time>
      </trkpt>
      <trkpt lat="42.76333" lon="1.36184">
        <ele>1295.7998</ele>
        <time>2025-09-13T15:32:21+02:00</time>
      </trkpt>
      <trkpt lat="42.76333" lon="1.36184">
        <ele>1295.7998</ele>
        <time>2025-09-13T15:32:25+02:00</time>
      </trkpt>
      <trkpt lat="42.76333" lon="1.36184">
        <ele>1295.7998</ele>
        <time>2025-09-13T15:32:26+02:00</time>
      </trkpt>
      <trkpt lat="42.76333" lon="1.36184">
        <ele>1295.7998</ele>
        <time>2025-09-13T15:32:30+02:00</time>
      </trkpt>
      <trkpt lat="42.76333" lon="1.36184">
        <ele>1295.7998</ele>
        <time>2025-09-13T15:32:31+02:00</time>
      </trkpt>
      <trkpt lat="42.76333" lon="1.36184">
        <ele>1295.7998</ele>
        <time>2025-09-13T15:32:35+02:00</time>
      </trkpt>
      <trkpt lat="42.76333" lon="1.36184">
        <ele>1295.7998</ele>
        <time>2025-09-13T15:32:36+02:00</time>
      </trkpt>
      <trkpt lat="42.76333" lon="1.36184">
        <ele>1295.7998</ele>
        <time>2025-09-13T15:32:40+02:00</time>
      </trkpt>
      <trkpt lat="42.76333" lon="1.36184">
        <ele>1295.7998</ele>
        <time>2025-09-13T15:32:41+02:00</time>
      </trkpt>
      <trkpt lat="42.76333" lon="1.36184">
        <ele>1295.7998</ele>
        <time>2025-09-13T15:32:45+02:00</time>
      </trkpt>
      <trkpt lat="42.76333" lon="1.36184">
        <ele>1295.7998</ele>
        <time>2025-09-13T15:32:46+02:00</time>
      </trkpt>
      <trkpt lat="42.76333" lon="1.36184">
        <ele>1295.7998</ele>
        <time>2025-09-13T15:32:50+02:00</time>
      </trkpt>
      <trkpt lat="42.76333" lon="1.36184">
        <ele>1295.7998</ele>
        <time>2025-09-13T15:32:51+02:00</time>
      </trkpt>
      <trkpt lat="42.76332" lon="1.36185">
        <ele>1295.7998</ele>
        <time>2025-09-13T15:32:55+02:00</time>
      </trkpt>
      <trkpt lat="42.76332" lon="1.36185">
        <ele>1295.7998</ele>
        <time>2025-09-13T15:32:56+02:00</time>
      </trkpt>
      <trkpt lat="42.76333" lon="1.36184">
        <ele>1295.7998</ele>
        <time>2025-09-13T15:33:00+02:00</time>
      </trkpt>
      <trkpt lat="42.76332" lon="1.36184">
        <ele>1295.7998</ele>
        <time>2025-09-13T15:33:01+02:00</time>
      </trkpt>
      <trkpt lat="42.76333" lon="1.36184">
        <ele>1295.7998</ele>
        <time>2025-09-13T15:33:05+02:00</time>
      </trkpt>
      <trkpt lat="42.76333" lon="1.36183">
        <ele>1295.7998</ele>
        <time>2025-09-13T15:33:06+02:00</time>
      </trkpt>
      <trkpt lat="42.76333" lon="1.36183">
        <ele>1295.7998</ele>
        <time>2025-09-13T15:33:10+02:00</time>
      </trkpt>
      <trkpt lat="42.76333" lon="1.36183">
        <ele>1295.7998</ele>
        <time>2025-09-13T15:33:11+02:00</time>
      </trkpt>
      <trkpt lat="42.76333" lon="1.36183">
        <ele>1295.7998</ele>
        <time>2025-09-13T15:33:15+02:00</time>
      </trkpt>
      <trkpt lat="42.76333" lon="1.36183">
        <ele>1295.7998</ele>
        <time>2025-09-13T15:33:16+02:00</time>
      </trkpt>
      <trkpt lat="42.76333" lon="1.36183">
        <ele>1295.7998</ele>
        <time>2025-09-13T15:33:20+02:00</time>
      </trkpt>
      <trkpt lat="42.76333" lon="1.36183">
        <ele>1295.7998</ele>
        <time>2025-09-13T15:33:21+02:00</time>
      </trkpt>
      <trkpt lat="42.76333" lon="1.36183">
        <ele>1295.7998</ele>
        <time>2025-09-13T15:33:25+02:00</time>
      </trkpt>
      <trkpt lat="42.76333" lon="1.36183">
        <ele>1295.7998</ele>
        <time>2025-09-13T15:33:26+02:00</time>
      </trkpt>
      <trkpt lat="42.76333" lon="1.36183">
        <ele>1295.7998</ele>
        <time>2025-09-13T15:33:30+02:00</time>
      </trkpt>
      <trkpt lat="42.76333" lon="1.36183">
        <ele>1295.7998</ele>
        <time>2025-09-13T15:33:31+02:00</time>
      </trkpt>
      <trkpt lat="42.76333" lon="1.36183">
        <ele>1295.7998</ele>
        <time>2025-09-13T15:33:35+02:00</time>
      </trkpt>
      <trkpt lat="42.76333" lon="1.36183">
        <ele>1295.7998</ele>
        <time>2025-09-13T15:33:36+02:00</time>
      </trkpt>
      <trkpt lat="42.76334" lon="1.36183">
        <ele>1292.4004</ele>
        <time>2025-09-13T15:33:40+02:00</time>
      </trkpt>
      <trkpt lat="42.76335" lon="1.36183">
        <ele>1292.4004</ele>
        <time>2025-09-13T15:33:41+02:00</time>
      </trkpt>
      <trkpt lat="42.76335" lon="1.36184">
        <ele>1292.4004</ele>
        <time>2025-09-13T15:33:45+02:00</time>
      </trkpt>
      <trkpt lat="42.76335" lon="1.36184">
        <ele>1292.4004</ele>
        <time>2025-09-13T15:33:46+02:00</time>
      </trkpt>
      <trkpt lat="42.76335" lon="1.36184">
        <ele>1292.4004</ele>
        <time>2025-09-13T15:33:54+02:00</time>
      </trkpt>
      <trkpt lat="42.76335" lon="1.36184">
        <ele>1292.4004</ele>
        <time>2025-09-13T15:34:00+02:00</time>
      </trkpt>
      <trkpt lat="42.76335" lon="1.36184">
        <ele>1292.4004</ele>
        <time>2025-09-13T15:34:06+02:00</time>
      </trkpt>
      <trkpt lat="42.76335" lon="1.36183">
        <ele>1292.4004</ele>
        <time>2025-09-13T15:34:07+02:00</time>
      </trkpt>
      <trkpt lat="42.76336" lon="1.36184">
        <ele>1292.4004</ele>
        <time>2025-09-13T15:34:11+02:00</time>
      </trkpt>
      <trkpt lat="42.76336" lon="1.36184">
        <ele>1292.4004</ele>
        <time>2025-09-13T15:34:12+02:00</time>
      </trkpt>
      <trkpt lat="42.76336" lon="1.36184">
        <ele>1292.4004</ele>
        <time>2025-09-13T15:34:16+02:00</time>
      </trkpt>
      <trkpt lat="42.76336" lon="1.36184">
        <ele>1292.4004</ele>
        <time>2025-09-13T15:34:17+02:00</time>
      </trkpt>
      <trkpt lat="42.76335" lon="1.36184">
        <ele>1292.4004</ele>
        <time>2025-09-13T15:34:21+02:00</time>
      </trkpt>
      <trkpt lat="42.76336" lon="1.36183">
        <ele>1292.4004</ele>
        <time>2025-09-13T15:34:22+02:00</time>
      </trkpt>
      <trkpt lat="42.76337" lon="1.36185">
        <ele>1292.4004</ele>
        <time>2025-09-13T15:34:26+02:00</time>
      </trkpt>
      <trkpt lat="42.76337" lon="1.36185">
        <ele>1292.4004</ele>
        <time>2025-09-13T15:34:27+02:00</time>
      </trkpt>
      <trkpt lat="42.76337" lon="1.36185">
        <ele>1292.4004</ele>
        <time>2025-09-13T15:34:31+02:00</time>
      </trkpt>
      <trkpt lat="42.76337" lon="1.36186">
        <ele>1292.4004</ele>
        <time>2025-09-13T15:34:32+02:00</time>
      </trkpt>
      <trkpt lat="42.76337" lon="1.36186">
        <ele>1292.4004</ele>
        <time>2025-09-13T15:34:36+02:00</time>
      </trkpt>
      <trkpt lat="42.76337" lon="1.36186">
        <ele>1292.4004</ele>
        <time>2025-09-13T15:34:37+02:00</time>
      </trkpt>
      <trkpt lat="42.76337" lon="1.36186">
        <ele>1292.4004</ele>
        <time>2025-09-13T15:34:41+02:00</time>
      </trkpt>
      <trkpt lat="42.76337" lon="1.36186">
        <ele>1292.4004</ele>
        <time>2025-09-13T15:34:42+02:00</time>
      </trkpt>
      <trkpt lat="42.76337" lon="1.36186">
        <ele>1292.4004</ele>
        <time>2025-09-13T15:34:46+02:00</time>
      </trkpt>
      <trkpt lat="42.76337" lon="1.36186">
        <ele>1292.4004</ele>
        <time>2025-09-13T15:34:47+02:00</time>
      </trkpt>
      <trkpt lat="42.76337" lon="1.36186">
        <ele>1292.4004</ele>
        <time>2025-09-13T15:34:51+02:00</time>
      </trkpt>
      <trkpt lat="42.76337" lon="1.36186">
        <ele>1292.4004</ele>
        <time>2025-09-13T15:34:52+02:00</time>
      </trkpt>
      <trkpt lat="42.76337" lon="1.36186">
        <ele>1292.4004</ele>
        <time>2025-09-13T15:34:56+02:00</time>
      </trkpt>
      <trkpt lat="42.76337" lon="1.36186">
        <ele>1292.4004</ele>
        <time>2025-09-13T15:34:57+02:00</time>
      </trkpt>
      <trkpt lat="42.76337" lon="1.36186">
        <ele>1292.4004</ele>
        <time>2025-09-13T15:35:01+02:00</time>
      </trkpt>
      <trkpt lat="42.76337" lon="1.36186">
        <ele>1292.4004</ele>
        <time>2025-09-13T15:35:02+02:00</time>
      </trkpt>
      <trkpt lat="42.76337" lon="1.36186">
        <ele>1292.4004</ele>
        <time>2025-09-13T15:35:06+02:00</time>
      </trkpt>
      <trkpt lat="42.76337" lon="1.36186">
        <ele>1292.4004</ele>
        <time>2025-09-13T15:35:07+02:00</time>
      </trkpt>
      <trkpt lat="42.76337" lon="1.36186">
        <ele>1292.4004</ele>
        <time>2025-09-13T15:35:11+02:00</time>
      </trkpt>
      <trkpt lat="42.76337" lon="1.36186">
        <ele>1292.4004</ele>
        <time>2025-09-13T15:35:12+02:00</time>
      </trkpt>
      <trkpt lat="42.76337" lon="1.36186">
        <ele>1292.4004</ele>
        <time>2025-09-13T15:35:16+02:00</time>
      </trkpt>
      <trkpt lat="42.76337" lon="1.36186">
        <ele>1292.4004</ele>
        <time>2025-09-13T15:35:17+02:00</time>
      </trkpt>
      <trkpt lat="42.76337" lon="1.36186">
        <ele>1292.4004</ele>
        <time>2025-09-13T15:35:21+02:00</time>
      </trkpt>
      <trkpt lat="42.76337" lon="1.36186">
        <ele>1292.4004</ele>
        <time>2025-09-13T15:35:22+02:00</time>
      </trkpt>
      <trkpt lat="42.76337" lon="1.36186">
        <ele>1292.4004</ele>
        <time>2025-09-13T15:35:26+02:00</time>
      </trkpt>
      <trkpt lat="42.76337" lon="1.36186">
        <ele>1292.4004</ele>
        <time>2025-09-13T15:35:27+02:00</time>
      </trkpt>
      <trkpt lat="42.76337" lon="1.36186">
        <ele>1292.4004</ele>
        <time>2025-09-13T15:35:31+02:00</time>
      </trkpt>
      <trkpt lat="42.76337" lon="1.36186">
        <ele>1292.4004</ele>
        <time>2025-09-13T15:35:32+02:00</time>
      </trkpt>
      <trkpt lat="42.76337" lon="1.36186">
        <ele>1292.4004</ele>
        <time>2025-09-13T15:35:36+02:00</time>
      </trkpt>
      <trkpt lat="42.76337" lon="1.36186">
        <ele>1292.4004</ele>
        <time>2025-09-13T15:35:37+02:00</time>
      </trkpt>
      <trkpt lat="42.76337" lon="1.36186">
        <ele>1292.4004</ele>
        <time>2025-09-13T15:35:41+02:00</time>
      </trkpt>
      <trkpt lat="42.76337" lon="1.36186">
        <ele>1292.4004</ele>
        <time>2025-09-13T15:35:42+02:00</time>
      </trkpt>
      <trkpt lat="42.76337" lon="1.36186">
        <ele>1292.4004</ele>
        <time>2025-09-13T15:35:46+02:00</time>
      </trkpt>
      <trkpt lat="42.76337" lon="1.36186">
        <ele>1292.4004</ele>
        <time>2025-09-13T15:35:47+02:00</time>
      </trkpt>
      <trkpt lat="42.76337" lon="1.36186">
        <ele>1292.4004</ele>
        <time>2025-09-13T15:35:51+02:00</time>
      </trkpt>
      <trkpt lat="42.76337" lon="1.36186">
        <ele>1292.4004</ele>
        <time>2025-09-13T15:35:52+02:00</time>
      </trkpt>
      <trkpt lat="42.76337" lon="1.36186">
        <ele>1292.4004</ele>
        <time>2025-09-13T15:35:56+02:00</time>
      </trkpt>
      <trkpt lat="42.76337" lon="1.36186">
        <ele>1292.4004</ele>
        <time>2025-09-13T15:35:57+02:00</time>
      </trkpt>
      <trkpt lat="42.76337" lon="1.36186">
        <ele>1292.4004</ele>
        <time>2025-09-13T15:36:01+02:00</time>
      </trkpt>
      <trkpt lat="42.76337" lon="1.36186">
        <ele>1292.4004</ele>
        <time>2025-09-13T15:36:02+02:00</time>
      </trkpt>
      <trkpt lat="42.76337" lon="1.36186">
        <ele>1292.4004</ele>
        <time>2025-09-13T15:36:06+02:00</time>
      </trkpt>
      <trkpt lat="42.76337" lon="1.36186">
        <ele>1292.4004</ele>
        <time>2025-09-13T15:36:07+02:00</time>
      </trkpt>
      <trkpt lat="42.76337" lon="1.36186">
        <ele>1292.4004</ele>
        <time>2025-09-13T15:36:11+02:00</time>
      </trkpt>
      <trkpt lat="42.76337" lon="1.36186">
        <ele>1292.4004</ele>
        <time>2025-09-13T15:36:12+02:00</time>
      </trkpt>
      <trkpt lat="42.76337" lon="1.36186">
        <ele>1292.4004</ele>
        <time>2025-09-13T15:36:16+02:00</time>
      </trkpt>
      <trkpt lat="42.76337" lon="1.36186">
        <ele>1292.4004</ele>
        <time>2025-09-13T15:36:17+02:00</time>
      </trkpt>
      <trkpt lat="42.76337" lon="1.36186">
        <ele>1292.4004</ele>
        <time>2025-09-13T15:36:21+02:00</time>
      </trkpt>
      <trkpt lat="42.76337" lon="1.36186">
        <ele>1292.4004</ele>
        <time>2025-09-13T15:36:22+02:00</time>
      </trkpt>
      <trkpt lat="42.76337" lon="1.36186">
        <ele>1292.4004</ele>
        <time>2025-09-13T15:36:26+02:00</time>
      </trkpt>
      <trkpt lat="42.76337" lon="1.36186">
        <ele>1292.4004</ele>
        <time>2025-09-13T15:36:27+02:00</time>
      </trkpt>
      <trkpt lat="42.76337" lon="1.36186">
        <ele>1292.4004</ele>
        <time>2025-09-13T15:36:31+02:00</time>
      </trkpt>
      <trkpt lat="42.76337" lon="1.36186">
        <ele>1292.4004</ele>
        <time>2025-09-13T15:36:32+02:00</time>
      </trkpt>
      <trkpt lat="42.76337" lon="1.36186">
        <ele>1292.4004</ele>
        <time>2025-09-13T15:36:36+02:00</time>
      </trkpt>
      <trkpt lat="42.76337" lon="1.36186">
        <ele>1292.4004</ele>
        <time>2025-09-13T15:36:37+02:00</time>
      </trkpt>
      <trkpt lat="42.76337" lon="1.36186">
        <ele>1292.4004</ele>
        <time>2025-09-13T15:36:41+02:00</time>
      </trkpt>
      <trkpt lat="42.76337" lon="1.36186">
        <ele>1292.4004</ele>
        <time>2025-09-13T15:36:42+02:00</time>
      </trkpt>
      <trkpt lat="42.76337" lon="1.36186">
        <ele>1292.4004</ele>
        <time>2025-09-13T15:36:46+02:00</time>
      </trkpt>
      <trkpt lat="42.76337" lon="1.36186">
        <ele>1292.4004</ele>
        <time>2025-09-13T15:36:47+02:00</time>
      </trkpt>
      <trkpt lat="42.76337" lon="1.36186">
        <ele>1292.4004</ele>
        <time>2025-09-13T15:36:51+02:00</time>
      </trkpt>
      <trkpt lat="42.76337" lon="1.36186">
        <ele>1292.4004</ele>
        <time>2025-09-13T15:36:52+02:00</time>
      </trkpt>
      <trkpt lat="42.76337" lon="1.36186">
        <ele>1292.4004</ele>
        <time>2025-09-13T15:36:56+02:00</time>
      </trkpt>
      <trkpt lat="42.76337" lon="1.36186">
        <ele>1292.4004</ele>
        <time>2025-09-13T15:36:57+02:00</time>
      </trkpt>
      <trkpt lat="42.76337" lon="1.36186">
        <ele>1292.4004</ele>
        <time>2025-09-13T15:37:01+02:00</time>
      </trkpt>
      <trkpt lat="42.76337" lon="1.36186">
        <ele>1292.4004</ele>
        <time>2025-09-13T15:37:02+02:00</time>
      </trkpt>
      <trkpt lat="42.76336" lon="1.36188">
        <ele>1295</ele>
        <time>2025-09-13T15:37:06+02:00</time>
      </trkpt>
      <trkpt lat="42.76336" lon="1.36189">
        <ele>1295</ele>
        <time>2025-09-13T15:37:07+02:00</time>
      </trkpt>
      <trkpt lat="42.76337" lon="1.36193">
        <ele>1295</ele>
        <time>2025-09-13T15:37:11+02:00</time>
      </trkpt>
      <trkpt lat="42.76337" lon="1.36193">
        <ele>1295</ele>
        <time>2025-09-13T15:37:12+02:00</time>
      </trkpt>
      <trkpt lat="42.76336" lon="1.36196">
        <ele>1298.2998</ele>
        <time>2025-09-13T15:37:16+02:00</time>
      </trkpt>
      <trkpt lat="42.76336" lon="1.36197">
        <ele>1298.2998</ele>
        <time>2025-09-13T15:37:17+02:00</time>
      </trkpt>
      <trkpt lat="42.76336" lon="1.36198">
        <ele>1298.2998</ele>
        <time>2025-09-13T15:37:21+02:00</time>
      </trkpt>
      <trkpt lat="42.76336" lon="1.36198">
        <ele>1298.2998</ele>
        <time>2025-09-13T15:37:22+02:00</time>
      </trkpt>
      <trkpt lat="42.76336" lon="1.36199">
        <ele>1298.2998</ele>
        <time>2025-09-13T15:37:26+02:00</time>
      </trkpt>
      <trkpt lat="42.76336" lon="1.36199">
        <ele>1298.2998</ele>
        <time>2025-09-13T15:37:27+02:00</time>
      </trkpt>
      <trkpt lat="42.76335" lon="1.362">
        <ele>1298.2998</ele>
        <time>2025-09-13T15:37:31+02:00</time>
      </trkpt>
      <trkpt lat="42.76335" lon="1.362">
        <ele>1298.2998</ele>
        <time>2025-09-13T15:37:32+02:00</time>
      </trkpt>
      <trkpt lat="42.76335" lon="1.362">
        <ele>1298.2998</ele>
        <time>2025-09-13T15:37:36+02:00</time>
      </trkpt>
      <trkpt lat="42.76335" lon="1.362">
        <ele>1298.2998</ele>
        <time>2025-09-13T15:37:37+02:00</time>
      </trkpt>
      <trkpt lat="42.76335" lon="1.36202">
        <ele>1298.2998</ele>
        <time>2025-09-13T15:37:41+02:00</time>
      </trkpt>
      <trkpt lat="42.76335" lon="1.36202">
        <ele>1298.2998</ele>
        <time>2025-09-13T15:37:42+02:00</time>
      </trkpt>
      <trkpt lat="42.76335" lon="1.36202">
        <ele>1298.2998</ele>
        <time>2025-09-13T15:37:46+02:00</time>
      </trkpt>
      <trkpt lat="42.76334" lon="1.36202">
        <ele>1298.2998</ele>
        <time>2025-09-13T15:37:47+02:00</time>
      </trkpt>
      <trkpt lat="42.76335" lon="1.36203">
        <ele>1298.2998</ele>
        <time>2025-09-13T15:37:51+02:00</time>
      </trkpt>
      <trkpt lat="42.76335" lon="1.36203">
        <ele>1298.2998</ele>
        <time>2025-09-13T15:37:52+02:00</time>
      </trkpt>
      <trkpt lat="42.76335" lon="1.36204">
        <ele>1298.2998</ele>
        <time>2025-09-13T15:37:56+02:00</time>
      </trkpt>
      <trkpt lat="42.76336" lon="1.36204">
        <ele>1298.2998</ele>
        <time>2025-09-13T15:37:57+02:00</time>
      </trkpt>
      <trkpt lat="42.76337" lon="1.36204">
        <ele>1298.2998</ele>
        <time>2025-09-13T15:38:01+02:00</time>
      </trkpt>
      <trkpt lat="42.76337" lon="1.36204">
        <ele>1298.2998</ele>
        <time>2025-09-13T15:38:02+02:00</time>
      </trkpt>
      <trkpt lat="42.76338" lon="1.36206">
        <ele>1301.2998</ele>
        <time>2025-09-13T15:38:06+02:00</time>
      </trkpt>
      <trkpt lat="42.76339" lon="1.36206">
        <ele>1301.2998</ele>
        <time>2025-09-13T15:38:07+02:00</time>
      </trkpt>
      <trkpt lat="42.76341" lon="1.36207">
        <ele>1298.2002</ele>
        <time>2025-09-13T15:38:11+02:00</time>
      </trkpt>
      <trkpt lat="42.76341" lon="1.36208">
        <ele>1298.2002</ele>
        <time>2025-09-13T15:38:12+02:00</time>
      </trkpt>
      <trkpt lat="42.76344" lon="1.36207">
        <ele>1298.2002</ele>
        <time>2025-09-13T15:38:16+02:00</time>
      </trkpt>
      <trkpt lat="42.76344" lon="1.36207">
        <ele>1298.2002</ele>
        <time>2025-09-13T15:38:17+02:00</time>
      </trkpt>
      <trkpt lat="42.76345" lon="1.36206">
        <ele>1298.2002</ele>
        <time>2025-09-13T15:38:21+02:00</time>
      </trkpt>
      <trkpt lat="42.76346" lon="1.36206">
        <ele>1298.2002</ele>
        <time>2025-09-13T15:38:22+02:00</time>
      </trkpt>
      <trkpt lat="42.76347" lon="1.36206">
        <ele>1294.7998</ele>
        <time>2025-09-13T15:38:26+02:00</time>
      </trkpt>
      <trkpt lat="42.76347" lon="1.36206">
        <ele>1294.7998</ele>
        <time>2025-09-13T15:38:27+02:00</time>
      </trkpt>
      <trkpt lat="42.76348" lon="1.36205">
        <ele>1294.7998</ele>
        <time>2025-09-13T15:38:31+02:00</time>
      </trkpt>
      <trkpt lat="42.76347" lon="1.36205">
        <ele>1294.7998</ele>
        <time>2025-09-13T15:38:32+02:00</time>
      </trkpt>
      <trkpt lat="42.76349" lon="1.36203">
        <ele>1292.2998</ele>
        <time>2025-09-13T15:38:36+02:00</time>
      </trkpt>
      <trkpt lat="42.76349" lon="1.36203">
        <ele>1292.2998</ele>
        <time>2025-09-13T15:38:37+02:00</time>
      </trkpt>
      <trkpt lat="42.76351" lon="1.36203">
        <ele>1292.2998</ele>
        <time>2025-09-13T15:38:41+02:00</time>
      </trkpt>
      <trkpt lat="42.76351" lon="1.36203">
        <ele>1292.2998</ele>
        <time>2025-09-13T15:38:42+02:00</time>
      </trkpt>
      <trkpt lat="42.76353" lon="1.36204">
        <ele>1289.2998</ele>
        <time>2025-09-13T15:38:46+02:00</time>
      </trkpt>
      <trkpt lat="42.76354" lon="1.36204">
        <ele>1289.2998</ele>
        <time>2025-09-13T15:38:47+02:00</time>
      </trkpt>
      <trkpt lat="42.76354" lon="1.36205">
        <ele>1291.4004</ele>
        <time>2025-09-13T15:38:51+02:00</time>
      </trkpt>
      <trkpt lat="42.76355" lon="1.36205">
        <ele>1291.4004</ele>
        <time>2025-09-13T15:38:52+02:00</time>
      </trkpt>
      <trkpt lat="42.76356" lon="1.36204">
        <ele>1289.2998</ele>
        <time>2025-09-13T15:38:56+02:00</time>
      </trkpt>
      <trkpt lat="42.76356" lon="1.36204">
        <ele>1289.2998</ele>
        <time>2025-09-13T15:38:57+02:00</time>
      </trkpt>
      <trkpt lat="42.76357" lon="1.36204">
        <ele>1289.2998</ele>
        <time>2025-09-13T15:39:01+02:00</time>
      </trkpt>
      <trkpt lat="42.76358" lon="1.36204">
        <ele>1289.2998</ele>
        <time>2025-09-13T15:39:02+02:00</time>
      </trkpt>
      <trkpt lat="42.76359" lon="1.36205">
        <ele>1288.2998</ele>
        <time>2025-09-13T15:39:06+02:00</time>
      </trkpt>
      <trkpt lat="42.7636" lon="1.36206">
        <ele>1288.2998</ele>
        <time>2025-09-13T15:39:07+02:00</time>
      </trkpt>
      <trkpt lat="42.7636" lon="1.36207">
        <ele>1288.2998</ele>
        <time>2025-09-13T15:39:11+02:00</time>
      </trkpt>
      <trkpt lat="42.7636" lon="1.36207">
        <ele>1288.2998</ele>
        <time>2025-09-13T15:39:12+02:00</time>
      </trkpt>
      <trkpt lat="42.76361" lon="1.36208">
        <ele>1288.2998</ele>
        <time>2025-09-13T15:39:16+02:00</time>
      </trkpt>
      <trkpt lat="42.76361" lon="1.36208">
        <ele>1288.2998</ele>
        <time>2025-09-13T15:39:17+02:00</time>
      </trkpt>
      <trkpt lat="42.76362" lon="1.3621">
        <ele>1288.2998</ele>
        <time>2025-09-13T15:39:21+02:00</time>
      </trkpt>
      <trkpt lat="42.76362" lon="1.3621">
        <ele>1288.2998</ele>
        <time>2025-09-13T15:39:22+02:00</time>
      </trkpt>
      <trkpt lat="42.76362" lon="1.3621">
        <ele>1288.2998</ele>
        <time>2025-09-13T15:39:26+02:00</time>
      </trkpt>
      <trkpt lat="42.76362" lon="1.3621">
        <ele>1288.2998</ele>
        <time>2025-09-13T15:39:27+02:00</time>
      </trkpt>
      <trkpt lat="42.76362" lon="1.3621">
        <ele>1288.2998</ele>
        <time>2025-09-13T15:39:31+02:00</time>
      </trkpt>
      <trkpt lat="42.76362" lon="1.3621">
        <ele>1288.2998</ele>
        <time>2025-09-13T15:39:32+02:00</time>
      </trkpt>
      <trkpt lat="42.76363" lon="1.3621">
        <ele>1288.2998</ele>
        <time>2025-09-13T15:39:36+02:00</time>
      </trkpt>
      <trkpt lat="42.76363" lon="1.3621">
        <ele>1288.2998</ele>
        <time>2025-09-13T15:39:37+02:00</time>
      </trkpt>
      <trkpt lat="42.76363" lon="1.3621">
        <ele>1288.2998</ele>
        <time>2025-09-13T15:39:41+02:00</time>
      </trkpt>
      <trkpt lat="42.76363" lon="1.3621">
        <ele>1288.2998</ele>
        <time>2025-09-13T15:39:42+02:00</time>
      </trkpt>
      <trkpt lat="42.76363" lon="1.3621">
        <ele>1288.2998</ele>
        <time>2025-09-13T15:39:46+02:00</time>
      </trkpt>
      <trkpt lat="42.76363" lon="1.3621">
        <ele>1288.2998</ele>
        <time>2025-09-13T15:39:47+02:00</time>
      </trkpt>
      <trkpt lat="42.76364" lon="1.3621">
        <ele>1288.2998</ele>
        <time>2025-09-13T15:39:51+02:00</time>
      </trkpt>
      <trkpt lat="42.76364" lon="1.3621">
        <ele>1288.2998</ele>
        <time>2025-09-13T15:39:52+02:00</time>
      </trkpt>
      <trkpt lat="42.76364" lon="1.3621">
        <ele>1288.2998</ele>
        <time>2025-09-13T15:39:56+02:00</time>
      </trkpt>
      <trkpt lat="42.76364" lon="1.3621">
        <ele>1288.2998</ele>
        <time>2025-09-13T15:39:57+02:00</time>
      </trkpt>
      <trkpt lat="42.76364" lon="1.3621">
        <ele>1288.2998</ele>
        <time>2025-09-13T15:40:01+02:00</time>
      </trkpt>
      <trkpt lat="42.76364" lon="1.3621">
        <ele>1288.2998</ele>
        <time>2025-09-13T15:40:02+02:00</time>
      </trkpt>
      <trkpt lat="42.76364" lon="1.3621">
        <ele>1288.2998</ele>
        <time>2025-09-13T15:40:06+02:00</time>
      </trkpt>
      <trkpt lat="42.76364" lon="1.3621">
        <ele>1288.2998</ele>
        <time>2025-09-13T15:40:07+02:00</time>
      </trkpt>
      <trkpt lat="42.76364" lon="1.3621">
        <ele>1288.2998</ele>
        <time>2025-09-13T15:40:11+02:00</time>
      </trkpt>
      <trkpt lat="42.76364" lon="1.3621">
        <ele>1288.2998</ele>
        <time>2025-09-13T15:40:12+02:00</time>
      </trkpt>
      <trkpt lat="42.76364" lon="1.3621">
        <ele>1288.2998</ele>
        <time>2025-09-13T15:40:16+02:00</time>
      </trkpt>
      <trkpt lat="42.76364" lon="1.3621">
        <ele>1288.2998</ele>
        <time>2025-09-13T15:40:17+02:00</time>
      </trkpt>
      <trkpt lat="42.76365" lon="1.36211">
        <ele>1285.6006</ele>
        <time>2025-09-13T15:40:21+02:00</time>
      </trkpt>
      <trkpt lat="42.76366" lon="1.36212">
        <ele>1285.6006</ele>
        <time>2025-09-13T15:40:22+02:00</time>
      </trkpt>
      <trkpt lat="42.76366" lon="1.36212">
        <ele>1285.6006</ele>
        <time>2025-09-13T15:40:26+02:00</time>
      </trkpt>
      <trkpt lat="42.76366" lon="1.36213">
        <ele>1285.6006</ele>
        <time>2025-09-13T15:40:27+02:00</time>
      </trkpt>
      <trkpt lat="42.76366" lon="1.36212">
        <ele>1285.6006</ele>
        <time>2025-09-13T15:40:31+02:00</time>
      </trkpt>
      <trkpt lat="42.76365" lon="1.36213">
        <ele>1285.6006</ele>
        <time>2025-09-13T15:40:32+02:00</time>
      </trkpt>
      <trkpt lat="42.76363" lon="1.36215">
        <ele>1290.2998</ele>
        <time>2025-09-13T15:40:36+02:00</time>
      </trkpt>
      <trkpt lat="42.76363" lon="1.36215">
        <ele>1290.2998</ele>
        <time>2025-09-13T15:40:37+02:00</time>
      </trkpt>
      <trkpt lat="42.76362" lon="1.36217">
        <ele>1290.2998</ele>
        <time>2025-09-13T15:40:41+02:00</time>
      </trkpt>
      <trkpt lat="42.76361" lon="1.36218">
        <ele>1290.2998</ele>
        <time>2025-09-13T15:40:42+02:00</time>
      </trkpt>
      <trkpt lat="42.7636" lon="1.36219">
        <ele>1290.2998</ele>
        <time>2025-09-13T15:40:46+02:00</time>
      </trkpt>
      <trkpt lat="42.76359" lon="1.36219">
        <ele>1290.2998</ele>
        <time>2025-09-13T15:40:47+02:00</time>
      </trkpt>
      <trkpt lat="42.76358" lon="1.36222">
        <ele>1295.2998</ele>
        <time>2025-09-13T15:40:51+02:00</time>
      </trkpt>
      <trkpt lat="42.76357" lon="1.36223">
        <ele>1295.2998</ele>
        <time>2025-09-13T15:40:52+02:00</time>
      </trkpt>
      <trkpt lat="42.76355" lon="1.36226">
        <ele>1295.2998</ele>
        <time>2025-09-13T15:40:56+02:00</time>
      </trkpt>
      <trkpt lat="42.76354" lon="1.36226">
        <ele>1295.2998</ele>
        <time>2025-09-13T15:40:57+02:00</time>
      </trkpt>
      <trkpt lat="42.76352" lon="1.36229">
        <ele>1298.9004</ele>
        <time>2025-09-13T15:41:01+02:00</time>
      </trkpt>
      <trkpt lat="42.76349" lon="1.36232">
        <ele>1300.9004</ele>
        <time>2025-09-13T15:41:06+02:00</time>
      </trkpt>
      <trkpt lat="42.76347" lon="1.36233">
        <ele>1300.9004</ele>
        <time>2025-09-13T15:41:11+02:00</time>
      </trkpt>
      <trkpt lat="42.76347" lon="1.36233">
        <ele>1300.9004</ele>
        <time>2025-09-13T15:41:12+02:00</time>
      </trkpt>
      <trkpt lat="42.76343" lon="1.36233">
        <ele>1304.4004</ele>
        <time>2025-09-13T15:41:16+02:00</time>
      </trkpt>
      <trkpt lat="42.76342" lon="1.36234">
        <ele>1304.4004</ele>
        <time>2025-09-13T15:41:21+02:00</time>
      </trkpt>
      <trkpt lat="42.76341" lon="1.36234">
        <ele>1304.4004</ele>
        <time>2025-09-13T15:41:22+02:00</time>
      </trkpt>
      <trkpt lat="42.7634" lon="1.36236">
        <ele>1304.4004</ele>
        <time>2025-09-13T15:41:26+02:00</time>
      </trkpt>
      <trkpt lat="42.7634" lon="1.36236">
        <ele>1307.1006</ele>
        <time>2025-09-13T15:41:27+02:00</time>
      </trkpt>
      <trkpt lat="42.76339" lon="1.36238">
        <ele>1307.1006</ele>
        <time>2025-09-13T15:41:31+02:00</time>
      </trkpt>
      <trkpt lat="42.76339" lon="1.36237">
        <ele>1307.1006</ele>
        <time>2025-09-13T15:41:32+02:00</time>
      </trkpt>
      <trkpt lat="42.76338" lon="1.36234">
        <ele>1307.1006</ele>
        <time>2025-09-13T15:41:36+02:00</time>
      </trkpt>
      <trkpt lat="42.76338" lon="1.36234">
        <ele>1307.1006</ele>
        <time>2025-09-13T15:41:37+02:00</time>
      </trkpt>
      <trkpt lat="42.76338" lon="1.36234">
        <ele>1307.1006</ele>
        <time>2025-09-13T15:41:41+02:00</time>
      </trkpt>
      <trkpt lat="42.76338" lon="1.36234">
        <ele>1307.1006</ele>
        <time>2025-09-13T15:41:42+02:00</time>
      </trkpt>
      <trkpt lat="42.76338" lon="1.36234">
        <ele>1307.1006</ele>
        <time>2025-09-13T15:41:46+02:00</time>
      </trkpt>
      <trkpt lat="42.76338" lon="1.36234">
        <ele>1307.1006</ele>
        <time>2025-09-13T15:41:47+02:00</time>
      </trkpt>
      <trkpt lat="42.76337" lon="1.36233">
        <ele>1307.1006</ele>
        <time>2025-09-13T15:41:51+02:00</time>
      </trkpt>
      <trkpt lat="42.76337" lon="1.36233">
        <ele>1307.1006</ele>
        <time>2025-09-13T15:41:52+02:00</time>
      </trkpt>
      <trkpt lat="42.76337" lon="1.36232">
        <ele>1307.1006</ele>
        <time>2025-09-13T15:41:56+02:00</time>
      </trkpt>
      <trkpt lat="42.76337" lon="1.36232">
        <ele>1307.1006</ele>
        <time>2025-09-13T15:41:57+02:00</time>
      </trkpt>
      <trkpt lat="42.76337" lon="1.36232">
        <ele>1307.1006</ele>
        <time>2025-09-13T15:42:01+02:00</time>
      </trkpt>
      <trkpt lat="42.76337" lon="1.36232">
        <ele>1307.1006</ele>
        <time>2025-09-13T15:42:02+02:00</time>
      </trkpt>
      <trkpt lat="42.76338" lon="1.36232">
        <ele>1307.1006</ele>
        <time>2025-09-13T15:42:06+02:00</time>
      </trkpt>
      <trkpt lat="42.76338" lon="1.36232">
        <ele>1307.1006</ele>
        <time>2025-09-13T15:42:07+02:00</time>
      </trkpt>
      <trkpt lat="42.76338" lon="1.36231">
        <ele>1307.1006</ele>
        <time>2025-09-13T15:42:12+02:00</time>
      </trkpt>
      <trkpt lat="42.76338" lon="1.36231">
        <ele>1307.1006</ele>
        <time>2025-09-13T15:42:13+02:00</time>
      </trkpt>
      <trkpt lat="42.76338" lon="1.36228">
        <ele>1305.2998</ele>
        <time>2025-09-13T15:42:17+02:00</time>
      </trkpt>
      <trkpt lat="42.76338" lon="1.36228">
        <ele>1305.2998</ele>
        <time>2025-09-13T15:42:18+02:00</time>
      </trkpt>
      <trkpt lat="42.76337" lon="1.36228">
        <ele>1305.2998</ele>
        <time>2025-09-13T15:42:22+02:00</time>
      </trkpt>
      <trkpt lat="42.76337" lon="1.36228">
        <ele>1305.2998</ele>
        <time>2025-09-13T15:42:23+02:00</time>
      </trkpt>
      <trkpt lat="42.76337" lon="1.36227">
        <ele>1305.2998</ele>
        <time>2025-09-13T15:42:27+02:00</time>
      </trkpt>
      <trkpt lat="42.76337" lon="1.36227">
        <ele>1305.2998</ele>
        <time>2025-09-13T15:42:28+02:00</time>
      </trkpt>
      <trkpt lat="42.76336" lon="1.36227">
        <ele>1305.2998</ele>
        <time>2025-09-13T15:42:32+02:00</time>
      </trkpt>
      <trkpt lat="42.76336" lon="1.36227">
        <ele>1305.2998</ele>
        <time>2025-09-13T15:42:33+02:00</time>
      </trkpt>
      <trkpt lat="42.76336" lon="1.36227">
        <ele>1305.2998</ele>
        <time>2025-09-13T15:42:37+02:00</time>
      </trkpt>
      <trkpt lat="42.76336" lon="1.36227">
        <ele>1305.2998</ele>
        <time>2025-09-13T15:42:38+02:00</time>
      </trkpt>
      <trkpt lat="42.76336" lon="1.36227">
        <ele>1305.2998</ele>
        <time>2025-09-13T15:42:42+02:00</time>
      </trkpt>
      <trkpt lat="42.76336" lon="1.36227">
        <ele>1305.2998</ele>
        <time>2025-09-13T15:42:43+02:00</time>
      </trkpt>
      <trkpt lat="42.76336" lon="1.36227">
        <ele>1305.2998</ele>
        <time>2025-09-13T15:42:47+02:00</time>
      </trkpt>
      <trkpt lat="42.76336" lon="1.36227">
        <ele>1305.2998</ele>
        <time>2025-09-13T15:42:48+02:00</time>
      </trkpt>
      <trkpt lat="42.76336" lon="1.36226">
        <ele>1305.2998</ele>
        <time>2025-09-13T15:42:52+02:00</time>
      </trkpt>
      <trkpt lat="42.76336" lon="1.36226">
        <ele>1305.2998</ele>
        <time>2025-09-13T15:42:53+02:00</time>
      </trkpt>
      <trkpt lat="42.76336" lon="1.36226">
        <ele>1305.2998</ele>
        <time>2025-09-13T15:42:57+02:00</time>
      </trkpt>
      <trkpt lat="42.76336" lon="1.36226">
        <ele>1305.2998</ele>
        <time>2025-09-13T15:42:58+02:00</time>
      </trkpt>
      <trkpt lat="42.76336" lon="1.36226">
        <ele>1305.2998</ele>
        <time>2025-09-13T15:43:02+02:00</time>
      </trkpt>
      <trkpt lat="42.76336" lon="1.36226">
        <ele>1305.2998</ele>
        <time>2025-09-13T15:43:03+02:00</time>
      </trkpt>
      <trkpt lat="42.76336" lon="1.36226">
        <ele>1305.2998</ele>
        <time>2025-09-13T15:43:07+02:00</time>
      </trkpt>
      <trkpt lat="42.76336" lon="1.36226">
        <ele>1305.2998</ele>
        <time>2025-09-13T15:43:08+02:00</time>
      </trkpt>
      <trkpt lat="42.76337" lon="1.36226">
        <ele>1305.2998</ele>
        <time>2025-09-13T15:43:12+02:00</time>
      </trkpt>
      <trkpt lat="42.76337" lon="1.36227">
        <ele>1305.2998</ele>
        <time>2025-09-13T15:43:13+02:00</time>
      </trkpt>
      <trkpt lat="42.76338" lon="1.36229">
        <ele>1305.2998</ele>
        <time>2025-09-13T15:43:17+02:00</time>
      </trkpt>
      <trkpt lat="42.76338" lon="1.36229">
        <ele>1305.2998</ele>
        <time>2025-09-13T15:43:18+02:00</time>
      </trkpt>
      <trkpt lat="42.76338" lon="1.3623">
        <ele>1305.2998</ele>
        <time>2025-09-13T15:43:22+02:00</time>
      </trkpt>
      <trkpt lat="42.76338" lon="1.3623">
        <ele>1305.2998</ele>
        <time>2025-09-13T15:43:23+02:00</time>
      </trkpt>
      <trkpt lat="42.76338" lon="1.36229">
        <ele>1305.2998</ele>
        <time>2025-09-13T15:43:27+02:00</time>
      </trkpt>
      <trkpt lat="42.76339" lon="1.36229">
        <ele>1305.2998</ele>
        <time>2025-09-13T15:43:28+02:00</time>
      </trkpt>
      <trkpt lat="42.7634" lon="1.36228">
        <ele>1302.5</ele>
        <time>2025-09-13T15:43:32+02:00</time>
      </trkpt>
      <trkpt lat="42.76341" lon="1.36228">
        <ele>1302.5</ele>
        <time>2025-09-13T15:43:33+02:00</time>
      </trkpt>
      <trkpt lat="42.76343" lon="1.36228">
        <ele>1302.5</ele>
        <time>2025-09-13T15:43:37+02:00</time>
      </trkpt>
      <trkpt lat="42.76344" lon="1.36228">
        <ele>1302.5</ele>
        <time>2025-09-13T15:43:38+02:00</time>
      </trkpt>
      <trkpt lat="42.76348" lon="1.36227">
        <ele>1298.9004</ele>
        <time>2025-09-13T15:43:42+02:00</time>
      </trkpt>
      <trkpt lat="42.76349" lon="1.36227">
        <ele>1298.9004</ele>
        <time>2025-09-13T15:43:43+02:00</time>
      </trkpt>
      <trkpt lat="42.76353" lon="1.36225">
        <ele>1295.2998</ele>
        <time>2025-09-13T15:43:46+02:00</time>
      </trkpt>
      <trkpt lat="42.76354" lon="1.36225">
        <ele>1295.2998</ele>
        <time>2025-09-13T15:43:48+02:00</time>
      </trkpt>
      <trkpt lat="42.76357" lon="1.36223">
        <ele>1295.2998</ele>
        <time>2025-09-13T15:43:52+02:00</time>
      </trkpt>
      <trkpt lat="42.76357" lon="1.36222">
        <ele>1295.2998</ele>
        <time>2025-09-13T15:43:53+02:00</time>
      </trkpt>
      <trkpt lat="42.76359" lon="1.3622">
        <ele>1293.4004</ele>
        <time>2025-09-13T15:43:57+02:00</time>
      </trkpt>
      <trkpt lat="42.76359" lon="1.3622">
        <ele>1290.2998</ele>
        <time>2025-09-13T15:43:58+02:00</time>
      </trkpt>
      <trkpt lat="42.76361" lon="1.36222">
        <ele>1290.2998</ele>
        <time>2025-09-13T15:44:02+02:00</time>
      </trkpt>
      <trkpt lat="42.76361" lon="1.36222">
        <ele>1290.2998</ele>
        <time>2025-09-13T15:44:03+02:00</time>
      </trkpt>
      <trkpt lat="42.76361" lon="1.36222">
        <ele>1290.2998</ele>
        <time>2025-09-13T15:44:07+02:00</time>
      </trkpt>
      <trkpt lat="42.76361" lon="1.36222">
        <ele>1290.2998</ele>
        <time>2025-09-13T15:44:08+02:00</time>
      </trkpt>
      <trkpt lat="42.76361" lon="1.36222">
        <ele>1292.2002</ele>
        <time>2025-09-13T15:44:12+02:00</time>
      </trkpt>
      <trkpt lat="42.76362" lon="1.36222">
        <ele>1292.2002</ele>
        <time>2025-09-13T15:44:13+02:00</time>
      </trkpt>
      <trkpt lat="42.76365" lon="1.36226">
        <ele>1292.2002</ele>
        <time>2025-09-13T15:44:17+02:00</time>
      </trkpt>
      <trkpt lat="42.76365" lon="1.36227">
        <ele>1289.9004</ele>
        <time>2025-09-13T15:44:18+02:00</time>
      </trkpt>
      <trkpt lat="42.76365" lon="1.36228">
        <ele>1289.9004</ele>
        <time>2025-09-13T15:44:22+02:00</time>
      </trkpt>
      <trkpt lat="42.76365" lon="1.36228">
        <ele>1289.9004</ele>
        <time>2025-09-13T15:44:23+02:00</time>
      </trkpt>
      <trkpt lat="42.76365" lon="1.36229">
        <ele>1289.9004</ele>
        <time>2025-09-13T15:44:27+02:00</time>
      </trkpt>
      <trkpt lat="42.76365" lon="1.36229">
        <ele>1289.9004</ele>
        <time>2025-09-13T15:44:28+02:00</time>
      </trkpt>
      <trkpt lat="42.76365" lon="1.36229">
        <ele>1292.2002</ele>
        <time>2025-09-13T15:44:32+02:00</time>
      </trkpt>
      <trkpt lat="42.76365" lon="1.36229">
        <ele>1292.2002</ele>
        <time>2025-09-13T15:44:33+02:00</time>
      </trkpt>
      <trkpt lat="42.76365" lon="1.36229">
        <ele>1289.9004</ele>
        <time>2025-09-13T15:44:38+02:00</time>
      </trkpt>
      <trkpt lat="42.76365" lon="1.36229">
        <ele>1289.9004</ele>
        <time>2025-09-13T15:44:39+02:00</time>
      </trkpt>
      <trkpt lat="42.76365" lon="1.36229">
        <ele>1289.9004</ele>
        <time>2025-09-13T15:44:43+02:00</time>
      </trkpt>
      <trkpt lat="42.76365" lon="1.36229">
        <ele>1289.9004</ele>
        <time>2025-09-13T15:44:44+02:00</time>
      </trkpt>
      <trkpt lat="42.76365" lon="1.3623">
        <ele>1289.9004</ele>
        <time>2025-09-13T15:44:48+02:00</time>
      </trkpt>
      <trkpt lat="42.76366" lon="1.3623">
        <ele>1289.9004</ele>
        <time>2025-09-13T15:44:49+02:00</time>
      </trkpt>
      <trkpt lat="42.76367" lon="1.36231">
        <ele>1292.1006</ele>
        <time>2025-09-13T15:44:53+02:00</time>
      </trkpt>
      <trkpt lat="42.76367" lon="1.36231">
        <ele>1292.1006</ele>
        <time>2025-09-13T15:44:54+02:00</time>
      </trkpt>
      <trkpt lat="42.76369" lon="1.36234">
        <ele>1292.1006</ele>
        <time>2025-09-13T15:44:58+02:00</time>
      </trkpt>
      <trkpt lat="42.76369" lon="1.36234">
        <ele>1292.1006</ele>
        <time>2025-09-13T15:44:59+02:00</time>
      </trkpt>
      <trkpt lat="42.76369" lon="1.36234">
        <ele>1292.1006</ele>
        <time>2025-09-13T15:45:03+02:00</time>
      </trkpt>
      <trkpt lat="42.76369" lon="1.36234">
        <ele>1292.1006</ele>
        <time>2025-09-13T15:45:04+02:00</time>
      </trkpt>
      <trkpt lat="42.76369" lon="1.36234">
        <ele>1292.1006</ele>
        <time>2025-09-13T15:45:08+02:00</time>
      </trkpt>
      <trkpt lat="42.7637" lon="1.36235">
        <ele>1292.1006</ele>
        <time>2025-09-13T15:45:09+02:00</time>
      </trkpt>
      <trkpt lat="42.76372" lon="1.36236">
        <ele>1290.9004</ele>
        <time>2025-09-13T15:45:13+02:00</time>
      </trkpt>
      <trkpt lat="42.76373" lon="1.36236">
        <ele>1290.9004</ele>
        <time>2025-09-13T15:45:14+02:00</time>
      </trkpt>
      <trkpt lat="42.76376" lon="1.36237">
        <ele>1290.9004</ele>
        <time>2025-09-13T15:45:18+02:00</time>
      </trkpt>
      <trkpt lat="42.76378" lon="1.36238">
        <ele>1290.9004</ele>
        <time>2025-09-13T15:45:19+02:00</time>
      </trkpt>
      <trkpt lat="42.76381" lon="1.36239">
        <ele>1293.5</ele>
        <time>2025-09-13T15:45:23+02:00</time>
      </trkpt>
      <trkpt lat="42.76381" lon="1.3624">
        <ele>1293.5</ele>
        <time>2025-09-13T15:45:24+02:00</time>
      </trkpt>
      <trkpt lat="42.76384" lon="1.36239">
        <ele>1289.7002</ele>
        <time>2025-09-13T15:45:28+02:00</time>
      </trkpt>
      <trkpt lat="42.76385" lon="1.36239">
        <ele>1289.7002</ele>
        <time>2025-09-13T15:45:29+02:00</time>
      </trkpt>
      <trkpt lat="42.76386" lon="1.36239">
        <ele>1293.2002</ele>
        <time>2025-09-13T15:45:33+02:00</time>
      </trkpt>
      <trkpt lat="42.76387" lon="1.3624">
        <ele>1293.2002</ele>
        <time>2025-09-13T15:45:34+02:00</time>
      </trkpt>
      <trkpt lat="42.76387" lon="1.36241">
        <ele>1293.2002</ele>
        <time>2025-09-13T15:45:38+02:00</time>
      </trkpt>
      <trkpt lat="42.76387" lon="1.36241">
        <ele>1293.2002</ele>
        <time>2025-09-13T15:45:39+02:00</time>
      </trkpt>
      <trkpt lat="42.76389" lon="1.36242">
        <ele>1293.2002</ele>
        <time>2025-09-13T15:45:43+02:00</time>
      </trkpt>
      <trkpt lat="42.76389" lon="1.36242">
        <ele>1293.2002</ele>
        <time>2025-09-13T15:45:44+02:00</time>
      </trkpt>
      <trkpt lat="42.7639" lon="1.36243">
        <ele>1293.2002</ele>
        <time>2025-09-13T15:45:48+02:00</time>
      </trkpt>
      <trkpt lat="42.7639" lon="1.36244">
        <ele>1293.2002</ele>
        <time>2025-09-13T15:45:49+02:00</time>
      </trkpt>
      <trkpt lat="42.76391" lon="1.36244">
        <ele>1293.1006</ele>
        <time>2025-09-13T15:45:53+02:00</time>
      </trkpt>
      <trkpt lat="42.7639" lon="1.36245">
        <ele>1293.1006</ele>
        <time>2025-09-13T15:45:54+02:00</time>
      </trkpt>
      <trkpt lat="42.7639" lon="1.36245">
        <ele>1293.1006</ele>
        <time>2025-09-13T15:45:58+02:00</time>
      </trkpt>
      <trkpt lat="42.7639" lon="1.36245">
        <ele>1293.1006</ele>
        <time>2025-09-13T15:45:59+02:00</time>
      </trkpt>
      <trkpt lat="42.76391" lon="1.36245">
        <ele>1293.1006</ele>
        <time>2025-09-13T15:46:03+02:00</time>
      </trkpt>
      <trkpt lat="42.76391" lon="1.36245">
        <ele>1293.1006</ele>
        <time>2025-09-13T15:46:04+02:00</time>
      </trkpt>
      <trkpt lat="42.76391" lon="1.36245">
        <ele>1293.1006</ele>
        <time>2025-09-13T15:46:09+02:00</time>
      </trkpt>
      <trkpt lat="42.76391" lon="1.36245">
        <ele>1293.1006</ele>
        <time>2025-09-13T15:46:10+02:00</time>
      </trkpt>
      <trkpt lat="42.76391" lon="1.36245">
        <ele>1293.1006</ele>
        <time>2025-09-13T15:46:14+02:00</time>
      </trkpt>
      <trkpt lat="42.76391" lon="1.36245">
        <ele>1293.1006</ele>
        <time>2025-09-13T15:46:15+02:00</time>
      </trkpt>
      <trkpt lat="42.76392" lon="1.36246">
        <ele>1293.1006</ele>
        <time>2025-09-13T15:46:19+02:00</time>
      </trkpt>
      <trkpt lat="42.76392" lon="1.36246">
        <ele>1293.1006</ele>
        <time>2025-09-13T15:46:20+02:00</time>
      </trkpt>
      <trkpt lat="42.76393" lon="1.36247">
        <ele>1293.1006</ele>
        <time>2025-09-13T15:46:24+02:00</time>
      </trkpt>
      <trkpt lat="42.76393" lon="1.36248">
        <ele>1293.1006</ele>
        <time>2025-09-13T15:46:25+02:00</time>
      </trkpt>
      <trkpt lat="42.76395" lon="1.3625">
        <ele>1296.7998</ele>
        <time>2025-09-13T15:46:29+02:00</time>
      </trkpt>
      <trkpt lat="42.76395" lon="1.3625">
        <ele>1296.7998</ele>
        <time>2025-09-13T15:46:30+02:00</time>
      </trkpt>
      <trkpt lat="42.76397" lon="1.36252">
        <ele>1296.9004</ele>
        <time>2025-09-13T15:46:34+02:00</time>
      </trkpt>
      <trkpt lat="42.76397" lon="1.36252">
        <ele>1296.9004</ele>
        <time>2025-09-13T15:46:35+02:00</time>
      </trkpt>
      <trkpt lat="42.76399" lon="1.36255">
        <ele>1296.9004</ele>
        <time>2025-09-13T15:46:39+02:00</time>
      </trkpt>
      <trkpt lat="42.76399" lon="1.36255">
        <ele>1296.9004</ele>
        <time>2025-09-13T15:46:40+02:00</time>
      </trkpt>
      <trkpt lat="42.764" lon="1.36257">
        <ele>1300.9004</ele>
        <time>2025-09-13T15:46:44+02:00</time>
      </trkpt>
      <trkpt lat="42.764" lon="1.36258">
        <ele>1300.9004</ele>
        <time>2025-09-13T15:46:45+02:00</time>
      </trkpt>
      <trkpt lat="42.76399" lon="1.3626">
        <ele>1300.9004</ele>
        <time>2025-09-13T15:46:49+02:00</time>
      </trkpt>
      <trkpt lat="42.76399" lon="1.3626">
        <ele>1300.9004</ele>
        <time>2025-09-13T15:46:50+02:00</time>
      </trkpt>
      <trkpt lat="42.76399" lon="1.36263">
        <ele>1300.9004</ele>
        <time>2025-09-13T15:46:54+02:00</time>
      </trkpt>
      <trkpt lat="42.76399" lon="1.36263">
        <ele>1300.9004</ele>
        <time>2025-09-13T15:46:55+02:00</time>
      </trkpt>
      <trkpt lat="42.76397" lon="1.36266">
        <ele>1305</ele>
        <time>2025-09-13T15:46:59+02:00</time>
      </trkpt>
      <trkpt lat="42.76397" lon="1.36266">
        <ele>1305</ele>
        <time>2025-09-13T15:47:00+02:00</time>
      </trkpt>
      <trkpt lat="42.76396" lon="1.36269">
        <ele>1304.7998</ele>
        <time>2025-09-13T15:47:04+02:00</time>
      </trkpt>
      <trkpt lat="42.76396" lon="1.36269">
        <ele>1304.7998</ele>
        <time>2025-09-13T15:47:05+02:00</time>
      </trkpt>
      <trkpt lat="42.76397" lon="1.36269">
        <ele>1305</ele>
        <time>2025-09-13T15:47:09+02:00</time>
      </trkpt>
      <trkpt lat="42.76397" lon="1.36269">
        <ele>1305</ele>
        <time>2025-09-13T15:47:10+02:00</time>
      </trkpt>
      <trkpt lat="42.76394" lon="1.36269">
        <ele>1304.7998</ele>
        <time>2025-09-13T15:47:14+02:00</time>
      </trkpt>
      <trkpt lat="42.76393" lon="1.36269">
        <ele>1304.7998</ele>
        <time>2025-09-13T15:47:15+02:00</time>
      </trkpt>
      <trkpt lat="42.76389" lon="1.3627">
        <ele>1304.7998</ele>
        <time>2025-09-13T15:47:19+02:00</time>
      </trkpt>
      <trkpt lat="42.76388" lon="1.3627">
        <ele>1304.7998</ele>
        <time>2025-09-13T15:47:20+02:00</time>
      </trkpt>
      <trkpt lat="42.76385" lon="1.36272">
        <ele>1304.7998</ele>
        <time>2025-09-13T15:47:24+02:00</time>
      </trkpt>
      <trkpt lat="42.76385" lon="1.36273">
        <ele>1304.7998</ele>
        <time>2025-09-13T15:47:25+02:00</time>
      </trkpt>
      <trkpt lat="42.76382" lon="1.36274">
        <ele>1309.4004</ele>
        <time>2025-09-13T15:47:29+02:00</time>
      </trkpt>
      <trkpt lat="42.76381" lon="1.36274">
        <ele>1309.4004</ele>
        <time>2025-09-13T15:47:30+02:00</time>
      </trkpt>
      <trkpt lat="42.76378" lon="1.36275">
        <ele>1309.4004</ele>
        <time>2025-09-13T15:47:34+02:00</time>
      </trkpt>
      <trkpt lat="42.76378" lon="1.36275">
        <ele>1309.4004</ele>
        <time>2025-09-13T15:47:35+02:00</time>
      </trkpt>
      <trkpt lat="42.76376" lon="1.36276">
        <ele>1309.9004</ele>
        <time>2025-09-13T15:47:38+02:00</time>
      </trkpt>
      <trkpt lat="42.76375" lon="1.36276">
        <ele>1309.9004</ele>
        <time>2025-09-13T15:47:40+02:00</time>
      </trkpt>
      <trkpt lat="42.76373" lon="1.36276">
        <ele>1309.9004</ele>
        <time>2025-09-13T15:47:44+02:00</time>
      </trkpt>
      <trkpt lat="42.76373" lon="1.36276">
        <ele>1309.9004</ele>
        <time>2025-09-13T15:47:45+02:00</time>
      </trkpt>
      <trkpt lat="42.76372" lon="1.36277">
        <ele>1309.9004</ele>
        <time>2025-09-13T15:47:49+02:00</time>
      </trkpt>
      <trkpt lat="42.76371" lon="1.36278">
        <ele>1310.7002</ele>
        <time>2025-09-13T15:47:50+02:00</time>
      </trkpt>
      <trkpt lat="42.76369" lon="1.3628">
        <ele>1310.7002</ele>
        <time>2025-09-13T15:47:54+02:00</time>
      </trkpt>
      <trkpt lat="42.76369" lon="1.3628">
        <ele>1310.7002</ele>
        <time>2025-09-13T15:47:55+02:00</time>
      </trkpt>
      <trkpt lat="42.76368" lon="1.36281">
        <ele>1310.7002</ele>
        <time>2025-09-13T15:47:58+02:00</time>
      </trkpt>
      <trkpt lat="42.76368" lon="1.36281">
        <ele>1310.7002</ele>
        <time>2025-09-13T15:48:00+02:00</time>
      </trkpt>
      <trkpt lat="42.76364" lon="1.36283">
        <ele>1316.2998</ele>
        <time>2025-09-13T15:48:03+02:00</time>
      </trkpt>
      <trkpt lat="42.76363" lon="1.36284">
        <ele>1316.2998</ele>
        <time>2025-09-13T15:48:05+02:00</time>
      </trkpt>
      <trkpt lat="42.76362" lon="1.36287">
        <ele>1316.2998</ele>
        <time>2025-09-13T15:48:09+02:00</time>
      </trkpt>
      <trkpt lat="42.76361" lon="1.36287">
        <ele>1316.2998</ele>
        <time>2025-09-13T15:48:10+02:00</time>
      </trkpt>
      <trkpt lat="42.7636" lon="1.36286">
        <ele>1316.2998</ele>
        <time>2025-09-13T15:48:14+02:00</time>
      </trkpt>
      <trkpt lat="42.7636" lon="1.36286">
        <ele>1316.2998</ele>
        <time>2025-09-13T15:48:15+02:00</time>
      </trkpt>
      <trkpt lat="42.76357" lon="1.36285">
        <ele>1317.7998</ele>
        <time>2025-09-13T15:48:19+02:00</time>
      </trkpt>
      <trkpt lat="42.76357" lon="1.36285">
        <ele>1317.7998</ele>
        <time>2025-09-13T15:48:20+02:00</time>
      </trkpt>
      <trkpt lat="42.76352" lon="1.36285">
        <ele>1319.7002</ele>
        <time>2025-09-13T15:48:24+02:00</time>
      </trkpt>
      <trkpt lat="42.76351" lon="1.36285">
        <ele>1319.7002</ele>
        <time>2025-09-13T15:48:25+02:00</time>
      </trkpt>
      <trkpt lat="42.76349" lon="1.36284">
        <ele>1319.7002</ele>
        <time>2025-09-13T15:48:29+02:00</time>
      </trkpt>
      <trkpt lat="42.76348" lon="1.36285">
        <ele>1319.7002</ele>
        <time>2025-09-13T15:48:30+02:00</time>
      </trkpt>
      <trkpt lat="42.76347" lon="1.36285">
        <ele>1319.7002</ele>
        <time>2025-09-13T15:48:34+02:00</time>
      </trkpt>
      <trkpt lat="42.76346" lon="1.36286">
        <ele>1319.7002</ele>
        <time>2025-09-13T15:48:35+02:00</time>
      </trkpt>
      <trkpt lat="42.76343" lon="1.36286">
        <ele>1322.2998</ele>
        <time>2025-09-13T15:48:39+02:00</time>
      </trkpt>
      <trkpt lat="42.76342" lon="1.36286">
        <ele>1322.2998</ele>
        <time>2025-09-13T15:48:40+02:00</time>
      </trkpt>
      <trkpt lat="42.7634" lon="1.36284">
        <ele>1322.2998</ele>
        <time>2025-09-13T15:48:44+02:00</time>
      </trkpt>
      <trkpt lat="42.76338" lon="1.36284">
        <ele>1326</ele>
        <time>2025-09-13T15:48:49+02:00</time>
      </trkpt>
      <trkpt lat="42.76338" lon="1.36284">
        <ele>1326</ele>
        <time>2025-09-13T15:48:50+02:00</time>
      </trkpt>
      <trkpt lat="42.76338" lon="1.36285">
        <ele>1326</ele>
        <time>2025-09-13T15:48:54+02:00</time>
      </trkpt>
      <trkpt lat="42.76338" lon="1.36285">
        <ele>1326</ele>
        <time>2025-09-13T15:48:55+02:00</time>
      </trkpt>
      <trkpt lat="42.76338" lon="1.36285">
        <ele>1326</ele>
        <time>2025-09-13T15:48:59+02:00</time>
      </trkpt>
      <trkpt lat="42.76338" lon="1.36285">
        <ele>1326</ele>
        <time>2025-09-13T15:49:00+02:00</time>
      </trkpt>
      <trkpt lat="42.76338" lon="1.36286">
        <ele>1326</ele>
        <time>2025-09-13T15:49:04+02:00</time>
      </trkpt>
      <trkpt lat="42.76338" lon="1.36287">
        <ele>1326</ele>
        <time>2025-09-13T15:49:05+02:00</time>
      </trkpt>
      <trkpt lat="42.76336" lon="1.36289">
        <ele>1326</ele>
        <time>2025-09-13T15:49:10+02:00</time>
      </trkpt>
      <trkpt lat="42.76335" lon="1.3629">
        <ele>1326</ele>
        <time>2025-09-13T15:49:15+02:00</time>
      </trkpt>
      <trkpt lat="42.76335" lon="1.3629">
        <ele>1326</ele>
        <time>2025-09-13T15:49:16+02:00</time>
      </trkpt>
      <trkpt lat="42.76335" lon="1.36291">
        <ele>1329.9004</ele>
        <time>2025-09-13T15:49:20+02:00</time>
      </trkpt>
      <trkpt lat="42.76335" lon="1.36292">
        <ele>1329.9004</ele>
        <time>2025-09-13T15:49:21+02:00</time>
      </trkpt>
      <trkpt lat="42.76335" lon="1.36293">
        <ele>1329.9004</ele>
        <time>2025-09-13T15:49:25+02:00</time>
      </trkpt>
      <trkpt lat="42.76335" lon="1.36294">
        <ele>1329.9004</ele>
        <time>2025-09-13T15:49:26+02:00</time>
      </trkpt>
      <trkpt lat="42.76336" lon="1.36296">
        <ele>1329.9004</ele>
        <time>2025-09-13T15:49:30+02:00</time>
      </trkpt>
      <trkpt lat="42.76337" lon="1.36297">
        <ele>1329.9004</ele>
        <time>2025-09-13T15:49:31+02:00</time>
      </trkpt>
      <trkpt lat="42.76338" lon="1.36299">
        <ele>1334</ele>
        <time>2025-09-13T15:49:35+02:00</time>
      </trkpt>
      <trkpt lat="42.76338" lon="1.363">
        <ele>1334</ele>
        <time>2025-09-13T15:49:36+02:00</time>
      </trkpt>
      <trkpt lat="42.7634" lon="1.36302">
        <ele>1330.2002</ele>
        <time>2025-09-13T15:49:40+02:00</time>
      </trkpt>
      <trkpt lat="42.76341" lon="1.36303">
        <ele>1330.2002</ele>
        <time>2025-09-13T15:49:41+02:00</time>
      </trkpt>
      <trkpt lat="42.76343" lon="1.36305">
        <ele>1330.2002</ele>
        <time>2025-09-13T15:49:45+02:00</time>
      </trkpt>
      <trkpt lat="42.76343" lon="1.36305">
        <ele>1330.2002</ele>
        <time>2025-09-13T15:49:46+02:00</time>
      </trkpt>
      <trkpt lat="42.76345" lon="1.36307">
        <ele>1330.2002</ele>
        <time>2025-09-13T15:49:51+02:00</time>
      </trkpt>
      <trkpt lat="42.76345" lon="1.36307">
        <ele>1330.2002</ele>
        <time>2025-09-13T15:49:52+02:00</time>
      </trkpt>
      <trkpt lat="42.76347" lon="1.36309">
        <ele>1332.1006</ele>
        <time>2025-09-13T15:49:56+02:00</time>
      </trkpt>
      <trkpt lat="42.76347" lon="1.36309">
        <ele>1332.1006</ele>
        <time>2025-09-13T15:49:57+02:00</time>
      </trkpt>
      <trkpt lat="42.76348" lon="1.36311">
        <ele>1332.1006</ele>
        <time>2025-09-13T15:50:01+02:00</time>
      </trkpt>
      <trkpt lat="42.76349" lon="1.36313">
        <ele>1332.1006</ele>
        <time>2025-09-13T15:50:06+02:00</time>
      </trkpt>
      <trkpt lat="42.76349" lon="1.36314">
        <ele>1332.1006</ele>
        <time>2025-09-13T15:50:07+02:00</time>
      </trkpt>
      <trkpt lat="42.7635" lon="1.36315">
        <ele>1332.1006</ele>
        <time>2025-09-13T15:50:11+02:00</time>
      </trkpt>
      <trkpt lat="42.7635" lon="1.36316">
        <ele>1332.1006</ele>
        <time>2025-09-13T15:50:12+02:00</time>
      </trkpt>
      <trkpt lat="42.76352" lon="1.36317">
        <ele>1336.7002</ele>
        <time>2025-09-13T15:50:16+02:00</time>
      </trkpt>
      <trkpt lat="42.76352" lon="1.36317">
        <ele>1335.1006</ele>
        <time>2025-09-13T15:50:17+02:00</time>
      </trkpt>
      <trkpt lat="42.76355" lon="1.36318">
        <ele>1335.1006</ele>
        <time>2025-09-13T15:50:21+02:00</time>
      </trkpt>
      <trkpt lat="42.76355" lon="1.36318">
        <ele>1335.1006</ele>
        <time>2025-09-13T15:50:22+02:00</time>
      </trkpt>
      <trkpt lat="42.76358" lon="1.36319">
        <ele>1335.1006</ele>
        <time>2025-09-13T15:50:26+02:00</time>
      </trkpt>
      <trkpt lat="42.76359" lon="1.36319">
        <ele>1335.1006</ele>
        <time>2025-09-13T15:50:27+02:00</time>
      </trkpt>
      <trkpt lat="42.7636" lon="1.3632">
        <ele>1333.9004</ele>
        <time>2025-09-13T15:50:31+02:00</time>
      </trkpt>
      <trkpt lat="42.76361" lon="1.3632">
        <ele>1333.9004</ele>
        <time>2025-09-13T15:50:32+02:00</time>
      </trkpt>
      <trkpt lat="42.76363" lon="1.36321">
        <ele>1333.9004</ele>
        <time>2025-09-13T15:50:36+02:00</time>
      </trkpt>
      <trkpt lat="42.76364" lon="1.36322">
        <ele>1333.9004</ele>
        <time>2025-09-13T15:50:37+02:00</time>
      </trkpt>
      <trkpt lat="42.76366" lon="1.36323">
        <ele>1332.9004</ele>
        <time>2025-09-13T15:50:41+02:00</time>
      </trkpt>
      <trkpt lat="42.76366" lon="1.36323">
        <ele>1332.9004</ele>
        <time>2025-09-13T15:50:42+02:00</time>
      </trkpt>
      <trkpt lat="42.76369" lon="1.36323">
        <ele>1332.9004</ele>
        <time>2025-09-13T15:50:47+02:00</time>
      </trkpt>
      <trkpt lat="42.76369" lon="1.36323">
        <ele>1332.9004</ele>
        <time>2025-09-13T15:50:48+02:00</time>
      </trkpt>
      <trkpt lat="42.76372" lon="1.36323">
        <ele>1332.1006</ele>
        <time>2025-09-13T15:50:52+02:00</time>
      </trkpt>
      <trkpt lat="42.76373" lon="1.36323">
        <ele>1332.1006</ele>
        <time>2025-09-13T15:50:53+02:00</time>
      </trkpt>
      <trkpt lat="42.76375" lon="1.36324">
        <ele>1332.1006</ele>
        <time>2025-09-13T15:50:57+02:00</time>
      </trkpt>
      <trkpt lat="42.76375" lon="1.36324">
        <ele>1332.1006</ele>
        <time>2025-09-13T15:50:58+02:00</time>
      </trkpt>
      <trkpt lat="42.76377" lon="1.36325">
        <ele>1332.1006</ele>
        <time>2025-09-13T15:51:02+02:00</time>
      </trkpt>
      <trkpt lat="42.76377" lon="1.36325">
        <ele>1332.1006</ele>
        <time>2025-09-13T15:51:03+02:00</time>
      </trkpt>
      <trkpt lat="42.76379" lon="1.36325">
        <ele>1335.9004</ele>
        <time>2025-09-13T15:51:07+02:00</time>
      </trkpt>
      <trkpt lat="42.76379" lon="1.36326">
        <ele>1335.9004</ele>
        <time>2025-09-13T15:51:08+02:00</time>
      </trkpt>
      <trkpt lat="42.7638" lon="1.36327">
        <ele>1335.9004</ele>
        <time>2025-09-13T15:51:12+02:00</time>
      </trkpt>
      <trkpt lat="42.7638" lon="1.36327">
        <ele>1335.9004</ele>
        <time>2025-09-13T15:51:13+02:00</time>
      </trkpt>
      <trkpt lat="42.76381" lon="1.36328">
        <ele>1335.9004</ele>
        <time>2025-09-13T15:51:17+02:00</time>
      </trkpt>
      <trkpt lat="42.76381" lon="1.36328">
        <ele>1335.9004</ele>
        <time>2025-09-13T15:51:18+02:00</time>
      </trkpt>
      <trkpt lat="42.76382" lon="1.36329">
        <ele>1335.9004</ele>
        <time>2025-09-13T15:51:23+02:00</time>
      </trkpt>
      <trkpt lat="42.76382" lon="1.36329">
        <ele>1335.9004</ele>
        <time>2025-09-13T15:51:24+02:00</time>
      </trkpt>
      <trkpt lat="42.76382" lon="1.36331">
        <ele>1335.9004</ele>
        <time>2025-09-13T15:51:28+02:00</time>
      </trkpt>
      <trkpt lat="42.76382" lon="1.36332">
        <ele>1335.9004</ele>
        <time>2025-09-13T15:51:29+02:00</time>
      </trkpt>
      <trkpt lat="42.76381" lon="1.36334">
        <ele>1340.7002</ele>
        <time>2025-09-13T15:51:33+02:00</time>
      </trkpt>
      <trkpt lat="42.76381" lon="1.36334">
        <ele>1340.7002</ele>
        <time>2025-09-13T15:51:34+02:00</time>
      </trkpt>
      <trkpt lat="42.7638" lon="1.36337">
        <ele>1340.7002</ele>
        <time>2025-09-13T15:51:38+02:00</time>
      </trkpt>
      <trkpt lat="42.7638" lon="1.36338">
        <ele>1340.7002</ele>
        <time>2025-09-13T15:51:39+02:00</time>
      </trkpt>
      <trkpt lat="42.76378" lon="1.36343">
        <ele>1345.6006</ele>
        <time>2025-09-13T15:51:42+02:00</time>
      </trkpt>
      <trkpt lat="42.76377" lon="1.36345">
        <ele>1346.4004</ele>
        <time>2025-09-13T15:51:44+02:00</time>
      </trkpt>
      <trkpt lat="42.76377" lon="1.36347">
        <ele>1346.4004</ele>
        <time>2025-09-13T15:51:48+02:00</time>
      </trkpt>
      <trkpt lat="42.76377" lon="1.36347">
        <ele>1346.4004</ele>
        <time>2025-09-13T15:51:49+02:00</time>
      </trkpt>
      <trkpt lat="42.76377" lon="1.36348">
        <ele>1346.4004</ele>
        <time>2025-09-13T15:51:54+02:00</time>
      </trkpt>
      <trkpt lat="42.76377" lon="1.36349">
        <ele>1346.4004</ele>
        <time>2025-09-13T15:51:55+02:00</time>
      </trkpt>
      <trkpt lat="42.76377" lon="1.36349">
        <ele>1346.4004</ele>
        <time>2025-09-13T15:51:58+02:00</time>
      </trkpt>
      <trkpt lat="42.76376" lon="1.3635">
        <ele>1346.4004</ele>
        <time>2025-09-13T15:52:00+02:00</time>
      </trkpt>
      <trkpt lat="42.76375" lon="1.36351">
        <ele>1351.6006</ele>
        <time>2025-09-13T15:52:04+02:00</time>
      </trkpt>
      <trkpt lat="42.76375" lon="1.36351">
        <ele>1351.6006</ele>
        <time>2025-09-13T15:52:05+02:00</time>
      </trkpt>
      <trkpt lat="42.76373" lon="1.36351">
        <ele>1351.6006</ele>
        <time>2025-09-13T15:52:09+02:00</time>
      </trkpt>
      <trkpt lat="42.76372" lon="1.36351">
        <ele>1351.6006</ele>
        <time>2025-09-13T15:52:10+02:00</time>
      </trkpt>
      <trkpt lat="42.76368" lon="1.3635">
        <ele>1347.2998</ele>
        <time>2025-09-13T15:52:14+02:00</time>
      </trkpt>
      <trkpt lat="42.76367" lon="1.36349">
        <ele>1347.2998</ele>
        <time>2025-09-13T15:52:15+02:00</time>
      </trkpt>
      <trkpt lat="42.76363" lon="1.3635">
        <ele>1348.4004</ele>
        <time>2025-09-13T15:52:19+02:00</time>
      </trkpt>
      <trkpt lat="42.76362" lon="1.3635">
        <ele>1348.4004</ele>
        <time>2025-09-13T15:52:20+02:00</time>
      </trkpt>
      <trkpt lat="42.76359" lon="1.36351">
        <ele>1348.4004</ele>
        <time>2025-09-13T15:52:24+02:00</time>
      </trkpt>
      <trkpt lat="42.76358" lon="1.36351">
        <ele>1355.2998</ele>
        <time>2025-09-13T15:52:25+02:00</time>
      </trkpt>
      <trkpt lat="42.76358" lon="1.36353">
        <ele>1355.2998</ele>
        <time>2025-09-13T15:52:29+02:00</time>
      </trkpt>
      <trkpt lat="42.76358" lon="1.36353">
        <ele>1355.2998</ele>
        <time>2025-09-13T15:52:30+02:00</time>
      </trkpt>
      <trkpt lat="42.76357" lon="1.36353">
        <ele>1355.2998</ele>
        <time>2025-09-13T15:52:34+02:00</time>
      </trkpt>
      <trkpt lat="42.76357" lon="1.36353">
        <ele>1355.2998</ele>
        <time>2025-09-13T15:52:35+02:00</time>
      </trkpt>
      <trkpt lat="42.76357" lon="1.36355">
        <ele>1355.2998</ele>
        <time>2025-09-13T15:52:39+02:00</time>
      </trkpt>
      <trkpt lat="42.76357" lon="1.36355">
        <ele>1355.2998</ele>
        <time>2025-09-13T15:52:40+02:00</time>
      </trkpt>
      <trkpt lat="42.76356" lon="1.36357">
        <ele>1355.2998</ele>
        <time>2025-09-13T15:52:44+02:00</time>
      </trkpt>
      <trkpt lat="42.76356" lon="1.36357">
        <ele>1355.2998</ele>
        <time>2025-09-13T15:52:45+02:00</time>
      </trkpt>
      <trkpt lat="42.76356" lon="1.36357">
        <ele>1355.2998</ele>
        <time>2025-09-13T15:52:49+02:00</time>
      </trkpt>
      <trkpt lat="42.76356" lon="1.36357">
        <ele>1355.2998</ele>
        <time>2025-09-13T15:52:50+02:00</time>
      </trkpt>
      <trkpt lat="42.76355" lon="1.36358">
        <ele>1355.2998</ele>
        <time>2025-09-13T15:52:54+02:00</time>
      </trkpt>
      <trkpt lat="42.76355" lon="1.36359">
        <ele>1360.9004</ele>
        <time>2025-09-13T15:52:59+02:00</time>
      </trkpt>
      <trkpt lat="42.76355" lon="1.3636">
        <ele>1360.9004</ele>
        <time>2025-09-13T15:53:00+02:00</time>
      </trkpt>
      <trkpt lat="42.76353" lon="1.36361">
        <ele>1360.9004</ele>
        <time>2025-09-13T15:53:04+02:00</time>
      </trkpt>
      <trkpt lat="42.76352" lon="1.36361">
        <ele>1362.4004</ele>
        <time>2025-09-13T15:53:05+02:00</time>
      </trkpt>
      <trkpt lat="42.7635" lon="1.36361">
        <ele>1362.4004</ele>
        <time>2025-09-13T15:53:09+02:00</time>
      </trkpt>
      <trkpt lat="42.76349" lon="1.36361">
        <ele>1362.4004</ele>
        <time>2025-09-13T15:53:10+02:00</time>
      </trkpt>
      <trkpt lat="42.76346" lon="1.36359">
        <ele>1363.9004</ele>
        <time>2025-09-13T15:53:14+02:00</time>
      </trkpt>
      <trkpt lat="42.76344" lon="1.36359">
        <ele>1358.5</ele>
        <time>2025-09-13T15:53:15+02:00</time>
      </trkpt>
      <trkpt lat="42.76343" lon="1.36358">
        <ele>1358.5</ele>
        <time>2025-09-13T15:53:19+02:00</time>
      </trkpt>
      <trkpt lat="42.76343" lon="1.36358">
        <ele>1358.5</ele>
        <time>2025-09-13T15:53:20+02:00</time>
      </trkpt>
      <trkpt lat="42.76342" lon="1.36358">
        <ele>1358.5</ele>
        <time>2025-09-13T15:53:25+02:00</time>
      </trkpt>
      <trkpt lat="42.76343" lon="1.36358">
        <ele>1358.5</ele>
        <time>2025-09-13T15:53:26+02:00</time>
      </trkpt>
      <trkpt lat="42.76343" lon="1.36358">
        <ele>1358.5</ele>
        <time>2025-09-13T15:53:30+02:00</time>
      </trkpt>
      <trkpt lat="42.76343" lon="1.36358">
        <ele>1358.5</ele>
        <time>2025-09-13T15:53:31+02:00</time>
      </trkpt>
      <trkpt lat="42.76342" lon="1.36358">
        <ele>1358.5</ele>
        <time>2025-09-13T15:53:35+02:00</time>
      </trkpt>
      <trkpt lat="42.76342" lon="1.36359">
        <ele>1358.5</ele>
        <time>2025-09-13T15:53:36+02:00</time>
      </trkpt>
      <trkpt lat="42.76341" lon="1.3636">
        <ele>1363.9004</ele>
        <time>2025-09-13T15:53:40+02:00</time>
      </trkpt>
      <trkpt lat="42.76341" lon="1.3636">
        <ele>1363.9004</ele>
        <time>2025-09-13T15:53:41+02:00</time>
      </trkpt>
      <trkpt lat="42.76342" lon="1.36361">
        <ele>1363.9004</ele>
        <time>2025-09-13T15:53:45+02:00</time>
      </trkpt>
      <trkpt lat="42.76342" lon="1.36362">
        <ele>1363.9004</ele>
        <time>2025-09-13T15:53:46+02:00</time>
      </trkpt>
      <trkpt lat="42.76343" lon="1.36362">
        <ele>1363.9004</ele>
        <time>2025-09-13T15:53:50+02:00</time>
      </trkpt>
      <trkpt lat="42.76343" lon="1.36362">
        <ele>1363.9004</ele>
        <time>2025-09-13T15:53:51+02:00</time>
      </trkpt>
      <trkpt lat="42.76344" lon="1.36364">
        <ele>1363.9004</ele>
        <time>2025-09-13T15:53:55+02:00</time>
      </trkpt>
      <trkpt lat="42.76344" lon="1.36364">
        <ele>1363.9004</ele>
        <time>2025-09-13T15:53:56+02:00</time>
      </trkpt>
      <trkpt lat="42.76344" lon="1.36365">
        <ele>1363.9004</ele>
        <time>2025-09-13T15:54:00+02:00</time>
      </trkpt>
      <trkpt lat="42.76344" lon="1.36365">
        <ele>1363.9004</ele>
        <time>2025-09-13T15:54:01+02:00</time>
      </trkpt>
      <trkpt lat="42.76345" lon="1.36366">
        <ele>1363.9004</ele>
        <time>2025-09-13T15:54:05+02:00</time>
      </trkpt>
      <trkpt lat="42.76345" lon="1.36366">
        <ele>1363.9004</ele>
        <time>2025-09-13T15:54:06+02:00</time>
      </trkpt>
      <trkpt lat="42.76346" lon="1.36366">
        <ele>1363.9004</ele>
        <time>2025-09-13T15:54:11+02:00</time>
      </trkpt>
      <trkpt lat="42.76346" lon="1.36367">
        <ele>1362.4004</ele>
        <time>2025-09-13T15:54:12+02:00</time>
      </trkpt>
      <trkpt lat="42.76348" lon="1.36367">
        <ele>1362.4004</ele>
        <time>2025-09-13T15:54:16+02:00</time>
      </trkpt>
      <trkpt lat="42.76348" lon="1.36367">
        <ele>1362.4004</ele>
        <time>2025-09-13T15:54:17+02:00</time>
      </trkpt>
      <trkpt lat="42.76348" lon="1.36367">
        <ele>1362.4004</ele>
        <time>2025-09-13T15:54:21+02:00</time>
      </trkpt>
      <trkpt lat="42.76348" lon="1.36367">
        <ele>1362.4004</ele>
        <time>2025-09-13T15:54:22+02:00</time>
      </trkpt>
      <trkpt lat="42.76349" lon="1.36368">
        <ele>1368.1006</ele>
        <time>2025-09-13T15:54:26+02:00</time>
      </trkpt>
      <trkpt lat="42.76349" lon="1.36368">
        <ele>1368.1006</ele>
        <time>2025-09-13T15:54:27+02:00</time>
      </trkpt>
      <trkpt lat="42.76349" lon="1.36369">
        <ele>1368.1006</ele>
        <time>2025-09-13T15:54:32+02:00</time>
      </trkpt>
      <trkpt lat="42.7635" lon="1.36369">
        <ele>1368.1006</ele>
        <time>2025-09-13T15:54:33+02:00</time>
      </trkpt>
      <trkpt lat="42.7635" lon="1.3637">
        <ele>1368.1006</ele>
        <time>2025-09-13T15:54:37+02:00</time>
      </trkpt>
      <trkpt lat="42.7635" lon="1.3637">
        <ele>1368.1006</ele>
        <time>2025-09-13T15:54:38+02:00</time>
      </trkpt>
      <trkpt lat="42.7635" lon="1.36371">
        <ele>1368.1006</ele>
        <time>2025-09-13T15:54:43+02:00</time>
      </trkpt>
      <trkpt lat="42.7635" lon="1.36371">
        <ele>1368.1006</ele>
        <time>2025-09-13T15:54:44+02:00</time>
      </trkpt>
      <trkpt lat="42.7635" lon="1.36372">
        <ele>1368.1006</ele>
        <time>2025-09-13T15:54:48+02:00</time>
      </trkpt>
      <trkpt lat="42.76351" lon="1.36372">
        <ele>1368.1006</ele>
        <time>2025-09-13T15:54:49+02:00</time>
      </trkpt>
      <trkpt lat="42.76351" lon="1.36372">
        <ele>1368.1006</ele>
        <time>2025-09-13T15:54:53+02:00</time>
      </trkpt>
      <trkpt lat="42.76351" lon="1.36371">
        <ele>1368.1006</ele>
        <time>2025-09-13T15:54:54+02:00</time>
      </trkpt>
      <trkpt lat="42.76352" lon="1.36372">
        <ele>1368.1006</ele>
        <time>2025-09-13T15:54:58+02:00</time>
      </trkpt>
      <trkpt lat="42.76352" lon="1.36372">
        <ele>1368.1006</ele>
        <time>2025-09-13T15:54:59+02:00</time>
      </trkpt>
      <trkpt lat="42.76354" lon="1.36374">
        <ele>1366.7998</ele>
        <time>2025-09-13T15:55:03+02:00</time>
      </trkpt>
      <trkpt lat="42.76355" lon="1.36375">
        <ele>1366.7998</ele>
        <time>2025-09-13T15:55:04+02:00</time>
      </trkpt>
      <trkpt lat="42.76357" lon="1.36377">
        <ele>1372.7998</ele>
        <time>2025-09-13T15:55:08+02:00</time>
      </trkpt>
      <trkpt lat="42.76357" lon="1.36378">
        <ele>1372.7998</ele>
        <time>2025-09-13T15:55:09+02:00</time>
      </trkpt>
      <trkpt lat="42.76358" lon="1.36379">
        <ele>1372.7998</ele>
        <time>2025-09-13T15:55:13+02:00</time>
      </trkpt>
      <trkpt lat="42.76358" lon="1.3638">
        <ele>1372.7998</ele>
        <time>2025-09-13T15:55:14+02:00</time>
      </trkpt>
      <trkpt lat="42.76358" lon="1.36381">
        <ele>1372.7998</ele>
        <time>2025-09-13T15:55:18+02:00</time>
      </trkpt>
      <trkpt lat="42.76358" lon="1.36381">
        <ele>1372.7998</ele>
        <time>2025-09-13T15:55:19+02:00</time>
      </trkpt>
      <trkpt lat="42.76357" lon="1.36383">
        <ele>1372.7998</ele>
        <time>2025-09-13T15:55:23+02:00</time>
      </trkpt>
      <trkpt lat="42.76358" lon="1.36383">
        <ele>1372.7998</ele>
        <time>2025-09-13T15:55:24+02:00</time>
      </trkpt>
      <trkpt lat="42.76357" lon="1.36384">
        <ele>1372.7998</ele>
        <time>2025-09-13T15:55:28+02:00</time>
      </trkpt>
      <trkpt lat="42.76357" lon="1.36384">
        <ele>1372.7998</ele>
        <time>2025-09-13T15:55:29+02:00</time>
      </trkpt>
      <trkpt lat="42.76358" lon="1.36385">
        <ele>1378.9004</ele>
        <time>2025-09-13T15:55:34+02:00</time>
      </trkpt>
      <trkpt lat="42.76358" lon="1.36386">
        <ele>1378.9004</ele>
        <time>2025-09-13T15:55:35+02:00</time>
      </trkpt>
      <trkpt lat="42.76356" lon="1.36388">
        <ele>1378.9004</ele>
        <time>2025-09-13T15:55:39+02:00</time>
      </trkpt>
      <trkpt lat="42.76356" lon="1.36388">
        <ele>1378.9004</ele>
        <time>2025-09-13T15:55:40+02:00</time>
      </trkpt>
      <trkpt lat="42.76355" lon="1.36389">
        <ele>1378.9004</ele>
        <time>2025-09-13T15:55:44+02:00</time>
      </trkpt>
      <trkpt lat="42.76355" lon="1.3639">
        <ele>1378.9004</ele>
        <time>2025-09-13T15:55:46+02:00</time>
      </trkpt>
      <trkpt lat="42.76352" lon="1.36391">
        <ele>1379.7998</ele>
        <time>2025-09-13T15:55:50+02:00</time>
      </trkpt>
      <trkpt lat="42.76352" lon="1.36391">
        <ele>1379.7998</ele>
        <time>2025-09-13T15:55:52+02:00</time>
      </trkpt>
      <trkpt lat="42.76352" lon="1.36392">
        <ele>1379.7998</ele>
        <time>2025-09-13T15:55:56+02:00</time>
      </trkpt>
      <trkpt lat="42.76351" lon="1.36392">
        <ele>1379.7998</ele>
        <time>2025-09-13T15:55:57+02:00</time>
      </trkpt>
      <trkpt lat="42.76351" lon="1.36392">
        <ele>1379.7998</ele>
        <time>2025-09-13T15:56:01+02:00</time>
      </trkpt>
      <trkpt lat="42.76351" lon="1.36392">
        <ele>1379.7998</ele>
        <time>2025-09-13T15:56:02+02:00</time>
      </trkpt>
      <trkpt lat="42.76351" lon="1.36392">
        <ele>1379.7998</ele>
        <time>2025-09-13T15:56:06+02:00</time>
      </trkpt>
      <trkpt lat="42.76351" lon="1.36392">
        <ele>1379.7998</ele>
        <time>2025-09-13T15:56:07+02:00</time>
      </trkpt>
      <trkpt lat="42.76349" lon="1.36396">
        <ele>1385.7002</ele>
        <time>2025-09-13T15:56:11+02:00</time>
      </trkpt>
      <trkpt lat="42.76349" lon="1.36397">
        <ele>1385.7002</ele>
        <time>2025-09-13T15:56:12+02:00</time>
      </trkpt>
      <trkpt lat="42.76348" lon="1.36396">
        <ele>1385.7002</ele>
        <time>2025-09-13T15:56:16+02:00</time>
      </trkpt>
      <trkpt lat="42.76348" lon="1.36396">
        <ele>1385.7002</ele>
        <time>2025-09-13T15:56:17+02:00</time>
      </trkpt>
      <trkpt lat="42.76347" lon="1.36395">
        <ele>1385.7002</ele>
        <time>2025-09-13T15:56:21+02:00</time>
      </trkpt>
      <trkpt lat="42.76348" lon="1.36395">
        <ele>1385.7002</ele>
        <time>2025-09-13T15:56:22+02:00</time>
      </trkpt>
      <trkpt lat="42.76347" lon="1.36395">
        <ele>1385.7002</ele>
        <time>2025-09-13T15:56:26+02:00</time>
      </trkpt>
      <trkpt lat="42.76347" lon="1.36395">
        <ele>1385.7002</ele>
        <time>2025-09-13T15:56:27+02:00</time>
      </trkpt>
      <trkpt lat="42.76347" lon="1.36395">
        <ele>1385.7002</ele>
        <time>2025-09-13T15:56:31+02:00</time>
      </trkpt>
      <trkpt lat="42.76347" lon="1.36395">
        <ele>1385.7002</ele>
        <time>2025-09-13T15:56:32+02:00</time>
      </trkpt>
      <trkpt lat="42.76347" lon="1.36395">
        <ele>1385.7002</ele>
        <time>2025-09-13T15:56:36+02:00</time>
      </trkpt>
      <trkpt lat="42.76347" lon="1.36395">
        <ele>1385.7002</ele>
        <time>2025-09-13T15:56:37+02:00</time>
      </trkpt>
      <trkpt lat="42.76347" lon="1.36395">
        <ele>1385.7002</ele>
        <time>2025-09-13T15:56:41+02:00</time>
      </trkpt>
      <trkpt lat="42.76346" lon="1.36394">
        <ele>1385.7002</ele>
        <time>2025-09-13T15:56:42+02:00</time>
      </trkpt>
      <trkpt lat="42.76344" lon="1.36392">
        <ele>1380.6006</ele>
        <time>2025-09-13T15:56:46+02:00</time>
      </trkpt>
      <trkpt lat="42.76344" lon="1.36392">
        <ele>1380.6006</ele>
        <time>2025-09-13T15:56:47+02:00</time>
      </trkpt>
      <trkpt lat="42.76344" lon="1.36392">
        <ele>1380.6006</ele>
        <time>2025-09-13T15:56:51+02:00</time>
      </trkpt>
      <trkpt lat="42.76344" lon="1.36392">
        <ele>1380.6006</ele>
        <time>2025-09-13T15:56:52+02:00</time>
      </trkpt>
      <trkpt lat="42.76344" lon="1.36392">
        <ele>1380.6006</ele>
        <time>2025-09-13T15:56:56+02:00</time>
      </trkpt>
      <trkpt lat="42.76344" lon="1.36392">
        <ele>1380.6006</ele>
        <time>2025-09-13T15:56:57+02:00</time>
      </trkpt>
      <trkpt lat="42.76344" lon="1.36391">
        <ele>1380.6006</ele>
        <time>2025-09-13T15:57:01+02:00</time>
      </trkpt>
      <trkpt lat="42.76344" lon="1.36391">
        <ele>1380.6006</ele>
        <time>2025-09-13T15:57:02+02:00</time>
      </trkpt>
      <trkpt lat="42.76343" lon="1.3639">
        <ele>1380.6006</ele>
        <time>2025-09-13T15:57:06+02:00</time>
      </trkpt>
      <trkpt lat="42.76343" lon="1.3639">
        <ele>1380.6006</ele>
        <time>2025-09-13T15:57:07+02:00</time>
      </trkpt>
      <trkpt lat="42.76343" lon="1.3639">
        <ele>1380.6006</ele>
        <time>2025-09-13T15:57:11+02:00</time>
      </trkpt>
      <trkpt lat="42.76344" lon="1.36389">
        <ele>1380.6006</ele>
        <time>2025-09-13T15:57:12+02:00</time>
      </trkpt>
      <trkpt lat="42.76344" lon="1.36389">
        <ele>1380.6006</ele>
        <time>2025-09-13T15:57:16+02:00</time>
      </trkpt>
      <trkpt lat="42.76344" lon="1.36389">
        <ele>1380.6006</ele>
        <time>2025-09-13T15:57:17+02:00</time>
      </trkpt>
      <trkpt lat="42.76344" lon="1.36389">
        <ele>1380.6006</ele>
        <time>2025-09-13T15:57:21+02:00</time>
      </trkpt>
      <trkpt lat="42.76344" lon="1.36389">
        <ele>1380.6006</ele>
        <time>2025-09-13T15:57:22+02:00</time>
      </trkpt>
      <trkpt lat="42.76344" lon="1.36389">
        <ele>1380.6006</ele>
        <time>2025-09-13T15:57:26+02:00</time>
      </trkpt>
      <trkpt lat="42.76344" lon="1.36389">
        <ele>1380.6006</ele>
        <time>2025-09-13T15:57:27+02:00</time>
      </trkpt>
      <trkpt lat="42.76344" lon="1.36389">
        <ele>1380.6006</ele>
        <time>2025-09-13T15:57:31+02:00</time>
      </trkpt>
      <trkpt lat="42.76344" lon="1.36389">
        <ele>1380.6006</ele>
        <time>2025-09-13T15:57:32+02:00</time>
      </trkpt>
      <trkpt lat="42.76344" lon="1.36389">
        <ele>1380.6006</ele>
        <time>2025-09-13T15:57:36+02:00</time>
      </trkpt>
      <trkpt lat="42.76344" lon="1.36389">
        <ele>1380.6006</ele>
        <time>2025-09-13T15:57:37+02:00</time>
      </trkpt>
      <trkpt lat="42.76344" lon="1.36389">
        <ele>1380.6006</ele>
        <time>2025-09-13T15:57:41+02:00</time>
      </trkpt>
      <trkpt lat="42.76344" lon="1.36389">
        <ele>1380.6006</ele>
        <time>2025-09-13T15:57:42+02:00</time>
      </trkpt>
      <trkpt lat="42.76344" lon="1.36389">
        <ele>1380.6006</ele>
        <time>2025-09-13T15:57:46+02:00</time>
      </trkpt>
      <trkpt lat="42.76344" lon="1.36389">
        <ele>1380.6006</ele>
        <time>2025-09-13T15:57:47+02:00</time>
      </trkpt>
      <trkpt lat="42.76344" lon="1.36389">
        <ele>1380.6006</ele>
        <time>2025-09-13T15:57:51+02:00</time>
      </trkpt>
      <trkpt lat="42.76344" lon="1.36389">
        <ele>1380.6006</ele>
        <time>2025-09-13T15:57:52+02:00</time>
      </trkpt>
      <trkpt lat="42.76344" lon="1.36389">
        <ele>1380.6006</ele>
        <time>2025-09-13T15:57:56+02:00</time>
      </trkpt>
      <trkpt lat="42.76344" lon="1.36389">
        <ele>1380.6006</ele>
        <time>2025-09-13T15:57:57+02:00</time>
      </trkpt>
      <trkpt lat="42.76344" lon="1.36389">
        <ele>1380.6006</ele>
        <time>2025-09-13T15:58:01+02:00</time>
      </trkpt>
      <trkpt lat="42.76344" lon="1.36389">
        <ele>1380.6006</ele>
        <time>2025-09-13T15:58:02+02:00</time>
      </trkpt>
      <trkpt lat="42.76344" lon="1.36389">
        <ele>1380.6006</ele>
        <time>2025-09-13T15:58:06+02:00</time>
      </trkpt>
      <trkpt lat="42.76344" lon="1.36389">
        <ele>1380.6006</ele>
        <time>2025-09-13T15:58:07+02:00</time>
      </trkpt>
      <trkpt lat="42.76344" lon="1.36389">
        <ele>1380.6006</ele>
        <time>2025-09-13T15:58:11+02:00</time>
      </trkpt>
      <trkpt lat="42.76344" lon="1.36389">
        <ele>1380.6006</ele>
        <time>2025-09-13T15:58:12+02:00</time>
      </trkpt>
      <trkpt lat="42.76344" lon="1.36389">
        <ele>1380.6006</ele>
        <time>2025-09-13T15:58:16+02:00</time>
      </trkpt>
      <trkpt lat="42.76344" lon="1.36389">
        <ele>1380.6006</ele>
        <time>2025-09-13T15:58:17+02:00</time>
      </trkpt>
      <trkpt lat="42.76344" lon="1.3639">
        <ele>1380.6006</ele>
        <time>2025-09-13T15:58:21+02:00</time>
      </trkpt>
      <trkpt lat="42.76344" lon="1.3639">
        <ele>1380.6006</ele>
        <time>2025-09-13T15:58:22+02:00</time>
      </trkpt>
      <trkpt lat="42.76344" lon="1.36389">
        <ele>1380.6006</ele>
        <time>2025-09-13T15:58:26+02:00</time>
      </trkpt>
      <trkpt lat="42.76344" lon="1.36389">
        <ele>1380.6006</ele>
        <time>2025-09-13T15:58:28+02:00</time>
      </trkpt>
      <trkpt lat="42.76344" lon="1.36389">
        <ele>1380.6006</ele>
        <time>2025-09-13T15:58:32+02:00</time>
      </trkpt>
      <trkpt lat="42.76344" lon="1.36389">
        <ele>1380.6006</ele>
        <time>2025-09-13T15:58:33+02:00</time>
      </trkpt>
      <trkpt lat="42.76344" lon="1.36388">
        <ele>1380.6006</ele>
        <time>2025-09-13T15:58:37+02:00</time>
      </trkpt>
      <trkpt lat="42.76344" lon="1.36388">
        <ele>1380.6006</ele>
        <time>2025-09-13T15:58:38+02:00</time>
      </trkpt>
      <trkpt lat="42.76345" lon="1.36388">
        <ele>1380.6006</ele>
        <time>2025-09-13T15:58:42+02:00</time>
      </trkpt>
      <trkpt lat="42.76344" lon="1.36388">
        <ele>1380.6006</ele>
        <time>2025-09-13T15:58:43+02:00</time>
      </trkpt>
      <trkpt lat="42.76344" lon="1.36388">
        <ele>1380.6006</ele>
        <time>2025-09-13T15:58:47+02:00</time>
      </trkpt>
      <trkpt lat="42.76343" lon="1.36388">
        <ele>1380.6006</ele>
        <time>2025-09-13T15:58:48+02:00</time>
      </trkpt>
      <trkpt lat="42.76344" lon="1.36388">
        <ele>1380.6006</ele>
        <time>2025-09-13T15:58:52+02:00</time>
      </trkpt>
      <trkpt lat="42.76343" lon="1.36388">
        <ele>1380.6006</ele>
        <time>2025-09-13T15:58:53+02:00</time>
      </trkpt>
      <trkpt lat="42.76342" lon="1.36386">
        <ele>1380.6006</ele>
        <time>2025-09-13T15:58:57+02:00</time>
      </trkpt>
      <trkpt lat="42.76341" lon="1.36386">
        <ele>1380.6006</ele>
        <time>2025-09-13T15:58:58+02:00</time>
      </trkpt>
      <trkpt lat="42.76339" lon="1.36385">
        <ele>1381.5</ele>
        <time>2025-09-13T15:59:03+02:00</time>
      </trkpt>
      <trkpt lat="42.76339" lon="1.36385">
        <ele>1376.2002</ele>
        <time>2025-09-13T15:59:04+02:00</time>
      </trkpt>
      <trkpt lat="42.76336" lon="1.36383">
        <ele>1376.2002</ele>
        <time>2025-09-13T15:59:09+02:00</time>
      </trkpt>
      <trkpt lat="42.76336" lon="1.36383">
        <ele>1376.2002</ele>
        <time>2025-09-13T15:59:10+02:00</time>
      </trkpt>
      <trkpt lat="42.76334" lon="1.36382">
        <ele>1376.2002</ele>
        <time>2025-09-13T15:59:14+02:00</time>
      </trkpt>
      <trkpt lat="42.76334" lon="1.36382">
        <ele>1376.2002</ele>
        <time>2025-09-13T15:59:15+02:00</time>
      </trkpt>
      <trkpt lat="42.76332" lon="1.36381">
        <ele>1377.5</ele>
        <time>2025-09-13T15:59:20+02:00</time>
      </trkpt>
      <trkpt lat="42.76332" lon="1.3638">
        <ele>1377.5</ele>
        <time>2025-09-13T15:59:21+02:00</time>
      </trkpt>
      <trkpt lat="42.7633" lon="1.36379">
        <ele>1377.5</ele>
        <time>2025-09-13T15:59:25+02:00</time>
      </trkpt>
      <trkpt lat="42.76329" lon="1.36378">
        <ele>1377.5</ele>
        <time>2025-09-13T15:59:26+02:00</time>
      </trkpt>
      <trkpt lat="42.76328" lon="1.36377">
        <ele>1377.5</ele>
        <time>2025-09-13T15:59:30+02:00</time>
      </trkpt>
      <trkpt lat="42.76327" lon="1.36377">
        <ele>1377.5</ele>
        <time>2025-09-13T15:59:31+02:00</time>
      </trkpt>
      <trkpt lat="42.76327" lon="1.36376">
        <ele>1379.2998</ele>
        <time>2025-09-13T15:59:35+02:00</time>
      </trkpt>
      <trkpt lat="42.76327" lon="1.36376">
        <ele>1374.5</ele>
        <time>2025-09-13T15:59:36+02:00</time>
      </trkpt>
      <trkpt lat="42.76326" lon="1.36376">
        <ele>1374.5</ele>
        <time>2025-09-13T15:59:41+02:00</time>
      </trkpt>
      <trkpt lat="42.76326" lon="1.36375">
        <ele>1374.5</ele>
        <time>2025-09-13T15:59:42+02:00</time>
      </trkpt>
      <trkpt lat="42.76324" lon="1.36372">
        <ele>1374.5</ele>
        <time>2025-09-13T15:59:46+02:00</time>
      </trkpt>
      <trkpt lat="42.76323" lon="1.36371">
        <ele>1374.5</ele>
        <time>2025-09-13T15:59:47+02:00</time>
      </trkpt>
      <trkpt lat="42.76321" lon="1.36368">
        <ele>1374.5</ele>
        <time>2025-09-13T15:59:51+02:00</time>
      </trkpt>
      <trkpt lat="42.7632" lon="1.36367">
        <ele>1372.2998</ele>
        <time>2025-09-13T15:59:52+02:00</time>
      </trkpt>
      <trkpt lat="42.76319" lon="1.36366">
        <ele>1372.2998</ele>
        <time>2025-09-13T15:59:56+02:00</time>
      </trkpt>
      <trkpt lat="42.76319" lon="1.36366">
        <ele>1372.2998</ele>
        <time>2025-09-13T15:59:57+02:00</time>
      </trkpt>
      <trkpt lat="42.76317" lon="1.36365">
        <ele>1372.2998</ele>
        <time>2025-09-13T16:00:01+02:00</time>
      </trkpt>
      <trkpt lat="42.76316" lon="1.36365">
        <ele>1372.2998</ele>
        <time>2025-09-13T16:00:02+02:00</time>
      </trkpt>
      <trkpt lat="42.76315" lon="1.36365">
        <ele>1372.2998</ele>
        <time>2025-09-13T16:00:06+02:00</time>
      </trkpt>
      <trkpt lat="42.76315" lon="1.36364">
        <ele>1372.2998</ele>
        <time>2025-09-13T16:00:07+02:00</time>
      </trkpt>
      <trkpt lat="42.76313" lon="1.36364">
        <ele>1374.9004</ele>
        <time>2025-09-13T16:00:11+02:00</time>
      </trkpt>
      <trkpt lat="42.76312" lon="1.36364">
        <ele>1374.9004</ele>
        <time>2025-09-13T16:00:12+02:00</time>
      </trkpt>
      <trkpt lat="42.76311" lon="1.36363">
        <ele>1374.9004</ele>
        <time>2025-09-13T16:00:16+02:00</time>
      </trkpt>
      <trkpt lat="42.76311" lon="1.36363">
        <ele>1374.9004</ele>
        <time>2025-09-13T16:00:17+02:00</time>
      </trkpt>
      <trkpt lat="42.76311" lon="1.36362">
        <ele>1374.9004</ele>
        <time>2025-09-13T16:00:21+02:00</time>
      </trkpt>
      <trkpt lat="42.76311" lon="1.36361">
        <ele>1374.9004</ele>
        <time>2025-09-13T16:00:22+02:00</time>
      </trkpt>
      <trkpt lat="42.7631" lon="1.36359">
        <ele>1374.9004</ele>
        <time>2025-09-13T16:00:26+02:00</time>
      </trkpt>
      <trkpt lat="42.7631" lon="1.36359">
        <ele>1370</ele>
        <time>2025-09-13T16:00:27+02:00</time>
      </trkpt>
      <trkpt lat="42.76309" lon="1.36357">
        <ele>1370</ele>
        <time>2025-09-13T16:00:31+02:00</time>
      </trkpt>
      <trkpt lat="42.76309" lon="1.36356">
        <ele>1370</ele>
        <time>2025-09-13T16:00:32+02:00</time>
      </trkpt>
      <trkpt lat="42.76308" lon="1.36352">
        <ele>1372.5</ele>
        <time>2025-09-13T16:00:36+02:00</time>
      </trkpt>
      <trkpt lat="42.76308" lon="1.36351">
        <ele>1372.5</ele>
        <time>2025-09-13T16:00:37+02:00</time>
      </trkpt>
      <trkpt lat="42.76306" lon="1.36348">
        <ele>1367.5</ele>
        <time>2025-09-13T16:00:41+02:00</time>
      </trkpt>
      <trkpt lat="42.76306" lon="1.36347">
        <ele>1367.5</ele>
        <time>2025-09-13T16:00:42+02:00</time>
      </trkpt>
      <trkpt lat="42.76304" lon="1.36345">
        <ele>1367.5</ele>
        <time>2025-09-13T16:00:46+02:00</time>
      </trkpt>
      <trkpt lat="42.76304" lon="1.36345">
        <ele>1367.5</ele>
        <time>2025-09-13T16:00:47+02:00</time>
      </trkpt>
      <trkpt lat="42.76303" lon="1.36344">
        <ele>1367.5</ele>
        <time>2025-09-13T16:00:51+02:00</time>
      </trkpt>
      <trkpt lat="42.76303" lon="1.36344">
        <ele>1367.5</ele>
        <time>2025-09-13T16:00:52+02:00</time>
      </trkpt>
      <trkpt lat="42.76302" lon="1.36343">
        <ele>1367.5</ele>
        <time>2025-09-13T16:00:56+02:00</time>
      </trkpt>
      <trkpt lat="42.76302" lon="1.36343">
        <ele>1367.5</ele>
        <time>2025-09-13T16:00:57+02:00</time>
      </trkpt>
      <trkpt lat="42.76302" lon="1.36342">
        <ele>1362.7998</ele>
        <time>2025-09-13T16:01:01+02:00</time>
      </trkpt>
      <trkpt lat="42.76302" lon="1.36342">
        <ele>1366</ele>
        <time>2025-09-13T16:01:02+02:00</time>
      </trkpt>
      <trkpt lat="42.76301" lon="1.3634">
        <ele>1366</ele>
        <time>2025-09-13T16:01:06+02:00</time>
      </trkpt>
      <trkpt lat="42.763" lon="1.3634">
        <ele>1366</ele>
        <time>2025-09-13T16:01:07+02:00</time>
      </trkpt>
      <trkpt lat="42.76298" lon="1.36337">
        <ele>1366</ele>
        <time>2025-09-13T16:01:11+02:00</time>
      </trkpt>
      <trkpt lat="42.76298" lon="1.36337">
        <ele>1366</ele>
        <time>2025-09-13T16:01:12+02:00</time>
      </trkpt>
      <trkpt lat="42.76295" lon="1.36334">
        <ele>1369.7998</ele>
        <time>2025-09-13T16:01:16+02:00</time>
      </trkpt>
      <trkpt lat="42.76295" lon="1.36334">
        <ele>1369.7998</ele>
        <time>2025-09-13T16:01:17+02:00</time>
      </trkpt>
      <trkpt lat="42.76292" lon="1.36333">
        <ele>1365.5</ele>
        <time>2025-09-13T16:01:21+02:00</time>
      </trkpt>
      <trkpt lat="42.76291" lon="1.36334">
        <ele>1369.7998</ele>
        <time>2025-09-13T16:01:22+02:00</time>
      </trkpt>
      <trkpt lat="42.76289" lon="1.36335">
        <ele>1373.7998</ele>
        <time>2025-09-13T16:01:26+02:00</time>
      </trkpt>
      <trkpt lat="42.76288" lon="1.36336">
        <ele>1373.7998</ele>
        <time>2025-09-13T16:01:27+02:00</time>
      </trkpt>
      <trkpt lat="42.76288" lon="1.36336">
        <ele>1373.7998</ele>
        <time>2025-09-13T16:01:31+02:00</time>
      </trkpt>
      <trkpt lat="42.76288" lon="1.36336">
        <ele>1373.7998</ele>
        <time>2025-09-13T16:01:32+02:00</time>
      </trkpt>
      <trkpt lat="42.76288" lon="1.36336">
        <ele>1373.7998</ele>
        <time>2025-09-13T16:01:36+02:00</time>
      </trkpt>
      <trkpt lat="42.76288" lon="1.36336">
        <ele>1373.7998</ele>
        <time>2025-09-13T16:01:37+02:00</time>
      </trkpt>
      <trkpt lat="42.76288" lon="1.36336">
        <ele>1373.7998</ele>
        <time>2025-09-13T16:01:41+02:00</time>
      </trkpt>
      <trkpt lat="42.76288" lon="1.36336">
        <ele>1373.7998</ele>
        <time>2025-09-13T16:01:42+02:00</time>
      </trkpt>
      <trkpt lat="42.76287" lon="1.36337">
        <ele>1373.7998</ele>
        <time>2025-09-13T16:01:46+02:00</time>
      </trkpt>
      <trkpt lat="42.76287" lon="1.36338">
        <ele>1373.7998</ele>
        <time>2025-09-13T16:01:47+02:00</time>
      </trkpt>
      <trkpt lat="42.76286" lon="1.3634">
        <ele>1373.7998</ele>
        <time>2025-09-13T16:01:51+02:00</time>
      </trkpt>
      <trkpt lat="42.76286" lon="1.3634">
        <ele>1373.7998</ele>
        <time>2025-09-13T16:01:52+02:00</time>
      </trkpt>
      <trkpt lat="42.76285" lon="1.36341">
        <ele>1373.7998</ele>
        <time>2025-09-13T16:01:56+02:00</time>
      </trkpt>
      <trkpt lat="42.76285" lon="1.36341">
        <ele>1373.7998</ele>
        <time>2025-09-13T16:01:57+02:00</time>
      </trkpt>
      <trkpt lat="42.76284" lon="1.36342">
        <ele>1373.7998</ele>
        <time>2025-09-13T16:02:01+02:00</time>
      </trkpt>
      <trkpt lat="42.76284" lon="1.36342">
        <ele>1373.7998</ele>
        <time>2025-09-13T16:02:02+02:00</time>
      </trkpt>
      <trkpt lat="42.76283" lon="1.36342">
        <ele>1373.7998</ele>
        <time>2025-09-13T16:02:06+02:00</time>
      </trkpt>
      <trkpt lat="42.76283" lon="1.36342">
        <ele>1377.9004</ele>
        <time>2025-09-13T16:02:07+02:00</time>
      </trkpt>
      <trkpt lat="42.76282" lon="1.36341">
        <ele>1377.9004</ele>
        <time>2025-09-13T16:02:11+02:00</time>
      </trkpt>
      <trkpt lat="42.76282" lon="1.36341">
        <ele>1377.9004</ele>
        <time>2025-09-13T16:02:12+02:00</time>
      </trkpt>
      <trkpt lat="42.76282" lon="1.36341">
        <ele>1377.9004</ele>
        <time>2025-09-13T16:02:16+02:00</time>
      </trkpt>
      <trkpt lat="42.76282" lon="1.36341">
        <ele>1377.9004</ele>
        <time>2025-09-13T16:02:17+02:00</time>
      </trkpt>
      <trkpt lat="42.76282" lon="1.36342">
        <ele>1377.9004</ele>
        <time>2025-09-13T16:02:21+02:00</time>
      </trkpt>
      <trkpt lat="42.76281" lon="1.36342">
        <ele>1377.9004</ele>
        <time>2025-09-13T16:02:22+02:00</time>
      </trkpt>
      <trkpt lat="42.7628" lon="1.36342">
        <ele>1381.2998</ele>
        <time>2025-09-13T16:02:26+02:00</time>
      </trkpt>
      <trkpt lat="42.7628" lon="1.36342">
        <ele>1381.2998</ele>
        <time>2025-09-13T16:02:27+02:00</time>
      </trkpt>
      <trkpt lat="42.76279" lon="1.36343">
        <ele>1381.2998</ele>
        <time>2025-09-13T16:02:31+02:00</time>
      </trkpt>
      <trkpt lat="42.76279" lon="1.36343">
        <ele>1381.2998</ele>
        <time>2025-09-13T16:02:32+02:00</time>
      </trkpt>
      <trkpt lat="42.76278" lon="1.36344">
        <ele>1381.2998</ele>
        <time>2025-09-13T16:02:36+02:00</time>
      </trkpt>
      <trkpt lat="42.76278" lon="1.36343">
        <ele>1381.2998</ele>
        <time>2025-09-13T16:02:37+02:00</time>
      </trkpt>
      <trkpt lat="42.76278" lon="1.36343">
        <ele>1381.2998</ele>
        <time>2025-09-13T16:02:41+02:00</time>
      </trkpt>
      <trkpt lat="42.76278" lon="1.36342">
        <ele>1381.2998</ele>
        <time>2025-09-13T16:02:42+02:00</time>
      </trkpt>
      <trkpt lat="42.76278" lon="1.36341">
        <ele>1377.9004</ele>
        <time>2025-09-13T16:02:46+02:00</time>
      </trkpt>
      <trkpt lat="42.76278" lon="1.3634">
        <ele>1377.9004</ele>
        <time>2025-09-13T16:02:47+02:00</time>
      </trkpt>
      <trkpt lat="42.76278" lon="1.36338">
        <ele>1377.9004</ele>
        <time>2025-09-13T16:02:51+02:00</time>
      </trkpt>
      <trkpt lat="42.76278" lon="1.36337">
        <ele>1377.9004</ele>
        <time>2025-09-13T16:02:52+02:00</time>
      </trkpt>
      <trkpt lat="42.76278" lon="1.36335">
        <ele>1377.9004</ele>
        <time>2025-09-13T16:02:56+02:00</time>
      </trkpt>
      <trkpt lat="42.76278" lon="1.36334">
        <ele>1377.9004</ele>
        <time>2025-09-13T16:02:57+02:00</time>
      </trkpt>
      <trkpt lat="42.76278" lon="1.36332">
        <ele>1374.1006</ele>
        <time>2025-09-13T16:03:01+02:00</time>
      </trkpt>
      <trkpt lat="42.76277" lon="1.36331">
        <ele>1374.1006</ele>
        <time>2025-09-13T16:03:02+02:00</time>
      </trkpt>
      <trkpt lat="42.76275" lon="1.36328">
        <ele>1378.6006</ele>
        <time>2025-09-13T16:03:06+02:00</time>
      </trkpt>
      <trkpt lat="42.76275" lon="1.36328">
        <ele>1378.6006</ele>
        <time>2025-09-13T16:03:07+02:00</time>
      </trkpt>
      <trkpt lat="42.76273" lon="1.36326">
        <ele>1378.6006</ele>
        <time>2025-09-13T16:03:11+02:00</time>
      </trkpt>
      <trkpt lat="42.76273" lon="1.36325">
        <ele>1378.6006</ele>
        <time>2025-09-13T16:03:12+02:00</time>
      </trkpt>
      <trkpt lat="42.76271" lon="1.36321">
        <ele>1375.2002</ele>
        <time>2025-09-13T16:03:16+02:00</time>
      </trkpt>
      <trkpt lat="42.7627" lon="1.36321">
        <ele>1380.7002</ele>
        <time>2025-09-13T16:03:17+02:00</time>
      </trkpt>
      <trkpt lat="42.76269" lon="1.36318">
        <ele>1380.7002</ele>
        <time>2025-09-13T16:03:21+02:00</time>
      </trkpt>
      <trkpt lat="42.76269" lon="1.36318">
        <ele>1380.7002</ele>
        <time>2025-09-13T16:03:22+02:00</time>
      </trkpt>
      <trkpt lat="42.76267" lon="1.36317">
        <ele>1380.7002</ele>
        <time>2025-09-13T16:03:26+02:00</time>
      </trkpt>
      <trkpt lat="42.76267" lon="1.36317">
        <ele>1380.7002</ele>
        <time>2025-09-13T16:03:27+02:00</time>
      </trkpt>
      <trkpt lat="42.76265" lon="1.36317">
        <ele>1380.7002</ele>
        <time>2025-09-13T16:03:31+02:00</time>
      </trkpt>
      <trkpt lat="42.76265" lon="1.36318">
        <ele>1380.7002</ele>
        <time>2025-09-13T16:03:32+02:00</time>
      </trkpt>
      <trkpt lat="42.76264" lon="1.36318">
        <ele>1380.7002</ele>
        <time>2025-09-13T16:03:36+02:00</time>
      </trkpt>
      <trkpt lat="42.76264" lon="1.36318">
        <ele>1386.5</ele>
        <time>2025-09-13T16:03:37+02:00</time>
      </trkpt>
      <trkpt lat="42.76263" lon="1.36319">
        <ele>1386.5</ele>
        <time>2025-09-13T16:03:41+02:00</time>
      </trkpt>
      <trkpt lat="42.76263" lon="1.36319">
        <ele>1386.5</ele>
        <time>2025-09-13T16:03:42+02:00</time>
      </trkpt>
      <trkpt lat="42.76263" lon="1.36319">
        <ele>1386.5</ele>
        <time>2025-09-13T16:03:46+02:00</time>
      </trkpt>
      <trkpt lat="42.76263" lon="1.36319">
        <ele>1386.5</ele>
        <time>2025-09-13T16:03:47+02:00</time>
      </trkpt>
      <trkpt lat="42.76262" lon="1.36319">
        <ele>1386.5</ele>
        <time>2025-09-13T16:03:51+02:00</time>
      </trkpt>
      <trkpt lat="42.76262" lon="1.36319">
        <ele>1386.5</ele>
        <time>2025-09-13T16:03:52+02:00</time>
      </trkpt>
      <trkpt lat="42.76262" lon="1.36319">
        <ele>1386.5</ele>
        <time>2025-09-13T16:03:56+02:00</time>
      </trkpt>
      <trkpt lat="42.76262" lon="1.36319">
        <ele>1386.5</ele>
        <time>2025-09-13T16:03:57+02:00</time>
      </trkpt>
      <trkpt lat="42.7626" lon="1.36319">
        <ele>1386.5</ele>
        <time>2025-09-13T16:04:01+02:00</time>
      </trkpt>
      <trkpt lat="42.76259" lon="1.36318">
        <ele>1386.5</ele>
        <time>2025-09-13T16:04:02+02:00</time>
      </trkpt>
      <trkpt lat="42.76256" lon="1.36315">
        <ele>1390.7002</ele>
        <time>2025-09-13T16:04:06+02:00</time>
      </trkpt>
      <trkpt lat="42.76256" lon="1.36314">
        <ele>1390.7002</ele>
        <time>2025-09-13T16:04:07+02:00</time>
      </trkpt>
      <trkpt lat="42.76256" lon="1.36313">
        <ele>1390.7002</ele>
        <time>2025-09-13T16:04:11+02:00</time>
      </trkpt>
      <trkpt lat="42.76255" lon="1.36312">
        <ele>1390.7002</ele>
        <time>2025-09-13T16:04:12+02:00</time>
      </trkpt>
      <trkpt lat="42.76255" lon="1.36311">
        <ele>1390.7002</ele>
        <time>2025-09-13T16:04:16+02:00</time>
      </trkpt>
      <trkpt lat="42.76254" lon="1.36311">
        <ele>1390.7002</ele>
        <time>2025-09-13T16:04:17+02:00</time>
      </trkpt>
      <trkpt lat="42.76253" lon="1.3631">
        <ele>1390.7002</ele>
        <time>2025-09-13T16:04:21+02:00</time>
      </trkpt>
      <trkpt lat="42.76253" lon="1.3631">
        <ele>1390.7002</ele>
        <time>2025-09-13T16:04:22+02:00</time>
      </trkpt>
      <trkpt lat="42.76252" lon="1.36309">
        <ele>1396.7002</ele>
        <time>2025-09-13T16:04:26+02:00</time>
      </trkpt>
      <trkpt lat="42.76251" lon="1.36309">
        <ele>1396.7002</ele>
        <time>2025-09-13T16:04:27+02:00</time>
      </trkpt>
      <trkpt lat="42.76249" lon="1.36309">
        <ele>1396.7002</ele>
        <time>2025-09-13T16:04:32+02:00</time>
      </trkpt>
      <trkpt lat="42.76247" lon="1.36308">
        <ele>1396.7002</ele>
        <time>2025-09-13T16:04:37+02:00</time>
      </trkpt>
      <trkpt lat="42.76246" lon="1.36308">
        <ele>1396.7002</ele>
        <time>2025-09-13T16:04:38+02:00</time>
      </trkpt>
      <trkpt lat="42.76243" lon="1.36307">
        <ele>1401.2998</ele>
        <time>2025-09-13T16:04:42+02:00</time>
      </trkpt>
      <trkpt lat="42.76243" lon="1.36307">
        <ele>1401.2998</ele>
        <time>2025-09-13T16:04:43+02:00</time>
      </trkpt>
      <trkpt lat="42.76242" lon="1.36307">
        <ele>1401.2998</ele>
        <time>2025-09-13T16:04:47+02:00</time>
      </trkpt>
      <trkpt lat="42.76242" lon="1.36307">
        <ele>1401.2998</ele>
        <time>2025-09-13T16:04:48+02:00</time>
      </trkpt>
      <trkpt lat="42.76241" lon="1.36306">
        <ele>1401.2998</ele>
        <time>2025-09-13T16:04:52+02:00</time>
      </trkpt>
      <trkpt lat="42.7624" lon="1.36306">
        <ele>1401.2998</ele>
        <time>2025-09-13T16:04:53+02:00</time>
      </trkpt>
      <trkpt lat="42.7624" lon="1.36306">
        <ele>1401.2998</ele>
        <time>2025-09-13T16:04:57+02:00</time>
      </trkpt>
      <trkpt lat="42.7624" lon="1.36306">
        <ele>1401.2998</ele>
        <time>2025-09-13T16:04:58+02:00</time>
      </trkpt>
      <trkpt lat="42.7624" lon="1.36306">
        <ele>1401.2998</ele>
        <time>2025-09-13T16:05:02+02:00</time>
      </trkpt>
      <trkpt lat="42.7624" lon="1.36306">
        <ele>1401.2998</ele>
        <time>2025-09-13T16:05:03+02:00</time>
      </trkpt>
      <trkpt lat="42.7624" lon="1.36306">
        <ele>1401.2998</ele>
        <time>2025-09-13T16:05:07+02:00</time>
      </trkpt>
      <trkpt lat="42.7624" lon="1.36306">
        <ele>1401.2998</ele>
        <time>2025-09-13T16:05:08+02:00</time>
      </trkpt>
      <trkpt lat="42.76239" lon="1.36306">
        <ele>1401.2998</ele>
        <time>2025-09-13T16:05:12+02:00</time>
      </trkpt>
      <trkpt lat="42.76239" lon="1.36305">
        <ele>1407.2002</ele>
        <time>2025-09-13T16:05:13+02:00</time>
      </trkpt>
      <trkpt lat="42.76238" lon="1.36305">
        <ele>1407.2002</ele>
        <time>2025-09-13T16:05:17+02:00</time>
      </trkpt>
      <trkpt lat="42.76238" lon="1.36305">
        <ele>1407.2002</ele>
        <time>2025-09-13T16:05:18+02:00</time>
      </trkpt>
      <trkpt lat="42.76237" lon="1.36305">
        <ele>1407.2002</ele>
        <time>2025-09-13T16:05:22+02:00</time>
      </trkpt>
      <trkpt lat="42.76237" lon="1.36305">
        <ele>1407.2002</ele>
        <time>2025-09-13T16:05:23+02:00</time>
      </trkpt>
      <trkpt lat="42.76236" lon="1.36304">
        <ele>1407.2002</ele>
        <time>2025-09-13T16:05:27+02:00</time>
      </trkpt>
      <trkpt lat="42.76236" lon="1.36304">
        <ele>1407.2002</ele>
        <time>2025-09-13T16:05:28+02:00</time>
      </trkpt>
      <trkpt lat="42.76234" lon="1.36304">
        <ele>1407.2002</ele>
        <time>2025-09-13T16:05:32+02:00</time>
      </trkpt>
      <trkpt lat="42.76234" lon="1.36303">
        <ele>1407.2002</ele>
        <time>2025-09-13T16:05:33+02:00</time>
      </trkpt>
      <trkpt lat="42.76232" lon="1.36302">
        <ele>1413.1006</ele>
        <time>2025-09-13T16:05:37+02:00</time>
      </trkpt>
      <trkpt lat="42.76231" lon="1.36302">
        <ele>1413.1006</ele>
        <time>2025-09-13T16:05:38+02:00</time>
      </trkpt>
      <trkpt lat="42.76229" lon="1.36301">
        <ele>1413.1006</ele>
        <time>2025-09-13T16:05:42+02:00</time>
      </trkpt>
      <trkpt lat="42.76229" lon="1.36301">
        <ele>1413.1006</ele>
        <time>2025-09-13T16:05:43+02:00</time>
      </trkpt>
      <trkpt lat="42.76228" lon="1.363">
        <ele>1413.1006</ele>
        <time>2025-09-13T16:05:47+02:00</time>
      </trkpt>
      <trkpt lat="42.76227" lon="1.363">
        <ele>1413.1006</ele>
        <time>2025-09-13T16:05:48+02:00</time>
      </trkpt>
      <trkpt lat="42.76227" lon="1.36299">
        <ele>1413.1006</ele>
        <time>2025-09-13T16:05:52+02:00</time>
      </trkpt>
      <trkpt lat="42.76227" lon="1.36299">
        <ele>1413.1006</ele>
        <time>2025-09-13T16:05:53+02:00</time>
      </trkpt>
      <trkpt lat="42.76226" lon="1.36299">
        <ele>1417.7998</ele>
        <time>2025-09-13T16:05:57+02:00</time>
      </trkpt>
      <trkpt lat="42.76226" lon="1.36298">
        <ele>1417.7998</ele>
        <time>2025-09-13T16:05:58+02:00</time>
      </trkpt>
      <trkpt lat="42.76224" lon="1.36297">
        <ele>1417.7998</ele>
        <time>2025-09-13T16:06:02+02:00</time>
      </trkpt>
      <trkpt lat="42.76224" lon="1.36297">
        <ele>1417.7998</ele>
        <time>2025-09-13T16:06:03+02:00</time>
      </trkpt>
      <trkpt lat="42.76223" lon="1.36295">
        <ele>1417.7998</ele>
        <time>2025-09-13T16:06:07+02:00</time>
      </trkpt>
      <trkpt lat="42.76222" lon="1.36293">
        <ele>1417.7998</ele>
        <time>2025-09-13T16:06:12+02:00</time>
      </trkpt>
      <trkpt lat="42.76222" lon="1.36293">
        <ele>1417.7998</ele>
        <time>2025-09-13T16:06:13+02:00</time>
      </trkpt>
      <trkpt lat="42.76221" lon="1.36292">
        <ele>1417.7998</ele>
        <time>2025-09-13T16:06:17+02:00</time>
      </trkpt>
      <trkpt lat="42.76221" lon="1.36292">
        <ele>1417.7998</ele>
        <time>2025-09-13T16:06:18+02:00</time>
      </trkpt>
      <trkpt lat="42.76221" lon="1.36291">
        <ele>1417.7998</ele>
        <time>2025-09-13T16:06:22+02:00</time>
      </trkpt>
      <trkpt lat="42.76221" lon="1.36291">
        <ele>1417.7998</ele>
        <time>2025-09-13T16:06:23+02:00</time>
      </trkpt>
      <trkpt lat="42.7622" lon="1.36291">
        <ele>1423.6006</ele>
        <time>2025-09-13T16:06:27+02:00</time>
      </trkpt>
      <trkpt lat="42.76219" lon="1.36291">
        <ele>1423.6006</ele>
        <time>2025-09-13T16:06:28+02:00</time>
      </trkpt>
      <trkpt lat="42.76218" lon="1.3629">
        <ele>1422.6006</ele>
        <time>2025-09-13T16:06:32+02:00</time>
      </trkpt>
      <trkpt lat="42.76218" lon="1.3629">
        <ele>1422.6006</ele>
        <time>2025-09-13T16:06:33+02:00</time>
      </trkpt>
      <trkpt lat="42.76216" lon="1.36287">
        <ele>1422.6006</ele>
        <time>2025-09-13T16:06:38+02:00</time>
      </trkpt>
      <trkpt lat="42.76216" lon="1.36287">
        <ele>1422.6006</ele>
        <time>2025-09-13T16:06:39+02:00</time>
      </trkpt>
      <trkpt lat="42.76216" lon="1.36287">
        <ele>1422.6006</ele>
        <time>2025-09-13T16:06:42+02:00</time>
      </trkpt>
      <trkpt lat="42.76216" lon="1.36287">
        <ele>1422.6006</ele>
        <time>2025-09-13T16:06:44+02:00</time>
      </trkpt>
      <trkpt lat="42.76215" lon="1.36285">
        <ele>1422.6006</ele>
        <time>2025-09-13T16:06:48+02:00</time>
      </trkpt>
      <trkpt lat="42.76215" lon="1.36285">
        <ele>1422.6006</ele>
        <time>2025-09-13T16:06:49+02:00</time>
      </trkpt>
      <trkpt lat="42.76213" lon="1.36283">
        <ele>1428.2998</ele>
        <time>2025-09-13T16:06:53+02:00</time>
      </trkpt>
      <trkpt lat="42.76213" lon="1.36283">
        <ele>1428.2998</ele>
        <time>2025-09-13T16:06:54+02:00</time>
      </trkpt>
      <trkpt lat="42.76212" lon="1.3628">
        <ele>1427.6006</ele>
        <time>2025-09-13T16:07:01+02:00</time>
      </trkpt>
      <trkpt lat="42.76212" lon="1.3628">
        <ele>1427.6006</ele>
        <time>2025-09-13T16:07:02+02:00</time>
      </trkpt>
      <trkpt lat="42.76211" lon="1.36279">
        <ele>1427.6006</ele>
        <time>2025-09-13T16:07:06+02:00</time>
      </trkpt>
      <trkpt lat="42.76211" lon="1.36278">
        <ele>1427.6006</ele>
        <time>2025-09-13T16:07:07+02:00</time>
      </trkpt>
      <trkpt lat="42.7621" lon="1.36278">
        <ele>1427.6006</ele>
        <time>2025-09-13T16:07:11+02:00</time>
      </trkpt>
      <trkpt lat="42.7621" lon="1.36278">
        <ele>1427.6006</ele>
        <time>2025-09-13T16:07:12+02:00</time>
      </trkpt>
      <trkpt lat="42.7621" lon="1.36277">
        <ele>1427.6006</ele>
        <time>2025-09-13T16:07:16+02:00</time>
      </trkpt>
      <trkpt lat="42.7621" lon="1.36277">
        <ele>1427.6006</ele>
        <time>2025-09-13T16:07:17+02:00</time>
      </trkpt>
      <trkpt lat="42.76208" lon="1.36276">
        <ele>1427.6006</ele>
        <time>2025-09-13T16:07:21+02:00</time>
      </trkpt>
      <trkpt lat="42.76208" lon="1.36276">
        <ele>1427.6006</ele>
        <time>2025-09-13T16:07:22+02:00</time>
      </trkpt>
      <trkpt lat="42.76208" lon="1.36276">
        <ele>1427.6006</ele>
        <time>2025-09-13T16:07:26+02:00</time>
      </trkpt>
      <trkpt lat="42.76208" lon="1.36276">
        <ele>1427.6006</ele>
        <time>2025-09-13T16:07:27+02:00</time>
      </trkpt>
      <trkpt lat="42.76209" lon="1.36276">
        <ele>1427.6006</ele>
        <time>2025-09-13T16:07:31+02:00</time>
      </trkpt>
      <trkpt lat="42.76209" lon="1.36276">
        <ele>1427.6006</ele>
        <time>2025-09-13T16:07:32+02:00</time>
      </trkpt>
      <trkpt lat="42.76209" lon="1.36276">
        <ele>1427.6006</ele>
        <time>2025-09-13T16:07:36+02:00</time>
      </trkpt>
      <trkpt lat="42.76209" lon="1.36276">
        <ele>1427.6006</ele>
        <time>2025-09-13T16:07:37+02:00</time>
      </trkpt>
      <trkpt lat="42.76208" lon="1.36274">
        <ele>1427.6006</ele>
        <time>2025-09-13T16:07:41+02:00</time>
      </trkpt>
      <trkpt lat="42.76208" lon="1.36274">
        <ele>1427.6006</ele>
        <time>2025-09-13T16:07:42+02:00</time>
      </trkpt>
      <trkpt lat="42.76208" lon="1.36274">
        <ele>1427.6006</ele>
        <time>2025-09-13T16:07:46+02:00</time>
      </trkpt>
      <trkpt lat="42.76208" lon="1.36274">
        <ele>1427.6006</ele>
        <time>2025-09-13T16:07:47+02:00</time>
      </trkpt>
      <trkpt lat="42.76208" lon="1.36274">
        <ele>1427.6006</ele>
        <time>2025-09-13T16:07:51+02:00</time>
      </trkpt>
      <trkpt lat="42.76208" lon="1.36274">
        <ele>1427.6006</ele>
        <time>2025-09-13T16:07:52+02:00</time>
      </trkpt>
      <trkpt lat="42.76208" lon="1.36275">
        <ele>1427.6006</ele>
        <time>2025-09-13T16:07:56+02:00</time>
      </trkpt>
      <trkpt lat="42.76208" lon="1.36275">
        <ele>1427.6006</ele>
        <time>2025-09-13T16:07:57+02:00</time>
      </trkpt>
      <trkpt lat="42.76208" lon="1.36276">
        <ele>1427.6006</ele>
        <time>2025-09-13T16:08:01+02:00</time>
      </trkpt>
      <trkpt lat="42.76208" lon="1.36276">
        <ele>1427.6006</ele>
        <time>2025-09-13T16:08:02+02:00</time>
      </trkpt>
      <trkpt lat="42.76208" lon="1.36276">
        <ele>1427.6006</ele>
        <time>2025-09-13T16:08:06+02:00</time>
      </trkpt>
      <trkpt lat="42.76208" lon="1.36276">
        <ele>1427.6006</ele>
        <time>2025-09-13T16:08:07+02:00</time>
      </trkpt>
      <trkpt lat="42.76208" lon="1.36276">
        <ele>1427.6006</ele>
        <time>2025-09-13T16:08:11+02:00</time>
      </trkpt>
      <trkpt lat="42.76208" lon="1.36275">
        <ele>1427.6006</ele>
        <time>2025-09-13T16:08:12+02:00</time>
      </trkpt>
      <trkpt lat="42.76209" lon="1.3627">
        <ele>1426.6006</ele>
        <time>2025-09-13T16:08:16+02:00</time>
      </trkpt>
      <trkpt lat="42.76209" lon="1.36267">
        <ele>1426.6006</ele>
        <time>2025-09-13T16:08:21+02:00</time>
      </trkpt>
      <trkpt lat="42.76209" lon="1.36266">
        <ele>1426.6006</ele>
        <time>2025-09-13T16:08:22+02:00</time>
      </trkpt>
      <trkpt lat="42.76209" lon="1.36261">
        <ele>1424.9004</ele>
        <time>2025-09-13T16:08:25+02:00</time>
      </trkpt>
      <trkpt lat="42.76208" lon="1.3626">
        <ele>1424.9004</ele>
        <time>2025-09-13T16:08:27+02:00</time>
      </trkpt>
      <trkpt lat="42.76209" lon="1.36261">
        <ele>1424.9004</ele>
        <time>2025-09-13T16:08:31+02:00</time>
      </trkpt>
      <trkpt lat="42.76209" lon="1.36261">
        <ele>1424.9004</ele>
        <time>2025-09-13T16:08:32+02:00</time>
      </trkpt>
      <trkpt lat="42.7621" lon="1.36261">
        <ele>1424.9004</ele>
        <time>2025-09-13T16:08:36+02:00</time>
      </trkpt>
      <trkpt lat="42.76209" lon="1.36261">
        <ele>1424.9004</ele>
        <time>2025-09-13T16:08:37+02:00</time>
      </trkpt>
      <trkpt lat="42.76209" lon="1.36261">
        <ele>1424.9004</ele>
        <time>2025-09-13T16:08:41+02:00</time>
      </trkpt>
      <trkpt lat="42.76209" lon="1.36261">
        <ele>1424.9004</ele>
        <time>2025-09-13T16:08:42+02:00</time>
      </trkpt>
      <trkpt lat="42.76209" lon="1.36261">
        <ele>1424.9004</ele>
        <time>2025-09-13T16:08:46+02:00</time>
      </trkpt>
      <trkpt lat="42.76209" lon="1.36261">
        <ele>1424.9004</ele>
        <time>2025-09-13T16:08:47+02:00</time>
      </trkpt>
      <trkpt lat="42.76208" lon="1.36263">
        <ele>1424.9004</ele>
        <time>2025-09-13T16:08:51+02:00</time>
      </trkpt>
      <trkpt lat="42.76208" lon="1.36263">
        <ele>1424.9004</ele>
        <time>2025-09-13T16:08:52+02:00</time>
      </trkpt>
      <trkpt lat="42.76208" lon="1.36263">
        <ele>1424.9004</ele>
        <time>2025-09-13T16:08:56+02:00</time>
      </trkpt>
      <trkpt lat="42.76208" lon="1.36263">
        <ele>1424.9004</ele>
        <time>2025-09-13T16:08:57+02:00</time>
      </trkpt>
      <trkpt lat="42.76208" lon="1.36263">
        <ele>1424.9004</ele>
        <time>2025-09-13T16:09:01+02:00</time>
      </trkpt>
      <trkpt lat="42.76208" lon="1.36262">
        <ele>1424.9004</ele>
        <time>2025-09-13T16:09:02+02:00</time>
      </trkpt>
      <trkpt lat="42.76205" lon="1.36258">
        <ele>1430.6006</ele>
        <time>2025-09-13T16:09:06+02:00</time>
      </trkpt>
      <trkpt lat="42.76204" lon="1.36257">
        <ele>1430.6006</ele>
        <time>2025-09-13T16:09:07+02:00</time>
      </trkpt>
      <trkpt lat="42.76204" lon="1.36257">
        <ele>1430.6006</ele>
        <time>2025-09-13T16:09:11+02:00</time>
      </trkpt>
      <trkpt lat="42.76205" lon="1.36257">
        <ele>1430.6006</ele>
        <time>2025-09-13T16:09:12+02:00</time>
      </trkpt>
      <trkpt lat="42.76205" lon="1.36257">
        <ele>1430.6006</ele>
        <time>2025-09-13T16:09:16+02:00</time>
      </trkpt>
      <trkpt lat="42.76205" lon="1.36257">
        <ele>1430.6006</ele>
        <time>2025-09-13T16:09:17+02:00</time>
      </trkpt>
      <trkpt lat="42.76205" lon="1.36257">
        <ele>1430.6006</ele>
        <time>2025-09-13T16:09:21+02:00</time>
      </trkpt>
      <trkpt lat="42.76205" lon="1.36257">
        <ele>1430.6006</ele>
        <time>2025-09-13T16:09:22+02:00</time>
      </trkpt>
      <trkpt lat="42.76205" lon="1.36257">
        <ele>1430.6006</ele>
        <time>2025-09-13T16:09:26+02:00</time>
      </trkpt>
      <trkpt lat="42.76205" lon="1.36257">
        <ele>1430.6006</ele>
        <time>2025-09-13T16:09:27+02:00</time>
      </trkpt>
      <trkpt lat="42.76206" lon="1.36257">
        <ele>1430.6006</ele>
        <time>2025-09-13T16:09:31+02:00</time>
      </trkpt>
      <trkpt lat="42.76206" lon="1.36257">
        <ele>1430.6006</ele>
        <time>2025-09-13T16:09:32+02:00</time>
      </trkpt>
      <trkpt lat="42.76206" lon="1.36257">
        <ele>1430.6006</ele>
        <time>2025-09-13T16:09:36+02:00</time>
      </trkpt>
      <trkpt lat="42.76206" lon="1.36257">
        <ele>1430.6006</ele>
        <time>2025-09-13T16:09:37+02:00</time>
      </trkpt>
      <trkpt lat="42.76206" lon="1.36257">
        <ele>1430.6006</ele>
        <time>2025-09-13T16:09:41+02:00</time>
      </trkpt>
      <trkpt lat="42.76206" lon="1.36257">
        <ele>1430.6006</ele>
        <time>2025-09-13T16:09:42+02:00</time>
      </trkpt>
      <trkpt lat="42.76206" lon="1.36257">
        <ele>1430.6006</ele>
        <time>2025-09-13T16:09:46+02:00</time>
      </trkpt>
      <trkpt lat="42.76206" lon="1.36257">
        <ele>1430.6006</ele>
        <time>2025-09-13T16:09:47+02:00</time>
      </trkpt>
      <trkpt lat="42.76206" lon="1.36257">
        <ele>1430.6006</ele>
        <time>2025-09-13T16:09:51+02:00</time>
      </trkpt>
      <trkpt lat="42.76206" lon="1.36257">
        <ele>1430.6006</ele>
        <time>2025-09-13T16:09:52+02:00</time>
      </trkpt>
      <trkpt lat="42.76205" lon="1.36258">
        <ele>1430.6006</ele>
        <time>2025-09-13T16:09:56+02:00</time>
      </trkpt>
      <trkpt lat="42.76205" lon="1.36258">
        <ele>1430.6006</ele>
        <time>2025-09-13T16:09:57+02:00</time>
      </trkpt>
      <trkpt lat="42.76204" lon="1.36257">
        <ele>1430.6006</ele>
        <time>2025-09-13T16:10:01+02:00</time>
      </trkpt>
      <trkpt lat="42.76204" lon="1.36258">
        <ele>1430.6006</ele>
        <time>2025-09-13T16:10:02+02:00</time>
      </trkpt>
      <trkpt lat="42.76202" lon="1.36258">
        <ele>1430.6006</ele>
        <time>2025-09-13T16:10:06+02:00</time>
      </trkpt>
      <trkpt lat="42.76202" lon="1.36258">
        <ele>1430.6006</ele>
        <time>2025-09-13T16:10:07+02:00</time>
      </trkpt>
      <trkpt lat="42.76202" lon="1.36258">
        <ele>1430.6006</ele>
        <time>2025-09-13T16:10:11+02:00</time>
      </trkpt>
      <trkpt lat="42.76202" lon="1.36258">
        <ele>1430.6006</ele>
        <time>2025-09-13T16:10:12+02:00</time>
      </trkpt>
      <trkpt lat="42.76202" lon="1.36258">
        <ele>1430.6006</ele>
        <time>2025-09-13T16:10:16+02:00</time>
      </trkpt>
      <trkpt lat="42.76202" lon="1.36258">
        <ele>1430.6006</ele>
        <time>2025-09-13T16:10:17+02:00</time>
      </trkpt>
      <trkpt lat="42.76202" lon="1.36258">
        <ele>1430.6006</ele>
        <time>2025-09-13T16:10:21+02:00</time>
      </trkpt>
      <trkpt lat="42.76202" lon="1.36258">
        <ele>1430.6006</ele>
        <time>2025-09-13T16:10:22+02:00</time>
      </trkpt>
      <trkpt lat="42.76202" lon="1.36258">
        <ele>1430.6006</ele>
        <time>2025-09-13T16:10:26+02:00</time>
      </trkpt>
      <trkpt lat="42.76202" lon="1.36258">
        <ele>1430.6006</ele>
        <time>2025-09-13T16:10:27+02:00</time>
      </trkpt>
      <trkpt lat="42.76202" lon="1.36258">
        <ele>1430.6006</ele>
        <time>2025-09-13T16:10:31+02:00</time>
      </trkpt>
      <trkpt lat="42.76202" lon="1.36258">
        <ele>1430.6006</ele>
        <time>2025-09-13T16:10:32+02:00</time>
      </trkpt>
      <trkpt lat="42.76202" lon="1.36258">
        <ele>1430.6006</ele>
        <time>2025-09-13T16:10:36+02:00</time>
      </trkpt>
      <trkpt lat="42.76202" lon="1.36258">
        <ele>1430.6006</ele>
        <time>2025-09-13T16:10:37+02:00</time>
      </trkpt>
      <trkpt lat="42.76202" lon="1.36257">
        <ele>1430.6006</ele>
        <time>2025-09-13T16:10:41+02:00</time>
      </trkpt>
      <trkpt lat="42.76202" lon="1.36257">
        <ele>1430.6006</ele>
        <time>2025-09-13T16:10:42+02:00</time>
      </trkpt>
      <trkpt lat="42.76202" lon="1.36257">
        <ele>1430.6006</ele>
        <time>2025-09-13T16:10:46+02:00</time>
      </trkpt>
      <trkpt lat="42.76202" lon="1.36257">
        <ele>1430.6006</ele>
        <time>2025-09-13T16:10:47+02:00</time>
      </trkpt>
      <trkpt lat="42.76202" lon="1.36257">
        <ele>1430.6006</ele>
        <time>2025-09-13T16:10:51+02:00</time>
      </trkpt>
      <trkpt lat="42.76201" lon="1.36257">
        <ele>1430.6006</ele>
        <time>2025-09-13T16:10:52+02:00</time>
      </trkpt>
      <trkpt lat="42.76201" lon="1.36257">
        <ele>1436</ele>
        <time>2025-09-13T16:10:56+02:00</time>
      </trkpt>
      <trkpt lat="42.76201" lon="1.36257">
        <ele>1436</ele>
        <time>2025-09-13T16:10:57+02:00</time>
      </trkpt>
      <trkpt lat="42.76201" lon="1.36256">
        <ele>1430.6006</ele>
        <time>2025-09-13T16:11:01+02:00</time>
      </trkpt>
      <trkpt lat="42.76202" lon="1.36256">
        <ele>1429.4004</ele>
        <time>2025-09-13T16:11:02+02:00</time>
      </trkpt>
      <trkpt lat="42.76202" lon="1.36257">
        <ele>1430.6006</ele>
        <time>2025-09-13T16:11:06+02:00</time>
      </trkpt>
      <trkpt lat="42.76202" lon="1.36257">
        <ele>1430.6006</ele>
        <time>2025-09-13T16:11:07+02:00</time>
      </trkpt>
      <trkpt lat="42.76202" lon="1.36256">
        <ele>1430.6006</ele>
        <time>2025-09-13T16:11:11+02:00</time>
      </trkpt>
      <trkpt lat="42.76202" lon="1.36256">
        <ele>1429.4004</ele>
        <time>2025-09-13T16:11:12+02:00</time>
      </trkpt>
      <trkpt lat="42.76201" lon="1.36255">
        <ele>1434.2002</ele>
        <time>2025-09-13T16:11:16+02:00</time>
      </trkpt>
      <trkpt lat="42.76201" lon="1.36255">
        <ele>1434.2002</ele>
        <time>2025-09-13T16:11:17+02:00</time>
      </trkpt>
      <trkpt lat="42.76201" lon="1.36255">
        <ele>1434.2002</ele>
        <time>2025-09-13T16:11:21+02:00</time>
      </trkpt>
      <trkpt lat="42.76201" lon="1.36255">
        <ele>1434.2002</ele>
        <time>2025-09-13T16:11:22+02:00</time>
      </trkpt>
      <trkpt lat="42.76201" lon="1.36255">
        <ele>1434.2002</ele>
        <time>2025-09-13T16:11:26+02:00</time>
      </trkpt>
      <trkpt lat="42.76201" lon="1.36255">
        <ele>1434.2002</ele>
        <time>2025-09-13T16:11:27+02:00</time>
      </trkpt>
      <trkpt lat="42.76201" lon="1.36255">
        <ele>1434.2002</ele>
        <time>2025-09-13T16:11:31+02:00</time>
      </trkpt>
      <trkpt lat="42.76201" lon="1.36255">
        <ele>1434.2002</ele>
        <time>2025-09-13T16:11:32+02:00</time>
      </trkpt>
      <trkpt lat="42.76201" lon="1.36255">
        <ele>1434.2002</ele>
        <time>2025-09-13T16:11:36+02:00</time>
      </trkpt>
      <trkpt lat="42.76201" lon="1.36255">
        <ele>1434.2002</ele>
        <time>2025-09-13T16:11:37+02:00</time>
      </trkpt>
      <trkpt lat="42.76201" lon="1.36255">
        <ele>1429.4004</ele>
        <time>2025-09-13T16:11:41+02:00</time>
      </trkpt>
      <trkpt lat="42.76202" lon="1.36255">
        <ele>1429.4004</ele>
        <time>2025-09-13T16:11:42+02:00</time>
      </trkpt>
      <trkpt lat="42.76205" lon="1.36257">
        <ele>1430.6006</ele>
        <time>2025-09-13T16:11:46+02:00</time>
      </trkpt>
      <trkpt lat="42.76206" lon="1.36258">
        <ele>1430.6006</ele>
        <time>2025-09-13T16:11:47+02:00</time>
      </trkpt>
      <trkpt lat="42.76207" lon="1.36263">
        <ele>1430.6006</ele>
        <time>2025-09-13T16:11:51+02:00</time>
      </trkpt>
      <trkpt lat="42.76207" lon="1.36264">
        <ele>1430.6006</ele>
        <time>2025-09-13T16:11:52+02:00</time>
      </trkpt>
      <trkpt lat="42.76204" lon="1.36268">
        <ele>1432.2002</ele>
        <time>2025-09-13T16:11:56+02:00</time>
      </trkpt>
      <trkpt lat="42.76204" lon="1.36269">
        <ele>1432.2002</ele>
        <time>2025-09-13T16:11:57+02:00</time>
      </trkpt>
      <trkpt lat="42.76202" lon="1.3627">
        <ele>1432.2002</ele>
        <time>2025-09-13T16:12:01+02:00</time>
      </trkpt>
      <trkpt lat="42.76202" lon="1.36271">
        <ele>1432.2002</ele>
        <time>2025-09-13T16:12:02+02:00</time>
      </trkpt>
      <trkpt lat="42.76201" lon="1.36273">
        <ele>1432.2002</ele>
        <time>2025-09-13T16:12:06+02:00</time>
      </trkpt>
      <trkpt lat="42.76201" lon="1.36274">
        <ele>1433.2002</ele>
        <time>2025-09-13T16:12:07+02:00</time>
      </trkpt>
      <trkpt lat="42.762" lon="1.36276">
        <ele>1438.6006</ele>
        <time>2025-09-13T16:12:11+02:00</time>
      </trkpt>
      <trkpt lat="42.762" lon="1.36276">
        <ele>1438.6006</ele>
        <time>2025-09-13T16:12:12+02:00</time>
      </trkpt>
      <trkpt lat="42.762" lon="1.36277">
        <ele>1438.6006</ele>
        <time>2025-09-13T16:12:16+02:00</time>
      </trkpt>
      <trkpt lat="42.762" lon="1.36277">
        <ele>1438.6006</ele>
        <time>2025-09-13T16:12:17+02:00</time>
      </trkpt>
      <trkpt lat="42.762" lon="1.36277">
        <ele>1438.6006</ele>
        <time>2025-09-13T16:12:21+02:00</time>
      </trkpt>
      <trkpt lat="42.762" lon="1.36277">
        <ele>1438.6006</ele>
        <time>2025-09-13T16:12:22+02:00</time>
      </trkpt>
      <trkpt lat="42.762" lon="1.36276">
        <ele>1438.6006</ele>
        <time>2025-09-13T16:12:26+02:00</time>
      </trkpt>
      <trkpt lat="42.762" lon="1.36276">
        <ele>1438.6006</ele>
        <time>2025-09-13T16:12:27+02:00</time>
      </trkpt>
      <trkpt lat="42.762" lon="1.36276">
        <ele>1438.6006</ele>
        <time>2025-09-13T16:12:31+02:00</time>
      </trkpt>
      <trkpt lat="42.762" lon="1.36276">
        <ele>1438.6006</ele>
        <time>2025-09-13T16:12:32+02:00</time>
      </trkpt>
      <trkpt lat="42.762" lon="1.36276">
        <ele>1438.6006</ele>
        <time>2025-09-13T16:12:36+02:00</time>
      </trkpt>
      <trkpt lat="42.762" lon="1.36276">
        <ele>1438.6006</ele>
        <time>2025-09-13T16:12:37+02:00</time>
      </trkpt>
      <trkpt lat="42.762" lon="1.36276">
        <ele>1438.6006</ele>
        <time>2025-09-13T16:12:41+02:00</time>
      </trkpt>
      <trkpt lat="42.762" lon="1.36276">
        <ele>1438.6006</ele>
        <time>2025-09-13T16:12:42+02:00</time>
      </trkpt>
      <trkpt lat="42.762" lon="1.36276">
        <ele>1438.6006</ele>
        <time>2025-09-13T16:12:46+02:00</time>
      </trkpt>
      <trkpt lat="42.762" lon="1.36276">
        <ele>1438.6006</ele>
        <time>2025-09-13T16:12:47+02:00</time>
      </trkpt>
      <trkpt lat="42.762" lon="1.36277">
        <ele>1438.6006</ele>
        <time>2025-09-13T16:12:51+02:00</time>
      </trkpt>
      <trkpt lat="42.76201" lon="1.36277">
        <ele>1438.6006</ele>
        <time>2025-09-13T16:12:52+02:00</time>
      </trkpt>
      <trkpt lat="42.76201" lon="1.36277">
        <ele>1433.2002</ele>
        <time>2025-09-13T16:12:56+02:00</time>
      </trkpt>
      <trkpt lat="42.76201" lon="1.36277">
        <ele>1433.2002</ele>
        <time>2025-09-13T16:12:57+02:00</time>
      </trkpt>
      <trkpt lat="42.76202" lon="1.36277">
        <ele>1433.2002</ele>
        <time>2025-09-13T16:13:01+02:00</time>
      </trkpt>
      <trkpt lat="42.76202" lon="1.36277">
        <ele>1433.2002</ele>
        <time>2025-09-13T16:13:02+02:00</time>
      </trkpt>
      <trkpt lat="42.76202" lon="1.36277">
        <ele>1433.2002</ele>
        <time>2025-09-13T16:13:06+02:00</time>
      </trkpt>
      <trkpt lat="42.76201" lon="1.36277">
        <ele>1433.2002</ele>
        <time>2025-09-13T16:13:07+02:00</time>
      </trkpt>
      <trkpt lat="42.76201" lon="1.36277">
        <ele>1433.2002</ele>
        <time>2025-09-13T16:13:11+02:00</time>
      </trkpt>
      <trkpt lat="42.76201" lon="1.36277">
        <ele>1433.2002</ele>
        <time>2025-09-13T16:13:12+02:00</time>
      </trkpt>
      <trkpt lat="42.76202" lon="1.36277">
        <ele>1433.2002</ele>
        <time>2025-09-13T16:13:16+02:00</time>
      </trkpt>
      <trkpt lat="42.76202" lon="1.36277">
        <ele>1433.2002</ele>
        <time>2025-09-13T16:13:17+02:00</time>
      </trkpt>
      <trkpt lat="42.76202" lon="1.36276">
        <ele>1433.2002</ele>
        <time>2025-09-13T16:13:21+02:00</time>
      </trkpt>
      <trkpt lat="42.76203" lon="1.36276">
        <ele>1433.2002</ele>
        <time>2025-09-13T16:13:22+02:00</time>
      </trkpt>
      <trkpt lat="42.76203" lon="1.36276">
        <ele>1433.2002</ele>
        <time>2025-09-13T16:13:26+02:00</time>
      </trkpt>
      <trkpt lat="42.76203" lon="1.36277">
        <ele>1433.2002</ele>
        <time>2025-09-13T16:13:27+02:00</time>
      </trkpt>
      <trkpt lat="42.76203" lon="1.36277">
        <ele>1433.2002</ele>
        <time>2025-09-13T16:13:31+02:00</time>
      </trkpt>
      <trkpt lat="42.76203" lon="1.36277">
        <ele>1433.2002</ele>
        <time>2025-09-13T16:13:32+02:00</time>
      </trkpt>
      <trkpt lat="42.76203" lon="1.36277">
        <ele>1433.2002</ele>
        <time>2025-09-13T16:13:36+02:00</time>
      </trkpt>
      <trkpt lat="42.76203" lon="1.36276">
        <ele>1433.2002</ele>
        <time>2025-09-13T16:13:37+02:00</time>
      </trkpt>
      <trkpt lat="42.76204" lon="1.36276">
        <ele>1433.2002</ele>
        <time>2025-09-13T16:13:41+02:00</time>
      </trkpt>
      <trkpt lat="42.76204" lon="1.36276">
        <ele>1433.2002</ele>
        <time>2025-09-13T16:13:42+02:00</time>
      </trkpt>
      <trkpt lat="42.76204" lon="1.36276">
        <ele>1433.2002</ele>
        <time>2025-09-13T16:13:46+02:00</time>
      </trkpt>
      <trkpt lat="42.76204" lon="1.36276">
        <ele>1433.2002</ele>
        <time>2025-09-13T16:13:47+02:00</time>
      </trkpt>
      <trkpt lat="42.76204" lon="1.36276">
        <ele>1433.2002</ele>
        <time>2025-09-13T16:13:51+02:00</time>
      </trkpt>
      <trkpt lat="42.76204" lon="1.36276">
        <ele>1433.2002</ele>
        <time>2025-09-13T16:13:52+02:00</time>
      </trkpt>
      <trkpt lat="42.76204" lon="1.36276">
        <ele>1433.2002</ele>
        <time>2025-09-13T16:13:56+02:00</time>
      </trkpt>
      <trkpt lat="42.76204" lon="1.36276">
        <ele>1433.2002</ele>
        <time>2025-09-13T16:13:57+02:00</time>
      </trkpt>
      <trkpt lat="42.76204" lon="1.36276">
        <ele>1433.2002</ele>
        <time>2025-09-13T16:14:01+02:00</time>
      </trkpt>
      <trkpt lat="42.76204" lon="1.36276">
        <ele>1433.2002</ele>
        <time>2025-09-13T16:14:02+02:00</time>
      </trkpt>
      <trkpt lat="42.76204" lon="1.36276">
        <ele>1433.2002</ele>
        <time>2025-09-13T16:14:06+02:00</time>
      </trkpt>
      <trkpt lat="42.76204" lon="1.36276">
        <ele>1433.2002</ele>
        <time>2025-09-13T16:14:07+02:00</time>
      </trkpt>
      <trkpt lat="42.76204" lon="1.36276">
        <ele>1433.2002</ele>
        <time>2025-09-13T16:14:11+02:00</time>
      </trkpt>
      <trkpt lat="42.76204" lon="1.36276">
        <ele>1433.2002</ele>
        <time>2025-09-13T16:14:12+02:00</time>
      </trkpt>
      <trkpt lat="42.76204" lon="1.36275">
        <ele>1433.2002</ele>
        <time>2025-09-13T16:14:16+02:00</time>
      </trkpt>
      <trkpt lat="42.76204" lon="1.36275">
        <ele>1433.2002</ele>
        <time>2025-09-13T16:14:17+02:00</time>
      </trkpt>
      <trkpt lat="42.76204" lon="1.36275">
        <ele>1433.2002</ele>
        <time>2025-09-13T16:14:21+02:00</time>
      </trkpt>
      <trkpt lat="42.76204" lon="1.36275">
        <ele>1433.2002</ele>
        <time>2025-09-13T16:14:22+02:00</time>
      </trkpt>
      <trkpt lat="42.76204" lon="1.36275">
        <ele>1433.2002</ele>
        <time>2025-09-13T16:14:26+02:00</time>
      </trkpt>
      <trkpt lat="42.76204" lon="1.36275">
        <ele>1433.2002</ele>
        <time>2025-09-13T16:14:27+02:00</time>
      </trkpt>
      <trkpt lat="42.76204" lon="1.36275">
        <ele>1433.2002</ele>
        <time>2025-09-13T16:14:31+02:00</time>
      </trkpt>
      <trkpt lat="42.76204" lon="1.36275">
        <ele>1433.2002</ele>
        <time>2025-09-13T16:14:32+02:00</time>
      </trkpt>
      <trkpt lat="42.76204" lon="1.36275">
        <ele>1433.2002</ele>
        <time>2025-09-13T16:14:36+02:00</time>
      </trkpt>
      <trkpt lat="42.76204" lon="1.36275">
        <ele>1433.2002</ele>
        <time>2025-09-13T16:14:37+02:00</time>
      </trkpt>
      <trkpt lat="42.76204" lon="1.36275">
        <ele>1433.2002</ele>
        <time>2025-09-13T16:14:41+02:00</time>
      </trkpt>
      <trkpt lat="42.76204" lon="1.36275">
        <ele>1433.2002</ele>
        <time>2025-09-13T16:14:42+02:00</time>
      </trkpt>
      <trkpt lat="42.76204" lon="1.36275">
        <ele>1433.2002</ele>
        <time>2025-09-13T16:14:46+02:00</time>
      </trkpt>
      <trkpt lat="42.76204" lon="1.36275">
        <ele>1433.2002</ele>
        <time>2025-09-13T16:14:47+02:00</time>
      </trkpt>
      <trkpt lat="42.76204" lon="1.36275">
        <ele>1433.2002</ele>
        <time>2025-09-13T16:14:51+02:00</time>
      </trkpt>
      <trkpt lat="42.76204" lon="1.36275">
        <ele>1433.2002</ele>
        <time>2025-09-13T16:14:52+02:00</time>
      </trkpt>
      <trkpt lat="42.76204" lon="1.36275">
        <ele>1433.2002</ele>
        <time>2025-09-13T16:14:56+02:00</time>
      </trkpt>
      <trkpt lat="42.76204" lon="1.36275">
        <ele>1433.2002</ele>
        <time>2025-09-13T16:14:57+02:00</time>
      </trkpt>
      <trkpt lat="42.76204" lon="1.36275">
        <ele>1433.2002</ele>
        <time>2025-09-13T16:15:01+02:00</time>
      </trkpt>
      <trkpt lat="42.76204" lon="1.36275">
        <ele>1433.2002</ele>
        <time>2025-09-13T16:15:02+02:00</time>
      </trkpt>
      <trkpt lat="42.76205" lon="1.36275">
        <ele>1433.2002</ele>
        <time>2025-09-13T16:15:06+02:00</time>
      </trkpt>
      <trkpt lat="42.76205" lon="1.36275">
        <ele>1433.2002</ele>
        <time>2025-09-13T16:15:07+02:00</time>
      </trkpt>
      <trkpt lat="42.76205" lon="1.36275">
        <ele>1433.2002</ele>
        <time>2025-09-13T16:15:11+02:00</time>
      </trkpt>
      <trkpt lat="42.76205" lon="1.36275">
        <ele>1433.2002</ele>
        <time>2025-09-13T16:15:12+02:00</time>
      </trkpt>
      <trkpt lat="42.76205" lon="1.36275">
        <ele>1433.2002</ele>
        <time>2025-09-13T16:15:16+02:00</time>
      </trkpt>
      <trkpt lat="42.76205" lon="1.36275">
        <ele>1433.2002</ele>
        <time>2025-09-13T16:15:17+02:00</time>
      </trkpt>
      <trkpt lat="42.76205" lon="1.36275">
        <ele>1433.2002</ele>
        <time>2025-09-13T16:15:21+02:00</time>
      </trkpt>
      <trkpt lat="42.76205" lon="1.36275">
        <ele>1433.2002</ele>
        <time>2025-09-13T16:15:22+02:00</time>
      </trkpt>
      <trkpt lat="42.76205" lon="1.36275">
        <ele>1433.2002</ele>
        <time>2025-09-13T16:15:26+02:00</time>
      </trkpt>
      <trkpt lat="42.76205" lon="1.36275">
        <ele>1433.2002</ele>
        <time>2025-09-13T16:15:27+02:00</time>
      </trkpt>
      <trkpt lat="42.76205" lon="1.36275">
        <ele>1433.2002</ele>
        <time>2025-09-13T16:15:31+02:00</time>
      </trkpt>
      <trkpt lat="42.76205" lon="1.36275">
        <ele>1433.2002</ele>
        <time>2025-09-13T16:15:32+02:00</time>
      </trkpt>
      <trkpt lat="42.76205" lon="1.36275">
        <ele>1433.2002</ele>
        <time>2025-09-13T16:15:36+02:00</time>
      </trkpt>
      <trkpt lat="42.76205" lon="1.36275">
        <ele>1433.2002</ele>
        <time>2025-09-13T16:15:37+02:00</time>
      </trkpt>
      <trkpt lat="42.76205" lon="1.36275">
        <ele>1433.2002</ele>
        <time>2025-09-13T16:15:41+02:00</time>
      </trkpt>
      <trkpt lat="42.76205" lon="1.36275">
        <ele>1433.2002</ele>
        <time>2025-09-13T16:15:42+02:00</time>
      </trkpt>
      <trkpt lat="42.76205" lon="1.36275">
        <ele>1433.2002</ele>
        <time>2025-09-13T16:15:46+02:00</time>
      </trkpt>
      <trkpt lat="42.76205" lon="1.36275">
        <ele>1433.2002</ele>
        <time>2025-09-13T16:15:47+02:00</time>
      </trkpt>
      <trkpt lat="42.76205" lon="1.36275">
        <ele>1433.2002</ele>
        <time>2025-09-13T16:15:51+02:00</time>
      </trkpt>
      <trkpt lat="42.76205" lon="1.36275">
        <ele>1433.2002</ele>
        <time>2025-09-13T16:15:52+02:00</time>
      </trkpt>
      <trkpt lat="42.76205" lon="1.36275">
        <ele>1433.2002</ele>
        <time>2025-09-13T16:15:56+02:00</time>
      </trkpt>
      <trkpt lat="42.76205" lon="1.36275">
        <ele>1433.2002</ele>
        <time>2025-09-13T16:15:57+02:00</time>
      </trkpt>
      <trkpt lat="42.76205" lon="1.36275">
        <ele>1433.2002</ele>
        <time>2025-09-13T16:16:01+02:00</time>
      </trkpt>
      <trkpt lat="42.76205" lon="1.36275">
        <ele>1433.2002</ele>
        <time>2025-09-13T16:16:02+02:00</time>
      </trkpt>
      <trkpt lat="42.76205" lon="1.36275">
        <ele>1433.2002</ele>
        <time>2025-09-13T16:16:06+02:00</time>
      </trkpt>
      <trkpt lat="42.76205" lon="1.36275">
        <ele>1433.2002</ele>
        <time>2025-09-13T16:16:07+02:00</time>
      </trkpt>
      <trkpt lat="42.76205" lon="1.36275">
        <ele>1433.2002</ele>
        <time>2025-09-13T16:16:11+02:00</time>
      </trkpt>
      <trkpt lat="42.76205" lon="1.36275">
        <ele>1433.2002</ele>
        <time>2025-09-13T16:16:12+02:00</time>
      </trkpt>
      <trkpt lat="42.76205" lon="1.36275">
        <ele>1433.2002</ele>
        <time>2025-09-13T16:16:16+02:00</time>
      </trkpt>
      <trkpt lat="42.76205" lon="1.36275">
        <ele>1433.2002</ele>
        <time>2025-09-13T16:16:17+02:00</time>
      </trkpt>
      <trkpt lat="42.76205" lon="1.36275">
        <ele>1433.2002</ele>
        <time>2025-09-13T16:16:21+02:00</time>
      </trkpt>
      <trkpt lat="42.76205" lon="1.36275">
        <ele>1433.2002</ele>
        <time>2025-09-13T16:16:22+02:00</time>
      </trkpt>
      <trkpt lat="42.76205" lon="1.36275">
        <ele>1433.2002</ele>
        <time>2025-09-13T16:16:26+02:00</time>
      </trkpt>
      <trkpt lat="42.76205" lon="1.36275">
        <ele>1433.2002</ele>
        <time>2025-09-13T16:16:27+02:00</time>
      </trkpt>
      <trkpt lat="42.76205" lon="1.36275">
        <ele>1433.2002</ele>
        <time>2025-09-13T16:16:31+02:00</time>
      </trkpt>
      <trkpt lat="42.76205" lon="1.36275">
        <ele>1433.2002</ele>
        <time>2025-09-13T16:16:32+02:00</time>
      </trkpt>
      <trkpt lat="42.76205" lon="1.36275">
        <ele>1433.2002</ele>
        <time>2025-09-13T16:16:36+02:00</time>
      </trkpt>
      <trkpt lat="42.76205" lon="1.36275">
        <ele>1433.2002</ele>
        <time>2025-09-13T16:16:37+02:00</time>
      </trkpt>
      <trkpt lat="42.76205" lon="1.36275">
        <ele>1433.2002</ele>
        <time>2025-09-13T16:16:41+02:00</time>
      </trkpt>
      <trkpt lat="42.76205" lon="1.36275">
        <ele>1433.2002</ele>
        <time>2025-09-13T16:16:42+02:00</time>
      </trkpt>
      <trkpt lat="42.76205" lon="1.36275">
        <ele>1433.2002</ele>
        <time>2025-09-13T16:16:46+02:00</time>
      </trkpt>
      <trkpt lat="42.76205" lon="1.36275">
        <ele>1433.2002</ele>
        <time>2025-09-13T16:16:47+02:00</time>
      </trkpt>
      <trkpt lat="42.76205" lon="1.36275">
        <ele>1433.2002</ele>
        <time>2025-09-13T16:16:51+02:00</time>
      </trkpt>
      <trkpt lat="42.76205" lon="1.36275">
        <ele>1433.2002</ele>
        <time>2025-09-13T16:16:52+02:00</time>
      </trkpt>
      <trkpt lat="42.76205" lon="1.36275">
        <ele>1433.2002</ele>
        <time>2025-09-13T16:16:56+02:00</time>
      </trkpt>
      <trkpt lat="42.76205" lon="1.36275">
        <ele>1433.2002</ele>
        <time>2025-09-13T16:16:57+02:00</time>
      </trkpt>
      <trkpt lat="42.76205" lon="1.36275">
        <ele>1433.2002</ele>
        <time>2025-09-13T16:17:01+02:00</time>
      </trkpt>
      <trkpt lat="42.76205" lon="1.36275">
        <ele>1433.2002</ele>
        <time>2025-09-13T16:17:02+02:00</time>
      </trkpt>
      <trkpt lat="42.76205" lon="1.36275">
        <ele>1433.2002</ele>
        <time>2025-09-13T16:17:06+02:00</time>
      </trkpt>
      <trkpt lat="42.76205" lon="1.36275">
        <ele>1433.2002</ele>
        <time>2025-09-13T16:17:07+02:00</time>
      </trkpt>
      <trkpt lat="42.76205" lon="1.36275">
        <ele>1433.2002</ele>
        <time>2025-09-13T16:17:11+02:00</time>
      </trkpt>
      <trkpt lat="42.76205" lon="1.36275">
        <ele>1433.2002</ele>
        <time>2025-09-13T16:17:12+02:00</time>
      </trkpt>
      <trkpt lat="42.76205" lon="1.36275">
        <ele>1433.2002</ele>
        <time>2025-09-13T16:17:16+02:00</time>
      </trkpt>
      <trkpt lat="42.76205" lon="1.36275">
        <ele>1433.2002</ele>
        <time>2025-09-13T16:17:17+02:00</time>
      </trkpt>
      <trkpt lat="42.76205" lon="1.36275">
        <ele>1433.2002</ele>
        <time>2025-09-13T16:17:21+02:00</time>
      </trkpt>
      <trkpt lat="42.76205" lon="1.36275">
        <ele>1433.2002</ele>
        <time>2025-09-13T16:17:22+02:00</time>
      </trkpt>
      <trkpt lat="42.76205" lon="1.36275">
        <ele>1433.2002</ele>
        <time>2025-09-13T16:17:26+02:00</time>
      </trkpt>
      <trkpt lat="42.76205" lon="1.36275">
        <ele>1433.2002</ele>
        <time>2025-09-13T16:17:27+02:00</time>
      </trkpt>
      <trkpt lat="42.76205" lon="1.36275">
        <ele>1433.2002</ele>
        <time>2025-09-13T16:17:31+02:00</time>
      </trkpt>
      <trkpt lat="42.76205" lon="1.36275">
        <ele>1433.2002</ele>
        <time>2025-09-13T16:17:32+02:00</time>
      </trkpt>
      <trkpt lat="42.76205" lon="1.36275">
        <ele>1433.2002</ele>
        <time>2025-09-13T16:17:36+02:00</time>
      </trkpt>
      <trkpt lat="42.76205" lon="1.36275">
        <ele>1433.2002</ele>
        <time>2025-09-13T16:17:37+02:00</time>
      </trkpt>
      <trkpt lat="42.76205" lon="1.36275">
        <ele>1433.2002</ele>
        <time>2025-09-13T16:17:41+02:00</time>
      </trkpt>
      <trkpt lat="42.76205" lon="1.36275">
        <ele>1433.2002</ele>
        <time>2025-09-13T16:17:42+02:00</time>
      </trkpt>
      <trkpt lat="42.76205" lon="1.36275">
        <ele>1433.2002</ele>
        <time>2025-09-13T16:17:46+02:00</time>
      </trkpt>
      <trkpt lat="42.76205" lon="1.36275">
        <ele>1433.2002</ele>
        <time>2025-09-13T16:17:47+02:00</time>
      </trkpt>
      <trkpt lat="42.76205" lon="1.36275">
        <ele>1433.2002</ele>
        <time>2025-09-13T16:17:51+02:00</time>
      </trkpt>
      <trkpt lat="42.76205" lon="1.36275">
        <ele>1433.2002</ele>
        <time>2025-09-13T16:17:52+02:00</time>
      </trkpt>
      <trkpt lat="42.76205" lon="1.36275">
        <ele>1433.2002</ele>
        <time>2025-09-13T16:17:56+02:00</time>
      </trkpt>
      <trkpt lat="42.76205" lon="1.36276">
        <ele>1433.2002</ele>
        <time>2025-09-13T16:17:57+02:00</time>
      </trkpt>
      <trkpt lat="42.76205" lon="1.36276">
        <ele>1433.2002</ele>
        <time>2025-09-13T16:18:01+02:00</time>
      </trkpt>
      <trkpt lat="42.76205" lon="1.36276">
        <ele>1433.2002</ele>
        <time>2025-09-13T16:18:02+02:00</time>
      </trkpt>
      <trkpt lat="42.76205" lon="1.36276">
        <ele>1433.2002</ele>
        <time>2025-09-13T16:18:06+02:00</time>
      </trkpt>
      <trkpt lat="42.76205" lon="1.36276">
        <ele>1433.2002</ele>
        <time>2025-09-13T16:18:07+02:00</time>
      </trkpt>
      <trkpt lat="42.76205" lon="1.36276">
        <ele>1433.2002</ele>
        <time>2025-09-13T16:18:11+02:00</time>
      </trkpt>
      <trkpt lat="42.76205" lon="1.36276">
        <ele>1433.2002</ele>
        <time>2025-09-13T16:18:12+02:00</time>
      </trkpt>
      <trkpt lat="42.76205" lon="1.36276">
        <ele>1433.2002</ele>
        <time>2025-09-13T16:18:16+02:00</time>
      </trkpt>
      <trkpt lat="42.76205" lon="1.36276">
        <ele>1433.2002</ele>
        <time>2025-09-13T16:18:17+02:00</time>
      </trkpt>
      <trkpt lat="42.76205" lon="1.36276">
        <ele>1433.2002</ele>
        <time>2025-09-13T16:18:21+02:00</time>
      </trkpt>
      <trkpt lat="42.76205" lon="1.36276">
        <ele>1433.2002</ele>
        <time>2025-09-13T16:18:22+02:00</time>
      </trkpt>
      <trkpt lat="42.76205" lon="1.36276">
        <ele>1433.2002</ele>
        <time>2025-09-13T16:18:26+02:00</time>
      </trkpt>
      <trkpt lat="42.76205" lon="1.36276">
        <ele>1433.2002</ele>
        <time>2025-09-13T16:18:27+02:00</time>
      </trkpt>
      <trkpt lat="42.76205" lon="1.36276">
        <ele>1433.2002</ele>
        <time>2025-09-13T16:18:31+02:00</time>
      </trkpt>
      <trkpt lat="42.76205" lon="1.36276">
        <ele>1433.2002</ele>
        <time>2025-09-13T16:18:32+02:00</time>
      </trkpt>
      <trkpt lat="42.76205" lon="1.36276">
        <ele>1433.2002</ele>
        <time>2025-09-13T16:18:36+02:00</time>
      </trkpt>
      <trkpt lat="42.76205" lon="1.36276">
        <ele>1433.2002</ele>
        <time>2025-09-13T16:18:37+02:00</time>
      </trkpt>
      <trkpt lat="42.76205" lon="1.36276">
        <ele>1433.2002</ele>
        <time>2025-09-13T16:18:41+02:00</time>
      </trkpt>
      <trkpt lat="42.76205" lon="1.36276">
        <ele>1433.2002</ele>
        <time>2025-09-13T16:18:42+02:00</time>
      </trkpt>
      <trkpt lat="42.76205" lon="1.36276">
        <ele>1433.2002</ele>
        <time>2025-09-13T16:18:46+02:00</time>
      </trkpt>
      <trkpt lat="42.76205" lon="1.36276">
        <ele>1433.2002</ele>
        <time>2025-09-13T16:18:47+02:00</time>
      </trkpt>
      <trkpt lat="42.76205" lon="1.36276">
        <ele>1433.2002</ele>
        <time>2025-09-13T16:18:51+02:00</time>
      </trkpt>
      <trkpt lat="42.76205" lon="1.36276">
        <ele>1433.2002</ele>
        <time>2025-09-13T16:18:52+02:00</time>
      </trkpt>
      <trkpt lat="42.76205" lon="1.36276">
        <ele>1433.2002</ele>
        <time>2025-09-13T16:18:56+02:00</time>
      </trkpt>
      <trkpt lat="42.76205" lon="1.36276">
        <ele>1433.2002</ele>
        <time>2025-09-13T16:18:57+02:00</time>
      </trkpt>
      <trkpt lat="42.76205" lon="1.36276">
        <ele>1433.2002</ele>
        <time>2025-09-13T16:19:01+02:00</time>
      </trkpt>
      <trkpt lat="42.76205" lon="1.36276">
        <ele>1433.2002</ele>
        <time>2025-09-13T16:19:02+02:00</time>
      </trkpt>
      <trkpt lat="42.76205" lon="1.36276">
        <ele>1433.2002</ele>
        <time>2025-09-13T16:19:06+02:00</time>
      </trkpt>
      <trkpt lat="42.76205" lon="1.36276">
        <ele>1433.2002</ele>
        <time>2025-09-13T16:19:07+02:00</time>
      </trkpt>
      <trkpt lat="42.76204" lon="1.36276">
        <ele>1433.2002</ele>
        <time>2025-09-13T16:19:11+02:00</time>
      </trkpt>
      <trkpt lat="42.76204" lon="1.36276">
        <ele>1433.2002</ele>
        <time>2025-09-13T16:19:12+02:00</time>
      </trkpt>
      <trkpt lat="42.76204" lon="1.36277">
        <ele>1433.2002</ele>
        <time>2025-09-13T16:19:16+02:00</time>
      </trkpt>
      <trkpt lat="42.76204" lon="1.36277">
        <ele>1433.2002</ele>
        <time>2025-09-13T16:19:17+02:00</time>
      </trkpt>
      <trkpt lat="42.76204" lon="1.36277">
        <ele>1433.2002</ele>
        <time>2025-09-13T16:19:21+02:00</time>
      </trkpt>
      <trkpt lat="42.76204" lon="1.36277">
        <ele>1433.2002</ele>
        <time>2025-09-13T16:19:22+02:00</time>
      </trkpt>
      <trkpt lat="42.76204" lon="1.36277">
        <ele>1433.2002</ele>
        <time>2025-09-13T16:19:26+02:00</time>
      </trkpt>
      <trkpt lat="42.76204" lon="1.36277">
        <ele>1433.2002</ele>
        <time>2025-09-13T16:19:27+02:00</time>
      </trkpt>
      <trkpt lat="42.76204" lon="1.36277">
        <ele>1433.2002</ele>
        <time>2025-09-13T16:19:31+02:00</time>
      </trkpt>
      <trkpt lat="42.76204" lon="1.36277">
        <ele>1433.2002</ele>
        <time>2025-09-13T16:19:32+02:00</time>
      </trkpt>
      <trkpt lat="42.76205" lon="1.36277">
        <ele>1433.2002</ele>
        <time>2025-09-13T16:19:36+02:00</time>
      </trkpt>
      <trkpt lat="42.76205" lon="1.36278">
        <ele>1433.2002</ele>
        <time>2025-09-13T16:19:37+02:00</time>
      </trkpt>
      <trkpt lat="42.76205" lon="1.36278">
        <ele>1433.2002</ele>
        <time>2025-09-13T16:19:41+02:00</time>
      </trkpt>
      <trkpt lat="42.76204" lon="1.36278">
        <ele>1433.2002</ele>
        <time>2025-09-13T16:19:42+02:00</time>
      </trkpt>
      <trkpt lat="42.76204" lon="1.36278">
        <ele>1433.2002</ele>
        <time>2025-09-13T16:19:46+02:00</time>
      </trkpt>
      <trkpt lat="42.76204" lon="1.36278">
        <ele>1433.2002</ele>
        <time>2025-09-13T16:19:47+02:00</time>
      </trkpt>
      <trkpt lat="42.76204" lon="1.36278">
        <ele>1433.2002</ele>
        <time>2025-09-13T16:19:51+02:00</time>
      </trkpt>
      <trkpt lat="42.76204" lon="1.36278">
        <ele>1433.2002</ele>
        <time>2025-09-13T16:19:52+02:00</time>
      </trkpt>
      <trkpt lat="42.76204" lon="1.36278">
        <ele>1433.2002</ele>
        <time>2025-09-13T16:19:56+02:00</time>
      </trkpt>
      <trkpt lat="42.76204" lon="1.36278">
        <ele>1433.2002</ele>
        <time>2025-09-13T16:19:57+02:00</time>
      </trkpt>
      <trkpt lat="42.76204" lon="1.36278">
        <ele>1433.2002</ele>
        <time>2025-09-13T16:20:01+02:00</time>
      </trkpt>
      <trkpt lat="42.76204" lon="1.36278">
        <ele>1433.2002</ele>
        <time>2025-09-13T16:20:02+02:00</time>
      </trkpt>
      <trkpt lat="42.76204" lon="1.36278">
        <ele>1433.2002</ele>
        <time>2025-09-13T16:20:06+02:00</time>
      </trkpt>
      <trkpt lat="42.76204" lon="1.36278">
        <ele>1433.2002</ele>
        <time>2025-09-13T16:20:07+02:00</time>
      </trkpt>
      <trkpt lat="42.76204" lon="1.36278">
        <ele>1433.2002</ele>
        <time>2025-09-13T16:20:11+02:00</time>
      </trkpt>
      <trkpt lat="42.76204" lon="1.36278">
        <ele>1433.2002</ele>
        <time>2025-09-13T16:20:12+02:00</time>
      </trkpt>
      <trkpt lat="42.76204" lon="1.36278">
        <ele>1433.2002</ele>
        <time>2025-09-13T16:20:16+02:00</time>
      </trkpt>
      <trkpt lat="42.76204" lon="1.36278">
        <ele>1433.2002</ele>
        <time>2025-09-13T16:20:17+02:00</time>
      </trkpt>
      <trkpt lat="42.76204" lon="1.36278">
        <ele>1433.2002</ele>
        <time>2025-09-13T16:20:21+02:00</time>
      </trkpt>
      <trkpt lat="42.76204" lon="1.36278">
        <ele>1433.2002</ele>
        <time>2025-09-13T16:20:22+02:00</time>
      </trkpt>
      <trkpt lat="42.76204" lon="1.36279">
        <ele>1433.2002</ele>
        <time>2025-09-13T16:20:26+02:00</time>
      </trkpt>
      <trkpt lat="42.76205" lon="1.36279">
        <ele>1433.2002</ele>
        <time>2025-09-13T16:20:27+02:00</time>
      </trkpt>
      <trkpt lat="42.76205" lon="1.36279">
        <ele>1433.2002</ele>
        <time>2025-09-13T16:20:31+02:00</time>
      </trkpt>
      <trkpt lat="42.76205" lon="1.36279">
        <ele>1433.2002</ele>
        <time>2025-09-13T16:20:32+02:00</time>
      </trkpt>
      <trkpt lat="42.76205" lon="1.36281">
        <ele>1433.2002</ele>
        <time>2025-09-13T16:20:36+02:00</time>
      </trkpt>
      <trkpt lat="42.76204" lon="1.36282">
        <ele>1433.9004</ele>
        <time>2025-09-13T16:20:37+02:00</time>
      </trkpt>
      <trkpt lat="42.76203" lon="1.36287">
        <ele>1433.9004</ele>
        <time>2025-09-13T16:20:41+02:00</time>
      </trkpt>
      <trkpt lat="42.76202" lon="1.36288">
        <ele>1433.9004</ele>
        <time>2025-09-13T16:20:42+02:00</time>
      </trkpt>
      <trkpt lat="42.76201" lon="1.36291">
        <ele>1440</ele>
        <time>2025-09-13T16:20:46+02:00</time>
      </trkpt>
      <trkpt lat="42.76201" lon="1.36291">
        <ele>1440</ele>
        <time>2025-09-13T16:20:47+02:00</time>
      </trkpt>
      <trkpt lat="42.76201" lon="1.36292">
        <ele>1434.7002</ele>
        <time>2025-09-13T16:20:51+02:00</time>
      </trkpt>
      <trkpt lat="42.76202" lon="1.36293">
        <ele>1434.7002</ele>
        <time>2025-09-13T16:20:52+02:00</time>
      </trkpt>
      <trkpt lat="42.76204" lon="1.36298">
        <ele>1434.7002</ele>
        <time>2025-09-13T16:20:56+02:00</time>
      </trkpt>
      <trkpt lat="42.76204" lon="1.36298">
        <ele>1434.7002</ele>
        <time>2025-09-13T16:20:57+02:00</time>
      </trkpt>
      <trkpt lat="42.76205" lon="1.363">
        <ele>1435.6006</ele>
        <time>2025-09-13T16:21:01+02:00</time>
      </trkpt>
      <trkpt lat="42.76205" lon="1.363">
        <ele>1435.6006</ele>
        <time>2025-09-13T16:21:02+02:00</time>
      </trkpt>
      <trkpt lat="42.76206" lon="1.363">
        <ele>1435.6006</ele>
        <time>2025-09-13T16:21:06+02:00</time>
      </trkpt>
      <trkpt lat="42.76206" lon="1.36301">
        <ele>1435.6006</ele>
        <time>2025-09-13T16:21:07+02:00</time>
      </trkpt>
      <trkpt lat="42.76206" lon="1.36303">
        <ele>1435.6006</ele>
        <time>2025-09-13T16:21:11+02:00</time>
      </trkpt>
      <trkpt lat="42.76206" lon="1.36303">
        <ele>1435.6006</ele>
        <time>2025-09-13T16:21:12+02:00</time>
      </trkpt>
      <trkpt lat="42.76204" lon="1.36305">
        <ele>1435.6006</ele>
        <time>2025-09-13T16:21:16+02:00</time>
      </trkpt>
      <trkpt lat="42.76204" lon="1.36306">
        <ele>1435.6006</ele>
        <time>2025-09-13T16:21:17+02:00</time>
      </trkpt>
      <trkpt lat="42.76204" lon="1.36309">
        <ele>1436.5</ele>
        <time>2025-09-13T16:21:21+02:00</time>
      </trkpt>
      <trkpt lat="42.76203" lon="1.36311">
        <ele>1436.5</ele>
        <time>2025-09-13T16:21:26+02:00</time>
      </trkpt>
      <trkpt lat="42.76203" lon="1.36312">
        <ele>1436.5</ele>
        <time>2025-09-13T16:21:27+02:00</time>
      </trkpt>
      <trkpt lat="42.76202" lon="1.36314">
        <ele>1436.5</ele>
        <time>2025-09-13T16:21:31+02:00</time>
      </trkpt>
      <trkpt lat="42.76202" lon="1.36315">
        <ele>1436.5</ele>
        <time>2025-09-13T16:21:32+02:00</time>
      </trkpt>
      <trkpt lat="42.76204" lon="1.36315">
        <ele>1436.5</ele>
        <time>2025-09-13T16:21:36+02:00</time>
      </trkpt>
      <trkpt lat="42.76204" lon="1.36315">
        <ele>1436.5</ele>
        <time>2025-09-13T16:21:37+02:00</time>
      </trkpt>
      <trkpt lat="42.76204" lon="1.36316">
        <ele>1436.5</ele>
        <time>2025-09-13T16:21:41+02:00</time>
      </trkpt>
      <trkpt lat="42.76204" lon="1.36316">
        <ele>1436.5</ele>
        <time>2025-09-13T16:21:42+02:00</time>
      </trkpt>
      <trkpt lat="42.76205" lon="1.36316">
        <ele>1436.5</ele>
        <time>2025-09-13T16:21:46+02:00</time>
      </trkpt>
      <trkpt lat="42.76205" lon="1.36316">
        <ele>1437.4004</ele>
        <time>2025-09-13T16:21:47+02:00</time>
      </trkpt>
      <trkpt lat="42.76205" lon="1.36318">
        <ele>1437.4004</ele>
        <time>2025-09-13T16:21:52+02:00</time>
      </trkpt>
      <trkpt lat="42.76205" lon="1.36318">
        <ele>1437.4004</ele>
        <time>2025-09-13T16:21:53+02:00</time>
      </trkpt>
      <trkpt lat="42.76206" lon="1.36319">
        <ele>1437.4004</ele>
        <time>2025-09-13T16:21:58+02:00</time>
      </trkpt>
      <trkpt lat="42.76206" lon="1.36319">
        <ele>1437.4004</ele>
        <time>2025-09-13T16:21:59+02:00</time>
      </trkpt>
      <trkpt lat="42.76207" lon="1.3632">
        <ele>1437.4004</ele>
        <time>2025-09-13T16:22:03+02:00</time>
      </trkpt>
      <trkpt lat="42.76207" lon="1.36321">
        <ele>1437.4004</ele>
        <time>2025-09-13T16:22:04+02:00</time>
      </trkpt>
      <trkpt lat="42.76208" lon="1.36321">
        <ele>1432.1006</ele>
        <time>2025-09-13T16:22:08+02:00</time>
      </trkpt>
      <trkpt lat="42.76208" lon="1.36322">
        <ele>1432.1006</ele>
        <time>2025-09-13T16:22:09+02:00</time>
      </trkpt>
      <trkpt lat="42.76209" lon="1.36322">
        <ele>1432.1006</ele>
        <time>2025-09-13T16:22:14+02:00</time>
      </trkpt>
      <trkpt lat="42.76209" lon="1.36323">
        <ele>1432.1006</ele>
        <time>2025-09-13T16:22:16+02:00</time>
      </trkpt>
      <trkpt lat="42.76209" lon="1.36323">
        <ele>1432.1006</ele>
        <time>2025-09-13T16:22:20+02:00</time>
      </trkpt>
      <trkpt lat="42.76209" lon="1.36323">
        <ele>1432.1006</ele>
        <time>2025-09-13T16:22:21+02:00</time>
      </trkpt>
      <trkpt lat="42.76208" lon="1.36325">
        <ele>1432.1006</ele>
        <time>2025-09-13T16:22:25+02:00</time>
      </trkpt>
      <trkpt lat="42.76208" lon="1.36325">
        <ele>1433</ele>
        <time>2025-09-13T16:22:26+02:00</time>
      </trkpt>
      <trkpt lat="42.76208" lon="1.36327">
        <ele>1433</ele>
        <time>2025-09-13T16:22:29+02:00</time>
      </trkpt>
      <trkpt lat="42.76208" lon="1.36327">
        <ele>1433</ele>
        <time>2025-09-13T16:22:31+02:00</time>
      </trkpt>
      <trkpt lat="42.76209" lon="1.36328">
        <ele>1433</ele>
        <time>2025-09-13T16:22:35+02:00</time>
      </trkpt>
      <trkpt lat="42.76209" lon="1.36328">
        <ele>1433</ele>
        <time>2025-09-13T16:22:36+02:00</time>
      </trkpt>
      <trkpt lat="42.76209" lon="1.3633">
        <ele>1433</ele>
        <time>2025-09-13T16:22:41+02:00</time>
      </trkpt>
      <trkpt lat="42.76209" lon="1.36331">
        <ele>1433</ele>
        <time>2025-09-13T16:22:42+02:00</time>
      </trkpt>
      <trkpt lat="42.7621" lon="1.36333">
        <ele>1433</ele>
        <time>2025-09-13T16:22:46+02:00</time>
      </trkpt>
      <trkpt lat="42.7621" lon="1.36334">
        <ele>1434</ele>
        <time>2025-09-13T16:22:47+02:00</time>
      </trkpt>
      <trkpt lat="42.7621" lon="1.36335">
        <ele>1434</ele>
        <time>2025-09-13T16:22:51+02:00</time>
      </trkpt>
      <trkpt lat="42.76211" lon="1.36336">
        <ele>1434</ele>
        <time>2025-09-13T16:22:52+02:00</time>
      </trkpt>
      <trkpt lat="42.76212" lon="1.36339">
        <ele>1434</ele>
        <time>2025-09-13T16:22:56+02:00</time>
      </trkpt>
      <trkpt lat="42.76212" lon="1.36339">
        <ele>1434</ele>
        <time>2025-09-13T16:22:57+02:00</time>
      </trkpt>
      <trkpt lat="42.76213" lon="1.36341">
        <ele>1434</ele>
        <time>2025-09-13T16:23:01+02:00</time>
      </trkpt>
      <trkpt lat="42.76213" lon="1.36341">
        <ele>1434</ele>
        <time>2025-09-13T16:23:02+02:00</time>
      </trkpt>
      <trkpt lat="42.76214" lon="1.36343">
        <ele>1429.9004</ele>
        <time>2025-09-13T16:23:06+02:00</time>
      </trkpt>
      <trkpt lat="42.76214" lon="1.36343">
        <ele>1429.9004</ele>
        <time>2025-09-13T16:23:07+02:00</time>
      </trkpt>
      <trkpt lat="42.76216" lon="1.36345">
        <ele>1429.9004</ele>
        <time>2025-09-13T16:23:11+02:00</time>
      </trkpt>
      <trkpt lat="42.76216" lon="1.36346">
        <ele>1429.9004</ele>
        <time>2025-09-13T16:23:12+02:00</time>
      </trkpt>
      <trkpt lat="42.76217" lon="1.36347">
        <ele>1429.9004</ele>
        <time>2025-09-13T16:23:16+02:00</time>
      </trkpt>
      <trkpt lat="42.76217" lon="1.36347">
        <ele>1429.9004</ele>
        <time>2025-09-13T16:23:17+02:00</time>
      </trkpt>
      <trkpt lat="42.76217" lon="1.36348">
        <ele>1429.9004</ele>
        <time>2025-09-13T16:23:21+02:00</time>
      </trkpt>
      <trkpt lat="42.76217" lon="1.36349">
        <ele>1429.9004</ele>
        <time>2025-09-13T16:23:22+02:00</time>
      </trkpt>
      <trkpt lat="42.76217" lon="1.36351">
        <ele>1429.9004</ele>
        <time>2025-09-13T16:23:26+02:00</time>
      </trkpt>
      <trkpt lat="42.76217" lon="1.36351">
        <ele>1431.1006</ele>
        <time>2025-09-13T16:23:27+02:00</time>
      </trkpt>
      <trkpt lat="42.76218" lon="1.36353">
        <ele>1431.1006</ele>
        <time>2025-09-13T16:23:31+02:00</time>
      </trkpt>
      <trkpt lat="42.76218" lon="1.36353">
        <ele>1431.1006</ele>
        <time>2025-09-13T16:23:32+02:00</time>
      </trkpt>
      <trkpt lat="42.76219" lon="1.36355">
        <ele>1431.1006</ele>
        <time>2025-09-13T16:23:37+02:00</time>
      </trkpt>
      <trkpt lat="42.76219" lon="1.36355">
        <ele>1431.1006</ele>
        <time>2025-09-13T16:23:38+02:00</time>
      </trkpt>
      <trkpt lat="42.76219" lon="1.36356">
        <ele>1431.1006</ele>
        <time>2025-09-13T16:23:42+02:00</time>
      </trkpt>
      <trkpt lat="42.76219" lon="1.36356">
        <ele>1431.1006</ele>
        <time>2025-09-13T16:23:43+02:00</time>
      </trkpt>
      <trkpt lat="42.76219" lon="1.36357">
        <ele>1431.1006</ele>
        <time>2025-09-13T16:23:47+02:00</time>
      </trkpt>
      <trkpt lat="42.76219" lon="1.36358">
        <ele>1431.1006</ele>
        <time>2025-09-13T16:23:48+02:00</time>
      </trkpt>
      <trkpt lat="42.76218" lon="1.3636">
        <ele>1432.5</ele>
        <time>2025-09-13T16:23:52+02:00</time>
      </trkpt>
      <trkpt lat="42.76218" lon="1.3636">
        <ele>1432.5</ele>
        <time>2025-09-13T16:23:53+02:00</time>
      </trkpt>
      <trkpt lat="42.76218" lon="1.36364">
        <ele>1432.5</ele>
        <time>2025-09-13T16:23:57+02:00</time>
      </trkpt>
      <trkpt lat="42.76217" lon="1.36364">
        <ele>1432.5</ele>
        <time>2025-09-13T16:23:58+02:00</time>
      </trkpt>
      <trkpt lat="42.76216" lon="1.36367">
        <ele>1432.5</ele>
        <time>2025-09-13T16:24:02+02:00</time>
      </trkpt>
      <trkpt lat="42.76216" lon="1.36368">
        <ele>1434</ele>
        <time>2025-09-13T16:24:03+02:00</time>
      </trkpt>
      <trkpt lat="42.76216" lon="1.36372">
        <ele>1434</ele>
        <time>2025-09-13T16:24:07+02:00</time>
      </trkpt>
      <trkpt lat="42.76217" lon="1.36373">
        <ele>1434</ele>
        <time>2025-09-13T16:24:08+02:00</time>
      </trkpt>
      <trkpt lat="42.76217" lon="1.36376">
        <ele>1434</ele>
        <time>2025-09-13T16:24:12+02:00</time>
      </trkpt>
      <trkpt lat="42.76217" lon="1.36377">
        <ele>1435.6006</ele>
        <time>2025-09-13T16:24:13+02:00</time>
      </trkpt>
      <trkpt lat="42.76217" lon="1.36379">
        <ele>1435.6006</ele>
        <time>2025-09-13T16:24:17+02:00</time>
      </trkpt>
      <trkpt lat="42.76216" lon="1.36379">
        <ele>1435.6006</ele>
        <time>2025-09-13T16:24:18+02:00</time>
      </trkpt>
      <trkpt lat="42.76216" lon="1.3638">
        <ele>1435.6006</ele>
        <time>2025-09-13T16:24:22+02:00</time>
      </trkpt>
      <trkpt lat="42.76216" lon="1.3638">
        <ele>1435.6006</ele>
        <time>2025-09-13T16:24:23+02:00</time>
      </trkpt>
      <trkpt lat="42.76215" lon="1.36381">
        <ele>1435.6006</ele>
        <time>2025-09-13T16:24:27+02:00</time>
      </trkpt>
      <trkpt lat="42.76215" lon="1.36382">
        <ele>1435.6006</ele>
        <time>2025-09-13T16:24:28+02:00</time>
      </trkpt>
      <trkpt lat="42.76215" lon="1.36382">
        <ele>1435.6006</ele>
        <time>2025-09-13T16:24:32+02:00</time>
      </trkpt>
      <trkpt lat="42.76215" lon="1.36382">
        <ele>1435.6006</ele>
        <time>2025-09-13T16:24:33+02:00</time>
      </trkpt>
      <trkpt lat="42.76216" lon="1.36384">
        <ele>1435.6006</ele>
        <time>2025-09-13T16:24:38+02:00</time>
      </trkpt>
      <trkpt lat="42.76216" lon="1.36384">
        <ele>1435.6006</ele>
        <time>2025-09-13T16:24:39+02:00</time>
      </trkpt>
      <trkpt lat="42.76219" lon="1.36387">
        <ele>1437.2998</ele>
        <time>2025-09-13T16:24:43+02:00</time>
      </trkpt>
      <trkpt lat="42.7622" lon="1.36388">
        <ele>1437.2998</ele>
        <time>2025-09-13T16:24:44+02:00</time>
      </trkpt>
      <trkpt lat="42.76222" lon="1.3639">
        <ele>1432.5</ele>
        <time>2025-09-13T16:24:48+02:00</time>
      </trkpt>
      <trkpt lat="42.76222" lon="1.36391">
        <ele>1432.5</ele>
        <time>2025-09-13T16:24:49+02:00</time>
      </trkpt>
      <trkpt lat="42.76225" lon="1.36392">
        <ele>1432.5</ele>
        <time>2025-09-13T16:24:53+02:00</time>
      </trkpt>
      <trkpt lat="42.76225" lon="1.36393">
        <ele>1432.5</ele>
        <time>2025-09-13T16:24:54+02:00</time>
      </trkpt>
      <trkpt lat="42.76225" lon="1.36395">
        <ele>1434.2002</ele>
        <time>2025-09-13T16:24:59+02:00</time>
      </trkpt>
      <trkpt lat="42.76225" lon="1.36395">
        <ele>1434.2002</ele>
        <time>2025-09-13T16:25:00+02:00</time>
      </trkpt>
      <trkpt lat="42.76225" lon="1.36396">
        <ele>1434.2002</ele>
        <time>2025-09-13T16:25:04+02:00</time>
      </trkpt>
      <trkpt lat="42.76225" lon="1.36396">
        <ele>1434.2002</ele>
        <time>2025-09-13T16:25:05+02:00</time>
      </trkpt>
      <trkpt lat="42.76224" lon="1.36397">
        <ele>1434.2002</ele>
        <time>2025-09-13T16:25:09+02:00</time>
      </trkpt>
      <trkpt lat="42.76224" lon="1.36397">
        <ele>1434.2002</ele>
        <time>2025-09-13T16:25:10+02:00</time>
      </trkpt>
      <trkpt lat="42.76224" lon="1.36398">
        <ele>1434.2002</ele>
        <time>2025-09-13T16:25:14+02:00</time>
      </trkpt>
      <trkpt lat="42.76223" lon="1.36398">
        <ele>1434.2002</ele>
        <time>2025-09-13T16:25:15+02:00</time>
      </trkpt>
      <trkpt lat="42.76223" lon="1.36399">
        <ele>1434.2002</ele>
        <time>2025-09-13T16:25:19+02:00</time>
      </trkpt>
      <trkpt lat="42.76223" lon="1.36399">
        <ele>1434.2002</ele>
        <time>2025-09-13T16:25:20+02:00</time>
      </trkpt>
      <trkpt lat="42.76222" lon="1.364">
        <ele>1434.2002</ele>
        <time>2025-09-13T16:25:24+02:00</time>
      </trkpt>
      <trkpt lat="42.76222" lon="1.364">
        <ele>1434.2002</ele>
        <time>2025-09-13T16:25:25+02:00</time>
      </trkpt>
      <trkpt lat="42.76222" lon="1.36401">
        <ele>1434.2002</ele>
        <time>2025-09-13T16:25:29+02:00</time>
      </trkpt>
      <trkpt lat="42.76222" lon="1.36401">
        <ele>1434.2002</ele>
        <time>2025-09-13T16:25:30+02:00</time>
      </trkpt>
      <trkpt lat="42.76222" lon="1.36403">
        <ele>1436.2002</ele>
        <time>2025-09-13T16:25:34+02:00</time>
      </trkpt>
      <trkpt lat="42.76221" lon="1.36403">
        <ele>1436.2002</ele>
        <time>2025-09-13T16:25:35+02:00</time>
      </trkpt>
      <trkpt lat="42.76221" lon="1.36403">
        <ele>1436.2002</ele>
        <time>2025-09-13T16:25:39+02:00</time>
      </trkpt>
      <trkpt lat="42.76221" lon="1.36403">
        <ele>1436.2002</ele>
        <time>2025-09-13T16:25:40+02:00</time>
      </trkpt>
      <trkpt lat="42.7622" lon="1.36404">
        <ele>1436.2002</ele>
        <time>2025-09-13T16:25:44+02:00</time>
      </trkpt>
      <trkpt lat="42.7622" lon="1.36404">
        <ele>1436.2002</ele>
        <time>2025-09-13T16:25:45+02:00</time>
      </trkpt>
      <trkpt lat="42.76221" lon="1.36405">
        <ele>1436.2002</ele>
        <time>2025-09-13T16:25:49+02:00</time>
      </trkpt>
      <trkpt lat="42.76221" lon="1.36405">
        <ele>1436.2002</ele>
        <time>2025-09-13T16:25:50+02:00</time>
      </trkpt>
      <trkpt lat="42.76221" lon="1.36406">
        <ele>1436.2002</ele>
        <time>2025-09-13T16:25:54+02:00</time>
      </trkpt>
      <trkpt lat="42.76221" lon="1.36406">
        <ele>1436.2002</ele>
        <time>2025-09-13T16:25:55+02:00</time>
      </trkpt>
      <trkpt lat="42.76221" lon="1.36407">
        <ele>1436.2002</ele>
        <time>2025-09-13T16:25:58+02:00</time>
      </trkpt>
      <trkpt lat="42.76221" lon="1.36407">
        <ele>1436.2002</ele>
        <time>2025-09-13T16:26:00+02:00</time>
      </trkpt>
      <trkpt lat="42.76222" lon="1.36408">
        <ele>1436.2002</ele>
        <time>2025-09-13T16:26:04+02:00</time>
      </trkpt>
      <trkpt lat="42.76222" lon="1.36408">
        <ele>1436.2002</ele>
        <time>2025-09-13T16:26:05+02:00</time>
      </trkpt>
      <trkpt lat="42.76222" lon="1.36409">
        <ele>1436.2002</ele>
        <time>2025-09-13T16:26:09+02:00</time>
      </trkpt>
      <trkpt lat="42.76221" lon="1.36409">
        <ele>1436.2002</ele>
        <time>2025-09-13T16:26:10+02:00</time>
      </trkpt>
      <trkpt lat="42.7622" lon="1.36409">
        <ele>1441.4004</ele>
        <time>2025-09-13T16:26:14+02:00</time>
      </trkpt>
      <trkpt lat="42.7622" lon="1.36409">
        <ele>1441.4004</ele>
        <time>2025-09-13T16:26:15+02:00</time>
      </trkpt>
      <trkpt lat="42.76219" lon="1.36407">
        <ele>1441.4004</ele>
        <time>2025-09-13T16:26:19+02:00</time>
      </trkpt>
      <trkpt lat="42.76218" lon="1.36406">
        <ele>1441.4004</ele>
        <time>2025-09-13T16:26:20+02:00</time>
      </trkpt>
      <trkpt lat="42.76216" lon="1.36406">
        <ele>1441.4004</ele>
        <time>2025-09-13T16:26:24+02:00</time>
      </trkpt>
      <trkpt lat="42.76215" lon="1.36406">
        <ele>1441.4004</ele>
        <time>2025-09-13T16:26:29+02:00</time>
      </trkpt>
      <trkpt lat="42.76214" lon="1.36407">
        <ele>1441.4004</ele>
        <time>2025-09-13T16:26:30+02:00</time>
      </trkpt>
      <trkpt lat="42.76213" lon="1.36408">
        <ele>1446</ele>
        <time>2025-09-13T16:26:34+02:00</time>
      </trkpt>
      <trkpt lat="42.76213" lon="1.36409">
        <ele>1446</ele>
        <time>2025-09-13T16:26:35+02:00</time>
      </trkpt>
      <trkpt lat="42.76213" lon="1.3641">
        <ele>1446</ele>
        <time>2025-09-13T16:26:39+02:00</time>
      </trkpt>
      <trkpt lat="42.76213" lon="1.3641">
        <ele>1446</ele>
        <time>2025-09-13T16:26:40+02:00</time>
      </trkpt>
      <trkpt lat="42.76212" lon="1.3641">
        <ele>1446</ele>
        <time>2025-09-13T16:26:45+02:00</time>
      </trkpt>
      <trkpt lat="42.76212" lon="1.3641">
        <ele>1446</ele>
        <time>2025-09-13T16:26:46+02:00</time>
      </trkpt>
      <trkpt lat="42.76212" lon="1.3641">
        <ele>1446</ele>
        <time>2025-09-13T16:26:50+02:00</time>
      </trkpt>
      <trkpt lat="42.76212" lon="1.3641">
        <ele>1446</ele>
        <time>2025-09-13T16:26:51+02:00</time>
      </trkpt>
      <trkpt lat="42.76212" lon="1.36409">
        <ele>1446</ele>
        <time>2025-09-13T16:26:55+02:00</time>
      </trkpt>
      <trkpt lat="42.76212" lon="1.36409">
        <ele>1446</ele>
        <time>2025-09-13T16:26:56+02:00</time>
      </trkpt>
      <trkpt lat="42.76212" lon="1.36409">
        <ele>1446</ele>
        <time>2025-09-13T16:27:00+02:00</time>
      </trkpt>
      <trkpt lat="42.76212" lon="1.36409">
        <ele>1446</ele>
        <time>2025-09-13T16:27:01+02:00</time>
      </trkpt>
      <trkpt lat="42.76212" lon="1.3641">
        <ele>1446</ele>
        <time>2025-09-13T16:27:05+02:00</time>
      </trkpt>
      <trkpt lat="42.76213" lon="1.3641">
        <ele>1446</ele>
        <time>2025-09-13T16:27:06+02:00</time>
      </trkpt>
      <trkpt lat="42.76214" lon="1.3641">
        <ele>1446</ele>
        <time>2025-09-13T16:27:10+02:00</time>
      </trkpt>
      <trkpt lat="42.76214" lon="1.3641">
        <ele>1441.4004</ele>
        <time>2025-09-13T16:27:11+02:00</time>
      </trkpt>
      <trkpt lat="42.76214" lon="1.36411">
        <ele>1441.4004</ele>
        <time>2025-09-13T16:27:15+02:00</time>
      </trkpt>
      <trkpt lat="42.76215" lon="1.36411">
        <ele>1443.7002</ele>
        <time>2025-09-13T16:27:16+02:00</time>
      </trkpt>
      <trkpt lat="42.76216" lon="1.36412">
        <ele>1443.7002</ele>
        <time>2025-09-13T16:27:20+02:00</time>
      </trkpt>
      <trkpt lat="42.76216" lon="1.36412">
        <ele>1443.7002</ele>
        <time>2025-09-13T16:27:21+02:00</time>
      </trkpt>
      <trkpt lat="42.76218" lon="1.36415">
        <ele>1443.7002</ele>
        <time>2025-09-13T16:27:25+02:00</time>
      </trkpt>
      <trkpt lat="42.76218" lon="1.36416">
        <ele>1443.7002</ele>
        <time>2025-09-13T16:27:26+02:00</time>
      </trkpt>
      <trkpt lat="42.7622" lon="1.36419">
        <ele>1438.5</ele>
        <time>2025-09-13T16:27:30+02:00</time>
      </trkpt>
      <trkpt lat="42.76221" lon="1.36419">
        <ele>1438.5</ele>
        <time>2025-09-13T16:27:31+02:00</time>
      </trkpt>
      <trkpt lat="42.76224" lon="1.36419">
        <ele>1441</ele>
        <time>2025-09-13T16:27:35+02:00</time>
      </trkpt>
      <trkpt lat="42.76225" lon="1.3642">
        <ele>1441</ele>
        <time>2025-09-13T16:27:36+02:00</time>
      </trkpt>
      <trkpt lat="42.76229" lon="1.36421">
        <ele>1434.2002</ele>
        <time>2025-09-13T16:27:40+02:00</time>
      </trkpt>
      <trkpt lat="42.76229" lon="1.36422">
        <ele>1434.2002</ele>
        <time>2025-09-13T16:27:41+02:00</time>
      </trkpt>
      <trkpt lat="42.7623" lon="1.36423">
        <ele>1434.2002</ele>
        <time>2025-09-13T16:27:45+02:00</time>
      </trkpt>
      <trkpt lat="42.7623" lon="1.36423">
        <ele>1434.2002</ele>
        <time>2025-09-13T16:27:46+02:00</time>
      </trkpt>
      <trkpt lat="42.7623" lon="1.36423">
        <ele>1434.2002</ele>
        <time>2025-09-13T16:27:50+02:00</time>
      </trkpt>
      <trkpt lat="42.7623" lon="1.36423">
        <ele>1434.2002</ele>
        <time>2025-09-13T16:27:51+02:00</time>
      </trkpt>
      <trkpt lat="42.76229" lon="1.36423">
        <ele>1434.2002</ele>
        <time>2025-09-13T16:27:55+02:00</time>
      </trkpt>
      <trkpt lat="42.76229" lon="1.36423">
        <ele>1434.2002</ele>
        <time>2025-09-13T16:27:56+02:00</time>
      </trkpt>
      <trkpt lat="42.76228" lon="1.36422">
        <ele>1434.2002</ele>
        <time>2025-09-13T16:28:00+02:00</time>
      </trkpt>
      <trkpt lat="42.76227" lon="1.36422">
        <ele>1434.2002</ele>
        <time>2025-09-13T16:28:01+02:00</time>
      </trkpt>
      <trkpt lat="42.76227" lon="1.36422">
        <ele>1434.2002</ele>
        <time>2025-09-13T16:28:05+02:00</time>
      </trkpt>
      <trkpt lat="42.76227" lon="1.36422">
        <ele>1434.2002</ele>
        <time>2025-09-13T16:28:06+02:00</time>
      </trkpt>
      <trkpt lat="42.76227" lon="1.36424">
        <ele>1434.2002</ele>
        <time>2025-09-13T16:28:10+02:00</time>
      </trkpt>
      <trkpt lat="42.76227" lon="1.36424">
        <ele>1434.2002</ele>
        <time>2025-09-13T16:28:11+02:00</time>
      </trkpt>
      <trkpt lat="42.76226" lon="1.36426">
        <ele>1441</ele>
        <time>2025-09-13T16:28:15+02:00</time>
      </trkpt>
      <trkpt lat="42.76226" lon="1.36426">
        <ele>1441</ele>
        <time>2025-09-13T16:28:16+02:00</time>
      </trkpt>
      <trkpt lat="42.76228" lon="1.36429">
        <ele>1436.7998</ele>
        <time>2025-09-13T16:28:20+02:00</time>
      </trkpt>
      <trkpt lat="42.76228" lon="1.36429">
        <ele>1436.7998</ele>
        <time>2025-09-13T16:28:21+02:00</time>
      </trkpt>
      <trkpt lat="42.7623" lon="1.36432">
        <ele>1436.7998</ele>
        <time>2025-09-13T16:28:25+02:00</time>
      </trkpt>
      <trkpt lat="42.7623" lon="1.36432">
        <ele>1436.7998</ele>
        <time>2025-09-13T16:28:26+02:00</time>
      </trkpt>
      <trkpt lat="42.76231" lon="1.36434">
        <ele>1436.7998</ele>
        <time>2025-09-13T16:28:30+02:00</time>
      </trkpt>
      <trkpt lat="42.76231" lon="1.36434">
        <ele>1436.7998</ele>
        <time>2025-09-13T16:28:31+02:00</time>
      </trkpt>
      <trkpt lat="42.76233" lon="1.36435">
        <ele>1428.9004</ele>
        <time>2025-09-13T16:28:35+02:00</time>
      </trkpt>
      <trkpt lat="42.76233" lon="1.36435">
        <ele>1428.9004</ele>
        <time>2025-09-13T16:28:36+02:00</time>
      </trkpt>
      <trkpt lat="42.76233" lon="1.36435">
        <ele>1428.9004</ele>
        <time>2025-09-13T16:28:40+02:00</time>
      </trkpt>
      <trkpt lat="42.76233" lon="1.36435">
        <ele>1428.9004</ele>
        <time>2025-09-13T16:28:41+02:00</time>
      </trkpt>
      <trkpt lat="42.76233" lon="1.36435">
        <ele>1428.9004</ele>
        <time>2025-09-13T16:28:45+02:00</time>
      </trkpt>
      <trkpt lat="42.76233" lon="1.36435">
        <ele>1428.9004</ele>
        <time>2025-09-13T16:28:46+02:00</time>
      </trkpt>
      <trkpt lat="42.76231" lon="1.36435">
        <ele>1436.7998</ele>
        <time>2025-09-13T16:28:50+02:00</time>
      </trkpt>
      <trkpt lat="42.7623" lon="1.36435">
        <ele>1436.7998</ele>
        <time>2025-09-13T16:28:51+02:00</time>
      </trkpt>
      <trkpt lat="42.76228" lon="1.36435">
        <ele>1436.7998</ele>
        <time>2025-09-13T16:28:55+02:00</time>
      </trkpt>
      <trkpt lat="42.76227" lon="1.36435">
        <ele>1436.7998</ele>
        <time>2025-09-13T16:28:56+02:00</time>
      </trkpt>
      <trkpt lat="42.76226" lon="1.36435">
        <ele>1443.6006</ele>
        <time>2025-09-13T16:29:00+02:00</time>
      </trkpt>
      <trkpt lat="42.76225" lon="1.36435">
        <ele>1443.6006</ele>
        <time>2025-09-13T16:29:01+02:00</time>
      </trkpt>
      <trkpt lat="42.76224" lon="1.36435">
        <ele>1443.6006</ele>
        <time>2025-09-13T16:29:05+02:00</time>
      </trkpt>
      <trkpt lat="42.76223" lon="1.36434">
        <ele>1443.6006</ele>
        <time>2025-09-13T16:29:06+02:00</time>
      </trkpt>
      <trkpt lat="42.76221" lon="1.36435">
        <ele>1443.6006</ele>
        <time>2025-09-13T16:29:10+02:00</time>
      </trkpt>
      <trkpt lat="42.76221" lon="1.36435">
        <ele>1443.6006</ele>
        <time>2025-09-13T16:29:11+02:00</time>
      </trkpt>
      <trkpt lat="42.76221" lon="1.36434">
        <ele>1443.6006</ele>
        <time>2025-09-13T16:29:15+02:00</time>
      </trkpt>
      <trkpt lat="42.76221" lon="1.36434">
        <ele>1443.6006</ele>
        <time>2025-09-13T16:29:16+02:00</time>
      </trkpt>
      <trkpt lat="42.76221" lon="1.36434">
        <ele>1443.6006</ele>
        <time>2025-09-13T16:29:20+02:00</time>
      </trkpt>
      <trkpt lat="42.76221" lon="1.36434">
        <ele>1443.6006</ele>
        <time>2025-09-13T16:29:21+02:00</time>
      </trkpt>
      <trkpt lat="42.76221" lon="1.36434">
        <ele>1443.6006</ele>
        <time>2025-09-13T16:29:25+02:00</time>
      </trkpt>
      <trkpt lat="42.76221" lon="1.36434">
        <ele>1443.6006</ele>
        <time>2025-09-13T16:29:26+02:00</time>
      </trkpt>
      <trkpt lat="42.76221" lon="1.36435">
        <ele>1443.6006</ele>
        <time>2025-09-13T16:29:30+02:00</time>
      </trkpt>
      <trkpt lat="42.7622" lon="1.36435">
        <ele>1443.6006</ele>
        <time>2025-09-13T16:29:31+02:00</time>
      </trkpt>
      <trkpt lat="42.7622" lon="1.36437">
        <ele>1451.7002</ele>
        <time>2025-09-13T16:29:35+02:00</time>
      </trkpt>
      <trkpt lat="42.7622" lon="1.36438">
        <ele>1451.7002</ele>
        <time>2025-09-13T16:29:36+02:00</time>
      </trkpt>
      <trkpt lat="42.7622" lon="1.36439">
        <ele>1451.7002</ele>
        <time>2025-09-13T16:29:40+02:00</time>
      </trkpt>
      <trkpt lat="42.7622" lon="1.36439">
        <ele>1451.7002</ele>
        <time>2025-09-13T16:29:41+02:00</time>
      </trkpt>
      <trkpt lat="42.76219" lon="1.3644">
        <ele>1451.7002</ele>
        <time>2025-09-13T16:29:45+02:00</time>
      </trkpt>
      <trkpt lat="42.76219" lon="1.3644">
        <ele>1451.7002</ele>
        <time>2025-09-13T16:29:46+02:00</time>
      </trkpt>
      <trkpt lat="42.76219" lon="1.3644">
        <ele>1451.7002</ele>
        <time>2025-09-13T16:29:50+02:00</time>
      </trkpt>
      <trkpt lat="42.76219" lon="1.36441">
        <ele>1451.7002</ele>
        <time>2025-09-13T16:29:51+02:00</time>
      </trkpt>
      <trkpt lat="42.76219" lon="1.36441">
        <ele>1451.7002</ele>
        <time>2025-09-13T16:29:55+02:00</time>
      </trkpt>
      <trkpt lat="42.76219" lon="1.36441">
        <ele>1451.7002</ele>
        <time>2025-09-13T16:29:56+02:00</time>
      </trkpt>
      <trkpt lat="42.76219" lon="1.36443">
        <ele>1451.7002</ele>
        <time>2025-09-13T16:30:00+02:00</time>
      </trkpt>
      <trkpt lat="42.76219" lon="1.36443">
        <ele>1451.7002</ele>
        <time>2025-09-13T16:30:01+02:00</time>
      </trkpt>
      <trkpt lat="42.7622" lon="1.36445">
        <ele>1446.6006</ele>
        <time>2025-09-13T16:30:05+02:00</time>
      </trkpt>
      <trkpt lat="42.7622" lon="1.36445">
        <ele>1450</ele>
        <time>2025-09-13T16:30:06+02:00</time>
      </trkpt>
      <trkpt lat="42.7622" lon="1.36446">
        <ele>1450</ele>
        <time>2025-09-13T16:30:10+02:00</time>
      </trkpt>
      <trkpt lat="42.7622" lon="1.36446">
        <ele>1450</ele>
        <time>2025-09-13T16:30:11+02:00</time>
      </trkpt>
      <trkpt lat="42.76221" lon="1.36447">
        <ele>1450</ele>
        <time>2025-09-13T16:30:15+02:00</time>
      </trkpt>
      <trkpt lat="42.76221" lon="1.36448">
        <ele>1450</ele>
        <time>2025-09-13T16:30:16+02:00</time>
      </trkpt>
      <trkpt lat="42.76221" lon="1.3645">
        <ele>1450</ele>
        <time>2025-09-13T16:30:20+02:00</time>
      </trkpt>
      <trkpt lat="42.76221" lon="1.3645">
        <ele>1450</ele>
        <time>2025-09-13T16:30:21+02:00</time>
      </trkpt>
      <trkpt lat="42.76223" lon="1.36452">
        <ele>1450</ele>
        <time>2025-09-13T16:30:25+02:00</time>
      </trkpt>
      <trkpt lat="42.76223" lon="1.36452">
        <ele>1450</ele>
        <time>2025-09-13T16:30:26+02:00</time>
      </trkpt>
      <trkpt lat="42.76224" lon="1.36453">
        <ele>1450</ele>
        <time>2025-09-13T16:30:31+02:00</time>
      </trkpt>
      <trkpt lat="42.76224" lon="1.36455">
        <ele>1453.4004</ele>
        <time>2025-09-13T16:30:36+02:00</time>
      </trkpt>
      <trkpt lat="42.76224" lon="1.36456">
        <ele>1453.4004</ele>
        <time>2025-09-13T16:30:37+02:00</time>
      </trkpt>
      <trkpt lat="42.76225" lon="1.36459">
        <ele>1453.4004</ele>
        <time>2025-09-13T16:30:41+02:00</time>
      </trkpt>
      <trkpt lat="42.76225" lon="1.3646">
        <ele>1453.4004</ele>
        <time>2025-09-13T16:30:42+02:00</time>
      </trkpt>
      <trkpt lat="42.76225" lon="1.3646">
        <ele>1453.4004</ele>
        <time>2025-09-13T16:30:46+02:00</time>
      </trkpt>
      <trkpt lat="42.76225" lon="1.3646">
        <ele>1453.4004</ele>
        <time>2025-09-13T16:30:47+02:00</time>
      </trkpt>
      <trkpt lat="42.76224" lon="1.3646">
        <ele>1453.4004</ele>
        <time>2025-09-13T16:30:51+02:00</time>
      </trkpt>
      <trkpt lat="42.76224" lon="1.3646">
        <ele>1453.4004</ele>
        <time>2025-09-13T16:30:52+02:00</time>
      </trkpt>
      <trkpt lat="42.76222" lon="1.3646">
        <ele>1453.4004</ele>
        <time>2025-09-13T16:30:56+02:00</time>
      </trkpt>
      <trkpt lat="42.76221" lon="1.3646">
        <ele>1453.4004</ele>
        <time>2025-09-13T16:30:57+02:00</time>
      </trkpt>
      <trkpt lat="42.76219" lon="1.36459">
        <ele>1457.7998</ele>
        <time>2025-09-13T16:31:01+02:00</time>
      </trkpt>
      <trkpt lat="42.76218" lon="1.36459">
        <ele>1457.7998</ele>
        <time>2025-09-13T16:31:02+02:00</time>
      </trkpt>
      <trkpt lat="42.76217" lon="1.36458">
        <ele>1457.7998</ele>
        <time>2025-09-13T16:31:06+02:00</time>
      </trkpt>
      <trkpt lat="42.76217" lon="1.36458">
        <ele>1457.7998</ele>
        <time>2025-09-13T16:31:07+02:00</time>
      </trkpt>
      <trkpt lat="42.76215" lon="1.36457">
        <ele>1457.7998</ele>
        <time>2025-09-13T16:31:11+02:00</time>
      </trkpt>
      <trkpt lat="42.76215" lon="1.36457">
        <ele>1457.7998</ele>
        <time>2025-09-13T16:31:12+02:00</time>
      </trkpt>
      <trkpt lat="42.76213" lon="1.36459">
        <ele>1460.9004</ele>
        <time>2025-09-13T16:31:16+02:00</time>
      </trkpt>
      <trkpt lat="42.76213" lon="1.3646">
        <ele>1460.9004</ele>
        <time>2025-09-13T16:31:17+02:00</time>
      </trkpt>
      <trkpt lat="42.76213" lon="1.36461">
        <ele>1460.9004</ele>
        <time>2025-09-13T16:31:21+02:00</time>
      </trkpt>
      <trkpt lat="42.76213" lon="1.36461">
        <ele>1460.9004</ele>
        <time>2025-09-13T16:31:22+02:00</time>
      </trkpt>
      <trkpt lat="42.76214" lon="1.36461">
        <ele>1460.9004</ele>
        <time>2025-09-13T16:31:26+02:00</time>
      </trkpt>
      <trkpt lat="42.76214" lon="1.36462">
        <ele>1460.9004</ele>
        <time>2025-09-13T16:31:27+02:00</time>
      </trkpt>
      <trkpt lat="42.76216" lon="1.36465">
        <ele>1460.7998</ele>
        <time>2025-09-13T16:31:31+02:00</time>
      </trkpt>
      <trkpt lat="42.76217" lon="1.36465">
        <ele>1460.7998</ele>
        <time>2025-09-13T16:31:32+02:00</time>
      </trkpt>
      <trkpt lat="42.76218" lon="1.36467">
        <ele>1460.7998</ele>
        <time>2025-09-13T16:31:36+02:00</time>
      </trkpt>
      <trkpt lat="42.76218" lon="1.36467">
        <ele>1460.7998</ele>
        <time>2025-09-13T16:31:37+02:00</time>
      </trkpt>
      <trkpt lat="42.76218" lon="1.36467">
        <ele>1460.7998</ele>
        <time>2025-09-13T16:31:41+02:00</time>
      </trkpt>
      <trkpt lat="42.76218" lon="1.36467">
        <ele>1460.7998</ele>
        <time>2025-09-13T16:31:42+02:00</time>
      </trkpt>
      <trkpt lat="42.76218" lon="1.36467">
        <ele>1460.7998</ele>
        <time>2025-09-13T16:31:46+02:00</time>
      </trkpt>
      <trkpt lat="42.76218" lon="1.36467">
        <ele>1460.7998</ele>
        <time>2025-09-13T16:31:47+02:00</time>
      </trkpt>
      <trkpt lat="42.76218" lon="1.36467">
        <ele>1460.7998</ele>
        <time>2025-09-13T16:31:51+02:00</time>
      </trkpt>
      <trkpt lat="42.76218" lon="1.36468">
        <ele>1460.7998</ele>
        <time>2025-09-13T16:31:52+02:00</time>
      </trkpt>
      <trkpt lat="42.76218" lon="1.36469">
        <ele>1460.7998</ele>
        <time>2025-09-13T16:31:56+02:00</time>
      </trkpt>
      <trkpt lat="42.76218" lon="1.36469">
        <ele>1460.7998</ele>
        <time>2025-09-13T16:31:57+02:00</time>
      </trkpt>
      <trkpt lat="42.76219" lon="1.3647">
        <ele>1460.7998</ele>
        <time>2025-09-13T16:32:01+02:00</time>
      </trkpt>
      <trkpt lat="42.76219" lon="1.36471">
        <ele>1460.7998</ele>
        <time>2025-09-13T16:32:02+02:00</time>
      </trkpt>
      <trkpt lat="42.76219" lon="1.36471">
        <ele>1463.6006</ele>
        <time>2025-09-13T16:32:06+02:00</time>
      </trkpt>
      <trkpt lat="42.76219" lon="1.36471">
        <ele>1463.6006</ele>
        <time>2025-09-13T16:32:07+02:00</time>
      </trkpt>
      <trkpt lat="42.76218" lon="1.36471">
        <ele>1463.6006</ele>
        <time>2025-09-13T16:32:11+02:00</time>
      </trkpt>
      <trkpt lat="42.76218" lon="1.36471">
        <ele>1463.6006</ele>
        <time>2025-09-13T16:32:12+02:00</time>
      </trkpt>
      <trkpt lat="42.76217" lon="1.36471">
        <ele>1463.6006</ele>
        <time>2025-09-13T16:32:16+02:00</time>
      </trkpt>
      <trkpt lat="42.76217" lon="1.36471">
        <ele>1463.6006</ele>
        <time>2025-09-13T16:32:17+02:00</time>
      </trkpt>
      <trkpt lat="42.76217" lon="1.36472">
        <ele>1463.6006</ele>
        <time>2025-09-13T16:32:21+02:00</time>
      </trkpt>
      <trkpt lat="42.76217" lon="1.36472">
        <ele>1463.6006</ele>
        <time>2025-09-13T16:32:22+02:00</time>
      </trkpt>
      <trkpt lat="42.76216" lon="1.36472">
        <ele>1463.6006</ele>
        <time>2025-09-13T16:32:26+02:00</time>
      </trkpt>
      <trkpt lat="42.76216" lon="1.36472">
        <ele>1463.6006</ele>
        <time>2025-09-13T16:32:27+02:00</time>
      </trkpt>
      <trkpt lat="42.76217" lon="1.36473">
        <ele>1463.6006</ele>
        <time>2025-09-13T16:32:31+02:00</time>
      </trkpt>
      <trkpt lat="42.76217" lon="1.36473">
        <ele>1463.6006</ele>
        <time>2025-09-13T16:32:32+02:00</time>
      </trkpt>
      <trkpt lat="42.76218" lon="1.36475">
        <ele>1463.6006</ele>
        <time>2025-09-13T16:32:36+02:00</time>
      </trkpt>
      <trkpt lat="42.76218" lon="1.36475">
        <ele>1463.6006</ele>
        <time>2025-09-13T16:32:37+02:00</time>
      </trkpt>
      <trkpt lat="42.76218" lon="1.36475">
        <ele>1463.6006</ele>
        <time>2025-09-13T16:32:41+02:00</time>
      </trkpt>
      <trkpt lat="42.76218" lon="1.36475">
        <ele>1463.6006</ele>
        <time>2025-09-13T16:32:42+02:00</time>
      </trkpt>
      <trkpt lat="42.76218" lon="1.36476">
        <ele>1463.6006</ele>
        <time>2025-09-13T16:32:46+02:00</time>
      </trkpt>
      <trkpt lat="42.76218" lon="1.36477">
        <ele>1463.6006</ele>
        <time>2025-09-13T16:32:47+02:00</time>
      </trkpt>
      <trkpt lat="42.76219" lon="1.36477">
        <ele>1463.6006</ele>
        <time>2025-09-13T16:32:51+02:00</time>
      </trkpt>
      <trkpt lat="42.76219" lon="1.36477">
        <ele>1463.6006</ele>
        <time>2025-09-13T16:32:52+02:00</time>
      </trkpt>
      <trkpt lat="42.76219" lon="1.36477">
        <ele>1463.6006</ele>
        <time>2025-09-13T16:32:56+02:00</time>
      </trkpt>
      <trkpt lat="42.76219" lon="1.36477">
        <ele>1463.6006</ele>
        <time>2025-09-13T16:32:57+02:00</time>
      </trkpt>
      <trkpt lat="42.76217" lon="1.36481">
        <ele>1466.2002</ele>
        <time>2025-09-13T16:33:01+02:00</time>
      </trkpt>
      <trkpt lat="42.76217" lon="1.36481">
        <ele>1466.2002</ele>
        <time>2025-09-13T16:33:02+02:00</time>
      </trkpt>
      <trkpt lat="42.76217" lon="1.36485">
        <ele>1466.2002</ele>
        <time>2025-09-13T16:33:06+02:00</time>
      </trkpt>
      <trkpt lat="42.76217" lon="1.36486">
        <ele>1466.2002</ele>
        <time>2025-09-13T16:33:07+02:00</time>
      </trkpt>
      <trkpt lat="42.76217" lon="1.36487">
        <ele>1466.2002</ele>
        <time>2025-09-13T16:33:11+02:00</time>
      </trkpt>
      <trkpt lat="42.76217" lon="1.36487">
        <ele>1466.2002</ele>
        <time>2025-09-13T16:33:12+02:00</time>
      </trkpt>
      <trkpt lat="42.76218" lon="1.36488">
        <ele>1466.2002</ele>
        <time>2025-09-13T16:33:16+02:00</time>
      </trkpt>
      <trkpt lat="42.76217" lon="1.36488">
        <ele>1466.2002</ele>
        <time>2025-09-13T16:33:17+02:00</time>
      </trkpt>
      <trkpt lat="42.76217" lon="1.36488">
        <ele>1466.2002</ele>
        <time>2025-09-13T16:33:21+02:00</time>
      </trkpt>
      <trkpt lat="42.76217" lon="1.36488">
        <ele>1466.2002</ele>
        <time>2025-09-13T16:33:22+02:00</time>
      </trkpt>
      <trkpt lat="42.76217" lon="1.36488">
        <ele>1468.7002</ele>
        <time>2025-09-13T16:33:26+02:00</time>
      </trkpt>
      <trkpt lat="42.76217" lon="1.36488">
        <ele>1468.7002</ele>
        <time>2025-09-13T16:33:27+02:00</time>
      </trkpt>
      <trkpt lat="42.76217" lon="1.36489">
        <ele>1468.7002</ele>
        <time>2025-09-13T16:33:31+02:00</time>
      </trkpt>
      <trkpt lat="42.76216" lon="1.36489">
        <ele>1468.7002</ele>
        <time>2025-09-13T16:33:32+02:00</time>
      </trkpt>
      <trkpt lat="42.76214" lon="1.3649">
        <ele>1468.7002</ele>
        <time>2025-09-13T16:33:36+02:00</time>
      </trkpt>
      <trkpt lat="42.76214" lon="1.3649">
        <ele>1468.7002</ele>
        <time>2025-09-13T16:33:37+02:00</time>
      </trkpt>
      <trkpt lat="42.76213" lon="1.3649">
        <ele>1471.1006</ele>
        <time>2025-09-13T16:33:41+02:00</time>
      </trkpt>
      <trkpt lat="42.76213" lon="1.3649">
        <ele>1471.1006</ele>
        <time>2025-09-13T16:33:42+02:00</time>
      </trkpt>
      <trkpt lat="42.7621" lon="1.36491">
        <ele>1471.1006</ele>
        <time>2025-09-13T16:33:46+02:00</time>
      </trkpt>
      <trkpt lat="42.7621" lon="1.36492">
        <ele>1471.1006</ele>
        <time>2025-09-13T16:33:47+02:00</time>
      </trkpt>
      <trkpt lat="42.76211" lon="1.36493">
        <ele>1471.1006</ele>
        <time>2025-09-13T16:33:51+02:00</time>
      </trkpt>
      <trkpt lat="42.76211" lon="1.36493">
        <ele>1471.1006</ele>
        <time>2025-09-13T16:33:52+02:00</time>
      </trkpt>
      <trkpt lat="42.76212" lon="1.36495">
        <ele>1471.1006</ele>
        <time>2025-09-13T16:33:56+02:00</time>
      </trkpt>
      <trkpt lat="42.76212" lon="1.36495">
        <ele>1471.1006</ele>
        <time>2025-09-13T16:33:57+02:00</time>
      </trkpt>
      <trkpt lat="42.76213" lon="1.36495">
        <ele>1471.1006</ele>
        <time>2025-09-13T16:34:01+02:00</time>
      </trkpt>
      <trkpt lat="42.76213" lon="1.36496">
        <ele>1471.1006</ele>
        <time>2025-09-13T16:34:02+02:00</time>
      </trkpt>
      <trkpt lat="42.76214" lon="1.36497">
        <ele>1471.4004</ele>
        <time>2025-09-13T16:34:06+02:00</time>
      </trkpt>
      <trkpt lat="42.76214" lon="1.36497">
        <ele>1471.4004</ele>
        <time>2025-09-13T16:34:07+02:00</time>
      </trkpt>
      <trkpt lat="42.76214" lon="1.36497">
        <ele>1471.4004</ele>
        <time>2025-09-13T16:34:11+02:00</time>
      </trkpt>
      <trkpt lat="42.76214" lon="1.36497">
        <ele>1471.4004</ele>
        <time>2025-09-13T16:34:12+02:00</time>
      </trkpt>
      <trkpt lat="42.76214" lon="1.36498">
        <ele>1471.4004</ele>
        <time>2025-09-13T16:34:16+02:00</time>
      </trkpt>
      <trkpt lat="42.76215" lon="1.36499">
        <ele>1471.4004</ele>
        <time>2025-09-13T16:34:17+02:00</time>
      </trkpt>
      <trkpt lat="42.76215" lon="1.36502">
        <ele>1471.4004</ele>
        <time>2025-09-13T16:34:21+02:00</time>
      </trkpt>
      <trkpt lat="42.76215" lon="1.36503">
        <ele>1471.4004</ele>
        <time>2025-09-13T16:34:22+02:00</time>
      </trkpt>
      <trkpt lat="42.76216" lon="1.36506">
        <ele>1474.1006</ele>
        <time>2025-09-13T16:34:26+02:00</time>
      </trkpt>
      <trkpt lat="42.76216" lon="1.36506">
        <ele>1474.1006</ele>
        <time>2025-09-13T16:34:27+02:00</time>
      </trkpt>
      <trkpt lat="42.76217" lon="1.36508">
        <ele>1474.1006</ele>
        <time>2025-09-13T16:34:31+02:00</time>
      </trkpt>
      <trkpt lat="42.76217" lon="1.36508">
        <ele>1474.1006</ele>
        <time>2025-09-13T16:34:32+02:00</time>
      </trkpt>
      <trkpt lat="42.76217" lon="1.36508">
        <ele>1474.1006</ele>
        <time>2025-09-13T16:34:36+02:00</time>
      </trkpt>
      <trkpt lat="42.76217" lon="1.36509">
        <ele>1474.1006</ele>
        <time>2025-09-13T16:34:37+02:00</time>
      </trkpt>
      <trkpt lat="42.76219" lon="1.36512">
        <ele>1474.1006</ele>
        <time>2025-09-13T16:34:41+02:00</time>
      </trkpt>
      <trkpt lat="42.76219" lon="1.36513">
        <ele>1474.1006</ele>
        <time>2025-09-13T16:34:42+02:00</time>
      </trkpt>
      <trkpt lat="42.76219" lon="1.36514">
        <ele>1476.9004</ele>
        <time>2025-09-13T16:34:46+02:00</time>
      </trkpt>
      <trkpt lat="42.76219" lon="1.36514">
        <ele>1476.9004</ele>
        <time>2025-09-13T16:34:47+02:00</time>
      </trkpt>
      <trkpt lat="42.76219" lon="1.36514">
        <ele>1474.1006</ele>
        <time>2025-09-13T16:34:51+02:00</time>
      </trkpt>
      <trkpt lat="42.76219" lon="1.36514">
        <ele>1474.1006</ele>
        <time>2025-09-13T16:34:52+02:00</time>
      </trkpt>
      <trkpt lat="42.76219" lon="1.36514">
        <ele>1476.9004</ele>
        <time>2025-09-13T16:34:56+02:00</time>
      </trkpt>
      <trkpt lat="42.76219" lon="1.36514">
        <ele>1476.9004</ele>
        <time>2025-09-13T16:34:57+02:00</time>
      </trkpt>
      <trkpt lat="42.76218" lon="1.36514">
        <ele>1476.9004</ele>
        <time>2025-09-13T16:35:01+02:00</time>
      </trkpt>
      <trkpt lat="42.76217" lon="1.36514">
        <ele>1476.9004</ele>
        <time>2025-09-13T16:35:02+02:00</time>
      </trkpt>
      <trkpt lat="42.76217" lon="1.36514">
        <ele>1476.9004</ele>
        <time>2025-09-13T16:35:06+02:00</time>
      </trkpt>
      <trkpt lat="42.76217" lon="1.36514">
        <ele>1476.9004</ele>
        <time>2025-09-13T16:35:07+02:00</time>
      </trkpt>
      <trkpt lat="42.76217" lon="1.36514">
        <ele>1476.9004</ele>
        <time>2025-09-13T16:35:11+02:00</time>
      </trkpt>
      <trkpt lat="42.76217" lon="1.36514">
        <ele>1476.9004</ele>
        <time>2025-09-13T16:35:12+02:00</time>
      </trkpt>
      <trkpt lat="42.76216" lon="1.36514">
        <ele>1476.9004</ele>
        <time>2025-09-13T16:35:16+02:00</time>
      </trkpt>
      <trkpt lat="42.76216" lon="1.36514">
        <ele>1476.9004</ele>
        <time>2025-09-13T16:35:17+02:00</time>
      </trkpt>
      <trkpt lat="42.76215" lon="1.36514">
        <ele>1474.1006</ele>
        <time>2025-09-13T16:35:21+02:00</time>
      </trkpt>
      <trkpt lat="42.76214" lon="1.36513">
        <ele>1474.1006</ele>
        <time>2025-09-13T16:35:22+02:00</time>
      </trkpt>
      <trkpt lat="42.76212" lon="1.36512">
        <ele>1476.6006</ele>
        <time>2025-09-13T16:35:26+02:00</time>
      </trkpt>
      <trkpt lat="42.76212" lon="1.36512">
        <ele>1476.6006</ele>
        <time>2025-09-13T16:35:27+02:00</time>
      </trkpt>
      <trkpt lat="42.76211" lon="1.36512">
        <ele>1476.6006</ele>
        <time>2025-09-13T16:35:31+02:00</time>
      </trkpt>
      <trkpt lat="42.76211" lon="1.36512">
        <ele>1476.6006</ele>
        <time>2025-09-13T16:35:32+02:00</time>
      </trkpt>
      <trkpt lat="42.76211" lon="1.36512">
        <ele>1476.6006</ele>
        <time>2025-09-13T16:35:36+02:00</time>
      </trkpt>
      <trkpt lat="42.7621" lon="1.36512">
        <ele>1476.6006</ele>
        <time>2025-09-13T16:35:37+02:00</time>
      </trkpt>
      <trkpt lat="42.7621" lon="1.36512">
        <ele>1476.6006</ele>
        <time>2025-09-13T16:35:41+02:00</time>
      </trkpt>
      <trkpt lat="42.7621" lon="1.36513">
        <ele>1476.6006</ele>
        <time>2025-09-13T16:35:42+02:00</time>
      </trkpt>
      <trkpt lat="42.7621" lon="1.36512">
        <ele>1476.6006</ele>
        <time>2025-09-13T16:35:46+02:00</time>
      </trkpt>
      <trkpt lat="42.7621" lon="1.36512">
        <ele>1476.6006</ele>
        <time>2025-09-13T16:35:47+02:00</time>
      </trkpt>
      <trkpt lat="42.7621" lon="1.36512">
        <ele>1476.6006</ele>
        <time>2025-09-13T16:35:51+02:00</time>
      </trkpt>
      <trkpt lat="42.7621" lon="1.36512">
        <ele>1476.6006</ele>
        <time>2025-09-13T16:35:52+02:00</time>
      </trkpt>
      <trkpt lat="42.7621" lon="1.36512">
        <ele>1476.6006</ele>
        <time>2025-09-13T16:35:56+02:00</time>
      </trkpt>
      <trkpt lat="42.7621" lon="1.36513">
        <ele>1476.6006</ele>
        <time>2025-09-13T16:35:57+02:00</time>
      </trkpt>
      <trkpt lat="42.76209" lon="1.36515">
        <ele>1479.4004</ele>
        <time>2025-09-13T16:36:01+02:00</time>
      </trkpt>
      <trkpt lat="42.76209" lon="1.36515">
        <ele>1479.4004</ele>
        <time>2025-09-13T16:36:02+02:00</time>
      </trkpt>
      <trkpt lat="42.76207" lon="1.36517">
        <ele>1481.7998</ele>
        <time>2025-09-13T16:36:05+02:00</time>
      </trkpt>
      <trkpt lat="42.76206" lon="1.36517">
        <ele>1481.7998</ele>
        <time>2025-09-13T16:36:07+02:00</time>
      </trkpt>
      <trkpt lat="42.76203" lon="1.36516">
        <ele>1481.7998</ele>
        <time>2025-09-13T16:36:11+02:00</time>
      </trkpt>
      <trkpt lat="42.76202" lon="1.36515">
        <ele>1481.7998</ele>
        <time>2025-09-13T16:36:12+02:00</time>
      </trkpt>
      <trkpt lat="42.76202" lon="1.36515">
        <ele>1481.7998</ele>
        <time>2025-09-13T16:36:16+02:00</time>
      </trkpt>
      <trkpt lat="42.76202" lon="1.36515">
        <ele>1481.7998</ele>
        <time>2025-09-13T16:36:17+02:00</time>
      </trkpt>
      <trkpt lat="42.76202" lon="1.36515">
        <ele>1481.7998</ele>
        <time>2025-09-13T16:36:21+02:00</time>
      </trkpt>
      <trkpt lat="42.76202" lon="1.36515">
        <ele>1481.7998</ele>
        <time>2025-09-13T16:36:22+02:00</time>
      </trkpt>
      <trkpt lat="42.76201" lon="1.36516">
        <ele>1481.7998</ele>
        <time>2025-09-13T16:36:26+02:00</time>
      </trkpt>
      <trkpt lat="42.76201" lon="1.36517">
        <ele>1481.7998</ele>
        <time>2025-09-13T16:36:27+02:00</time>
      </trkpt>
      <trkpt lat="42.76201" lon="1.36517">
        <ele>1481.7998</ele>
        <time>2025-09-13T16:36:31+02:00</time>
      </trkpt>
      <trkpt lat="42.76201" lon="1.36518">
        <ele>1481.7998</ele>
        <time>2025-09-13T16:36:32+02:00</time>
      </trkpt>
      <trkpt lat="42.76201" lon="1.36518">
        <ele>1481.7998</ele>
        <time>2025-09-13T16:36:35+02:00</time>
      </trkpt>
      <trkpt lat="42.76201" lon="1.36518">
        <ele>1481.7998</ele>
        <time>2025-09-13T16:36:37+02:00</time>
      </trkpt>
      <trkpt lat="42.76201" lon="1.36519">
        <ele>1481.7998</ele>
        <time>2025-09-13T16:36:41+02:00</time>
      </trkpt>
      <trkpt lat="42.76201" lon="1.36519">
        <ele>1481.7998</ele>
        <time>2025-09-13T16:36:42+02:00</time>
      </trkpt>
      <trkpt lat="42.76202" lon="1.3652">
        <ele>1481.7998</ele>
        <time>2025-09-13T16:36:46+02:00</time>
      </trkpt>
      <trkpt lat="42.76202" lon="1.36521">
        <ele>1481.7998</ele>
        <time>2025-09-13T16:36:47+02:00</time>
      </trkpt>
      <trkpt lat="42.76203" lon="1.36522">
        <ele>1484.6006</ele>
        <time>2025-09-13T16:36:51+02:00</time>
      </trkpt>
      <trkpt lat="42.76204" lon="1.36523">
        <ele>1484.6006</ele>
        <time>2025-09-13T16:36:52+02:00</time>
      </trkpt>
      <trkpt lat="42.76205" lon="1.36525">
        <ele>1484.6006</ele>
        <time>2025-09-13T16:36:56+02:00</time>
      </trkpt>
      <trkpt lat="42.76205" lon="1.36525">
        <ele>1484.6006</ele>
        <time>2025-09-13T16:36:57+02:00</time>
      </trkpt>
      <trkpt lat="42.76207" lon="1.36528">
        <ele>1484.6006</ele>
        <time>2025-09-13T16:37:01+02:00</time>
      </trkpt>
      <trkpt lat="42.76208" lon="1.36528">
        <ele>1482.2998</ele>
        <time>2025-09-13T16:37:02+02:00</time>
      </trkpt>
      <trkpt lat="42.76209" lon="1.3653">
        <ele>1482.2998</ele>
        <time>2025-09-13T16:37:06+02:00</time>
      </trkpt>
      <trkpt lat="42.7621" lon="1.3653">
        <ele>1482.2998</ele>
        <time>2025-09-13T16:37:07+02:00</time>
      </trkpt>
      <trkpt lat="42.76211" lon="1.36533">
        <ele>1485.2002</ele>
        <time>2025-09-13T16:37:11+02:00</time>
      </trkpt>
      <trkpt lat="42.76211" lon="1.36533">
        <ele>1485.2002</ele>
        <time>2025-09-13T16:37:12+02:00</time>
      </trkpt>
      <trkpt lat="42.76211" lon="1.36534">
        <ele>1485.2002</ele>
        <time>2025-09-13T16:37:16+02:00</time>
      </trkpt>
      <trkpt lat="42.76211" lon="1.36534">
        <ele>1485.2002</ele>
        <time>2025-09-13T16:37:17+02:00</time>
      </trkpt>
      <trkpt lat="42.76211" lon="1.36534">
        <ele>1485.2002</ele>
        <time>2025-09-13T16:37:21+02:00</time>
      </trkpt>
      <trkpt lat="42.76211" lon="1.36534">
        <ele>1485.2002</ele>
        <time>2025-09-13T16:37:22+02:00</time>
      </trkpt>
      <trkpt lat="42.76211" lon="1.36536">
        <ele>1485.2002</ele>
        <time>2025-09-13T16:37:26+02:00</time>
      </trkpt>
      <trkpt lat="42.76211" lon="1.36536">
        <ele>1485.2002</ele>
        <time>2025-09-13T16:37:27+02:00</time>
      </trkpt>
      <trkpt lat="42.76211" lon="1.36537">
        <ele>1485.2002</ele>
        <time>2025-09-13T16:37:31+02:00</time>
      </trkpt>
      <trkpt lat="42.76211" lon="1.36538">
        <ele>1485.2002</ele>
        <time>2025-09-13T16:37:32+02:00</time>
      </trkpt>
      <trkpt lat="42.76211" lon="1.36538">
        <ele>1485.2002</ele>
        <time>2025-09-13T16:37:36+02:00</time>
      </trkpt>
      <trkpt lat="42.76211" lon="1.36539">
        <ele>1485.2002</ele>
        <time>2025-09-13T16:37:37+02:00</time>
      </trkpt>
      <trkpt lat="42.76212" lon="1.3654">
        <ele>1488.1006</ele>
        <time>2025-09-13T16:37:41+02:00</time>
      </trkpt>
      <trkpt lat="42.76213" lon="1.36541">
        <ele>1488.1006</ele>
        <time>2025-09-13T16:37:42+02:00</time>
      </trkpt>
      <trkpt lat="42.76214" lon="1.36543">
        <ele>1485.7002</ele>
        <time>2025-09-13T16:37:46+02:00</time>
      </trkpt>
      <trkpt lat="42.76214" lon="1.36544">
        <ele>1485.7002</ele>
        <time>2025-09-13T16:37:47+02:00</time>
      </trkpt>
      <trkpt lat="42.76215" lon="1.36545">
        <ele>1485.7002</ele>
        <time>2025-09-13T16:37:51+02:00</time>
      </trkpt>
      <trkpt lat="42.76215" lon="1.36546">
        <ele>1485.7002</ele>
        <time>2025-09-13T16:37:52+02:00</time>
      </trkpt>
      <trkpt lat="42.76216" lon="1.36547">
        <ele>1485.7002</ele>
        <time>2025-09-13T16:37:56+02:00</time>
      </trkpt>
      <trkpt lat="42.76217" lon="1.36547">
        <ele>1485.7002</ele>
        <time>2025-09-13T16:37:57+02:00</time>
      </trkpt>
      <trkpt lat="42.76218" lon="1.36549">
        <ele>1488.7998</ele>
        <time>2025-09-13T16:38:01+02:00</time>
      </trkpt>
      <trkpt lat="42.76218" lon="1.36549">
        <ele>1488.7998</ele>
        <time>2025-09-13T16:38:02+02:00</time>
      </trkpt>
      <trkpt lat="42.76218" lon="1.36548">
        <ele>1485.7002</ele>
        <time>2025-09-13T16:38:06+02:00</time>
      </trkpt>
      <trkpt lat="42.76218" lon="1.36548">
        <ele>1485.7002</ele>
        <time>2025-09-13T16:38:07+02:00</time>
      </trkpt>
      <trkpt lat="42.76216" lon="1.36546">
        <ele>1485.7002</ele>
        <time>2025-09-13T16:38:11+02:00</time>
      </trkpt>
      <trkpt lat="42.76216" lon="1.36546">
        <ele>1485.7002</ele>
        <time>2025-09-13T16:38:12+02:00</time>
      </trkpt>
      <trkpt lat="42.76216" lon="1.36546">
        <ele>1485.7002</ele>
        <time>2025-09-13T16:38:16+02:00</time>
      </trkpt>
      <trkpt lat="42.76216" lon="1.36548">
        <ele>1485.7002</ele>
        <time>2025-09-13T16:38:21+02:00</time>
      </trkpt>
      <trkpt lat="42.76217" lon="1.36548">
        <ele>1485.7002</ele>
        <time>2025-09-13T16:38:22+02:00</time>
      </trkpt>
      <trkpt lat="42.76216" lon="1.36548">
        <ele>1488.7998</ele>
        <time>2025-09-13T16:38:26+02:00</time>
      </trkpt>
      <trkpt lat="42.76216" lon="1.36548">
        <ele>1488.7998</ele>
        <time>2025-09-13T16:38:27+02:00</time>
      </trkpt>
      <trkpt lat="42.76216" lon="1.36548">
        <ele>1488.7998</ele>
        <time>2025-09-13T16:38:31+02:00</time>
      </trkpt>
      <trkpt lat="42.76217" lon="1.36548">
        <ele>1488.7998</ele>
        <time>2025-09-13T16:38:32+02:00</time>
      </trkpt>
      <trkpt lat="42.76217" lon="1.36549">
        <ele>1488.7998</ele>
        <time>2025-09-13T16:38:36+02:00</time>
      </trkpt>
      <trkpt lat="42.76217" lon="1.36549">
        <ele>1488.7998</ele>
        <time>2025-09-13T16:38:37+02:00</time>
      </trkpt>
      <trkpt lat="42.76219" lon="1.36549">
        <ele>1488.7998</ele>
        <time>2025-09-13T16:38:41+02:00</time>
      </trkpt>
      <trkpt lat="42.7622" lon="1.36549">
        <ele>1486.7002</ele>
        <time>2025-09-13T16:38:42+02:00</time>
      </trkpt>
      <trkpt lat="42.76222" lon="1.3655">
        <ele>1486.7002</ele>
        <time>2025-09-13T16:38:46+02:00</time>
      </trkpt>
      <trkpt lat="42.76223" lon="1.36551">
        <ele>1486.7002</ele>
        <time>2025-09-13T16:38:47+02:00</time>
      </trkpt>
      <trkpt lat="42.76224" lon="1.36552">
        <ele>1486.7002</ele>
        <time>2025-09-13T16:38:51+02:00</time>
      </trkpt>
      <trkpt lat="42.76225" lon="1.36552">
        <ele>1486.7002</ele>
        <time>2025-09-13T16:38:52+02:00</time>
      </trkpt>
      <trkpt lat="42.76227" lon="1.36554">
        <ele>1484.9004</ele>
        <time>2025-09-13T16:38:56+02:00</time>
      </trkpt>
      <trkpt lat="42.76227" lon="1.36554">
        <ele>1484.9004</ele>
        <time>2025-09-13T16:38:57+02:00</time>
      </trkpt>
      <trkpt lat="42.76228" lon="1.36556">
        <ele>1484.9004</ele>
        <time>2025-09-13T16:39:01+02:00</time>
      </trkpt>
      <trkpt lat="42.76229" lon="1.36556">
        <ele>1484.9004</ele>
        <time>2025-09-13T16:39:02+02:00</time>
      </trkpt>
      <trkpt lat="42.76229" lon="1.36556">
        <ele>1484.9004</ele>
        <time>2025-09-13T16:39:06+02:00</time>
      </trkpt>
      <trkpt lat="42.76229" lon="1.36556">
        <ele>1484.9004</ele>
        <time>2025-09-13T16:39:07+02:00</time>
      </trkpt>
      <trkpt lat="42.76229" lon="1.36556">
        <ele>1484.9004</ele>
        <time>2025-09-13T16:39:11+02:00</time>
      </trkpt>
      <trkpt lat="42.7623" lon="1.36556">
        <ele>1484.9004</ele>
        <time>2025-09-13T16:39:12+02:00</time>
      </trkpt>
      <trkpt lat="42.7623" lon="1.36557">
        <ele>1488.1006</ele>
        <time>2025-09-13T16:39:16+02:00</time>
      </trkpt>
      <trkpt lat="42.7623" lon="1.36558">
        <ele>1488.1006</ele>
        <time>2025-09-13T16:39:17+02:00</time>
      </trkpt>
      <trkpt lat="42.76231" lon="1.3656">
        <ele>1488.1006</ele>
        <time>2025-09-13T16:39:21+02:00</time>
      </trkpt>
      <trkpt lat="42.76231" lon="1.36561">
        <ele>1488.1006</ele>
        <time>2025-09-13T16:39:22+02:00</time>
      </trkpt>
      <trkpt lat="42.76232" lon="1.36563">
        <ele>1488.1006</ele>
        <time>2025-09-13T16:39:26+02:00</time>
      </trkpt>
      <trkpt lat="42.76231" lon="1.36564">
        <ele>1488.1006</ele>
        <time>2025-09-13T16:39:27+02:00</time>
      </trkpt>
      <trkpt lat="42.76229" lon="1.36563">
        <ele>1488.1006</ele>
        <time>2025-09-13T16:39:31+02:00</time>
      </trkpt>
      <trkpt lat="42.76228" lon="1.36562">
        <ele>1488.1006</ele>
        <time>2025-09-13T16:39:32+02:00</time>
      </trkpt>
      <trkpt lat="42.76226" lon="1.3656">
        <ele>1489.7998</ele>
        <time>2025-09-13T16:39:36+02:00</time>
      </trkpt>
      <trkpt lat="42.76226" lon="1.3656">
        <ele>1489.7998</ele>
        <time>2025-09-13T16:39:37+02:00</time>
      </trkpt>
      <trkpt lat="42.76225" lon="1.36559">
        <ele>1489.7998</ele>
        <time>2025-09-13T16:39:41+02:00</time>
      </trkpt>
      <trkpt lat="42.76224" lon="1.36559">
        <ele>1489.7998</ele>
        <time>2025-09-13T16:39:42+02:00</time>
      </trkpt>
      <trkpt lat="42.76223" lon="1.36561">
        <ele>1489.7998</ele>
        <time>2025-09-13T16:39:46+02:00</time>
      </trkpt>
      <trkpt lat="42.76223" lon="1.36561">
        <ele>1489.7998</ele>
        <time>2025-09-13T16:39:47+02:00</time>
      </trkpt>
      <trkpt lat="42.76223" lon="1.36562">
        <ele>1489.7998</ele>
        <time>2025-09-13T16:39:51+02:00</time>
      </trkpt>
      <trkpt lat="42.76223" lon="1.36562">
        <ele>1489.7998</ele>
        <time>2025-09-13T16:39:52+02:00</time>
      </trkpt>
      <trkpt lat="42.76223" lon="1.36563">
        <ele>1489.7998</ele>
        <time>2025-09-13T16:39:56+02:00</time>
      </trkpt>
      <trkpt lat="42.76222" lon="1.36564">
        <ele>1489.7998</ele>
        <time>2025-09-13T16:40:01+02:00</time>
      </trkpt>
      <trkpt lat="42.76222" lon="1.36565">
        <ele>1489.7998</ele>
        <time>2025-09-13T16:40:02+02:00</time>
      </trkpt>
      <trkpt lat="42.76221" lon="1.36567">
        <ele>1492.6006</ele>
        <time>2025-09-13T16:40:06+02:00</time>
      </trkpt>
      <trkpt lat="42.7622" lon="1.36567">
        <ele>1492.6006</ele>
        <time>2025-09-13T16:40:07+02:00</time>
      </trkpt>
      <trkpt lat="42.76219" lon="1.36566">
        <ele>1494.7002</ele>
        <time>2025-09-13T16:40:11+02:00</time>
      </trkpt>
      <trkpt lat="42.76218" lon="1.36565">
        <ele>1494.7002</ele>
        <time>2025-09-13T16:40:12+02:00</time>
      </trkpt>
      <trkpt lat="42.76217" lon="1.36566">
        <ele>1494.7002</ele>
        <time>2025-09-13T16:40:16+02:00</time>
      </trkpt>
      <trkpt lat="42.76216" lon="1.36567">
        <ele>1494.7002</ele>
        <time>2025-09-13T16:40:17+02:00</time>
      </trkpt>
      <trkpt lat="42.76215" lon="1.36568">
        <ele>1494.7002</ele>
        <time>2025-09-13T16:40:21+02:00</time>
      </trkpt>
      <trkpt lat="42.76215" lon="1.36567">
        <ele>1494.7002</ele>
        <time>2025-09-13T16:40:22+02:00</time>
      </trkpt>
      <trkpt lat="42.76214" lon="1.36568">
        <ele>1494.7002</ele>
        <time>2025-09-13T16:40:26+02:00</time>
      </trkpt>
      <trkpt lat="42.76211" lon="1.36571">
        <ele>1496.7998</ele>
        <time>2025-09-13T16:40:31+02:00</time>
      </trkpt>
      <trkpt lat="42.76211" lon="1.36571">
        <ele>1496.7998</ele>
        <time>2025-09-13T16:40:32+02:00</time>
      </trkpt>
      <trkpt lat="42.7621" lon="1.36573">
        <ele>1496.7998</ele>
        <time>2025-09-13T16:40:36+02:00</time>
      </trkpt>
      <trkpt lat="42.7621" lon="1.36573">
        <ele>1496.7998</ele>
        <time>2025-09-13T16:40:37+02:00</time>
      </trkpt>
      <trkpt lat="42.76208" lon="1.36575">
        <ele>1499</ele>
        <time>2025-09-13T16:40:41+02:00</time>
      </trkpt>
      <trkpt lat="42.76208" lon="1.36575">
        <ele>1499</ele>
        <time>2025-09-13T16:40:42+02:00</time>
      </trkpt>
      <trkpt lat="42.76206" lon="1.36575">
        <ele>1501.1006</ele>
        <time>2025-09-13T16:40:46+02:00</time>
      </trkpt>
      <trkpt lat="42.76206" lon="1.36574">
        <ele>1501.1006</ele>
        <time>2025-09-13T16:40:47+02:00</time>
      </trkpt>
      <trkpt lat="42.76204" lon="1.3657">
        <ele>1498.7998</ele>
        <time>2025-09-13T16:40:51+02:00</time>
      </trkpt>
      <trkpt lat="42.76203" lon="1.3657">
        <ele>1498.7998</ele>
        <time>2025-09-13T16:40:52+02:00</time>
      </trkpt>
      <trkpt lat="42.76202" lon="1.36569">
        <ele>1498.7998</ele>
        <time>2025-09-13T16:40:56+02:00</time>
      </trkpt>
      <trkpt lat="42.76202" lon="1.36568">
        <ele>1498.7998</ele>
        <time>2025-09-13T16:40:57+02:00</time>
      </trkpt>
      <trkpt lat="42.762" lon="1.36568">
        <ele>1500.7998</ele>
        <time>2025-09-13T16:41:01+02:00</time>
      </trkpt>
      <trkpt lat="42.762" lon="1.36568">
        <ele>1500.7998</ele>
        <time>2025-09-13T16:41:02+02:00</time>
      </trkpt>
      <trkpt lat="42.762" lon="1.36568">
        <ele>1500.7998</ele>
        <time>2025-09-13T16:41:06+02:00</time>
      </trkpt>
      <trkpt lat="42.762" lon="1.36568">
        <ele>1500.7998</ele>
        <time>2025-09-13T16:41:07+02:00</time>
      </trkpt>
      <trkpt lat="42.76198" lon="1.36568">
        <ele>1500.7998</ele>
        <time>2025-09-13T16:41:11+02:00</time>
      </trkpt>
      <trkpt lat="42.76198" lon="1.36568">
        <ele>1500.7998</ele>
        <time>2025-09-13T16:41:12+02:00</time>
      </trkpt>
      <trkpt lat="42.76197" lon="1.36568">
        <ele>1500.7998</ele>
        <time>2025-09-13T16:41:16+02:00</time>
      </trkpt>
      <trkpt lat="42.76197" lon="1.36568">
        <ele>1500.7998</ele>
        <time>2025-09-13T16:41:17+02:00</time>
      </trkpt>
      <trkpt lat="42.76196" lon="1.36569">
        <ele>1500.7998</ele>
        <time>2025-09-13T16:41:21+02:00</time>
      </trkpt>
      <trkpt lat="42.76196" lon="1.36569">
        <ele>1500.7998</ele>
        <time>2025-09-13T16:41:22+02:00</time>
      </trkpt>
      <trkpt lat="42.76194" lon="1.3657">
        <ele>1502.7998</ele>
        <time>2025-09-13T16:41:26+02:00</time>
      </trkpt>
      <trkpt lat="42.76194" lon="1.3657">
        <ele>1502.7998</ele>
        <time>2025-09-13T16:41:27+02:00</time>
      </trkpt>
      <trkpt lat="42.76193" lon="1.36569">
        <ele>1502.7998</ele>
        <time>2025-09-13T16:41:31+02:00</time>
      </trkpt>
      <trkpt lat="42.7619" lon="1.36565">
        <ele>1500.1006</ele>
        <time>2025-09-13T16:41:36+02:00</time>
      </trkpt>
      <trkpt lat="42.7619" lon="1.36565">
        <ele>1500.1006</ele>
        <time>2025-09-13T16:41:37+02:00</time>
      </trkpt>
      <trkpt lat="42.76189" lon="1.36563">
        <ele>1500.1006</ele>
        <time>2025-09-13T16:41:41+02:00</time>
      </trkpt>
      <trkpt lat="42.76188" lon="1.36562">
        <ele>1502.2002</ele>
        <time>2025-09-13T16:41:42+02:00</time>
      </trkpt>
      <trkpt lat="42.76187" lon="1.36561">
        <ele>1502.2002</ele>
        <time>2025-09-13T16:41:46+02:00</time>
      </trkpt>
      <trkpt lat="42.76186" lon="1.3656">
        <ele>1502.2002</ele>
        <time>2025-09-13T16:41:47+02:00</time>
      </trkpt>
      <trkpt lat="42.76185" lon="1.36556">
        <ele>1499.4004</ele>
        <time>2025-09-13T16:41:51+02:00</time>
      </trkpt>
      <trkpt lat="42.76185" lon="1.36555">
        <ele>1499.4004</ele>
        <time>2025-09-13T16:41:52+02:00</time>
      </trkpt>
      <trkpt lat="42.76182" lon="1.36553">
        <ele>1499.4004</ele>
        <time>2025-09-13T16:41:56+02:00</time>
      </trkpt>
      <trkpt lat="42.76182" lon="1.36552">
        <ele>1499.4004</ele>
        <time>2025-09-13T16:41:57+02:00</time>
      </trkpt>
      <trkpt lat="42.76183" lon="1.36553">
        <ele>1499.4004</ele>
        <time>2025-09-13T16:42:01+02:00</time>
      </trkpt>
      <trkpt lat="42.76183" lon="1.36553">
        <ele>1499.4004</ele>
        <time>2025-09-13T16:42:02+02:00</time>
      </trkpt>
      <trkpt lat="42.76183" lon="1.36553">
        <ele>1499.4004</ele>
        <time>2025-09-13T16:42:06+02:00</time>
      </trkpt>
      <trkpt lat="42.76183" lon="1.36553">
        <ele>1499.4004</ele>
        <time>2025-09-13T16:42:07+02:00</time>
      </trkpt>
      <trkpt lat="42.76183" lon="1.36553">
        <ele>1499.4004</ele>
        <time>2025-09-13T16:42:11+02:00</time>
      </trkpt>
      <trkpt lat="42.76183" lon="1.36553">
        <ele>1499.4004</ele>
        <time>2025-09-13T16:42:12+02:00</time>
      </trkpt>
      <trkpt lat="42.76182" lon="1.36552">
        <ele>1499.4004</ele>
        <time>2025-09-13T16:42:16+02:00</time>
      </trkpt>
      <trkpt lat="42.76182" lon="1.36552">
        <ele>1501.7998</ele>
        <time>2025-09-13T16:42:17+02:00</time>
      </trkpt>
      <trkpt lat="42.76182" lon="1.36551">
        <ele>1501.7998</ele>
        <time>2025-09-13T16:42:21+02:00</time>
      </trkpt>
      <trkpt lat="42.76182" lon="1.36551">
        <ele>1501.7998</ele>
        <time>2025-09-13T16:42:22+02:00</time>
      </trkpt>
      <trkpt lat="42.76181" lon="1.36551">
        <ele>1501.7998</ele>
        <time>2025-09-13T16:42:26+02:00</time>
      </trkpt>
      <trkpt lat="42.76181" lon="1.36551">
        <ele>1501.7998</ele>
        <time>2025-09-13T16:42:27+02:00</time>
      </trkpt>
      <trkpt lat="42.76181" lon="1.36551">
        <ele>1501.7998</ele>
        <time>2025-09-13T16:42:31+02:00</time>
      </trkpt>
      <trkpt lat="42.76181" lon="1.36551">
        <ele>1501.7998</ele>
        <time>2025-09-13T16:42:36+02:00</time>
      </trkpt>
      <trkpt lat="42.7618" lon="1.36551">
        <ele>1501.7998</ele>
        <time>2025-09-13T16:42:37+02:00</time>
      </trkpt>
      <trkpt lat="42.76176" lon="1.36549">
        <ele>1501.7998</ele>
        <time>2025-09-13T16:42:41+02:00</time>
      </trkpt>
      <trkpt lat="42.76176" lon="1.36548">
        <ele>1504.2998</ele>
        <time>2025-09-13T16:42:42+02:00</time>
      </trkpt>
      <trkpt lat="42.76174" lon="1.36546">
        <ele>1501.7998</ele>
        <time>2025-09-13T16:42:46+02:00</time>
      </trkpt>
      <trkpt lat="42.76174" lon="1.36546">
        <ele>1501.7998</ele>
        <time>2025-09-13T16:42:47+02:00</time>
      </trkpt>
      <trkpt lat="42.76171" lon="1.36546">
        <ele>1501.7998</ele>
        <time>2025-09-13T16:42:51+02:00</time>
      </trkpt>
      <trkpt lat="42.76171" lon="1.36546">
        <ele>1501.7998</ele>
        <time>2025-09-13T16:42:52+02:00</time>
      </trkpt>
      <trkpt lat="42.76168" lon="1.36545">
        <ele>1504.4004</ele>
        <time>2025-09-13T16:42:56+02:00</time>
      </trkpt>
      <trkpt lat="42.76168" lon="1.36544">
        <ele>1504.4004</ele>
        <time>2025-09-13T16:42:57+02:00</time>
      </trkpt>
      <trkpt lat="42.76166" lon="1.36542">
        <ele>1504.4004</ele>
        <time>2025-09-13T16:43:01+02:00</time>
      </trkpt>
      <trkpt lat="42.76165" lon="1.36541">
        <ele>1504.4004</ele>
        <time>2025-09-13T16:43:02+02:00</time>
      </trkpt>
      <trkpt lat="42.76163" lon="1.36538">
        <ele>1502</ele>
        <time>2025-09-13T16:43:06+02:00</time>
      </trkpt>
      <trkpt lat="42.76163" lon="1.36537">
        <ele>1504.7002</ele>
        <time>2025-09-13T16:43:07+02:00</time>
      </trkpt>
      <trkpt lat="42.7616" lon="1.36535">
        <ele>1504.7002</ele>
        <time>2025-09-13T16:43:11+02:00</time>
      </trkpt>
      <trkpt lat="42.7616" lon="1.36535">
        <ele>1504.7002</ele>
        <time>2025-09-13T16:43:12+02:00</time>
      </trkpt>
      <trkpt lat="42.76158" lon="1.36534">
        <ele>1504.7002</ele>
        <time>2025-09-13T16:43:16+02:00</time>
      </trkpt>
      <trkpt lat="42.76157" lon="1.36534">
        <ele>1507.4004</ele>
        <time>2025-09-13T16:43:17+02:00</time>
      </trkpt>
      <trkpt lat="42.76154" lon="1.3653">
        <ele>1505.2002</ele>
        <time>2025-09-13T16:43:21+02:00</time>
      </trkpt>
      <trkpt lat="42.76154" lon="1.36527">
        <ele>1505.2002</ele>
        <time>2025-09-13T16:43:26+02:00</time>
      </trkpt>
      <trkpt lat="42.76154" lon="1.36526">
        <ele>1505.2002</ele>
        <time>2025-09-13T16:43:27+02:00</time>
      </trkpt>
      <trkpt lat="42.76153" lon="1.36523">
        <ele>1505.2002</ele>
        <time>2025-09-13T16:43:31+02:00</time>
      </trkpt>
      <trkpt lat="42.76153" lon="1.36522">
        <ele>1503</ele>
        <time>2025-09-13T16:43:32+02:00</time>
      </trkpt>
      <trkpt lat="42.76153" lon="1.36518">
        <ele>1503</ele>
        <time>2025-09-13T16:43:36+02:00</time>
      </trkpt>
      <trkpt lat="42.76152" lon="1.36517">
        <ele>1503</ele>
        <time>2025-09-13T16:43:37+02:00</time>
      </trkpt>
      <trkpt lat="42.76152" lon="1.36515">
        <ele>1503</ele>
        <time>2025-09-13T16:43:41+02:00</time>
      </trkpt>
      <trkpt lat="42.76152" lon="1.36515">
        <ele>1503</ele>
        <time>2025-09-13T16:43:42+02:00</time>
      </trkpt>
      <trkpt lat="42.76152" lon="1.36513">
        <ele>1501</ele>
        <time>2025-09-13T16:43:46+02:00</time>
      </trkpt>
      <trkpt lat="42.76151" lon="1.36513">
        <ele>1501</ele>
        <time>2025-09-13T16:43:47+02:00</time>
      </trkpt>
      <trkpt lat="42.76151" lon="1.36513">
        <ele>1501</ele>
        <time>2025-09-13T16:43:51+02:00</time>
      </trkpt>
      <trkpt lat="42.76151" lon="1.36513">
        <ele>1501</ele>
        <time>2025-09-13T16:43:52+02:00</time>
      </trkpt>
      <trkpt lat="42.76151" lon="1.36513">
        <ele>1501</ele>
        <time>2025-09-13T16:43:56+02:00</time>
      </trkpt>
      <trkpt lat="42.76151" lon="1.36513">
        <ele>1501</ele>
        <time>2025-09-13T16:43:57+02:00</time>
      </trkpt>
      <trkpt lat="42.7615" lon="1.36512">
        <ele>1503.7002</ele>
        <time>2025-09-13T16:44:01+02:00</time>
      </trkpt>
      <trkpt lat="42.7615" lon="1.36512">
        <ele>1503.7002</ele>
        <time>2025-09-13T16:44:02+02:00</time>
      </trkpt>
      <trkpt lat="42.7615" lon="1.36509">
        <ele>1503.7002</ele>
        <time>2025-09-13T16:44:06+02:00</time>
      </trkpt>
      <trkpt lat="42.76149" lon="1.36508">
        <ele>1503.7002</ele>
        <time>2025-09-13T16:44:07+02:00</time>
      </trkpt>
      <trkpt lat="42.7615" lon="1.36503">
        <ele>1501.7998</ele>
        <time>2025-09-13T16:44:10+02:00</time>
      </trkpt>
      <trkpt lat="42.76149" lon="1.36503">
        <ele>1501.7998</ele>
        <time>2025-09-13T16:44:12+02:00</time>
      </trkpt>
      <trkpt lat="42.76149" lon="1.365">
        <ele>1501.7998</ele>
        <time>2025-09-13T16:44:16+02:00</time>
      </trkpt>
      <trkpt lat="42.76148" lon="1.36499">
        <ele>1501.7998</ele>
        <time>2025-09-13T16:44:17+02:00</time>
      </trkpt>
      <trkpt lat="42.76148" lon="1.36494">
        <ele>1499.9004</ele>
        <time>2025-09-13T16:44:21+02:00</time>
      </trkpt>
      <trkpt lat="42.76148" lon="1.36494">
        <ele>1499.9004</ele>
        <time>2025-09-13T16:44:22+02:00</time>
      </trkpt>
      <trkpt lat="42.76146" lon="1.36491">
        <ele>1499.9004</ele>
        <time>2025-09-13T16:44:26+02:00</time>
      </trkpt>
      <trkpt lat="42.76146" lon="1.3649">
        <ele>1499.9004</ele>
        <time>2025-09-13T16:44:27+02:00</time>
      </trkpt>
      <trkpt lat="42.76145" lon="1.36487">
        <ele>1498.1006</ele>
        <time>2025-09-13T16:44:31+02:00</time>
      </trkpt>
      <trkpt lat="42.76144" lon="1.36486">
        <ele>1498.1006</ele>
        <time>2025-09-13T16:44:32+02:00</time>
      </trkpt>
      <trkpt lat="42.76144" lon="1.36484">
        <ele>1500.7998</ele>
        <time>2025-09-13T16:44:36+02:00</time>
      </trkpt>
      <trkpt lat="42.76144" lon="1.36484">
        <ele>1500.7998</ele>
        <time>2025-09-13T16:44:37+02:00</time>
      </trkpt>
      <trkpt lat="42.76144" lon="1.36483">
        <ele>1500.7998</ele>
        <time>2025-09-13T16:44:41+02:00</time>
      </trkpt>
      <trkpt lat="42.76144" lon="1.36482">
        <ele>1500.7998</ele>
        <time>2025-09-13T16:44:46+02:00</time>
      </trkpt>
      <trkpt lat="42.76143" lon="1.36479">
        <ele>1499</ele>
        <time>2025-09-13T16:44:51+02:00</time>
      </trkpt>
      <trkpt lat="42.76142" lon="1.36478">
        <ele>1499</ele>
        <time>2025-09-13T16:44:52+02:00</time>
      </trkpt>
      <trkpt lat="42.76142" lon="1.36479">
        <ele>1499</ele>
        <time>2025-09-13T16:44:56+02:00</time>
      </trkpt>
      <trkpt lat="42.76142" lon="1.36479">
        <ele>1499</ele>
        <time>2025-09-13T16:44:57+02:00</time>
      </trkpt>
      <trkpt lat="42.76143" lon="1.3648">
        <ele>1500.7998</ele>
        <time>2025-09-13T16:45:01+02:00</time>
      </trkpt>
      <trkpt lat="42.76143" lon="1.3648">
        <ele>1500.7998</ele>
        <time>2025-09-13T16:45:02+02:00</time>
      </trkpt>
      <trkpt lat="42.76143" lon="1.36481">
        <ele>1500.7998</ele>
        <time>2025-09-13T16:45:06+02:00</time>
      </trkpt>
      <trkpt lat="42.76143" lon="1.36481">
        <ele>1500.7998</ele>
        <time>2025-09-13T16:45:07+02:00</time>
      </trkpt>
      <trkpt lat="42.76143" lon="1.36481">
        <ele>1500.7998</ele>
        <time>2025-09-13T16:45:11+02:00</time>
      </trkpt>
      <trkpt lat="42.76143" lon="1.36481">
        <ele>1500.7998</ele>
        <time>2025-09-13T16:45:12+02:00</time>
      </trkpt>
      <trkpt lat="42.76142" lon="1.3648">
        <ele>1500.7998</ele>
        <time>2025-09-13T16:45:16+02:00</time>
      </trkpt>
      <trkpt lat="42.7614" lon="1.36476">
        <ele>1499</ele>
        <time>2025-09-13T16:45:21+02:00</time>
      </trkpt>
      <trkpt lat="42.76141" lon="1.36474">
        <ele>1499</ele>
        <time>2025-09-13T16:45:22+02:00</time>
      </trkpt>
      <trkpt lat="42.7614" lon="1.36471">
        <ele>1499</ele>
        <time>2025-09-13T16:45:26+02:00</time>
      </trkpt>
      <trkpt lat="42.7614" lon="1.36471">
        <ele>1499</ele>
        <time>2025-09-13T16:45:27+02:00</time>
      </trkpt>
      <trkpt lat="42.76141" lon="1.36471">
        <ele>1497.2002</ele>
        <time>2025-09-13T16:45:31+02:00</time>
      </trkpt>
      <trkpt lat="42.76141" lon="1.3647">
        <ele>1497.2002</ele>
        <time>2025-09-13T16:45:32+02:00</time>
      </trkpt>
      <trkpt lat="42.7614" lon="1.36468">
        <ele>1497.2002</ele>
        <time>2025-09-13T16:45:36+02:00</time>
      </trkpt>
      <trkpt lat="42.7614" lon="1.36467">
        <ele>1497.2002</ele>
        <time>2025-09-13T16:45:37+02:00</time>
      </trkpt>
      <trkpt lat="42.76139" lon="1.36462">
        <ele>1495.6006</ele>
        <time>2025-09-13T16:45:40+02:00</time>
      </trkpt>
      <trkpt lat="42.76139" lon="1.36461">
        <ele>1495.6006</ele>
        <time>2025-09-13T16:45:42+02:00</time>
      </trkpt>
      <trkpt lat="42.76138" lon="1.36458">
        <ele>1498.2998</ele>
        <time>2025-09-13T16:45:46+02:00</time>
      </trkpt>
      <trkpt lat="42.76138" lon="1.36457">
        <ele>1498.2998</ele>
        <time>2025-09-13T16:45:47+02:00</time>
      </trkpt>
      <trkpt lat="42.76137" lon="1.36456">
        <ele>1498.2998</ele>
        <time>2025-09-13T16:45:51+02:00</time>
      </trkpt>
      <trkpt lat="42.76137" lon="1.36456">
        <ele>1498.2998</ele>
        <time>2025-09-13T16:45:52+02:00</time>
      </trkpt>
      <trkpt lat="42.76136" lon="1.36456">
        <ele>1498.2998</ele>
        <time>2025-09-13T16:45:56+02:00</time>
      </trkpt>
      <trkpt lat="42.76136" lon="1.36455">
        <ele>1498.2998</ele>
        <time>2025-09-13T16:45:57+02:00</time>
      </trkpt>
      <trkpt lat="42.76136" lon="1.36453">
        <ele>1496.7998</ele>
        <time>2025-09-13T16:46:01+02:00</time>
      </trkpt>
      <trkpt lat="42.76136" lon="1.36452">
        <ele>1496.7998</ele>
        <time>2025-09-13T16:46:02+02:00</time>
      </trkpt>
      <trkpt lat="42.76136" lon="1.36451">
        <ele>1496.7998</ele>
        <time>2025-09-13T16:46:06+02:00</time>
      </trkpt>
      <trkpt lat="42.76136" lon="1.36451">
        <ele>1496.7998</ele>
        <time>2025-09-13T16:46:07+02:00</time>
      </trkpt>
      <trkpt lat="42.76134" lon="1.3645">
        <ele>1496.7998</ele>
        <time>2025-09-13T16:46:11+02:00</time>
      </trkpt>
      <trkpt lat="42.76134" lon="1.3645">
        <ele>1496.7998</ele>
        <time>2025-09-13T16:46:12+02:00</time>
      </trkpt>
      <trkpt lat="42.76133" lon="1.36449">
        <ele>1496.7998</ele>
        <time>2025-09-13T16:46:16+02:00</time>
      </trkpt>
      <trkpt lat="42.76133" lon="1.36448">
        <ele>1496.7998</ele>
        <time>2025-09-13T16:46:17+02:00</time>
      </trkpt>
      <trkpt lat="42.76134" lon="1.36447">
        <ele>1496.7998</ele>
        <time>2025-09-13T16:46:21+02:00</time>
      </trkpt>
      <trkpt lat="42.76134" lon="1.36447">
        <ele>1496.7998</ele>
        <time>2025-09-13T16:46:22+02:00</time>
      </trkpt>
      <trkpt lat="42.76135" lon="1.36447">
        <ele>1496.7998</ele>
        <time>2025-09-13T16:46:26+02:00</time>
      </trkpt>
      <trkpt lat="42.76135" lon="1.36446">
        <ele>1496.7998</ele>
        <time>2025-09-13T16:46:27+02:00</time>
      </trkpt>
      <trkpt lat="42.76136" lon="1.36443">
        <ele>1495.5</ele>
        <time>2025-09-13T16:46:31+02:00</time>
      </trkpt>
      <trkpt lat="42.76136" lon="1.36443">
        <ele>1495.5</ele>
        <time>2025-09-13T16:46:32+02:00</time>
      </trkpt>
      <trkpt lat="42.76136" lon="1.36442">
        <ele>1495.5</ele>
        <time>2025-09-13T16:46:36+02:00</time>
      </trkpt>
      <trkpt lat="42.76136" lon="1.36441">
        <ele>1495.5</ele>
        <time>2025-09-13T16:46:37+02:00</time>
      </trkpt>
      <trkpt lat="42.76135" lon="1.36442">
        <ele>1495.5</ele>
        <time>2025-09-13T16:46:41+02:00</time>
      </trkpt>
      <trkpt lat="42.76135" lon="1.36442">
        <ele>1495.5</ele>
        <time>2025-09-13T16:46:42+02:00</time>
      </trkpt>
      <trkpt lat="42.76135" lon="1.36442">
        <ele>1495.5</ele>
        <time>2025-09-13T16:46:46+02:00</time>
      </trkpt>
      <trkpt lat="42.76135" lon="1.36442">
        <ele>1495.5</ele>
        <time>2025-09-13T16:46:47+02:00</time>
      </trkpt>
      <trkpt lat="42.76135" lon="1.36442">
        <ele>1495.5</ele>
        <time>2025-09-13T16:46:51+02:00</time>
      </trkpt>
      <trkpt lat="42.76135" lon="1.36442">
        <ele>1495.5</ele>
        <time>2025-09-13T16:46:52+02:00</time>
      </trkpt>
      <trkpt lat="42.76135" lon="1.36442">
        <ele>1495.5</ele>
        <time>2025-09-13T16:46:56+02:00</time>
      </trkpt>
      <trkpt lat="42.76135" lon="1.36441">
        <ele>1495.5</ele>
        <time>2025-09-13T16:46:57+02:00</time>
      </trkpt>
      <trkpt lat="42.76135" lon="1.36441">
        <ele>1495.5</ele>
        <time>2025-09-13T16:47:01+02:00</time>
      </trkpt>
      <trkpt lat="42.76135" lon="1.36441">
        <ele>1495.5</ele>
        <time>2025-09-13T16:47:02+02:00</time>
      </trkpt>
      <trkpt lat="42.76135" lon="1.36439">
        <ele>1495.5</ele>
        <time>2025-09-13T16:47:06+02:00</time>
      </trkpt>
      <trkpt lat="42.76135" lon="1.36438">
        <ele>1495.5</ele>
        <time>2025-09-13T16:47:07+02:00</time>
      </trkpt>
      <trkpt lat="42.76136" lon="1.36436">
        <ele>1494.2998</ele>
        <time>2025-09-13T16:47:11+02:00</time>
      </trkpt>
      <trkpt lat="42.76136" lon="1.36435">
        <ele>1494.2998</ele>
        <time>2025-09-13T16:47:12+02:00</time>
      </trkpt>
      <trkpt lat="42.76134" lon="1.36431">
        <ele>1494.2998</ele>
        <time>2025-09-13T16:47:16+02:00</time>
      </trkpt>
      <trkpt lat="42.76133" lon="1.3643">
        <ele>1494.2998</ele>
        <time>2025-09-13T16:47:17+02:00</time>
      </trkpt>
      <trkpt lat="42.76131" lon="1.36426">
        <ele>1495.7002</ele>
        <time>2025-09-13T16:47:21+02:00</time>
      </trkpt>
      <trkpt lat="42.76131" lon="1.36425">
        <ele>1495.7002</ele>
        <time>2025-09-13T16:47:22+02:00</time>
      </trkpt>
      <trkpt lat="42.76129" lon="1.36421">
        <ele>1495.7002</ele>
        <time>2025-09-13T16:47:26+02:00</time>
      </trkpt>
      <trkpt lat="42.76129" lon="1.3642">
        <ele>1495.7002</ele>
        <time>2025-09-13T16:47:27+02:00</time>
      </trkpt>
      <trkpt lat="42.76128" lon="1.36417">
        <ele>1494.7002</ele>
        <time>2025-09-13T16:47:31+02:00</time>
      </trkpt>
      <trkpt lat="42.76128" lon="1.36417">
        <ele>1494.7002</ele>
        <time>2025-09-13T16:47:32+02:00</time>
      </trkpt>
      <trkpt lat="42.76126" lon="1.36415">
        <ele>1494.7002</ele>
        <time>2025-09-13T16:47:36+02:00</time>
      </trkpt>
      <trkpt lat="42.76126" lon="1.36414">
        <ele>1494.7002</ele>
        <time>2025-09-13T16:47:37+02:00</time>
      </trkpt>
      <trkpt lat="42.76126" lon="1.36412">
        <ele>1494.7002</ele>
        <time>2025-09-13T16:47:41+02:00</time>
      </trkpt>
      <trkpt lat="42.76126" lon="1.36411">
        <ele>1494.7002</ele>
        <time>2025-09-13T16:47:42+02:00</time>
      </trkpt>
      <trkpt lat="42.76128" lon="1.36406">
        <ele>1493.7002</ele>
        <time>2025-09-13T16:47:46+02:00</time>
      </trkpt>
      <trkpt lat="42.76128" lon="1.36405">
        <ele>1493.7002</ele>
        <time>2025-09-13T16:47:47+02:00</time>
      </trkpt>
      <trkpt lat="42.76128" lon="1.36403">
        <ele>1493.7002</ele>
        <time>2025-09-13T16:47:51+02:00</time>
      </trkpt>
      <trkpt lat="42.76127" lon="1.36403">
        <ele>1493.7002</ele>
        <time>2025-09-13T16:47:52+02:00</time>
      </trkpt>
      <trkpt lat="42.76128" lon="1.364">
        <ele>1492.7998</ele>
        <time>2025-09-13T16:47:56+02:00</time>
      </trkpt>
      <trkpt lat="42.76129" lon="1.364">
        <ele>1492.7998</ele>
        <time>2025-09-13T16:47:57+02:00</time>
      </trkpt>
      <trkpt lat="42.7613" lon="1.36397">
        <ele>1492.7998</ele>
        <time>2025-09-13T16:48:01+02:00</time>
      </trkpt>
      <trkpt lat="42.76131" lon="1.36397">
        <ele>1492.7998</ele>
        <time>2025-09-13T16:48:02+02:00</time>
      </trkpt>
      <trkpt lat="42.7613" lon="1.36393">
        <ele>1491.9004</ele>
        <time>2025-09-13T16:48:06+02:00</time>
      </trkpt>
      <trkpt lat="42.76129" lon="1.36392">
        <ele>1491.9004</ele>
        <time>2025-09-13T16:48:07+02:00</time>
      </trkpt>
      <trkpt lat="42.76127" lon="1.3639">
        <ele>1491.9004</ele>
        <time>2025-09-13T16:48:11+02:00</time>
      </trkpt>
      <trkpt lat="42.76127" lon="1.3639">
        <ele>1491.9004</ele>
        <time>2025-09-13T16:48:12+02:00</time>
      </trkpt>
      <trkpt lat="42.76125" lon="1.36388">
        <ele>1494.2002</ele>
        <time>2025-09-13T16:48:16+02:00</time>
      </trkpt>
      <trkpt lat="42.76124" lon="1.36388">
        <ele>1494.2002</ele>
        <time>2025-09-13T16:48:17+02:00</time>
      </trkpt>
      <trkpt lat="42.76122" lon="1.36386">
        <ele>1494.2002</ele>
        <time>2025-09-13T16:48:21+02:00</time>
      </trkpt>
      <trkpt lat="42.76122" lon="1.36385">
        <ele>1494.2002</ele>
        <time>2025-09-13T16:48:22+02:00</time>
      </trkpt>
      <trkpt lat="42.76121" lon="1.36381">
        <ele>1493.2998</ele>
        <time>2025-09-13T16:48:26+02:00</time>
      </trkpt>
      <trkpt lat="42.76121" lon="1.3638">
        <ele>1493.2998</ele>
        <time>2025-09-13T16:48:27+02:00</time>
      </trkpt>
      <trkpt lat="42.7612" lon="1.36377">
        <ele>1493.2998</ele>
        <time>2025-09-13T16:48:31+02:00</time>
      </trkpt>
      <trkpt lat="42.7612" lon="1.36376">
        <ele>1492.4004</ele>
        <time>2025-09-13T16:48:32+02:00</time>
      </trkpt>
      <trkpt lat="42.76121" lon="1.36372">
        <ele>1492.4004</ele>
        <time>2025-09-13T16:48:36+02:00</time>
      </trkpt>
      <trkpt lat="42.76122" lon="1.36372">
        <ele>1492.4004</ele>
        <time>2025-09-13T16:48:37+02:00</time>
      </trkpt>
      <trkpt lat="42.76123" lon="1.36368">
        <ele>1492.4004</ele>
        <time>2025-09-13T16:48:41+02:00</time>
      </trkpt>
      <trkpt lat="42.76123" lon="1.36368">
        <ele>1491.5</ele>
        <time>2025-09-13T16:48:42+02:00</time>
      </trkpt>
      <trkpt lat="42.76122" lon="1.36365">
        <ele>1491.5</ele>
        <time>2025-09-13T16:48:46+02:00</time>
      </trkpt>
      <trkpt lat="42.76122" lon="1.36364">
        <ele>1491.5</ele>
        <time>2025-09-13T16:48:47+02:00</time>
      </trkpt>
      <trkpt lat="42.7612" lon="1.36362">
        <ele>1491.5</ele>
        <time>2025-09-13T16:48:51+02:00</time>
      </trkpt>
      <trkpt lat="42.7612" lon="1.36362">
        <ele>1491.5</ele>
        <time>2025-09-13T16:48:52+02:00</time>
      </trkpt>
      <trkpt lat="42.76118" lon="1.36361">
        <ele>1493.7998</ele>
        <time>2025-09-13T16:48:56+02:00</time>
      </trkpt>
      <trkpt lat="42.76118" lon="1.36361">
        <ele>1493.7998</ele>
        <time>2025-09-13T16:48:57+02:00</time>
      </trkpt>
      <trkpt lat="42.7612" lon="1.36358">
        <ele>1490.7002</ele>
        <time>2025-09-13T16:49:01+02:00</time>
      </trkpt>
      <trkpt lat="42.7612" lon="1.36357">
        <ele>1490.7002</ele>
        <time>2025-09-13T16:49:02+02:00</time>
      </trkpt>
      <trkpt lat="42.76119" lon="1.36356">
        <ele>1493</ele>
        <time>2025-09-13T16:49:06+02:00</time>
      </trkpt>
      <trkpt lat="42.76118" lon="1.36356">
        <ele>1493</ele>
        <time>2025-09-13T16:49:07+02:00</time>
      </trkpt>
      <trkpt lat="42.76117" lon="1.36353">
        <ele>1493</ele>
        <time>2025-09-13T16:49:11+02:00</time>
      </trkpt>
      <trkpt lat="42.76117" lon="1.36352">
        <ele>1493</ele>
        <time>2025-09-13T16:49:12+02:00</time>
      </trkpt>
      <trkpt lat="42.76116" lon="1.36349">
        <ele>1492.2998</ele>
        <time>2025-09-13T16:49:16+02:00</time>
      </trkpt>
      <trkpt lat="42.76115" lon="1.36349">
        <ele>1492.2998</ele>
        <time>2025-09-13T16:49:17+02:00</time>
      </trkpt>
      <trkpt lat="42.76115" lon="1.36345">
        <ele>1492.2998</ele>
        <time>2025-09-13T16:49:21+02:00</time>
      </trkpt>
      <trkpt lat="42.76115" lon="1.36345">
        <ele>1492.2998</ele>
        <time>2025-09-13T16:49:22+02:00</time>
      </trkpt>
      <trkpt lat="42.76115" lon="1.36342">
        <ele>1492.2998</ele>
        <time>2025-09-13T16:49:26+02:00</time>
      </trkpt>
      <trkpt lat="42.76115" lon="1.36342">
        <ele>1491.6006</ele>
        <time>2025-09-13T16:49:27+02:00</time>
      </trkpt>
      <trkpt lat="42.76115" lon="1.3634">
        <ele>1491.6006</ele>
        <time>2025-09-13T16:49:31+02:00</time>
      </trkpt>
      <trkpt lat="42.76114" lon="1.3634">
        <ele>1491.6006</ele>
        <time>2025-09-13T16:49:32+02:00</time>
      </trkpt>
      <trkpt lat="42.76113" lon="1.36339">
        <ele>1491.6006</ele>
        <time>2025-09-13T16:49:36+02:00</time>
      </trkpt>
      <trkpt lat="42.76113" lon="1.36338">
        <ele>1491.6006</ele>
        <time>2025-09-13T16:49:37+02:00</time>
      </trkpt>
      <trkpt lat="42.76113" lon="1.36335">
        <ele>1491.6006</ele>
        <time>2025-09-13T16:49:41+02:00</time>
      </trkpt>
      <trkpt lat="42.76113" lon="1.36334">
        <ele>1491.6006</ele>
        <time>2025-09-13T16:49:42+02:00</time>
      </trkpt>
      <trkpt lat="42.76112" lon="1.3633">
        <ele>1493.1006</ele>
        <time>2025-09-13T16:49:46+02:00</time>
      </trkpt>
      <trkpt lat="42.76111" lon="1.36329">
        <ele>1493.1006</ele>
        <time>2025-09-13T16:49:51+02:00</time>
      </trkpt>
      <trkpt lat="42.76111" lon="1.36329">
        <ele>1493.1006</ele>
        <time>2025-09-13T16:49:52+02:00</time>
      </trkpt>
      <trkpt lat="42.76111" lon="1.36329">
        <ele>1493.1006</ele>
        <time>2025-09-13T16:49:56+02:00</time>
      </trkpt>
      <trkpt lat="42.76111" lon="1.36329">
        <ele>1493.1006</ele>
        <time>2025-09-13T16:49:57+02:00</time>
      </trkpt>
      <trkpt lat="42.76111" lon="1.3633">
        <ele>1493.1006</ele>
        <time>2025-09-13T16:50:01+02:00</time>
      </trkpt>
      <trkpt lat="42.76111" lon="1.3633">
        <ele>1493.1006</ele>
        <time>2025-09-13T16:50:02+02:00</time>
      </trkpt>
      <trkpt lat="42.76111" lon="1.3633">
        <ele>1493.1006</ele>
        <time>2025-09-13T16:50:06+02:00</time>
      </trkpt>
      <trkpt lat="42.76111" lon="1.3633">
        <ele>1493.1006</ele>
        <time>2025-09-13T16:50:07+02:00</time>
      </trkpt>
      <trkpt lat="42.7611" lon="1.36328">
        <ele>1493.1006</ele>
        <time>2025-09-13T16:50:11+02:00</time>
      </trkpt>
      <trkpt lat="42.7611" lon="1.36328">
        <ele>1493.1006</ele>
        <time>2025-09-13T16:50:12+02:00</time>
      </trkpt>
      <trkpt lat="42.7611" lon="1.36328">
        <ele>1493.1006</ele>
        <time>2025-09-13T16:50:16+02:00</time>
      </trkpt>
      <trkpt lat="42.7611" lon="1.36328">
        <ele>1493.1006</ele>
        <time>2025-09-13T16:50:17+02:00</time>
      </trkpt>
      <trkpt lat="42.7611" lon="1.36328">
        <ele>1493.1006</ele>
        <time>2025-09-13T16:50:21+02:00</time>
      </trkpt>
      <trkpt lat="42.7611" lon="1.36328">
        <ele>1493.1006</ele>
        <time>2025-09-13T16:50:22+02:00</time>
      </trkpt>
      <trkpt lat="42.7611" lon="1.36327">
        <ele>1493.1006</ele>
        <time>2025-09-13T16:50:26+02:00</time>
      </trkpt>
      <trkpt lat="42.7611" lon="1.36327">
        <ele>1493.1006</ele>
        <time>2025-09-13T16:50:27+02:00</time>
      </trkpt>
      <trkpt lat="42.7611" lon="1.36327">
        <ele>1493.1006</ele>
        <time>2025-09-13T16:50:31+02:00</time>
      </trkpt>
      <trkpt lat="42.76111" lon="1.36327">
        <ele>1493.1006</ele>
        <time>2025-09-13T16:50:32+02:00</time>
      </trkpt>
      <trkpt lat="42.76112" lon="1.36326">
        <ele>1493.1006</ele>
        <time>2025-09-13T16:50:36+02:00</time>
      </trkpt>
      <trkpt lat="42.76113" lon="1.36326">
        <ele>1491</ele>
        <time>2025-09-13T16:50:37+02:00</time>
      </trkpt>
      <trkpt lat="42.76117" lon="1.36327">
        <ele>1491</ele>
        <time>2025-09-13T16:50:41+02:00</time>
      </trkpt>
      <trkpt lat="42.76118" lon="1.36327">
        <ele>1491</ele>
        <time>2025-09-13T16:50:42+02:00</time>
      </trkpt>
      <trkpt lat="42.76121" lon="1.36327">
        <ele>1488.7998</ele>
        <time>2025-09-13T16:50:46+02:00</time>
      </trkpt>
      <trkpt lat="42.76122" lon="1.36326">
        <ele>1488.7998</ele>
        <time>2025-09-13T16:50:47+02:00</time>
      </trkpt>
      <trkpt lat="42.76122" lon="1.36324">
        <ele>1488.2998</ele>
        <time>2025-09-13T16:50:51+02:00</time>
      </trkpt>
      <trkpt lat="42.76122" lon="1.36324">
        <ele>1488.2998</ele>
        <time>2025-09-13T16:50:52+02:00</time>
      </trkpt>
      <trkpt lat="42.76122" lon="1.36324">
        <ele>1488.2998</ele>
        <time>2025-09-13T16:50:56+02:00</time>
      </trkpt>
      <trkpt lat="42.76121" lon="1.36324">
        <ele>1488.2998</ele>
        <time>2025-09-13T16:50:57+02:00</time>
      </trkpt>
      <trkpt lat="42.76121" lon="1.36324">
        <ele>1488.2998</ele>
        <time>2025-09-13T16:51:01+02:00</time>
      </trkpt>
      <trkpt lat="42.7612" lon="1.36324">
        <ele>1488.2998</ele>
        <time>2025-09-13T16:51:02+02:00</time>
      </trkpt>
      <trkpt lat="42.7612" lon="1.36324">
        <ele>1488.2998</ele>
        <time>2025-09-13T16:51:06+02:00</time>
      </trkpt>
      <trkpt lat="42.7612" lon="1.36324">
        <ele>1488.2998</ele>
        <time>2025-09-13T16:51:07+02:00</time>
      </trkpt>
      <trkpt lat="42.76119" lon="1.36324">
        <ele>1490.5</ele>
        <time>2025-09-13T16:51:11+02:00</time>
      </trkpt>
      <trkpt lat="42.76119" lon="1.36324">
        <ele>1490.5</ele>
        <time>2025-09-13T16:51:12+02:00</time>
      </trkpt>
      <trkpt lat="42.76116" lon="1.36324">
        <ele>1490.5</ele>
        <time>2025-09-13T16:51:16+02:00</time>
      </trkpt>
      <trkpt lat="42.76116" lon="1.36324">
        <ele>1490.5</ele>
        <time>2025-09-13T16:51:17+02:00</time>
      </trkpt>
      <trkpt lat="42.76114" lon="1.36323">
        <ele>1490.5</ele>
        <time>2025-09-13T16:51:21+02:00</time>
      </trkpt>
      <trkpt lat="42.76113" lon="1.3632">
        <ele>1490.5</ele>
        <time>2025-09-13T16:51:26+02:00</time>
      </trkpt>
      <trkpt lat="42.76113" lon="1.3632">
        <ele>1492.5</ele>
        <time>2025-09-13T16:51:27+02:00</time>
      </trkpt>
      <trkpt lat="42.7611" lon="1.36317">
        <ele>1492.5</ele>
        <time>2025-09-13T16:51:31+02:00</time>
      </trkpt>
      <trkpt lat="42.7611" lon="1.36317">
        <ele>1492.5</ele>
        <time>2025-09-13T16:51:32+02:00</time>
      </trkpt>
      <trkpt lat="42.76108" lon="1.36314">
        <ele>1491.9004</ele>
        <time>2025-09-13T16:51:36+02:00</time>
      </trkpt>
      <trkpt lat="42.76108" lon="1.36313">
        <ele>1491.9004</ele>
        <time>2025-09-13T16:51:37+02:00</time>
      </trkpt>
      <trkpt lat="42.76107" lon="1.3631">
        <ele>1491.9004</ele>
        <time>2025-09-13T16:51:41+02:00</time>
      </trkpt>
      <trkpt lat="42.76108" lon="1.36309">
        <ele>1491.9004</ele>
        <time>2025-09-13T16:51:42+02:00</time>
      </trkpt>
      <trkpt lat="42.76108" lon="1.36307">
        <ele>1491.2998</ele>
        <time>2025-09-13T16:51:46+02:00</time>
      </trkpt>
      <trkpt lat="42.76108" lon="1.36306">
        <ele>1491.2998</ele>
        <time>2025-09-13T16:51:47+02:00</time>
      </trkpt>
      <trkpt lat="42.7611" lon="1.36302">
        <ele>1491.2998</ele>
        <time>2025-09-13T16:51:51+02:00</time>
      </trkpt>
      <trkpt lat="42.7611" lon="1.36301">
        <ele>1491.2998</ele>
        <time>2025-09-13T16:51:52+02:00</time>
      </trkpt>
      <trkpt lat="42.76112" lon="1.36297">
        <ele>1490.6006</ele>
        <time>2025-09-13T16:51:56+02:00</time>
      </trkpt>
      <trkpt lat="42.76112" lon="1.36296">
        <ele>1490.6006</ele>
        <time>2025-09-13T16:51:57+02:00</time>
      </trkpt>
      <trkpt lat="42.76112" lon="1.36293">
        <ele>1490.6006</ele>
        <time>2025-09-13T16:52:01+02:00</time>
      </trkpt>
      <trkpt lat="42.76113" lon="1.36292">
        <ele>1490.6006</ele>
        <time>2025-09-13T16:52:02+02:00</time>
      </trkpt>
      <trkpt lat="42.76113" lon="1.36289">
        <ele>1488.1006</ele>
        <time>2025-09-13T16:52:06+02:00</time>
      </trkpt>
      <trkpt lat="42.76113" lon="1.36289">
        <ele>1488.1006</ele>
        <time>2025-09-13T16:52:07+02:00</time>
      </trkpt>
      <trkpt lat="42.76112" lon="1.36287">
        <ele>1489.9004</ele>
        <time>2025-09-13T16:52:11+02:00</time>
      </trkpt>
      <trkpt lat="42.76112" lon="1.36286">
        <ele>1489.9004</ele>
        <time>2025-09-13T16:52:12+02:00</time>
      </trkpt>
      <trkpt lat="42.76112" lon="1.36282">
        <ele>1489.9004</ele>
        <time>2025-09-13T16:52:16+02:00</time>
      </trkpt>
      <trkpt lat="42.76112" lon="1.36282">
        <ele>1489.4004</ele>
        <time>2025-09-13T16:52:17+02:00</time>
      </trkpt>
      <trkpt lat="42.76111" lon="1.36283">
        <ele>1489.9004</ele>
        <time>2025-09-13T16:52:21+02:00</time>
      </trkpt>
      <trkpt lat="42.76111" lon="1.36283">
        <ele>1489.9004</ele>
        <time>2025-09-13T16:52:22+02:00</time>
      </trkpt>
      <trkpt lat="42.76111" lon="1.36283">
        <ele>1489.9004</ele>
        <time>2025-09-13T16:52:26+02:00</time>
      </trkpt>
      <trkpt lat="42.76111" lon="1.36282">
        <ele>1489.9004</ele>
        <time>2025-09-13T16:52:27+02:00</time>
      </trkpt>
      <trkpt lat="42.76109" lon="1.3628">
        <ele>1489.4004</ele>
        <time>2025-09-13T16:52:31+02:00</time>
      </trkpt>
      <trkpt lat="42.76109" lon="1.36281">
        <ele>1489.4004</ele>
        <time>2025-09-13T16:52:32+02:00</time>
      </trkpt>
      <trkpt lat="42.76109" lon="1.36281">
        <ele>1489.4004</ele>
        <time>2025-09-13T16:52:36+02:00</time>
      </trkpt>
      <trkpt lat="42.76109" lon="1.36282">
        <ele>1489.4004</ele>
        <time>2025-09-13T16:52:37+02:00</time>
      </trkpt>
      <trkpt lat="42.76109" lon="1.36282">
        <ele>1489.4004</ele>
        <time>2025-09-13T16:52:41+02:00</time>
      </trkpt>
      <trkpt lat="42.76109" lon="1.36282">
        <ele>1489.4004</ele>
        <time>2025-09-13T16:52:42+02:00</time>
      </trkpt>
      <trkpt lat="42.76109" lon="1.36282">
        <ele>1489.9004</ele>
        <time>2025-09-13T16:52:46+02:00</time>
      </trkpt>
      <trkpt lat="42.76109" lon="1.36282">
        <ele>1489.9004</ele>
        <time>2025-09-13T16:52:47+02:00</time>
      </trkpt>
      <trkpt lat="42.76109" lon="1.36283">
        <ele>1489.9004</ele>
        <time>2025-09-13T16:52:51+02:00</time>
      </trkpt>
      <trkpt lat="42.76109" lon="1.36283">
        <ele>1489.9004</ele>
        <time>2025-09-13T16:52:52+02:00</time>
      </trkpt>
      <trkpt lat="42.7611" lon="1.36284">
        <ele>1489.9004</ele>
        <time>2025-09-13T16:52:56+02:00</time>
      </trkpt>
      <trkpt lat="42.7611" lon="1.36284">
        <ele>1489.9004</ele>
        <time>2025-09-13T16:52:57+02:00</time>
      </trkpt>
      <trkpt lat="42.76111" lon="1.36286">
        <ele>1489.9004</ele>
        <time>2025-09-13T16:53:01+02:00</time>
      </trkpt>
      <trkpt lat="42.76111" lon="1.36286">
        <ele>1489.9004</ele>
        <time>2025-09-13T16:53:02+02:00</time>
      </trkpt>
      <trkpt lat="42.76112" lon="1.36287">
        <ele>1489.9004</ele>
        <time>2025-09-13T16:53:06+02:00</time>
      </trkpt>
      <trkpt lat="42.76112" lon="1.36287">
        <ele>1489.9004</ele>
        <time>2025-09-13T16:53:07+02:00</time>
      </trkpt>
      <trkpt lat="42.76113" lon="1.36288">
        <ele>1489.9004</ele>
        <time>2025-09-13T16:53:11+02:00</time>
      </trkpt>
      <trkpt lat="42.76113" lon="1.36288">
        <ele>1489.9004</ele>
        <time>2025-09-13T16:53:12+02:00</time>
      </trkpt>
      <trkpt lat="42.76113" lon="1.36288">
        <ele>1489.9004</ele>
        <time>2025-09-13T16:53:16+02:00</time>
      </trkpt>
      <trkpt lat="42.76113" lon="1.36288">
        <ele>1489.9004</ele>
        <time>2025-09-13T16:53:17+02:00</time>
      </trkpt>
      <trkpt lat="42.76113" lon="1.36288">
        <ele>1488.1006</ele>
        <time>2025-09-13T16:53:21+02:00</time>
      </trkpt>
      <trkpt lat="42.76113" lon="1.36288">
        <ele>1488.1006</ele>
        <time>2025-09-13T16:53:22+02:00</time>
      </trkpt>
      <trkpt lat="42.76114" lon="1.36289">
        <ele>1488.1006</ele>
        <time>2025-09-13T16:53:26+02:00</time>
      </trkpt>
      <trkpt lat="42.76114" lon="1.36289">
        <ele>1488.1006</ele>
        <time>2025-09-13T16:53:27+02:00</time>
      </trkpt>
      <trkpt lat="42.76114" lon="1.36289">
        <ele>1488.1006</ele>
        <time>2025-09-13T16:53:31+02:00</time>
      </trkpt>
      <trkpt lat="42.76114" lon="1.36289">
        <ele>1488.1006</ele>
        <time>2025-09-13T16:53:32+02:00</time>
      </trkpt>
      <trkpt lat="42.76114" lon="1.36289">
        <ele>1488.1006</ele>
        <time>2025-09-13T16:53:36+02:00</time>
      </trkpt>
      <trkpt lat="42.76114" lon="1.36289">
        <ele>1488.1006</ele>
        <time>2025-09-13T16:53:37+02:00</time>
      </trkpt>
      <trkpt lat="42.76114" lon="1.36289">
        <ele>1488.1006</ele>
        <time>2025-09-13T16:53:41+02:00</time>
      </trkpt>
      <trkpt lat="42.76114" lon="1.36289">
        <ele>1488.1006</ele>
        <time>2025-09-13T16:53:42+02:00</time>
      </trkpt>
      <trkpt lat="42.76114" lon="1.36289">
        <ele>1488.1006</ele>
        <time>2025-09-13T16:53:46+02:00</time>
      </trkpt>
      <trkpt lat="42.76114" lon="1.36289">
        <ele>1488.1006</ele>
        <time>2025-09-13T16:53:47+02:00</time>
      </trkpt>
      <trkpt lat="42.76115" lon="1.36289">
        <ele>1488.1006</ele>
        <time>2025-09-13T16:53:51+02:00</time>
      </trkpt>
      <trkpt lat="42.76115" lon="1.36289">
        <ele>1488.1006</ele>
        <time>2025-09-13T16:53:52+02:00</time>
      </trkpt>
      <trkpt lat="42.76115" lon="1.36289">
        <ele>1488.1006</ele>
        <time>2025-09-13T16:53:56+02:00</time>
      </trkpt>
      <trkpt lat="42.76115" lon="1.36289">
        <ele>1488.1006</ele>
        <time>2025-09-13T16:53:57+02:00</time>
      </trkpt>
      <trkpt lat="42.76115" lon="1.36289">
        <ele>1488.1006</ele>
        <time>2025-09-13T16:54:01+02:00</time>
      </trkpt>
      <trkpt lat="42.76115" lon="1.36289">
        <ele>1488.1006</ele>
        <time>2025-09-13T16:54:02+02:00</time>
      </trkpt>
      <trkpt lat="42.76115" lon="1.36289">
        <ele>1488.1006</ele>
        <time>2025-09-13T16:54:06+02:00</time>
      </trkpt>
      <trkpt lat="42.76115" lon="1.36289">
        <ele>1488.1006</ele>
        <time>2025-09-13T16:54:07+02:00</time>
      </trkpt>
      <trkpt lat="42.76115" lon="1.36289">
        <ele>1488.1006</ele>
        <time>2025-09-13T16:54:11+02:00</time>
      </trkpt>
      <trkpt lat="42.76115" lon="1.36289">
        <ele>1488.1006</ele>
        <time>2025-09-13T16:54:12+02:00</time>
      </trkpt>
      <trkpt lat="42.76113" lon="1.36289">
        <ele>1488.1006</ele>
        <time>2025-09-13T16:54:16+02:00</time>
      </trkpt>
      <trkpt lat="42.76114" lon="1.36289">
        <ele>1488.1006</ele>
        <time>2025-09-13T16:54:17+02:00</time>
      </trkpt>
      <trkpt lat="42.76114" lon="1.36289">
        <ele>1488.1006</ele>
        <time>2025-09-13T16:54:21+02:00</time>
      </trkpt>
      <trkpt lat="42.76114" lon="1.36289">
        <ele>1488.1006</ele>
        <time>2025-09-13T16:54:22+02:00</time>
      </trkpt>
      <trkpt lat="42.76114" lon="1.36289">
        <ele>1488.1006</ele>
        <time>2025-09-13T16:54:26+02:00</time>
      </trkpt>
      <trkpt lat="42.76113" lon="1.36289">
        <ele>1488.1006</ele>
        <time>2025-09-13T16:54:27+02:00</time>
      </trkpt>
      <trkpt lat="42.76113" lon="1.36289">
        <ele>1488.1006</ele>
        <time>2025-09-13T16:54:31+02:00</time>
      </trkpt>
      <trkpt lat="42.76113" lon="1.36289">
        <ele>1488.1006</ele>
        <time>2025-09-13T16:54:32+02:00</time>
      </trkpt>
      <trkpt lat="42.76113" lon="1.36288">
        <ele>1488.1006</ele>
        <time>2025-09-13T16:54:36+02:00</time>
      </trkpt>
      <trkpt lat="42.76113" lon="1.36288">
        <ele>1488.1006</ele>
        <time>2025-09-13T16:54:37+02:00</time>
      </trkpt>
      <trkpt lat="42.76113" lon="1.36288">
        <ele>1488.1006</ele>
        <time>2025-09-13T16:54:41+02:00</time>
      </trkpt>
      <trkpt lat="42.76113" lon="1.36288">
        <ele>1488.1006</ele>
        <time>2025-09-13T16:54:42+02:00</time>
      </trkpt>
      <trkpt lat="42.76113" lon="1.36288">
        <ele>1488.1006</ele>
        <time>2025-09-13T16:54:46+02:00</time>
      </trkpt>
      <trkpt lat="42.76113" lon="1.36288">
        <ele>1488.1006</ele>
        <time>2025-09-13T16:54:47+02:00</time>
      </trkpt>
      <trkpt lat="42.76113" lon="1.36288">
        <ele>1488.1006</ele>
        <time>2025-09-13T16:54:51+02:00</time>
      </trkpt>
      <trkpt lat="42.76113" lon="1.36288">
        <ele>1488.1006</ele>
        <time>2025-09-13T16:54:52+02:00</time>
      </trkpt>
      <trkpt lat="42.76113" lon="1.36288">
        <ele>1488.1006</ele>
        <time>2025-09-13T16:54:56+02:00</time>
      </trkpt>
      <trkpt lat="42.76113" lon="1.36288">
        <ele>1488.1006</ele>
        <time>2025-09-13T16:54:57+02:00</time>
      </trkpt>
      <trkpt lat="42.76113" lon="1.36287">
        <ele>1488.1006</ele>
        <time>2025-09-13T16:55:01+02:00</time>
      </trkpt>
      <trkpt lat="42.76113" lon="1.36287">
        <ele>1488.1006</ele>
        <time>2025-09-13T16:55:02+02:00</time>
      </trkpt>
      <trkpt lat="42.76113" lon="1.36287">
        <ele>1488.1006</ele>
        <time>2025-09-13T16:55:06+02:00</time>
      </trkpt>
      <trkpt lat="42.76114" lon="1.36287">
        <ele>1488.1006</ele>
        <time>2025-09-13T16:55:07+02:00</time>
      </trkpt>
      <trkpt lat="42.76114" lon="1.36287">
        <ele>1488.1006</ele>
        <time>2025-09-13T16:55:11+02:00</time>
      </trkpt>
      <trkpt lat="42.76114" lon="1.36287">
        <ele>1488.1006</ele>
        <time>2025-09-13T16:55:12+02:00</time>
      </trkpt>
      <trkpt lat="42.76114" lon="1.36287">
        <ele>1488.1006</ele>
        <time>2025-09-13T16:55:16+02:00</time>
      </trkpt>
      <trkpt lat="42.76114" lon="1.36287">
        <ele>1488.1006</ele>
        <time>2025-09-13T16:55:17+02:00</time>
      </trkpt>
      <trkpt lat="42.76114" lon="1.36287">
        <ele>1488.1006</ele>
        <time>2025-09-13T16:55:21+02:00</time>
      </trkpt>
      <trkpt lat="42.76114" lon="1.36287">
        <ele>1488.1006</ele>
        <time>2025-09-13T16:55:22+02:00</time>
      </trkpt>
      <trkpt lat="42.76114" lon="1.36287">
        <ele>1488.1006</ele>
        <time>2025-09-13T16:55:26+02:00</time>
      </trkpt>
      <trkpt lat="42.76114" lon="1.36287">
        <ele>1488.1006</ele>
        <time>2025-09-13T16:55:27+02:00</time>
      </trkpt>
      <trkpt lat="42.76114" lon="1.36287">
        <ele>1488.1006</ele>
        <time>2025-09-13T16:55:31+02:00</time>
      </trkpt>
      <trkpt lat="42.76114" lon="1.36287">
        <ele>1488.1006</ele>
        <time>2025-09-13T16:55:32+02:00</time>
      </trkpt>
      <trkpt lat="42.76114" lon="1.36287">
        <ele>1488.1006</ele>
        <time>2025-09-13T16:55:36+02:00</time>
      </trkpt>
      <trkpt lat="42.76114" lon="1.36287">
        <ele>1488.1006</ele>
        <time>2025-09-13T16:55:37+02:00</time>
      </trkpt>
      <trkpt lat="42.76114" lon="1.36287">
        <ele>1488.1006</ele>
        <time>2025-09-13T16:55:41+02:00</time>
      </trkpt>
      <trkpt lat="42.76114" lon="1.36287">
        <ele>1488.1006</ele>
        <time>2025-09-13T16:55:42+02:00</time>
      </trkpt>
      <trkpt lat="42.76114" lon="1.36287">
        <ele>1488.1006</ele>
        <time>2025-09-13T16:55:46+02:00</time>
      </trkpt>
      <trkpt lat="42.76114" lon="1.36287">
        <ele>1488.1006</ele>
        <time>2025-09-13T16:55:47+02:00</time>
      </trkpt>
      <trkpt lat="42.76114" lon="1.36287">
        <ele>1488.1006</ele>
        <time>2025-09-13T16:55:51+02:00</time>
      </trkpt>
      <trkpt lat="42.76114" lon="1.36287">
        <ele>1488.1006</ele>
        <time>2025-09-13T16:55:52+02:00</time>
      </trkpt>
      <trkpt lat="42.76114" lon="1.36287">
        <ele>1488.1006</ele>
        <time>2025-09-13T16:55:56+02:00</time>
      </trkpt>
      <trkpt lat="42.76114" lon="1.36287">
        <ele>1488.1006</ele>
        <time>2025-09-13T16:55:57+02:00</time>
      </trkpt>
      <trkpt lat="42.76114" lon="1.36287">
        <ele>1488.1006</ele>
        <time>2025-09-13T16:56:01+02:00</time>
      </trkpt>
      <trkpt lat="42.76114" lon="1.36287">
        <ele>1488.1006</ele>
        <time>2025-09-13T16:56:02+02:00</time>
      </trkpt>
      <trkpt lat="42.76114" lon="1.36287">
        <ele>1488.1006</ele>
        <time>2025-09-13T16:56:06+02:00</time>
      </trkpt>
      <trkpt lat="42.76114" lon="1.36287">
        <ele>1488.1006</ele>
        <time>2025-09-13T16:56:07+02:00</time>
      </trkpt>
      <trkpt lat="42.76114" lon="1.36287">
        <ele>1488.1006</ele>
        <time>2025-09-13T16:56:11+02:00</time>
      </trkpt>
      <trkpt lat="42.76114" lon="1.36287">
        <ele>1488.1006</ele>
        <time>2025-09-13T16:56:12+02:00</time>
      </trkpt>
      <trkpt lat="42.76114" lon="1.36287">
        <ele>1488.1006</ele>
        <time>2025-09-13T16:56:16+02:00</time>
      </trkpt>
      <trkpt lat="42.76114" lon="1.36287">
        <ele>1488.1006</ele>
        <time>2025-09-13T16:56:17+02:00</time>
      </trkpt>
      <trkpt lat="42.76114" lon="1.36287">
        <ele>1488.1006</ele>
        <time>2025-09-13T16:56:21+02:00</time>
      </trkpt>
      <trkpt lat="42.76114" lon="1.36287">
        <ele>1488.1006</ele>
        <time>2025-09-13T16:56:22+02:00</time>
      </trkpt>
      <trkpt lat="42.76114" lon="1.36287">
        <ele>1488.1006</ele>
        <time>2025-09-13T16:56:26+02:00</time>
      </trkpt>
      <trkpt lat="42.76114" lon="1.36287">
        <ele>1488.1006</ele>
        <time>2025-09-13T16:56:27+02:00</time>
      </trkpt>
      <trkpt lat="42.76114" lon="1.36287">
        <ele>1488.1006</ele>
        <time>2025-09-13T16:56:31+02:00</time>
      </trkpt>
      <trkpt lat="42.76114" lon="1.36287">
        <ele>1488.1006</ele>
        <time>2025-09-13T16:56:32+02:00</time>
      </trkpt>
      <trkpt lat="42.76114" lon="1.36287">
        <ele>1488.1006</ele>
        <time>2025-09-13T16:56:36+02:00</time>
      </trkpt>
      <trkpt lat="42.76114" lon="1.36287">
        <ele>1488.1006</ele>
        <time>2025-09-13T16:56:37+02:00</time>
      </trkpt>
      <trkpt lat="42.76114" lon="1.36287">
        <ele>1488.1006</ele>
        <time>2025-09-13T16:56:41+02:00</time>
      </trkpt>
      <trkpt lat="42.76114" lon="1.36287">
        <ele>1488.1006</ele>
        <time>2025-09-13T16:56:42+02:00</time>
      </trkpt>
      <trkpt lat="42.76114" lon="1.36287">
        <ele>1488.1006</ele>
        <time>2025-09-13T16:56:46+02:00</time>
      </trkpt>
      <trkpt lat="42.76114" lon="1.36287">
        <ele>1488.1006</ele>
        <time>2025-09-13T16:56:47+02:00</time>
      </trkpt>
      <trkpt lat="42.76114" lon="1.36287">
        <ele>1488.1006</ele>
        <time>2025-09-13T16:56:51+02:00</time>
      </trkpt>
      <trkpt lat="42.76114" lon="1.36287">
        <ele>1488.1006</ele>
        <time>2025-09-13T16:56:52+02:00</time>
      </trkpt>
      <trkpt lat="42.76114" lon="1.36287">
        <ele>1488.1006</ele>
        <time>2025-09-13T16:56:56+02:00</time>
      </trkpt>
      <trkpt lat="42.76114" lon="1.36287">
        <ele>1488.1006</ele>
        <time>2025-09-13T16:56:57+02:00</time>
      </trkpt>
      <trkpt lat="42.76114" lon="1.36287">
        <ele>1488.1006</ele>
        <time>2025-09-13T16:57:01+02:00</time>
      </trkpt>
      <trkpt lat="42.76114" lon="1.36287">
        <ele>1488.1006</ele>
        <time>2025-09-13T16:57:02+02:00</time>
      </trkpt>
      <trkpt lat="42.76114" lon="1.36287">
        <ele>1488.1006</ele>
        <time>2025-09-13T16:57:06+02:00</time>
      </trkpt>
      <trkpt lat="42.76114" lon="1.36287">
        <ele>1488.1006</ele>
        <time>2025-09-13T16:57:07+02:00</time>
      </trkpt>
      <trkpt lat="42.76114" lon="1.36287">
        <ele>1488.1006</ele>
        <time>2025-09-13T16:57:11+02:00</time>
      </trkpt>
      <trkpt lat="42.76114" lon="1.36287">
        <ele>1488.1006</ele>
        <time>2025-09-13T16:57:12+02:00</time>
      </trkpt>
      <trkpt lat="42.76114" lon="1.36287">
        <ele>1488.1006</ele>
        <time>2025-09-13T16:57:16+02:00</time>
      </trkpt>
      <trkpt lat="42.76114" lon="1.36287">
        <ele>1488.1006</ele>
        <time>2025-09-13T16:57:17+02:00</time>
      </trkpt>
      <trkpt lat="42.76114" lon="1.36287">
        <ele>1488.1006</ele>
        <time>2025-09-13T16:57:21+02:00</time>
      </trkpt>
      <trkpt lat="42.76114" lon="1.36287">
        <ele>1488.1006</ele>
        <time>2025-09-13T16:57:22+02:00</time>
      </trkpt>
      <trkpt lat="42.76114" lon="1.36287">
        <ele>1488.1006</ele>
        <time>2025-09-13T16:57:26+02:00</time>
      </trkpt>
      <trkpt lat="42.76114" lon="1.36287">
        <ele>1488.1006</ele>
        <time>2025-09-13T16:57:27+02:00</time>
      </trkpt>
      <trkpt lat="42.76114" lon="1.36287">
        <ele>1488.1006</ele>
        <time>2025-09-13T16:57:31+02:00</time>
      </trkpt>
      <trkpt lat="42.76114" lon="1.36287">
        <ele>1488.1006</ele>
        <time>2025-09-13T16:57:32+02:00</time>
      </trkpt>
      <trkpt lat="42.76114" lon="1.36287">
        <ele>1488.1006</ele>
        <time>2025-09-13T16:57:36+02:00</time>
      </trkpt>
      <trkpt lat="42.76114" lon="1.36287">
        <ele>1488.1006</ele>
        <time>2025-09-13T16:57:37+02:00</time>
      </trkpt>
      <trkpt lat="42.76114" lon="1.36287">
        <ele>1488.1006</ele>
        <time>2025-09-13T16:57:41+02:00</time>
      </trkpt>
      <trkpt lat="42.76114" lon="1.36287">
        <ele>1488.1006</ele>
        <time>2025-09-13T16:57:42+02:00</time>
      </trkpt>
      <trkpt lat="42.76114" lon="1.36287">
        <ele>1488.1006</ele>
        <time>2025-09-13T16:57:46+02:00</time>
      </trkpt>
      <trkpt lat="42.76114" lon="1.36287">
        <ele>1488.1006</ele>
        <time>2025-09-13T16:57:47+02:00</time>
      </trkpt>
      <trkpt lat="42.76114" lon="1.36287">
        <ele>1488.1006</ele>
        <time>2025-09-13T16:57:51+02:00</time>
      </trkpt>
      <trkpt lat="42.76114" lon="1.36287">
        <ele>1488.1006</ele>
        <time>2025-09-13T16:57:52+02:00</time>
      </trkpt>
      <trkpt lat="42.76114" lon="1.36286">
        <ele>1488.1006</ele>
        <time>2025-09-13T16:57:56+02:00</time>
      </trkpt>
      <trkpt lat="42.76115" lon="1.36286">
        <ele>1488.1006</ele>
        <time>2025-09-13T16:57:57+02:00</time>
      </trkpt>
      <trkpt lat="42.76115" lon="1.36285">
        <ele>1488.1006</ele>
        <time>2025-09-13T16:58:01+02:00</time>
      </trkpt>
      <trkpt lat="42.76115" lon="1.36285">
        <ele>1488.1006</ele>
        <time>2025-09-13T16:58:02+02:00</time>
      </trkpt>
      <trkpt lat="42.76115" lon="1.36285">
        <ele>1488.1006</ele>
        <time>2025-09-13T16:58:06+02:00</time>
      </trkpt>
      <trkpt lat="42.76115" lon="1.36285">
        <ele>1488.1006</ele>
        <time>2025-09-13T16:58:07+02:00</time>
      </trkpt>
      <trkpt lat="42.76115" lon="1.36285">
        <ele>1488.1006</ele>
        <time>2025-09-13T16:58:11+02:00</time>
      </trkpt>
      <trkpt lat="42.76115" lon="1.36285">
        <ele>1488.1006</ele>
        <time>2025-09-13T16:58:12+02:00</time>
      </trkpt>
      <trkpt lat="42.76115" lon="1.36285">
        <ele>1488.1006</ele>
        <time>2025-09-13T16:58:16+02:00</time>
      </trkpt>
      <trkpt lat="42.76115" lon="1.36285">
        <ele>1488.1006</ele>
        <time>2025-09-13T16:58:17+02:00</time>
      </trkpt>
      <trkpt lat="42.76115" lon="1.36285">
        <ele>1488.1006</ele>
        <time>2025-09-13T16:58:21+02:00</time>
      </trkpt>
      <trkpt lat="42.76115" lon="1.36285">
        <ele>1488.1006</ele>
        <time>2025-09-13T16:58:22+02:00</time>
      </trkpt>
      <trkpt lat="42.76115" lon="1.36285">
        <ele>1488.1006</ele>
        <time>2025-09-13T16:58:26+02:00</time>
      </trkpt>
      <trkpt lat="42.76115" lon="1.36285">
        <ele>1488.1006</ele>
        <time>2025-09-13T16:58:27+02:00</time>
      </trkpt>
      <trkpt lat="42.76115" lon="1.36285">
        <ele>1488.1006</ele>
        <time>2025-09-13T16:58:31+02:00</time>
      </trkpt>
      <trkpt lat="42.76115" lon="1.36285">
        <ele>1488.1006</ele>
        <time>2025-09-13T16:58:32+02:00</time>
      </trkpt>
      <trkpt lat="42.76115" lon="1.36285">
        <ele>1488.1006</ele>
        <time>2025-09-13T16:58:36+02:00</time>
      </trkpt>
      <trkpt lat="42.76115" lon="1.36285">
        <ele>1488.1006</ele>
        <time>2025-09-13T16:58:37+02:00</time>
      </trkpt>
      <trkpt lat="42.76115" lon="1.36285">
        <ele>1488.1006</ele>
        <time>2025-09-13T16:58:41+02:00</time>
      </trkpt>
      <trkpt lat="42.76115" lon="1.36285">
        <ele>1488.1006</ele>
        <time>2025-09-13T16:58:42+02:00</time>
      </trkpt>
      <trkpt lat="42.76115" lon="1.36285">
        <ele>1488.1006</ele>
        <time>2025-09-13T16:58:46+02:00</time>
      </trkpt>
      <trkpt lat="42.76115" lon="1.36285">
        <ele>1488.1006</ele>
        <time>2025-09-13T16:58:47+02:00</time>
      </trkpt>
      <trkpt lat="42.76115" lon="1.36285">
        <ele>1488.1006</ele>
        <time>2025-09-13T16:58:51+02:00</time>
      </trkpt>
      <trkpt lat="42.76115" lon="1.36285">
        <ele>1488.1006</ele>
        <time>2025-09-13T16:58:52+02:00</time>
      </trkpt>
      <trkpt lat="42.76115" lon="1.36285">
        <ele>1488.1006</ele>
        <time>2025-09-13T16:58:56+02:00</time>
      </trkpt>
      <trkpt lat="42.76115" lon="1.36285">
        <ele>1488.1006</ele>
        <time>2025-09-13T16:58:57+02:00</time>
      </trkpt>
      <trkpt lat="42.76115" lon="1.36285">
        <ele>1488.1006</ele>
        <time>2025-09-13T16:59:01+02:00</time>
      </trkpt>
      <trkpt lat="42.76115" lon="1.36285">
        <ele>1488.1006</ele>
        <time>2025-09-13T16:59:02+02:00</time>
      </trkpt>
      <trkpt lat="42.76115" lon="1.36285">
        <ele>1488.1006</ele>
        <time>2025-09-13T16:59:06+02:00</time>
      </trkpt>
      <trkpt lat="42.76115" lon="1.36285">
        <ele>1488.1006</ele>
        <time>2025-09-13T16:59:07+02:00</time>
      </trkpt>
      <trkpt lat="42.76115" lon="1.36285">
        <ele>1488.1006</ele>
        <time>2025-09-13T16:59:11+02:00</time>
      </trkpt>
      <trkpt lat="42.76115" lon="1.36285">
        <ele>1488.1006</ele>
        <time>2025-09-13T16:59:12+02:00</time>
      </trkpt>
      <trkpt lat="42.76116" lon="1.36285">
        <ele>1488.1006</ele>
        <time>2025-09-13T16:59:16+02:00</time>
      </trkpt>
      <trkpt lat="42.76116" lon="1.36285">
        <ele>1488.1006</ele>
        <time>2025-09-13T16:59:17+02:00</time>
      </trkpt>
      <trkpt lat="42.76116" lon="1.36285">
        <ele>1488.1006</ele>
        <time>2025-09-13T16:59:21+02:00</time>
      </trkpt>
      <trkpt lat="42.76116" lon="1.36285">
        <ele>1488.1006</ele>
        <time>2025-09-13T16:59:22+02:00</time>
      </trkpt>
      <trkpt lat="42.76116" lon="1.36285">
        <ele>1488.1006</ele>
        <time>2025-09-13T16:59:26+02:00</time>
      </trkpt>
      <trkpt lat="42.76116" lon="1.36285">
        <ele>1488.1006</ele>
        <time>2025-09-13T16:59:27+02:00</time>
      </trkpt>
      <trkpt lat="42.76116" lon="1.36285">
        <ele>1488.1006</ele>
        <time>2025-09-13T16:59:31+02:00</time>
      </trkpt>
      <trkpt lat="42.76116" lon="1.36284">
        <ele>1488.1006</ele>
        <time>2025-09-13T16:59:32+02:00</time>
      </trkpt>
      <trkpt lat="42.76116" lon="1.36284">
        <ele>1488.1006</ele>
        <time>2025-09-13T16:59:36+02:00</time>
      </trkpt>
      <trkpt lat="42.76116" lon="1.36285">
        <ele>1488.1006</ele>
        <time>2025-09-13T16:59:37+02:00</time>
      </trkpt>
      <trkpt lat="42.76116" lon="1.36285">
        <ele>1488.1006</ele>
        <time>2025-09-13T16:59:41+02:00</time>
      </trkpt>
      <trkpt lat="42.76116" lon="1.36284">
        <ele>1488.1006</ele>
        <time>2025-09-13T16:59:42+02:00</time>
      </trkpt>
      <trkpt lat="42.76113" lon="1.36281">
        <ele>1487.6006</ele>
        <time>2025-09-13T16:59:46+02:00</time>
      </trkpt>
      <trkpt lat="42.76113" lon="1.36281">
        <ele>1489.4004</ele>
        <time>2025-09-13T16:59:47+02:00</time>
      </trkpt>
      <trkpt lat="42.76111" lon="1.36281">
        <ele>1489.4004</ele>
        <time>2025-09-13T16:59:51+02:00</time>
      </trkpt>
      <trkpt lat="42.76111" lon="1.36281">
        <ele>1489.4004</ele>
        <time>2025-09-13T16:59:52+02:00</time>
      </trkpt>
      <trkpt lat="42.7611" lon="1.36282">
        <ele>1489.9004</ele>
        <time>2025-09-13T16:59:56+02:00</time>
      </trkpt>
      <trkpt lat="42.76109" lon="1.36282">
        <ele>1489.9004</ele>
        <time>2025-09-13T16:59:57+02:00</time>
      </trkpt>
      <trkpt lat="42.76109" lon="1.36282">
        <ele>1489.9004</ele>
        <time>2025-09-13T17:00:01+02:00</time>
      </trkpt>
      <trkpt lat="42.76109" lon="1.36282">
        <ele>1489.4004</ele>
        <time>2025-09-13T17:00:02+02:00</time>
      </trkpt>
      <trkpt lat="42.76107" lon="1.36279">
        <ele>1489.4004</ele>
        <time>2025-09-13T17:00:06+02:00</time>
      </trkpt>
      <trkpt lat="42.76106" lon="1.36278">
        <ele>1490.7998</ele>
        <time>2025-09-13T17:00:07+02:00</time>
      </trkpt>
      <trkpt lat="42.76105" lon="1.36274">
        <ele>1490.7998</ele>
        <time>2025-09-13T17:00:11+02:00</time>
      </trkpt>
      <trkpt lat="42.76104" lon="1.36272">
        <ele>1490.6006</ele>
        <time>2025-09-13T17:00:12+02:00</time>
      </trkpt>
      <trkpt lat="42.76104" lon="1.36267">
        <ele>1490.6006</ele>
        <time>2025-09-13T17:00:16+02:00</time>
      </trkpt>
      <trkpt lat="42.76104" lon="1.36266">
        <ele>1490.6006</ele>
        <time>2025-09-13T17:00:17+02:00</time>
      </trkpt>
      <trkpt lat="42.76102" lon="1.36264">
        <ele>1490.9004</ele>
        <time>2025-09-13T17:00:21+02:00</time>
      </trkpt>
      <trkpt lat="42.76101" lon="1.36264">
        <ele>1490.9004</ele>
        <time>2025-09-13T17:00:22+02:00</time>
      </trkpt>
      <trkpt lat="42.76101" lon="1.36265">
        <ele>1490.9004</ele>
        <time>2025-09-13T17:00:26+02:00</time>
      </trkpt>
      <trkpt lat="42.76101" lon="1.36265">
        <ele>1490.6006</ele>
        <time>2025-09-13T17:00:27+02:00</time>
      </trkpt>
      <trkpt lat="42.76102" lon="1.36265">
        <ele>1490.6006</ele>
        <time>2025-09-13T17:00:31+02:00</time>
      </trkpt>
      <trkpt lat="42.76102" lon="1.36265">
        <ele>1490.6006</ele>
        <time>2025-09-13T17:00:32+02:00</time>
      </trkpt>
      <trkpt lat="42.76102" lon="1.36265">
        <ele>1490.6006</ele>
        <time>2025-09-13T17:00:36+02:00</time>
      </trkpt>
      <trkpt lat="42.76102" lon="1.36265">
        <ele>1490.6006</ele>
        <time>2025-09-13T17:00:37+02:00</time>
      </trkpt>
      <trkpt lat="42.76102" lon="1.36265">
        <ele>1490.6006</ele>
        <time>2025-09-13T17:00:41+02:00</time>
      </trkpt>
      <trkpt lat="42.76102" lon="1.36265">
        <ele>1490.6006</ele>
        <time>2025-09-13T17:00:42+02:00</time>
      </trkpt>
      <trkpt lat="42.76102" lon="1.36267">
        <ele>1490.6006</ele>
        <time>2025-09-13T17:00:46+02:00</time>
      </trkpt>
      <trkpt lat="42.76102" lon="1.36268">
        <ele>1490.6006</ele>
        <time>2025-09-13T17:00:47+02:00</time>
      </trkpt>
      <trkpt lat="42.76103" lon="1.36269">
        <ele>1490.6006</ele>
        <time>2025-09-13T17:00:51+02:00</time>
      </trkpt>
      <trkpt lat="42.76103" lon="1.36269">
        <ele>1490.6006</ele>
        <time>2025-09-13T17:00:52+02:00</time>
      </trkpt>
      <trkpt lat="42.76103" lon="1.36271">
        <ele>1490.6006</ele>
        <time>2025-09-13T17:00:56+02:00</time>
      </trkpt>
      <trkpt lat="42.76104" lon="1.36271">
        <ele>1490.6006</ele>
        <time>2025-09-13T17:00:57+02:00</time>
      </trkpt>
      <trkpt lat="42.76104" lon="1.36271">
        <ele>1490.6006</ele>
        <time>2025-09-13T17:01:01+02:00</time>
      </trkpt>
      <trkpt lat="42.76104" lon="1.36271">
        <ele>1490.6006</ele>
        <time>2025-09-13T17:01:02+02:00</time>
      </trkpt>
      <trkpt lat="42.76104" lon="1.36272">
        <ele>1490.6006</ele>
        <time>2025-09-13T17:01:06+02:00</time>
      </trkpt>
      <trkpt lat="42.76104" lon="1.36272">
        <ele>1490.6006</ele>
        <time>2025-09-13T17:01:07+02:00</time>
      </trkpt>
      <trkpt lat="42.76103" lon="1.36278">
        <ele>1490.7998</ele>
        <time>2025-09-13T17:01:11+02:00</time>
      </trkpt>
      <trkpt lat="42.76102" lon="1.3628">
        <ele>1490.7998</ele>
        <time>2025-09-13T17:01:12+02:00</time>
      </trkpt>
      <trkpt lat="42.76103" lon="1.36286">
        <ele>1491.2998</ele>
        <time>2025-09-13T17:01:16+02:00</time>
      </trkpt>
      <trkpt lat="42.76103" lon="1.36287">
        <ele>1491.2998</ele>
        <time>2025-09-13T17:01:17+02:00</time>
      </trkpt>
      <trkpt lat="42.76106" lon="1.36293">
        <ele>1492.2002</ele>
        <time>2025-09-13T17:01:21+02:00</time>
      </trkpt>
      <trkpt lat="42.76107" lon="1.36292">
        <ele>1490.6006</ele>
        <time>2025-09-13T17:01:22+02:00</time>
      </trkpt>
      <trkpt lat="42.76108" lon="1.36284">
        <ele>1489.9004</ele>
        <time>2025-09-13T17:01:26+02:00</time>
      </trkpt>
      <trkpt lat="42.76109" lon="1.36283">
        <ele>1489.9004</ele>
        <time>2025-09-13T17:01:27+02:00</time>
      </trkpt>
      <trkpt lat="42.76112" lon="1.36281">
        <ele>1489.4004</ele>
        <time>2025-09-13T17:01:31+02:00</time>
      </trkpt>
      <trkpt lat="42.76113" lon="1.36283">
        <ele>1489.9004</ele>
        <time>2025-09-13T17:01:32+02:00</time>
      </trkpt>
      <trkpt lat="42.76115" lon="1.36287">
        <ele>1488.1006</ele>
        <time>2025-09-13T17:01:36+02:00</time>
      </trkpt>
      <trkpt lat="42.76115" lon="1.36287">
        <ele>1488.1006</ele>
        <time>2025-09-13T17:01:37+02:00</time>
      </trkpt>
      <trkpt lat="42.76116" lon="1.36288">
        <ele>1488.1006</ele>
        <time>2025-09-13T17:01:41+02:00</time>
      </trkpt>
      <trkpt lat="42.76115" lon="1.36288">
        <ele>1488.1006</ele>
        <time>2025-09-13T17:01:42+02:00</time>
      </trkpt>
      <trkpt lat="42.76114" lon="1.36287">
        <ele>1488.1006</ele>
        <time>2025-09-13T17:01:46+02:00</time>
      </trkpt>
      <trkpt lat="42.76114" lon="1.36287">
        <ele>1488.1006</ele>
        <time>2025-09-13T17:01:47+02:00</time>
      </trkpt>
      <trkpt lat="42.76113" lon="1.36287">
        <ele>1488.1006</ele>
        <time>2025-09-13T17:01:51+02:00</time>
      </trkpt>
      <trkpt lat="42.76113" lon="1.36287">
        <ele>1488.1006</ele>
        <time>2025-09-13T17:01:52+02:00</time>
      </trkpt>
      <trkpt lat="42.76113" lon="1.36287">
        <ele>1488.1006</ele>
        <time>2025-09-13T17:01:56+02:00</time>
      </trkpt>
      <trkpt lat="42.76113" lon="1.36287">
        <ele>1488.1006</ele>
        <time>2025-09-13T17:01:57+02:00</time>
      </trkpt>
      <trkpt lat="42.76114" lon="1.36286">
        <ele>1488.1006</ele>
        <time>2025-09-13T17:02:01+02:00</time>
      </trkpt>
      <trkpt lat="42.76114" lon="1.36286">
        <ele>1488.1006</ele>
        <time>2025-09-13T17:02:02+02:00</time>
      </trkpt>
      <trkpt lat="42.76114" lon="1.36286">
        <ele>1488.1006</ele>
        <time>2025-09-13T17:02:06+02:00</time>
      </trkpt>
      <trkpt lat="42.76114" lon="1.36286">
        <ele>1488.1006</ele>
        <time>2025-09-13T17:02:07+02:00</time>
      </trkpt>
      <trkpt lat="42.76113" lon="1.36286">
        <ele>1488.1006</ele>
        <time>2025-09-13T17:02:11+02:00</time>
      </trkpt>
      <trkpt lat="42.76113" lon="1.36286">
        <ele>1488.1006</ele>
        <time>2025-09-13T17:02:12+02:00</time>
      </trkpt>
      <trkpt lat="42.76113" lon="1.36286">
        <ele>1488.1006</ele>
        <time>2025-09-13T17:02:16+02:00</time>
      </trkpt>
      <trkpt lat="42.76113" lon="1.36285">
        <ele>1488.1006</ele>
        <time>2025-09-13T17:02:17+02:00</time>
      </trkpt>
      <trkpt lat="42.76113" lon="1.36285">
        <ele>1488.1006</ele>
        <time>2025-09-13T17:02:21+02:00</time>
      </trkpt>
      <trkpt lat="42.76113" lon="1.36285">
        <ele>1488.1006</ele>
        <time>2025-09-13T17:02:22+02:00</time>
      </trkpt>
      <trkpt lat="42.76113" lon="1.36285">
        <ele>1488.1006</ele>
        <time>2025-09-13T17:02:26+02:00</time>
      </trkpt>
      <trkpt lat="42.76113" lon="1.36285">
        <ele>1488.1006</ele>
        <time>2025-09-13T17:02:27+02:00</time>
      </trkpt>
      <trkpt lat="42.76112" lon="1.36283">
        <ele>1489.9004</ele>
        <time>2025-09-13T17:02:31+02:00</time>
      </trkpt>
      <trkpt lat="42.76112" lon="1.36283">
        <ele>1489.9004</ele>
        <time>2025-09-13T17:02:32+02:00</time>
      </trkpt>
      <trkpt lat="42.76112" lon="1.36283">
        <ele>1489.9004</ele>
        <time>2025-09-13T17:02:36+02:00</time>
      </trkpt>
      <trkpt lat="42.76112" lon="1.36284">
        <ele>1489.9004</ele>
        <time>2025-09-13T17:02:37+02:00</time>
      </trkpt>
      <trkpt lat="42.76112" lon="1.36284">
        <ele>1489.9004</ele>
        <time>2025-09-13T17:02:41+02:00</time>
      </trkpt>
      <trkpt lat="42.76112" lon="1.36284">
        <ele>1489.9004</ele>
        <time>2025-09-13T17:02:42+02:00</time>
      </trkpt>
      <trkpt lat="42.76112" lon="1.36284">
        <ele>1489.9004</ele>
        <time>2025-09-13T17:02:46+02:00</time>
      </trkpt>
      <trkpt lat="42.76112" lon="1.36284">
        <ele>1489.9004</ele>
        <time>2025-09-13T17:02:47+02:00</time>
      </trkpt>
      <trkpt lat="42.76112" lon="1.36284">
        <ele>1489.9004</ele>
        <time>2025-09-13T17:02:51+02:00</time>
      </trkpt>
      <trkpt lat="42.76112" lon="1.36284">
        <ele>1489.9004</ele>
        <time>2025-09-13T17:02:52+02:00</time>
      </trkpt>
      <trkpt lat="42.76112" lon="1.36284">
        <ele>1489.9004</ele>
        <time>2025-09-13T17:02:56+02:00</time>
      </trkpt>
      <trkpt lat="42.76112" lon="1.36284">
        <ele>1489.9004</ele>
        <time>2025-09-13T17:02:57+02:00</time>
      </trkpt>
      <trkpt lat="42.76112" lon="1.36284">
        <ele>1489.9004</ele>
        <time>2025-09-13T17:03:01+02:00</time>
      </trkpt>
      <trkpt lat="42.76112" lon="1.36284">
        <ele>1489.9004</ele>
        <time>2025-09-13T17:03:02+02:00</time>
      </trkpt>
      <trkpt lat="42.76112" lon="1.36284">
        <ele>1489.9004</ele>
        <time>2025-09-13T17:03:06+02:00</time>
      </trkpt>
      <trkpt lat="42.76112" lon="1.36283">
        <ele>1489.9004</ele>
        <time>2025-09-13T17:03:07+02:00</time>
      </trkpt>
      <trkpt lat="42.76112" lon="1.36283">
        <ele>1489.9004</ele>
        <time>2025-09-13T17:03:11+02:00</time>
      </trkpt>
      <trkpt lat="42.76112" lon="1.36283">
        <ele>1489.9004</ele>
        <time>2025-09-13T17:03:12+02:00</time>
      </trkpt>
      <trkpt lat="42.76112" lon="1.36283">
        <ele>1489.9004</ele>
        <time>2025-09-13T17:03:16+02:00</time>
      </trkpt>
      <trkpt lat="42.76112" lon="1.36283">
        <ele>1489.9004</ele>
        <time>2025-09-13T17:03:17+02:00</time>
      </trkpt>
      <trkpt lat="42.76112" lon="1.36283">
        <ele>1489.9004</ele>
        <time>2025-09-13T17:03:21+02:00</time>
      </trkpt>
      <trkpt lat="42.76112" lon="1.36283">
        <ele>1489.9004</ele>
        <time>2025-09-13T17:03:22+02:00</time>
      </trkpt>
      <trkpt lat="42.76112" lon="1.36283">
        <ele>1489.9004</ele>
        <time>2025-09-13T17:03:26+02:00</time>
      </trkpt>
      <trkpt lat="42.76112" lon="1.36283">
        <ele>1489.9004</ele>
        <time>2025-09-13T17:03:27+02:00</time>
      </trkpt>
      <trkpt lat="42.76112" lon="1.36283">
        <ele>1489.9004</ele>
        <time>2025-09-13T17:03:31+02:00</time>
      </trkpt>
      <trkpt lat="42.76112" lon="1.36283">
        <ele>1489.9004</ele>
        <time>2025-09-13T17:03:32+02:00</time>
      </trkpt>
      <trkpt lat="42.76112" lon="1.36283">
        <ele>1489.9004</ele>
        <time>2025-09-13T17:03:36+02:00</time>
      </trkpt>
      <trkpt lat="42.76112" lon="1.36283">
        <ele>1489.9004</ele>
        <time>2025-09-13T17:03:37+02:00</time>
      </trkpt>
      <trkpt lat="42.76112" lon="1.36283">
        <ele>1489.9004</ele>
        <time>2025-09-13T17:03:41+02:00</time>
      </trkpt>
      <trkpt lat="42.76112" lon="1.36283">
        <ele>1489.9004</ele>
        <time>2025-09-13T17:03:42+02:00</time>
      </trkpt>
      <trkpt lat="42.76112" lon="1.36283">
        <ele>1489.9004</ele>
        <time>2025-09-13T17:03:46+02:00</time>
      </trkpt>
      <trkpt lat="42.76112" lon="1.36283">
        <ele>1489.9004</ele>
        <time>2025-09-13T17:03:47+02:00</time>
      </trkpt>
      <trkpt lat="42.76112" lon="1.36283">
        <ele>1489.9004</ele>
        <time>2025-09-13T17:03:51+02:00</time>
      </trkpt>
      <trkpt lat="42.76112" lon="1.36283">
        <ele>1489.9004</ele>
        <time>2025-09-13T17:03:52+02:00</time>
      </trkpt>
      <trkpt lat="42.76112" lon="1.36283">
        <ele>1489.9004</ele>
        <time>2025-09-13T17:03:56+02:00</time>
      </trkpt>
      <trkpt lat="42.76112" lon="1.36283">
        <ele>1489.9004</ele>
        <time>2025-09-13T17:03:57+02:00</time>
      </trkpt>
      <trkpt lat="42.76112" lon="1.36283">
        <ele>1489.9004</ele>
        <time>2025-09-13T17:04:01+02:00</time>
      </trkpt>
      <trkpt lat="42.76112" lon="1.36283">
        <ele>1489.9004</ele>
        <time>2025-09-13T17:04:02+02:00</time>
      </trkpt>
      <trkpt lat="42.76112" lon="1.36283">
        <ele>1489.9004</ele>
        <time>2025-09-13T17:04:06+02:00</time>
      </trkpt>
      <trkpt lat="42.76112" lon="1.36283">
        <ele>1489.9004</ele>
        <time>2025-09-13T17:04:07+02:00</time>
      </trkpt>
      <trkpt lat="42.76112" lon="1.36283">
        <ele>1489.9004</ele>
        <time>2025-09-13T17:04:11+02:00</time>
      </trkpt>
      <trkpt lat="42.76112" lon="1.36283">
        <ele>1489.9004</ele>
        <time>2025-09-13T17:04:12+02:00</time>
      </trkpt>
      <trkpt lat="42.76112" lon="1.36283">
        <ele>1489.9004</ele>
        <time>2025-09-13T17:04:16+02:00</time>
      </trkpt>
      <trkpt lat="42.76112" lon="1.36283">
        <ele>1489.9004</ele>
        <time>2025-09-13T17:04:17+02:00</time>
      </trkpt>
      <trkpt lat="42.76112" lon="1.36283">
        <ele>1489.9004</ele>
        <time>2025-09-13T17:04:21+02:00</time>
      </trkpt>
      <trkpt lat="42.76112" lon="1.36283">
        <ele>1489.9004</ele>
        <time>2025-09-13T17:04:22+02:00</time>
      </trkpt>
      <trkpt lat="42.76112" lon="1.36283">
        <ele>1489.9004</ele>
        <time>2025-09-13T17:04:26+02:00</time>
      </trkpt>
      <trkpt lat="42.76112" lon="1.36283">
        <ele>1489.9004</ele>
        <time>2025-09-13T17:04:27+02:00</time>
      </trkpt>
      <trkpt lat="42.76112" lon="1.36283">
        <ele>1489.9004</ele>
        <time>2025-09-13T17:04:31+02:00</time>
      </trkpt>
      <trkpt lat="42.76112" lon="1.36283">
        <ele>1489.9004</ele>
        <time>2025-09-13T17:04:32+02:00</time>
      </trkpt>
      <trkpt lat="42.76112" lon="1.36283">
        <ele>1489.9004</ele>
        <time>2025-09-13T17:04:36+02:00</time>
      </trkpt>
      <trkpt lat="42.76112" lon="1.36283">
        <ele>1489.9004</ele>
        <time>2025-09-13T17:04:37+02:00</time>
      </trkpt>
      <trkpt lat="42.76112" lon="1.36283">
        <ele>1489.9004</ele>
        <time>2025-09-13T17:04:41+02:00</time>
      </trkpt>
      <trkpt lat="42.76112" lon="1.36283">
        <ele>1489.9004</ele>
        <time>2025-09-13T17:04:42+02:00</time>
      </trkpt>
      <trkpt lat="42.76112" lon="1.36283">
        <ele>1489.9004</ele>
        <time>2025-09-13T17:04:46+02:00</time>
      </trkpt>
      <trkpt lat="42.76112" lon="1.36283">
        <ele>1489.9004</ele>
        <time>2025-09-13T17:04:47+02:00</time>
      </trkpt>
      <trkpt lat="42.76112" lon="1.36283">
        <ele>1489.9004</ele>
        <time>2025-09-13T17:04:51+02:00</time>
      </trkpt>
      <trkpt lat="42.76112" lon="1.36283">
        <ele>1489.9004</ele>
        <time>2025-09-13T17:04:52+02:00</time>
      </trkpt>
      <trkpt lat="42.76112" lon="1.36283">
        <ele>1489.9004</ele>
        <time>2025-09-13T17:04:56+02:00</time>
      </trkpt>
      <trkpt lat="42.76112" lon="1.36283">
        <ele>1489.9004</ele>
        <time>2025-09-13T17:04:57+02:00</time>
      </trkpt>
      <trkpt lat="42.76112" lon="1.36283">
        <ele>1489.9004</ele>
        <time>2025-09-13T17:05:01+02:00</time>
      </trkpt>
      <trkpt lat="42.76112" lon="1.36283">
        <ele>1489.9004</ele>
        <time>2025-09-13T17:05:02+02:00</time>
      </trkpt>
      <trkpt lat="42.76112" lon="1.36283">
        <ele>1489.9004</ele>
        <time>2025-09-13T17:05:06+02:00</time>
      </trkpt>
      <trkpt lat="42.76112" lon="1.36283">
        <ele>1489.9004</ele>
        <time>2025-09-13T17:05:07+02:00</time>
      </trkpt>
      <trkpt lat="42.76112" lon="1.36283">
        <ele>1489.9004</ele>
        <time>2025-09-13T17:05:11+02:00</time>
      </trkpt>
      <trkpt lat="42.76112" lon="1.36283">
        <ele>1489.9004</ele>
        <time>2025-09-13T17:05:12+02:00</time>
      </trkpt>
      <trkpt lat="42.76112" lon="1.36283">
        <ele>1489.9004</ele>
        <time>2025-09-13T17:05:16+02:00</time>
      </trkpt>
      <trkpt lat="42.76112" lon="1.36283">
        <ele>1489.9004</ele>
        <time>2025-09-13T17:05:17+02:00</time>
      </trkpt>
      <trkpt lat="42.76112" lon="1.36283">
        <ele>1489.9004</ele>
        <time>2025-09-13T17:05:21+02:00</time>
      </trkpt>
      <trkpt lat="42.76112" lon="1.36283">
        <ele>1489.9004</ele>
        <time>2025-09-13T17:05:22+02:00</time>
      </trkpt>
      <trkpt lat="42.76112" lon="1.36283">
        <ele>1489.9004</ele>
        <time>2025-09-13T17:05:26+02:00</time>
      </trkpt>
      <trkpt lat="42.76112" lon="1.36283">
        <ele>1489.9004</ele>
        <time>2025-09-13T17:05:27+02:00</time>
      </trkpt>
      <trkpt lat="42.76112" lon="1.36283">
        <ele>1489.9004</ele>
        <time>2025-09-13T17:05:31+02:00</time>
      </trkpt>
      <trkpt lat="42.76112" lon="1.36283">
        <ele>1489.9004</ele>
        <time>2025-09-13T17:05:32+02:00</time>
      </trkpt>
      <trkpt lat="42.76112" lon="1.36283">
        <ele>1489.9004</ele>
        <time>2025-09-13T17:05:36+02:00</time>
      </trkpt>
      <trkpt lat="42.76112" lon="1.36283">
        <ele>1489.9004</ele>
        <time>2025-09-13T17:05:37+02:00</time>
      </trkpt>
      <trkpt lat="42.76112" lon="1.36283">
        <ele>1489.9004</ele>
        <time>2025-09-13T17:05:41+02:00</time>
      </trkpt>
      <trkpt lat="42.76112" lon="1.36283">
        <ele>1489.9004</ele>
        <time>2025-09-13T17:05:42+02:00</time>
      </trkpt>
      <trkpt lat="42.76112" lon="1.36283">
        <ele>1489.9004</ele>
        <time>2025-09-13T17:05:46+02:00</time>
      </trkpt>
      <trkpt lat="42.76112" lon="1.36283">
        <ele>1489.9004</ele>
        <time>2025-09-13T17:05:47+02:00</time>
      </trkpt>
      <trkpt lat="42.76112" lon="1.36283">
        <ele>1489.9004</ele>
        <time>2025-09-13T17:05:51+02:00</time>
      </trkpt>
      <trkpt lat="42.76112" lon="1.36283">
        <ele>1489.9004</ele>
        <time>2025-09-13T17:05:52+02:00</time>
      </trkpt>
      <trkpt lat="42.76112" lon="1.36283">
        <ele>1489.9004</ele>
        <time>2025-09-13T17:05:56+02:00</time>
      </trkpt>
      <trkpt lat="42.76112" lon="1.36283">
        <ele>1489.9004</ele>
        <time>2025-09-13T17:05:57+02:00</time>
      </trkpt>
      <trkpt lat="42.76112" lon="1.36284">
        <ele>1489.9004</ele>
        <time>2025-09-13T17:06:01+02:00</time>
      </trkpt>
      <trkpt lat="42.76112" lon="1.36284">
        <ele>1489.9004</ele>
        <time>2025-09-13T17:06:02+02:00</time>
      </trkpt>
      <trkpt lat="42.76112" lon="1.36284">
        <ele>1489.9004</ele>
        <time>2025-09-13T17:06:06+02:00</time>
      </trkpt>
      <trkpt lat="42.76112" lon="1.36284">
        <ele>1489.9004</ele>
        <time>2025-09-13T17:06:07+02:00</time>
      </trkpt>
      <trkpt lat="42.76112" lon="1.36284">
        <ele>1489.9004</ele>
        <time>2025-09-13T17:06:11+02:00</time>
      </trkpt>
      <trkpt lat="42.76112" lon="1.36284">
        <ele>1489.9004</ele>
        <time>2025-09-13T17:06:12+02:00</time>
      </trkpt>
      <trkpt lat="42.76112" lon="1.36284">
        <ele>1489.9004</ele>
        <time>2025-09-13T17:06:16+02:00</time>
      </trkpt>
      <trkpt lat="42.76112" lon="1.36284">
        <ele>1489.9004</ele>
        <time>2025-09-13T17:06:17+02:00</time>
      </trkpt>
      <trkpt lat="42.76112" lon="1.36284">
        <ele>1489.9004</ele>
        <time>2025-09-13T17:06:21+02:00</time>
      </trkpt>
      <trkpt lat="42.76112" lon="1.36284">
        <ele>1489.9004</ele>
        <time>2025-09-13T17:06:22+02:00</time>
      </trkpt>
      <trkpt lat="42.76112" lon="1.36284">
        <ele>1489.9004</ele>
        <time>2025-09-13T17:06:26+02:00</time>
      </trkpt>
      <trkpt lat="42.76112" lon="1.36284">
        <ele>1489.9004</ele>
        <time>2025-09-13T17:06:27+02:00</time>
      </trkpt>
      <trkpt lat="42.76112" lon="1.36285">
        <ele>1489.9004</ele>
        <time>2025-09-13T17:06:31+02:00</time>
      </trkpt>
      <trkpt lat="42.76112" lon="1.36285">
        <ele>1489.9004</ele>
        <time>2025-09-13T17:06:32+02:00</time>
      </trkpt>
      <trkpt lat="42.76112" lon="1.36286">
        <ele>1489.9004</ele>
        <time>2025-09-13T17:06:36+02:00</time>
      </trkpt>
      <trkpt lat="42.76112" lon="1.36286">
        <ele>1489.9004</ele>
        <time>2025-09-13T17:06:37+02:00</time>
      </trkpt>
      <trkpt lat="42.76112" lon="1.36286">
        <ele>1489.9004</ele>
        <time>2025-09-13T17:06:41+02:00</time>
      </trkpt>
      <trkpt lat="42.76112" lon="1.36286">
        <ele>1489.9004</ele>
        <time>2025-09-13T17:06:42+02:00</time>
      </trkpt>
      <trkpt lat="42.76112" lon="1.36286">
        <ele>1489.9004</ele>
        <time>2025-09-13T17:06:46+02:00</time>
      </trkpt>
      <trkpt lat="42.76112" lon="1.36286">
        <ele>1489.9004</ele>
        <time>2025-09-13T17:06:47+02:00</time>
      </trkpt>
      <trkpt lat="42.76114" lon="1.36286">
        <ele>1488.1006</ele>
        <time>2025-09-13T17:06:51+02:00</time>
      </trkpt>
      <trkpt lat="42.76114" lon="1.36286">
        <ele>1488.1006</ele>
        <time>2025-09-13T17:06:52+02:00</time>
      </trkpt>
      <trkpt lat="42.76114" lon="1.36285">
        <ele>1488.1006</ele>
        <time>2025-09-13T17:06:56+02:00</time>
      </trkpt>
      <trkpt lat="42.76114" lon="1.36285">
        <ele>1488.1006</ele>
        <time>2025-09-13T17:06:57+02:00</time>
      </trkpt>
      <trkpt lat="42.76114" lon="1.36285">
        <ele>1488.1006</ele>
        <time>2025-09-13T17:07:01+02:00</time>
      </trkpt>
      <trkpt lat="42.76114" lon="1.36285">
        <ele>1488.1006</ele>
        <time>2025-09-13T17:07:02+02:00</time>
      </trkpt>
      <trkpt lat="42.76114" lon="1.36285">
        <ele>1488.1006</ele>
        <time>2025-09-13T17:07:06+02:00</time>
      </trkpt>
      <trkpt lat="42.76114" lon="1.36285">
        <ele>1488.1006</ele>
        <time>2025-09-13T17:07:07+02:00</time>
      </trkpt>
      <trkpt lat="42.76113" lon="1.36285">
        <ele>1488.1006</ele>
        <time>2025-09-13T17:07:11+02:00</time>
      </trkpt>
      <trkpt lat="42.76113" lon="1.36285">
        <ele>1488.1006</ele>
        <time>2025-09-13T17:07:12+02:00</time>
      </trkpt>
      <trkpt lat="42.76113" lon="1.36286">
        <ele>1488.1006</ele>
        <time>2025-09-13T17:07:16+02:00</time>
      </trkpt>
      <trkpt lat="42.76113" lon="1.36286">
        <ele>1488.1006</ele>
        <time>2025-09-13T17:07:17+02:00</time>
      </trkpt>
      <trkpt lat="42.76113" lon="1.36286">
        <ele>1488.1006</ele>
        <time>2025-09-13T17:07:21+02:00</time>
      </trkpt>
      <trkpt lat="42.76113" lon="1.36286">
        <ele>1488.1006</ele>
        <time>2025-09-13T17:07:22+02:00</time>
      </trkpt>
      <trkpt lat="42.76113" lon="1.36286">
        <ele>1488.1006</ele>
        <time>2025-09-13T17:07:26+02:00</time>
      </trkpt>
      <trkpt lat="42.76113" lon="1.36286">
        <ele>1488.1006</ele>
        <time>2025-09-13T17:07:27+02:00</time>
      </trkpt>
      <trkpt lat="42.76113" lon="1.36286">
        <ele>1488.1006</ele>
        <time>2025-09-13T17:07:31+02:00</time>
      </trkpt>
      <trkpt lat="42.76113" lon="1.36286">
        <ele>1488.1006</ele>
        <time>2025-09-13T17:07:32+02:00</time>
      </trkpt>
      <trkpt lat="42.76113" lon="1.36286">
        <ele>1488.1006</ele>
        <time>2025-09-13T17:07:36+02:00</time>
      </trkpt>
      <trkpt lat="42.76113" lon="1.36286">
        <ele>1488.1006</ele>
        <time>2025-09-13T17:07:37+02:00</time>
      </trkpt>
      <trkpt lat="42.76113" lon="1.36286">
        <ele>1488.1006</ele>
        <time>2025-09-13T17:07:41+02:00</time>
      </trkpt>
      <trkpt lat="42.76113" lon="1.36286">
        <ele>1488.1006</ele>
        <time>2025-09-13T17:07:42+02:00</time>
      </trkpt>
      <trkpt lat="42.76113" lon="1.36286">
        <ele>1488.1006</ele>
        <time>2025-09-13T17:07:46+02:00</time>
      </trkpt>
      <trkpt lat="42.76113" lon="1.36286">
        <ele>1488.1006</ele>
        <time>2025-09-13T17:07:47+02:00</time>
      </trkpt>
      <trkpt lat="42.76113" lon="1.36286">
        <ele>1488.1006</ele>
        <time>2025-09-13T17:07:51+02:00</time>
      </trkpt>
      <trkpt lat="42.76113" lon="1.36285">
        <ele>1489.9004</ele>
        <time>2025-09-13T17:07:52+02:00</time>
      </trkpt>
      <trkpt lat="42.76113" lon="1.36285">
        <ele>1489.9004</ele>
        <time>2025-09-13T17:07:56+02:00</time>
      </trkpt>
      <trkpt lat="42.76113" lon="1.36285">
        <ele>1489.9004</ele>
        <time>2025-09-13T17:07:57+02:00</time>
      </trkpt>
      <trkpt lat="42.76113" lon="1.36285">
        <ele>1489.9004</ele>
        <time>2025-09-13T17:08:01+02:00</time>
      </trkpt>
      <trkpt lat="42.76113" lon="1.36285">
        <ele>1489.9004</ele>
        <time>2025-09-13T17:08:02+02:00</time>
      </trkpt>
      <trkpt lat="42.76113" lon="1.36285">
        <ele>1489.9004</ele>
        <time>2025-09-13T17:08:06+02:00</time>
      </trkpt>
      <trkpt lat="42.76113" lon="1.36285">
        <ele>1489.9004</ele>
        <time>2025-09-13T17:08:07+02:00</time>
      </trkpt>
      <trkpt lat="42.76113" lon="1.36285">
        <ele>1489.9004</ele>
        <time>2025-09-13T17:08:11+02:00</time>
      </trkpt>
      <trkpt lat="42.76113" lon="1.36285">
        <ele>1489.9004</ele>
        <time>2025-09-13T17:08:12+02:00</time>
      </trkpt>
      <trkpt lat="42.76113" lon="1.36285">
        <ele>1489.9004</ele>
        <time>2025-09-13T17:08:16+02:00</time>
      </trkpt>
      <trkpt lat="42.76113" lon="1.36285">
        <ele>1489.9004</ele>
        <time>2025-09-13T17:08:17+02:00</time>
      </trkpt>
      <trkpt lat="42.76113" lon="1.36285">
        <ele>1489.9004</ele>
        <time>2025-09-13T17:08:21+02:00</time>
      </trkpt>
      <trkpt lat="42.76113" lon="1.36285">
        <ele>1489.9004</ele>
        <time>2025-09-13T17:08:22+02:00</time>
      </trkpt>
      <trkpt lat="42.76113" lon="1.36285">
        <ele>1489.9004</ele>
        <time>2025-09-13T17:08:26+02:00</time>
      </trkpt>
      <trkpt lat="42.76113" lon="1.36285">
        <ele>1489.9004</ele>
        <time>2025-09-13T17:08:27+02:00</time>
      </trkpt>
      <trkpt lat="42.76113" lon="1.36285">
        <ele>1489.9004</ele>
        <time>2025-09-13T17:08:31+02:00</time>
      </trkpt>
      <trkpt lat="42.76113" lon="1.36285">
        <ele>1489.9004</ele>
        <time>2025-09-13T17:08:32+02:00</time>
      </trkpt>
      <trkpt lat="42.76113" lon="1.36285">
        <ele>1488.1006</ele>
        <time>2025-09-13T17:08:36+02:00</time>
      </trkpt>
      <trkpt lat="42.76114" lon="1.36285">
        <ele>1488.1006</ele>
        <time>2025-09-13T17:08:37+02:00</time>
      </trkpt>
      <trkpt lat="42.76114" lon="1.36284">
        <ele>1488.1006</ele>
        <time>2025-09-13T17:08:41+02:00</time>
      </trkpt>
      <trkpt lat="42.76114" lon="1.36284">
        <ele>1488.1006</ele>
        <time>2025-09-13T17:08:42+02:00</time>
      </trkpt>
      <trkpt lat="42.76114" lon="1.36284">
        <ele>1488.1006</ele>
        <time>2025-09-13T17:08:46+02:00</time>
      </trkpt>
      <trkpt lat="42.76114" lon="1.36284">
        <ele>1488.1006</ele>
        <time>2025-09-13T17:08:47+02:00</time>
      </trkpt>
      <trkpt lat="42.76115" lon="1.36285">
        <ele>1488.1006</ele>
        <time>2025-09-13T17:08:51+02:00</time>
      </trkpt>
      <trkpt lat="42.76115" lon="1.36285">
        <ele>1488.1006</ele>
        <time>2025-09-13T17:08:52+02:00</time>
      </trkpt>
      <trkpt lat="42.76115" lon="1.36285">
        <ele>1488.1006</ele>
        <time>2025-09-13T17:08:56+02:00</time>
      </trkpt>
      <trkpt lat="42.76115" lon="1.36285">
        <ele>1488.1006</ele>
        <time>2025-09-13T17:08:59+02:00</time>
      </trkpt>
      <trkpt lat="42.76115" lon="1.36285">
        <ele>1488.1006</ele>
        <time>2025-09-13T17:09:04+02:00</time>
      </trkpt>
      <trkpt lat="42.76115" lon="1.36285">
        <ele>1488.1006</ele>
        <time>2025-09-13T17:09:05+02:00</time>
      </trkpt>
      <trkpt lat="42.76114" lon="1.36284">
        <ele>1488.1006</ele>
        <time>2025-09-13T17:09:09+02:00</time>
      </trkpt>
      <trkpt lat="42.76114" lon="1.36284">
        <ele>1488.1006</ele>
        <time>2025-09-13T17:09:10+02:00</time>
      </trkpt>
      <trkpt lat="42.76114" lon="1.36284">
        <ele>1488.1006</ele>
        <time>2025-09-13T17:09:14+02:00</time>
      </trkpt>
      <trkpt lat="42.76114" lon="1.36284">
        <ele>1488.1006</ele>
        <time>2025-09-13T17:09:15+02:00</time>
      </trkpt>
      <trkpt lat="42.76114" lon="1.36284">
        <ele>1488.1006</ele>
        <time>2025-09-13T17:09:19+02:00</time>
      </trkpt>
      <trkpt lat="42.76114" lon="1.36284">
        <ele>1488.1006</ele>
        <time>2025-09-13T17:09:20+02:00</time>
      </trkpt>
      <trkpt lat="42.76114" lon="1.36284">
        <ele>1488.1006</ele>
        <time>2025-09-13T17:09:24+02:00</time>
      </trkpt>
      <trkpt lat="42.76114" lon="1.36284">
        <ele>1488.1006</ele>
        <time>2025-09-13T17:09:25+02:00</time>
      </trkpt>
      <trkpt lat="42.76114" lon="1.36284">
        <ele>1488.1006</ele>
        <time>2025-09-13T17:09:29+02:00</time>
      </trkpt>
      <trkpt lat="42.76114" lon="1.36284">
        <ele>1488.1006</ele>
        <time>2025-09-13T17:09:30+02:00</time>
      </trkpt>
      <trkpt lat="42.76114" lon="1.36284">
        <ele>1488.1006</ele>
        <time>2025-09-13T17:09:34+02:00</time>
      </trkpt>
      <trkpt lat="42.76114" lon="1.36284">
        <ele>1488.1006</ele>
        <time>2025-09-13T17:09:35+02:00</time>
      </trkpt>
      <trkpt lat="42.76114" lon="1.36284">
        <ele>1488.1006</ele>
        <time>2025-09-13T17:09:39+02:00</time>
      </trkpt>
      <trkpt lat="42.76114" lon="1.36284">
        <ele>1488.1006</ele>
        <time>2025-09-13T17:09:40+02:00</time>
      </trkpt>
      <trkpt lat="42.76114" lon="1.36284">
        <ele>1488.1006</ele>
        <time>2025-09-13T17:09:44+02:00</time>
      </trkpt>
      <trkpt lat="42.76114" lon="1.36284">
        <ele>1488.1006</ele>
        <time>2025-09-13T17:09:45+02:00</time>
      </trkpt>
      <trkpt lat="42.76114" lon="1.36284">
        <ele>1488.1006</ele>
        <time>2025-09-13T17:09:49+02:00</time>
      </trkpt>
      <trkpt lat="42.76114" lon="1.36284">
        <ele>1488.1006</ele>
        <time>2025-09-13T17:09:50+02:00</time>
      </trkpt>
      <trkpt lat="42.76114" lon="1.36284">
        <ele>1488.1006</ele>
        <time>2025-09-13T17:09:54+02:00</time>
      </trkpt>
      <trkpt lat="42.76114" lon="1.36284">
        <ele>1488.1006</ele>
        <time>2025-09-13T17:09:55+02:00</time>
      </trkpt>
      <trkpt lat="42.76114" lon="1.36285">
        <ele>1488.1006</ele>
        <time>2025-09-13T17:09:59+02:00</time>
      </trkpt>
      <trkpt lat="42.76114" lon="1.36285">
        <ele>1488.1006</ele>
        <time>2025-09-13T17:10:00+02:00</time>
      </trkpt>
      <trkpt lat="42.76115" lon="1.36286">
        <ele>1488.1006</ele>
        <time>2025-09-13T17:10:04+02:00</time>
      </trkpt>
      <trkpt lat="42.76115" lon="1.36286">
        <ele>1488.1006</ele>
        <time>2025-09-13T17:10:05+02:00</time>
      </trkpt>
      <trkpt lat="42.76114" lon="1.36285">
        <ele>1488.1006</ele>
        <time>2025-09-13T17:10:09+02:00</time>
      </trkpt>
      <trkpt lat="42.76115" lon="1.36285">
        <ele>1488.1006</ele>
        <time>2025-09-13T17:10:10+02:00</time>
      </trkpt>
      <trkpt lat="42.76115" lon="1.36285">
        <ele>1488.1006</ele>
        <time>2025-09-13T17:10:14+02:00</time>
      </trkpt>
      <trkpt lat="42.76115" lon="1.36285">
        <ele>1488.1006</ele>
        <time>2025-09-13T17:10:15+02:00</time>
      </trkpt>
      <trkpt lat="42.76115" lon="1.36285">
        <ele>1488.1006</ele>
        <time>2025-09-13T17:10:19+02:00</time>
      </trkpt>
      <trkpt lat="42.76115" lon="1.36285">
        <ele>1488.1006</ele>
        <time>2025-09-13T17:10:20+02:00</time>
      </trkpt>
      <trkpt lat="42.76115" lon="1.36285">
        <ele>1488.1006</ele>
        <time>2025-09-13T17:10:24+02:00</time>
      </trkpt>
      <trkpt lat="42.76115" lon="1.36285">
        <ele>1488.1006</ele>
        <time>2025-09-13T17:10:25+02:00</time>
      </trkpt>
      <trkpt lat="42.76115" lon="1.36285">
        <ele>1488.1006</ele>
        <time>2025-09-13T17:10:29+02:00</time>
      </trkpt>
      <trkpt lat="42.76115" lon="1.36285">
        <ele>1488.1006</ele>
        <time>2025-09-13T17:10:30+02:00</time>
      </trkpt>
      <trkpt lat="42.76115" lon="1.36285">
        <ele>1488.1006</ele>
        <time>2025-09-13T17:10:34+02:00</time>
      </trkpt>
      <trkpt lat="42.76115" lon="1.36285">
        <ele>1488.1006</ele>
        <time>2025-09-13T17:10:35+02:00</time>
      </trkpt>
      <trkpt lat="42.76115" lon="1.36285">
        <ele>1488.1006</ele>
        <time>2025-09-13T17:10:39+02:00</time>
      </trkpt>
      <trkpt lat="42.76115" lon="1.36285">
        <ele>1488.1006</ele>
        <time>2025-09-13T17:10:40+02:00</time>
      </trkpt>
      <trkpt lat="42.76116" lon="1.36285">
        <ele>1488.1006</ele>
        <time>2025-09-13T17:10:44+02:00</time>
      </trkpt>
      <trkpt lat="42.76116" lon="1.36285">
        <ele>1488.1006</ele>
        <time>2025-09-13T17:10:45+02:00</time>
      </trkpt>
      <trkpt lat="42.76116" lon="1.36285">
        <ele>1488.1006</ele>
        <time>2025-09-13T17:10:49+02:00</time>
      </trkpt>
      <trkpt lat="42.76116" lon="1.36285">
        <ele>1488.1006</ele>
        <time>2025-09-13T17:10:50+02:00</time>
      </trkpt>
      <trkpt lat="42.76116" lon="1.36285">
        <ele>1488.1006</ele>
        <time>2025-09-13T17:10:54+02:00</time>
      </trkpt>
      <trkpt lat="42.76116" lon="1.36285">
        <ele>1488.1006</ele>
        <time>2025-09-13T17:10:55+02:00</time>
      </trkpt>
      <trkpt lat="42.76116" lon="1.36285">
        <ele>1488.1006</ele>
        <time>2025-09-13T17:10:59+02:00</time>
      </trkpt>
      <trkpt lat="42.76116" lon="1.36285">
        <ele>1488.1006</ele>
        <time>2025-09-13T17:11:00+02:00</time>
      </trkpt>
      <trkpt lat="42.76116" lon="1.36285">
        <ele>1488.1006</ele>
        <time>2025-09-13T17:11:04+02:00</time>
      </trkpt>
      <trkpt lat="42.76116" lon="1.36285">
        <ele>1488.1006</ele>
        <time>2025-09-13T17:11:05+02:00</time>
      </trkpt>
      <trkpt lat="42.76115" lon="1.36285">
        <ele>1488.1006</ele>
        <time>2025-09-13T17:11:09+02:00</time>
      </trkpt>
      <trkpt lat="42.76115" lon="1.36285">
        <ele>1488.1006</ele>
        <time>2025-09-13T17:11:10+02:00</time>
      </trkpt>
      <trkpt lat="42.76115" lon="1.36284">
        <ele>1488.1006</ele>
        <time>2025-09-13T17:11:14+02:00</time>
      </trkpt>
      <trkpt lat="42.76115" lon="1.36284">
        <ele>1488.1006</ele>
        <time>2025-09-13T17:11:15+02:00</time>
      </trkpt>
      <trkpt lat="42.76115" lon="1.36284">
        <ele>1488.1006</ele>
        <time>2025-09-13T17:11:19+02:00</time>
      </trkpt>
      <trkpt lat="42.76115" lon="1.36284">
        <ele>1488.1006</ele>
        <time>2025-09-13T17:11:20+02:00</time>
      </trkpt>
      <trkpt lat="42.76115" lon="1.36284">
        <ele>1488.1006</ele>
        <time>2025-09-13T17:11:24+02:00</time>
      </trkpt>
      <trkpt lat="42.76115" lon="1.36284">
        <ele>1488.1006</ele>
        <time>2025-09-13T17:11:25+02:00</time>
      </trkpt>
      <trkpt lat="42.76115" lon="1.36284">
        <ele>1488.1006</ele>
        <time>2025-09-13T17:11:29+02:00</time>
      </trkpt>
      <trkpt lat="42.76115" lon="1.36285">
        <ele>1488.1006</ele>
        <time>2025-09-13T17:11:30+02:00</time>
      </trkpt>
      <trkpt lat="42.76115" lon="1.36285">
        <ele>1488.1006</ele>
        <time>2025-09-13T17:11:34+02:00</time>
      </trkpt>
      <trkpt lat="42.76115" lon="1.36285">
        <ele>1488.1006</ele>
        <time>2025-09-13T17:11:35+02:00</time>
      </trkpt>
      <trkpt lat="42.76115" lon="1.36285">
        <ele>1488.1006</ele>
        <time>2025-09-13T17:11:39+02:00</time>
      </trkpt>
      <trkpt lat="42.76115" lon="1.36285">
        <ele>1488.1006</ele>
        <time>2025-09-13T17:11:40+02:00</time>
      </trkpt>
      <trkpt lat="42.76115" lon="1.36285">
        <ele>1488.1006</ele>
        <time>2025-09-13T17:11:44+02:00</time>
      </trkpt>
      <trkpt lat="42.76115" lon="1.36285">
        <ele>1488.1006</ele>
        <time>2025-09-13T17:11:45+02:00</time>
      </trkpt>
      <trkpt lat="42.76115" lon="1.36285">
        <ele>1488.1006</ele>
        <time>2025-09-13T17:11:49+02:00</time>
      </trkpt>
      <trkpt lat="42.76115" lon="1.36285">
        <ele>1488.1006</ele>
        <time>2025-09-13T17:11:50+02:00</time>
      </trkpt>
      <trkpt lat="42.76115" lon="1.36285">
        <ele>1488.1006</ele>
        <time>2025-09-13T17:11:54+02:00</time>
      </trkpt>
      <trkpt lat="42.76115" lon="1.36285">
        <ele>1488.1006</ele>
        <time>2025-09-13T17:11:55+02:00</time>
      </trkpt>
      <trkpt lat="42.76115" lon="1.36285">
        <ele>1488.1006</ele>
        <time>2025-09-13T17:11:59+02:00</time>
      </trkpt>
      <trkpt lat="42.76115" lon="1.36285">
        <ele>1488.1006</ele>
        <time>2025-09-13T17:12:00+02:00</time>
      </trkpt>
      <trkpt lat="42.76115" lon="1.36285">
        <ele>1488.1006</ele>
        <time>2025-09-13T17:12:04+02:00</time>
      </trkpt>
      <trkpt lat="42.76115" lon="1.36285">
        <ele>1488.1006</ele>
        <time>2025-09-13T17:12:05+02:00</time>
      </trkpt>
      <trkpt lat="42.76115" lon="1.36285">
        <ele>1488.1006</ele>
        <time>2025-09-13T17:12:09+02:00</time>
      </trkpt>
      <trkpt lat="42.76115" lon="1.36285">
        <ele>1488.1006</ele>
        <time>2025-09-13T17:12:10+02:00</time>
      </trkpt>
      <trkpt lat="42.76115" lon="1.36285">
        <ele>1488.1006</ele>
        <time>2025-09-13T17:12:14+02:00</time>
      </trkpt>
      <trkpt lat="42.76115" lon="1.36285">
        <ele>1488.1006</ele>
        <time>2025-09-13T17:12:15+02:00</time>
      </trkpt>
      <trkpt lat="42.76115" lon="1.36285">
        <ele>1488.1006</ele>
        <time>2025-09-13T17:12:19+02:00</time>
      </trkpt>
      <trkpt lat="42.76115" lon="1.36285">
        <ele>1488.1006</ele>
        <time>2025-09-13T17:12:20+02:00</time>
      </trkpt>
      <trkpt lat="42.76115" lon="1.36285">
        <ele>1488.1006</ele>
        <time>2025-09-13T17:12:24+02:00</time>
      </trkpt>
      <trkpt lat="42.76115" lon="1.36285">
        <ele>1488.1006</ele>
        <time>2025-09-13T17:12:25+02:00</time>
      </trkpt>
      <trkpt lat="42.76115" lon="1.36285">
        <ele>1488.1006</ele>
        <time>2025-09-13T17:12:29+02:00</time>
      </trkpt>
      <trkpt lat="42.76115" lon="1.36285">
        <ele>1488.1006</ele>
        <time>2025-09-13T17:12:30+02:00</time>
      </trkpt>
      <trkpt lat="42.76115" lon="1.36285">
        <ele>1488.1006</ele>
        <time>2025-09-13T17:12:34+02:00</time>
      </trkpt>
      <trkpt lat="42.76115" lon="1.36285">
        <ele>1488.1006</ele>
        <time>2025-09-13T17:12:35+02:00</time>
      </trkpt>
      <trkpt lat="42.76115" lon="1.36285">
        <ele>1488.1006</ele>
        <time>2025-09-13T17:12:39+02:00</time>
      </trkpt>
      <trkpt lat="42.76115" lon="1.36285">
        <ele>1488.1006</ele>
        <time>2025-09-13T17:12:40+02:00</time>
      </trkpt>
      <trkpt lat="42.76115" lon="1.36285">
        <ele>1488.1006</ele>
        <time>2025-09-13T17:12:44+02:00</time>
      </trkpt>
      <trkpt lat="42.76116" lon="1.36285">
        <ele>1488.1006</ele>
        <time>2025-09-13T17:12:45+02:00</time>
      </trkpt>
      <trkpt lat="42.76116" lon="1.36285">
        <ele>1488.1006</ele>
        <time>2025-09-13T17:12:49+02:00</time>
      </trkpt>
      <trkpt lat="42.76116" lon="1.36285">
        <ele>1488.1006</ele>
        <time>2025-09-13T17:12:50+02:00</time>
      </trkpt>
      <trkpt lat="42.76116" lon="1.36285">
        <ele>1488.1006</ele>
        <time>2025-09-13T17:12:54+02:00</time>
      </trkpt>
      <trkpt lat="42.76116" lon="1.36285">
        <ele>1488.1006</ele>
        <time>2025-09-13T17:12:55+02:00</time>
      </trkpt>
      <trkpt lat="42.76116" lon="1.36285">
        <ele>1488.1006</ele>
        <time>2025-09-13T17:12:59+02:00</time>
      </trkpt>
      <trkpt lat="42.76116" lon="1.36285">
        <ele>1488.1006</ele>
        <time>2025-09-13T17:13:00+02:00</time>
      </trkpt>
      <trkpt lat="42.76116" lon="1.36285">
        <ele>1488.1006</ele>
        <time>2025-09-13T17:13:04+02:00</time>
      </trkpt>
      <trkpt lat="42.76116" lon="1.36285">
        <ele>1488.1006</ele>
        <time>2025-09-13T17:13:05+02:00</time>
      </trkpt>
      <trkpt lat="42.76116" lon="1.36285">
        <ele>1488.1006</ele>
        <time>2025-09-13T17:13:09+02:00</time>
      </trkpt>
      <trkpt lat="42.76116" lon="1.36285">
        <ele>1488.1006</ele>
        <time>2025-09-13T17:13:10+02:00</time>
      </trkpt>
      <trkpt lat="42.76116" lon="1.36285">
        <ele>1488.1006</ele>
        <time>2025-09-13T17:13:14+02:00</time>
      </trkpt>
      <trkpt lat="42.76116" lon="1.36285">
        <ele>1488.1006</ele>
        <time>2025-09-13T17:13:15+02:00</time>
      </trkpt>
      <trkpt lat="42.76116" lon="1.36285">
        <ele>1488.1006</ele>
        <time>2025-09-13T17:13:19+02:00</time>
      </trkpt>
      <trkpt lat="42.76116" lon="1.36285">
        <ele>1488.1006</ele>
        <time>2025-09-13T17:13:20+02:00</time>
      </trkpt>
      <trkpt lat="42.76116" lon="1.36285">
        <ele>1488.1006</ele>
        <time>2025-09-13T17:13:24+02:00</time>
      </trkpt>
      <trkpt lat="42.76116" lon="1.36285">
        <ele>1488.1006</ele>
        <time>2025-09-13T17:13:25+02:00</time>
      </trkpt>
      <trkpt lat="42.76116" lon="1.36285">
        <ele>1488.1006</ele>
        <time>2025-09-13T17:13:29+02:00</time>
      </trkpt>
      <trkpt lat="42.76116" lon="1.36285">
        <ele>1488.1006</ele>
        <time>2025-09-13T17:13:30+02:00</time>
      </trkpt>
      <trkpt lat="42.76116" lon="1.36285">
        <ele>1488.1006</ele>
        <time>2025-09-13T17:13:34+02:00</time>
      </trkpt>
      <trkpt lat="42.76116" lon="1.36285">
        <ele>1488.1006</ele>
        <time>2025-09-13T17:13:35+02:00</time>
      </trkpt>
      <trkpt lat="42.76116" lon="1.36285">
        <ele>1488.1006</ele>
        <time>2025-09-13T17:13:39+02:00</time>
      </trkpt>
      <trkpt lat="42.76116" lon="1.36285">
        <ele>1488.1006</ele>
        <time>2025-09-13T17:13:40+02:00</time>
      </trkpt>
      <trkpt lat="42.76115" lon="1.36285">
        <ele>1488.1006</ele>
        <time>2025-09-13T17:13:44+02:00</time>
      </trkpt>
      <trkpt lat="42.76115" lon="1.36285">
        <ele>1488.1006</ele>
        <time>2025-09-13T17:13:45+02:00</time>
      </trkpt>
      <trkpt lat="42.76115" lon="1.36285">
        <ele>1488.1006</ele>
        <time>2025-09-13T17:13:49+02:00</time>
      </trkpt>
      <trkpt lat="42.76115" lon="1.36285">
        <ele>1488.1006</ele>
        <time>2025-09-13T17:13:50+02:00</time>
      </trkpt>
      <trkpt lat="42.76115" lon="1.36285">
        <ele>1488.1006</ele>
        <time>2025-09-13T17:13:54+02:00</time>
      </trkpt>
      <trkpt lat="42.76115" lon="1.36285">
        <ele>1488.1006</ele>
        <time>2025-09-13T17:13:55+02:00</time>
      </trkpt>
      <trkpt lat="42.76115" lon="1.36285">
        <ele>1488.1006</ele>
        <time>2025-09-13T17:13:59+02:00</time>
      </trkpt>
      <trkpt lat="42.76115" lon="1.36285">
        <ele>1488.1006</ele>
        <time>2025-09-13T17:14:00+02:00</time>
      </trkpt>
      <trkpt lat="42.76115" lon="1.36285">
        <ele>1488.1006</ele>
        <time>2025-09-13T17:14:04+02:00</time>
      </trkpt>
      <trkpt lat="42.76115" lon="1.36285">
        <ele>1488.1006</ele>
        <time>2025-09-13T17:14:05+02:00</time>
      </trkpt>
      <trkpt lat="42.76115" lon="1.36285">
        <ele>1488.1006</ele>
        <time>2025-09-13T17:14:09+02:00</time>
      </trkpt>
      <trkpt lat="42.76115" lon="1.36285">
        <ele>1488.1006</ele>
        <time>2025-09-13T17:14:10+02:00</time>
      </trkpt>
      <trkpt lat="42.76115" lon="1.36285">
        <ele>1488.1006</ele>
        <time>2025-09-13T17:14:14+02:00</time>
      </trkpt>
      <trkpt lat="42.76115" lon="1.36285">
        <ele>1488.1006</ele>
        <time>2025-09-13T17:14:15+02:00</time>
      </trkpt>
      <trkpt lat="42.76115" lon="1.36286">
        <ele>1488.1006</ele>
        <time>2025-09-13T17:14:19+02:00</time>
      </trkpt>
      <trkpt lat="42.76115" lon="1.36286">
        <ele>1488.1006</ele>
        <time>2025-09-13T17:14:20+02:00</time>
      </trkpt>
      <trkpt lat="42.76115" lon="1.36285">
        <ele>1488.1006</ele>
        <time>2025-09-13T17:14:24+02:00</time>
      </trkpt>
      <trkpt lat="42.76115" lon="1.36285">
        <ele>1488.1006</ele>
        <time>2025-09-13T17:14:25+02:00</time>
      </trkpt>
      <trkpt lat="42.76115" lon="1.36285">
        <ele>1488.1006</ele>
        <time>2025-09-13T17:14:29+02:00</time>
      </trkpt>
      <trkpt lat="42.76115" lon="1.36285">
        <ele>1488.1006</ele>
        <time>2025-09-13T17:14:30+02:00</time>
      </trkpt>
      <trkpt lat="42.76115" lon="1.36285">
        <ele>1488.1006</ele>
        <time>2025-09-13T17:14:34+02:00</time>
      </trkpt>
      <trkpt lat="42.76115" lon="1.36285">
        <ele>1488.1006</ele>
        <time>2025-09-13T17:14:35+02:00</time>
      </trkpt>
      <trkpt lat="42.76115" lon="1.36285">
        <ele>1488.1006</ele>
        <time>2025-09-13T17:14:39+02:00</time>
      </trkpt>
      <trkpt lat="42.76115" lon="1.36285">
        <ele>1488.1006</ele>
        <time>2025-09-13T17:14:40+02:00</time>
      </trkpt>
      <trkpt lat="42.76115" lon="1.36285">
        <ele>1488.1006</ele>
        <time>2025-09-13T17:14:44+02:00</time>
      </trkpt>
      <trkpt lat="42.76115" lon="1.36285">
        <ele>1488.1006</ele>
        <time>2025-09-13T17:14:45+02:00</time>
      </trkpt>
      <trkpt lat="42.76115" lon="1.36285">
        <ele>1488.1006</ele>
        <time>2025-09-13T17:14:49+02:00</time>
      </trkpt>
      <trkpt lat="42.76115" lon="1.36285">
        <ele>1488.1006</ele>
        <time>2025-09-13T17:14:50+02:00</time>
      </trkpt>
      <trkpt lat="42.76115" lon="1.36285">
        <ele>1488.1006</ele>
        <time>2025-09-13T17:14:54+02:00</time>
      </trkpt>
      <trkpt lat="42.76115" lon="1.36285">
        <ele>1488.1006</ele>
        <time>2025-09-13T17:14:55+02:00</time>
      </trkpt>
      <trkpt lat="42.76115" lon="1.36285">
        <ele>1488.1006</ele>
        <time>2025-09-13T17:14:59+02:00</time>
      </trkpt>
      <trkpt lat="42.76115" lon="1.36285">
        <ele>1488.1006</ele>
        <time>2025-09-13T17:15:00+02:00</time>
      </trkpt>
      <trkpt lat="42.76115" lon="1.36285">
        <ele>1488.1006</ele>
        <time>2025-09-13T17:15:04+02:00</time>
      </trkpt>
      <trkpt lat="42.76115" lon="1.36285">
        <ele>1488.1006</ele>
        <time>2025-09-13T17:15:05+02:00</time>
      </trkpt>
      <trkpt lat="42.76115" lon="1.36285">
        <ele>1488.1006</ele>
        <time>2025-09-13T17:15:09+02:00</time>
      </trkpt>
      <trkpt lat="42.76115" lon="1.36285">
        <ele>1488.1006</ele>
        <time>2025-09-13T17:15:10+02:00</time>
      </trkpt>
      <trkpt lat="42.76115" lon="1.36286">
        <ele>1488.1006</ele>
        <time>2025-09-13T17:15:14+02:00</time>
      </trkpt>
      <trkpt lat="42.76115" lon="1.36286">
        <ele>1488.1006</ele>
        <time>2025-09-13T17:15:15+02:00</time>
      </trkpt>
      <trkpt lat="42.76115" lon="1.36286">
        <ele>1488.1006</ele>
        <time>2025-09-13T17:15:19+02:00</time>
      </trkpt>
      <trkpt lat="42.76115" lon="1.36286">
        <ele>1488.1006</ele>
        <time>2025-09-13T17:15:20+02:00</time>
      </trkpt>
      <trkpt lat="42.76115" lon="1.36286">
        <ele>1488.1006</ele>
        <time>2025-09-13T17:15:24+02:00</time>
      </trkpt>
      <trkpt lat="42.76115" lon="1.36286">
        <ele>1488.1006</ele>
        <time>2025-09-13T17:15:25+02:00</time>
      </trkpt>
      <trkpt lat="42.76115" lon="1.36286">
        <ele>1488.1006</ele>
        <time>2025-09-13T17:15:29+02:00</time>
      </trkpt>
      <trkpt lat="42.76115" lon="1.36286">
        <ele>1488.1006</ele>
        <time>2025-09-13T17:15:30+02:00</time>
      </trkpt>
      <trkpt lat="42.76115" lon="1.36286">
        <ele>1488.1006</ele>
        <time>2025-09-13T17:15:34+02:00</time>
      </trkpt>
      <trkpt lat="42.76116" lon="1.36286">
        <ele>1488.1006</ele>
        <time>2025-09-13T17:15:35+02:00</time>
      </trkpt>
      <trkpt lat="42.76116" lon="1.36287">
        <ele>1488.1006</ele>
        <time>2025-09-13T17:15:39+02:00</time>
      </trkpt>
      <trkpt lat="42.76116" lon="1.36287">
        <ele>1488.1006</ele>
        <time>2025-09-13T17:15:40+02:00</time>
      </trkpt>
      <trkpt lat="42.76116" lon="1.36287">
        <ele>1488.1006</ele>
        <time>2025-09-13T17:15:44+02:00</time>
      </trkpt>
      <trkpt lat="42.76116" lon="1.36287">
        <ele>1488.1006</ele>
        <time>2025-09-13T17:15:45+02:00</time>
      </trkpt>
      <trkpt lat="42.76116" lon="1.36287">
        <ele>1488.1006</ele>
        <time>2025-09-13T17:15:49+02:00</time>
      </trkpt>
      <trkpt lat="42.76116" lon="1.36287">
        <ele>1488.1006</ele>
        <time>2025-09-13T17:15:50+02:00</time>
      </trkpt>
      <trkpt lat="42.76116" lon="1.36287">
        <ele>1488.1006</ele>
        <time>2025-09-13T17:15:54+02:00</time>
      </trkpt>
      <trkpt lat="42.76116" lon="1.36287">
        <ele>1488.1006</ele>
        <time>2025-09-13T17:15:55+02:00</time>
      </trkpt>
      <trkpt lat="42.76116" lon="1.36287">
        <ele>1488.1006</ele>
        <time>2025-09-13T17:15:59+02:00</time>
      </trkpt>
      <trkpt lat="42.76116" lon="1.36287">
        <ele>1488.1006</ele>
        <time>2025-09-13T17:16:00+02:00</time>
      </trkpt>
      <trkpt lat="42.76116" lon="1.36287">
        <ele>1488.1006</ele>
        <time>2025-09-13T17:16:04+02:00</time>
      </trkpt>
      <trkpt lat="42.76116" lon="1.36287">
        <ele>1488.1006</ele>
        <time>2025-09-13T17:16:05+02:00</time>
      </trkpt>
      <trkpt lat="42.76116" lon="1.36287">
        <ele>1488.1006</ele>
        <time>2025-09-13T17:16:09+02:00</time>
      </trkpt>
      <trkpt lat="42.76116" lon="1.36287">
        <ele>1488.1006</ele>
        <time>2025-09-13T17:16:10+02:00</time>
      </trkpt>
      <trkpt lat="42.76116" lon="1.36287">
        <ele>1488.1006</ele>
        <time>2025-09-13T17:16:14+02:00</time>
      </trkpt>
      <trkpt lat="42.76116" lon="1.36287">
        <ele>1488.1006</ele>
        <time>2025-09-13T17:16:15+02:00</time>
      </trkpt>
      <trkpt lat="42.76116" lon="1.36287">
        <ele>1488.1006</ele>
        <time>2025-09-13T17:16:19+02:00</time>
      </trkpt>
      <trkpt lat="42.76116" lon="1.36287">
        <ele>1488.1006</ele>
        <time>2025-09-13T17:16:20+02:00</time>
      </trkpt>
      <trkpt lat="42.76116" lon="1.36287">
        <ele>1488.1006</ele>
        <time>2025-09-13T17:16:24+02:00</time>
      </trkpt>
      <trkpt lat="42.76116" lon="1.36287">
        <ele>1488.1006</ele>
        <time>2025-09-13T17:16:25+02:00</time>
      </trkpt>
      <trkpt lat="42.76116" lon="1.36287">
        <ele>1488.1006</ele>
        <time>2025-09-13T17:16:29+02:00</time>
      </trkpt>
      <trkpt lat="42.76116" lon="1.36287">
        <ele>1488.1006</ele>
        <time>2025-09-13T17:16:30+02:00</time>
      </trkpt>
      <trkpt lat="42.76115" lon="1.36287">
        <ele>1488.1006</ele>
        <time>2025-09-13T17:16:34+02:00</time>
      </trkpt>
      <trkpt lat="42.76115" lon="1.36287">
        <ele>1488.1006</ele>
        <time>2025-09-13T17:16:35+02:00</time>
      </trkpt>
      <trkpt lat="42.76115" lon="1.36287">
        <ele>1488.1006</ele>
        <time>2025-09-13T17:16:39+02:00</time>
      </trkpt>
      <trkpt lat="42.76115" lon="1.36287">
        <ele>1488.1006</ele>
        <time>2025-09-13T17:16:40+02:00</time>
      </trkpt>
      <trkpt lat="42.76115" lon="1.36287">
        <ele>1488.1006</ele>
        <time>2025-09-13T17:16:44+02:00</time>
      </trkpt>
      <trkpt lat="42.76115" lon="1.36287">
        <ele>1488.1006</ele>
        <time>2025-09-13T17:16:45+02:00</time>
      </trkpt>
      <trkpt lat="42.76115" lon="1.36287">
        <ele>1488.1006</ele>
        <time>2025-09-13T17:16:49+02:00</time>
      </trkpt>
      <trkpt lat="42.76115" lon="1.36287">
        <ele>1488.1006</ele>
        <time>2025-09-13T17:16:50+02:00</time>
      </trkpt>
      <trkpt lat="42.76115" lon="1.36287">
        <ele>1488.1006</ele>
        <time>2025-09-13T17:16:54+02:00</time>
      </trkpt>
      <trkpt lat="42.76115" lon="1.36287">
        <ele>1488.1006</ele>
        <time>2025-09-13T17:16:55+02:00</time>
      </trkpt>
      <trkpt lat="42.76115" lon="1.36287">
        <ele>1488.1006</ele>
        <time>2025-09-13T17:16:59+02:00</time>
      </trkpt>
      <trkpt lat="42.76115" lon="1.36287">
        <ele>1488.1006</ele>
        <time>2025-09-13T17:17:00+02:00</time>
      </trkpt>
      <trkpt lat="42.76115" lon="1.36286">
        <ele>1488.1006</ele>
        <time>2025-09-13T17:17:04+02:00</time>
      </trkpt>
      <trkpt lat="42.76115" lon="1.36287">
        <ele>1488.1006</ele>
        <time>2025-09-13T17:17:05+02:00</time>
      </trkpt>
      <trkpt lat="42.76115" lon="1.36287">
        <ele>1488.1006</ele>
        <time>2025-09-13T17:17:09+02:00</time>
      </trkpt>
      <trkpt lat="42.76115" lon="1.36287">
        <ele>1488.1006</ele>
        <time>2025-09-13T17:17:10+02:00</time>
      </trkpt>
      <trkpt lat="42.76116" lon="1.36287">
        <ele>1488.1006</ele>
        <time>2025-09-13T17:17:14+02:00</time>
      </trkpt>
      <trkpt lat="42.76116" lon="1.36287">
        <ele>1488.1006</ele>
        <time>2025-09-13T17:17:15+02:00</time>
      </trkpt>
      <trkpt lat="42.76116" lon="1.36287">
        <ele>1488.1006</ele>
        <time>2025-09-13T17:17:19+02:00</time>
      </trkpt>
      <trkpt lat="42.76117" lon="1.36288">
        <ele>1488.1006</ele>
        <time>2025-09-13T17:17:20+02:00</time>
      </trkpt>
      <trkpt lat="42.76119" lon="1.36288">
        <ele>1488.1006</ele>
        <time>2025-09-13T17:17:24+02:00</time>
      </trkpt>
      <trkpt lat="42.76119" lon="1.36289">
        <ele>1486.1006</ele>
        <time>2025-09-13T17:17:25+02:00</time>
      </trkpt>
      <trkpt lat="42.76121" lon="1.36291">
        <ele>1486.6006</ele>
        <time>2025-09-13T17:17:29+02:00</time>
      </trkpt>
      <trkpt lat="42.76121" lon="1.36292">
        <ele>1486.6006</ele>
        <time>2025-09-13T17:17:30+02:00</time>
      </trkpt>
      <trkpt lat="42.76121" lon="1.36297">
        <ele>1486.6006</ele>
        <time>2025-09-13T17:17:34+02:00</time>
      </trkpt>
      <trkpt lat="42.76121" lon="1.36298">
        <ele>1486.6006</ele>
        <time>2025-09-13T17:17:35+02:00</time>
      </trkpt>
      <trkpt lat="42.7612" lon="1.36304">
        <ele>1487.2002</ele>
        <time>2025-09-13T17:17:39+02:00</time>
      </trkpt>
      <trkpt lat="42.7612" lon="1.36306">
        <ele>1487.2002</ele>
        <time>2025-09-13T17:17:40+02:00</time>
      </trkpt>
      <trkpt lat="42.76118" lon="1.36312">
        <ele>1489.9004</ele>
        <time>2025-09-13T17:17:44+02:00</time>
      </trkpt>
      <trkpt lat="42.76117" lon="1.36313">
        <ele>1489.9004</ele>
        <time>2025-09-13T17:17:45+02:00</time>
      </trkpt>
      <trkpt lat="42.76115" lon="1.36317">
        <ele>1490.5</ele>
        <time>2025-09-13T17:17:49+02:00</time>
      </trkpt>
      <trkpt lat="42.76114" lon="1.36318">
        <ele>1490.5</ele>
        <time>2025-09-13T17:17:50+02:00</time>
      </trkpt>
      <trkpt lat="42.76112" lon="1.36319">
        <ele>1492.5</ele>
        <time>2025-09-13T17:17:54+02:00</time>
      </trkpt>
      <trkpt lat="42.76111" lon="1.36318">
        <ele>1492.5</ele>
        <time>2025-09-13T17:17:55+02:00</time>
      </trkpt>
      <trkpt lat="42.76109" lon="1.36317">
        <ele>1492.5</ele>
        <time>2025-09-13T17:17:59+02:00</time>
      </trkpt>
      <trkpt lat="42.76109" lon="1.36318">
        <ele>1492.5</ele>
        <time>2025-09-13T17:18:00+02:00</time>
      </trkpt>
      <trkpt lat="42.76108" lon="1.36317">
        <ele>1492.5</ele>
        <time>2025-09-13T17:18:04+02:00</time>
      </trkpt>
      <trkpt lat="42.76108" lon="1.36317">
        <ele>1492.5</ele>
        <time>2025-09-13T17:18:05+02:00</time>
      </trkpt>
      <trkpt lat="42.76108" lon="1.36317">
        <ele>1492.5</ele>
        <time>2025-09-13T17:18:09+02:00</time>
      </trkpt>
      <trkpt lat="42.76108" lon="1.36317">
        <ele>1492.5</ele>
        <time>2025-09-13T17:18:10+02:00</time>
      </trkpt>
      <trkpt lat="42.76104" lon="1.36317">
        <ele>1494.2002</ele>
        <time>2025-09-13T17:18:13+02:00</time>
      </trkpt>
      <trkpt lat="42.76103" lon="1.36316">
        <ele>1493.6006</ele>
        <time>2025-09-13T17:18:15+02:00</time>
      </trkpt>
      <trkpt lat="42.76098" lon="1.36314">
        <ele>1495</ele>
        <time>2025-09-13T17:18:19+02:00</time>
      </trkpt>
      <trkpt lat="42.76097" lon="1.36313">
        <ele>1495</ele>
        <time>2025-09-13T17:18:20+02:00</time>
      </trkpt>
      <trkpt lat="42.76094" lon="1.36309">
        <ele>1495</ele>
        <time>2025-09-13T17:18:24+02:00</time>
      </trkpt>
      <trkpt lat="42.76093" lon="1.36309">
        <ele>1496.2002</ele>
        <time>2025-09-13T17:18:25+02:00</time>
      </trkpt>
      <trkpt lat="42.76092" lon="1.36307">
        <ele>1495.5</ele>
        <time>2025-09-13T17:18:29+02:00</time>
      </trkpt>
      <trkpt lat="42.76093" lon="1.36306">
        <ele>1495.5</ele>
        <time>2025-09-13T17:18:30+02:00</time>
      </trkpt>
      <trkpt lat="42.76092" lon="1.36303">
        <ele>1495.5</ele>
        <time>2025-09-13T17:18:34+02:00</time>
      </trkpt>
      <trkpt lat="42.76092" lon="1.36302">
        <ele>1495.5</ele>
        <time>2025-09-13T17:18:35+02:00</time>
      </trkpt>
      <trkpt lat="42.76088" lon="1.36299">
        <ele>1494.6006</ele>
        <time>2025-09-13T17:18:39+02:00</time>
      </trkpt>
      <trkpt lat="42.76088" lon="1.36298">
        <ele>1494.6006</ele>
        <time>2025-09-13T17:18:40+02:00</time>
      </trkpt>
      <trkpt lat="42.76085" lon="1.36294">
        <ele>1495.6006</ele>
        <time>2025-09-13T17:18:44+02:00</time>
      </trkpt>
      <trkpt lat="42.76085" lon="1.36294">
        <ele>1495.6006</ele>
        <time>2025-09-13T17:18:45+02:00</time>
      </trkpt>
      <trkpt lat="42.76082" lon="1.36295">
        <ele>1495.6006</ele>
        <time>2025-09-13T17:18:48+02:00</time>
      </trkpt>
      <trkpt lat="42.76081" lon="1.36294">
        <ele>1496.5</ele>
        <time>2025-09-13T17:18:50+02:00</time>
      </trkpt>
      <trkpt lat="42.76078" lon="1.36293">
        <ele>1496.5</ele>
        <time>2025-09-13T17:18:54+02:00</time>
      </trkpt>
      <trkpt lat="42.76078" lon="1.36293">
        <ele>1496.5</ele>
        <time>2025-09-13T17:18:55+02:00</time>
      </trkpt>
      <trkpt lat="42.76077" lon="1.36294">
        <ele>1496.5</ele>
        <time>2025-09-13T17:18:59+02:00</time>
      </trkpt>
      <trkpt lat="42.76077" lon="1.36294">
        <ele>1496.5</ele>
        <time>2025-09-13T17:19:00+02:00</time>
      </trkpt>
      <trkpt lat="42.76077" lon="1.36295">
        <ele>1496.5</ele>
        <time>2025-09-13T17:19:04+02:00</time>
      </trkpt>
      <trkpt lat="42.76077" lon="1.36295">
        <ele>1496.5</ele>
        <time>2025-09-13T17:19:05+02:00</time>
      </trkpt>
      <trkpt lat="42.76077" lon="1.36295">
        <ele>1496.5</ele>
        <time>2025-09-13T17:19:09+02:00</time>
      </trkpt>
      <trkpt lat="42.76077" lon="1.36295">
        <ele>1496.5</ele>
        <time>2025-09-13T17:19:10+02:00</time>
      </trkpt>
      <trkpt lat="42.76076" lon="1.36294">
        <ele>1496.5</ele>
        <time>2025-09-13T17:19:14+02:00</time>
      </trkpt>
      <trkpt lat="42.76075" lon="1.36294">
        <ele>1496.5</ele>
        <time>2025-09-13T17:19:15+02:00</time>
      </trkpt>
      <trkpt lat="42.76071" lon="1.36293">
        <ele>1497.1006</ele>
        <time>2025-09-13T17:19:19+02:00</time>
      </trkpt>
      <trkpt lat="42.7607" lon="1.36293">
        <ele>1497.1006</ele>
        <time>2025-09-13T17:19:20+02:00</time>
      </trkpt>
      <trkpt lat="42.76067" lon="1.3629">
        <ele>1497.1006</ele>
        <time>2025-09-13T17:19:24+02:00</time>
      </trkpt>
      <trkpt lat="42.76067" lon="1.3629">
        <ele>1497.1006</ele>
        <time>2025-09-13T17:19:25+02:00</time>
      </trkpt>
      <trkpt lat="42.76064" lon="1.36286">
        <ele>1497.1006</ele>
        <time>2025-09-13T17:19:29+02:00</time>
      </trkpt>
      <trkpt lat="42.76064" lon="1.36286">
        <ele>1497.1006</ele>
        <time>2025-09-13T17:19:30+02:00</time>
      </trkpt>
      <trkpt lat="42.76063" lon="1.36287">
        <ele>1497.1006</ele>
        <time>2025-09-13T17:19:34+02:00</time>
      </trkpt>
      <trkpt lat="42.76063" lon="1.36287">
        <ele>1497.1006</ele>
        <time>2025-09-13T17:19:35+02:00</time>
      </trkpt>
      <trkpt lat="42.76063" lon="1.36287">
        <ele>1497.1006</ele>
        <time>2025-09-13T17:19:39+02:00</time>
      </trkpt>
      <trkpt lat="42.76062" lon="1.36287">
        <ele>1497.5</ele>
        <time>2025-09-13T17:19:40+02:00</time>
      </trkpt>
      <trkpt lat="42.76062" lon="1.36286">
        <ele>1497.5</ele>
        <time>2025-09-13T17:19:45+02:00</time>
      </trkpt>
      <trkpt lat="42.76061" lon="1.36285">
        <ele>1497.5</ele>
        <time>2025-09-13T17:19:46+02:00</time>
      </trkpt>
      <trkpt lat="42.7606" lon="1.36284">
        <ele>1497.5</ele>
        <time>2025-09-13T17:19:51+02:00</time>
      </trkpt>
      <trkpt lat="42.7606" lon="1.36284">
        <ele>1497.5</ele>
        <time>2025-09-13T17:19:52+02:00</time>
      </trkpt>
      <trkpt lat="42.76059" lon="1.36285">
        <ele>1497.5</ele>
        <time>2025-09-13T17:19:56+02:00</time>
      </trkpt>
      <trkpt lat="42.76058" lon="1.36285">
        <ele>1497.5</ele>
        <time>2025-09-13T17:19:57+02:00</time>
      </trkpt>
      <trkpt lat="42.76057" lon="1.36286">
        <ele>1497.5</ele>
        <time>2025-09-13T17:20:01+02:00</time>
      </trkpt>
      <trkpt lat="42.76056" lon="1.36286">
        <ele>1497.5</ele>
        <time>2025-09-13T17:20:02+02:00</time>
      </trkpt>
      <trkpt lat="42.76056" lon="1.36287">
        <ele>1497.9004</ele>
        <time>2025-09-13T17:20:07+02:00</time>
      </trkpt>
      <trkpt lat="42.76055" lon="1.36287">
        <ele>1497.9004</ele>
        <time>2025-09-13T17:20:08+02:00</time>
      </trkpt>
      <trkpt lat="42.76053" lon="1.36284">
        <ele>1497.9004</ele>
        <time>2025-09-13T17:20:12+02:00</time>
      </trkpt>
      <trkpt lat="42.76053" lon="1.36284">
        <ele>1497.9004</ele>
        <time>2025-09-13T17:20:13+02:00</time>
      </trkpt>
      <trkpt lat="42.76053" lon="1.36282">
        <ele>1497.9004</ele>
        <time>2025-09-13T17:20:17+02:00</time>
      </trkpt>
      <trkpt lat="42.76053" lon="1.36282">
        <ele>1497.9004</ele>
        <time>2025-09-13T17:20:18+02:00</time>
      </trkpt>
      <trkpt lat="42.76052" lon="1.36281">
        <ele>1497.6006</ele>
        <time>2025-09-13T17:20:22+02:00</time>
      </trkpt>
      <trkpt lat="42.76052" lon="1.36281">
        <ele>1497.6006</ele>
        <time>2025-09-13T17:20:23+02:00</time>
      </trkpt>
      <trkpt lat="42.76052" lon="1.36276">
        <ele>1497.6006</ele>
        <time>2025-09-13T17:20:27+02:00</time>
      </trkpt>
      <trkpt lat="42.76052" lon="1.36275">
        <ele>1497.6006</ele>
        <time>2025-09-13T17:20:28+02:00</time>
      </trkpt>
      <trkpt lat="42.76052" lon="1.36274">
        <ele>1497.6006</ele>
        <time>2025-09-13T17:20:32+02:00</time>
      </trkpt>
      <trkpt lat="42.76052" lon="1.36274">
        <ele>1497.6006</ele>
        <time>2025-09-13T17:20:33+02:00</time>
      </trkpt>
      <trkpt lat="42.76052" lon="1.36274">
        <ele>1497.6006</ele>
        <time>2025-09-13T17:20:37+02:00</time>
      </trkpt>
      <trkpt lat="42.76052" lon="1.36274">
        <ele>1497.6006</ele>
        <time>2025-09-13T17:20:38+02:00</time>
      </trkpt>
      <trkpt lat="42.76054" lon="1.36272">
        <ele>1497.4004</ele>
        <time>2025-09-13T17:20:42+02:00</time>
      </trkpt>
      <trkpt lat="42.76055" lon="1.36272">
        <ele>1497.4004</ele>
        <time>2025-09-13T17:20:43+02:00</time>
      </trkpt>
      <trkpt lat="42.76057" lon="1.36271">
        <ele>1497</ele>
        <time>2025-09-13T17:20:47+02:00</time>
      </trkpt>
      <trkpt lat="42.76056" lon="1.36272">
        <ele>1497</ele>
        <time>2025-09-13T17:20:48+02:00</time>
      </trkpt>
      <trkpt lat="42.76056" lon="1.36275">
        <ele>1497.6006</ele>
        <time>2025-09-13T17:20:52+02:00</time>
      </trkpt>
      <trkpt lat="42.76056" lon="1.36276">
        <ele>1497.6006</ele>
        <time>2025-09-13T17:20:53+02:00</time>
      </trkpt>
      <trkpt lat="42.76055" lon="1.36278">
        <ele>1497.6006</ele>
        <time>2025-09-13T17:20:57+02:00</time>
      </trkpt>
      <trkpt lat="42.76055" lon="1.36277">
        <ele>1497.6006</ele>
        <time>2025-09-13T17:20:58+02:00</time>
      </trkpt>
      <trkpt lat="42.76056" lon="1.36276">
        <ele>1497.6006</ele>
        <time>2025-09-13T17:21:02+02:00</time>
      </trkpt>
      <trkpt lat="42.76057" lon="1.36277">
        <ele>1497.2002</ele>
        <time>2025-09-13T17:21:03+02:00</time>
      </trkpt>
      <trkpt lat="42.76057" lon="1.36275">
        <ele>1497.2002</ele>
        <time>2025-09-13T17:21:07+02:00</time>
      </trkpt>
      <trkpt lat="42.76056" lon="1.36274">
        <ele>1497.2002</ele>
        <time>2025-09-13T17:21:08+02:00</time>
      </trkpt>
      <trkpt lat="42.76056" lon="1.3627">
        <ele>1497.4004</ele>
        <time>2025-09-13T17:21:12+02:00</time>
      </trkpt>
      <trkpt lat="42.76056" lon="1.3627">
        <ele>1497.4004</ele>
        <time>2025-09-13T17:21:13+02:00</time>
      </trkpt>
      <trkpt lat="42.76058" lon="1.36269">
        <ele>1497</ele>
        <time>2025-09-13T17:21:17+02:00</time>
      </trkpt>
      <trkpt lat="42.76058" lon="1.36269">
        <ele>1497</ele>
        <time>2025-09-13T17:21:18+02:00</time>
      </trkpt>
      <trkpt lat="42.76057" lon="1.36268">
        <ele>1497</ele>
        <time>2025-09-13T17:21:22+02:00</time>
      </trkpt>
      <trkpt lat="42.76057" lon="1.36267">
        <ele>1497</ele>
        <time>2025-09-13T17:21:23+02:00</time>
      </trkpt>
      <trkpt lat="42.76056" lon="1.36264">
        <ele>1497.4004</ele>
        <time>2025-09-13T17:21:27+02:00</time>
      </trkpt>
      <trkpt lat="42.76057" lon="1.36264">
        <ele>1496.9004</ele>
        <time>2025-09-13T17:21:28+02:00</time>
      </trkpt>
      <trkpt lat="42.76058" lon="1.36258">
        <ele>1496.9004</ele>
        <time>2025-09-13T17:21:32+02:00</time>
      </trkpt>
      <trkpt lat="42.76058" lon="1.36258">
        <ele>1496.9004</ele>
        <time>2025-09-13T17:21:33+02:00</time>
      </trkpt>
      <trkpt lat="42.76057" lon="1.36257">
        <ele>1496.9004</ele>
        <time>2025-09-13T17:21:37+02:00</time>
      </trkpt>
      <trkpt lat="42.76056" lon="1.36255">
        <ele>1497.2998</ele>
        <time>2025-09-13T17:21:42+02:00</time>
      </trkpt>
      <trkpt lat="42.76056" lon="1.36255">
        <ele>1497.2998</ele>
        <time>2025-09-13T17:21:43+02:00</time>
      </trkpt>
      <trkpt lat="42.76054" lon="1.36252">
        <ele>1497.2998</ele>
        <time>2025-09-13T17:21:47+02:00</time>
      </trkpt>
      <trkpt lat="42.76054" lon="1.36251">
        <ele>1497.2998</ele>
        <time>2025-09-13T17:21:48+02:00</time>
      </trkpt>
      <trkpt lat="42.76054" lon="1.36251">
        <ele>1497.2998</ele>
        <time>2025-09-13T17:21:52+02:00</time>
      </trkpt>
      <trkpt lat="42.76054" lon="1.36251">
        <ele>1497.2998</ele>
        <time>2025-09-13T17:21:53+02:00</time>
      </trkpt>
      <trkpt lat="42.76054" lon="1.36251">
        <ele>1497.2998</ele>
        <time>2025-09-13T17:21:57+02:00</time>
      </trkpt>
      <trkpt lat="42.76054" lon="1.36251">
        <ele>1497.2998</ele>
        <time>2025-09-13T17:21:58+02:00</time>
      </trkpt>
      <trkpt lat="42.76053" lon="1.36251">
        <ele>1497.2998</ele>
        <time>2025-09-13T17:22:02+02:00</time>
      </trkpt>
      <trkpt lat="42.76053" lon="1.36251">
        <ele>1497.2998</ele>
        <time>2025-09-13T17:22:03+02:00</time>
      </trkpt>
      <trkpt lat="42.76052" lon="1.36251">
        <ele>1497.2998</ele>
        <time>2025-09-13T17:22:07+02:00</time>
      </trkpt>
      <trkpt lat="42.76052" lon="1.36251">
        <ele>1497.2998</ele>
        <time>2025-09-13T17:22:08+02:00</time>
      </trkpt>
      <trkpt lat="42.76051" lon="1.36252">
        <ele>1497.2998</ele>
        <time>2025-09-13T17:22:12+02:00</time>
      </trkpt>
      <trkpt lat="42.76051" lon="1.36252">
        <ele>1497.2998</ele>
        <time>2025-09-13T17:22:13+02:00</time>
      </trkpt>
      <trkpt lat="42.76051" lon="1.36251">
        <ele>1497.2998</ele>
        <time>2025-09-13T17:22:17+02:00</time>
      </trkpt>
      <trkpt lat="42.76051" lon="1.36251">
        <ele>1497.2998</ele>
        <time>2025-09-13T17:22:18+02:00</time>
      </trkpt>
      <trkpt lat="42.76051" lon="1.36252">
        <ele>1497.2998</ele>
        <time>2025-09-13T17:22:22+02:00</time>
      </trkpt>
      <trkpt lat="42.76051" lon="1.36252">
        <ele>1497.2998</ele>
        <time>2025-09-13T17:22:23+02:00</time>
      </trkpt>
      <trkpt lat="42.7605" lon="1.36252">
        <ele>1497.2998</ele>
        <time>2025-09-13T17:22:27+02:00</time>
      </trkpt>
      <trkpt lat="42.7605" lon="1.36251">
        <ele>1497.7002</ele>
        <time>2025-09-13T17:22:28+02:00</time>
      </trkpt>
      <trkpt lat="42.76049" lon="1.36251">
        <ele>1497.7002</ele>
        <time>2025-09-13T17:22:32+02:00</time>
      </trkpt>
      <trkpt lat="42.76049" lon="1.36251">
        <ele>1497.7002</ele>
        <time>2025-09-13T17:22:33+02:00</time>
      </trkpt>
      <trkpt lat="42.76048" lon="1.36252">
        <ele>1497.7002</ele>
        <time>2025-09-13T17:22:37+02:00</time>
      </trkpt>
      <trkpt lat="42.76048" lon="1.36252">
        <ele>1497.7002</ele>
        <time>2025-09-13T17:22:38+02:00</time>
      </trkpt>
      <trkpt lat="42.76047" lon="1.36252">
        <ele>1497.7002</ele>
        <time>2025-09-13T17:22:42+02:00</time>
      </trkpt>
      <trkpt lat="42.76047" lon="1.36252">
        <ele>1497.7002</ele>
        <time>2025-09-13T17:22:43+02:00</time>
      </trkpt>
      <trkpt lat="42.76045" lon="1.36246">
        <ele>1497.7998</ele>
        <time>2025-09-13T17:22:47+02:00</time>
      </trkpt>
      <trkpt lat="42.76045" lon="1.36245">
        <ele>1497.7998</ele>
        <time>2025-09-13T17:22:48+02:00</time>
      </trkpt>
      <trkpt lat="42.76043" lon="1.36241">
        <ele>1498.1006</ele>
        <time>2025-09-13T17:22:52+02:00</time>
      </trkpt>
      <trkpt lat="42.76042" lon="1.3624">
        <ele>1498.1006</ele>
        <time>2025-09-13T17:22:53+02:00</time>
      </trkpt>
      <trkpt lat="42.7604" lon="1.36238">
        <ele>1498.1006</ele>
        <time>2025-09-13T17:22:57+02:00</time>
      </trkpt>
      <trkpt lat="42.76039" lon="1.36237">
        <ele>1498.1006</ele>
        <time>2025-09-13T17:22:58+02:00</time>
      </trkpt>
      <trkpt lat="42.76036" lon="1.36234">
        <ele>1498.2998</ele>
        <time>2025-09-13T17:23:02+02:00</time>
      </trkpt>
      <trkpt lat="42.76035" lon="1.36233">
        <ele>1498.2998</ele>
        <time>2025-09-13T17:23:03+02:00</time>
      </trkpt>
      <trkpt lat="42.76033" lon="1.36232">
        <ele>1498.2998</ele>
        <time>2025-09-13T17:23:08+02:00</time>
      </trkpt>
      <trkpt lat="42.76032" lon="1.36231">
        <ele>1498.2998</ele>
        <time>2025-09-13T17:23:09+02:00</time>
      </trkpt>
      <trkpt lat="42.76031" lon="1.36229">
        <ele>1498.2998</ele>
        <time>2025-09-13T17:23:13+02:00</time>
      </trkpt>
      <trkpt lat="42.7603" lon="1.36229">
        <ele>1498.5</ele>
        <time>2025-09-13T17:23:14+02:00</time>
      </trkpt>
      <trkpt lat="42.76028" lon="1.36229">
        <ele>1498.5</ele>
        <time>2025-09-13T17:23:18+02:00</time>
      </trkpt>
      <trkpt lat="42.76027" lon="1.36228">
        <ele>1498.5</ele>
        <time>2025-09-13T17:23:19+02:00</time>
      </trkpt>
      <trkpt lat="42.76027" lon="1.36224">
        <ele>1498.5</ele>
        <time>2025-09-13T17:23:23+02:00</time>
      </trkpt>
      <trkpt lat="42.76026" lon="1.36223">
        <ele>1498.5</ele>
        <time>2025-09-13T17:23:24+02:00</time>
      </trkpt>
      <trkpt lat="42.76026" lon="1.36218">
        <ele>1498.4004</ele>
        <time>2025-09-13T17:23:28+02:00</time>
      </trkpt>
      <trkpt lat="42.76026" lon="1.36218">
        <ele>1498.4004</ele>
        <time>2025-09-13T17:23:29+02:00</time>
      </trkpt>
      <trkpt lat="42.76024" lon="1.36214">
        <ele>1498.5</ele>
        <time>2025-09-13T17:23:33+02:00</time>
      </trkpt>
      <trkpt lat="42.76024" lon="1.36213">
        <ele>1498.5</ele>
        <time>2025-09-13T17:23:34+02:00</time>
      </trkpt>
      <trkpt lat="42.76024" lon="1.36211">
        <ele>1498.5</ele>
        <time>2025-09-13T17:23:38+02:00</time>
      </trkpt>
      <trkpt lat="42.76023" lon="1.3621">
        <ele>1498.5</ele>
        <time>2025-09-13T17:23:39+02:00</time>
      </trkpt>
      <trkpt lat="42.76023" lon="1.36207">
        <ele>1498.5</ele>
        <time>2025-09-13T17:23:43+02:00</time>
      </trkpt>
      <trkpt lat="42.76023" lon="1.36207">
        <ele>1498.5</ele>
        <time>2025-09-13T17:23:44+02:00</time>
      </trkpt>
      <trkpt lat="42.76023" lon="1.36207">
        <ele>1498.5</ele>
        <time>2025-09-13T17:23:48+02:00</time>
      </trkpt>
      <trkpt lat="42.76022" lon="1.36207">
        <ele>1498.5</ele>
        <time>2025-09-13T17:23:49+02:00</time>
      </trkpt>
      <trkpt lat="42.76022" lon="1.36206">
        <ele>1498.5</ele>
        <time>2025-09-13T17:23:53+02:00</time>
      </trkpt>
      <trkpt lat="42.76022" lon="1.36205">
        <ele>1498.5</ele>
        <time>2025-09-13T17:23:54+02:00</time>
      </trkpt>
      <trkpt lat="42.76021" lon="1.36204">
        <ele>1498.7002</ele>
        <time>2025-09-13T17:23:58+02:00</time>
      </trkpt>
      <trkpt lat="42.76021" lon="1.36204">
        <ele>1498.7002</ele>
        <time>2025-09-13T17:23:59+02:00</time>
      </trkpt>
      <trkpt lat="42.7602" lon="1.36204">
        <ele>1498.7002</ele>
        <time>2025-09-13T17:24:03+02:00</time>
      </trkpt>
      <trkpt lat="42.7602" lon="1.36204">
        <ele>1498.7002</ele>
        <time>2025-09-13T17:24:04+02:00</time>
      </trkpt>
      <trkpt lat="42.76019" lon="1.36206">
        <ele>1498.5</ele>
        <time>2025-09-13T17:24:08+02:00</time>
      </trkpt>
      <trkpt lat="42.76019" lon="1.36206">
        <ele>1498.5</ele>
        <time>2025-09-13T17:24:09+02:00</time>
      </trkpt>
      <trkpt lat="42.76019" lon="1.36206">
        <ele>1498.5</ele>
        <time>2025-09-13T17:24:13+02:00</time>
      </trkpt>
      <trkpt lat="42.76019" lon="1.36206">
        <ele>1498.5</ele>
        <time>2025-09-13T17:24:14+02:00</time>
      </trkpt>
      <trkpt lat="42.76019" lon="1.36206">
        <ele>1498.5</ele>
        <time>2025-09-13T17:24:18+02:00</time>
      </trkpt>
      <trkpt lat="42.76019" lon="1.36206">
        <ele>1498.5</ele>
        <time>2025-09-13T17:24:19+02:00</time>
      </trkpt>
      <trkpt lat="42.76019" lon="1.36206">
        <ele>1498.5</ele>
        <time>2025-09-13T17:24:23+02:00</time>
      </trkpt>
      <trkpt lat="42.7602" lon="1.36206">
        <ele>1498.5</ele>
        <time>2025-09-13T17:24:24+02:00</time>
      </trkpt>
      <trkpt lat="42.7602" lon="1.36206">
        <ele>1498.5</ele>
        <time>2025-09-13T17:24:28+02:00</time>
      </trkpt>
      <trkpt lat="42.7602" lon="1.36206">
        <ele>1498.5</ele>
        <time>2025-09-13T17:24:29+02:00</time>
      </trkpt>
      <trkpt lat="42.76021" lon="1.36206">
        <ele>1498.5</ele>
        <time>2025-09-13T17:24:33+02:00</time>
      </trkpt>
      <trkpt lat="42.76021" lon="1.36206">
        <ele>1498.5</ele>
        <time>2025-09-13T17:24:34+02:00</time>
      </trkpt>
      <trkpt lat="42.76021" lon="1.36206">
        <ele>1498.5</ele>
        <time>2025-09-13T17:24:38+02:00</time>
      </trkpt>
      <trkpt lat="42.76021" lon="1.36206">
        <ele>1498.5</ele>
        <time>2025-09-13T17:24:39+02:00</time>
      </trkpt>
      <trkpt lat="42.76021" lon="1.36206">
        <ele>1498.5</ele>
        <time>2025-09-13T17:24:43+02:00</time>
      </trkpt>
      <trkpt lat="42.76021" lon="1.36206">
        <ele>1498.5</ele>
        <time>2025-09-13T17:24:44+02:00</time>
      </trkpt>
      <trkpt lat="42.76021" lon="1.36206">
        <ele>1498.5</ele>
        <time>2025-09-13T17:24:48+02:00</time>
      </trkpt>
      <trkpt lat="42.76021" lon="1.36206">
        <ele>1498.5</ele>
        <time>2025-09-13T17:24:49+02:00</time>
      </trkpt>
      <trkpt lat="42.76021" lon="1.36206">
        <ele>1498.5</ele>
        <time>2025-09-13T17:24:53+02:00</time>
      </trkpt>
      <trkpt lat="42.76021" lon="1.36206">
        <ele>1498.5</ele>
        <time>2025-09-13T17:24:54+02:00</time>
      </trkpt>
      <trkpt lat="42.76021" lon="1.36206">
        <ele>1498.5</ele>
        <time>2025-09-13T17:24:58+02:00</time>
      </trkpt>
      <trkpt lat="42.76021" lon="1.36206">
        <ele>1498.5</ele>
        <time>2025-09-13T17:24:59+02:00</time>
      </trkpt>
      <trkpt lat="42.7602" lon="1.36203">
        <ele>1498.7002</ele>
        <time>2025-09-13T17:25:04+02:00</time>
      </trkpt>
      <trkpt lat="42.7602" lon="1.36201">
        <ele>1498.7002</ele>
        <time>2025-09-13T17:25:05+02:00</time>
      </trkpt>
      <trkpt lat="42.76019" lon="1.36198">
        <ele>1498.7002</ele>
        <time>2025-09-13T17:25:09+02:00</time>
      </trkpt>
      <trkpt lat="42.76019" lon="1.36197">
        <ele>1498.7002</ele>
        <time>2025-09-13T17:25:10+02:00</time>
      </trkpt>
      <trkpt lat="42.7602" lon="1.36193">
        <ele>1499.1006</ele>
        <time>2025-09-13T17:25:14+02:00</time>
      </trkpt>
      <trkpt lat="42.7602" lon="1.36192">
        <ele>1499.1006</ele>
        <time>2025-09-13T17:25:15+02:00</time>
      </trkpt>
      <trkpt lat="42.76023" lon="1.36189">
        <ele>1499.1006</ele>
        <time>2025-09-13T17:25:19+02:00</time>
      </trkpt>
      <trkpt lat="42.76023" lon="1.36188">
        <ele>1499.1006</ele>
        <time>2025-09-13T17:25:20+02:00</time>
      </trkpt>
      <trkpt lat="42.76027" lon="1.36189">
        <ele>1498.9004</ele>
        <time>2025-09-13T17:25:24+02:00</time>
      </trkpt>
      <trkpt lat="42.76028" lon="1.36189">
        <ele>1498.9004</ele>
        <time>2025-09-13T17:25:25+02:00</time>
      </trkpt>
      <trkpt lat="42.76031" lon="1.36189">
        <ele>1498.7002</ele>
        <time>2025-09-13T17:25:29+02:00</time>
      </trkpt>
      <trkpt lat="42.76032" lon="1.36189">
        <ele>1498.7002</ele>
        <time>2025-09-13T17:25:30+02:00</time>
      </trkpt>
      <trkpt lat="42.76035" lon="1.36189">
        <ele>1498.7002</ele>
        <time>2025-09-13T17:25:34+02:00</time>
      </trkpt>
      <trkpt lat="42.76036" lon="1.36189">
        <ele>1498.7002</ele>
        <time>2025-09-13T17:25:35+02:00</time>
      </trkpt>
      <trkpt lat="42.76039" lon="1.36188">
        <ele>1498.6006</ele>
        <time>2025-09-13T17:25:39+02:00</time>
      </trkpt>
      <trkpt lat="42.76039" lon="1.36188">
        <ele>1498.6006</ele>
        <time>2025-09-13T17:25:40+02:00</time>
      </trkpt>
      <trkpt lat="42.76042" lon="1.36188">
        <ele>1498.6006</ele>
        <time>2025-09-13T17:25:44+02:00</time>
      </trkpt>
      <trkpt lat="42.76042" lon="1.36188">
        <ele>1498.6006</ele>
        <time>2025-09-13T17:25:45+02:00</time>
      </trkpt>
      <trkpt lat="42.76045" lon="1.36187">
        <ele>1499.2002</ele>
        <time>2025-09-13T17:25:49+02:00</time>
      </trkpt>
      <trkpt lat="42.76045" lon="1.36187">
        <ele>1499.2002</ele>
        <time>2025-09-13T17:25:50+02:00</time>
      </trkpt>
      <trkpt lat="42.76044" lon="1.36187">
        <ele>1499.2002</ele>
        <time>2025-09-13T17:25:54+02:00</time>
      </trkpt>
      <trkpt lat="42.76044" lon="1.36187">
        <ele>1499.2002</ele>
        <time>2025-09-13T17:25:55+02:00</time>
      </trkpt>
      <trkpt lat="42.76045" lon="1.36187">
        <ele>1499.2002</ele>
        <time>2025-09-13T17:25:59+02:00</time>
      </trkpt>
      <trkpt lat="42.76045" lon="1.36187">
        <ele>1499.2002</ele>
        <time>2025-09-13T17:26:00+02:00</time>
      </trkpt>
      <trkpt lat="42.76047" lon="1.36186">
        <ele>1499.2002</ele>
        <time>2025-09-13T17:26:04+02:00</time>
      </trkpt>
      <trkpt lat="42.76047" lon="1.36185">
        <ele>1499.2002</ele>
        <time>2025-09-13T17:26:05+02:00</time>
      </trkpt>
      <trkpt lat="42.76048" lon="1.36184">
        <ele>1499.2002</ele>
        <time>2025-09-13T17:26:09+02:00</time>
      </trkpt>
      <trkpt lat="42.76048" lon="1.36183">
        <ele>1499.2002</ele>
        <time>2025-09-13T17:26:10+02:00</time>
      </trkpt>
      <trkpt lat="42.7605" lon="1.36184">
        <ele>1499.2002</ele>
        <time>2025-09-13T17:26:14+02:00</time>
      </trkpt>
      <trkpt lat="42.76051" lon="1.36184">
        <ele>1499.1006</ele>
        <time>2025-09-13T17:26:15+02:00</time>
      </trkpt>
      <trkpt lat="42.76052" lon="1.36184">
        <ele>1499.1006</ele>
        <time>2025-09-13T17:26:19+02:00</time>
      </trkpt>
      <trkpt lat="42.76053" lon="1.36184">
        <ele>1499.1006</ele>
        <time>2025-09-13T17:26:21+02:00</time>
      </trkpt>
      <trkpt lat="42.76054" lon="1.36185">
        <ele>1499.1006</ele>
        <time>2025-09-13T17:26:25+02:00</time>
      </trkpt>
      <trkpt lat="42.76054" lon="1.36186">
        <ele>1499.1006</ele>
        <time>2025-09-13T17:26:26+02:00</time>
      </trkpt>
      <trkpt lat="42.76055" lon="1.36187">
        <ele>1499.1006</ele>
        <time>2025-09-13T17:26:29+02:00</time>
      </trkpt>
      <trkpt lat="42.76056" lon="1.36188">
        <ele>1498.5</ele>
        <time>2025-09-13T17:26:31+02:00</time>
      </trkpt>
      <trkpt lat="42.76057" lon="1.36189">
        <ele>1498.4004</ele>
        <time>2025-09-13T17:26:35+02:00</time>
      </trkpt>
      <trkpt lat="42.76058" lon="1.36189">
        <ele>1498.4004</ele>
        <time>2025-09-13T17:26:36+02:00</time>
      </trkpt>
      <trkpt lat="42.76059" lon="1.3619">
        <ele>1498.4004</ele>
        <time>2025-09-13T17:26:40+02:00</time>
      </trkpt>
      <trkpt lat="42.7606" lon="1.3619">
        <ele>1498.4004</ele>
        <time>2025-09-13T17:26:41+02:00</time>
      </trkpt>
      <trkpt lat="42.76061" lon="1.36191">
        <ele>1498.4004</ele>
        <time>2025-09-13T17:26:45+02:00</time>
      </trkpt>
      <trkpt lat="42.76062" lon="1.36191">
        <ele>1498.4004</ele>
        <time>2025-09-13T17:26:46+02:00</time>
      </trkpt>
      <trkpt lat="42.76065" lon="1.36189">
        <ele>1498.1006</ele>
        <time>2025-09-13T17:26:50+02:00</time>
      </trkpt>
      <trkpt lat="42.76065" lon="1.36189">
        <ele>1498.1006</ele>
        <time>2025-09-13T17:26:51+02:00</time>
      </trkpt>
      <trkpt lat="42.76067" lon="1.36187">
        <ele>1498.6006</ele>
        <time>2025-09-13T17:26:55+02:00</time>
      </trkpt>
      <trkpt lat="42.76067" lon="1.36186">
        <ele>1498.6006</ele>
        <time>2025-09-13T17:26:56+02:00</time>
      </trkpt>
      <trkpt lat="42.76067" lon="1.36185">
        <ele>1498.6006</ele>
        <time>2025-09-13T17:27:00+02:00</time>
      </trkpt>
      <trkpt lat="42.76067" lon="1.36185">
        <ele>1498.6006</ele>
        <time>2025-09-13T17:27:01+02:00</time>
      </trkpt>
      <trkpt lat="42.76068" lon="1.36185">
        <ele>1498.6006</ele>
        <time>2025-09-13T17:27:05+02:00</time>
      </trkpt>
      <trkpt lat="42.76068" lon="1.36185">
        <ele>1498.6006</ele>
        <time>2025-09-13T17:27:06+02:00</time>
      </trkpt>
      <trkpt lat="42.76068" lon="1.36185">
        <ele>1498.6006</ele>
        <time>2025-09-13T17:27:10+02:00</time>
      </trkpt>
      <trkpt lat="42.76068" lon="1.36185">
        <ele>1498.6006</ele>
        <time>2025-09-13T17:27:11+02:00</time>
      </trkpt>
      <trkpt lat="42.76068" lon="1.36184">
        <ele>1498.6006</ele>
        <time>2025-09-13T17:27:15+02:00</time>
      </trkpt>
      <trkpt lat="42.76068" lon="1.36184">
        <ele>1498.6006</ele>
        <time>2025-09-13T17:27:16+02:00</time>
      </trkpt>
      <trkpt lat="42.76068" lon="1.36184">
        <ele>1498.6006</ele>
        <time>2025-09-13T17:27:20+02:00</time>
      </trkpt>
      <trkpt lat="42.76068" lon="1.36184">
        <ele>1498.6006</ele>
        <time>2025-09-13T17:27:21+02:00</time>
      </trkpt>
      <trkpt lat="42.76068" lon="1.36185">
        <ele>1498.6006</ele>
        <time>2025-09-13T17:27:25+02:00</time>
      </trkpt>
      <trkpt lat="42.76068" lon="1.36185">
        <ele>1498.6006</ele>
        <time>2025-09-13T17:27:26+02:00</time>
      </trkpt>
      <trkpt lat="42.76068" lon="1.36185">
        <ele>1498.6006</ele>
        <time>2025-09-13T17:27:30+02:00</time>
      </trkpt>
      <trkpt lat="42.76068" lon="1.36185">
        <ele>1498.6006</ele>
        <time>2025-09-13T17:27:31+02:00</time>
      </trkpt>
      <trkpt lat="42.76068" lon="1.36184">
        <ele>1498.6006</ele>
        <time>2025-09-13T17:27:35+02:00</time>
      </trkpt>
      <trkpt lat="42.76068" lon="1.36184">
        <ele>1498.6006</ele>
        <time>2025-09-13T17:27:36+02:00</time>
      </trkpt>
      <trkpt lat="42.7607" lon="1.36184">
        <ele>1498</ele>
        <time>2025-09-13T17:27:40+02:00</time>
      </trkpt>
      <trkpt lat="42.7607" lon="1.36184">
        <ele>1498</ele>
        <time>2025-09-13T17:27:41+02:00</time>
      </trkpt>
      <trkpt lat="42.7607" lon="1.36182">
        <ele>1498</ele>
        <time>2025-09-13T17:27:45+02:00</time>
      </trkpt>
      <trkpt lat="42.7607" lon="1.36182">
        <ele>1498</ele>
        <time>2025-09-13T17:27:46+02:00</time>
      </trkpt>
      <trkpt lat="42.76072" lon="1.36179">
        <ele>1498.6006</ele>
        <time>2025-09-13T17:27:50+02:00</time>
      </trkpt>
      <trkpt lat="42.76072" lon="1.36178">
        <ele>1498.6006</ele>
        <time>2025-09-13T17:27:51+02:00</time>
      </trkpt>
      <trkpt lat="42.76072" lon="1.3618">
        <ele>1498</ele>
        <time>2025-09-13T17:27:55+02:00</time>
      </trkpt>
      <trkpt lat="42.76072" lon="1.36181">
        <ele>1498</ele>
        <time>2025-09-13T17:27:56+02:00</time>
      </trkpt>
      <trkpt lat="42.76073" lon="1.36181">
        <ele>1498</ele>
        <time>2025-09-13T17:27:59+02:00</time>
      </trkpt>
      <trkpt lat="42.76074" lon="1.3618">
        <ele>1498</ele>
        <time>2025-09-13T17:28:01+02:00</time>
      </trkpt>
      <trkpt lat="42.76078" lon="1.36174">
        <ele>1497.6006</ele>
        <time>2025-09-13T17:28:05+02:00</time>
      </trkpt>
      <trkpt lat="42.76079" lon="1.36173">
        <ele>1497.6006</ele>
        <time>2025-09-13T17:28:06+02:00</time>
      </trkpt>
      <trkpt lat="42.76083" lon="1.3617">
        <ele>1496.9004</ele>
        <time>2025-09-13T17:28:10+02:00</time>
      </trkpt>
      <trkpt lat="42.76083" lon="1.3617">
        <ele>1496.2002</ele>
        <time>2025-09-13T17:28:11+02:00</time>
      </trkpt>
      <trkpt lat="42.76082" lon="1.36172">
        <ele>1496.2002</ele>
        <time>2025-09-13T17:28:15+02:00</time>
      </trkpt>
      <trkpt lat="42.76082" lon="1.36172">
        <ele>1496.2002</ele>
        <time>2025-09-13T17:28:16+02:00</time>
      </trkpt>
      <trkpt lat="42.76082" lon="1.36172">
        <ele>1496.2002</ele>
        <time>2025-09-13T17:28:20+02:00</time>
      </trkpt>
      <trkpt lat="42.76082" lon="1.36171">
        <ele>1496.2002</ele>
        <time>2025-09-13T17:28:21+02:00</time>
      </trkpt>
      <trkpt lat="42.76081" lon="1.3617">
        <ele>1497.6006</ele>
        <time>2025-09-13T17:28:25+02:00</time>
      </trkpt>
      <trkpt lat="42.76081" lon="1.3617">
        <ele>1498.2998</ele>
        <time>2025-09-13T17:28:26+02:00</time>
      </trkpt>
      <trkpt lat="42.76081" lon="1.36171">
        <ele>1497.6006</ele>
        <time>2025-09-13T17:28:30+02:00</time>
      </trkpt>
      <trkpt lat="42.76081" lon="1.36171">
        <ele>1497.6006</ele>
        <time>2025-09-13T17:28:31+02:00</time>
      </trkpt>
      <trkpt lat="42.76082" lon="1.36169">
        <ele>1496.9004</ele>
        <time>2025-09-13T17:28:35+02:00</time>
      </trkpt>
      <trkpt lat="42.76082" lon="1.36169">
        <ele>1496.9004</ele>
        <time>2025-09-13T17:28:36+02:00</time>
      </trkpt>
      <trkpt lat="42.76085" lon="1.36168">
        <ele>1496.9004</ele>
        <time>2025-09-13T17:28:40+02:00</time>
      </trkpt>
      <trkpt lat="42.76087" lon="1.36168">
        <ele>1496.9004</ele>
        <time>2025-09-13T17:28:45+02:00</time>
      </trkpt>
      <trkpt lat="42.76087" lon="1.36168">
        <ele>1496.9004</ele>
        <time>2025-09-13T17:28:46+02:00</time>
      </trkpt>
      <trkpt lat="42.76088" lon="1.36168">
        <ele>1495.2002</ele>
        <time>2025-09-13T17:28:50+02:00</time>
      </trkpt>
      <trkpt lat="42.76088" lon="1.36168">
        <ele>1495.2002</ele>
        <time>2025-09-13T17:28:51+02:00</time>
      </trkpt>
      <trkpt lat="42.76089" lon="1.36168">
        <ele>1495.2002</ele>
        <time>2025-09-13T17:28:55+02:00</time>
      </trkpt>
      <trkpt lat="42.76089" lon="1.36168">
        <ele>1495.2002</ele>
        <time>2025-09-13T17:28:56+02:00</time>
      </trkpt>
      <trkpt lat="42.7609" lon="1.36168">
        <ele>1495.2002</ele>
        <time>2025-09-13T17:29:00+02:00</time>
      </trkpt>
      <trkpt lat="42.7609" lon="1.36168">
        <ele>1495.2002</ele>
        <time>2025-09-13T17:29:01+02:00</time>
      </trkpt>
      <trkpt lat="42.76091" lon="1.36168">
        <ele>1495.2002</ele>
        <time>2025-09-13T17:29:05+02:00</time>
      </trkpt>
      <trkpt lat="42.76091" lon="1.36167">
        <ele>1495.2002</ele>
        <time>2025-09-13T17:29:06+02:00</time>
      </trkpt>
      <trkpt lat="42.76093" lon="1.36165">
        <ele>1495.2002</ele>
        <time>2025-09-13T17:29:10+02:00</time>
      </trkpt>
      <trkpt lat="42.76094" lon="1.36162">
        <ele>1495.2002</ele>
        <time>2025-09-13T17:29:15+02:00</time>
      </trkpt>
      <trkpt lat="42.76094" lon="1.36162">
        <ele>1495.2002</ele>
        <time>2025-09-13T17:29:16+02:00</time>
      </trkpt>
      <trkpt lat="42.76094" lon="1.36159">
        <ele>1496</ele>
        <time>2025-09-13T17:29:21+02:00</time>
      </trkpt>
      <trkpt lat="42.76094" lon="1.36158">
        <ele>1494</ele>
        <time>2025-09-13T17:29:22+02:00</time>
      </trkpt>
      <trkpt lat="42.76097" lon="1.36156">
        <ele>1494</ele>
        <time>2025-09-13T17:29:26+02:00</time>
      </trkpt>
      <trkpt lat="42.76098" lon="1.36155">
        <ele>1494</ele>
        <time>2025-09-13T17:29:27+02:00</time>
      </trkpt>
      <trkpt lat="42.76102" lon="1.36152">
        <ele>1492.4004</ele>
        <time>2025-09-13T17:29:31+02:00</time>
      </trkpt>
      <trkpt lat="42.76103" lon="1.36152">
        <ele>1492.4004</ele>
        <time>2025-09-13T17:29:32+02:00</time>
      </trkpt>
      <trkpt lat="42.76107" lon="1.3615">
        <ele>1489.9004</ele>
        <time>2025-09-13T17:29:36+02:00</time>
      </trkpt>
      <trkpt lat="42.76108" lon="1.36151">
        <ele>1489.9004</ele>
        <time>2025-09-13T17:29:37+02:00</time>
      </trkpt>
      <trkpt lat="42.76111" lon="1.36151">
        <ele>1489.9004</ele>
        <time>2025-09-13T17:29:41+02:00</time>
      </trkpt>
      <trkpt lat="42.76111" lon="1.3615">
        <ele>1489.9004</ele>
        <time>2025-09-13T17:29:42+02:00</time>
      </trkpt>
      <trkpt lat="42.76113" lon="1.36149">
        <ele>1487.2002</ele>
        <time>2025-09-13T17:29:46+02:00</time>
      </trkpt>
      <trkpt lat="42.76114" lon="1.36149">
        <ele>1487.2002</ele>
        <time>2025-09-13T17:29:47+02:00</time>
      </trkpt>
      <trkpt lat="42.76117" lon="1.36148">
        <ele>1487.2002</ele>
        <time>2025-09-13T17:29:51+02:00</time>
      </trkpt>
      <trkpt lat="42.76117" lon="1.36148">
        <ele>1487.2002</ele>
        <time>2025-09-13T17:29:52+02:00</time>
      </trkpt>
      <trkpt lat="42.7612" lon="1.36147">
        <ele>1484.2998</ele>
        <time>2025-09-13T17:29:56+02:00</time>
      </trkpt>
      <trkpt lat="42.7612" lon="1.36148">
        <ele>1484.2998</ele>
        <time>2025-09-13T17:29:57+02:00</time>
      </trkpt>
      <trkpt lat="42.76124" lon="1.36148">
        <ele>1484.2998</ele>
        <time>2025-09-13T17:30:01+02:00</time>
      </trkpt>
      <trkpt lat="42.76124" lon="1.36147">
        <ele>1484.2998</ele>
        <time>2025-09-13T17:30:02+02:00</time>
      </trkpt>
      <trkpt lat="42.76128" lon="1.36145">
        <ele>1481.2002</ele>
        <time>2025-09-13T17:30:06+02:00</time>
      </trkpt>
      <trkpt lat="42.76128" lon="1.36144">
        <ele>1481.7998</ele>
        <time>2025-09-13T17:30:07+02:00</time>
      </trkpt>
      <trkpt lat="42.76129" lon="1.36144">
        <ele>1481.7998</ele>
        <time>2025-09-13T17:30:11+02:00</time>
      </trkpt>
      <trkpt lat="42.76129" lon="1.36143">
        <ele>1481.7998</ele>
        <time>2025-09-13T17:30:12+02:00</time>
      </trkpt>
      <trkpt lat="42.76128" lon="1.36142">
        <ele>1481.7998</ele>
        <time>2025-09-13T17:30:16+02:00</time>
      </trkpt>
      <trkpt lat="42.76128" lon="1.36141">
        <ele>1481.7998</ele>
        <time>2025-09-13T17:30:17+02:00</time>
      </trkpt>
      <trkpt lat="42.76128" lon="1.36141">
        <ele>1481.7998</ele>
        <time>2025-09-13T17:30:21+02:00</time>
      </trkpt>
      <trkpt lat="42.76128" lon="1.36141">
        <ele>1481.7998</ele>
        <time>2025-09-13T17:30:22+02:00</time>
      </trkpt>
      <trkpt lat="42.76128" lon="1.36141">
        <ele>1481.7998</ele>
        <time>2025-09-13T17:30:26+02:00</time>
      </trkpt>
      <trkpt lat="42.76128" lon="1.3614">
        <ele>1481.7998</ele>
        <time>2025-09-13T17:30:27+02:00</time>
      </trkpt>
      <trkpt lat="42.7613" lon="1.36139">
        <ele>1481.7998</ele>
        <time>2025-09-13T17:30:31+02:00</time>
      </trkpt>
      <trkpt lat="42.7613" lon="1.36139">
        <ele>1481.7998</ele>
        <time>2025-09-13T17:30:32+02:00</time>
      </trkpt>
      <trkpt lat="42.76132" lon="1.36137">
        <ele>1478.5</ele>
        <time>2025-09-13T17:30:36+02:00</time>
      </trkpt>
      <trkpt lat="42.76133" lon="1.36137">
        <ele>1478.5</ele>
        <time>2025-09-13T17:30:37+02:00</time>
      </trkpt>
      <trkpt lat="42.76134" lon="1.36135">
        <ele>1479</ele>
        <time>2025-09-13T17:30:41+02:00</time>
      </trkpt>
      <trkpt lat="42.76134" lon="1.36134">
        <ele>1479</ele>
        <time>2025-09-13T17:30:42+02:00</time>
      </trkpt>
      <trkpt lat="42.76136" lon="1.36133">
        <ele>1479</ele>
        <time>2025-09-13T17:30:46+02:00</time>
      </trkpt>
      <trkpt lat="42.76136" lon="1.36132">
        <ele>1479</ele>
        <time>2025-09-13T17:30:47+02:00</time>
      </trkpt>
      <trkpt lat="42.76137" lon="1.36132">
        <ele>1479</ele>
        <time>2025-09-13T17:30:51+02:00</time>
      </trkpt>
      <trkpt lat="42.76137" lon="1.36132">
        <ele>1479</ele>
        <time>2025-09-13T17:30:52+02:00</time>
      </trkpt>
      <trkpt lat="42.76138" lon="1.36129">
        <ele>1475.5</ele>
        <time>2025-09-13T17:30:56+02:00</time>
      </trkpt>
      <trkpt lat="42.76139" lon="1.36128">
        <ele>1475.5</ele>
        <time>2025-09-13T17:30:57+02:00</time>
      </trkpt>
      <trkpt lat="42.7614" lon="1.36126">
        <ele>1475.9004</ele>
        <time>2025-09-13T17:31:01+02:00</time>
      </trkpt>
      <trkpt lat="42.7614" lon="1.36125">
        <ele>1475.9004</ele>
        <time>2025-09-13T17:31:02+02:00</time>
      </trkpt>
      <trkpt lat="42.76141" lon="1.36123">
        <ele>1475.9004</ele>
        <time>2025-09-13T17:31:06+02:00</time>
      </trkpt>
      <trkpt lat="42.76141" lon="1.36122">
        <ele>1475.9004</ele>
        <time>2025-09-13T17:31:07+02:00</time>
      </trkpt>
      <trkpt lat="42.76143" lon="1.36115">
        <ele>1476.5</ele>
        <time>2025-09-13T17:31:11+02:00</time>
      </trkpt>
      <trkpt lat="42.76143" lon="1.36114">
        <ele>1476.5</ele>
        <time>2025-09-13T17:31:12+02:00</time>
      </trkpt>
      <trkpt lat="42.76143" lon="1.3611">
        <ele>1477.2002</ele>
        <time>2025-09-13T17:31:16+02:00</time>
      </trkpt>
      <trkpt lat="42.76143" lon="1.36109">
        <ele>1477.2002</ele>
        <time>2025-09-13T17:31:17+02:00</time>
      </trkpt>
      <trkpt lat="42.76144" lon="1.36105">
        <ele>1477.2002</ele>
        <time>2025-09-13T17:31:21+02:00</time>
      </trkpt>
      <trkpt lat="42.76144" lon="1.36105">
        <ele>1477.2002</ele>
        <time>2025-09-13T17:31:22+02:00</time>
      </trkpt>
      <trkpt lat="42.76143" lon="1.36106">
        <ele>1477.2002</ele>
        <time>2025-09-13T17:31:26+02:00</time>
      </trkpt>
      <trkpt lat="42.76143" lon="1.36106">
        <ele>1477.2002</ele>
        <time>2025-09-13T17:31:27+02:00</time>
      </trkpt>
      <trkpt lat="42.76143" lon="1.36106">
        <ele>1477.2002</ele>
        <time>2025-09-13T17:31:31+02:00</time>
      </trkpt>
      <trkpt lat="42.76143" lon="1.36105">
        <ele>1477.2002</ele>
        <time>2025-09-13T17:31:32+02:00</time>
      </trkpt>
      <trkpt lat="42.76143" lon="1.36104">
        <ele>1477.2002</ele>
        <time>2025-09-13T17:31:36+02:00</time>
      </trkpt>
      <trkpt lat="42.76143" lon="1.36104">
        <ele>1477.2002</ele>
        <time>2025-09-13T17:31:38+02:00</time>
      </trkpt>
      <trkpt lat="42.76143" lon="1.36104">
        <ele>1477.2002</ele>
        <time>2025-09-13T17:31:42+02:00</time>
      </trkpt>
      <trkpt lat="42.76143" lon="1.36104">
        <ele>1477.2002</ele>
        <time>2025-09-13T17:31:43+02:00</time>
      </trkpt>
      <trkpt lat="42.76143" lon="1.36104">
        <ele>1477.2002</ele>
        <time>2025-09-13T17:31:47+02:00</time>
      </trkpt>
      <trkpt lat="42.76143" lon="1.36104">
        <ele>1477.2002</ele>
        <time>2025-09-13T17:31:48+02:00</time>
      </trkpt>
      <trkpt lat="42.76142" lon="1.36102">
        <ele>1477.2002</ele>
        <time>2025-09-13T17:31:52+02:00</time>
      </trkpt>
      <trkpt lat="42.76141" lon="1.36101">
        <ele>1478</ele>
        <time>2025-09-13T17:31:53+02:00</time>
      </trkpt>
      <trkpt lat="42.7614" lon="1.36097">
        <ele>1478</ele>
        <time>2025-09-13T17:31:57+02:00</time>
      </trkpt>
      <trkpt lat="42.7614" lon="1.36096">
        <ele>1478</ele>
        <time>2025-09-13T17:31:58+02:00</time>
      </trkpt>
      <trkpt lat="42.76138" lon="1.3609">
        <ele>1482.7998</ele>
        <time>2025-09-13T17:32:02+02:00</time>
      </trkpt>
      <trkpt lat="42.76138" lon="1.36089">
        <ele>1478.9004</ele>
        <time>2025-09-13T17:32:03+02:00</time>
      </trkpt>
      <trkpt lat="42.76139" lon="1.36086">
        <ele>1478.9004</ele>
        <time>2025-09-13T17:32:07+02:00</time>
      </trkpt>
      <trkpt lat="42.76139" lon="1.36086">
        <ele>1478.9004</ele>
        <time>2025-09-13T17:32:08+02:00</time>
      </trkpt>
      <trkpt lat="42.76138" lon="1.36082">
        <ele>1480</ele>
        <time>2025-09-13T17:32:12+02:00</time>
      </trkpt>
      <trkpt lat="42.76138" lon="1.36081">
        <ele>1483.9004</ele>
        <time>2025-09-13T17:32:13+02:00</time>
      </trkpt>
      <trkpt lat="42.76137" lon="1.36077">
        <ele>1483.9004</ele>
        <time>2025-09-13T17:32:17+02:00</time>
      </trkpt>
      <trkpt lat="42.76137" lon="1.36078">
        <ele>1483.9004</ele>
        <time>2025-09-13T17:32:18+02:00</time>
      </trkpt>
      <trkpt lat="42.76137" lon="1.3608">
        <ele>1483.9004</ele>
        <time>2025-09-13T17:32:22+02:00</time>
      </trkpt>
      <trkpt lat="42.76137" lon="1.3608">
        <ele>1483.9004</ele>
        <time>2025-09-13T17:32:23+02:00</time>
      </trkpt>
      <trkpt lat="42.76137" lon="1.3608">
        <ele>1483.9004</ele>
        <time>2025-09-13T17:32:27+02:00</time>
      </trkpt>
      <trkpt lat="42.76138" lon="1.3608">
        <ele>1483.9004</ele>
        <time>2025-09-13T17:32:28+02:00</time>
      </trkpt>
      <trkpt lat="42.76137" lon="1.36078">
        <ele>1483.9004</ele>
        <time>2025-09-13T17:32:32+02:00</time>
      </trkpt>
      <trkpt lat="42.76137" lon="1.36078">
        <ele>1483.9004</ele>
        <time>2025-09-13T17:32:33+02:00</time>
      </trkpt>
      <trkpt lat="42.76137" lon="1.36077">
        <ele>1483.9004</ele>
        <time>2025-09-13T17:32:37+02:00</time>
      </trkpt>
      <trkpt lat="42.76137" lon="1.36077">
        <ele>1483.9004</ele>
        <time>2025-09-13T17:32:38+02:00</time>
      </trkpt>
      <trkpt lat="42.76135" lon="1.36075">
        <ele>1485.2002</ele>
        <time>2025-09-13T17:32:42+02:00</time>
      </trkpt>
      <trkpt lat="42.76135" lon="1.36074">
        <ele>1485.2002</ele>
        <time>2025-09-13T17:32:43+02:00</time>
      </trkpt>
      <trkpt lat="42.76134" lon="1.36072">
        <ele>1485.2002</ele>
        <time>2025-09-13T17:32:47+02:00</time>
      </trkpt>
      <trkpt lat="42.76133" lon="1.36071">
        <ele>1485.2002</ele>
        <time>2025-09-13T17:32:48+02:00</time>
      </trkpt>
      <trkpt lat="42.76132" lon="1.36064">
        <ele>1490.4004</ele>
        <time>2025-09-13T17:32:52+02:00</time>
      </trkpt>
      <trkpt lat="42.76132" lon="1.36063">
        <ele>1490.4004</ele>
        <time>2025-09-13T17:32:53+02:00</time>
      </trkpt>
      <trkpt lat="42.76133" lon="1.3606">
        <ele>1486.5</ele>
        <time>2025-09-13T17:32:57+02:00</time>
      </trkpt>
      <trkpt lat="42.76133" lon="1.36059">
        <ele>1486.5</ele>
        <time>2025-09-13T17:32:58+02:00</time>
      </trkpt>
      <trkpt lat="42.76133" lon="1.36058">
        <ele>1487.6006</ele>
        <time>2025-09-13T17:33:02+02:00</time>
      </trkpt>
      <trkpt lat="42.76133" lon="1.36059">
        <ele>1487.6006</ele>
        <time>2025-09-13T17:33:03+02:00</time>
      </trkpt>
      <trkpt lat="42.76133" lon="1.36058">
        <ele>1487.6006</ele>
        <time>2025-09-13T17:33:07+02:00</time>
      </trkpt>
      <trkpt lat="42.76133" lon="1.36058">
        <ele>1487.6006</ele>
        <time>2025-09-13T17:33:08+02:00</time>
      </trkpt>
      <trkpt lat="42.76133" lon="1.36058">
        <ele>1487.6006</ele>
        <time>2025-09-13T17:33:12+02:00</time>
      </trkpt>
      <trkpt lat="42.76133" lon="1.36058">
        <ele>1487.6006</ele>
        <time>2025-09-13T17:33:13+02:00</time>
      </trkpt>
      <trkpt lat="42.76134" lon="1.36058">
        <ele>1487.6006</ele>
        <time>2025-09-13T17:33:17+02:00</time>
      </trkpt>
      <trkpt lat="42.76134" lon="1.36058">
        <ele>1487.6006</ele>
        <time>2025-09-13T17:33:18+02:00</time>
      </trkpt>
      <trkpt lat="42.76134" lon="1.36059">
        <ele>1487.6006</ele>
        <time>2025-09-13T17:33:22+02:00</time>
      </trkpt>
      <trkpt lat="42.76134" lon="1.36059">
        <ele>1487.6006</ele>
        <time>2025-09-13T17:33:23+02:00</time>
      </trkpt>
      <trkpt lat="42.76134" lon="1.36059">
        <ele>1487.6006</ele>
        <time>2025-09-13T17:33:27+02:00</time>
      </trkpt>
      <trkpt lat="42.76134" lon="1.36059">
        <ele>1486.5</ele>
        <time>2025-09-13T17:33:28+02:00</time>
      </trkpt>
      <trkpt lat="42.76134" lon="1.3606">
        <ele>1486.5</ele>
        <time>2025-09-13T17:33:32+02:00</time>
      </trkpt>
      <trkpt lat="42.76134" lon="1.3606">
        <ele>1486.5</ele>
        <time>2025-09-13T17:33:33+02:00</time>
      </trkpt>
      <trkpt lat="42.76134" lon="1.3606">
        <ele>1486.5</ele>
        <time>2025-09-13T17:33:37+02:00</time>
      </trkpt>
      <trkpt lat="42.76134" lon="1.3606">
        <ele>1486.5</ele>
        <time>2025-09-13T17:33:38+02:00</time>
      </trkpt>
      <trkpt lat="42.76134" lon="1.3606">
        <ele>1486.5</ele>
        <time>2025-09-13T17:33:42+02:00</time>
      </trkpt>
      <trkpt lat="42.76134" lon="1.3606">
        <ele>1486.5</ele>
        <time>2025-09-13T17:33:43+02:00</time>
      </trkpt>
      <trkpt lat="42.76134" lon="1.36059">
        <ele>1486.5</ele>
        <time>2025-09-13T17:33:47+02:00</time>
      </trkpt>
      <trkpt lat="42.76134" lon="1.36059">
        <ele>1486.5</ele>
        <time>2025-09-13T17:33:48+02:00</time>
      </trkpt>
      <trkpt lat="42.76134" lon="1.36059">
        <ele>1486.5</ele>
        <time>2025-09-13T17:33:52+02:00</time>
      </trkpt>
      <trkpt lat="42.76134" lon="1.36059">
        <ele>1486.5</ele>
        <time>2025-09-13T17:33:53+02:00</time>
      </trkpt>
      <trkpt lat="42.76134" lon="1.36059">
        <ele>1486.5</ele>
        <time>2025-09-13T17:33:57+02:00</time>
      </trkpt>
      <trkpt lat="42.76134" lon="1.36059">
        <ele>1486.5</ele>
        <time>2025-09-13T17:33:58+02:00</time>
      </trkpt>
      <trkpt lat="42.76134" lon="1.36059">
        <ele>1486.5</ele>
        <time>2025-09-13T17:34:02+02:00</time>
      </trkpt>
      <trkpt lat="42.76134" lon="1.36059">
        <ele>1486.5</ele>
        <time>2025-09-13T17:34:03+02:00</time>
      </trkpt>
      <trkpt lat="42.76134" lon="1.36059">
        <ele>1487.6006</ele>
        <time>2025-09-13T17:34:07+02:00</time>
      </trkpt>
      <trkpt lat="42.76134" lon="1.36059">
        <ele>1487.6006</ele>
        <time>2025-09-13T17:34:08+02:00</time>
      </trkpt>
      <trkpt lat="42.76134" lon="1.36059">
        <ele>1487.6006</ele>
        <time>2025-09-13T17:34:12+02:00</time>
      </trkpt>
      <trkpt lat="42.76134" lon="1.36059">
        <ele>1487.6006</ele>
        <time>2025-09-13T17:34:13+02:00</time>
      </trkpt>
      <trkpt lat="42.76134" lon="1.36059">
        <ele>1487.6006</ele>
        <time>2025-09-13T17:34:17+02:00</time>
      </trkpt>
      <trkpt lat="42.76134" lon="1.36059">
        <ele>1487.6006</ele>
        <time>2025-09-13T17:34:18+02:00</time>
      </trkpt>
      <trkpt lat="42.76134" lon="1.36058">
        <ele>1487.6006</ele>
        <time>2025-09-13T17:34:22+02:00</time>
      </trkpt>
      <trkpt lat="42.76134" lon="1.36058">
        <ele>1487.6006</ele>
        <time>2025-09-13T17:34:23+02:00</time>
      </trkpt>
      <trkpt lat="42.76134" lon="1.36057">
        <ele>1487.6006</ele>
        <time>2025-09-13T17:34:27+02:00</time>
      </trkpt>
      <trkpt lat="42.76134" lon="1.36057">
        <ele>1487.6006</ele>
        <time>2025-09-13T17:34:28+02:00</time>
      </trkpt>
      <trkpt lat="42.76134" lon="1.36055">
        <ele>1487.6006</ele>
        <time>2025-09-13T17:34:32+02:00</time>
      </trkpt>
      <trkpt lat="42.76134" lon="1.36055">
        <ele>1487.6006</ele>
        <time>2025-09-13T17:34:33+02:00</time>
      </trkpt>
      <trkpt lat="42.76134" lon="1.36053">
        <ele>1487.6006</ele>
        <time>2025-09-13T17:34:37+02:00</time>
      </trkpt>
      <trkpt lat="42.76134" lon="1.36052">
        <ele>1487.6006</ele>
        <time>2025-09-13T17:34:38+02:00</time>
      </trkpt>
      <trkpt lat="42.76133" lon="1.3605">
        <ele>1488.7002</ele>
        <time>2025-09-13T17:34:42+02:00</time>
      </trkpt>
      <trkpt lat="42.76133" lon="1.3605">
        <ele>1488.7002</ele>
        <time>2025-09-13T17:34:43+02:00</time>
      </trkpt>
      <trkpt lat="42.76132" lon="1.36049">
        <ele>1492.7002</ele>
        <time>2025-09-13T17:34:47+02:00</time>
      </trkpt>
      <trkpt lat="42.76132" lon="1.36048">
        <ele>1492.7002</ele>
        <time>2025-09-13T17:34:48+02:00</time>
      </trkpt>
      <trkpt lat="42.76132" lon="1.36046">
        <ele>1488.7002</ele>
        <time>2025-09-13T17:34:52+02:00</time>
      </trkpt>
      <trkpt lat="42.76132" lon="1.36045">
        <ele>1488.7002</ele>
        <time>2025-09-13T17:34:53+02:00</time>
      </trkpt>
      <trkpt lat="42.76132" lon="1.36043">
        <ele>1488.7002</ele>
        <time>2025-09-13T17:34:57+02:00</time>
      </trkpt>
      <trkpt lat="42.76132" lon="1.36043">
        <ele>1488.7002</ele>
        <time>2025-09-13T17:34:58+02:00</time>
      </trkpt>
      <trkpt lat="42.76132" lon="1.36043">
        <ele>1488.7002</ele>
        <time>2025-09-13T17:35:02+02:00</time>
      </trkpt>
      <trkpt lat="42.76132" lon="1.36043">
        <ele>1488.7002</ele>
        <time>2025-09-13T17:35:03+02:00</time>
      </trkpt>
      <trkpt lat="42.76133" lon="1.36041">
        <ele>1489.7998</ele>
        <time>2025-09-13T17:35:07+02:00</time>
      </trkpt>
      <trkpt lat="42.76133" lon="1.3604">
        <ele>1489.7998</ele>
        <time>2025-09-13T17:35:08+02:00</time>
      </trkpt>
      <trkpt lat="42.76134" lon="1.36037">
        <ele>1489.7998</ele>
        <time>2025-09-13T17:35:12+02:00</time>
      </trkpt>
      <trkpt lat="42.76134" lon="1.36036">
        <ele>1489.7998</ele>
        <time>2025-09-13T17:35:13+02:00</time>
      </trkpt>
      <trkpt lat="42.76135" lon="1.36032">
        <ele>1490.9004</ele>
        <time>2025-09-13T17:35:17+02:00</time>
      </trkpt>
      <trkpt lat="42.76136" lon="1.36031">
        <ele>1490.9004</ele>
        <time>2025-09-13T17:35:18+02:00</time>
      </trkpt>
      <trkpt lat="42.76137" lon="1.36026">
        <ele>1490.9004</ele>
        <time>2025-09-13T17:35:22+02:00</time>
      </trkpt>
      <trkpt lat="42.76136" lon="1.36024">
        <ele>1491.9004</ele>
        <time>2025-09-13T17:35:23+02:00</time>
      </trkpt>
      <trkpt lat="42.76137" lon="1.36022">
        <ele>1491.9004</ele>
        <time>2025-09-13T17:35:27+02:00</time>
      </trkpt>
      <trkpt lat="42.76137" lon="1.36021">
        <ele>1491.9004</ele>
        <time>2025-09-13T17:35:28+02:00</time>
      </trkpt>
      <trkpt lat="42.76137" lon="1.36017">
        <ele>1491.9004</ele>
        <time>2025-09-13T17:35:32+02:00</time>
      </trkpt>
      <trkpt lat="42.76137" lon="1.36016">
        <ele>1491.9004</ele>
        <time>2025-09-13T17:35:33+02:00</time>
      </trkpt>
      <trkpt lat="42.76138" lon="1.36016">
        <ele>1493</ele>
        <time>2025-09-13T17:35:37+02:00</time>
      </trkpt>
      <trkpt lat="42.76138" lon="1.36016">
        <ele>1493</ele>
        <time>2025-09-13T17:35:38+02:00</time>
      </trkpt>
      <trkpt lat="42.76136" lon="1.36013">
        <ele>1493</ele>
        <time>2025-09-13T17:35:42+02:00</time>
      </trkpt>
      <trkpt lat="42.76136" lon="1.36012">
        <ele>1493</ele>
        <time>2025-09-13T17:35:43+02:00</time>
      </trkpt>
      <trkpt lat="42.76135" lon="1.36009">
        <ele>1493</ele>
        <time>2025-09-13T17:35:47+02:00</time>
      </trkpt>
      <trkpt lat="42.76134" lon="1.36009">
        <ele>1493</ele>
        <time>2025-09-13T17:35:48+02:00</time>
      </trkpt>
      <trkpt lat="42.76133" lon="1.36009">
        <ele>1493</ele>
        <time>2025-09-13T17:35:52+02:00</time>
      </trkpt>
      <trkpt lat="42.76133" lon="1.36009">
        <ele>1493</ele>
        <time>2025-09-13T17:35:53+02:00</time>
      </trkpt>
      <trkpt lat="42.76134" lon="1.36009">
        <ele>1493</ele>
        <time>2025-09-13T17:35:57+02:00</time>
      </trkpt>
      <trkpt lat="42.76133" lon="1.36007">
        <ele>1493.9004</ele>
        <time>2025-09-13T17:35:58+02:00</time>
      </trkpt>
      <trkpt lat="42.76131" lon="1.36003">
        <ele>1498.2002</ele>
        <time>2025-09-13T17:36:02+02:00</time>
      </trkpt>
      <trkpt lat="42.76131" lon="1.36003">
        <ele>1498.2002</ele>
        <time>2025-09-13T17:36:03+02:00</time>
      </trkpt>
      <trkpt lat="42.76132" lon="1.36001">
        <ele>1493.9004</ele>
        <time>2025-09-13T17:36:07+02:00</time>
      </trkpt>
      <trkpt lat="42.76132" lon="1.36001">
        <ele>1498.2002</ele>
        <time>2025-09-13T17:36:08+02:00</time>
      </trkpt>
      <trkpt lat="42.76131" lon="1.35999">
        <ele>1499.1006</ele>
        <time>2025-09-13T17:36:12+02:00</time>
      </trkpt>
      <trkpt lat="42.76131" lon="1.35998">
        <ele>1499.1006</ele>
        <time>2025-09-13T17:36:13+02:00</time>
      </trkpt>
      <trkpt lat="42.76132" lon="1.35995">
        <ele>1494.9004</ele>
        <time>2025-09-13T17:36:17+02:00</time>
      </trkpt>
      <trkpt lat="42.76132" lon="1.35995">
        <ele>1494.9004</ele>
        <time>2025-09-13T17:36:18+02:00</time>
      </trkpt>
      <trkpt lat="42.76132" lon="1.35996">
        <ele>1494.9004</ele>
        <time>2025-09-13T17:36:22+02:00</time>
      </trkpt>
      <trkpt lat="42.76132" lon="1.35996">
        <ele>1494.9004</ele>
        <time>2025-09-13T17:36:23+02:00</time>
      </trkpt>
      <trkpt lat="42.76132" lon="1.35996">
        <ele>1494.9004</ele>
        <time>2025-09-13T17:36:27+02:00</time>
      </trkpt>
      <trkpt lat="42.76131" lon="1.35997">
        <ele>1499.1006</ele>
        <time>2025-09-13T17:36:28+02:00</time>
      </trkpt>
      <trkpt lat="42.7613" lon="1.35997">
        <ele>1499.1006</ele>
        <time>2025-09-13T17:36:32+02:00</time>
      </trkpt>
      <trkpt lat="42.7613" lon="1.35997">
        <ele>1499.1006</ele>
        <time>2025-09-13T17:36:33+02:00</time>
      </trkpt>
      <trkpt lat="42.7613" lon="1.35997">
        <ele>1499.1006</ele>
        <time>2025-09-13T17:36:37+02:00</time>
      </trkpt>
      <trkpt lat="42.7613" lon="1.35997">
        <ele>1499.1006</ele>
        <time>2025-09-13T17:36:38+02:00</time>
      </trkpt>
      <trkpt lat="42.76129" lon="1.35997">
        <ele>1499.1006</ele>
        <time>2025-09-13T17:36:42+02:00</time>
      </trkpt>
      <trkpt lat="42.76129" lon="1.35997">
        <ele>1499.1006</ele>
        <time>2025-09-13T17:36:43+02:00</time>
      </trkpt>
      <trkpt lat="42.76129" lon="1.35997">
        <ele>1499.1006</ele>
        <time>2025-09-13T17:36:47+02:00</time>
      </trkpt>
      <trkpt lat="42.76129" lon="1.35997">
        <ele>1499.1006</ele>
        <time>2025-09-13T17:36:48+02:00</time>
      </trkpt>
      <trkpt lat="42.76128" lon="1.35994">
        <ele>1499.1006</ele>
        <time>2025-09-13T17:36:52+02:00</time>
      </trkpt>
      <trkpt lat="42.76129" lon="1.35994">
        <ele>1499.1006</ele>
        <time>2025-09-13T17:36:53+02:00</time>
      </trkpt>
      <trkpt lat="42.76129" lon="1.35991">
        <ele>1499.1006</ele>
        <time>2025-09-13T17:36:57+02:00</time>
      </trkpt>
      <trkpt lat="42.76129" lon="1.3599">
        <ele>1500</ele>
        <time>2025-09-13T17:36:58+02:00</time>
      </trkpt>
      <trkpt lat="42.7613" lon="1.35986">
        <ele>1500</ele>
        <time>2025-09-13T17:37:03+02:00</time>
      </trkpt>
      <trkpt lat="42.76129" lon="1.35985">
        <ele>1500</ele>
        <time>2025-09-13T17:37:04+02:00</time>
      </trkpt>
      <trkpt lat="42.76129" lon="1.35982">
        <ele>1500</ele>
        <time>2025-09-13T17:37:08+02:00</time>
      </trkpt>
      <trkpt lat="42.76129" lon="1.35981">
        <ele>1500.9004</ele>
        <time>2025-09-13T17:37:09+02:00</time>
      </trkpt>
      <trkpt lat="42.76128" lon="1.35978">
        <ele>1500.9004</ele>
        <time>2025-09-13T17:37:13+02:00</time>
      </trkpt>
      <trkpt lat="42.76128" lon="1.35978">
        <ele>1500.9004</ele>
        <time>2025-09-13T17:37:14+02:00</time>
      </trkpt>
      <trkpt lat="42.76127" lon="1.35977">
        <ele>1500.9004</ele>
        <time>2025-09-13T17:37:18+02:00</time>
      </trkpt>
      <trkpt lat="42.76127" lon="1.35978">
        <ele>1500.9004</ele>
        <time>2025-09-13T17:37:19+02:00</time>
      </trkpt>
      <trkpt lat="42.76127" lon="1.3598">
        <ele>1500.9004</ele>
        <time>2025-09-13T17:37:23+02:00</time>
      </trkpt>
      <trkpt lat="42.76127" lon="1.3598">
        <ele>1500.9004</ele>
        <time>2025-09-13T17:37:24+02:00</time>
      </trkpt>
      <trkpt lat="42.76126" lon="1.3598">
        <ele>1500.9004</ele>
        <time>2025-09-13T17:37:28+02:00</time>
      </trkpt>
      <trkpt lat="42.76126" lon="1.35979">
        <ele>1500.9004</ele>
        <time>2025-09-13T17:37:29+02:00</time>
      </trkpt>
      <trkpt lat="42.76124" lon="1.35977">
        <ele>1505.1006</ele>
        <time>2025-09-13T17:37:33+02:00</time>
      </trkpt>
      <trkpt lat="42.76124" lon="1.35977">
        <ele>1505.1006</ele>
        <time>2025-09-13T17:37:34+02:00</time>
      </trkpt>
      <trkpt lat="42.76122" lon="1.35978">
        <ele>1505.1006</ele>
        <time>2025-09-13T17:37:38+02:00</time>
      </trkpt>
      <trkpt lat="42.76122" lon="1.35977">
        <ele>1505.1006</ele>
        <time>2025-09-13T17:37:39+02:00</time>
      </trkpt>
      <trkpt lat="42.76119" lon="1.35976">
        <ele>1505.1006</ele>
        <time>2025-09-13T17:37:43+02:00</time>
      </trkpt>
      <trkpt lat="42.76119" lon="1.35975">
        <ele>1509.2002</ele>
        <time>2025-09-13T17:37:44+02:00</time>
      </trkpt>
      <trkpt lat="42.76117" lon="1.35971">
        <ele>1510.2998</ele>
        <time>2025-09-13T17:37:48+02:00</time>
      </trkpt>
      <trkpt lat="42.76116" lon="1.35969">
        <ele>1510.2998</ele>
        <time>2025-09-13T17:37:49+02:00</time>
      </trkpt>
      <trkpt lat="42.76116" lon="1.35965">
        <ele>1510.2998</ele>
        <time>2025-09-13T17:37:53+02:00</time>
      </trkpt>
      <trkpt lat="42.76116" lon="1.35964">
        <ele>1510.2998</ele>
        <time>2025-09-13T17:37:54+02:00</time>
      </trkpt>
      <trkpt lat="42.76116" lon="1.35961">
        <ele>1511.4004</ele>
        <time>2025-09-13T17:37:58+02:00</time>
      </trkpt>
      <trkpt lat="42.76116" lon="1.3596">
        <ele>1511.4004</ele>
        <time>2025-09-13T17:37:59+02:00</time>
      </trkpt>
      <trkpt lat="42.76115" lon="1.35956">
        <ele>1511.4004</ele>
        <time>2025-09-13T17:38:03+02:00</time>
      </trkpt>
      <trkpt lat="42.76115" lon="1.35956">
        <ele>1512.6006</ele>
        <time>2025-09-13T17:38:04+02:00</time>
      </trkpt>
      <trkpt lat="42.76115" lon="1.35952">
        <ele>1512.6006</ele>
        <time>2025-09-13T17:38:08+02:00</time>
      </trkpt>
      <trkpt lat="42.76115" lon="1.35952">
        <ele>1512.6006</ele>
        <time>2025-09-13T17:38:09+02:00</time>
      </trkpt>
      <trkpt lat="42.76115" lon="1.35949">
        <ele>1512.6006</ele>
        <time>2025-09-13T17:38:13+02:00</time>
      </trkpt>
      <trkpt lat="42.76114" lon="1.35948">
        <ele>1512.6006</ele>
        <time>2025-09-13T17:38:14+02:00</time>
      </trkpt>
      <trkpt lat="42.76114" lon="1.35945">
        <ele>1513.7998</ele>
        <time>2025-09-13T17:38:18+02:00</time>
      </trkpt>
      <trkpt lat="42.76114" lon="1.35944">
        <ele>1513.7998</ele>
        <time>2025-09-13T17:38:19+02:00</time>
      </trkpt>
      <trkpt lat="42.76114" lon="1.35941">
        <ele>1513.7998</ele>
        <time>2025-09-13T17:38:23+02:00</time>
      </trkpt>
      <trkpt lat="42.76114" lon="1.3594">
        <ele>1513.7998</ele>
        <time>2025-09-13T17:38:24+02:00</time>
      </trkpt>
      <trkpt lat="42.76114" lon="1.35937">
        <ele>1515.1006</ele>
        <time>2025-09-13T17:38:28+02:00</time>
      </trkpt>
      <trkpt lat="42.76114" lon="1.35937">
        <ele>1515.1006</ele>
        <time>2025-09-13T17:38:29+02:00</time>
      </trkpt>
      <trkpt lat="42.76113" lon="1.35933">
        <ele>1515.1006</ele>
        <time>2025-09-13T17:38:33+02:00</time>
      </trkpt>
      <trkpt lat="42.76113" lon="1.35932">
        <ele>1515.1006</ele>
        <time>2025-09-13T17:38:34+02:00</time>
      </trkpt>
      <trkpt lat="42.76114" lon="1.35929">
        <ele>1516.4004</ele>
        <time>2025-09-13T17:38:38+02:00</time>
      </trkpt>
      <trkpt lat="42.76114" lon="1.35929">
        <ele>1516.4004</ele>
        <time>2025-09-13T17:38:39+02:00</time>
      </trkpt>
      <trkpt lat="42.76115" lon="1.35927">
        <ele>1516.4004</ele>
        <time>2025-09-13T17:38:43+02:00</time>
      </trkpt>
      <trkpt lat="42.76115" lon="1.35927">
        <ele>1516.4004</ele>
        <time>2025-09-13T17:38:44+02:00</time>
      </trkpt>
      <trkpt lat="42.76115" lon="1.35926">
        <ele>1516.4004</ele>
        <time>2025-09-13T17:38:48+02:00</time>
      </trkpt>
      <trkpt lat="42.76115" lon="1.35925">
        <ele>1516.4004</ele>
        <time>2025-09-13T17:38:49+02:00</time>
      </trkpt>
      <trkpt lat="42.76114" lon="1.35922">
        <ele>1516.4004</ele>
        <time>2025-09-13T17:38:53+02:00</time>
      </trkpt>
      <trkpt lat="42.76114" lon="1.35922">
        <ele>1516.4004</ele>
        <time>2025-09-13T17:38:54+02:00</time>
      </trkpt>
      <trkpt lat="42.76113" lon="1.35919">
        <ele>1517.7002</ele>
        <time>2025-09-13T17:38:58+02:00</time>
      </trkpt>
      <trkpt lat="42.76113" lon="1.35919">
        <ele>1521.9004</ele>
        <time>2025-09-13T17:38:59+02:00</time>
      </trkpt>
      <trkpt lat="42.76112" lon="1.35915">
        <ele>1521.9004</ele>
        <time>2025-09-13T17:39:03+02:00</time>
      </trkpt>
      <trkpt lat="42.76112" lon="1.35914">
        <ele>1521.9004</ele>
        <time>2025-09-13T17:39:04+02:00</time>
      </trkpt>
      <trkpt lat="42.76112" lon="1.35911">
        <ele>1523.2002</ele>
        <time>2025-09-13T17:39:08+02:00</time>
      </trkpt>
      <trkpt lat="42.76112" lon="1.35911">
        <ele>1523.2002</ele>
        <time>2025-09-13T17:39:09+02:00</time>
      </trkpt>
      <trkpt lat="42.76111" lon="1.35907">
        <ele>1523.2002</ele>
        <time>2025-09-13T17:39:13+02:00</time>
      </trkpt>
      <trkpt lat="42.76111" lon="1.35907">
        <ele>1523.2002</ele>
        <time>2025-09-13T17:39:14+02:00</time>
      </trkpt>
      <trkpt lat="42.76111" lon="1.35903">
        <ele>1524.7002</ele>
        <time>2025-09-13T17:39:18+02:00</time>
      </trkpt>
      <trkpt lat="42.76112" lon="1.35902">
        <ele>1524.7002</ele>
        <time>2025-09-13T17:39:19+02:00</time>
      </trkpt>
      <trkpt lat="42.76112" lon="1.35898">
        <ele>1524.7002</ele>
        <time>2025-09-13T17:39:23+02:00</time>
      </trkpt>
      <trkpt lat="42.76112" lon="1.35897">
        <ele>1524.7002</ele>
        <time>2025-09-13T17:39:24+02:00</time>
      </trkpt>
      <trkpt lat="42.76112" lon="1.35893">
        <ele>1526.2998</ele>
        <time>2025-09-13T17:39:28+02:00</time>
      </trkpt>
      <trkpt lat="42.76112" lon="1.35892">
        <ele>1526.2998</ele>
        <time>2025-09-13T17:39:29+02:00</time>
      </trkpt>
      <trkpt lat="42.76112" lon="1.35887">
        <ele>1528</ele>
        <time>2025-09-13T17:39:33+02:00</time>
      </trkpt>
      <trkpt lat="42.76112" lon="1.35886">
        <ele>1528</ele>
        <time>2025-09-13T17:39:34+02:00</time>
      </trkpt>
      <trkpt lat="42.76112" lon="1.35882">
        <ele>1528</ele>
        <time>2025-09-13T17:39:38+02:00</time>
      </trkpt>
      <trkpt lat="42.76112" lon="1.35881">
        <ele>1528</ele>
        <time>2025-09-13T17:39:39+02:00</time>
      </trkpt>
      <trkpt lat="42.76111" lon="1.35877">
        <ele>1529.7998</ele>
        <time>2025-09-13T17:39:43+02:00</time>
      </trkpt>
      <trkpt lat="42.76111" lon="1.35876">
        <ele>1529.7998</ele>
        <time>2025-09-13T17:39:44+02:00</time>
      </trkpt>
      <trkpt lat="42.76111" lon="1.35876">
        <ele>1529.7998</ele>
        <time>2025-09-13T17:39:48+02:00</time>
      </trkpt>
      <trkpt lat="42.76111" lon="1.35876">
        <ele>1529.7998</ele>
        <time>2025-09-13T17:39:49+02:00</time>
      </trkpt>
      <trkpt lat="42.7611" lon="1.35876">
        <ele>1529.7998</ele>
        <time>2025-09-13T17:39:53+02:00</time>
      </trkpt>
      <trkpt lat="42.76111" lon="1.35876">
        <ele>1529.7998</ele>
        <time>2025-09-13T17:39:54+02:00</time>
      </trkpt>
      <trkpt lat="42.76109" lon="1.35874">
        <ele>1529.7998</ele>
        <time>2025-09-13T17:39:58+02:00</time>
      </trkpt>
      <trkpt lat="42.76109" lon="1.35874">
        <ele>1529.7998</ele>
        <time>2025-09-13T17:39:59+02:00</time>
      </trkpt>
      <trkpt lat="42.76109" lon="1.3587">
        <ele>1529.7998</ele>
        <time>2025-09-13T17:40:03+02:00</time>
      </trkpt>
      <trkpt lat="42.76109" lon="1.35869">
        <ele>1531.6006</ele>
        <time>2025-09-13T17:40:04+02:00</time>
      </trkpt>
      <trkpt lat="42.76109" lon="1.35867">
        <ele>1531.6006</ele>
        <time>2025-09-13T17:40:08+02:00</time>
      </trkpt>
      <trkpt lat="42.7611" lon="1.35866">
        <ele>1531.6006</ele>
        <time>2025-09-13T17:40:09+02:00</time>
      </trkpt>
      <trkpt lat="42.76112" lon="1.35865">
        <ele>1531.6006</ele>
        <time>2025-09-13T17:40:13+02:00</time>
      </trkpt>
      <trkpt lat="42.76112" lon="1.35865">
        <ele>1531.6006</ele>
        <time>2025-09-13T17:40:14+02:00</time>
      </trkpt>
      <trkpt lat="42.76113" lon="1.35865">
        <ele>1527.4004</ele>
        <time>2025-09-13T17:40:18+02:00</time>
      </trkpt>
      <trkpt lat="42.76113" lon="1.35865">
        <ele>1527.4004</ele>
        <time>2025-09-13T17:40:19+02:00</time>
      </trkpt>
      <trkpt lat="42.76113" lon="1.35866">
        <ele>1527.4004</ele>
        <time>2025-09-13T17:40:23+02:00</time>
      </trkpt>
      <trkpt lat="42.76113" lon="1.35866">
        <ele>1527.4004</ele>
        <time>2025-09-13T17:40:24+02:00</time>
      </trkpt>
      <trkpt lat="42.76113" lon="1.35866">
        <ele>1527.4004</ele>
        <time>2025-09-13T17:40:28+02:00</time>
      </trkpt>
      <trkpt lat="42.76113" lon="1.35866">
        <ele>1527.4004</ele>
        <time>2025-09-13T17:40:29+02:00</time>
      </trkpt>
      <trkpt lat="42.76114" lon="1.35866">
        <ele>1527.4004</ele>
        <time>2025-09-13T17:40:33+02:00</time>
      </trkpt>
      <trkpt lat="42.76114" lon="1.35866">
        <ele>1527.4004</ele>
        <time>2025-09-13T17:40:34+02:00</time>
      </trkpt>
      <trkpt lat="42.76114" lon="1.35866">
        <ele>1527.4004</ele>
        <time>2025-09-13T17:40:38+02:00</time>
      </trkpt>
      <trkpt lat="42.76114" lon="1.35866">
        <ele>1527.4004</ele>
        <time>2025-09-13T17:40:39+02:00</time>
      </trkpt>
      <trkpt lat="42.76114" lon="1.35866">
        <ele>1527.4004</ele>
        <time>2025-09-13T17:40:43+02:00</time>
      </trkpt>
      <trkpt lat="42.76114" lon="1.35865">
        <ele>1527.4004</ele>
        <time>2025-09-13T17:40:44+02:00</time>
      </trkpt>
      <trkpt lat="42.76116" lon="1.35863">
        <ele>1527.4004</ele>
        <time>2025-09-13T17:40:48+02:00</time>
      </trkpt>
      <trkpt lat="42.76116" lon="1.35862">
        <ele>1527.4004</ele>
        <time>2025-09-13T17:40:49+02:00</time>
      </trkpt>
      <trkpt lat="42.76116" lon="1.3586">
        <ele>1529.2998</ele>
        <time>2025-09-13T17:40:53+02:00</time>
      </trkpt>
      <trkpt lat="42.76117" lon="1.35856">
        <ele>1529.2998</ele>
        <time>2025-09-13T17:40:58+02:00</time>
      </trkpt>
      <trkpt lat="42.76118" lon="1.35856">
        <ele>1529.2998</ele>
        <time>2025-09-13T17:40:59+02:00</time>
      </trkpt>
      <trkpt lat="42.76119" lon="1.35853">
        <ele>1529.2998</ele>
        <time>2025-09-13T17:41:03+02:00</time>
      </trkpt>
      <trkpt lat="42.76119" lon="1.35852">
        <ele>1531.2002</ele>
        <time>2025-09-13T17:41:04+02:00</time>
      </trkpt>
      <trkpt lat="42.76119" lon="1.35849">
        <ele>1526.7998</ele>
        <time>2025-09-13T17:41:08+02:00</time>
      </trkpt>
      <trkpt lat="42.7612" lon="1.35848">
        <ele>1526.7998</ele>
        <time>2025-09-13T17:41:09+02:00</time>
      </trkpt>
      <trkpt lat="42.7612" lon="1.35844">
        <ele>1526.7998</ele>
        <time>2025-09-13T17:41:13+02:00</time>
      </trkpt>
      <trkpt lat="42.76119" lon="1.35843">
        <ele>1528.7002</ele>
        <time>2025-09-13T17:41:14+02:00</time>
      </trkpt>
      <trkpt lat="42.76119" lon="1.35841">
        <ele>1533.2002</ele>
        <time>2025-09-13T17:41:18+02:00</time>
      </trkpt>
      <trkpt lat="42.76119" lon="1.35842">
        <ele>1533.2002</ele>
        <time>2025-09-13T17:41:19+02:00</time>
      </trkpt>
      <trkpt lat="42.76119" lon="1.35843">
        <ele>1533.2002</ele>
        <time>2025-09-13T17:41:24+02:00</time>
      </trkpt>
      <trkpt lat="42.76118" lon="1.35843">
        <ele>1533.2002</ele>
        <time>2025-09-13T17:41:25+02:00</time>
      </trkpt>
      <trkpt lat="42.76118" lon="1.35843">
        <ele>1533.2002</ele>
        <time>2025-09-13T17:41:29+02:00</time>
      </trkpt>
      <trkpt lat="42.76118" lon="1.35844">
        <ele>1533.2002</ele>
        <time>2025-09-13T17:41:30+02:00</time>
      </trkpt>
      <trkpt lat="42.76118" lon="1.35844">
        <ele>1533.2002</ele>
        <time>2025-09-13T17:41:34+02:00</time>
      </trkpt>
      <trkpt lat="42.76118" lon="1.35844">
        <ele>1533.2002</ele>
        <time>2025-09-13T17:41:35+02:00</time>
      </trkpt>
      <trkpt lat="42.76118" lon="1.35844">
        <ele>1533.2002</ele>
        <time>2025-09-13T17:41:39+02:00</time>
      </trkpt>
      <trkpt lat="42.76118" lon="1.35844">
        <ele>1533.2002</ele>
        <time>2025-09-13T17:41:40+02:00</time>
      </trkpt>
      <trkpt lat="42.76118" lon="1.35844">
        <ele>1533.2002</ele>
        <time>2025-09-13T17:41:44+02:00</time>
      </trkpt>
      <trkpt lat="42.76118" lon="1.35844">
        <ele>1533.2002</ele>
        <time>2025-09-13T17:41:45+02:00</time>
      </trkpt>
      <trkpt lat="42.76118" lon="1.35844">
        <ele>1533.2002</ele>
        <time>2025-09-13T17:41:49+02:00</time>
      </trkpt>
      <trkpt lat="42.76118" lon="1.35844">
        <ele>1533.2002</ele>
        <time>2025-09-13T17:41:50+02:00</time>
      </trkpt>
      <trkpt lat="42.76118" lon="1.35844">
        <ele>1533.2002</ele>
        <time>2025-09-13T17:41:54+02:00</time>
      </trkpt>
      <trkpt lat="42.76118" lon="1.35844">
        <ele>1533.2002</ele>
        <time>2025-09-13T17:41:55+02:00</time>
      </trkpt>
      <trkpt lat="42.76118" lon="1.35844">
        <ele>1533.2002</ele>
        <time>2025-09-13T17:41:59+02:00</time>
      </trkpt>
      <trkpt lat="42.76118" lon="1.35844">
        <ele>1533.2002</ele>
        <time>2025-09-13T17:42:00+02:00</time>
      </trkpt>
      <trkpt lat="42.76117" lon="1.35844">
        <ele>1533.2002</ele>
        <time>2025-09-13T17:42:04+02:00</time>
      </trkpt>
      <trkpt lat="42.76117" lon="1.35844">
        <ele>1533.2002</ele>
        <time>2025-09-13T17:42:05+02:00</time>
      </trkpt>
      <trkpt lat="42.76117" lon="1.35845">
        <ele>1531.2002</ele>
        <time>2025-09-13T17:42:09+02:00</time>
      </trkpt>
      <trkpt lat="42.76117" lon="1.35845">
        <ele>1531.2002</ele>
        <time>2025-09-13T17:42:10+02:00</time>
      </trkpt>
      <trkpt lat="42.76117" lon="1.35845">
        <ele>1531.2002</ele>
        <time>2025-09-13T17:42:14+02:00</time>
      </trkpt>
      <trkpt lat="42.76117" lon="1.35844">
        <ele>1531.2002</ele>
        <time>2025-09-13T17:42:15+02:00</time>
      </trkpt>
      <trkpt lat="42.76116" lon="1.35842">
        <ele>1533.2002</ele>
        <time>2025-09-13T17:42:19+02:00</time>
      </trkpt>
      <trkpt lat="42.76116" lon="1.35841">
        <ele>1533.2002</ele>
        <time>2025-09-13T17:42:20+02:00</time>
      </trkpt>
      <trkpt lat="42.76116" lon="1.35839">
        <ele>1533.2002</ele>
        <time>2025-09-13T17:42:24+02:00</time>
      </trkpt>
      <trkpt lat="42.76116" lon="1.35838">
        <ele>1533.2002</ele>
        <time>2025-09-13T17:42:25+02:00</time>
      </trkpt>
      <trkpt lat="42.76117" lon="1.35837">
        <ele>1533.2002</ele>
        <time>2025-09-13T17:42:29+02:00</time>
      </trkpt>
      <trkpt lat="42.76117" lon="1.35837">
        <ele>1533.2002</ele>
        <time>2025-09-13T17:42:30+02:00</time>
      </trkpt>
      <trkpt lat="42.76118" lon="1.35835">
        <ele>1535.1006</ele>
        <time>2025-09-13T17:42:34+02:00</time>
      </trkpt>
      <trkpt lat="42.76119" lon="1.35834">
        <ele>1535.1006</ele>
        <time>2025-09-13T17:42:35+02:00</time>
      </trkpt>
      <trkpt lat="42.7612" lon="1.35832">
        <ele>1530.6006</ele>
        <time>2025-09-13T17:42:39+02:00</time>
      </trkpt>
      <trkpt lat="42.76121" lon="1.35831">
        <ele>1530.6006</ele>
        <time>2025-09-13T17:42:40+02:00</time>
      </trkpt>
      <trkpt lat="42.7612" lon="1.35829">
        <ele>1530.6006</ele>
        <time>2025-09-13T17:42:44+02:00</time>
      </trkpt>
      <trkpt lat="42.76118" lon="1.35826">
        <ele>1537.1006</ele>
        <time>2025-09-13T17:42:45+02:00</time>
      </trkpt>
      <trkpt lat="42.76116" lon="1.35823">
        <ele>1537.1006</ele>
        <time>2025-09-13T17:42:49+02:00</time>
      </trkpt>
      <trkpt lat="42.76116" lon="1.35822">
        <ele>1537.1006</ele>
        <time>2025-09-13T17:42:50+02:00</time>
      </trkpt>
      <trkpt lat="42.76117" lon="1.3582">
        <ele>1537.1006</ele>
        <time>2025-09-13T17:42:54+02:00</time>
      </trkpt>
      <trkpt lat="42.76118" lon="1.3582">
        <ele>1537.1006</ele>
        <time>2025-09-13T17:42:55+02:00</time>
      </trkpt>
      <trkpt lat="42.7612" lon="1.35819">
        <ele>1532.5</ele>
        <time>2025-09-13T17:42:59+02:00</time>
      </trkpt>
      <trkpt lat="42.76121" lon="1.35818">
        <ele>1534.5</ele>
        <time>2025-09-13T17:43:00+02:00</time>
      </trkpt>
      <trkpt lat="42.76122" lon="1.35817">
        <ele>1534.5</ele>
        <time>2025-09-13T17:43:04+02:00</time>
      </trkpt>
      <trkpt lat="42.76122" lon="1.35817">
        <ele>1534.5</ele>
        <time>2025-09-13T17:43:05+02:00</time>
      </trkpt>
      <trkpt lat="42.76122" lon="1.35815">
        <ele>1534.5</ele>
        <time>2025-09-13T17:43:09+02:00</time>
      </trkpt>
      <trkpt lat="42.76122" lon="1.35815">
        <ele>1534.5</ele>
        <time>2025-09-13T17:43:10+02:00</time>
      </trkpt>
      <trkpt lat="42.76122" lon="1.35815">
        <ele>1534.5</ele>
        <time>2025-09-13T17:43:14+02:00</time>
      </trkpt>
      <trkpt lat="42.76122" lon="1.35815">
        <ele>1534.5</ele>
        <time>2025-09-13T17:43:15+02:00</time>
      </trkpt>
      <trkpt lat="42.76122" lon="1.35814">
        <ele>1534.5</ele>
        <time>2025-09-13T17:43:19+02:00</time>
      </trkpt>
      <trkpt lat="42.76122" lon="1.35813">
        <ele>1534.5</ele>
        <time>2025-09-13T17:43:20+02:00</time>
      </trkpt>
      <trkpt lat="42.76121" lon="1.3581">
        <ele>1534.5</ele>
        <time>2025-09-13T17:43:24+02:00</time>
      </trkpt>
      <trkpt lat="42.76121" lon="1.3581">
        <ele>1536.5</ele>
        <time>2025-09-13T17:43:25+02:00</time>
      </trkpt>
      <trkpt lat="42.76121" lon="1.35808">
        <ele>1536.5</ele>
        <time>2025-09-13T17:43:29+02:00</time>
      </trkpt>
      <trkpt lat="42.76121" lon="1.35808">
        <ele>1536.5</ele>
        <time>2025-09-13T17:43:30+02:00</time>
      </trkpt>
      <trkpt lat="42.76121" lon="1.35808">
        <ele>1536.5</ele>
        <time>2025-09-13T17:43:34+02:00</time>
      </trkpt>
      <trkpt lat="42.76121" lon="1.35808">
        <ele>1536.5</ele>
        <time>2025-09-13T17:43:35+02:00</time>
      </trkpt>
      <trkpt lat="42.76122" lon="1.35807">
        <ele>1536.5</ele>
        <time>2025-09-13T17:43:39+02:00</time>
      </trkpt>
      <trkpt lat="42.76122" lon="1.35806">
        <ele>1536.5</ele>
        <time>2025-09-13T17:43:40+02:00</time>
      </trkpt>
      <trkpt lat="42.76123" lon="1.35804">
        <ele>1536.5</ele>
        <time>2025-09-13T17:43:44+02:00</time>
      </trkpt>
      <trkpt lat="42.76123" lon="1.35804">
        <ele>1536.5</ele>
        <time>2025-09-13T17:43:45+02:00</time>
      </trkpt>
      <trkpt lat="42.76124" lon="1.35804">
        <ele>1536.5</ele>
        <time>2025-09-13T17:43:49+02:00</time>
      </trkpt>
      <trkpt lat="42.76124" lon="1.35803">
        <ele>1536.5</ele>
        <time>2025-09-13T17:43:50+02:00</time>
      </trkpt>
      <trkpt lat="42.76125" lon="1.35803">
        <ele>1536.5</ele>
        <time>2025-09-13T17:43:54+02:00</time>
      </trkpt>
      <trkpt lat="42.76124" lon="1.35803">
        <ele>1536.5</ele>
        <time>2025-09-13T17:43:55+02:00</time>
      </trkpt>
      <trkpt lat="42.76124" lon="1.35801">
        <ele>1538.5</ele>
        <time>2025-09-13T17:43:59+02:00</time>
      </trkpt>
      <trkpt lat="42.76124" lon="1.35801">
        <ele>1538.5</ele>
        <time>2025-09-13T17:44:00+02:00</time>
      </trkpt>
      <trkpt lat="42.76124" lon="1.35798">
        <ele>1538.5</ele>
        <time>2025-09-13T17:44:04+02:00</time>
      </trkpt>
      <trkpt lat="42.76124" lon="1.35798">
        <ele>1538.5</ele>
        <time>2025-09-13T17:44:05+02:00</time>
      </trkpt>
      <trkpt lat="42.76124" lon="1.35796">
        <ele>1538.5</ele>
        <time>2025-09-13T17:44:09+02:00</time>
      </trkpt>
      <trkpt lat="42.76124" lon="1.35796">
        <ele>1538.5</ele>
        <time>2025-09-13T17:44:10+02:00</time>
      </trkpt>
      <trkpt lat="42.76125" lon="1.35795">
        <ele>1538.5</ele>
        <time>2025-09-13T17:44:14+02:00</time>
      </trkpt>
      <trkpt lat="42.76125" lon="1.35795">
        <ele>1538.5</ele>
        <time>2025-09-13T17:44:15+02:00</time>
      </trkpt>
      <trkpt lat="42.76125" lon="1.35793">
        <ele>1538.5</ele>
        <time>2025-09-13T17:44:19+02:00</time>
      </trkpt>
      <trkpt lat="42.76125" lon="1.35793">
        <ele>1540.6006</ele>
        <time>2025-09-13T17:44:20+02:00</time>
      </trkpt>
      <trkpt lat="42.76124" lon="1.3579">
        <ele>1540.6006</ele>
        <time>2025-09-13T17:44:24+02:00</time>
      </trkpt>
      <trkpt lat="42.76124" lon="1.3579">
        <ele>1540.6006</ele>
        <time>2025-09-13T17:44:25+02:00</time>
      </trkpt>
      <trkpt lat="42.76122" lon="1.35789">
        <ele>1540.6006</ele>
        <time>2025-09-13T17:44:29+02:00</time>
      </trkpt>
      <trkpt lat="42.76123" lon="1.35788">
        <ele>1540.6006</ele>
        <time>2025-09-13T17:44:30+02:00</time>
      </trkpt>
      <trkpt lat="42.76124" lon="1.35786">
        <ele>1540.6006</ele>
        <time>2025-09-13T17:44:34+02:00</time>
      </trkpt>
      <trkpt lat="42.76124" lon="1.35786">
        <ele>1540.6006</ele>
        <time>2025-09-13T17:44:35+02:00</time>
      </trkpt>
      <trkpt lat="42.76124" lon="1.35785">
        <ele>1540.6006</ele>
        <time>2025-09-13T17:44:39+02:00</time>
      </trkpt>
      <trkpt lat="42.76124" lon="1.35785">
        <ele>1540.6006</ele>
        <time>2025-09-13T17:44:40+02:00</time>
      </trkpt>
      <trkpt lat="42.76124" lon="1.35785">
        <ele>1540.6006</ele>
        <time>2025-09-13T17:44:44+02:00</time>
      </trkpt>
      <trkpt lat="42.76124" lon="1.35784">
        <ele>1540.6006</ele>
        <time>2025-09-13T17:44:45+02:00</time>
      </trkpt>
      <trkpt lat="42.76124" lon="1.35784">
        <ele>1540.6006</ele>
        <time>2025-09-13T17:44:49+02:00</time>
      </trkpt>
      <trkpt lat="42.76124" lon="1.35784">
        <ele>1540.6006</ele>
        <time>2025-09-13T17:44:50+02:00</time>
      </trkpt>
      <trkpt lat="42.76125" lon="1.35784">
        <ele>1542.7002</ele>
        <time>2025-09-13T17:44:54+02:00</time>
      </trkpt>
      <trkpt lat="42.76125" lon="1.35784">
        <ele>1542.7002</ele>
        <time>2025-09-13T17:44:55+02:00</time>
      </trkpt>
      <trkpt lat="42.76124" lon="1.35783">
        <ele>1542.7002</ele>
        <time>2025-09-13T17:44:59+02:00</time>
      </trkpt>
      <trkpt lat="42.76124" lon="1.35783">
        <ele>1542.7002</ele>
        <time>2025-09-13T17:45:00+02:00</time>
      </trkpt>
      <trkpt lat="42.76124" lon="1.35784">
        <ele>1542.7002</ele>
        <time>2025-09-13T17:45:04+02:00</time>
      </trkpt>
      <trkpt lat="42.76124" lon="1.35784">
        <ele>1542.7002</ele>
        <time>2025-09-13T17:45:05+02:00</time>
      </trkpt>
      <trkpt lat="42.76123" lon="1.35784">
        <ele>1542.7002</ele>
        <time>2025-09-13T17:45:09+02:00</time>
      </trkpt>
      <trkpt lat="42.76123" lon="1.35784">
        <ele>1542.7002</ele>
        <time>2025-09-13T17:45:10+02:00</time>
      </trkpt>
      <trkpt lat="42.76123" lon="1.35784">
        <ele>1542.7002</ele>
        <time>2025-09-13T17:45:14+02:00</time>
      </trkpt>
      <trkpt lat="42.76123" lon="1.35784">
        <ele>1542.7002</ele>
        <time>2025-09-13T17:45:15+02:00</time>
      </trkpt>
      <trkpt lat="42.76123" lon="1.35784">
        <ele>1542.7002</ele>
        <time>2025-09-13T17:45:19+02:00</time>
      </trkpt>
      <trkpt lat="42.76123" lon="1.35784">
        <ele>1542.7002</ele>
        <time>2025-09-13T17:45:20+02:00</time>
      </trkpt>
      <trkpt lat="42.76122" lon="1.35785">
        <ele>1540.6006</ele>
        <time>2025-09-13T17:45:24+02:00</time>
      </trkpt>
      <trkpt lat="42.76122" lon="1.35785">
        <ele>1540.6006</ele>
        <time>2025-09-13T17:45:25+02:00</time>
      </trkpt>
      <trkpt lat="42.76121" lon="1.35784">
        <ele>1542.7002</ele>
        <time>2025-09-13T17:45:29+02:00</time>
      </trkpt>
      <trkpt lat="42.7612" lon="1.35785">
        <ele>1540.6006</ele>
        <time>2025-09-13T17:45:30+02:00</time>
      </trkpt>
      <trkpt lat="42.76119" lon="1.35788">
        <ele>1540.6006</ele>
        <time>2025-09-13T17:45:34+02:00</time>
      </trkpt>
      <trkpt lat="42.76119" lon="1.35789">
        <ele>1545.7002</ele>
        <time>2025-09-13T17:45:35+02:00</time>
      </trkpt>
      <trkpt lat="42.76118" lon="1.35789">
        <ele>1545.7002</ele>
        <time>2025-09-13T17:45:39+02:00</time>
      </trkpt>
      <trkpt lat="42.76117" lon="1.35789">
        <ele>1545.7002</ele>
        <time>2025-09-13T17:45:40+02:00</time>
      </trkpt>
      <trkpt lat="42.76115" lon="1.35789">
        <ele>1545.7002</ele>
        <time>2025-09-13T17:45:44+02:00</time>
      </trkpt>
      <trkpt lat="42.76115" lon="1.35789">
        <ele>1545.7002</ele>
        <time>2025-09-13T17:45:45+02:00</time>
      </trkpt>
      <trkpt lat="42.76113" lon="1.35786">
        <ele>1550.9004</ele>
        <time>2025-09-13T17:45:49+02:00</time>
      </trkpt>
      <trkpt lat="42.76113" lon="1.35786">
        <ele>1545.7002</ele>
        <time>2025-09-13T17:45:50+02:00</time>
      </trkpt>
      <trkpt lat="42.76114" lon="1.35783">
        <ele>1548</ele>
        <time>2025-09-13T17:45:54+02:00</time>
      </trkpt>
      <trkpt lat="42.76113" lon="1.35783">
        <ele>1548</ele>
        <time>2025-09-13T17:45:55+02:00</time>
      </trkpt>
      <trkpt lat="42.76112" lon="1.35781">
        <ele>1553.2002</ele>
        <time>2025-09-13T17:45:59+02:00</time>
      </trkpt>
      <trkpt lat="42.76112" lon="1.35781">
        <ele>1553.2002</ele>
        <time>2025-09-13T17:46:00+02:00</time>
      </trkpt>
      <trkpt lat="42.76111" lon="1.35779">
        <ele>1553.2002</ele>
        <time>2025-09-13T17:46:04+02:00</time>
      </trkpt>
      <trkpt lat="42.76111" lon="1.35778">
        <ele>1553.2002</ele>
        <time>2025-09-13T17:46:05+02:00</time>
      </trkpt>
      <trkpt lat="42.76112" lon="1.35777">
        <ele>1553.2002</ele>
        <time>2025-09-13T17:46:09+02:00</time>
      </trkpt>
      <trkpt lat="42.76112" lon="1.35777">
        <ele>1553.2002</ele>
        <time>2025-09-13T17:46:10+02:00</time>
      </trkpt>
      <trkpt lat="42.76113" lon="1.35776">
        <ele>1553.2002</ele>
        <time>2025-09-13T17:46:14+02:00</time>
      </trkpt>
      <trkpt lat="42.76113" lon="1.35776">
        <ele>1553.2002</ele>
        <time>2025-09-13T17:46:15+02:00</time>
      </trkpt>
      <trkpt lat="42.76113" lon="1.35776">
        <ele>1548</ele>
        <time>2025-09-13T17:46:19+02:00</time>
      </trkpt>
      <trkpt lat="42.76113" lon="1.35776">
        <ele>1548</ele>
        <time>2025-09-13T17:46:20+02:00</time>
      </trkpt>
      <trkpt lat="42.76113" lon="1.35776">
        <ele>1548</ele>
        <time>2025-09-13T17:46:24+02:00</time>
      </trkpt>
      <trkpt lat="42.76113" lon="1.35775">
        <ele>1550.2002</ele>
        <time>2025-09-13T17:46:25+02:00</time>
      </trkpt>
      <trkpt lat="42.76115" lon="1.35774">
        <ele>1550.2002</ele>
        <time>2025-09-13T17:46:29+02:00</time>
      </trkpt>
      <trkpt lat="42.76115" lon="1.35773">
        <ele>1550.2002</ele>
        <time>2025-09-13T17:46:30+02:00</time>
      </trkpt>
      <trkpt lat="42.76115" lon="1.35771">
        <ele>1550.2002</ele>
        <time>2025-09-13T17:46:34+02:00</time>
      </trkpt>
      <trkpt lat="42.76115" lon="1.35771">
        <ele>1550.2002</ele>
        <time>2025-09-13T17:46:35+02:00</time>
      </trkpt>
      <trkpt lat="42.76115" lon="1.35769">
        <ele>1550.2002</ele>
        <time>2025-09-13T17:46:39+02:00</time>
      </trkpt>
      <trkpt lat="42.76115" lon="1.35769">
        <ele>1550.2002</ele>
        <time>2025-09-13T17:46:40+02:00</time>
      </trkpt>
      <trkpt lat="42.76116" lon="1.35766">
        <ele>1552.5</ele>
        <time>2025-09-13T17:46:44+02:00</time>
      </trkpt>
      <trkpt lat="42.76116" lon="1.35766">
        <ele>1552.5</ele>
        <time>2025-09-13T17:46:45+02:00</time>
      </trkpt>
      <trkpt lat="42.76117" lon="1.35762">
        <ele>1552.5</ele>
        <time>2025-09-13T17:46:49+02:00</time>
      </trkpt>
      <trkpt lat="42.76117" lon="1.35761">
        <ele>1552.5</ele>
        <time>2025-09-13T17:46:50+02:00</time>
      </trkpt>
      <trkpt lat="42.76117" lon="1.35758">
        <ele>1554.6006</ele>
        <time>2025-09-13T17:46:54+02:00</time>
      </trkpt>
      <trkpt lat="42.76117" lon="1.35758">
        <ele>1554.6006</ele>
        <time>2025-09-13T17:46:55+02:00</time>
      </trkpt>
      <trkpt lat="42.76118" lon="1.35757">
        <ele>1554.6006</ele>
        <time>2025-09-13T17:46:59+02:00</time>
      </trkpt>
      <trkpt lat="42.76119" lon="1.35758">
        <ele>1554.6006</ele>
        <time>2025-09-13T17:47:00+02:00</time>
      </trkpt>
      <trkpt lat="42.76121" lon="1.35758">
        <ele>1549.2002</ele>
        <time>2025-09-13T17:47:04+02:00</time>
      </trkpt>
      <trkpt lat="42.76121" lon="1.35758">
        <ele>1549.2002</ele>
        <time>2025-09-13T17:47:05+02:00</time>
      </trkpt>
      <trkpt lat="42.76121" lon="1.35756">
        <ele>1549.2002</ele>
        <time>2025-09-13T17:47:09+02:00</time>
      </trkpt>
      <trkpt lat="42.76121" lon="1.35756">
        <ele>1549.2002</ele>
        <time>2025-09-13T17:47:10+02:00</time>
      </trkpt>
      <trkpt lat="42.76121" lon="1.35754">
        <ele>1549.2002</ele>
        <time>2025-09-13T17:47:14+02:00</time>
      </trkpt>
      <trkpt lat="42.76121" lon="1.35754">
        <ele>1549.2002</ele>
        <time>2025-09-13T17:47:15+02:00</time>
      </trkpt>
      <trkpt lat="42.76122" lon="1.35754">
        <ele>1549.2002</ele>
        <time>2025-09-13T17:47:19+02:00</time>
      </trkpt>
      <trkpt lat="42.76122" lon="1.35755">
        <ele>1549.2002</ele>
        <time>2025-09-13T17:47:20+02:00</time>
      </trkpt>
      <trkpt lat="42.76125" lon="1.35754">
        <ele>1549.2002</ele>
        <time>2025-09-13T17:47:24+02:00</time>
      </trkpt>
      <trkpt lat="42.76125" lon="1.35753">
        <ele>1549.2002</ele>
        <time>2025-09-13T17:47:25+02:00</time>
      </trkpt>
      <trkpt lat="42.76126" lon="1.35751">
        <ele>1544</ele>
        <time>2025-09-13T17:47:29+02:00</time>
      </trkpt>
      <trkpt lat="42.76126" lon="1.35751">
        <ele>1544</ele>
        <time>2025-09-13T17:47:30+02:00</time>
      </trkpt>
      <trkpt lat="42.76126" lon="1.35748">
        <ele>1546.2002</ele>
        <time>2025-09-13T17:47:34+02:00</time>
      </trkpt>
      <trkpt lat="42.76126" lon="1.35748">
        <ele>1546.2002</ele>
        <time>2025-09-13T17:47:35+02:00</time>
      </trkpt>
      <trkpt lat="42.76127" lon="1.35748">
        <ele>1546.2002</ele>
        <time>2025-09-13T17:47:39+02:00</time>
      </trkpt>
      <trkpt lat="42.76127" lon="1.35748">
        <ele>1546.2002</ele>
        <time>2025-09-13T17:47:40+02:00</time>
      </trkpt>
      <trkpt lat="42.76126" lon="1.35746">
        <ele>1546.2002</ele>
        <time>2025-09-13T17:47:44+02:00</time>
      </trkpt>
      <trkpt lat="42.76126" lon="1.35746">
        <ele>1546.2002</ele>
        <time>2025-09-13T17:47:45+02:00</time>
      </trkpt>
      <trkpt lat="42.76125" lon="1.35744">
        <ele>1551.4004</ele>
        <time>2025-09-13T17:47:49+02:00</time>
      </trkpt>
      <trkpt lat="42.76125" lon="1.35743">
        <ele>1551.4004</ele>
        <time>2025-09-13T17:47:50+02:00</time>
      </trkpt>
      <trkpt lat="42.76125" lon="1.35741">
        <ele>1553.4004</ele>
        <time>2025-09-13T17:47:54+02:00</time>
      </trkpt>
      <trkpt lat="42.76125" lon="1.3574">
        <ele>1553.4004</ele>
        <time>2025-09-13T17:47:55+02:00</time>
      </trkpt>
      <trkpt lat="42.76124" lon="1.35738">
        <ele>1553.4004</ele>
        <time>2025-09-13T17:47:59+02:00</time>
      </trkpt>
      <trkpt lat="42.76124" lon="1.35737">
        <ele>1553.4004</ele>
        <time>2025-09-13T17:48:00+02:00</time>
      </trkpt>
      <trkpt lat="42.76123" lon="1.35735">
        <ele>1553.4004</ele>
        <time>2025-09-13T17:48:04+02:00</time>
      </trkpt>
      <trkpt lat="42.76123" lon="1.35734">
        <ele>1553.4004</ele>
        <time>2025-09-13T17:48:05+02:00</time>
      </trkpt>
      <trkpt lat="42.76124" lon="1.35731">
        <ele>1555.5</ele>
        <time>2025-09-13T17:48:09+02:00</time>
      </trkpt>
      <trkpt lat="42.76124" lon="1.3573">
        <ele>1555.5</ele>
        <time>2025-09-13T17:48:10+02:00</time>
      </trkpt>
      <trkpt lat="42.76127" lon="1.35727">
        <ele>1550.7002</ele>
        <time>2025-09-13T17:48:14+02:00</time>
      </trkpt>
      <trkpt lat="42.76128" lon="1.35726">
        <ele>1550.7002</ele>
        <time>2025-09-13T17:48:15+02:00</time>
      </trkpt>
      <trkpt lat="42.76129" lon="1.35724">
        <ele>1553.2998</ele>
        <time>2025-09-13T17:48:19+02:00</time>
      </trkpt>
      <trkpt lat="42.7613" lon="1.35723">
        <ele>1553.2998</ele>
        <time>2025-09-13T17:48:20+02:00</time>
      </trkpt>
      <trkpt lat="42.7613" lon="1.3572">
        <ele>1553.2998</ele>
        <time>2025-09-13T17:48:24+02:00</time>
      </trkpt>
      <trkpt lat="42.7613" lon="1.3572">
        <ele>1553.2998</ele>
        <time>2025-09-13T17:48:25+02:00</time>
      </trkpt>
      <trkpt lat="42.76129" lon="1.35718">
        <ele>1553.2998</ele>
        <time>2025-09-13T17:48:29+02:00</time>
      </trkpt>
      <trkpt lat="42.76129" lon="1.35718">
        <ele>1553.2998</ele>
        <time>2025-09-13T17:48:30+02:00</time>
      </trkpt>
      <trkpt lat="42.7613" lon="1.35715">
        <ele>1556.2998</ele>
        <time>2025-09-13T17:48:34+02:00</time>
      </trkpt>
      <trkpt lat="42.7613" lon="1.35714">
        <ele>1556.2998</ele>
        <time>2025-09-13T17:48:35+02:00</time>
      </trkpt>
      <trkpt lat="42.76131" lon="1.35709">
        <ele>1556.2998</ele>
        <time>2025-09-13T17:48:39+02:00</time>
      </trkpt>
      <trkpt lat="42.76131" lon="1.35708">
        <ele>1556.2998</ele>
        <time>2025-09-13T17:48:40+02:00</time>
      </trkpt>
      <trkpt lat="42.76131" lon="1.35704">
        <ele>1559.4004</ele>
        <time>2025-09-13T17:48:44+02:00</time>
      </trkpt>
      <trkpt lat="42.76131" lon="1.35703">
        <ele>1559.4004</ele>
        <time>2025-09-13T17:48:45+02:00</time>
      </trkpt>
      <trkpt lat="42.76132" lon="1.35699">
        <ele>1555.1006</ele>
        <time>2025-09-13T17:48:49+02:00</time>
      </trkpt>
      <trkpt lat="42.76131" lon="1.35697">
        <ele>1562.7002</ele>
        <time>2025-09-13T17:48:50+02:00</time>
      </trkpt>
      <trkpt lat="42.7613" lon="1.35696">
        <ele>1562.7002</ele>
        <time>2025-09-13T17:48:54+02:00</time>
      </trkpt>
      <trkpt lat="42.7613" lon="1.35696">
        <ele>1562.7002</ele>
        <time>2025-09-13T17:48:55+02:00</time>
      </trkpt>
      <trkpt lat="42.76129" lon="1.35696">
        <ele>1562.7002</ele>
        <time>2025-09-13T17:48:59+02:00</time>
      </trkpt>
      <trkpt lat="42.76129" lon="1.35696">
        <ele>1562.7002</ele>
        <time>2025-09-13T17:49:00+02:00</time>
      </trkpt>
      <trkpt lat="42.76128" lon="1.35695">
        <ele>1562.7002</ele>
        <time>2025-09-13T17:49:04+02:00</time>
      </trkpt>
      <trkpt lat="42.76128" lon="1.35694">
        <ele>1562.7002</ele>
        <time>2025-09-13T17:49:05+02:00</time>
      </trkpt>
      <trkpt lat="42.76128" lon="1.3569">
        <ele>1562.7002</ele>
        <time>2025-09-13T17:49:09+02:00</time>
      </trkpt>
      <trkpt lat="42.76128" lon="1.3569">
        <ele>1565.7998</ele>
        <time>2025-09-13T17:49:10+02:00</time>
      </trkpt>
      <trkpt lat="42.76129" lon="1.35687">
        <ele>1565.7998</ele>
        <time>2025-09-13T17:49:14+02:00</time>
      </trkpt>
      <trkpt lat="42.76129" lon="1.35686">
        <ele>1565.7998</ele>
        <time>2025-09-13T17:49:15+02:00</time>
      </trkpt>
      <trkpt lat="42.7613" lon="1.35684">
        <ele>1565.7998</ele>
        <time>2025-09-13T17:49:19+02:00</time>
      </trkpt>
      <trkpt lat="42.7613" lon="1.35684">
        <ele>1565.7998</ele>
        <time>2025-09-13T17:49:20+02:00</time>
      </trkpt>
      <trkpt lat="42.7613" lon="1.35685">
        <ele>1565.7998</ele>
        <time>2025-09-13T17:49:24+02:00</time>
      </trkpt>
      <trkpt lat="42.7613" lon="1.35685">
        <ele>1565.7998</ele>
        <time>2025-09-13T17:49:25+02:00</time>
      </trkpt>
      <trkpt lat="42.76131" lon="1.35685">
        <ele>1565.7998</ele>
        <time>2025-09-13T17:49:29+02:00</time>
      </trkpt>
      <trkpt lat="42.76131" lon="1.35685">
        <ele>1565.7998</ele>
        <time>2025-09-13T17:49:30+02:00</time>
      </trkpt>
      <trkpt lat="42.7613" lon="1.35683">
        <ele>1565.7998</ele>
        <time>2025-09-13T17:49:34+02:00</time>
      </trkpt>
      <trkpt lat="42.7613" lon="1.35683">
        <ele>1565.7998</ele>
        <time>2025-09-13T17:49:35+02:00</time>
      </trkpt>
      <trkpt lat="42.76131" lon="1.3568">
        <ele>1569.1006</ele>
        <time>2025-09-13T17:49:39+02:00</time>
      </trkpt>
      <trkpt lat="42.76131" lon="1.3568">
        <ele>1569.1006</ele>
        <time>2025-09-13T17:49:40+02:00</time>
      </trkpt>
      <trkpt lat="42.76132" lon="1.35678">
        <ele>1565</ele>
        <time>2025-09-13T17:49:44+02:00</time>
      </trkpt>
      <trkpt lat="42.76133" lon="1.35678">
        <ele>1565</ele>
        <time>2025-09-13T17:49:45+02:00</time>
      </trkpt>
      <trkpt lat="42.76133" lon="1.35677">
        <ele>1565</ele>
        <time>2025-09-13T17:49:49+02:00</time>
      </trkpt>
      <trkpt lat="42.76133" lon="1.35676">
        <ele>1565</ele>
        <time>2025-09-13T17:49:50+02:00</time>
      </trkpt>
      <trkpt lat="42.76134" lon="1.35676">
        <ele>1565</ele>
        <time>2025-09-13T17:49:54+02:00</time>
      </trkpt>
      <trkpt lat="42.76134" lon="1.35675">
        <ele>1565</ele>
        <time>2025-09-13T17:49:55+02:00</time>
      </trkpt>
      <trkpt lat="42.76134" lon="1.35671">
        <ele>1568</ele>
        <time>2025-09-13T17:49:59+02:00</time>
      </trkpt>
      <trkpt lat="42.76134" lon="1.35669">
        <ele>1568</ele>
        <time>2025-09-13T17:50:00+02:00</time>
      </trkpt>
      <trkpt lat="42.76135" lon="1.35666">
        <ele>1568</ele>
        <time>2025-09-13T17:50:04+02:00</time>
      </trkpt>
      <trkpt lat="42.76135" lon="1.35666">
        <ele>1568</ele>
        <time>2025-09-13T17:50:05+02:00</time>
      </trkpt>
      <trkpt lat="42.76133" lon="1.35667">
        <ele>1568</ele>
        <time>2025-09-13T17:50:09+02:00</time>
      </trkpt>
      <trkpt lat="42.76133" lon="1.35667">
        <ele>1568</ele>
        <time>2025-09-13T17:50:10+02:00</time>
      </trkpt>
      <trkpt lat="42.76132" lon="1.35667">
        <ele>1572.2998</ele>
        <time>2025-09-13T17:50:14+02:00</time>
      </trkpt>
      <trkpt lat="42.76132" lon="1.35667">
        <ele>1572.2998</ele>
        <time>2025-09-13T17:50:15+02:00</time>
      </trkpt>
      <trkpt lat="42.76131" lon="1.35665">
        <ele>1572.2998</ele>
        <time>2025-09-13T17:50:19+02:00</time>
      </trkpt>
      <trkpt lat="42.76131" lon="1.35665">
        <ele>1572.2998</ele>
        <time>2025-09-13T17:50:20+02:00</time>
      </trkpt>
      <trkpt lat="42.7613" lon="1.35662">
        <ele>1574.9004</ele>
        <time>2025-09-13T17:50:24+02:00</time>
      </trkpt>
      <trkpt lat="42.7613" lon="1.35662">
        <ele>1574.9004</ele>
        <time>2025-09-13T17:50:25+02:00</time>
      </trkpt>
      <trkpt lat="42.7613" lon="1.35656">
        <ele>1574.9004</ele>
        <time>2025-09-13T17:50:29+02:00</time>
      </trkpt>
      <trkpt lat="42.76132" lon="1.35651">
        <ele>1572.1006</ele>
        <time>2025-09-13T17:50:34+02:00</time>
      </trkpt>
      <trkpt lat="42.76133" lon="1.3565">
        <ele>1572.1006</ele>
        <time>2025-09-13T17:50:35+02:00</time>
      </trkpt>
      <trkpt lat="42.76133" lon="1.3565">
        <ele>1572.1006</ele>
        <time>2025-09-13T17:50:39+02:00</time>
      </trkpt>
      <trkpt lat="42.76133" lon="1.3565">
        <ele>1572.1006</ele>
        <time>2025-09-13T17:50:40+02:00</time>
      </trkpt>
      <trkpt lat="42.76133" lon="1.35651">
        <ele>1572.1006</ele>
        <time>2025-09-13T17:50:44+02:00</time>
      </trkpt>
      <trkpt lat="42.76133" lon="1.35651">
        <ele>1572.1006</ele>
        <time>2025-09-13T17:50:45+02:00</time>
      </trkpt>
      <trkpt lat="42.76134" lon="1.35649">
        <ele>1572.1006</ele>
        <time>2025-09-13T17:50:49+02:00</time>
      </trkpt>
      <trkpt lat="42.76134" lon="1.35647">
        <ele>1573.2002</ele>
        <time>2025-09-13T17:50:54+02:00</time>
      </trkpt>
      <trkpt lat="42.76134" lon="1.35647">
        <ele>1572.1006</ele>
        <time>2025-09-13T17:50:55+02:00</time>
      </trkpt>
      <trkpt lat="42.76134" lon="1.35647">
        <ele>1572.1006</ele>
        <time>2025-09-13T17:51:00+02:00</time>
      </trkpt>
      <trkpt lat="42.76134" lon="1.35647">
        <ele>1572.1006</ele>
        <time>2025-09-13T17:51:01+02:00</time>
      </trkpt>
      <trkpt lat="42.76135" lon="1.35646">
        <ele>1573.2002</ele>
        <time>2025-09-13T17:51:05+02:00</time>
      </trkpt>
      <trkpt lat="42.76135" lon="1.35646">
        <ele>1573.2002</ele>
        <time>2025-09-13T17:51:06+02:00</time>
      </trkpt>
      <trkpt lat="42.76136" lon="1.35641">
        <ele>1573.2002</ele>
        <time>2025-09-13T17:51:10+02:00</time>
      </trkpt>
      <trkpt lat="42.76137" lon="1.35641">
        <ele>1573.2002</ele>
        <time>2025-09-13T17:51:11+02:00</time>
      </trkpt>
      <trkpt lat="42.76138" lon="1.35638">
        <ele>1573.2002</ele>
        <time>2025-09-13T17:51:15+02:00</time>
      </trkpt>
      <trkpt lat="42.76138" lon="1.35638">
        <ele>1569.5</ele>
        <time>2025-09-13T17:51:16+02:00</time>
      </trkpt>
      <trkpt lat="42.76141" lon="1.35633">
        <ele>1569.5</ele>
        <time>2025-09-13T17:51:20+02:00</time>
      </trkpt>
      <trkpt lat="42.76144" lon="1.35629">
        <ele>1570.6006</ele>
        <time>2025-09-13T17:51:25+02:00</time>
      </trkpt>
      <trkpt lat="42.76145" lon="1.35628">
        <ele>1565.4004</ele>
        <time>2025-09-13T17:51:26+02:00</time>
      </trkpt>
      <trkpt lat="42.76147" lon="1.35625">
        <ele>1565.4004</ele>
        <time>2025-09-13T17:51:30+02:00</time>
      </trkpt>
      <trkpt lat="42.76148" lon="1.35624">
        <ele>1565.4004</ele>
        <time>2025-09-13T17:51:31+02:00</time>
      </trkpt>
      <trkpt lat="42.7615" lon="1.35622">
        <ele>1565.4004</ele>
        <time>2025-09-13T17:51:35+02:00</time>
      </trkpt>
      <trkpt lat="42.7615" lon="1.35621">
        <ele>1566.9004</ele>
        <time>2025-09-13T17:51:36+02:00</time>
      </trkpt>
      <trkpt lat="42.76148" lon="1.3562">
        <ele>1566.9004</ele>
        <time>2025-09-13T17:51:40+02:00</time>
      </trkpt>
      <trkpt lat="42.76148" lon="1.3562">
        <ele>1566.9004</ele>
        <time>2025-09-13T17:51:41+02:00</time>
      </trkpt>
      <trkpt lat="42.76148" lon="1.35619">
        <ele>1566.9004</ele>
        <time>2025-09-13T17:51:45+02:00</time>
      </trkpt>
      <trkpt lat="42.76147" lon="1.35618">
        <ele>1566.9004</ele>
        <time>2025-09-13T17:51:46+02:00</time>
      </trkpt>
      <trkpt lat="42.76146" lon="1.35616">
        <ele>1566.9004</ele>
        <time>2025-09-13T17:51:50+02:00</time>
      </trkpt>
      <trkpt lat="42.76146" lon="1.35615">
        <ele>1566.9004</ele>
        <time>2025-09-13T17:51:51+02:00</time>
      </trkpt>
      <trkpt lat="42.76145" lon="1.35613">
        <ele>1566.9004</ele>
        <time>2025-09-13T17:51:55+02:00</time>
      </trkpt>
      <trkpt lat="42.76145" lon="1.35613">
        <ele>1566.9004</ele>
        <time>2025-09-13T17:51:56+02:00</time>
      </trkpt>
      <trkpt lat="42.76145" lon="1.3561">
        <ele>1568.4004</ele>
        <time>2025-09-13T17:52:00+02:00</time>
      </trkpt>
      <trkpt lat="42.76145" lon="1.35609">
        <ele>1568.4004</ele>
        <time>2025-09-13T17:52:01+02:00</time>
      </trkpt>
      <trkpt lat="42.76146" lon="1.35602">
        <ele>1570</ele>
        <time>2025-09-13T17:52:05+02:00</time>
      </trkpt>
      <trkpt lat="42.76147" lon="1.356">
        <ele>1570</ele>
        <time>2025-09-13T17:52:06+02:00</time>
      </trkpt>
      <trkpt lat="42.76148" lon="1.35596">
        <ele>1570</ele>
        <time>2025-09-13T17:52:10+02:00</time>
      </trkpt>
      <trkpt lat="42.76148" lon="1.35596">
        <ele>1570</ele>
        <time>2025-09-13T17:52:11+02:00</time>
      </trkpt>
      <trkpt lat="42.76149" lon="1.35592">
        <ele>1571.7998</ele>
        <time>2025-09-13T17:52:15+02:00</time>
      </trkpt>
      <trkpt lat="42.7615" lon="1.35591">
        <ele>1571.7998</ele>
        <time>2025-09-13T17:52:16+02:00</time>
      </trkpt>
      <trkpt lat="42.76152" lon="1.35586">
        <ele>1569</ele>
        <time>2025-09-13T17:52:20+02:00</time>
      </trkpt>
      <trkpt lat="42.76152" lon="1.35585">
        <ele>1569</ele>
        <time>2025-09-13T17:52:21+02:00</time>
      </trkpt>
      <trkpt lat="42.76154" lon="1.35578">
        <ele>1569</ele>
        <time>2025-09-13T17:52:25+02:00</time>
      </trkpt>
      <trkpt lat="42.76155" lon="1.35573">
        <ele>1571</ele>
        <time>2025-09-13T17:52:30+02:00</time>
      </trkpt>
      <trkpt lat="42.76155" lon="1.35572">
        <ele>1571</ele>
        <time>2025-09-13T17:52:31+02:00</time>
      </trkpt>
      <trkpt lat="42.76155" lon="1.35571">
        <ele>1571</ele>
        <time>2025-09-13T17:52:35+02:00</time>
      </trkpt>
      <trkpt lat="42.76155" lon="1.35571">
        <ele>1571</ele>
        <time>2025-09-13T17:52:36+02:00</time>
      </trkpt>
      <trkpt lat="42.76157" lon="1.35571">
        <ele>1571</ele>
        <time>2025-09-13T17:52:40+02:00</time>
      </trkpt>
      <trkpt lat="42.76158" lon="1.3557">
        <ele>1566.1006</ele>
        <time>2025-09-13T17:52:41+02:00</time>
      </trkpt>
      <trkpt lat="42.76162" lon="1.35566">
        <ele>1568.2998</ele>
        <time>2025-09-13T17:52:45+02:00</time>
      </trkpt>
      <trkpt lat="42.76162" lon="1.35566">
        <ele>1568.2998</ele>
        <time>2025-09-13T17:52:46+02:00</time>
      </trkpt>
      <trkpt lat="42.76161" lon="1.35566">
        <ele>1568.2998</ele>
        <time>2025-09-13T17:52:50+02:00</time>
      </trkpt>
      <trkpt lat="42.76161" lon="1.35567">
        <ele>1568.2998</ele>
        <time>2025-09-13T17:52:51+02:00</time>
      </trkpt>
      <trkpt lat="42.7616" lon="1.35568">
        <ele>1568.2998</ele>
        <time>2025-09-13T17:52:55+02:00</time>
      </trkpt>
      <trkpt lat="42.7616" lon="1.35568">
        <ele>1568.2998</ele>
        <time>2025-09-13T17:52:56+02:00</time>
      </trkpt>
      <trkpt lat="42.76158" lon="1.35568">
        <ele>1568.2998</ele>
        <time>2025-09-13T17:53:00+02:00</time>
      </trkpt>
      <trkpt lat="42.76158" lon="1.35568">
        <ele>1568.2998</ele>
        <time>2025-09-13T17:53:01+02:00</time>
      </trkpt>
      <trkpt lat="42.76158" lon="1.35567">
        <ele>1568.2998</ele>
        <time>2025-09-13T17:53:05+02:00</time>
      </trkpt>
      <trkpt lat="42.76158" lon="1.35566">
        <ele>1568.2998</ele>
        <time>2025-09-13T17:53:07+02:00</time>
      </trkpt>
      <trkpt lat="42.76158" lon="1.35562">
        <ele>1568.2998</ele>
        <time>2025-09-13T17:53:11+02:00</time>
      </trkpt>
      <trkpt lat="42.76158" lon="1.3556">
        <ele>1570.7998</ele>
        <time>2025-09-13T17:53:12+02:00</time>
      </trkpt>
      <trkpt lat="42.76156" lon="1.35552">
        <ele>1578.4004</ele>
        <time>2025-09-13T17:53:16+02:00</time>
      </trkpt>
      <trkpt lat="42.76157" lon="1.35551">
        <ele>1578.4004</ele>
        <time>2025-09-13T17:53:17+02:00</time>
      </trkpt>
      <trkpt lat="42.76159" lon="1.35548">
        <ele>1573.4004</ele>
        <time>2025-09-13T17:53:21+02:00</time>
      </trkpt>
      <trkpt lat="42.7616" lon="1.35547">
        <ele>1573.4004</ele>
        <time>2025-09-13T17:53:22+02:00</time>
      </trkpt>
      <trkpt lat="42.76163" lon="1.35544">
        <ele>1573.4004</ele>
        <time>2025-09-13T17:53:26+02:00</time>
      </trkpt>
      <trkpt lat="42.76164" lon="1.35544">
        <ele>1570.5</ele>
        <time>2025-09-13T17:53:27+02:00</time>
      </trkpt>
      <trkpt lat="42.76164" lon="1.35541">
        <ele>1570.5</ele>
        <time>2025-09-13T17:53:31+02:00</time>
      </trkpt>
      <trkpt lat="42.76164" lon="1.35541">
        <ele>1570.5</ele>
        <time>2025-09-13T17:53:32+02:00</time>
      </trkpt>
      <trkpt lat="42.76167" lon="1.35539">
        <ele>1570.5</ele>
        <time>2025-09-13T17:53:36+02:00</time>
      </trkpt>
      <trkpt lat="42.76168" lon="1.35538">
        <ele>1570.5</ele>
        <time>2025-09-13T17:53:37+02:00</time>
      </trkpt>
      <trkpt lat="42.76167" lon="1.35536">
        <ele>1570.5</ele>
        <time>2025-09-13T17:53:41+02:00</time>
      </trkpt>
      <trkpt lat="42.76167" lon="1.35536">
        <ele>1570.5</ele>
        <time>2025-09-13T17:53:42+02:00</time>
      </trkpt>
      <trkpt lat="42.76166" lon="1.35535">
        <ele>1573.1006</ele>
        <time>2025-09-13T17:53:46+02:00</time>
      </trkpt>
      <trkpt lat="42.76165" lon="1.35535">
        <ele>1573.1006</ele>
        <time>2025-09-13T17:53:47+02:00</time>
      </trkpt>
      <trkpt lat="42.76164" lon="1.35534">
        <ele>1573.1006</ele>
        <time>2025-09-13T17:53:51+02:00</time>
      </trkpt>
      <trkpt lat="42.76164" lon="1.35534">
        <ele>1573.1006</ele>
        <time>2025-09-13T17:53:52+02:00</time>
      </trkpt>
      <trkpt lat="42.76163" lon="1.35534">
        <ele>1579</ele>
        <time>2025-09-13T17:53:56+02:00</time>
      </trkpt>
      <trkpt lat="42.76163" lon="1.35534">
        <ele>1579</ele>
        <time>2025-09-13T17:53:57+02:00</time>
      </trkpt>
      <trkpt lat="42.76163" lon="1.35533">
        <ele>1579</ele>
        <time>2025-09-13T17:54:01+02:00</time>
      </trkpt>
      <trkpt lat="42.76163" lon="1.35533">
        <ele>1579</ele>
        <time>2025-09-13T17:54:02+02:00</time>
      </trkpt>
      <trkpt lat="42.76163" lon="1.35533">
        <ele>1579</ele>
        <time>2025-09-13T17:54:06+02:00</time>
      </trkpt>
      <trkpt lat="42.76163" lon="1.35533">
        <ele>1579</ele>
        <time>2025-09-13T17:54:07+02:00</time>
      </trkpt>
      <trkpt lat="42.76163" lon="1.35533">
        <ele>1579</ele>
        <time>2025-09-13T17:54:11+02:00</time>
      </trkpt>
      <trkpt lat="42.76163" lon="1.35533">
        <ele>1579</ele>
        <time>2025-09-13T17:54:12+02:00</time>
      </trkpt>
      <trkpt lat="42.76164" lon="1.35532">
        <ele>1573.1006</ele>
        <time>2025-09-13T17:54:16+02:00</time>
      </trkpt>
      <trkpt lat="42.76164" lon="1.35531">
        <ele>1573.1006</ele>
        <time>2025-09-13T17:54:17+02:00</time>
      </trkpt>
      <trkpt lat="42.76165" lon="1.35529">
        <ele>1573.1006</ele>
        <time>2025-09-13T17:54:21+02:00</time>
      </trkpt>
      <trkpt lat="42.76165" lon="1.35529">
        <ele>1573.1006</ele>
        <time>2025-09-13T17:54:22+02:00</time>
      </trkpt>
      <trkpt lat="42.76166" lon="1.35527">
        <ele>1573.1006</ele>
        <time>2025-09-13T17:54:26+02:00</time>
      </trkpt>
      <trkpt lat="42.76166" lon="1.35527">
        <ele>1576.2002</ele>
        <time>2025-09-13T17:54:27+02:00</time>
      </trkpt>
      <trkpt lat="42.76166" lon="1.35526">
        <ele>1576.2002</ele>
        <time>2025-09-13T17:54:31+02:00</time>
      </trkpt>
      <trkpt lat="42.76166" lon="1.35525">
        <ele>1576.2002</ele>
        <time>2025-09-13T17:54:32+02:00</time>
      </trkpt>
      <trkpt lat="42.76166" lon="1.35525">
        <ele>1576.2002</ele>
        <time>2025-09-13T17:54:36+02:00</time>
      </trkpt>
      <trkpt lat="42.76166" lon="1.35524">
        <ele>1576.2002</ele>
        <time>2025-09-13T17:54:37+02:00</time>
      </trkpt>
      <trkpt lat="42.76166" lon="1.35524">
        <ele>1576.2002</ele>
        <time>2025-09-13T17:54:41+02:00</time>
      </trkpt>
      <trkpt lat="42.76166" lon="1.35524">
        <ele>1576.2002</ele>
        <time>2025-09-13T17:54:42+02:00</time>
      </trkpt>
      <trkpt lat="42.76166" lon="1.35523">
        <ele>1576.2002</ele>
        <time>2025-09-13T17:54:46+02:00</time>
      </trkpt>
      <trkpt lat="42.76166" lon="1.35523">
        <ele>1576.2002</ele>
        <time>2025-09-13T17:54:47+02:00</time>
      </trkpt>
      <trkpt lat="42.76166" lon="1.35523">
        <ele>1576.2002</ele>
        <time>2025-09-13T17:54:51+02:00</time>
      </trkpt>
      <trkpt lat="42.76166" lon="1.35522">
        <ele>1576.2002</ele>
        <time>2025-09-13T17:54:52+02:00</time>
      </trkpt>
      <trkpt lat="42.76166" lon="1.35523">
        <ele>1576.2002</ele>
        <time>2025-09-13T17:54:56+02:00</time>
      </trkpt>
      <trkpt lat="42.76166" lon="1.35523">
        <ele>1576.2002</ele>
        <time>2025-09-13T17:54:57+02:00</time>
      </trkpt>
      <trkpt lat="42.76166" lon="1.35522">
        <ele>1576.2002</ele>
        <time>2025-09-13T17:55:01+02:00</time>
      </trkpt>
      <trkpt lat="42.76166" lon="1.35522">
        <ele>1576.2002</ele>
        <time>2025-09-13T17:55:02+02:00</time>
      </trkpt>
      <trkpt lat="42.76166" lon="1.35522">
        <ele>1576.2002</ele>
        <time>2025-09-13T17:55:06+02:00</time>
      </trkpt>
      <trkpt lat="42.76166" lon="1.35522">
        <ele>1576.2002</ele>
        <time>2025-09-13T17:55:07+02:00</time>
      </trkpt>
      <trkpt lat="42.76167" lon="1.35522">
        <ele>1576.2002</ele>
        <time>2025-09-13T17:55:11+02:00</time>
      </trkpt>
      <trkpt lat="42.76167" lon="1.35522">
        <ele>1576.2002</ele>
        <time>2025-09-13T17:55:12+02:00</time>
      </trkpt>
      <trkpt lat="42.7617" lon="1.35522">
        <ele>1568.7002</ele>
        <time>2025-09-13T17:55:16+02:00</time>
      </trkpt>
      <trkpt lat="42.76171" lon="1.35522">
        <ele>1568.7002</ele>
        <time>2025-09-13T17:55:17+02:00</time>
      </trkpt>
      <trkpt lat="42.76172" lon="1.35521">
        <ele>1568.7002</ele>
        <time>2025-09-13T17:55:21+02:00</time>
      </trkpt>
      <trkpt lat="42.76173" lon="1.35521">
        <ele>1568.7002</ele>
        <time>2025-09-13T17:55:22+02:00</time>
      </trkpt>
      <trkpt lat="42.76173" lon="1.3552">
        <ele>1568.7002</ele>
        <time>2025-09-13T17:55:26+02:00</time>
      </trkpt>
      <trkpt lat="42.76173" lon="1.3552">
        <ele>1568.7002</ele>
        <time>2025-09-13T17:55:27+02:00</time>
      </trkpt>
      <trkpt lat="42.76173" lon="1.3552">
        <ele>1568.7002</ele>
        <time>2025-09-13T17:55:31+02:00</time>
      </trkpt>
      <trkpt lat="42.76173" lon="1.3552">
        <ele>1568.7002</ele>
        <time>2025-09-13T17:55:32+02:00</time>
      </trkpt>
      <trkpt lat="42.76173" lon="1.3552">
        <ele>1568.7002</ele>
        <time>2025-09-13T17:55:36+02:00</time>
      </trkpt>
      <trkpt lat="42.76173" lon="1.3552">
        <ele>1568.7002</ele>
        <time>2025-09-13T17:55:37+02:00</time>
      </trkpt>
      <trkpt lat="42.76174" lon="1.3552">
        <ele>1568.7002</ele>
        <time>2025-09-13T17:55:41+02:00</time>
      </trkpt>
      <trkpt lat="42.76174" lon="1.3552">
        <ele>1568.7002</ele>
        <time>2025-09-13T17:55:42+02:00</time>
      </trkpt>
      <trkpt lat="42.76174" lon="1.3552">
        <ele>1568.7002</ele>
        <time>2025-09-13T17:55:46+02:00</time>
      </trkpt>
      <trkpt lat="42.76174" lon="1.3552">
        <ele>1568.7002</ele>
        <time>2025-09-13T17:55:47+02:00</time>
      </trkpt>
      <trkpt lat="42.76174" lon="1.3552">
        <ele>1568.7002</ele>
        <time>2025-09-13T17:55:51+02:00</time>
      </trkpt>
      <trkpt lat="42.76174" lon="1.3552">
        <ele>1568.7002</ele>
        <time>2025-09-13T17:55:52+02:00</time>
      </trkpt>
      <trkpt lat="42.76174" lon="1.3552">
        <ele>1568.7002</ele>
        <time>2025-09-13T17:55:56+02:00</time>
      </trkpt>
      <trkpt lat="42.76174" lon="1.3552">
        <ele>1568.7002</ele>
        <time>2025-09-13T17:55:57+02:00</time>
      </trkpt>
      <trkpt lat="42.76173" lon="1.3552">
        <ele>1568.7002</ele>
        <time>2025-09-13T17:56:01+02:00</time>
      </trkpt>
      <trkpt lat="42.76173" lon="1.3552">
        <ele>1568.7002</ele>
        <time>2025-09-13T17:56:02+02:00</time>
      </trkpt>
      <trkpt lat="42.76173" lon="1.3552">
        <ele>1568.7002</ele>
        <time>2025-09-13T17:56:06+02:00</time>
      </trkpt>
      <trkpt lat="42.76174" lon="1.3552">
        <ele>1568.7002</ele>
        <time>2025-09-13T17:56:07+02:00</time>
      </trkpt>
      <trkpt lat="42.76174" lon="1.3552">
        <ele>1568.7002</ele>
        <time>2025-09-13T17:56:11+02:00</time>
      </trkpt>
      <trkpt lat="42.76174" lon="1.3552">
        <ele>1568.7002</ele>
        <time>2025-09-13T17:56:12+02:00</time>
      </trkpt>
      <trkpt lat="42.76174" lon="1.3552">
        <ele>1568.7002</ele>
        <time>2025-09-13T17:56:16+02:00</time>
      </trkpt>
      <trkpt lat="42.76174" lon="1.3552">
        <ele>1568.7002</ele>
        <time>2025-09-13T17:56:17+02:00</time>
      </trkpt>
      <trkpt lat="42.76174" lon="1.3552">
        <ele>1568.7002</ele>
        <time>2025-09-13T17:56:21+02:00</time>
      </trkpt>
      <trkpt lat="42.76174" lon="1.3552">
        <ele>1568.7002</ele>
        <time>2025-09-13T17:56:22+02:00</time>
      </trkpt>
      <trkpt lat="42.76174" lon="1.3552">
        <ele>1568.7002</ele>
        <time>2025-09-13T17:56:26+02:00</time>
      </trkpt>
      <trkpt lat="42.76174" lon="1.3552">
        <ele>1568.7002</ele>
        <time>2025-09-13T17:56:27+02:00</time>
      </trkpt>
      <trkpt lat="42.76174" lon="1.3552">
        <ele>1568.7002</ele>
        <time>2025-09-13T17:56:31+02:00</time>
      </trkpt>
      <trkpt lat="42.76174" lon="1.35519">
        <ele>1568.7002</ele>
        <time>2025-09-13T17:56:36+02:00</time>
      </trkpt>
      <trkpt lat="42.76174" lon="1.35519">
        <ele>1568.7002</ele>
        <time>2025-09-13T17:56:37+02:00</time>
      </trkpt>
      <trkpt lat="42.76175" lon="1.35518">
        <ele>1572.4004</ele>
        <time>2025-09-13T17:56:41+02:00</time>
      </trkpt>
      <trkpt lat="42.76176" lon="1.35517">
        <ele>1562.9004</ele>
        <time>2025-09-13T17:56:42+02:00</time>
      </trkpt>
      <trkpt lat="42.76179" lon="1.35514">
        <ele>1562.9004</ele>
        <time>2025-09-13T17:56:45+02:00</time>
      </trkpt>
      <trkpt lat="42.76179" lon="1.35513">
        <ele>1562.9004</ele>
        <time>2025-09-13T17:56:47+02:00</time>
      </trkpt>
      <trkpt lat="42.76181" lon="1.35508">
        <ele>1566.7002</ele>
        <time>2025-09-13T17:56:51+02:00</time>
      </trkpt>
      <trkpt lat="42.76182" lon="1.35507">
        <ele>1566.7002</ele>
        <time>2025-09-13T17:56:52+02:00</time>
      </trkpt>
      <trkpt lat="42.76184" lon="1.35504">
        <ele>1558.2998</ele>
        <time>2025-09-13T17:56:56+02:00</time>
      </trkpt>
      <trkpt lat="42.76184" lon="1.35503">
        <ele>1558.2998</ele>
        <time>2025-09-13T17:56:57+02:00</time>
      </trkpt>
      <trkpt lat="42.76184" lon="1.35503">
        <ele>1558.2998</ele>
        <time>2025-09-13T17:57:01+02:00</time>
      </trkpt>
      <trkpt lat="42.76184" lon="1.35503">
        <ele>1558.2998</ele>
        <time>2025-09-13T17:57:02+02:00</time>
      </trkpt>
      <trkpt lat="42.76185" lon="1.35502">
        <ele>1558.2998</ele>
        <time>2025-09-13T17:57:06+02:00</time>
      </trkpt>
      <trkpt lat="42.76185" lon="1.35502">
        <ele>1558.2998</ele>
        <time>2025-09-13T17:57:07+02:00</time>
      </trkpt>
      <trkpt lat="42.76186" lon="1.35501">
        <ele>1558.2998</ele>
        <time>2025-09-13T17:57:11+02:00</time>
      </trkpt>
      <trkpt lat="42.76187" lon="1.35501">
        <ele>1562.6006</ele>
        <time>2025-09-13T17:57:12+02:00</time>
      </trkpt>
      <trkpt lat="42.76189" lon="1.35497">
        <ele>1558</ele>
        <time>2025-09-13T17:57:16+02:00</time>
      </trkpt>
      <trkpt lat="42.76189" lon="1.35496">
        <ele>1558</ele>
        <time>2025-09-13T17:57:17+02:00</time>
      </trkpt>
      <trkpt lat="42.76191" lon="1.35494">
        <ele>1558</ele>
        <time>2025-09-13T17:57:21+02:00</time>
      </trkpt>
      <trkpt lat="42.76191" lon="1.35494">
        <ele>1558</ele>
        <time>2025-09-13T17:57:22+02:00</time>
      </trkpt>
      <trkpt lat="42.7619" lon="1.35496">
        <ele>1558</ele>
        <time>2025-09-13T17:57:26+02:00</time>
      </trkpt>
      <trkpt lat="42.7619" lon="1.35497">
        <ele>1558</ele>
        <time>2025-09-13T17:57:27+02:00</time>
      </trkpt>
      <trkpt lat="42.76189" lon="1.35499">
        <ele>1558</ele>
        <time>2025-09-13T17:57:31+02:00</time>
      </trkpt>
      <trkpt lat="42.76189" lon="1.355">
        <ele>1558</ele>
        <time>2025-09-13T17:57:32+02:00</time>
      </trkpt>
      <trkpt lat="42.7619" lon="1.35499">
        <ele>1558</ele>
        <time>2025-09-13T17:57:36+02:00</time>
      </trkpt>
      <trkpt lat="42.7619" lon="1.35498">
        <ele>1558</ele>
        <time>2025-09-13T17:57:37+02:00</time>
      </trkpt>
      <trkpt lat="42.7619" lon="1.35498">
        <ele>1558</ele>
        <time>2025-09-13T17:57:41+02:00</time>
      </trkpt>
      <trkpt lat="42.7619" lon="1.35498">
        <ele>1558</ele>
        <time>2025-09-13T17:57:42+02:00</time>
      </trkpt>
      <trkpt lat="42.76192" lon="1.35496">
        <ele>1558</ele>
        <time>2025-09-13T17:57:46+02:00</time>
      </trkpt>
      <trkpt lat="42.76193" lon="1.35495">
        <ele>1558</ele>
        <time>2025-09-13T17:57:47+02:00</time>
      </trkpt>
      <trkpt lat="42.76193" lon="1.35493">
        <ele>1558</ele>
        <time>2025-09-13T17:57:51+02:00</time>
      </trkpt>
      <trkpt lat="42.76193" lon="1.35493">
        <ele>1558</ele>
        <time>2025-09-13T17:57:52+02:00</time>
      </trkpt>
      <trkpt lat="42.76193" lon="1.35491">
        <ele>1563.5</ele>
        <time>2025-09-13T17:57:56+02:00</time>
      </trkpt>
      <trkpt lat="42.76193" lon="1.3549">
        <ele>1563.5</ele>
        <time>2025-09-13T17:57:57+02:00</time>
      </trkpt>
      <trkpt lat="42.76193" lon="1.35488">
        <ele>1563.5</ele>
        <time>2025-09-13T17:58:01+02:00</time>
      </trkpt>
      <trkpt lat="42.76193" lon="1.35488">
        <ele>1563.5</ele>
        <time>2025-09-13T17:58:02+02:00</time>
      </trkpt>
      <trkpt lat="42.76194" lon="1.35488">
        <ele>1563.5</ele>
        <time>2025-09-13T17:58:06+02:00</time>
      </trkpt>
      <trkpt lat="42.76194" lon="1.35487">
        <ele>1563.5</ele>
        <time>2025-09-13T17:58:07+02:00</time>
      </trkpt>
      <trkpt lat="42.76196" lon="1.35486">
        <ele>1559.9004</ele>
        <time>2025-09-13T17:58:11+02:00</time>
      </trkpt>
      <trkpt lat="42.76197" lon="1.35485">
        <ele>1559.9004</ele>
        <time>2025-09-13T17:58:12+02:00</time>
      </trkpt>
      <trkpt lat="42.762" lon="1.35482">
        <ele>1565.2998</ele>
        <time>2025-09-13T17:58:16+02:00</time>
      </trkpt>
      <trkpt lat="42.76201" lon="1.35481">
        <ele>1565.2998</ele>
        <time>2025-09-13T17:58:17+02:00</time>
      </trkpt>
      <trkpt lat="42.76203" lon="1.35481">
        <ele>1560.9004</ele>
        <time>2025-09-13T17:58:21+02:00</time>
      </trkpt>
      <trkpt lat="42.76203" lon="1.3548">
        <ele>1560.9004</ele>
        <time>2025-09-13T17:58:22+02:00</time>
      </trkpt>
      <trkpt lat="42.76205" lon="1.35478">
        <ele>1560.9004</ele>
        <time>2025-09-13T17:58:26+02:00</time>
      </trkpt>
      <trkpt lat="42.76206" lon="1.35477">
        <ele>1560.9004</ele>
        <time>2025-09-13T17:58:27+02:00</time>
      </trkpt>
      <trkpt lat="42.76206" lon="1.35474">
        <ele>1565.6006</ele>
        <time>2025-09-13T17:58:31+02:00</time>
      </trkpt>
      <trkpt lat="42.76206" lon="1.35473">
        <ele>1565.6006</ele>
        <time>2025-09-13T17:58:32+02:00</time>
      </trkpt>
      <trkpt lat="42.76205" lon="1.3547">
        <ele>1565.6006</ele>
        <time>2025-09-13T17:58:36+02:00</time>
      </trkpt>
      <trkpt lat="42.76205" lon="1.3547">
        <ele>1565.6006</ele>
        <time>2025-09-13T17:58:37+02:00</time>
      </trkpt>
      <trkpt lat="42.76205" lon="1.35466">
        <ele>1569.6006</ele>
        <time>2025-09-13T17:58:41+02:00</time>
      </trkpt>
      <trkpt lat="42.76206" lon="1.35466">
        <ele>1569.6006</ele>
        <time>2025-09-13T17:58:42+02:00</time>
      </trkpt>
      <trkpt lat="42.76205" lon="1.35464">
        <ele>1569.6006</ele>
        <time>2025-09-13T17:58:46+02:00</time>
      </trkpt>
      <trkpt lat="42.76204" lon="1.35463">
        <ele>1569.6006</ele>
        <time>2025-09-13T17:58:47+02:00</time>
      </trkpt>
      <trkpt lat="42.76204" lon="1.35462">
        <ele>1569.6006</ele>
        <time>2025-09-13T17:58:51+02:00</time>
      </trkpt>
      <trkpt lat="42.76205" lon="1.35461">
        <ele>1569.6006</ele>
        <time>2025-09-13T17:58:52+02:00</time>
      </trkpt>
      <trkpt lat="42.76206" lon="1.35459">
        <ele>1569.6006</ele>
        <time>2025-09-13T17:58:56+02:00</time>
      </trkpt>
      <trkpt lat="42.76206" lon="1.35458">
        <ele>1573.2998</ele>
        <time>2025-09-13T17:58:57+02:00</time>
      </trkpt>
      <trkpt lat="42.76207" lon="1.35453">
        <ele>1573.2998</ele>
        <time>2025-09-13T17:59:01+02:00</time>
      </trkpt>
      <trkpt lat="42.76207" lon="1.35453">
        <ele>1573.2998</ele>
        <time>2025-09-13T17:59:06+02:00</time>
      </trkpt>
      <trkpt lat="42.76207" lon="1.35452">
        <ele>1573.2998</ele>
        <time>2025-09-13T17:59:07+02:00</time>
      </trkpt>
      <trkpt lat="42.76208" lon="1.35449">
        <ele>1571.2998</ele>
        <time>2025-09-13T17:59:11+02:00</time>
      </trkpt>
      <trkpt lat="42.76209" lon="1.35448">
        <ele>1571.2998</ele>
        <time>2025-09-13T17:59:12+02:00</time>
      </trkpt>
      <trkpt lat="42.76212" lon="1.35445">
        <ele>1571.2998</ele>
        <time>2025-09-13T17:59:16+02:00</time>
      </trkpt>
      <trkpt lat="42.76212" lon="1.35445">
        <ele>1571.2998</ele>
        <time>2025-09-13T17:59:17+02:00</time>
      </trkpt>
      <trkpt lat="42.76214" lon="1.35444">
        <ele>1571.2998</ele>
        <time>2025-09-13T17:59:21+02:00</time>
      </trkpt>
      <trkpt lat="42.76214" lon="1.35444">
        <ele>1565.2002</ele>
        <time>2025-09-13T17:59:22+02:00</time>
      </trkpt>
      <trkpt lat="42.76215" lon="1.35444">
        <ele>1565.2002</ele>
        <time>2025-09-13T17:59:26+02:00</time>
      </trkpt>
      <trkpt lat="42.76215" lon="1.35444">
        <ele>1565.2002</ele>
        <time>2025-09-13T17:59:27+02:00</time>
      </trkpt>
      <trkpt lat="42.76215" lon="1.35444">
        <ele>1565.2002</ele>
        <time>2025-09-13T17:59:31+02:00</time>
      </trkpt>
      <trkpt lat="42.76216" lon="1.35444">
        <ele>1565.2002</ele>
        <time>2025-09-13T17:59:32+02:00</time>
      </trkpt>
      <trkpt lat="42.76215" lon="1.35444">
        <ele>1565.2002</ele>
        <time>2025-09-13T17:59:36+02:00</time>
      </trkpt>
      <trkpt lat="42.76215" lon="1.35443">
        <ele>1565.2002</ele>
        <time>2025-09-13T17:59:37+02:00</time>
      </trkpt>
      <trkpt lat="42.76215" lon="1.35443">
        <ele>1565.2002</ele>
        <time>2025-09-13T17:59:41+02:00</time>
      </trkpt>
      <trkpt lat="42.76215" lon="1.35443">
        <ele>1565.2002</ele>
        <time>2025-09-13T17:59:42+02:00</time>
      </trkpt>
      <trkpt lat="42.76215" lon="1.35443">
        <ele>1565.2002</ele>
        <time>2025-09-13T17:59:46+02:00</time>
      </trkpt>
      <trkpt lat="42.76215" lon="1.35443">
        <ele>1565.2002</ele>
        <time>2025-09-13T17:59:47+02:00</time>
      </trkpt>
      <trkpt lat="42.76216" lon="1.35442">
        <ele>1565.2002</ele>
        <time>2025-09-13T17:59:51+02:00</time>
      </trkpt>
      <trkpt lat="42.76216" lon="1.35442">
        <ele>1565.2002</ele>
        <time>2025-09-13T17:59:52+02:00</time>
      </trkpt>
      <trkpt lat="42.76216" lon="1.35442">
        <ele>1565.2002</ele>
        <time>2025-09-13T17:59:56+02:00</time>
      </trkpt>
      <trkpt lat="42.76216" lon="1.35442">
        <ele>1565.2002</ele>
        <time>2025-09-13T17:59:57+02:00</time>
      </trkpt>
      <trkpt lat="42.76217" lon="1.35441">
        <ele>1565.2002</ele>
        <time>2025-09-13T18:00:01+02:00</time>
      </trkpt>
      <trkpt lat="42.76217" lon="1.35441">
        <ele>1565.2002</ele>
        <time>2025-09-13T18:00:02+02:00</time>
      </trkpt>
      <trkpt lat="42.76217" lon="1.35441">
        <ele>1565.2002</ele>
        <time>2025-09-13T18:00:07+02:00</time>
      </trkpt>
      <trkpt lat="42.76217" lon="1.35441">
        <ele>1565.2002</ele>
        <time>2025-09-13T18:00:08+02:00</time>
      </trkpt>
      <trkpt lat="42.76219" lon="1.3544">
        <ele>1569</ele>
        <time>2025-09-13T18:00:12+02:00</time>
      </trkpt>
      <trkpt lat="42.76219" lon="1.3544">
        <ele>1569</ele>
        <time>2025-09-13T18:00:13+02:00</time>
      </trkpt>
      <trkpt lat="42.76222" lon="1.35435">
        <ele>1562.7002</ele>
        <time>2025-09-13T18:00:17+02:00</time>
      </trkpt>
      <trkpt lat="42.76223" lon="1.35434">
        <ele>1562.7002</ele>
        <time>2025-09-13T18:00:18+02:00</time>
      </trkpt>
      <trkpt lat="42.76223" lon="1.35432">
        <ele>1562.7002</ele>
        <time>2025-09-13T18:00:22+02:00</time>
      </trkpt>
      <trkpt lat="42.76223" lon="1.35433">
        <ele>1562.7002</ele>
        <time>2025-09-13T18:00:23+02:00</time>
      </trkpt>
      <trkpt lat="42.76223" lon="1.35433">
        <ele>1562.7002</ele>
        <time>2025-09-13T18:00:27+02:00</time>
      </trkpt>
      <trkpt lat="42.76223" lon="1.35433">
        <ele>1562.7002</ele>
        <time>2025-09-13T18:00:28+02:00</time>
      </trkpt>
      <trkpt lat="42.76223" lon="1.35432">
        <ele>1566.6006</ele>
        <time>2025-09-13T18:00:32+02:00</time>
      </trkpt>
      <trkpt lat="42.76223" lon="1.35432">
        <ele>1566.6006</ele>
        <time>2025-09-13T18:00:33+02:00</time>
      </trkpt>
      <trkpt lat="42.76224" lon="1.35432">
        <ele>1566.6006</ele>
        <time>2025-09-13T18:00:37+02:00</time>
      </trkpt>
      <trkpt lat="42.76224" lon="1.35432">
        <ele>1566.6006</ele>
        <time>2025-09-13T18:00:38+02:00</time>
      </trkpt>
      <trkpt lat="42.76225" lon="1.35431">
        <ele>1566.6006</ele>
        <time>2025-09-13T18:00:42+02:00</time>
      </trkpt>
      <trkpt lat="42.76225" lon="1.3543">
        <ele>1566.6006</ele>
        <time>2025-09-13T18:00:43+02:00</time>
      </trkpt>
      <trkpt lat="42.76227" lon="1.35425">
        <ele>1559.9004</ele>
        <time>2025-09-13T18:00:47+02:00</time>
      </trkpt>
      <trkpt lat="42.76227" lon="1.35424">
        <ele>1563.7002</ele>
        <time>2025-09-13T18:00:48+02:00</time>
      </trkpt>
      <trkpt lat="42.76225" lon="1.35421">
        <ele>1570.2998</ele>
        <time>2025-09-13T18:00:52+02:00</time>
      </trkpt>
      <trkpt lat="42.76225" lon="1.35421">
        <ele>1570.2998</ele>
        <time>2025-09-13T18:00:53+02:00</time>
      </trkpt>
      <trkpt lat="42.76225" lon="1.35421">
        <ele>1570.2998</ele>
        <time>2025-09-13T18:00:57+02:00</time>
      </trkpt>
      <trkpt lat="42.76225" lon="1.35421">
        <ele>1570.2998</ele>
        <time>2025-09-13T18:00:58+02:00</time>
      </trkpt>
      <trkpt lat="42.76224" lon="1.3542">
        <ele>1570.2998</ele>
        <time>2025-09-13T18:01:02+02:00</time>
      </trkpt>
      <trkpt lat="42.76224" lon="1.35419">
        <ele>1570.2998</ele>
        <time>2025-09-13T18:01:03+02:00</time>
      </trkpt>
      <trkpt lat="42.76223" lon="1.35416">
        <ele>1570.2998</ele>
        <time>2025-09-13T18:01:07+02:00</time>
      </trkpt>
      <trkpt lat="42.76223" lon="1.35416">
        <ele>1570.2998</ele>
        <time>2025-09-13T18:01:08+02:00</time>
      </trkpt>
      <trkpt lat="42.76225" lon="1.35412">
        <ele>1573.9004</ele>
        <time>2025-09-13T18:01:12+02:00</time>
      </trkpt>
      <trkpt lat="42.76225" lon="1.35411">
        <ele>1573.9004</ele>
        <time>2025-09-13T18:01:13+02:00</time>
      </trkpt>
      <trkpt lat="42.76226" lon="1.35408">
        <ele>1573.9004</ele>
        <time>2025-09-13T18:01:17+02:00</time>
      </trkpt>
      <trkpt lat="42.76226" lon="1.35407">
        <ele>1573.9004</ele>
        <time>2025-09-13T18:01:18+02:00</time>
      </trkpt>
      <trkpt lat="42.76228" lon="1.35404">
        <ele>1570.6006</ele>
        <time>2025-09-13T18:01:22+02:00</time>
      </trkpt>
      <trkpt lat="42.76227" lon="1.35404">
        <ele>1570.6006</ele>
        <time>2025-09-13T18:01:23+02:00</time>
      </trkpt>
      <trkpt lat="42.76227" lon="1.35404">
        <ele>1570.6006</ele>
        <time>2025-09-13T18:01:27+02:00</time>
      </trkpt>
      <trkpt lat="42.76227" lon="1.35404">
        <ele>1570.6006</ele>
        <time>2025-09-13T18:01:28+02:00</time>
      </trkpt>
      <trkpt lat="42.76226" lon="1.35402">
        <ele>1577.2002</ele>
        <time>2025-09-13T18:01:32+02:00</time>
      </trkpt>
      <trkpt lat="42.76227" lon="1.354">
        <ele>1570.6006</ele>
        <time>2025-09-13T18:01:33+02:00</time>
      </trkpt>
      <trkpt lat="42.76227" lon="1.35395">
        <ele>1573.6006</ele>
        <time>2025-09-13T18:01:36+02:00</time>
      </trkpt>
      <trkpt lat="42.76228" lon="1.35393">
        <ele>1573.6006</ele>
        <time>2025-09-13T18:01:38+02:00</time>
      </trkpt>
      <trkpt lat="42.7623" lon="1.3539">
        <ele>1573.6006</ele>
        <time>2025-09-13T18:01:42+02:00</time>
      </trkpt>
      <trkpt lat="42.7623" lon="1.3539">
        <ele>1573.6006</ele>
        <time>2025-09-13T18:01:43+02:00</time>
      </trkpt>
      <trkpt lat="42.7623" lon="1.35389">
        <ele>1576</ele>
        <time>2025-09-13T18:01:48+02:00</time>
      </trkpt>
      <trkpt lat="42.76231" lon="1.35387">
        <ele>1576</ele>
        <time>2025-09-13T18:01:53+02:00</time>
      </trkpt>
      <trkpt lat="42.76232" lon="1.35387">
        <ele>1576</ele>
        <time>2025-09-13T18:01:54+02:00</time>
      </trkpt>
      <trkpt lat="42.76235" lon="1.35387">
        <ele>1569.4004</ele>
        <time>2025-09-13T18:01:58+02:00</time>
      </trkpt>
      <trkpt lat="42.76236" lon="1.35386">
        <ele>1569.4004</ele>
        <time>2025-09-13T18:01:59+02:00</time>
      </trkpt>
      <trkpt lat="42.76238" lon="1.35383">
        <ele>1569.4004</ele>
        <time>2025-09-13T18:02:03+02:00</time>
      </trkpt>
      <trkpt lat="42.76239" lon="1.35382">
        <ele>1569.4004</ele>
        <time>2025-09-13T18:02:04+02:00</time>
      </trkpt>
      <trkpt lat="42.76241" lon="1.35378">
        <ele>1565.5</ele>
        <time>2025-09-13T18:02:08+02:00</time>
      </trkpt>
      <trkpt lat="42.76242" lon="1.35377">
        <ele>1565.5</ele>
        <time>2025-09-13T18:02:09+02:00</time>
      </trkpt>
      <trkpt lat="42.76242" lon="1.35375">
        <ele>1565.5</ele>
        <time>2025-09-13T18:02:13+02:00</time>
      </trkpt>
      <trkpt lat="42.76243" lon="1.35374">
        <ele>1565.5</ele>
        <time>2025-09-13T18:02:14+02:00</time>
      </trkpt>
      <trkpt lat="42.76245" lon="1.35373">
        <ele>1565.5</ele>
        <time>2025-09-13T18:02:18+02:00</time>
      </trkpt>
      <trkpt lat="42.76245" lon="1.35373">
        <ele>1565.5</ele>
        <time>2025-09-13T18:02:20+02:00</time>
      </trkpt>
      <trkpt lat="42.76246" lon="1.35373">
        <ele>1557.7002</ele>
        <time>2025-09-13T18:02:24+02:00</time>
      </trkpt>
      <trkpt lat="42.76247" lon="1.35372">
        <ele>1557.7002</ele>
        <time>2025-09-13T18:02:25+02:00</time>
      </trkpt>
      <trkpt lat="42.76249" lon="1.35372">
        <ele>1561.1006</ele>
        <time>2025-09-13T18:02:29+02:00</time>
      </trkpt>
      <trkpt lat="42.7625" lon="1.35372">
        <ele>1561.1006</ele>
        <time>2025-09-13T18:02:30+02:00</time>
      </trkpt>
      <trkpt lat="42.76253" lon="1.3537">
        <ele>1552.9004</ele>
        <time>2025-09-13T18:02:34+02:00</time>
      </trkpt>
      <trkpt lat="42.76254" lon="1.3537">
        <ele>1552.9004</ele>
        <time>2025-09-13T18:02:35+02:00</time>
      </trkpt>
      <trkpt lat="42.76254" lon="1.35368">
        <ele>1552.9004</ele>
        <time>2025-09-13T18:02:39+02:00</time>
      </trkpt>
      <trkpt lat="42.76254" lon="1.35367">
        <ele>1552.9004</ele>
        <time>2025-09-13T18:02:40+02:00</time>
      </trkpt>
      <trkpt lat="42.76254" lon="1.35367">
        <ele>1552.9004</ele>
        <time>2025-09-13T18:02:44+02:00</time>
      </trkpt>
      <trkpt lat="42.76254" lon="1.35367">
        <ele>1552.9004</ele>
        <time>2025-09-13T18:02:45+02:00</time>
      </trkpt>
      <trkpt lat="42.76254" lon="1.35367">
        <ele>1552.9004</ele>
        <time>2025-09-13T18:02:49+02:00</time>
      </trkpt>
      <trkpt lat="42.76254" lon="1.35367">
        <ele>1552.9004</ele>
        <time>2025-09-13T18:02:50+02:00</time>
      </trkpt>
      <trkpt lat="42.76253" lon="1.35366">
        <ele>1552.9004</ele>
        <time>2025-09-13T18:02:54+02:00</time>
      </trkpt>
      <trkpt lat="42.76253" lon="1.35366">
        <ele>1552.9004</ele>
        <time>2025-09-13T18:02:55+02:00</time>
      </trkpt>
      <trkpt lat="42.76253" lon="1.35366">
        <ele>1552.9004</ele>
        <time>2025-09-13T18:02:59+02:00</time>
      </trkpt>
      <trkpt lat="42.76253" lon="1.35366">
        <ele>1552.9004</ele>
        <time>2025-09-13T18:03:00+02:00</time>
      </trkpt>
      <trkpt lat="42.76252" lon="1.35365">
        <ele>1552.9004</ele>
        <time>2025-09-13T18:03:04+02:00</time>
      </trkpt>
      <trkpt lat="42.76252" lon="1.35365">
        <ele>1552.9004</ele>
        <time>2025-09-13T18:03:05+02:00</time>
      </trkpt>
      <trkpt lat="42.76252" lon="1.35365">
        <ele>1552.9004</ele>
        <time>2025-09-13T18:03:09+02:00</time>
      </trkpt>
      <trkpt lat="42.76252" lon="1.35365">
        <ele>1552.9004</ele>
        <time>2025-09-13T18:03:10+02:00</time>
      </trkpt>
      <trkpt lat="42.76252" lon="1.35365">
        <ele>1552.9004</ele>
        <time>2025-09-13T18:03:14+02:00</time>
      </trkpt>
      <trkpt lat="42.76252" lon="1.35365">
        <ele>1552.9004</ele>
        <time>2025-09-13T18:03:15+02:00</time>
      </trkpt>
      <trkpt lat="42.76252" lon="1.35365">
        <ele>1552.9004</ele>
        <time>2025-09-13T18:03:19+02:00</time>
      </trkpt>
      <trkpt lat="42.76252" lon="1.35365">
        <ele>1552.9004</ele>
        <time>2025-09-13T18:03:20+02:00</time>
      </trkpt>
      <trkpt lat="42.76252" lon="1.35364">
        <ele>1556.1006</ele>
        <time>2025-09-13T18:03:24+02:00</time>
      </trkpt>
      <trkpt lat="42.76252" lon="1.35363">
        <ele>1556.1006</ele>
        <time>2025-09-13T18:03:25+02:00</time>
      </trkpt>
      <trkpt lat="42.76252" lon="1.35359">
        <ele>1564.2002</ele>
        <time>2025-09-13T18:03:29+02:00</time>
      </trkpt>
      <trkpt lat="42.76252" lon="1.35359">
        <ele>1564.2002</ele>
        <time>2025-09-13T18:03:30+02:00</time>
      </trkpt>
      <trkpt lat="42.76253" lon="1.35355">
        <ele>1556.1006</ele>
        <time>2025-09-13T18:03:34+02:00</time>
      </trkpt>
      <trkpt lat="42.76254" lon="1.35352">
        <ele>1559</ele>
        <time>2025-09-13T18:03:39+02:00</time>
      </trkpt>
      <trkpt lat="42.76255" lon="1.35351">
        <ele>1559</ele>
        <time>2025-09-13T18:03:40+02:00</time>
      </trkpt>
      <trkpt lat="42.76255" lon="1.35347">
        <ele>1559</ele>
        <time>2025-09-13T18:03:44+02:00</time>
      </trkpt>
      <trkpt lat="42.76255" lon="1.35347">
        <ele>1559</ele>
        <time>2025-09-13T18:03:45+02:00</time>
      </trkpt>
      <trkpt lat="42.76254" lon="1.35342">
        <ele>1562</ele>
        <time>2025-09-13T18:03:49+02:00</time>
      </trkpt>
      <trkpt lat="42.76253" lon="1.35341">
        <ele>1562</ele>
        <time>2025-09-13T18:03:50+02:00</time>
      </trkpt>
      <trkpt lat="42.76254" lon="1.35337">
        <ele>1565</ele>
        <time>2025-09-13T18:03:54+02:00</time>
      </trkpt>
      <trkpt lat="42.76255" lon="1.35337">
        <ele>1565</ele>
        <time>2025-09-13T18:03:55+02:00</time>
      </trkpt>
      <trkpt lat="42.76259" lon="1.35337">
        <ele>1556.9004</ele>
        <time>2025-09-13T18:03:59+02:00</time>
      </trkpt>
      <trkpt lat="42.7626" lon="1.35338">
        <ele>1556.9004</ele>
        <time>2025-09-13T18:04:00+02:00</time>
      </trkpt>
      <trkpt lat="42.76263" lon="1.35337">
        <ele>1556.9004</ele>
        <time>2025-09-13T18:04:04+02:00</time>
      </trkpt>
      <trkpt lat="42.76264" lon="1.35336">
        <ele>1556.9004</ele>
        <time>2025-09-13T18:04:05+02:00</time>
      </trkpt>
      <trkpt lat="42.76268" lon="1.35333">
        <ele>1548.7002</ele>
        <time>2025-09-13T18:04:09+02:00</time>
      </trkpt>
      <trkpt lat="42.76269" lon="1.35333">
        <ele>1548.7002</ele>
        <time>2025-09-13T18:04:10+02:00</time>
      </trkpt>
      <trkpt lat="42.76272" lon="1.35331">
        <ele>1540.2998</ele>
        <time>2025-09-13T18:04:14+02:00</time>
      </trkpt>
      <trkpt lat="42.76272" lon="1.3533">
        <ele>1540.2998</ele>
        <time>2025-09-13T18:04:15+02:00</time>
      </trkpt>
      <trkpt lat="42.76274" lon="1.35327">
        <ele>1543.7002</ele>
        <time>2025-09-13T18:04:19+02:00</time>
      </trkpt>
      <trkpt lat="42.76274" lon="1.35326">
        <ele>1543.7002</ele>
        <time>2025-09-13T18:04:20+02:00</time>
      </trkpt>
      <trkpt lat="42.76274" lon="1.35321">
        <ele>1543.7002</ele>
        <time>2025-09-13T18:04:24+02:00</time>
      </trkpt>
      <trkpt lat="42.76274" lon="1.3532">
        <ele>1547.5</ele>
        <time>2025-09-13T18:04:25+02:00</time>
      </trkpt>
      <trkpt lat="42.76271" lon="1.35318">
        <ele>1547.5</ele>
        <time>2025-09-13T18:04:29+02:00</time>
      </trkpt>
      <trkpt lat="42.7627" lon="1.35318">
        <ele>1555.6006</ele>
        <time>2025-09-13T18:04:30+02:00</time>
      </trkpt>
      <trkpt lat="42.76268" lon="1.35318">
        <ele>1555.6006</ele>
        <time>2025-09-13T18:04:34+02:00</time>
      </trkpt>
      <trkpt lat="42.76268" lon="1.35318">
        <ele>1555.6006</ele>
        <time>2025-09-13T18:04:35+02:00</time>
      </trkpt>
      <trkpt lat="42.76266" lon="1.35319">
        <ele>1555.6006</ele>
        <time>2025-09-13T18:04:39+02:00</time>
      </trkpt>
      <trkpt lat="42.76265" lon="1.35319">
        <ele>1555.6006</ele>
        <time>2025-09-13T18:04:40+02:00</time>
      </trkpt>
      <trkpt lat="42.76262" lon="1.3532">
        <ele>1563.6006</ele>
        <time>2025-09-13T18:04:44+02:00</time>
      </trkpt>
      <trkpt lat="42.76262" lon="1.35319">
        <ele>1563.6006</ele>
        <time>2025-09-13T18:04:45+02:00</time>
      </trkpt>
      <trkpt lat="42.76261" lon="1.35316">
        <ele>1563.6006</ele>
        <time>2025-09-13T18:04:48+02:00</time>
      </trkpt>
      <trkpt lat="42.76262" lon="1.35315">
        <ele>1563.6006</ele>
        <time>2025-09-13T18:04:50+02:00</time>
      </trkpt>
      <trkpt lat="42.76264" lon="1.35312">
        <ele>1567</ele>
        <time>2025-09-13T18:04:54+02:00</time>
      </trkpt>
      <trkpt lat="42.76264" lon="1.35312">
        <ele>1559.2002</ele>
        <time>2025-09-13T18:04:55+02:00</time>
      </trkpt>
      <trkpt lat="42.76266" lon="1.35312">
        <ele>1559.2002</ele>
        <time>2025-09-13T18:04:59+02:00</time>
      </trkpt>
      <trkpt lat="42.76266" lon="1.35312">
        <ele>1555.6006</ele>
        <time>2025-09-13T18:05:00+02:00</time>
      </trkpt>
      <trkpt lat="42.76266" lon="1.35313">
        <ele>1555.6006</ele>
        <time>2025-09-13T18:05:04+02:00</time>
      </trkpt>
      <trkpt lat="42.76266" lon="1.35313">
        <ele>1555.6006</ele>
        <time>2025-09-13T18:05:05+02:00</time>
      </trkpt>
      <trkpt lat="42.76267" lon="1.35313">
        <ele>1555.6006</ele>
        <time>2025-09-13T18:05:09+02:00</time>
      </trkpt>
      <trkpt lat="42.76267" lon="1.35313">
        <ele>1555.6006</ele>
        <time>2025-09-13T18:05:10+02:00</time>
      </trkpt>
      <trkpt lat="42.76267" lon="1.35313">
        <ele>1555.6006</ele>
        <time>2025-09-13T18:05:14+02:00</time>
      </trkpt>
      <trkpt lat="42.76267" lon="1.35313">
        <ele>1555.6006</ele>
        <time>2025-09-13T18:05:15+02:00</time>
      </trkpt>
      <trkpt lat="42.76267" lon="1.35313">
        <ele>1555.6006</ele>
        <time>2025-09-13T18:05:19+02:00</time>
      </trkpt>
      <trkpt lat="42.76267" lon="1.35313">
        <ele>1555.6006</ele>
        <time>2025-09-13T18:05:20+02:00</time>
      </trkpt>
      <trkpt lat="42.76267" lon="1.35313">
        <ele>1555.6006</ele>
        <time>2025-09-13T18:05:24+02:00</time>
      </trkpt>
      <trkpt lat="42.76267" lon="1.35313">
        <ele>1555.6006</ele>
        <time>2025-09-13T18:05:25+02:00</time>
      </trkpt>
      <trkpt lat="42.76267" lon="1.35313">
        <ele>1555.6006</ele>
        <time>2025-09-13T18:05:29+02:00</time>
      </trkpt>
      <trkpt lat="42.76267" lon="1.35313">
        <ele>1555.6006</ele>
        <time>2025-09-13T18:05:30+02:00</time>
      </trkpt>
      <trkpt lat="42.76267" lon="1.35314">
        <ele>1555.6006</ele>
        <time>2025-09-13T18:05:34+02:00</time>
      </trkpt>
      <trkpt lat="42.76267" lon="1.35313">
        <ele>1555.6006</ele>
        <time>2025-09-13T18:05:35+02:00</time>
      </trkpt>
      <trkpt lat="42.76267" lon="1.35313">
        <ele>1555.6006</ele>
        <time>2025-09-13T18:05:39+02:00</time>
      </trkpt>
      <trkpt lat="42.76267" lon="1.35313">
        <ele>1555.6006</ele>
        <time>2025-09-13T18:05:40+02:00</time>
      </trkpt>
      <trkpt lat="42.76267" lon="1.35313">
        <ele>1555.6006</ele>
        <time>2025-09-13T18:05:44+02:00</time>
      </trkpt>
      <trkpt lat="42.76267" lon="1.35313">
        <ele>1555.6006</ele>
        <time>2025-09-13T18:05:45+02:00</time>
      </trkpt>
      <trkpt lat="42.76266" lon="1.35311">
        <ele>1559.2002</ele>
        <time>2025-09-13T18:05:49+02:00</time>
      </trkpt>
      <trkpt lat="42.76266" lon="1.35311">
        <ele>1559.2002</ele>
        <time>2025-09-13T18:05:50+02:00</time>
      </trkpt>
      <trkpt lat="42.76264" lon="1.35309">
        <ele>1567</ele>
        <time>2025-09-13T18:05:54+02:00</time>
      </trkpt>
      <trkpt lat="42.76264" lon="1.35309">
        <ele>1567</ele>
        <time>2025-09-13T18:05:55+02:00</time>
      </trkpt>
      <trkpt lat="42.76262" lon="1.35307">
        <ele>1567</ele>
        <time>2025-09-13T18:06:00+02:00</time>
      </trkpt>
      <trkpt lat="42.76262" lon="1.35307">
        <ele>1567</ele>
        <time>2025-09-13T18:06:01+02:00</time>
      </trkpt>
      <trkpt lat="42.76261" lon="1.35307">
        <ele>1567</ele>
        <time>2025-09-13T18:06:05+02:00</time>
      </trkpt>
      <trkpt lat="42.76261" lon="1.35306">
        <ele>1567</ele>
        <time>2025-09-13T18:06:06+02:00</time>
      </trkpt>
      <trkpt lat="42.76261" lon="1.35306">
        <ele>1567</ele>
        <time>2025-09-13T18:06:09+02:00</time>
      </trkpt>
      <trkpt lat="42.7626" lon="1.35306">
        <ele>1567</ele>
        <time>2025-09-13T18:06:11+02:00</time>
      </trkpt>
      <trkpt lat="42.76259" lon="1.35304">
        <ele>1567</ele>
        <time>2025-09-13T18:06:15+02:00</time>
      </trkpt>
      <trkpt lat="42.76259" lon="1.35304">
        <ele>1567</ele>
        <time>2025-09-13T18:06:16+02:00</time>
      </trkpt>
      <trkpt lat="42.76258" lon="1.35304">
        <ele>1574.5</ele>
        <time>2025-09-13T18:06:20+02:00</time>
      </trkpt>
      <trkpt lat="42.76257" lon="1.35303">
        <ele>1577.6006</ele>
        <time>2025-09-13T18:06:21+02:00</time>
      </trkpt>
      <trkpt lat="42.76256" lon="1.353">
        <ele>1577.6006</ele>
        <time>2025-09-13T18:06:25+02:00</time>
      </trkpt>
      <trkpt lat="42.76256" lon="1.35298">
        <ele>1577.6006</ele>
        <time>2025-09-13T18:06:26+02:00</time>
      </trkpt>
      <trkpt lat="42.76259" lon="1.35295">
        <ele>1573.2998</ele>
        <time>2025-09-13T18:06:30+02:00</time>
      </trkpt>
      <trkpt lat="42.76259" lon="1.35294">
        <ele>1573.2998</ele>
        <time>2025-09-13T18:06:31+02:00</time>
      </trkpt>
      <trkpt lat="42.7626" lon="1.35294">
        <ele>1573.2998</ele>
        <time>2025-09-13T18:06:35+02:00</time>
      </trkpt>
      <trkpt lat="42.7626" lon="1.35294">
        <ele>1573.2998</ele>
        <time>2025-09-13T18:06:36+02:00</time>
      </trkpt>
      <trkpt lat="42.76261" lon="1.35295">
        <ele>1570.2002</ele>
        <time>2025-09-13T18:06:40+02:00</time>
      </trkpt>
      <trkpt lat="42.76261" lon="1.35295">
        <ele>1570.2002</ele>
        <time>2025-09-13T18:06:41+02:00</time>
      </trkpt>
      <trkpt lat="42.76262" lon="1.35296">
        <ele>1570.2002</ele>
        <time>2025-09-13T18:06:45+02:00</time>
      </trkpt>
      <trkpt lat="42.76262" lon="1.35296">
        <ele>1570.2002</ele>
        <time>2025-09-13T18:06:46+02:00</time>
      </trkpt>
      <trkpt lat="42.76262" lon="1.35295">
        <ele>1570.2002</ele>
        <time>2025-09-13T18:06:50+02:00</time>
      </trkpt>
      <trkpt lat="42.76263" lon="1.35295">
        <ele>1573.2998</ele>
        <time>2025-09-13T18:06:51+02:00</time>
      </trkpt>
      <trkpt lat="42.76262" lon="1.35295">
        <ele>1570.2002</ele>
        <time>2025-09-13T18:06:55+02:00</time>
      </trkpt>
      <trkpt lat="42.76262" lon="1.35295">
        <ele>1573.2998</ele>
        <time>2025-09-13T18:06:56+02:00</time>
      </trkpt>
      <trkpt lat="42.76262" lon="1.35295">
        <ele>1573.2998</ele>
        <time>2025-09-13T18:07:00+02:00</time>
      </trkpt>
      <trkpt lat="42.76262" lon="1.35294">
        <ele>1573.2998</ele>
        <time>2025-09-13T18:07:01+02:00</time>
      </trkpt>
      <trkpt lat="42.76261" lon="1.35295">
        <ele>1573.2998</ele>
        <time>2025-09-13T18:07:05+02:00</time>
      </trkpt>
      <trkpt lat="42.76261" lon="1.35295">
        <ele>1573.2998</ele>
        <time>2025-09-13T18:07:06+02:00</time>
      </trkpt>
      <trkpt lat="42.76259" lon="1.35294">
        <ele>1573.2998</ele>
        <time>2025-09-13T18:07:11+02:00</time>
      </trkpt>
      <trkpt lat="42.76258" lon="1.35294">
        <ele>1573.2998</ele>
        <time>2025-09-13T18:07:12+02:00</time>
      </trkpt>
      <trkpt lat="42.76257" lon="1.35292">
        <ele>1580.4004</ele>
        <time>2025-09-13T18:07:16+02:00</time>
      </trkpt>
      <trkpt lat="42.76257" lon="1.35292">
        <ele>1580.4004</ele>
        <time>2025-09-13T18:07:17+02:00</time>
      </trkpt>
      <trkpt lat="42.76256" lon="1.3529">
        <ele>1580.4004</ele>
        <time>2025-09-13T18:07:21+02:00</time>
      </trkpt>
      <trkpt lat="42.76256" lon="1.3529">
        <ele>1580.4004</ele>
        <time>2025-09-13T18:07:22+02:00</time>
      </trkpt>
      <trkpt lat="42.76255" lon="1.35289">
        <ele>1580.4004</ele>
        <time>2025-09-13T18:07:26+02:00</time>
      </trkpt>
      <trkpt lat="42.76255" lon="1.35289">
        <ele>1580.4004</ele>
        <time>2025-09-13T18:07:27+02:00</time>
      </trkpt>
      <trkpt lat="42.76255" lon="1.3529">
        <ele>1580.4004</ele>
        <time>2025-09-13T18:07:32+02:00</time>
      </trkpt>
      <trkpt lat="42.76255" lon="1.3529">
        <ele>1580.4004</ele>
        <time>2025-09-13T18:07:33+02:00</time>
      </trkpt>
      <trkpt lat="42.76254" lon="1.3529">
        <ele>1580.4004</ele>
        <time>2025-09-13T18:07:37+02:00</time>
      </trkpt>
      <trkpt lat="42.76254" lon="1.3529">
        <ele>1580.4004</ele>
        <time>2025-09-13T18:07:38+02:00</time>
      </trkpt>
      <trkpt lat="42.76254" lon="1.3529">
        <ele>1580.4004</ele>
        <time>2025-09-13T18:07:42+02:00</time>
      </trkpt>
      <trkpt lat="42.76253" lon="1.35289">
        <ele>1580.4004</ele>
        <time>2025-09-13T18:07:43+02:00</time>
      </trkpt>
      <trkpt lat="42.76251" lon="1.35289">
        <ele>1587.4004</ele>
        <time>2025-09-13T18:07:47+02:00</time>
      </trkpt>
      <trkpt lat="42.76251" lon="1.35289">
        <ele>1587.4004</ele>
        <time>2025-09-13T18:07:48+02:00</time>
      </trkpt>
      <trkpt lat="42.76251" lon="1.35288">
        <ele>1587.4004</ele>
        <time>2025-09-13T18:07:52+02:00</time>
      </trkpt>
      <trkpt lat="42.76251" lon="1.35288">
        <ele>1587.4004</ele>
        <time>2025-09-13T18:07:53+02:00</time>
      </trkpt>
      <trkpt lat="42.76253" lon="1.35287">
        <ele>1580.4004</ele>
        <time>2025-09-13T18:07:57+02:00</time>
      </trkpt>
      <trkpt lat="42.76252" lon="1.35287">
        <ele>1580.4004</ele>
        <time>2025-09-13T18:07:58+02:00</time>
      </trkpt>
      <trkpt lat="42.76252" lon="1.35281">
        <ele>1583.1006</ele>
        <time>2025-09-13T18:08:02+02:00</time>
      </trkpt>
      <trkpt lat="42.76253" lon="1.3528">
        <ele>1583.1006</ele>
        <time>2025-09-13T18:08:03+02:00</time>
      </trkpt>
      <trkpt lat="42.76255" lon="1.35276">
        <ele>1585.6006</ele>
        <time>2025-09-13T18:08:07+02:00</time>
      </trkpt>
      <trkpt lat="42.76256" lon="1.35275">
        <ele>1585.6006</ele>
        <time>2025-09-13T18:08:08+02:00</time>
      </trkpt>
      <trkpt lat="42.76258" lon="1.35276">
        <ele>1578.7998</ele>
        <time>2025-09-13T18:08:12+02:00</time>
      </trkpt>
      <trkpt lat="42.76259" lon="1.35276">
        <ele>1578.7998</ele>
        <time>2025-09-13T18:08:13+02:00</time>
      </trkpt>
      <trkpt lat="42.7626" lon="1.35276">
        <ele>1578.7998</ele>
        <time>2025-09-13T18:08:17+02:00</time>
      </trkpt>
      <trkpt lat="42.7626" lon="1.35276">
        <ele>1578.7998</ele>
        <time>2025-09-13T18:08:18+02:00</time>
      </trkpt>
      <trkpt lat="42.76259" lon="1.35274">
        <ele>1578.7998</ele>
        <time>2025-09-13T18:08:22+02:00</time>
      </trkpt>
      <trkpt lat="42.76259" lon="1.35273">
        <ele>1578.7998</ele>
        <time>2025-09-13T18:08:23+02:00</time>
      </trkpt>
      <trkpt lat="42.76258" lon="1.3527">
        <ele>1578.7998</ele>
        <time>2025-09-13T18:08:27+02:00</time>
      </trkpt>
      <trkpt lat="42.76258" lon="1.35269">
        <ele>1578.7998</ele>
        <time>2025-09-13T18:08:28+02:00</time>
      </trkpt>
      <trkpt lat="42.76259" lon="1.35268">
        <ele>1581.2002</ele>
        <time>2025-09-13T18:08:32+02:00</time>
      </trkpt>
      <trkpt lat="42.76259" lon="1.35268">
        <ele>1581.2002</ele>
        <time>2025-09-13T18:08:33+02:00</time>
      </trkpt>
      <trkpt lat="42.76258" lon="1.35267">
        <ele>1581.2002</ele>
        <time>2025-09-13T18:08:37+02:00</time>
      </trkpt>
      <trkpt lat="42.76258" lon="1.35266">
        <ele>1581.2002</ele>
        <time>2025-09-13T18:08:38+02:00</time>
      </trkpt>
      <trkpt lat="42.76261" lon="1.35263">
        <ele>1581.2002</ele>
        <time>2025-09-13T18:08:42+02:00</time>
      </trkpt>
      <trkpt lat="42.76262" lon="1.35262">
        <ele>1581.2002</ele>
        <time>2025-09-13T18:08:43+02:00</time>
      </trkpt>
      <trkpt lat="42.76263" lon="1.35258">
        <ele>1583.4004</ele>
        <time>2025-09-13T18:08:47+02:00</time>
      </trkpt>
      <trkpt lat="42.76263" lon="1.35254">
        <ele>1583.4004</ele>
        <time>2025-09-13T18:08:52+02:00</time>
      </trkpt>
      <trkpt lat="42.76262" lon="1.35254">
        <ele>1583.4004</ele>
        <time>2025-09-13T18:08:53+02:00</time>
      </trkpt>
      <trkpt lat="42.76262" lon="1.35252">
        <ele>1583.4004</ele>
        <time>2025-09-13T18:08:57+02:00</time>
      </trkpt>
      <trkpt lat="42.76262" lon="1.35252">
        <ele>1583.4004</ele>
        <time>2025-09-13T18:08:58+02:00</time>
      </trkpt>
      <trkpt lat="42.76262" lon="1.35247">
        <ele>1585.6006</ele>
        <time>2025-09-13T18:09:02+02:00</time>
      </trkpt>
      <trkpt lat="42.76262" lon="1.35246">
        <ele>1585.6006</ele>
        <time>2025-09-13T18:09:03+02:00</time>
      </trkpt>
      <trkpt lat="42.76265" lon="1.35243">
        <ele>1581.7002</ele>
        <time>2025-09-13T18:09:08+02:00</time>
      </trkpt>
      <trkpt lat="42.76266" lon="1.35243">
        <ele>1581.7002</ele>
        <time>2025-09-13T18:09:09+02:00</time>
      </trkpt>
      <trkpt lat="42.76267" lon="1.3524">
        <ele>1581.7002</ele>
        <time>2025-09-13T18:09:13+02:00</time>
      </trkpt>
      <trkpt lat="42.76267" lon="1.35238">
        <ele>1581.7002</ele>
        <time>2025-09-13T18:09:14+02:00</time>
      </trkpt>
      <trkpt lat="42.76268" lon="1.35235">
        <ele>1584</ele>
        <time>2025-09-13T18:09:18+02:00</time>
      </trkpt>
      <trkpt lat="42.76268" lon="1.35234">
        <ele>1584</ele>
        <time>2025-09-13T18:09:19+02:00</time>
      </trkpt>
      <trkpt lat="42.76268" lon="1.35235">
        <ele>1581.7002</ele>
        <time>2025-09-13T18:09:23+02:00</time>
      </trkpt>
      <trkpt lat="42.76268" lon="1.35236">
        <ele>1581.7002</ele>
        <time>2025-09-13T18:09:24+02:00</time>
      </trkpt>
      <trkpt lat="42.76269" lon="1.35236">
        <ele>1581.7002</ele>
        <time>2025-09-13T18:09:28+02:00</time>
      </trkpt>
      <trkpt lat="42.76269" lon="1.35236">
        <ele>1581.7002</ele>
        <time>2025-09-13T18:09:29+02:00</time>
      </trkpt>
      <trkpt lat="42.76271" lon="1.35233">
        <ele>1578</ele>
        <time>2025-09-13T18:09:33+02:00</time>
      </trkpt>
      <trkpt lat="42.76271" lon="1.35233">
        <ele>1578</ele>
        <time>2025-09-13T18:09:34+02:00</time>
      </trkpt>
      <trkpt lat="42.76273" lon="1.35231">
        <ele>1578</ele>
        <time>2025-09-13T18:09:38+02:00</time>
      </trkpt>
      <trkpt lat="42.76274" lon="1.35231">
        <ele>1578</ele>
        <time>2025-09-13T18:09:39+02:00</time>
      </trkpt>
      <trkpt lat="42.76278" lon="1.35229">
        <ele>1572</ele>
        <time>2025-09-13T18:09:43+02:00</time>
      </trkpt>
      <trkpt lat="42.76279" lon="1.35228">
        <ele>1572</ele>
        <time>2025-09-13T18:09:44+02:00</time>
      </trkpt>
      <trkpt lat="42.76281" lon="1.35228">
        <ele>1572</ele>
        <time>2025-09-13T18:09:48+02:00</time>
      </trkpt>
      <trkpt lat="42.76282" lon="1.35228">
        <ele>1572</ele>
        <time>2025-09-13T18:09:49+02:00</time>
      </trkpt>
      <trkpt lat="42.76282" lon="1.35228">
        <ele>1572</ele>
        <time>2025-09-13T18:09:53+02:00</time>
      </trkpt>
      <trkpt lat="42.76282" lon="1.35228">
        <ele>1572</ele>
        <time>2025-09-13T18:09:54+02:00</time>
      </trkpt>
      <trkpt lat="42.76285" lon="1.35227">
        <ele>1565.9004</ele>
        <time>2025-09-13T18:09:58+02:00</time>
      </trkpt>
      <trkpt lat="42.76286" lon="1.35227">
        <ele>1565.9004</ele>
        <time>2025-09-13T18:09:59+02:00</time>
      </trkpt>
      <trkpt lat="42.76285" lon="1.35229">
        <ele>1565.9004</ele>
        <time>2025-09-13T18:10:03+02:00</time>
      </trkpt>
      <trkpt lat="42.76285" lon="1.35229">
        <ele>1565.9004</ele>
        <time>2025-09-13T18:10:04+02:00</time>
      </trkpt>
      <trkpt lat="42.76282" lon="1.3523">
        <ele>1572</ele>
        <time>2025-09-13T18:10:08+02:00</time>
      </trkpt>
      <trkpt lat="42.76282" lon="1.35231">
        <ele>1572</ele>
        <time>2025-09-13T18:10:09+02:00</time>
      </trkpt>
      <trkpt lat="42.76282" lon="1.35232">
        <ele>1572</ele>
        <time>2025-09-13T18:10:13+02:00</time>
      </trkpt>
      <trkpt lat="42.76282" lon="1.35232">
        <ele>1572</ele>
        <time>2025-09-13T18:10:14+02:00</time>
      </trkpt>
      <trkpt lat="42.76282" lon="1.35233">
        <ele>1572</ele>
        <time>2025-09-13T18:10:18+02:00</time>
      </trkpt>
      <trkpt lat="42.76282" lon="1.35232">
        <ele>1572</ele>
        <time>2025-09-13T18:10:19+02:00</time>
      </trkpt>
      <trkpt lat="42.76283" lon="1.3523">
        <ele>1565.9004</ele>
        <time>2025-09-13T18:10:23+02:00</time>
      </trkpt>
      <trkpt lat="42.76283" lon="1.35229">
        <ele>1565.9004</ele>
        <time>2025-09-13T18:10:24+02:00</time>
      </trkpt>
      <trkpt lat="42.76283" lon="1.35226">
        <ele>1568.6006</ele>
        <time>2025-09-13T18:10:28+02:00</time>
      </trkpt>
      <trkpt lat="42.76283" lon="1.35225">
        <ele>1568.6006</ele>
        <time>2025-09-13T18:10:29+02:00</time>
      </trkpt>
      <trkpt lat="42.76284" lon="1.35224">
        <ele>1568.6006</ele>
        <time>2025-09-13T18:10:33+02:00</time>
      </trkpt>
      <trkpt lat="42.76284" lon="1.35225">
        <ele>1568.6006</ele>
        <time>2025-09-13T18:10:34+02:00</time>
      </trkpt>
      <trkpt lat="42.76284" lon="1.35225">
        <ele>1568.6006</ele>
        <time>2025-09-13T18:10:38+02:00</time>
      </trkpt>
      <trkpt lat="42.76284" lon="1.35225">
        <ele>1568.6006</ele>
        <time>2025-09-13T18:10:39+02:00</time>
      </trkpt>
      <trkpt lat="42.76283" lon="1.3522">
        <ele>1568.6006</ele>
        <time>2025-09-13T18:10:43+02:00</time>
      </trkpt>
      <trkpt lat="42.76283" lon="1.3522">
        <ele>1574.6006</ele>
        <time>2025-09-13T18:10:44+02:00</time>
      </trkpt>
      <trkpt lat="42.76283" lon="1.35217">
        <ele>1577.2998</ele>
        <time>2025-09-13T18:10:48+02:00</time>
      </trkpt>
      <trkpt lat="42.76283" lon="1.35216">
        <ele>1571.4004</ele>
        <time>2025-09-13T18:10:49+02:00</time>
      </trkpt>
      <trkpt lat="42.76286" lon="1.35214">
        <ele>1571.4004</ele>
        <time>2025-09-13T18:10:53+02:00</time>
      </trkpt>
      <trkpt lat="42.76287" lon="1.35215">
        <ele>1571.4004</ele>
        <time>2025-09-13T18:10:54+02:00</time>
      </trkpt>
      <trkpt lat="42.76289" lon="1.35215">
        <ele>1571.4004</ele>
        <time>2025-09-13T18:10:58+02:00</time>
      </trkpt>
      <trkpt lat="42.76288" lon="1.35215">
        <ele>1571.4004</ele>
        <time>2025-09-13T18:10:59+02:00</time>
      </trkpt>
      <trkpt lat="42.76287" lon="1.35215">
        <ele>1571.4004</ele>
        <time>2025-09-13T18:11:03+02:00</time>
      </trkpt>
      <trkpt lat="42.76287" lon="1.35215">
        <ele>1571.4004</ele>
        <time>2025-09-13T18:11:04+02:00</time>
      </trkpt>
      <trkpt lat="42.76287" lon="1.35215">
        <ele>1571.4004</ele>
        <time>2025-09-13T18:11:08+02:00</time>
      </trkpt>
      <trkpt lat="42.76287" lon="1.35214">
        <ele>1571.4004</ele>
        <time>2025-09-13T18:11:09+02:00</time>
      </trkpt>
      <trkpt lat="42.76287" lon="1.35214">
        <ele>1571.4004</ele>
        <time>2025-09-13T18:11:13+02:00</time>
      </trkpt>
      <trkpt lat="42.76287" lon="1.35214">
        <ele>1571.4004</ele>
        <time>2025-09-13T18:11:14+02:00</time>
      </trkpt>
      <trkpt lat="42.76288" lon="1.35214">
        <ele>1571.4004</ele>
        <time>2025-09-13T18:11:18+02:00</time>
      </trkpt>
      <trkpt lat="42.76288" lon="1.35213">
        <ele>1571.4004</ele>
        <time>2025-09-13T18:11:19+02:00</time>
      </trkpt>
      <trkpt lat="42.76288" lon="1.35212">
        <ele>1571.4004</ele>
        <time>2025-09-13T18:11:23+02:00</time>
      </trkpt>
      <trkpt lat="42.76289" lon="1.35212">
        <ele>1565.6006</ele>
        <time>2025-09-13T18:11:24+02:00</time>
      </trkpt>
      <trkpt lat="42.76294" lon="1.35213">
        <ele>1565.6006</ele>
        <time>2025-09-13T18:11:28+02:00</time>
      </trkpt>
      <trkpt lat="42.76294" lon="1.35212">
        <ele>1565.6006</ele>
        <time>2025-09-13T18:11:29+02:00</time>
      </trkpt>
      <trkpt lat="42.76294" lon="1.3521">
        <ele>1565.6006</ele>
        <time>2025-09-13T18:11:33+02:00</time>
      </trkpt>
      <trkpt lat="42.76294" lon="1.3521">
        <ele>1565.6006</ele>
        <time>2025-09-13T18:11:34+02:00</time>
      </trkpt>
      <trkpt lat="42.76296" lon="1.3521">
        <ele>1559.9004</ele>
        <time>2025-09-13T18:11:38+02:00</time>
      </trkpt>
      <trkpt lat="42.76297" lon="1.3521">
        <ele>1559.9004</ele>
        <time>2025-09-13T18:11:39+02:00</time>
      </trkpt>
      <trkpt lat="42.76297" lon="1.35211">
        <ele>1559.9004</ele>
        <time>2025-09-13T18:11:43+02:00</time>
      </trkpt>
      <trkpt lat="42.76298" lon="1.35211">
        <ele>1559.9004</ele>
        <time>2025-09-13T18:11:44+02:00</time>
      </trkpt>
      <trkpt lat="42.76303" lon="1.35214">
        <ele>1554.2998</ele>
        <time>2025-09-13T18:11:48+02:00</time>
      </trkpt>
      <trkpt lat="42.76304" lon="1.35215">
        <ele>1554.2998</ele>
        <time>2025-09-13T18:11:49+02:00</time>
      </trkpt>
      <trkpt lat="42.76307" lon="1.35218">
        <ele>1551</ele>
        <time>2025-09-13T18:11:53+02:00</time>
      </trkpt>
      <trkpt lat="42.76307" lon="1.35218">
        <ele>1551</ele>
        <time>2025-09-13T18:11:54+02:00</time>
      </trkpt>
      <trkpt lat="42.76308" lon="1.35221">
        <ele>1551</ele>
        <time>2025-09-13T18:11:58+02:00</time>
      </trkpt>
      <trkpt lat="42.76308" lon="1.35222">
        <ele>1551</ele>
        <time>2025-09-13T18:11:59+02:00</time>
      </trkpt>
      <trkpt lat="42.76308" lon="1.35225">
        <ele>1551</ele>
        <time>2025-09-13T18:12:03+02:00</time>
      </trkpt>
      <trkpt lat="42.76308" lon="1.35225">
        <ele>1551</ele>
        <time>2025-09-13T18:12:04+02:00</time>
      </trkpt>
      <trkpt lat="42.76309" lon="1.35225">
        <ele>1545.5</ele>
        <time>2025-09-13T18:12:08+02:00</time>
      </trkpt>
      <trkpt lat="42.76309" lon="1.35225">
        <ele>1545.5</ele>
        <time>2025-09-13T18:12:09+02:00</time>
      </trkpt>
      <trkpt lat="42.76311" lon="1.35222">
        <ele>1545.5</ele>
        <time>2025-09-13T18:12:13+02:00</time>
      </trkpt>
      <trkpt lat="42.76312" lon="1.35221">
        <ele>1545.5</ele>
        <time>2025-09-13T18:12:14+02:00</time>
      </trkpt>
      <trkpt lat="42.76314" lon="1.35219">
        <ele>1545.5</ele>
        <time>2025-09-13T18:12:18+02:00</time>
      </trkpt>
      <trkpt lat="42.76315" lon="1.35219">
        <ele>1540.2002</ele>
        <time>2025-09-13T18:12:19+02:00</time>
      </trkpt>
      <trkpt lat="42.76316" lon="1.35218">
        <ele>1540.2002</ele>
        <time>2025-09-13T18:12:23+02:00</time>
      </trkpt>
      <trkpt lat="42.76316" lon="1.35218">
        <ele>1540.2002</ele>
        <time>2025-09-13T18:12:24+02:00</time>
      </trkpt>
      <trkpt lat="42.76317" lon="1.35217">
        <ele>1543.7002</ele>
        <time>2025-09-13T18:12:27+02:00</time>
      </trkpt>
      <trkpt lat="42.76317" lon="1.35217">
        <ele>1543.7002</ele>
        <time>2025-09-13T18:12:28+02:00</time>
      </trkpt>
      <trkpt lat="42.7632" lon="1.35213">
        <ele>1543.7002</ele>
        <time>2025-09-13T18:12:33+02:00</time>
      </trkpt>
      <trkpt lat="42.76321" lon="1.35211">
        <ele>1543.7002</ele>
        <time>2025-09-13T18:12:34+02:00</time>
      </trkpt>
      <trkpt lat="42.76324" lon="1.35207">
        <ele>1542.2002</ele>
        <time>2025-09-13T18:12:38+02:00</time>
      </trkpt>
      <trkpt lat="42.76324" lon="1.35206">
        <ele>1542.2002</ele>
        <time>2025-09-13T18:12:39+02:00</time>
      </trkpt>
      <trkpt lat="42.76327" lon="1.35202">
        <ele>1542.2002</ele>
        <time>2025-09-13T18:12:43+02:00</time>
      </trkpt>
      <trkpt lat="42.76328" lon="1.35201">
        <ele>1537.2998</ele>
        <time>2025-09-13T18:12:44+02:00</time>
      </trkpt>
      <trkpt lat="42.76329" lon="1.35203">
        <ele>1537.2998</ele>
        <time>2025-09-13T18:12:48+02:00</time>
      </trkpt>
      <trkpt lat="42.76329" lon="1.35203">
        <ele>1537.2998</ele>
        <time>2025-09-13T18:12:49+02:00</time>
      </trkpt>
      <trkpt lat="42.76329" lon="1.35203">
        <ele>1537.2998</ele>
        <time>2025-09-13T18:12:53+02:00</time>
      </trkpt>
      <trkpt lat="42.76329" lon="1.35203">
        <ele>1537.2998</ele>
        <time>2025-09-13T18:12:54+02:00</time>
      </trkpt>
      <trkpt lat="42.76331" lon="1.35202">
        <ele>1537.2998</ele>
        <time>2025-09-13T18:12:58+02:00</time>
      </trkpt>
      <trkpt lat="42.76332" lon="1.35201">
        <ele>1537.2998</ele>
        <time>2025-09-13T18:12:59+02:00</time>
      </trkpt>
      <trkpt lat="42.76333" lon="1.35199">
        <ele>1540.7998</ele>
        <time>2025-09-13T18:13:03+02:00</time>
      </trkpt>
      <trkpt lat="42.76333" lon="1.35199">
        <ele>1540.7998</ele>
        <time>2025-09-13T18:13:04+02:00</time>
      </trkpt>
      <trkpt lat="42.76334" lon="1.35198">
        <ele>1536.1006</ele>
        <time>2025-09-13T18:13:08+02:00</time>
      </trkpt>
      <trkpt lat="42.76334" lon="1.35197">
        <ele>1536.1006</ele>
        <time>2025-09-13T18:13:09+02:00</time>
      </trkpt>
      <trkpt lat="42.76334" lon="1.35194">
        <ele>1536.1006</ele>
        <time>2025-09-13T18:13:13+02:00</time>
      </trkpt>
      <trkpt lat="42.76334" lon="1.35193">
        <ele>1536.1006</ele>
        <time>2025-09-13T18:13:14+02:00</time>
      </trkpt>
      <trkpt lat="42.76335" lon="1.35191">
        <ele>1539.6006</ele>
        <time>2025-09-13T18:13:18+02:00</time>
      </trkpt>
      <trkpt lat="42.76336" lon="1.3519">
        <ele>1539.6006</ele>
        <time>2025-09-13T18:13:19+02:00</time>
      </trkpt>
      <trkpt lat="42.76337" lon="1.35187">
        <ele>1539.6006</ele>
        <time>2025-09-13T18:13:23+02:00</time>
      </trkpt>
      <trkpt lat="42.76338" lon="1.35187">
        <ele>1539.6006</ele>
        <time>2025-09-13T18:13:24+02:00</time>
      </trkpt>
      <trkpt lat="42.7634" lon="1.35184">
        <ele>1535.1006</ele>
        <time>2025-09-13T18:13:28+02:00</time>
      </trkpt>
      <trkpt lat="42.7634" lon="1.35184">
        <ele>1535.1006</ele>
        <time>2025-09-13T18:13:29+02:00</time>
      </trkpt>
      <trkpt lat="42.76341" lon="1.35183">
        <ele>1538.6006</ele>
        <time>2025-09-13T18:13:33+02:00</time>
      </trkpt>
      <trkpt lat="42.76342" lon="1.35182">
        <ele>1538.6006</ele>
        <time>2025-09-13T18:13:34+02:00</time>
      </trkpt>
      <trkpt lat="42.76343" lon="1.35183">
        <ele>1538.6006</ele>
        <time>2025-09-13T18:13:38+02:00</time>
      </trkpt>
      <trkpt lat="42.76343" lon="1.35183">
        <ele>1535.1006</ele>
        <time>2025-09-13T18:13:39+02:00</time>
      </trkpt>
      <trkpt lat="42.76345" lon="1.35184">
        <ele>1535.1006</ele>
        <time>2025-09-13T18:13:43+02:00</time>
      </trkpt>
      <trkpt lat="42.76345" lon="1.35184">
        <ele>1535.1006</ele>
        <time>2025-09-13T18:13:44+02:00</time>
      </trkpt>
      <trkpt lat="42.76347" lon="1.35185">
        <ele>1530.7998</ele>
        <time>2025-09-13T18:13:48+02:00</time>
      </trkpt>
      <trkpt lat="42.76348" lon="1.35186">
        <ele>1530.7998</ele>
        <time>2025-09-13T18:13:49+02:00</time>
      </trkpt>
      <trkpt lat="42.76349" lon="1.35187">
        <ele>1530.7998</ele>
        <time>2025-09-13T18:13:53+02:00</time>
      </trkpt>
      <trkpt lat="42.7635" lon="1.35188">
        <ele>1530.7998</ele>
        <time>2025-09-13T18:13:54+02:00</time>
      </trkpt>
      <trkpt lat="42.7635" lon="1.35188">
        <ele>1530.7998</ele>
        <time>2025-09-13T18:13:58+02:00</time>
      </trkpt>
      <trkpt lat="42.7635" lon="1.35189">
        <ele>1530.7998</ele>
        <time>2025-09-13T18:13:59+02:00</time>
      </trkpt>
      <trkpt lat="42.7635" lon="1.35188">
        <ele>1530.7998</ele>
        <time>2025-09-13T18:14:03+02:00</time>
      </trkpt>
      <trkpt lat="42.7635" lon="1.35188">
        <ele>1530.7998</ele>
        <time>2025-09-13T18:14:04+02:00</time>
      </trkpt>
      <trkpt lat="42.7635" lon="1.35187">
        <ele>1530.7998</ele>
        <time>2025-09-13T18:14:08+02:00</time>
      </trkpt>
      <trkpt lat="42.7635" lon="1.35187">
        <ele>1530.7998</ele>
        <time>2025-09-13T18:14:09+02:00</time>
      </trkpt>
      <trkpt lat="42.76351" lon="1.35186">
        <ele>1530.7998</ele>
        <time>2025-09-13T18:14:13+02:00</time>
      </trkpt>
      <trkpt lat="42.76351" lon="1.35186">
        <ele>1530.7998</ele>
        <time>2025-09-13T18:14:14+02:00</time>
      </trkpt>
      <trkpt lat="42.76353" lon="1.35186">
        <ele>1526.6006</ele>
        <time>2025-09-13T18:14:18+02:00</time>
      </trkpt>
      <trkpt lat="42.76353" lon="1.35186">
        <ele>1526.6006</ele>
        <time>2025-09-13T18:14:19+02:00</time>
      </trkpt>
      <trkpt lat="42.76355" lon="1.35186">
        <ele>1526.6006</ele>
        <time>2025-09-13T18:14:23+02:00</time>
      </trkpt>
      <trkpt lat="42.76355" lon="1.35186">
        <ele>1526.6006</ele>
        <time>2025-09-13T18:14:24+02:00</time>
      </trkpt>
      <trkpt lat="42.76359" lon="1.35185">
        <ele>1522.5</ele>
        <time>2025-09-13T18:14:28+02:00</time>
      </trkpt>
      <trkpt lat="42.7636" lon="1.35186">
        <ele>1522.5</ele>
        <time>2025-09-13T18:14:29+02:00</time>
      </trkpt>
      <trkpt lat="42.76362" lon="1.35186">
        <ele>1522.5</ele>
        <time>2025-09-13T18:14:33+02:00</time>
      </trkpt>
      <trkpt lat="42.76362" lon="1.35186">
        <ele>1522.5</ele>
        <time>2025-09-13T18:14:34+02:00</time>
      </trkpt>
      <trkpt lat="42.76365" lon="1.35182">
        <ele>1525.9004</ele>
        <time>2025-09-13T18:14:38+02:00</time>
      </trkpt>
      <trkpt lat="42.76365" lon="1.35182">
        <ele>1521.9004</ele>
        <time>2025-09-13T18:14:39+02:00</time>
      </trkpt>
      <trkpt lat="42.76367" lon="1.35178">
        <ele>1521.9004</ele>
        <time>2025-09-13T18:14:43+02:00</time>
      </trkpt>
      <trkpt lat="42.76368" lon="1.35176">
        <ele>1521.9004</ele>
        <time>2025-09-13T18:14:44+02:00</time>
      </trkpt>
      <trkpt lat="42.7637" lon="1.35173">
        <ele>1525.1006</ele>
        <time>2025-09-13T18:14:48+02:00</time>
      </trkpt>
      <trkpt lat="42.7637" lon="1.35171">
        <ele>1525.1006</ele>
        <time>2025-09-13T18:14:49+02:00</time>
      </trkpt>
      <trkpt lat="42.76371" lon="1.35168">
        <ele>1525.1006</ele>
        <time>2025-09-13T18:14:53+02:00</time>
      </trkpt>
      <trkpt lat="42.76371" lon="1.35167">
        <ele>1525.1006</ele>
        <time>2025-09-13T18:14:54+02:00</time>
      </trkpt>
      <trkpt lat="42.76372" lon="1.35164">
        <ele>1524.1006</ele>
        <time>2025-09-13T18:14:58+02:00</time>
      </trkpt>
      <trkpt lat="42.76372" lon="1.35163">
        <ele>1524.1006</ele>
        <time>2025-09-13T18:14:59+02:00</time>
      </trkpt>
      <trkpt lat="42.76374" lon="1.35161">
        <ele>1524.1006</ele>
        <time>2025-09-13T18:15:03+02:00</time>
      </trkpt>
      <trkpt lat="42.76374" lon="1.3516">
        <ele>1524.1006</ele>
        <time>2025-09-13T18:15:04+02:00</time>
      </trkpt>
      <trkpt lat="42.76375" lon="1.35157">
        <ele>1527.1006</ele>
        <time>2025-09-13T18:15:08+02:00</time>
      </trkpt>
      <trkpt lat="42.76375" lon="1.35156">
        <ele>1527.1006</ele>
        <time>2025-09-13T18:15:09+02:00</time>
      </trkpt>
      <trkpt lat="42.76375" lon="1.35153">
        <ele>1527.1006</ele>
        <time>2025-09-13T18:15:13+02:00</time>
      </trkpt>
      <trkpt lat="42.76376" lon="1.35152">
        <ele>1527.1006</ele>
        <time>2025-09-13T18:15:14+02:00</time>
      </trkpt>
      <trkpt lat="42.76377" lon="1.3515">
        <ele>1527.1006</ele>
        <time>2025-09-13T18:15:18+02:00</time>
      </trkpt>
      <trkpt lat="42.76378" lon="1.35149">
        <ele>1522.9004</ele>
        <time>2025-09-13T18:15:19+02:00</time>
      </trkpt>
      <trkpt lat="42.76379" lon="1.35145">
        <ele>1525.6006</ele>
        <time>2025-09-13T18:15:23+02:00</time>
      </trkpt>
      <trkpt lat="42.76379" lon="1.35144">
        <ele>1525.6006</ele>
        <time>2025-09-13T18:15:24+02:00</time>
      </trkpt>
      <trkpt lat="42.7638" lon="1.35141">
        <ele>1525.6006</ele>
        <time>2025-09-13T18:15:28+02:00</time>
      </trkpt>
      <trkpt lat="42.76379" lon="1.35137">
        <ele>1528</ele>
        <time>2025-09-13T18:15:33+02:00</time>
      </trkpt>
      <trkpt lat="42.76379" lon="1.35136">
        <ele>1528</ele>
        <time>2025-09-13T18:15:34+02:00</time>
      </trkpt>
      <trkpt lat="42.76379" lon="1.35133">
        <ele>1528</ele>
        <time>2025-09-13T18:15:38+02:00</time>
      </trkpt>
      <trkpt lat="42.76379" lon="1.35132">
        <ele>1528</ele>
        <time>2025-09-13T18:15:39+02:00</time>
      </trkpt>
      <trkpt lat="42.76379" lon="1.35126">
        <ele>1530.2998</ele>
        <time>2025-09-13T18:15:43+02:00</time>
      </trkpt>
      <trkpt lat="42.76379" lon="1.35124">
        <ele>1530.2998</ele>
        <time>2025-09-13T18:15:44+02:00</time>
      </trkpt>
      <trkpt lat="42.7638" lon="1.35119">
        <ele>1532.2998</ele>
        <time>2025-09-13T18:15:48+02:00</time>
      </trkpt>
      <trkpt lat="42.7638" lon="1.35118">
        <ele>1532.2998</ele>
        <time>2025-09-13T18:15:49+02:00</time>
      </trkpt>
      <trkpt lat="42.76381" lon="1.35114">
        <ele>1534.1006</ele>
        <time>2025-09-13T18:15:53+02:00</time>
      </trkpt>
      <trkpt lat="42.76381" lon="1.35114">
        <ele>1534.1006</ele>
        <time>2025-09-13T18:15:54+02:00</time>
      </trkpt>
      <trkpt lat="42.76382" lon="1.35111">
        <ele>1534.1006</ele>
        <time>2025-09-13T18:15:58+02:00</time>
      </trkpt>
      <trkpt lat="42.76382" lon="1.35111">
        <ele>1534.1006</ele>
        <time>2025-09-13T18:15:59+02:00</time>
      </trkpt>
      <trkpt lat="42.76382" lon="1.35111">
        <ele>1534.1006</ele>
        <time>2025-09-13T18:16:03+02:00</time>
      </trkpt>
      <trkpt lat="42.76382" lon="1.3511">
        <ele>1534.1006</ele>
        <time>2025-09-13T18:16:04+02:00</time>
      </trkpt>
      <trkpt lat="42.76382" lon="1.35107">
        <ele>1534.1006</ele>
        <time>2025-09-13T18:16:08+02:00</time>
      </trkpt>
      <trkpt lat="42.76382" lon="1.35107">
        <ele>1534.1006</ele>
        <time>2025-09-13T18:16:09+02:00</time>
      </trkpt>
      <trkpt lat="42.76382" lon="1.35104">
        <ele>1535.6006</ele>
        <time>2025-09-13T18:16:13+02:00</time>
      </trkpt>
      <trkpt lat="42.76382" lon="1.35103">
        <ele>1535.6006</ele>
        <time>2025-09-13T18:16:14+02:00</time>
      </trkpt>
      <trkpt lat="42.76382" lon="1.35102">
        <ele>1535.6006</ele>
        <time>2025-09-13T18:16:18+02:00</time>
      </trkpt>
      <trkpt lat="42.76382" lon="1.35101">
        <ele>1535.6006</ele>
        <time>2025-09-13T18:16:19+02:00</time>
      </trkpt>
      <trkpt lat="42.76381" lon="1.35101">
        <ele>1535.6006</ele>
        <time>2025-09-13T18:16:23+02:00</time>
      </trkpt>
      <trkpt lat="42.76381" lon="1.351">
        <ele>1535.6006</ele>
        <time>2025-09-13T18:16:24+02:00</time>
      </trkpt>
      <trkpt lat="42.76381" lon="1.35099">
        <ele>1535.6006</ele>
        <time>2025-09-13T18:16:28+02:00</time>
      </trkpt>
      <trkpt lat="42.76381" lon="1.35099">
        <ele>1535.6006</ele>
        <time>2025-09-13T18:16:29+02:00</time>
      </trkpt>
      <trkpt lat="42.7638" lon="1.35098">
        <ele>1535.6006</ele>
        <time>2025-09-13T18:16:33+02:00</time>
      </trkpt>
      <trkpt lat="42.7638" lon="1.35097">
        <ele>1536.9004</ele>
        <time>2025-09-13T18:16:34+02:00</time>
      </trkpt>
      <trkpt lat="42.7638" lon="1.35093">
        <ele>1536.9004</ele>
        <time>2025-09-13T18:16:38+02:00</time>
      </trkpt>
      <trkpt lat="42.7638" lon="1.35092">
        <ele>1536.9004</ele>
        <time>2025-09-13T18:16:39+02:00</time>
      </trkpt>
      <trkpt lat="42.76379" lon="1.35087">
        <ele>1538</ele>
        <time>2025-09-13T18:16:43+02:00</time>
      </trkpt>
      <trkpt lat="42.76379" lon="1.35087">
        <ele>1538</ele>
        <time>2025-09-13T18:16:44+02:00</time>
      </trkpt>
      <trkpt lat="42.76377" lon="1.35086">
        <ele>1542.7002</ele>
        <time>2025-09-13T18:16:48+02:00</time>
      </trkpt>
      <trkpt lat="42.76377" lon="1.35085">
        <ele>1542.7002</ele>
        <time>2025-09-13T18:16:49+02:00</time>
      </trkpt>
      <trkpt lat="42.76377" lon="1.3508">
        <ele>1543.7002</ele>
        <time>2025-09-13T18:16:53+02:00</time>
      </trkpt>
      <trkpt lat="42.76377" lon="1.35079">
        <ele>1543.7002</ele>
        <time>2025-09-13T18:16:54+02:00</time>
      </trkpt>
      <trkpt lat="42.76378" lon="1.35076">
        <ele>1538.9004</ele>
        <time>2025-09-13T18:16:58+02:00</time>
      </trkpt>
      <trkpt lat="42.76379" lon="1.35076">
        <ele>1538.9004</ele>
        <time>2025-09-13T18:16:59+02:00</time>
      </trkpt>
      <trkpt lat="42.7638" lon="1.35074">
        <ele>1538.9004</ele>
        <time>2025-09-13T18:17:03+02:00</time>
      </trkpt>
      <trkpt lat="42.7638" lon="1.35074">
        <ele>1538.9004</ele>
        <time>2025-09-13T18:17:04+02:00</time>
      </trkpt>
      <trkpt lat="42.7638" lon="1.35071">
        <ele>1539.7002</ele>
        <time>2025-09-13T18:17:08+02:00</time>
      </trkpt>
      <trkpt lat="42.7638" lon="1.3507">
        <ele>1539.7002</ele>
        <time>2025-09-13T18:17:09+02:00</time>
      </trkpt>
      <trkpt lat="42.7638" lon="1.35068">
        <ele>1539.7002</ele>
        <time>2025-09-13T18:17:13+02:00</time>
      </trkpt>
      <trkpt lat="42.76381" lon="1.35068">
        <ele>1539.7002</ele>
        <time>2025-09-13T18:17:14+02:00</time>
      </trkpt>
      <trkpt lat="42.7638" lon="1.35066">
        <ele>1539.7002</ele>
        <time>2025-09-13T18:17:18+02:00</time>
      </trkpt>
      <trkpt lat="42.7638" lon="1.35065">
        <ele>1539.7002</ele>
        <time>2025-09-13T18:17:19+02:00</time>
      </trkpt>
      <trkpt lat="42.76379" lon="1.35063">
        <ele>1540.2998</ele>
        <time>2025-09-13T18:17:23+02:00</time>
      </trkpt>
      <trkpt lat="42.76379" lon="1.35063">
        <ele>1540.2998</ele>
        <time>2025-09-13T18:17:24+02:00</time>
      </trkpt>
      <trkpt lat="42.76378" lon="1.35059">
        <ele>1540.2998</ele>
        <time>2025-09-13T18:17:28+02:00</time>
      </trkpt>
      <trkpt lat="42.76378" lon="1.35058">
        <ele>1540.2998</ele>
        <time>2025-09-13T18:17:29+02:00</time>
      </trkpt>
      <trkpt lat="42.76376" lon="1.35055">
        <ele>1545.1006</ele>
        <time>2025-09-13T18:17:33+02:00</time>
      </trkpt>
      <trkpt lat="42.76376" lon="1.35054">
        <ele>1545.6006</ele>
        <time>2025-09-13T18:17:34+02:00</time>
      </trkpt>
      <trkpt lat="42.76375" lon="1.35049">
        <ele>1545.6006</ele>
        <time>2025-09-13T18:17:38+02:00</time>
      </trkpt>
      <trkpt lat="42.76375" lon="1.35047">
        <ele>1545.6006</ele>
        <time>2025-09-13T18:17:39+02:00</time>
      </trkpt>
      <trkpt lat="42.76372" lon="1.35042">
        <ele>1546</ele>
        <time>2025-09-13T18:17:43+02:00</time>
      </trkpt>
      <trkpt lat="42.76371" lon="1.35042">
        <ele>1550.7002</ele>
        <time>2025-09-13T18:17:44+02:00</time>
      </trkpt>
      <trkpt lat="42.7637" lon="1.35038">
        <ele>1550.7002</ele>
        <time>2025-09-13T18:17:48+02:00</time>
      </trkpt>
      <trkpt lat="42.7637" lon="1.35037">
        <ele>1550.9004</ele>
        <time>2025-09-13T18:17:49+02:00</time>
      </trkpt>
      <trkpt lat="42.76369" lon="1.35032">
        <ele>1550.9004</ele>
        <time>2025-09-13T18:17:53+02:00</time>
      </trkpt>
      <trkpt lat="42.76368" lon="1.3503">
        <ele>1550.9004</ele>
        <time>2025-09-13T18:17:54+02:00</time>
      </trkpt>
      <trkpt lat="42.76366" lon="1.35023">
        <ele>1551.1006</ele>
        <time>2025-09-13T18:17:58+02:00</time>
      </trkpt>
      <trkpt lat="42.76366" lon="1.35021">
        <ele>1551.1006</ele>
        <time>2025-09-13T18:17:59+02:00</time>
      </trkpt>
      <trkpt lat="42.76366" lon="1.35016">
        <ele>1551.2998</ele>
        <time>2025-09-13T18:18:03+02:00</time>
      </trkpt>
      <trkpt lat="42.76366" lon="1.35014">
        <ele>1551.2998</ele>
        <time>2025-09-13T18:18:04+02:00</time>
      </trkpt>
      <trkpt lat="42.76367" lon="1.35009">
        <ele>1551.5</ele>
        <time>2025-09-13T18:18:08+02:00</time>
      </trkpt>
      <trkpt lat="42.76367" lon="1.35008">
        <ele>1551.5</ele>
        <time>2025-09-13T18:18:09+02:00</time>
      </trkpt>
      <trkpt lat="42.76368" lon="1.35003">
        <ele>1551.5</ele>
        <time>2025-09-13T18:18:13+02:00</time>
      </trkpt>
      <trkpt lat="42.76368" lon="1.35002">
        <ele>1551.7002</ele>
        <time>2025-09-13T18:18:14+02:00</time>
      </trkpt>
      <trkpt lat="42.76368" lon="1.34999">
        <ele>1551.7002</ele>
        <time>2025-09-13T18:18:18+02:00</time>
      </trkpt>
      <trkpt lat="42.76368" lon="1.34998">
        <ele>1551.7002</ele>
        <time>2025-09-13T18:18:19+02:00</time>
      </trkpt>
      <trkpt lat="42.76367" lon="1.34994">
        <ele>1551.9004</ele>
        <time>2025-09-13T18:18:23+02:00</time>
      </trkpt>
      <trkpt lat="42.76366" lon="1.34992">
        <ele>1551.9004</ele>
        <time>2025-09-13T18:18:24+02:00</time>
      </trkpt>
      <trkpt lat="42.76364" lon="1.34987">
        <ele>1556.2998</ele>
        <time>2025-09-13T18:18:28+02:00</time>
      </trkpt>
      <trkpt lat="42.76363" lon="1.34987">
        <ele>1556.2998</ele>
        <time>2025-09-13T18:18:29+02:00</time>
      </trkpt>
      <trkpt lat="42.76361" lon="1.34985">
        <ele>1556.5</ele>
        <time>2025-09-13T18:18:33+02:00</time>
      </trkpt>
      <trkpt lat="42.76361" lon="1.34984">
        <ele>1556.5</ele>
        <time>2025-09-13T18:18:34+02:00</time>
      </trkpt>
      <trkpt lat="42.76358" lon="1.34981">
        <ele>1560.9004</ele>
        <time>2025-09-13T18:18:38+02:00</time>
      </trkpt>
      <trkpt lat="42.76357" lon="1.34981">
        <ele>1560.9004</ele>
        <time>2025-09-13T18:18:39+02:00</time>
      </trkpt>
      <trkpt lat="42.76354" lon="1.34979">
        <ele>1560.9004</ele>
        <time>2025-09-13T18:18:43+02:00</time>
      </trkpt>
      <trkpt lat="42.76352" lon="1.34979">
        <ele>1565.2002</ele>
        <time>2025-09-13T18:18:44+02:00</time>
      </trkpt>
      <trkpt lat="42.76349" lon="1.34978">
        <ele>1565.2002</ele>
        <time>2025-09-13T18:18:48+02:00</time>
      </trkpt>
      <trkpt lat="42.76348" lon="1.34977">
        <ele>1565.2998</ele>
        <time>2025-09-13T18:18:49+02:00</time>
      </trkpt>
      <trkpt lat="42.76345" lon="1.34974">
        <ele>1569.6006</ele>
        <time>2025-09-13T18:18:53+02:00</time>
      </trkpt>
      <trkpt lat="42.76344" lon="1.34973">
        <ele>1569.6006</ele>
        <time>2025-09-13T18:18:54+02:00</time>
      </trkpt>
      <trkpt lat="42.76343" lon="1.3497">
        <ele>1569.6006</ele>
        <time>2025-09-13T18:18:58+02:00</time>
      </trkpt>
      <trkpt lat="42.76343" lon="1.34971">
        <ele>1569.6006</ele>
        <time>2025-09-13T18:19:00+02:00</time>
      </trkpt>
      <trkpt lat="42.76344" lon="1.3497">
        <ele>1569.6006</ele>
        <time>2025-09-13T18:19:04+02:00</time>
      </trkpt>
      <trkpt lat="42.76344" lon="1.3497">
        <ele>1569.6006</ele>
        <time>2025-09-13T18:19:05+02:00</time>
      </trkpt>
      <trkpt lat="42.76345" lon="1.34967">
        <ele>1569.7002</ele>
        <time>2025-09-13T18:19:09+02:00</time>
      </trkpt>
      <trkpt lat="42.76345" lon="1.34966">
        <ele>1569.7002</ele>
        <time>2025-09-13T18:19:10+02:00</time>
      </trkpt>
      <trkpt lat="42.76345" lon="1.34964">
        <ele>1569.7002</ele>
        <time>2025-09-13T18:19:14+02:00</time>
      </trkpt>
      <trkpt lat="42.76345" lon="1.34963">
        <ele>1569.7002</ele>
        <time>2025-09-13T18:19:15+02:00</time>
      </trkpt>
      <trkpt lat="42.76345" lon="1.34956">
        <ele>1569.7998</ele>
        <time>2025-09-13T18:19:19+02:00</time>
      </trkpt>
      <trkpt lat="42.76345" lon="1.34955">
        <ele>1569.7998</ele>
        <time>2025-09-13T18:19:20+02:00</time>
      </trkpt>
      <trkpt lat="42.76345" lon="1.34952">
        <ele>1569.7998</ele>
        <time>2025-09-13T18:19:24+02:00</time>
      </trkpt>
      <trkpt lat="42.76346" lon="1.34952">
        <ele>1569.7998</ele>
        <time>2025-09-13T18:19:25+02:00</time>
      </trkpt>
      <trkpt lat="42.76347" lon="1.34952">
        <ele>1565.6006</ele>
        <time>2025-09-13T18:19:29+02:00</time>
      </trkpt>
      <trkpt lat="42.76347" lon="1.34952">
        <ele>1565.6006</ele>
        <time>2025-09-13T18:19:30+02:00</time>
      </trkpt>
      <trkpt lat="42.76347" lon="1.34952">
        <ele>1565.6006</ele>
        <time>2025-09-13T18:19:34+02:00</time>
      </trkpt>
      <trkpt lat="42.76346" lon="1.34952">
        <ele>1565.6006</ele>
        <time>2025-09-13T18:19:35+02:00</time>
      </trkpt>
      <trkpt lat="42.76347" lon="1.34952">
        <ele>1565.6006</ele>
        <time>2025-09-13T18:19:39+02:00</time>
      </trkpt>
      <trkpt lat="42.76347" lon="1.34952">
        <ele>1565.6006</ele>
        <time>2025-09-13T18:19:40+02:00</time>
      </trkpt>
      <trkpt lat="42.76347" lon="1.34952">
        <ele>1565.6006</ele>
        <time>2025-09-13T18:19:44+02:00</time>
      </trkpt>
      <trkpt lat="42.76347" lon="1.34952">
        <ele>1565.6006</ele>
        <time>2025-09-13T18:19:45+02:00</time>
      </trkpt>
      <trkpt lat="42.76347" lon="1.34951">
        <ele>1565.7002</ele>
        <time>2025-09-13T18:19:49+02:00</time>
      </trkpt>
      <trkpt lat="42.76347" lon="1.34951">
        <ele>1565.7002</ele>
        <time>2025-09-13T18:19:50+02:00</time>
      </trkpt>
      <trkpt lat="42.76347" lon="1.34951">
        <ele>1565.7002</ele>
        <time>2025-09-13T18:19:54+02:00</time>
      </trkpt>
      <trkpt lat="42.76347" lon="1.34951">
        <ele>1565.7002</ele>
        <time>2025-09-13T18:19:55+02:00</time>
      </trkpt>
      <trkpt lat="42.76347" lon="1.34951">
        <ele>1565.7002</ele>
        <time>2025-09-13T18:19:59+02:00</time>
      </trkpt>
      <trkpt lat="42.76347" lon="1.34951">
        <ele>1565.7002</ele>
        <time>2025-09-13T18:20:00+02:00</time>
      </trkpt>
      <trkpt lat="42.76347" lon="1.34951">
        <ele>1565.7002</ele>
        <time>2025-09-13T18:20:04+02:00</time>
      </trkpt>
      <trkpt lat="42.76347" lon="1.34951">
        <ele>1565.7002</ele>
        <time>2025-09-13T18:20:05+02:00</time>
      </trkpt>
      <trkpt lat="42.76347" lon="1.34951">
        <ele>1565.7002</ele>
        <time>2025-09-13T18:20:09+02:00</time>
      </trkpt>
      <trkpt lat="42.76347" lon="1.34951">
        <ele>1565.7002</ele>
        <time>2025-09-13T18:20:10+02:00</time>
      </trkpt>
      <trkpt lat="42.76346" lon="1.3495">
        <ele>1565.7002</ele>
        <time>2025-09-13T18:20:14+02:00</time>
      </trkpt>
      <trkpt lat="42.76346" lon="1.3495">
        <ele>1565.7002</ele>
        <time>2025-09-13T18:20:15+02:00</time>
      </trkpt>
      <trkpt lat="42.76347" lon="1.34948">
        <ele>1565.7002</ele>
        <time>2025-09-13T18:20:19+02:00</time>
      </trkpt>
      <trkpt lat="42.76347" lon="1.34948">
        <ele>1565.7002</ele>
        <time>2025-09-13T18:20:20+02:00</time>
      </trkpt>
      <trkpt lat="42.76347" lon="1.34946">
        <ele>1565.7002</ele>
        <time>2025-09-13T18:20:24+02:00</time>
      </trkpt>
      <trkpt lat="42.76347" lon="1.34946">
        <ele>1565.7002</ele>
        <time>2025-09-13T18:20:25+02:00</time>
      </trkpt>
      <trkpt lat="42.76347" lon="1.34946">
        <ele>1565.7002</ele>
        <time>2025-09-13T18:20:29+02:00</time>
      </trkpt>
      <trkpt lat="42.76347" lon="1.34945">
        <ele>1565.7002</ele>
        <time>2025-09-13T18:20:30+02:00</time>
      </trkpt>
      <trkpt lat="42.76347" lon="1.34945">
        <ele>1565.7002</ele>
        <time>2025-09-13T18:20:34+02:00</time>
      </trkpt>
      <trkpt lat="42.76347" lon="1.34945">
        <ele>1565.7002</ele>
        <time>2025-09-13T18:20:35+02:00</time>
      </trkpt>
      <trkpt lat="42.76346" lon="1.34942">
        <ele>1569.9004</ele>
        <time>2025-09-13T18:20:39+02:00</time>
      </trkpt>
      <trkpt lat="42.76346" lon="1.34942">
        <ele>1569.9004</ele>
        <time>2025-09-13T18:20:40+02:00</time>
      </trkpt>
      <trkpt lat="42.76344" lon="1.34938">
        <ele>1569.9004</ele>
        <time>2025-09-13T18:20:44+02:00</time>
      </trkpt>
      <trkpt lat="42.76344" lon="1.34937">
        <ele>1569.9004</ele>
        <time>2025-09-13T18:20:45+02:00</time>
      </trkpt>
      <trkpt lat="42.76343" lon="1.34936">
        <ele>1569.9004</ele>
        <time>2025-09-13T18:20:49+02:00</time>
      </trkpt>
      <trkpt lat="42.76343" lon="1.34936">
        <ele>1569.9004</ele>
        <time>2025-09-13T18:20:50+02:00</time>
      </trkpt>
      <trkpt lat="42.76342" lon="1.34933">
        <ele>1569.9004</ele>
        <time>2025-09-13T18:20:54+02:00</time>
      </trkpt>
      <trkpt lat="42.76342" lon="1.34933">
        <ele>1569.9004</ele>
        <time>2025-09-13T18:20:55+02:00</time>
      </trkpt>
      <trkpt lat="42.76341" lon="1.34932">
        <ele>1569.9004</ele>
        <time>2025-09-13T18:20:58+02:00</time>
      </trkpt>
      <trkpt lat="42.76341" lon="1.34932">
        <ele>1569.9004</ele>
        <time>2025-09-13T18:21:00+02:00</time>
      </trkpt>
      <trkpt lat="42.76341" lon="1.34931">
        <ele>1569.9004</ele>
        <time>2025-09-13T18:21:04+02:00</time>
      </trkpt>
      <trkpt lat="42.76341" lon="1.3493">
        <ele>1569.9004</ele>
        <time>2025-09-13T18:21:05+02:00</time>
      </trkpt>
      <trkpt lat="42.76342" lon="1.34927">
        <ele>1569.9004</ele>
        <time>2025-09-13T18:21:09+02:00</time>
      </trkpt>
      <trkpt lat="42.76342" lon="1.34926">
        <ele>1569.7998</ele>
        <time>2025-09-13T18:21:10+02:00</time>
      </trkpt>
      <trkpt lat="42.76343" lon="1.34924">
        <ele>1569.7998</ele>
        <time>2025-09-13T18:21:14+02:00</time>
      </trkpt>
      <trkpt lat="42.76343" lon="1.34924">
        <ele>1569.7998</ele>
        <time>2025-09-13T18:21:15+02:00</time>
      </trkpt>
      <trkpt lat="42.76344" lon="1.34922">
        <ele>1569.7998</ele>
        <time>2025-09-13T18:21:19+02:00</time>
      </trkpt>
      <trkpt lat="42.76344" lon="1.34921">
        <ele>1569.7998</ele>
        <time>2025-09-13T18:21:20+02:00</time>
      </trkpt>
      <trkpt lat="42.76346" lon="1.34917">
        <ele>1569.7998</ele>
        <time>2025-09-13T18:21:24+02:00</time>
      </trkpt>
      <trkpt lat="42.76346" lon="1.34916">
        <ele>1565.9004</ele>
        <time>2025-09-13T18:21:25+02:00</time>
      </trkpt>
      <trkpt lat="42.76347" lon="1.34912">
        <ele>1565.9004</ele>
        <time>2025-09-13T18:21:29+02:00</time>
      </trkpt>
      <trkpt lat="42.76348" lon="1.34911">
        <ele>1565.9004</ele>
        <time>2025-09-13T18:21:30+02:00</time>
      </trkpt>
      <trkpt lat="42.76349" lon="1.34909">
        <ele>1565.9004</ele>
        <time>2025-09-13T18:21:34+02:00</time>
      </trkpt>
      <trkpt lat="42.76349" lon="1.34909">
        <ele>1565.9004</ele>
        <time>2025-09-13T18:21:35+02:00</time>
      </trkpt>
      <trkpt lat="42.7635" lon="1.34908">
        <ele>1565.7998</ele>
        <time>2025-09-13T18:21:39+02:00</time>
      </trkpt>
      <trkpt lat="42.7635" lon="1.34908">
        <ele>1565.7998</ele>
        <time>2025-09-13T18:21:40+02:00</time>
      </trkpt>
      <trkpt lat="42.76352" lon="1.34906">
        <ele>1565.7998</ele>
        <time>2025-09-13T18:21:44+02:00</time>
      </trkpt>
      <trkpt lat="42.76353" lon="1.34905">
        <ele>1561.9004</ele>
        <time>2025-09-13T18:21:45+02:00</time>
      </trkpt>
      <trkpt lat="42.76354" lon="1.34902">
        <ele>1561.9004</ele>
        <time>2025-09-13T18:21:49+02:00</time>
      </trkpt>
      <trkpt lat="42.76354" lon="1.34901">
        <ele>1561.9004</ele>
        <time>2025-09-13T18:21:50+02:00</time>
      </trkpt>
      <trkpt lat="42.76354" lon="1.349">
        <ele>1561.7998</ele>
        <time>2025-09-13T18:21:54+02:00</time>
      </trkpt>
      <trkpt lat="42.76353" lon="1.34899">
        <ele>1561.7998</ele>
        <time>2025-09-13T18:21:55+02:00</time>
      </trkpt>
      <trkpt lat="42.76352" lon="1.34898">
        <ele>1561.7998</ele>
        <time>2025-09-13T18:21:59+02:00</time>
      </trkpt>
      <trkpt lat="42.76352" lon="1.34898">
        <ele>1565.7002</ele>
        <time>2025-09-13T18:22:00+02:00</time>
      </trkpt>
      <trkpt lat="42.76351" lon="1.34896">
        <ele>1565.7002</ele>
        <time>2025-09-13T18:22:04+02:00</time>
      </trkpt>
      <trkpt lat="42.76351" lon="1.34896">
        <ele>1565.7002</ele>
        <time>2025-09-13T18:22:05+02:00</time>
      </trkpt>
      <trkpt lat="42.7635" lon="1.34891">
        <ele>1565.5</ele>
        <time>2025-09-13T18:22:09+02:00</time>
      </trkpt>
      <trkpt lat="42.7635" lon="1.3489">
        <ele>1565.5</ele>
        <time>2025-09-13T18:22:10+02:00</time>
      </trkpt>
      <trkpt lat="42.76351" lon="1.3489">
        <ele>1565.5</ele>
        <time>2025-09-13T18:22:14+02:00</time>
      </trkpt>
      <trkpt lat="42.76351" lon="1.3489">
        <ele>1565.5</ele>
        <time>2025-09-13T18:22:15+02:00</time>
      </trkpt>
      <trkpt lat="42.7635" lon="1.34891">
        <ele>1565.5</ele>
        <time>2025-09-13T18:22:19+02:00</time>
      </trkpt>
      <trkpt lat="42.7635" lon="1.34891">
        <ele>1565.5</ele>
        <time>2025-09-13T18:22:20+02:00</time>
      </trkpt>
      <trkpt lat="42.7635" lon="1.34892">
        <ele>1565.7002</ele>
        <time>2025-09-13T18:22:24+02:00</time>
      </trkpt>
      <trkpt lat="42.7635" lon="1.34892">
        <ele>1565.7002</ele>
        <time>2025-09-13T18:22:25+02:00</time>
      </trkpt>
      <trkpt lat="42.76351" lon="1.34893">
        <ele>1565.7002</ele>
        <time>2025-09-13T18:22:28+02:00</time>
      </trkpt>
      <trkpt lat="42.76351" lon="1.34894">
        <ele>1565.7002</ele>
        <time>2025-09-13T18:22:30+02:00</time>
      </trkpt>
      <trkpt lat="42.76352" lon="1.34895">
        <ele>1565.7002</ele>
        <time>2025-09-13T18:22:34+02:00</time>
      </trkpt>
      <trkpt lat="42.76354" lon="1.34896">
        <ele>1561.7998</ele>
        <time>2025-09-13T18:22:39+02:00</time>
      </trkpt>
      <trkpt lat="42.76354" lon="1.34896">
        <ele>1561.7998</ele>
        <time>2025-09-13T18:22:40+02:00</time>
      </trkpt>
      <trkpt lat="42.76356" lon="1.34896">
        <ele>1561.7998</ele>
        <time>2025-09-13T18:22:44+02:00</time>
      </trkpt>
      <trkpt lat="42.76357" lon="1.34896">
        <ele>1561.7998</ele>
        <time>2025-09-13T18:22:45+02:00</time>
      </trkpt>
      <trkpt lat="42.76358" lon="1.34895">
        <ele>1561.7998</ele>
        <time>2025-09-13T18:22:49+02:00</time>
      </trkpt>
      <trkpt lat="42.76359" lon="1.34894">
        <ele>1558</ele>
        <time>2025-09-13T18:22:50+02:00</time>
      </trkpt>
      <trkpt lat="42.76361" lon="1.34893">
        <ele>1558</ele>
        <time>2025-09-13T18:22:54+02:00</time>
      </trkpt>
      <trkpt lat="42.76361" lon="1.34892">
        <ele>1558</ele>
        <time>2025-09-13T18:22:55+02:00</time>
      </trkpt>
      <trkpt lat="42.76363" lon="1.34891">
        <ele>1557.9004</ele>
        <time>2025-09-13T18:22:59+02:00</time>
      </trkpt>
      <trkpt lat="42.76363" lon="1.3489">
        <ele>1557.9004</ele>
        <time>2025-09-13T18:23:00+02:00</time>
      </trkpt>
      <trkpt lat="42.76364" lon="1.34889">
        <ele>1557.9004</ele>
        <time>2025-09-13T18:23:04+02:00</time>
      </trkpt>
      <trkpt lat="42.76364" lon="1.34889">
        <ele>1557.9004</ele>
        <time>2025-09-13T18:23:05+02:00</time>
      </trkpt>
      <trkpt lat="42.76364" lon="1.34888">
        <ele>1557.9004</ele>
        <time>2025-09-13T18:23:09+02:00</time>
      </trkpt>
      <trkpt lat="42.76365" lon="1.34888">
        <ele>1557.9004</ele>
        <time>2025-09-13T18:23:10+02:00</time>
      </trkpt>
      <trkpt lat="42.76366" lon="1.34884">
        <ele>1554</ele>
        <time>2025-09-13T18:23:14+02:00</time>
      </trkpt>
      <trkpt lat="42.76366" lon="1.34884">
        <ele>1554</ele>
        <time>2025-09-13T18:23:15+02:00</time>
      </trkpt>
      <trkpt lat="42.76366" lon="1.34883">
        <ele>1554</ele>
        <time>2025-09-13T18:23:19+02:00</time>
      </trkpt>
      <trkpt lat="42.76366" lon="1.34883">
        <ele>1553.7998</ele>
        <time>2025-09-13T18:23:20+02:00</time>
      </trkpt>
      <trkpt lat="42.76365" lon="1.34879">
        <ele>1553.7998</ele>
        <time>2025-09-13T18:23:24+02:00</time>
      </trkpt>
      <trkpt lat="42.76365" lon="1.34879">
        <ele>1553.7998</ele>
        <time>2025-09-13T18:23:25+02:00</time>
      </trkpt>
      <trkpt lat="42.76365" lon="1.34876">
        <ele>1557.6006</ele>
        <time>2025-09-13T18:23:29+02:00</time>
      </trkpt>
      <trkpt lat="42.76365" lon="1.34875">
        <ele>1557.6006</ele>
        <time>2025-09-13T18:23:30+02:00</time>
      </trkpt>
      <trkpt lat="42.76365" lon="1.34871">
        <ele>1557.2002</ele>
        <time>2025-09-13T18:23:34+02:00</time>
      </trkpt>
      <trkpt lat="42.76364" lon="1.34871">
        <ele>1557.2002</ele>
        <time>2025-09-13T18:23:35+02:00</time>
      </trkpt>
      <trkpt lat="42.76362" lon="1.34868">
        <ele>1557.2002</ele>
        <time>2025-09-13T18:23:39+02:00</time>
      </trkpt>
      <trkpt lat="42.76362" lon="1.34868">
        <ele>1557.2002</ele>
        <time>2025-09-13T18:23:40+02:00</time>
      </trkpt>
      <trkpt lat="42.76361" lon="1.34866">
        <ele>1556.7002</ele>
        <time>2025-09-13T18:23:44+02:00</time>
      </trkpt>
      <trkpt lat="42.7636" lon="1.34865">
        <ele>1556.7002</ele>
        <time>2025-09-13T18:23:45+02:00</time>
      </trkpt>
      <trkpt lat="42.7636" lon="1.34863">
        <ele>1556.7002</ele>
        <time>2025-09-13T18:23:49+02:00</time>
      </trkpt>
      <trkpt lat="42.7636" lon="1.34862">
        <ele>1556.7002</ele>
        <time>2025-09-13T18:23:50+02:00</time>
      </trkpt>
      <trkpt lat="42.7636" lon="1.3486">
        <ele>1556.7002</ele>
        <time>2025-09-13T18:23:54+02:00</time>
      </trkpt>
      <trkpt lat="42.7636" lon="1.34859">
        <ele>1556.7002</ele>
        <time>2025-09-13T18:23:55+02:00</time>
      </trkpt>
      <trkpt lat="42.7636" lon="1.34857">
        <ele>1556.1006</ele>
        <time>2025-09-13T18:23:59+02:00</time>
      </trkpt>
      <trkpt lat="42.7636" lon="1.34856">
        <ele>1556.1006</ele>
        <time>2025-09-13T18:24:00+02:00</time>
      </trkpt>
      <trkpt lat="42.7636" lon="1.34854">
        <ele>1556.1006</ele>
        <time>2025-09-13T18:24:04+02:00</time>
      </trkpt>
      <trkpt lat="42.7636" lon="1.34853">
        <ele>1556.1006</ele>
        <time>2025-09-13T18:24:05+02:00</time>
      </trkpt>
      <trkpt lat="42.76359" lon="1.34852">
        <ele>1556.1006</ele>
        <time>2025-09-13T18:24:09+02:00</time>
      </trkpt>
      <trkpt lat="42.76359" lon="1.34851">
        <ele>1556.1006</ele>
        <time>2025-09-13T18:24:10+02:00</time>
      </trkpt>
      <trkpt lat="42.76358" lon="1.34851">
        <ele>1559.7998</ele>
        <time>2025-09-13T18:24:14+02:00</time>
      </trkpt>
      <trkpt lat="42.76358" lon="1.3485">
        <ele>1559.7998</ele>
        <time>2025-09-13T18:24:15+02:00</time>
      </trkpt>
      <trkpt lat="42.76358" lon="1.34849">
        <ele>1559.7998</ele>
        <time>2025-09-13T18:24:19+02:00</time>
      </trkpt>
      <trkpt lat="42.76358" lon="1.34848">
        <ele>1559.1006</ele>
        <time>2025-09-13T18:24:20+02:00</time>
      </trkpt>
      <trkpt lat="42.76358" lon="1.34846">
        <ele>1559.1006</ele>
        <time>2025-09-13T18:24:24+02:00</time>
      </trkpt>
      <trkpt lat="42.76359" lon="1.34845">
        <ele>1559.1006</ele>
        <time>2025-09-13T18:24:25+02:00</time>
      </trkpt>
      <trkpt lat="42.7636" lon="1.34839">
        <ele>1554.7998</ele>
        <time>2025-09-13T18:24:29+02:00</time>
      </trkpt>
      <trkpt lat="42.76361" lon="1.34838">
        <ele>1554.7998</ele>
        <time>2025-09-13T18:24:30+02:00</time>
      </trkpt>
      <trkpt lat="42.76362" lon="1.34834">
        <ele>1554.7998</ele>
        <time>2025-09-13T18:24:34+02:00</time>
      </trkpt>
      <trkpt lat="42.76361" lon="1.34833">
        <ele>1554.7998</ele>
        <time>2025-09-13T18:24:35+02:00</time>
      </trkpt>
      <trkpt lat="42.76361" lon="1.3483">
        <ele>1554.1006</ele>
        <time>2025-09-13T18:24:39+02:00</time>
      </trkpt>
      <trkpt lat="42.76361" lon="1.3483">
        <ele>1554.1006</ele>
        <time>2025-09-13T18:24:40+02:00</time>
      </trkpt>
      <trkpt lat="42.7636" lon="1.34828">
        <ele>1554.1006</ele>
        <time>2025-09-13T18:24:44+02:00</time>
      </trkpt>
      <trkpt lat="42.7636" lon="1.34827">
        <ele>1554.1006</ele>
        <time>2025-09-13T18:24:45+02:00</time>
      </trkpt>
      <trkpt lat="42.7636" lon="1.34823">
        <ele>1554.1006</ele>
        <time>2025-09-13T18:24:49+02:00</time>
      </trkpt>
      <trkpt lat="42.76359" lon="1.34822">
        <ele>1553.4004</ele>
        <time>2025-09-13T18:24:50+02:00</time>
      </trkpt>
      <trkpt lat="42.76358" lon="1.34817">
        <ele>1557</ele>
        <time>2025-09-13T18:24:54+02:00</time>
      </trkpt>
      <trkpt lat="42.76358" lon="1.34816">
        <ele>1557</ele>
        <time>2025-09-13T18:24:55+02:00</time>
      </trkpt>
      <trkpt lat="42.76357" lon="1.34816">
        <ele>1557</ele>
        <time>2025-09-13T18:24:59+02:00</time>
      </trkpt>
      <trkpt lat="42.76357" lon="1.34816">
        <ele>1557</ele>
        <time>2025-09-13T18:25:00+02:00</time>
      </trkpt>
      <trkpt lat="42.76357" lon="1.34815">
        <ele>1557</ele>
        <time>2025-09-13T18:25:04+02:00</time>
      </trkpt>
      <trkpt lat="42.76356" lon="1.34815">
        <ele>1557</ele>
        <time>2025-09-13T18:25:05+02:00</time>
      </trkpt>
      <trkpt lat="42.76356" lon="1.34813">
        <ele>1556.2998</ele>
        <time>2025-09-13T18:25:09+02:00</time>
      </trkpt>
      <trkpt lat="42.76356" lon="1.34813">
        <ele>1556.2998</ele>
        <time>2025-09-13T18:25:10+02:00</time>
      </trkpt>
      <trkpt lat="42.76356" lon="1.34811">
        <ele>1556.2998</ele>
        <time>2025-09-13T18:25:14+02:00</time>
      </trkpt>
      <trkpt lat="42.76356" lon="1.3481">
        <ele>1556.2998</ele>
        <time>2025-09-13T18:25:15+02:00</time>
      </trkpt>
      <trkpt lat="42.76355" lon="1.34808">
        <ele>1556.2998</ele>
        <time>2025-09-13T18:25:19+02:00</time>
      </trkpt>
      <trkpt lat="42.76355" lon="1.34807">
        <ele>1556.2998</ele>
        <time>2025-09-13T18:25:20+02:00</time>
      </trkpt>
      <trkpt lat="42.76354" lon="1.34804">
        <ele>1555.5</ele>
        <time>2025-09-13T18:25:24+02:00</time>
      </trkpt>
      <trkpt lat="42.76353" lon="1.348">
        <ele>1555.5</ele>
        <time>2025-09-13T18:25:29+02:00</time>
      </trkpt>
      <trkpt lat="42.76352" lon="1.34799">
        <ele>1555.5</ele>
        <time>2025-09-13T18:25:30+02:00</time>
      </trkpt>
      <trkpt lat="42.7635" lon="1.34794">
        <ele>1558.1006</ele>
        <time>2025-09-13T18:25:34+02:00</time>
      </trkpt>
      <trkpt lat="42.76349" lon="1.34793">
        <ele>1558.1006</ele>
        <time>2025-09-13T18:25:35+02:00</time>
      </trkpt>
      <trkpt lat="42.76347" lon="1.3479">
        <ele>1558.1006</ele>
        <time>2025-09-13T18:25:39+02:00</time>
      </trkpt>
      <trkpt lat="42.76347" lon="1.3479">
        <ele>1558.1006</ele>
        <time>2025-09-13T18:25:40+02:00</time>
      </trkpt>
      <trkpt lat="42.76346" lon="1.34791">
        <ele>1561.6006</ele>
        <time>2025-09-13T18:25:44+02:00</time>
      </trkpt>
      <trkpt lat="42.76346" lon="1.34791">
        <ele>1561.6006</ele>
        <time>2025-09-13T18:25:45+02:00</time>
      </trkpt>
      <trkpt lat="42.76344" lon="1.34791">
        <ele>1561.6006</ele>
        <time>2025-09-13T18:25:49+02:00</time>
      </trkpt>
      <trkpt lat="42.76344" lon="1.3479">
        <ele>1561.6006</ele>
        <time>2025-09-13T18:25:50+02:00</time>
      </trkpt>
      <trkpt lat="42.76343" lon="1.3479">
        <ele>1561.6006</ele>
        <time>2025-09-13T18:25:54+02:00</time>
      </trkpt>
      <trkpt lat="42.76343" lon="1.3479">
        <ele>1561.6006</ele>
        <time>2025-09-13T18:25:55+02:00</time>
      </trkpt>
      <trkpt lat="42.76341" lon="1.34786">
        <ele>1560.7002</ele>
        <time>2025-09-13T18:25:59+02:00</time>
      </trkpt>
      <trkpt lat="42.76338" lon="1.34781">
        <ele>1564.1006</ele>
        <time>2025-09-13T18:26:04+02:00</time>
      </trkpt>
      <trkpt lat="42.76338" lon="1.3478">
        <ele>1564.1006</ele>
        <time>2025-09-13T18:26:05+02:00</time>
      </trkpt>
      <trkpt lat="42.76335" lon="1.34776">
        <ele>1563</ele>
        <time>2025-09-13T18:26:09+02:00</time>
      </trkpt>
      <trkpt lat="42.76334" lon="1.34775">
        <ele>1563</ele>
        <time>2025-09-13T18:26:10+02:00</time>
      </trkpt>
      <trkpt lat="42.76332" lon="1.34771">
        <ele>1565.1006</ele>
        <time>2025-09-13T18:26:14+02:00</time>
      </trkpt>
      <trkpt lat="42.76332" lon="1.3477">
        <ele>1565.1006</ele>
        <time>2025-09-13T18:26:15+02:00</time>
      </trkpt>
      <trkpt lat="42.7633" lon="1.34767">
        <ele>1565.1006</ele>
        <time>2025-09-13T18:26:19+02:00</time>
      </trkpt>
      <trkpt lat="42.7633" lon="1.34766">
        <ele>1565.1006</ele>
        <time>2025-09-13T18:26:20+02:00</time>
      </trkpt>
      <trkpt lat="42.76329" lon="1.34766">
        <ele>1565.1006</ele>
        <time>2025-09-13T18:26:24+02:00</time>
      </trkpt>
      <trkpt lat="42.76329" lon="1.34766">
        <ele>1565.1006</ele>
        <time>2025-09-13T18:26:25+02:00</time>
      </trkpt>
      <trkpt lat="42.76328" lon="1.34766">
        <ele>1565.1006</ele>
        <time>2025-09-13T18:26:28+02:00</time>
      </trkpt>
      <trkpt lat="42.76328" lon="1.34766">
        <ele>1565.1006</ele>
        <time>2025-09-13T18:26:30+02:00</time>
      </trkpt>
      <trkpt lat="42.76324" lon="1.34764">
        <ele>1568.2002</ele>
        <time>2025-09-13T18:26:34+02:00</time>
      </trkpt>
      <trkpt lat="42.76323" lon="1.34763">
        <ele>1568.2002</ele>
        <time>2025-09-13T18:26:35+02:00</time>
      </trkpt>
      <trkpt lat="42.76321" lon="1.3476">
        <ele>1569.6006</ele>
        <time>2025-09-13T18:26:39+02:00</time>
      </trkpt>
      <trkpt lat="42.7632" lon="1.34759">
        <ele>1569.6006</ele>
        <time>2025-09-13T18:26:40+02:00</time>
      </trkpt>
      <trkpt lat="42.76318" lon="1.34759">
        <ele>1569.6006</ele>
        <time>2025-09-13T18:26:44+02:00</time>
      </trkpt>
      <trkpt lat="42.76318" lon="1.34758">
        <ele>1569.6006</ele>
        <time>2025-09-13T18:26:45+02:00</time>
      </trkpt>
      <trkpt lat="42.76315" lon="1.34756">
        <ele>1569.6006</ele>
        <time>2025-09-13T18:26:49+02:00</time>
      </trkpt>
      <trkpt lat="42.76315" lon="1.34756">
        <ele>1569.6006</ele>
        <time>2025-09-13T18:26:50+02:00</time>
      </trkpt>
      <trkpt lat="42.76313" lon="1.34752">
        <ele>1570.7998</ele>
        <time>2025-09-13T18:26:53+02:00</time>
      </trkpt>
      <trkpt lat="42.76312" lon="1.34751">
        <ele>1570.7998</ele>
        <time>2025-09-13T18:26:55+02:00</time>
      </trkpt>
      <trkpt lat="42.7631" lon="1.34747">
        <ele>1570.7998</ele>
        <time>2025-09-13T18:26:59+02:00</time>
      </trkpt>
      <trkpt lat="42.76309" lon="1.34746">
        <ele>1570.7998</ele>
        <time>2025-09-13T18:27:00+02:00</time>
      </trkpt>
      <trkpt lat="42.76306" lon="1.34744">
        <ele>1571.9004</ele>
        <time>2025-09-13T18:27:04+02:00</time>
      </trkpt>
      <trkpt lat="42.76305" lon="1.34744">
        <ele>1571.9004</ele>
        <time>2025-09-13T18:27:05+02:00</time>
      </trkpt>
      <trkpt lat="42.76302" lon="1.34744">
        <ele>1574.7998</ele>
        <time>2025-09-13T18:27:09+02:00</time>
      </trkpt>
      <trkpt lat="42.76301" lon="1.34743">
        <ele>1574.7998</ele>
        <time>2025-09-13T18:27:10+02:00</time>
      </trkpt>
      <trkpt lat="42.76298" lon="1.3474">
        <ele>1574.7998</ele>
        <time>2025-09-13T18:27:14+02:00</time>
      </trkpt>
      <trkpt lat="42.76298" lon="1.34739">
        <ele>1574.7998</ele>
        <time>2025-09-13T18:27:15+02:00</time>
      </trkpt>
      <trkpt lat="42.76295" lon="1.34736">
        <ele>1575.7002</ele>
        <time>2025-09-13T18:27:19+02:00</time>
      </trkpt>
      <trkpt lat="42.76295" lon="1.34736">
        <ele>1575.7002</ele>
        <time>2025-09-13T18:27:20+02:00</time>
      </trkpt>
      <trkpt lat="42.76293" lon="1.34734">
        <ele>1575.7002</ele>
        <time>2025-09-13T18:27:24+02:00</time>
      </trkpt>
      <trkpt lat="42.76291" lon="1.34732">
        <ele>1575.7002</ele>
        <time>2025-09-13T18:27:29+02:00</time>
      </trkpt>
      <trkpt lat="42.7629" lon="1.34732">
        <ele>1575.7002</ele>
        <time>2025-09-13T18:27:30+02:00</time>
      </trkpt>
      <trkpt lat="42.7629" lon="1.34731">
        <ele>1575.7002</ele>
        <time>2025-09-13T18:27:34+02:00</time>
      </trkpt>
      <trkpt lat="42.7629" lon="1.34731">
        <ele>1575.7002</ele>
        <time>2025-09-13T18:27:35+02:00</time>
      </trkpt>
      <trkpt lat="42.76291" lon="1.34731">
        <ele>1575.7002</ele>
        <time>2025-09-13T18:27:39+02:00</time>
      </trkpt>
      <trkpt lat="42.76291" lon="1.34731">
        <ele>1575.7002</ele>
        <time>2025-09-13T18:27:40+02:00</time>
      </trkpt>
      <trkpt lat="42.76288" lon="1.34727">
        <ele>1576.5</ele>
        <time>2025-09-13T18:27:44+02:00</time>
      </trkpt>
      <trkpt lat="42.76288" lon="1.34726">
        <ele>1576.5</ele>
        <time>2025-09-13T18:27:45+02:00</time>
      </trkpt>
      <trkpt lat="42.76286" lon="1.34723">
        <ele>1576.5</ele>
        <time>2025-09-13T18:27:49+02:00</time>
      </trkpt>
      <trkpt lat="42.76285" lon="1.34723">
        <ele>1576.5</ele>
        <time>2025-09-13T18:27:50+02:00</time>
      </trkpt>
      <trkpt lat="42.76284" lon="1.34722">
        <ele>1576.5</ele>
        <time>2025-09-13T18:27:54+02:00</time>
      </trkpt>
      <trkpt lat="42.76284" lon="1.34722">
        <ele>1576.5</ele>
        <time>2025-09-13T18:27:55+02:00</time>
      </trkpt>
      <trkpt lat="42.76284" lon="1.34721">
        <ele>1576.5</ele>
        <time>2025-09-13T18:27:59+02:00</time>
      </trkpt>
      <trkpt lat="42.76284" lon="1.34721">
        <ele>1576.5</ele>
        <time>2025-09-13T18:28:00+02:00</time>
      </trkpt>
      <trkpt lat="42.76282" lon="1.34718">
        <ele>1577.2002</ele>
        <time>2025-09-13T18:28:04+02:00</time>
      </trkpt>
      <trkpt lat="42.76282" lon="1.34718">
        <ele>1577.2002</ele>
        <time>2025-09-13T18:28:05+02:00</time>
      </trkpt>
      <trkpt lat="42.76281" lon="1.34715">
        <ele>1577.2002</ele>
        <time>2025-09-13T18:28:09+02:00</time>
      </trkpt>
      <trkpt lat="42.7628" lon="1.34714">
        <ele>1577.2002</ele>
        <time>2025-09-13T18:28:10+02:00</time>
      </trkpt>
      <trkpt lat="42.76278" lon="1.34708">
        <ele>1575.4004</ele>
        <time>2025-09-13T18:28:14+02:00</time>
      </trkpt>
      <trkpt lat="42.76278" lon="1.34707">
        <ele>1575.4004</ele>
        <time>2025-09-13T18:28:15+02:00</time>
      </trkpt>
      <trkpt lat="42.76278" lon="1.34703">
        <ele>1575.4004</ele>
        <time>2025-09-13T18:28:19+02:00</time>
      </trkpt>
      <trkpt lat="42.76278" lon="1.34703">
        <ele>1575.4004</ele>
        <time>2025-09-13T18:28:20+02:00</time>
      </trkpt>
      <trkpt lat="42.76278" lon="1.34701">
        <ele>1573.7998</ele>
        <time>2025-09-13T18:28:24+02:00</time>
      </trkpt>
      <trkpt lat="42.76278" lon="1.34702">
        <ele>1573.7998</ele>
        <time>2025-09-13T18:28:25+02:00</time>
      </trkpt>
      <trkpt lat="42.76277" lon="1.34701">
        <ele>1573.7998</ele>
        <time>2025-09-13T18:28:29+02:00</time>
      </trkpt>
      <trkpt lat="42.76277" lon="1.34699">
        <ele>1576.5</ele>
        <time>2025-09-13T18:28:34+02:00</time>
      </trkpt>
      <trkpt lat="42.76276" lon="1.34698">
        <ele>1576.5</ele>
        <time>2025-09-13T18:28:35+02:00</time>
      </trkpt>
      <trkpt lat="42.76273" lon="1.34696">
        <ele>1576.5</ele>
        <time>2025-09-13T18:28:39+02:00</time>
      </trkpt>
      <trkpt lat="42.76272" lon="1.34696">
        <ele>1576.5</ele>
        <time>2025-09-13T18:28:40+02:00</time>
      </trkpt>
      <trkpt lat="42.76267" lon="1.34695">
        <ele>1579.4004</ele>
        <time>2025-09-13T18:28:44+02:00</time>
      </trkpt>
      <trkpt lat="42.76266" lon="1.34694">
        <ele>1579.4004</ele>
        <time>2025-09-13T18:28:45+02:00</time>
      </trkpt>
      <trkpt lat="42.76262" lon="1.34694">
        <ele>1580.7998</ele>
        <time>2025-09-13T18:28:49+02:00</time>
      </trkpt>
      <trkpt lat="42.76261" lon="1.34694">
        <ele>1580.7998</ele>
        <time>2025-09-13T18:28:50+02:00</time>
      </trkpt>
      <trkpt lat="42.76258" lon="1.34692">
        <ele>1580.7998</ele>
        <time>2025-09-13T18:28:54+02:00</time>
      </trkpt>
      <trkpt lat="42.76257" lon="1.34692">
        <ele>1583.7002</ele>
        <time>2025-09-13T18:28:55+02:00</time>
      </trkpt>
      <trkpt lat="42.76255" lon="1.3469">
        <ele>1583.7002</ele>
        <time>2025-09-13T18:28:59+02:00</time>
      </trkpt>
      <trkpt lat="42.76255" lon="1.34689">
        <ele>1583.7002</ele>
        <time>2025-09-13T18:29:00+02:00</time>
      </trkpt>
      <trkpt lat="42.76254" lon="1.34688">
        <ele>1583.7002</ele>
        <time>2025-09-13T18:29:04+02:00</time>
      </trkpt>
      <trkpt lat="42.76254" lon="1.34688">
        <ele>1583.7002</ele>
        <time>2025-09-13T18:29:05+02:00</time>
      </trkpt>
      <trkpt lat="42.76254" lon="1.34687">
        <ele>1583.7002</ele>
        <time>2025-09-13T18:29:09+02:00</time>
      </trkpt>
      <trkpt lat="42.76253" lon="1.34687">
        <ele>1583.7002</ele>
        <time>2025-09-13T18:29:10+02:00</time>
      </trkpt>
      <trkpt lat="42.76253" lon="1.34687">
        <ele>1583.7002</ele>
        <time>2025-09-13T18:29:14+02:00</time>
      </trkpt>
      <trkpt lat="42.76253" lon="1.34687">
        <ele>1583.7002</ele>
        <time>2025-09-13T18:29:15+02:00</time>
      </trkpt>
      <trkpt lat="42.76253" lon="1.34687">
        <ele>1583.7002</ele>
        <time>2025-09-13T18:29:19+02:00</time>
      </trkpt>
      <trkpt lat="42.76253" lon="1.34687">
        <ele>1583.7002</ele>
        <time>2025-09-13T18:29:20+02:00</time>
      </trkpt>
      <trkpt lat="42.76253" lon="1.34687">
        <ele>1583.7002</ele>
        <time>2025-09-13T18:29:24+02:00</time>
      </trkpt>
      <trkpt lat="42.76253" lon="1.34687">
        <ele>1583.7002</ele>
        <time>2025-09-13T18:29:25+02:00</time>
      </trkpt>
      <trkpt lat="42.76253" lon="1.34686">
        <ele>1583.7002</ele>
        <time>2025-09-13T18:29:29+02:00</time>
      </trkpt>
      <trkpt lat="42.76253" lon="1.34686">
        <ele>1583.7002</ele>
        <time>2025-09-13T18:29:30+02:00</time>
      </trkpt>
      <trkpt lat="42.76252" lon="1.34686">
        <ele>1583.7002</ele>
        <time>2025-09-13T18:29:34+02:00</time>
      </trkpt>
      <trkpt lat="42.76252" lon="1.34686">
        <ele>1583.7002</ele>
        <time>2025-09-13T18:29:35+02:00</time>
      </trkpt>
      <trkpt lat="42.76251" lon="1.34685">
        <ele>1585.1006</ele>
        <time>2025-09-13T18:29:39+02:00</time>
      </trkpt>
      <trkpt lat="42.7625" lon="1.34684">
        <ele>1585.1006</ele>
        <time>2025-09-13T18:29:40+02:00</time>
      </trkpt>
      <trkpt lat="42.76249" lon="1.34684">
        <ele>1585.1006</ele>
        <time>2025-09-13T18:29:44+02:00</time>
      </trkpt>
      <trkpt lat="42.76249" lon="1.34683">
        <ele>1585.1006</ele>
        <time>2025-09-13T18:29:45+02:00</time>
      </trkpt>
      <trkpt lat="42.76247" lon="1.34683">
        <ele>1585.1006</ele>
        <time>2025-09-13T18:29:49+02:00</time>
      </trkpt>
      <trkpt lat="42.76247" lon="1.34682">
        <ele>1585.1006</ele>
        <time>2025-09-13T18:29:50+02:00</time>
      </trkpt>
      <trkpt lat="42.76246" lon="1.34682">
        <ele>1585.1006</ele>
        <time>2025-09-13T18:29:54+02:00</time>
      </trkpt>
      <trkpt lat="42.76246" lon="1.34682">
        <ele>1585.1006</ele>
        <time>2025-09-13T18:29:55+02:00</time>
      </trkpt>
      <trkpt lat="42.76246" lon="1.34682">
        <ele>1585.1006</ele>
        <time>2025-09-13T18:29:59+02:00</time>
      </trkpt>
      <trkpt lat="42.76246" lon="1.34682">
        <ele>1585.1006</ele>
        <time>2025-09-13T18:30:00+02:00</time>
      </trkpt>
      <trkpt lat="42.76244" lon="1.34681">
        <ele>1588</ele>
        <time>2025-09-13T18:30:04+02:00</time>
      </trkpt>
      <trkpt lat="42.76243" lon="1.34681">
        <ele>1588</ele>
        <time>2025-09-13T18:30:05+02:00</time>
      </trkpt>
      <trkpt lat="42.76242" lon="1.3468">
        <ele>1588</ele>
        <time>2025-09-13T18:30:09+02:00</time>
      </trkpt>
      <trkpt lat="42.76242" lon="1.34679">
        <ele>1588</ele>
        <time>2025-09-13T18:30:10+02:00</time>
      </trkpt>
      <trkpt lat="42.76242" lon="1.34679">
        <ele>1588</ele>
        <time>2025-09-13T18:30:14+02:00</time>
      </trkpt>
      <trkpt lat="42.76242" lon="1.34679">
        <ele>1588</ele>
        <time>2025-09-13T18:30:15+02:00</time>
      </trkpt>
      <trkpt lat="42.76241" lon="1.34678">
        <ele>1588</ele>
        <time>2025-09-13T18:30:19+02:00</time>
      </trkpt>
      <trkpt lat="42.76241" lon="1.34677">
        <ele>1588</ele>
        <time>2025-09-13T18:30:20+02:00</time>
      </trkpt>
      <trkpt lat="42.76242" lon="1.34676">
        <ele>1586.6006</ele>
        <time>2025-09-13T18:30:24+02:00</time>
      </trkpt>
      <trkpt lat="42.76242" lon="1.34676">
        <ele>1586.6006</ele>
        <time>2025-09-13T18:30:25+02:00</time>
      </trkpt>
      <trkpt lat="42.76242" lon="1.34675">
        <ele>1586.6006</ele>
        <time>2025-09-13T18:30:29+02:00</time>
      </trkpt>
      <trkpt lat="42.76242" lon="1.34675">
        <ele>1586.6006</ele>
        <time>2025-09-13T18:30:30+02:00</time>
      </trkpt>
      <trkpt lat="42.76242" lon="1.34674">
        <ele>1586.6006</ele>
        <time>2025-09-13T18:30:34+02:00</time>
      </trkpt>
      <trkpt lat="42.76243" lon="1.34673">
        <ele>1586.6006</ele>
        <time>2025-09-13T18:30:35+02:00</time>
      </trkpt>
      <trkpt lat="42.76244" lon="1.34671">
        <ele>1586.6006</ele>
        <time>2025-09-13T18:30:39+02:00</time>
      </trkpt>
      <trkpt lat="42.76244" lon="1.34671">
        <ele>1586.6006</ele>
        <time>2025-09-13T18:30:40+02:00</time>
      </trkpt>
      <trkpt lat="42.76245" lon="1.34667">
        <ele>1585.4004</ele>
        <time>2025-09-13T18:30:44+02:00</time>
      </trkpt>
      <trkpt lat="42.76245" lon="1.34666">
        <ele>1585.4004</ele>
        <time>2025-09-13T18:30:45+02:00</time>
      </trkpt>
      <trkpt lat="42.76245" lon="1.34662">
        <ele>1585.4004</ele>
        <time>2025-09-13T18:30:49+02:00</time>
      </trkpt>
      <trkpt lat="42.76245" lon="1.34661">
        <ele>1585.4004</ele>
        <time>2025-09-13T18:30:50+02:00</time>
      </trkpt>
      <trkpt lat="42.76245" lon="1.34656">
        <ele>1584.2998</ele>
        <time>2025-09-13T18:30:54+02:00</time>
      </trkpt>
      <trkpt lat="42.76245" lon="1.34654">
        <ele>1581.6006</ele>
        <time>2025-09-13T18:30:55+02:00</time>
      </trkpt>
      <trkpt lat="42.76245" lon="1.34649">
        <ele>1583.4004</ele>
        <time>2025-09-13T18:30:59+02:00</time>
      </trkpt>
      <trkpt lat="42.76245" lon="1.34647">
        <ele>1580.7002</ele>
        <time>2025-09-13T18:31:00+02:00</time>
      </trkpt>
      <trkpt lat="42.76246" lon="1.34643">
        <ele>1580.7002</ele>
        <time>2025-09-13T18:31:04+02:00</time>
      </trkpt>
      <trkpt lat="42.76246" lon="1.34643">
        <ele>1579.9004</ele>
        <time>2025-09-13T18:31:05+02:00</time>
      </trkpt>
      <trkpt lat="42.76245" lon="1.34638">
        <ele>1582.7002</ele>
        <time>2025-09-13T18:31:09+02:00</time>
      </trkpt>
      <trkpt lat="42.76244" lon="1.34637">
        <ele>1582.7002</ele>
        <time>2025-09-13T18:31:10+02:00</time>
      </trkpt>
      <trkpt lat="42.76243" lon="1.34634">
        <ele>1582.7002</ele>
        <time>2025-09-13T18:31:14+02:00</time>
      </trkpt>
      <trkpt lat="42.76243" lon="1.34635">
        <ele>1582.7002</ele>
        <time>2025-09-13T18:31:15+02:00</time>
      </trkpt>
      <trkpt lat="42.76245" lon="1.34637">
        <ele>1582.7002</ele>
        <time>2025-09-13T18:31:19+02:00</time>
      </trkpt>
      <trkpt lat="42.76245" lon="1.34638">
        <ele>1582.7002</ele>
        <time>2025-09-13T18:31:20+02:00</time>
      </trkpt>
      <trkpt lat="42.76244" lon="1.34638">
        <ele>1582.7002</ele>
        <time>2025-09-13T18:31:24+02:00</time>
      </trkpt>
      <trkpt lat="42.76244" lon="1.34638">
        <ele>1582.7002</ele>
        <time>2025-09-13T18:31:25+02:00</time>
      </trkpt>
      <trkpt lat="42.76245" lon="1.34636">
        <ele>1582.7002</ele>
        <time>2025-09-13T18:31:29+02:00</time>
      </trkpt>
      <trkpt lat="42.76245" lon="1.34635">
        <ele>1582.7002</ele>
        <time>2025-09-13T18:31:30+02:00</time>
      </trkpt>
      <trkpt lat="42.76245" lon="1.34631">
        <ele>1582.1006</ele>
        <time>2025-09-13T18:31:34+02:00</time>
      </trkpt>
      <trkpt lat="42.76245" lon="1.3463">
        <ele>1582.1006</ele>
        <time>2025-09-13T18:31:35+02:00</time>
      </trkpt>
      <trkpt lat="42.76245" lon="1.34626">
        <ele>1582.1006</ele>
        <time>2025-09-13T18:31:39+02:00</time>
      </trkpt>
      <trkpt lat="42.76245" lon="1.34625">
        <ele>1581.6006</ele>
        <time>2025-09-13T18:31:40+02:00</time>
      </trkpt>
      <trkpt lat="42.76243" lon="1.3462">
        <ele>1581.6006</ele>
        <time>2025-09-13T18:31:44+02:00</time>
      </trkpt>
      <trkpt lat="42.76242" lon="1.34618">
        <ele>1581.6006</ele>
        <time>2025-09-13T18:31:45+02:00</time>
      </trkpt>
      <trkpt lat="42.7624" lon="1.34612">
        <ele>1581.2998</ele>
        <time>2025-09-13T18:31:49+02:00</time>
      </trkpt>
      <trkpt lat="42.7624" lon="1.34611">
        <ele>1581.2998</ele>
        <time>2025-09-13T18:31:50+02:00</time>
      </trkpt>
      <trkpt lat="42.76239" lon="1.34605">
        <ele>1583.7002</ele>
        <time>2025-09-13T18:31:54+02:00</time>
      </trkpt>
      <trkpt lat="42.76238" lon="1.34604">
        <ele>1583.7002</ele>
        <time>2025-09-13T18:31:55+02:00</time>
      </trkpt>
      <trkpt lat="42.76238" lon="1.34599">
        <ele>1583.6006</ele>
        <time>2025-09-13T18:31:59+02:00</time>
      </trkpt>
      <trkpt lat="42.76238" lon="1.34598">
        <ele>1583.6006</ele>
        <time>2025-09-13T18:32:00+02:00</time>
      </trkpt>
      <trkpt lat="42.76237" lon="1.34593">
        <ele>1583.6006</ele>
        <time>2025-09-13T18:32:04+02:00</time>
      </trkpt>
      <trkpt lat="42.76237" lon="1.34592">
        <ele>1583.6006</ele>
        <time>2025-09-13T18:32:05+02:00</time>
      </trkpt>
      <trkpt lat="42.76236" lon="1.34589">
        <ele>1583.7002</ele>
        <time>2025-09-13T18:32:09+02:00</time>
      </trkpt>
      <trkpt lat="42.76236" lon="1.34588">
        <ele>1583.7002</ele>
        <time>2025-09-13T18:32:10+02:00</time>
      </trkpt>
      <trkpt lat="42.76236" lon="1.34584">
        <ele>1583.7002</ele>
        <time>2025-09-13T18:32:14+02:00</time>
      </trkpt>
      <trkpt lat="42.76236" lon="1.34583">
        <ele>1583.7002</ele>
        <time>2025-09-13T18:32:15+02:00</time>
      </trkpt>
      <trkpt lat="42.76236" lon="1.3458">
        <ele>1583.9004</ele>
        <time>2025-09-13T18:32:19+02:00</time>
      </trkpt>
      <trkpt lat="42.76236" lon="1.34579">
        <ele>1583.9004</ele>
        <time>2025-09-13T18:32:20+02:00</time>
      </trkpt>
      <trkpt lat="42.76238" lon="1.34576">
        <ele>1583.9004</ele>
        <time>2025-09-13T18:32:24+02:00</time>
      </trkpt>
      <trkpt lat="42.76239" lon="1.34576">
        <ele>1583.9004</ele>
        <time>2025-09-13T18:32:25+02:00</time>
      </trkpt>
      <trkpt lat="42.7624" lon="1.34574">
        <ele>1581.7998</ele>
        <time>2025-09-13T18:32:29+02:00</time>
      </trkpt>
      <trkpt lat="42.7624" lon="1.34573">
        <ele>1581.7998</ele>
        <time>2025-09-13T18:32:30+02:00</time>
      </trkpt>
      <trkpt lat="42.76242" lon="1.3457">
        <ele>1581.7998</ele>
        <time>2025-09-13T18:32:34+02:00</time>
      </trkpt>
      <trkpt lat="42.76244" lon="1.34568">
        <ele>1581.7998</ele>
        <time>2025-09-13T18:32:39+02:00</time>
      </trkpt>
      <trkpt lat="42.76245" lon="1.34567">
        <ele>1581.7998</ele>
        <time>2025-09-13T18:32:40+02:00</time>
      </trkpt>
      <trkpt lat="42.76247" lon="1.34565">
        <ele>1580</ele>
        <time>2025-09-13T18:32:44+02:00</time>
      </trkpt>
      <trkpt lat="42.76247" lon="1.34565">
        <ele>1580</ele>
        <time>2025-09-13T18:32:45+02:00</time>
      </trkpt>
      <trkpt lat="42.7625" lon="1.34564">
        <ele>1580</ele>
        <time>2025-09-13T18:32:49+02:00</time>
      </trkpt>
      <trkpt lat="42.7625" lon="1.34564">
        <ele>1580</ele>
        <time>2025-09-13T18:32:50+02:00</time>
      </trkpt>
      <trkpt lat="42.76253" lon="1.34562">
        <ele>1577.6006</ele>
        <time>2025-09-13T18:32:54+02:00</time>
      </trkpt>
      <trkpt lat="42.76254" lon="1.34561">
        <ele>1577.6006</ele>
        <time>2025-09-13T18:32:55+02:00</time>
      </trkpt>
      <trkpt lat="42.76257" lon="1.34559">
        <ele>1577.6006</ele>
        <time>2025-09-13T18:32:59+02:00</time>
      </trkpt>
      <trkpt lat="42.76258" lon="1.34558">
        <ele>1577.6006</ele>
        <time>2025-09-13T18:33:00+02:00</time>
      </trkpt>
      <trkpt lat="42.76259" lon="1.34555">
        <ele>1576.2002</ele>
        <time>2025-09-13T18:33:04+02:00</time>
      </trkpt>
      <trkpt lat="42.76259" lon="1.34555">
        <ele>1576.2002</ele>
        <time>2025-09-13T18:33:05+02:00</time>
      </trkpt>
      <trkpt lat="42.76261" lon="1.34551">
        <ele>1576.2002</ele>
        <time>2025-09-13T18:33:09+02:00</time>
      </trkpt>
      <trkpt lat="42.76262" lon="1.3455">
        <ele>1576.2002</ele>
        <time>2025-09-13T18:33:10+02:00</time>
      </trkpt>
      <trkpt lat="42.76264" lon="1.34548">
        <ele>1577.2998</ele>
        <time>2025-09-13T18:33:14+02:00</time>
      </trkpt>
      <trkpt lat="42.76265" lon="1.34547">
        <ele>1575.1006</ele>
        <time>2025-09-13T18:33:15+02:00</time>
      </trkpt>
      <trkpt lat="42.76267" lon="1.34545">
        <ele>1575.1006</ele>
        <time>2025-09-13T18:33:19+02:00</time>
      </trkpt>
      <trkpt lat="42.76268" lon="1.34544">
        <ele>1575.1006</ele>
        <time>2025-09-13T18:33:20+02:00</time>
      </trkpt>
      <trkpt lat="42.76269" lon="1.34544">
        <ele>1575.1006</ele>
        <time>2025-09-13T18:33:24+02:00</time>
      </trkpt>
      <trkpt lat="42.76269" lon="1.34544">
        <ele>1575.1006</ele>
        <time>2025-09-13T18:33:25+02:00</time>
      </trkpt>
      <trkpt lat="42.76271" lon="1.34542">
        <ele>1572.7998</ele>
        <time>2025-09-13T18:33:29+02:00</time>
      </trkpt>
      <trkpt lat="42.76271" lon="1.34541">
        <ele>1572.7998</ele>
        <time>2025-09-13T18:33:30+02:00</time>
      </trkpt>
      <trkpt lat="42.76273" lon="1.34538">
        <ele>1574.1006</ele>
        <time>2025-09-13T18:33:34+02:00</time>
      </trkpt>
      <trkpt lat="42.76273" lon="1.34537">
        <ele>1574.1006</ele>
        <time>2025-09-13T18:33:35+02:00</time>
      </trkpt>
      <trkpt lat="42.76276" lon="1.34533">
        <ele>1574.1006</ele>
        <time>2025-09-13T18:33:39+02:00</time>
      </trkpt>
      <trkpt lat="42.76277" lon="1.34533">
        <ele>1571.9004</ele>
        <time>2025-09-13T18:33:40+02:00</time>
      </trkpt>
      <trkpt lat="42.7628" lon="1.3453">
        <ele>1573.6006</ele>
        <time>2025-09-13T18:33:43+02:00</time>
      </trkpt>
      <trkpt lat="42.7628" lon="1.34529">
        <ele>1573.6006</ele>
        <time>2025-09-13T18:33:45+02:00</time>
      </trkpt>
      <trkpt lat="42.76282" lon="1.34526">
        <ele>1573.6006</ele>
        <time>2025-09-13T18:33:49+02:00</time>
      </trkpt>
      <trkpt lat="42.76283" lon="1.34526">
        <ele>1573.6006</ele>
        <time>2025-09-13T18:33:50+02:00</time>
      </trkpt>
      <trkpt lat="42.76285" lon="1.34523">
        <ele>1571.4004</ele>
        <time>2025-09-13T18:33:54+02:00</time>
      </trkpt>
      <trkpt lat="42.76285" lon="1.34522">
        <ele>1573.2998</ele>
        <time>2025-09-13T18:33:55+02:00</time>
      </trkpt>
      <trkpt lat="42.76285" lon="1.34523">
        <ele>1571.4004</ele>
        <time>2025-09-13T18:33:59+02:00</time>
      </trkpt>
      <trkpt lat="42.76285" lon="1.34523">
        <ele>1571.4004</ele>
        <time>2025-09-13T18:34:00+02:00</time>
      </trkpt>
      <trkpt lat="42.76285" lon="1.34523">
        <ele>1571.4004</ele>
        <time>2025-09-13T18:34:04+02:00</time>
      </trkpt>
      <trkpt lat="42.76285" lon="1.34523">
        <ele>1571.4004</ele>
        <time>2025-09-13T18:34:05+02:00</time>
      </trkpt>
      <trkpt lat="42.76286" lon="1.34523">
        <ele>1571.4004</ele>
        <time>2025-09-13T18:34:09+02:00</time>
      </trkpt>
      <trkpt lat="42.76286" lon="1.34523">
        <ele>1571.4004</ele>
        <time>2025-09-13T18:34:10+02:00</time>
      </trkpt>
      <trkpt lat="42.76287" lon="1.34522">
        <ele>1573.2998</ele>
        <time>2025-09-13T18:34:14+02:00</time>
      </trkpt>
      <trkpt lat="42.76287" lon="1.34522">
        <ele>1573.2998</ele>
        <time>2025-09-13T18:34:15+02:00</time>
      </trkpt>
      <trkpt lat="42.76287" lon="1.34521">
        <ele>1573.2998</ele>
        <time>2025-09-13T18:34:19+02:00</time>
      </trkpt>
      <trkpt lat="42.76289" lon="1.34519">
        <ele>1573.2998</ele>
        <time>2025-09-13T18:34:24+02:00</time>
      </trkpt>
      <trkpt lat="42.76289" lon="1.34518">
        <ele>1571.2002</ele>
        <time>2025-09-13T18:34:25+02:00</time>
      </trkpt>
      <trkpt lat="42.76294" lon="1.34515">
        <ele>1571.2002</ele>
        <time>2025-09-13T18:34:29+02:00</time>
      </trkpt>
      <trkpt lat="42.76295" lon="1.34515">
        <ele>1571.2002</ele>
        <time>2025-09-13T18:34:30+02:00</time>
      </trkpt>
      <trkpt lat="42.76299" lon="1.34514">
        <ele>1569.1006</ele>
        <time>2025-09-13T18:34:34+02:00</time>
      </trkpt>
      <trkpt lat="42.763" lon="1.34514">
        <ele>1571.1006</ele>
        <time>2025-09-13T18:34:35+02:00</time>
      </trkpt>
      <trkpt lat="42.76302" lon="1.34511">
        <ele>1569.1006</ele>
        <time>2025-09-13T18:34:39+02:00</time>
      </trkpt>
      <trkpt lat="42.76302" lon="1.34511">
        <ele>1569.1006</ele>
        <time>2025-09-13T18:34:40+02:00</time>
      </trkpt>
      <trkpt lat="42.76304" lon="1.34506">
        <ele>1569.1006</ele>
        <time>2025-09-13T18:34:44+02:00</time>
      </trkpt>
      <trkpt lat="42.76305" lon="1.34505">
        <ele>1569.1006</ele>
        <time>2025-09-13T18:34:45+02:00</time>
      </trkpt>
      <trkpt lat="42.76306" lon="1.34502">
        <ele>1571.1006</ele>
        <time>2025-09-13T18:34:49+02:00</time>
      </trkpt>
      <trkpt lat="42.76306" lon="1.34501">
        <ele>1571.1006</ele>
        <time>2025-09-13T18:34:50+02:00</time>
      </trkpt>
      <trkpt lat="42.76309" lon="1.34497">
        <ele>1569</ele>
        <time>2025-09-13T18:34:54+02:00</time>
      </trkpt>
      <trkpt lat="42.76309" lon="1.34496">
        <ele>1571.1006</ele>
        <time>2025-09-13T18:34:55+02:00</time>
      </trkpt>
      <trkpt lat="42.76312" lon="1.34492">
        <ele>1571.1006</ele>
        <time>2025-09-13T18:34:59+02:00</time>
      </trkpt>
      <trkpt lat="42.76312" lon="1.34492">
        <ele>1571.1006</ele>
        <time>2025-09-13T18:35:00+02:00</time>
      </trkpt>
      <trkpt lat="42.76316" lon="1.3449">
        <ele>1568.9004</ele>
        <time>2025-09-13T18:35:03+02:00</time>
      </trkpt>
      <trkpt lat="42.76316" lon="1.3449">
        <ele>1568.9004</ele>
        <time>2025-09-13T18:35:05+02:00</time>
      </trkpt>
      <trkpt lat="42.7632" lon="1.34487">
        <ele>1571</ele>
        <time>2025-09-13T18:35:09+02:00</time>
      </trkpt>
      <trkpt lat="42.7632" lon="1.34487">
        <ele>1571</ele>
        <time>2025-09-13T18:35:10+02:00</time>
      </trkpt>
      <trkpt lat="42.76323" lon="1.34483">
        <ele>1568.7002</ele>
        <time>2025-09-13T18:35:14+02:00</time>
      </trkpt>
      <trkpt lat="42.76324" lon="1.34482">
        <ele>1568.7002</ele>
        <time>2025-09-13T18:35:15+02:00</time>
      </trkpt>
      <trkpt lat="42.76327" lon="1.3448">
        <ele>1568.7002</ele>
        <time>2025-09-13T18:35:19+02:00</time>
      </trkpt>
      <trkpt lat="42.76327" lon="1.3448">
        <ele>1568.7002</ele>
        <time>2025-09-13T18:35:20+02:00</time>
      </trkpt>
      <trkpt lat="42.76331" lon="1.34476">
        <ele>1568.7002</ele>
        <time>2025-09-13T18:35:24+02:00</time>
      </trkpt>
      <trkpt lat="42.76334" lon="1.34472">
        <ele>1566.7998</ele>
        <time>2025-09-13T18:35:29+02:00</time>
      </trkpt>
      <trkpt lat="42.76335" lon="1.34471">
        <ele>1566.7998</ele>
        <time>2025-09-13T18:35:30+02:00</time>
      </trkpt>
      <trkpt lat="42.76339" lon="1.34469">
        <ele>1569</ele>
        <time>2025-09-13T18:35:34+02:00</time>
      </trkpt>
      <trkpt lat="42.76339" lon="1.34468">
        <ele>1569</ele>
        <time>2025-09-13T18:35:35+02:00</time>
      </trkpt>
      <trkpt lat="42.76343" lon="1.34465">
        <ele>1567.2002</ele>
        <time>2025-09-13T18:35:39+02:00</time>
      </trkpt>
      <trkpt lat="42.76343" lon="1.34465">
        <ele>1567.2002</ele>
        <time>2025-09-13T18:35:40+02:00</time>
      </trkpt>
      <trkpt lat="42.76346" lon="1.34462">
        <ele>1567.7002</ele>
        <time>2025-09-13T18:35:44+02:00</time>
      </trkpt>
      <trkpt lat="42.76347" lon="1.34462">
        <ele>1567.7002</ele>
        <time>2025-09-13T18:35:45+02:00</time>
      </trkpt>
      <trkpt lat="42.76349" lon="1.34462">
        <ele>1567.7002</ele>
        <time>2025-09-13T18:35:49+02:00</time>
      </trkpt>
      <trkpt lat="42.76354" lon="1.34461">
        <ele>1566</ele>
        <time>2025-09-13T18:35:54+02:00</time>
      </trkpt>
      <trkpt lat="42.76355" lon="1.34461">
        <ele>1566</ele>
        <time>2025-09-13T18:35:55+02:00</time>
      </trkpt>
      <trkpt lat="42.76359" lon="1.3446">
        <ele>1564.4004</ele>
        <time>2025-09-13T18:35:59+02:00</time>
      </trkpt>
      <trkpt lat="42.7636" lon="1.34459">
        <ele>1564.4004</ele>
        <time>2025-09-13T18:36:00+02:00</time>
      </trkpt>
      <trkpt lat="42.76361" lon="1.34458">
        <ele>1564.4004</ele>
        <time>2025-09-13T18:36:04+02:00</time>
      </trkpt>
      <trkpt lat="42.76361" lon="1.34458">
        <ele>1564.4004</ele>
        <time>2025-09-13T18:36:05+02:00</time>
      </trkpt>
      <trkpt lat="42.76362" lon="1.34457">
        <ele>1564.4004</ele>
        <time>2025-09-13T18:36:09+02:00</time>
      </trkpt>
      <trkpt lat="42.76363" lon="1.34457">
        <ele>1564.4004</ele>
        <time>2025-09-13T18:36:10+02:00</time>
      </trkpt>
      <trkpt lat="42.76366" lon="1.34457">
        <ele>1562.9004</ele>
        <time>2025-09-13T18:36:14+02:00</time>
      </trkpt>
      <trkpt lat="42.76367" lon="1.34457">
        <ele>1562.9004</ele>
        <time>2025-09-13T18:36:15+02:00</time>
      </trkpt>
      <trkpt lat="42.76371" lon="1.34457">
        <ele>1562.9004</ele>
        <time>2025-09-13T18:36:19+02:00</time>
      </trkpt>
      <trkpt lat="42.76371" lon="1.34457">
        <ele>1561.5</ele>
        <time>2025-09-13T18:36:20+02:00</time>
      </trkpt>
      <trkpt lat="42.76375" lon="1.34456">
        <ele>1561.5</ele>
        <time>2025-09-13T18:36:24+02:00</time>
      </trkpt>
      <trkpt lat="42.76376" lon="1.34455">
        <ele>1561.5</ele>
        <time>2025-09-13T18:36:25+02:00</time>
      </trkpt>
      <trkpt lat="42.76379" lon="1.34454">
        <ele>1560.2998</ele>
        <time>2025-09-13T18:36:29+02:00</time>
      </trkpt>
      <trkpt lat="42.7638" lon="1.34454">
        <ele>1562.5</ele>
        <time>2025-09-13T18:36:30+02:00</time>
      </trkpt>
      <trkpt lat="42.76383" lon="1.34452">
        <ele>1562.5</ele>
        <time>2025-09-13T18:36:34+02:00</time>
      </trkpt>
      <trkpt lat="42.76384" lon="1.34451">
        <ele>1561.4004</ele>
        <time>2025-09-13T18:36:35+02:00</time>
      </trkpt>
      <trkpt lat="42.76387" lon="1.3445">
        <ele>1561.4004</ele>
        <time>2025-09-13T18:36:39+02:00</time>
      </trkpt>
      <trkpt lat="42.76388" lon="1.3445">
        <ele>1561.4004</ele>
        <time>2025-09-13T18:36:40+02:00</time>
      </trkpt>
      <trkpt lat="42.7639" lon="1.34447">
        <ele>1561.4004</ele>
        <time>2025-09-13T18:36:44+02:00</time>
      </trkpt>
      <trkpt lat="42.76391" lon="1.34447">
        <ele>1560.4004</ele>
        <time>2025-09-13T18:36:45+02:00</time>
      </trkpt>
      <trkpt lat="42.76394" lon="1.34446">
        <ele>1560.4004</ele>
        <time>2025-09-13T18:36:49+02:00</time>
      </trkpt>
      <trkpt lat="42.76395" lon="1.34445">
        <ele>1560.4004</ele>
        <time>2025-09-13T18:36:50+02:00</time>
      </trkpt>
      <trkpt lat="42.76399" lon="1.34443">
        <ele>1562.1006</ele>
        <time>2025-09-13T18:36:54+02:00</time>
      </trkpt>
      <trkpt lat="42.76399" lon="1.34443">
        <ele>1562.1006</ele>
        <time>2025-09-13T18:36:55+02:00</time>
      </trkpt>
      <trkpt lat="42.76402" lon="1.34442">
        <ele>1562.1006</ele>
        <time>2025-09-13T18:36:59+02:00</time>
      </trkpt>
      <trkpt lat="42.76403" lon="1.34441">
        <ele>1562.1006</ele>
        <time>2025-09-13T18:37:00+02:00</time>
      </trkpt>
      <trkpt lat="42.76405" lon="1.3444">
        <ele>1561.7998</ele>
        <time>2025-09-13T18:37:04+02:00</time>
      </trkpt>
      <trkpt lat="42.76405" lon="1.3444">
        <ele>1561.7998</ele>
        <time>2025-09-13T18:37:05+02:00</time>
      </trkpt>
      <trkpt lat="42.76408" lon="1.34436">
        <ele>1563.7998</ele>
        <time>2025-09-13T18:37:09+02:00</time>
      </trkpt>
      <trkpt lat="42.76409" lon="1.34436">
        <ele>1563</ele>
        <time>2025-09-13T18:37:10+02:00</time>
      </trkpt>
      <trkpt lat="42.76412" lon="1.34435">
        <ele>1563</ele>
        <time>2025-09-13T18:37:14+02:00</time>
      </trkpt>
      <trkpt lat="42.76413" lon="1.34435">
        <ele>1563</ele>
        <time>2025-09-13T18:37:15+02:00</time>
      </trkpt>
      <trkpt lat="42.76415" lon="1.34432">
        <ele>1563</ele>
        <time>2025-09-13T18:37:19+02:00</time>
      </trkpt>
      <trkpt lat="42.76415" lon="1.34431">
        <ele>1563</ele>
        <time>2025-09-13T18:37:20+02:00</time>
      </trkpt>
      <trkpt lat="42.76416" lon="1.34429">
        <ele>1561.4004</ele>
        <time>2025-09-13T18:37:24+02:00</time>
      </trkpt>
      <trkpt lat="42.76416" lon="1.34429">
        <ele>1561.4004</ele>
        <time>2025-09-13T18:37:25+02:00</time>
      </trkpt>
      <trkpt lat="42.76417" lon="1.34428">
        <ele>1561.4004</ele>
        <time>2025-09-13T18:37:29+02:00</time>
      </trkpt>
      <trkpt lat="42.76417" lon="1.34428">
        <ele>1561.4004</ele>
        <time>2025-09-13T18:37:30+02:00</time>
      </trkpt>
      <trkpt lat="42.76418" lon="1.34428">
        <ele>1563.2002</ele>
        <time>2025-09-13T18:37:34+02:00</time>
      </trkpt>
      <trkpt lat="42.76418" lon="1.34428">
        <ele>1563.2002</ele>
        <time>2025-09-13T18:37:35+02:00</time>
      </trkpt>
      <trkpt lat="42.76418" lon="1.34427">
        <ele>1563.2002</ele>
        <time>2025-09-13T18:37:39+02:00</time>
      </trkpt>
      <trkpt lat="42.76419" lon="1.34426">
        <ele>1563.2002</ele>
        <time>2025-09-13T18:37:40+02:00</time>
      </trkpt>
      <trkpt lat="42.76422" lon="1.34424">
        <ele>1563.2002</ele>
        <time>2025-09-13T18:37:44+02:00</time>
      </trkpt>
      <trkpt lat="42.76422" lon="1.34424">
        <ele>1561.2002</ele>
        <time>2025-09-13T18:37:45+02:00</time>
      </trkpt>
      <trkpt lat="42.76424" lon="1.34424">
        <ele>1561.2002</ele>
        <time>2025-09-13T18:37:49+02:00</time>
      </trkpt>
      <trkpt lat="42.76424" lon="1.34423">
        <ele>1561.2002</ele>
        <time>2025-09-13T18:37:50+02:00</time>
      </trkpt>
      <trkpt lat="42.76426" lon="1.34422">
        <ele>1561.2002</ele>
        <time>2025-09-13T18:37:54+02:00</time>
      </trkpt>
      <trkpt lat="42.76426" lon="1.34422">
        <ele>1561.2002</ele>
        <time>2025-09-13T18:37:55+02:00</time>
      </trkpt>
      <trkpt lat="42.76428" lon="1.34418">
        <ele>1562.9004</ele>
        <time>2025-09-13T18:37:59+02:00</time>
      </trkpt>
      <trkpt lat="42.76428" lon="1.34417">
        <ele>1562.9004</ele>
        <time>2025-09-13T18:38:00+02:00</time>
      </trkpt>
      <trkpt lat="42.76429" lon="1.34414">
        <ele>1560.7998</ele>
        <time>2025-09-13T18:38:04+02:00</time>
      </trkpt>
      <trkpt lat="42.76429" lon="1.34413">
        <ele>1560.7998</ele>
        <time>2025-09-13T18:38:05+02:00</time>
      </trkpt>
      <trkpt lat="42.7643" lon="1.34409">
        <ele>1562.7998</ele>
        <time>2025-09-13T18:38:09+02:00</time>
      </trkpt>
      <trkpt lat="42.76431" lon="1.34409">
        <ele>1562.7998</ele>
        <time>2025-09-13T18:38:10+02:00</time>
      </trkpt>
      <trkpt lat="42.76431" lon="1.34405">
        <ele>1562.7998</ele>
        <time>2025-09-13T18:38:14+02:00</time>
      </trkpt>
      <trkpt lat="42.76432" lon="1.34404">
        <ele>1562.7998</ele>
        <time>2025-09-13T18:38:15+02:00</time>
      </trkpt>
      <trkpt lat="42.76434" lon="1.34402">
        <ele>1564.7002</ele>
        <time>2025-09-13T18:38:19+02:00</time>
      </trkpt>
      <trkpt lat="42.76435" lon="1.34402">
        <ele>1563.1006</ele>
        <time>2025-09-13T18:38:20+02:00</time>
      </trkpt>
      <trkpt lat="42.76438" lon="1.344">
        <ele>1563.1006</ele>
        <time>2025-09-13T18:38:24+02:00</time>
      </trkpt>
      <trkpt lat="42.76438" lon="1.344">
        <ele>1563.1006</ele>
        <time>2025-09-13T18:38:25+02:00</time>
      </trkpt>
      <trkpt lat="42.76441" lon="1.344">
        <ele>1561.2998</ele>
        <time>2025-09-13T18:38:29+02:00</time>
      </trkpt>
      <trkpt lat="42.76442" lon="1.344">
        <ele>1561.2998</ele>
        <time>2025-09-13T18:38:30+02:00</time>
      </trkpt>
      <trkpt lat="42.76445" lon="1.34399">
        <ele>1561.2998</ele>
        <time>2025-09-13T18:38:34+02:00</time>
      </trkpt>
      <trkpt lat="42.76446" lon="1.34398">
        <ele>1561.2998</ele>
        <time>2025-09-13T18:38:35+02:00</time>
      </trkpt>
      <trkpt lat="42.76448" lon="1.34397">
        <ele>1559.2998</ele>
        <time>2025-09-13T18:38:39+02:00</time>
      </trkpt>
      <trkpt lat="42.76448" lon="1.34397">
        <ele>1559.2998</ele>
        <time>2025-09-13T18:38:40+02:00</time>
      </trkpt>
      <trkpt lat="42.76448" lon="1.34398">
        <ele>1559.2998</ele>
        <time>2025-09-13T18:38:44+02:00</time>
      </trkpt>
      <trkpt lat="42.76448" lon="1.34398">
        <ele>1559.2998</ele>
        <time>2025-09-13T18:38:45+02:00</time>
      </trkpt>
      <trkpt lat="42.76449" lon="1.34398">
        <ele>1559.2998</ele>
        <time>2025-09-13T18:38:49+02:00</time>
      </trkpt>
      <trkpt lat="42.76449" lon="1.34398">
        <ele>1559.2998</ele>
        <time>2025-09-13T18:38:50+02:00</time>
      </trkpt>
      <trkpt lat="42.76449" lon="1.34398">
        <ele>1559.2998</ele>
        <time>2025-09-13T18:38:54+02:00</time>
      </trkpt>
      <trkpt lat="42.76449" lon="1.34398">
        <ele>1559.2998</ele>
        <time>2025-09-13T18:38:55+02:00</time>
      </trkpt>
      <trkpt lat="42.76449" lon="1.34398">
        <ele>1559.2998</ele>
        <time>2025-09-13T18:38:59+02:00</time>
      </trkpt>
      <trkpt lat="42.76449" lon="1.34398">
        <ele>1559.2998</ele>
        <time>2025-09-13T18:39:00+02:00</time>
      </trkpt>
      <trkpt lat="42.7645" lon="1.34399">
        <ele>1559.2998</ele>
        <time>2025-09-13T18:39:04+02:00</time>
      </trkpt>
      <trkpt lat="42.76451" lon="1.34399">
        <ele>1559.2998</ele>
        <time>2025-09-13T18:39:05+02:00</time>
      </trkpt>
      <trkpt lat="42.76454" lon="1.34398">
        <ele>1557.4004</ele>
        <time>2025-09-13T18:39:09+02:00</time>
      </trkpt>
      <trkpt lat="42.76455" lon="1.34398">
        <ele>1557.4004</ele>
        <time>2025-09-13T18:39:10+02:00</time>
      </trkpt>
      <trkpt lat="42.76458" lon="1.34395">
        <ele>1557.4004</ele>
        <time>2025-09-13T18:39:14+02:00</time>
      </trkpt>
      <trkpt lat="42.76459" lon="1.3439">
        <ele>1560.9004</ele>
        <time>2025-09-13T18:39:19+02:00</time>
      </trkpt>
      <trkpt lat="42.76459" lon="1.34389">
        <ele>1560.9004</ele>
        <time>2025-09-13T18:39:20+02:00</time>
      </trkpt>
      <trkpt lat="42.7646" lon="1.34386">
        <ele>1557.2998</ele>
        <time>2025-09-13T18:39:23+02:00</time>
      </trkpt>
      <trkpt lat="42.76459" lon="1.34385">
        <ele>1560.9004</ele>
        <time>2025-09-13T18:39:25+02:00</time>
      </trkpt>
      <trkpt lat="42.76461" lon="1.34382">
        <ele>1558.7998</ele>
        <time>2025-09-13T18:39:29+02:00</time>
      </trkpt>
      <trkpt lat="42.76461" lon="1.34382">
        <ele>1558.7998</ele>
        <time>2025-09-13T18:39:30+02:00</time>
      </trkpt>
      <trkpt lat="42.76463" lon="1.3438">
        <ele>1558.7998</ele>
        <time>2025-09-13T18:39:34+02:00</time>
      </trkpt>
      <trkpt lat="42.76463" lon="1.3438">
        <ele>1558.7998</ele>
        <time>2025-09-13T18:39:35+02:00</time>
      </trkpt>
      <trkpt lat="42.76465" lon="1.34378">
        <ele>1558.7998</ele>
        <time>2025-09-13T18:39:39+02:00</time>
      </trkpt>
      <trkpt lat="42.76466" lon="1.34378">
        <ele>1558.7998</ele>
        <time>2025-09-13T18:39:40+02:00</time>
      </trkpt>
      <trkpt lat="42.76466" lon="1.34376">
        <ele>1556.2002</ele>
        <time>2025-09-13T18:39:44+02:00</time>
      </trkpt>
      <trkpt lat="42.76466" lon="1.34376">
        <ele>1556.2002</ele>
        <time>2025-09-13T18:39:45+02:00</time>
      </trkpt>
      <trkpt lat="42.76466" lon="1.34376">
        <ele>1556.2002</ele>
        <time>2025-09-13T18:39:49+02:00</time>
      </trkpt>
      <trkpt lat="42.76466" lon="1.34376">
        <ele>1556.2002</ele>
        <time>2025-09-13T18:39:50+02:00</time>
      </trkpt>
      <trkpt lat="42.76466" lon="1.34376">
        <ele>1556.2002</ele>
        <time>2025-09-13T18:39:54+02:00</time>
      </trkpt>
      <trkpt lat="42.76466" lon="1.34376">
        <ele>1556.2002</ele>
        <time>2025-09-13T18:39:55+02:00</time>
      </trkpt>
      <trkpt lat="42.76466" lon="1.34376">
        <ele>1556.2002</ele>
        <time>2025-09-13T18:39:59+02:00</time>
      </trkpt>
      <trkpt lat="42.76466" lon="1.34376">
        <ele>1556.2002</ele>
        <time>2025-09-13T18:40:00+02:00</time>
      </trkpt>
      <trkpt lat="42.76468" lon="1.34375">
        <ele>1556.2002</ele>
        <time>2025-09-13T18:40:04+02:00</time>
      </trkpt>
      <trkpt lat="42.76468" lon="1.34374">
        <ele>1556.2002</ele>
        <time>2025-09-13T18:40:05+02:00</time>
      </trkpt>
      <trkpt lat="42.7647" lon="1.34372">
        <ele>1556.2002</ele>
        <time>2025-09-13T18:40:09+02:00</time>
      </trkpt>
      <trkpt lat="42.76471" lon="1.34371">
        <ele>1556.2002</ele>
        <time>2025-09-13T18:40:10+02:00</time>
      </trkpt>
      <trkpt lat="42.76474" lon="1.3437">
        <ele>1553.9004</ele>
        <time>2025-09-13T18:40:14+02:00</time>
      </trkpt>
      <trkpt lat="42.76475" lon="1.3437">
        <ele>1553.9004</ele>
        <time>2025-09-13T18:40:15+02:00</time>
      </trkpt>
      <trkpt lat="42.76479" lon="1.34368">
        <ele>1555.4004</ele>
        <time>2025-09-13T18:40:19+02:00</time>
      </trkpt>
      <trkpt lat="42.76479" lon="1.34368">
        <ele>1559.7998</ele>
        <time>2025-09-13T18:40:20+02:00</time>
      </trkpt>
      <trkpt lat="42.7648" lon="1.34367">
        <ele>1559.7998</ele>
        <time>2025-09-13T18:40:24+02:00</time>
      </trkpt>
      <trkpt lat="42.76481" lon="1.34366">
        <ele>1559.7998</ele>
        <time>2025-09-13T18:40:25+02:00</time>
      </trkpt>
      <trkpt lat="42.76483" lon="1.34364">
        <ele>1559.7998</ele>
        <time>2025-09-13T18:40:29+02:00</time>
      </trkpt>
      <trkpt lat="42.76484" lon="1.34364">
        <ele>1559.7998</ele>
        <time>2025-09-13T18:40:30+02:00</time>
      </trkpt>
      <trkpt lat="42.76483" lon="1.34362">
        <ele>1559.7998</ele>
        <time>2025-09-13T18:40:34+02:00</time>
      </trkpt>
      <trkpt lat="42.76483" lon="1.34362">
        <ele>1559.7998</ele>
        <time>2025-09-13T18:40:35+02:00</time>
      </trkpt>
      <trkpt lat="42.76483" lon="1.34363">
        <ele>1559.7998</ele>
        <time>2025-09-13T18:40:39+02:00</time>
      </trkpt>
      <trkpt lat="42.76484" lon="1.34362">
        <ele>1559.7998</ele>
        <time>2025-09-13T18:40:44+02:00</time>
      </trkpt>
      <trkpt lat="42.76484" lon="1.34362">
        <ele>1559.7998</ele>
        <time>2025-09-13T18:40:45+02:00</time>
      </trkpt>
      <trkpt lat="42.76485" lon="1.34361">
        <ele>1562.6006</ele>
        <time>2025-09-13T18:40:49+02:00</time>
      </trkpt>
      <trkpt lat="42.76486" lon="1.34361">
        <ele>1562.6006</ele>
        <time>2025-09-13T18:40:50+02:00</time>
      </trkpt>
      <trkpt lat="42.76487" lon="1.34361">
        <ele>1562.6006</ele>
        <time>2025-09-13T18:40:54+02:00</time>
      </trkpt>
      <trkpt lat="42.76487" lon="1.34362">
        <ele>1562.6006</ele>
        <time>2025-09-13T18:40:55+02:00</time>
      </trkpt>
      <trkpt lat="42.76491" lon="1.34362">
        <ele>1562.6006</ele>
        <time>2025-09-13T18:40:59+02:00</time>
      </trkpt>
      <trkpt lat="42.76492" lon="1.34362">
        <ele>1566.1006</ele>
        <time>2025-09-13T18:41:00+02:00</time>
      </trkpt>
      <trkpt lat="42.76495" lon="1.34359">
        <ele>1567.1006</ele>
        <time>2025-09-13T18:41:04+02:00</time>
      </trkpt>
      <trkpt lat="42.76497" lon="1.34356">
        <ele>1567.1006</ele>
        <time>2025-09-13T18:41:09+02:00</time>
      </trkpt>
      <trkpt lat="42.76497" lon="1.34355">
        <ele>1567.1006</ele>
        <time>2025-09-13T18:41:10+02:00</time>
      </trkpt>
      <trkpt lat="42.76496" lon="1.34355">
        <ele>1567.1006</ele>
        <time>2025-09-13T18:41:14+02:00</time>
      </trkpt>
      <trkpt lat="42.76496" lon="1.34355">
        <ele>1567.1006</ele>
        <time>2025-09-13T18:41:15+02:00</time>
      </trkpt>
      <trkpt lat="42.76496" lon="1.34354">
        <ele>1567.1006</ele>
        <time>2025-09-13T18:41:19+02:00</time>
      </trkpt>
      <trkpt lat="42.76496" lon="1.34353">
        <ele>1567.1006</ele>
        <time>2025-09-13T18:41:20+02:00</time>
      </trkpt>
      <trkpt lat="42.76497" lon="1.34349">
        <ele>1567.9004</ele>
        <time>2025-09-13T18:41:24+02:00</time>
      </trkpt>
      <trkpt lat="42.76497" lon="1.34349">
        <ele>1569.2998</ele>
        <time>2025-09-13T18:41:25+02:00</time>
      </trkpt>
      <trkpt lat="42.76498" lon="1.34349">
        <ele>1569.2998</ele>
        <time>2025-09-13T18:41:29+02:00</time>
      </trkpt>
      <trkpt lat="42.76498" lon="1.34349">
        <ele>1569.2998</ele>
        <time>2025-09-13T18:41:30+02:00</time>
      </trkpt>
      <trkpt lat="42.76497" lon="1.34349">
        <ele>1569.2998</ele>
        <time>2025-09-13T18:41:34+02:00</time>
      </trkpt>
      <trkpt lat="42.76497" lon="1.34349">
        <ele>1569.2998</ele>
        <time>2025-09-13T18:41:35+02:00</time>
      </trkpt>
      <trkpt lat="42.76497" lon="1.34349">
        <ele>1569.2998</ele>
        <time>2025-09-13T18:41:39+02:00</time>
      </trkpt>
      <trkpt lat="42.76497" lon="1.34349">
        <ele>1569.2998</ele>
        <time>2025-09-13T18:41:40+02:00</time>
      </trkpt>
      <trkpt lat="42.76497" lon="1.34349">
        <ele>1569.2998</ele>
        <time>2025-09-13T18:41:44+02:00</time>
      </trkpt>
      <trkpt lat="42.76497" lon="1.34349">
        <ele>1569.2998</ele>
        <time>2025-09-13T18:41:45+02:00</time>
      </trkpt>
      <trkpt lat="42.76498" lon="1.34349">
        <ele>1569.2998</ele>
        <time>2025-09-13T18:41:49+02:00</time>
      </trkpt>
      <trkpt lat="42.76498" lon="1.34349">
        <ele>1569.2998</ele>
        <time>2025-09-13T18:41:50+02:00</time>
      </trkpt>
      <trkpt lat="42.76498" lon="1.34349">
        <ele>1569.2998</ele>
        <time>2025-09-13T18:41:54+02:00</time>
      </trkpt>
      <trkpt lat="42.76498" lon="1.34349">
        <ele>1569.2998</ele>
        <time>2025-09-13T18:41:55+02:00</time>
      </trkpt>
      <trkpt lat="42.76499" lon="1.34349">
        <ele>1569.2998</ele>
        <time>2025-09-13T18:41:59+02:00</time>
      </trkpt>
      <trkpt lat="42.76499" lon="1.34349">
        <ele>1569.2998</ele>
        <time>2025-09-13T18:42:00+02:00</time>
      </trkpt>
      <trkpt lat="42.76499" lon="1.3435">
        <ele>1569.2998</ele>
        <time>2025-09-13T18:42:04+02:00</time>
      </trkpt>
      <trkpt lat="42.76499" lon="1.3435">
        <ele>1569.2998</ele>
        <time>2025-09-13T18:42:05+02:00</time>
      </trkpt>
      <trkpt lat="42.76499" lon="1.3435">
        <ele>1569.2998</ele>
        <time>2025-09-13T18:42:09+02:00</time>
      </trkpt>
      <trkpt lat="42.76499" lon="1.34349">
        <ele>1569.2998</ele>
        <time>2025-09-13T18:42:10+02:00</time>
      </trkpt>
      <trkpt lat="42.76499" lon="1.34349">
        <ele>1569.2998</ele>
        <time>2025-09-13T18:42:14+02:00</time>
      </trkpt>
      <trkpt lat="42.76499" lon="1.34349">
        <ele>1569.2998</ele>
        <time>2025-09-13T18:42:15+02:00</time>
      </trkpt>
      <trkpt lat="42.76499" lon="1.34349">
        <ele>1569.2998</ele>
        <time>2025-09-13T18:42:19+02:00</time>
      </trkpt>
      <trkpt lat="42.76499" lon="1.34349">
        <ele>1569.2998</ele>
        <time>2025-09-13T18:42:20+02:00</time>
      </trkpt>
      <trkpt lat="42.765" lon="1.34348">
        <ele>1569.2998</ele>
        <time>2025-09-13T18:42:24+02:00</time>
      </trkpt>
      <trkpt lat="42.765" lon="1.34348">
        <ele>1569.2998</ele>
        <time>2025-09-13T18:42:25+02:00</time>
      </trkpt>
      <trkpt lat="42.76501" lon="1.34347">
        <ele>1569.2998</ele>
        <time>2025-09-13T18:42:29+02:00</time>
      </trkpt>
      <trkpt lat="42.765" lon="1.34347">
        <ele>1569.2998</ele>
        <time>2025-09-13T18:42:30+02:00</time>
      </trkpt>
      <trkpt lat="42.76501" lon="1.34347">
        <ele>1569.2998</ele>
        <time>2025-09-13T18:42:34+02:00</time>
      </trkpt>
      <trkpt lat="42.76501" lon="1.34347">
        <ele>1569.2998</ele>
        <time>2025-09-13T18:42:35+02:00</time>
      </trkpt>
      <trkpt lat="42.76501" lon="1.34346">
        <ele>1569.2998</ele>
        <time>2025-09-13T18:42:39+02:00</time>
      </trkpt>
      <trkpt lat="42.76501" lon="1.34346">
        <ele>1569.2998</ele>
        <time>2025-09-13T18:42:40+02:00</time>
      </trkpt>
      <trkpt lat="42.76501" lon="1.34346">
        <ele>1569.2998</ele>
        <time>2025-09-13T18:42:44+02:00</time>
      </trkpt>
      <trkpt lat="42.765" lon="1.34346">
        <ele>1569.2998</ele>
        <time>2025-09-13T18:42:45+02:00</time>
      </trkpt>
      <trkpt lat="42.76501" lon="1.34347">
        <ele>1569.2998</ele>
        <time>2025-09-13T18:42:49+02:00</time>
      </trkpt>
      <trkpt lat="42.76501" lon="1.34347">
        <ele>1569.2998</ele>
        <time>2025-09-13T18:42:50+02:00</time>
      </trkpt>
      <trkpt lat="42.76502" lon="1.34347">
        <ele>1569.2998</ele>
        <time>2025-09-13T18:42:54+02:00</time>
      </trkpt>
      <trkpt lat="42.76503" lon="1.34347">
        <ele>1569.2998</ele>
        <time>2025-09-13T18:42:55+02:00</time>
      </trkpt>
      <trkpt lat="42.76502" lon="1.34349">
        <ele>1569.2998</ele>
        <time>2025-09-13T18:42:59+02:00</time>
      </trkpt>
      <trkpt lat="42.76502" lon="1.34349">
        <ele>1569.2998</ele>
        <time>2025-09-13T18:43:00+02:00</time>
      </trkpt>
      <trkpt lat="42.765" lon="1.34353">
        <ele>1569.1006</ele>
        <time>2025-09-13T18:43:04+02:00</time>
      </trkpt>
      <trkpt lat="42.765" lon="1.34354">
        <ele>1569.1006</ele>
        <time>2025-09-13T18:43:05+02:00</time>
      </trkpt>
      <trkpt lat="42.76499" lon="1.34358">
        <ele>1569.1006</ele>
        <time>2025-09-13T18:43:09+02:00</time>
      </trkpt>
      <trkpt lat="42.76499" lon="1.34358">
        <ele>1569.1006</ele>
        <time>2025-09-13T18:43:10+02:00</time>
      </trkpt>
      <trkpt lat="42.76498" lon="1.34362">
        <ele>1569</ele>
        <time>2025-09-13T18:43:14+02:00</time>
      </trkpt>
      <trkpt lat="42.76498" lon="1.34366">
        <ele>1569</ele>
        <time>2025-09-13T18:43:18+02:00</time>
      </trkpt>
      <trkpt lat="42.76498" lon="1.34367">
        <ele>1569</ele>
        <time>2025-09-13T18:43:20+02:00</time>
      </trkpt>
      <trkpt lat="42.76499" lon="1.34372">
        <ele>1568.7998</ele>
        <time>2025-09-13T18:43:24+02:00</time>
      </trkpt>
      <trkpt lat="42.76498" lon="1.34376">
        <ele>1568.7998</ele>
        <time>2025-09-13T18:43:28+02:00</time>
      </trkpt>
      <trkpt lat="42.76498" lon="1.34377">
        <ele>1568.6006</ele>
        <time>2025-09-13T18:43:30+02:00</time>
      </trkpt>
      <trkpt lat="42.76498" lon="1.3438">
        <ele>1568.6006</ele>
        <time>2025-09-13T18:43:34+02:00</time>
      </trkpt>
      <trkpt lat="42.76498" lon="1.34381">
        <ele>1568.6006</ele>
        <time>2025-09-13T18:43:35+02:00</time>
      </trkpt>
      <trkpt lat="42.76499" lon="1.34385">
        <ele>1568.6006</ele>
        <time>2025-09-13T18:43:39+02:00</time>
      </trkpt>
      <trkpt lat="42.76499" lon="1.34386">
        <ele>1568.2998</ele>
        <time>2025-09-13T18:43:40+02:00</time>
      </trkpt>
      <trkpt lat="42.765" lon="1.3439">
        <ele>1568.2998</ele>
        <time>2025-09-13T18:43:44+02:00</time>
      </trkpt>
      <trkpt lat="42.765" lon="1.34391">
        <ele>1568.2998</ele>
        <time>2025-09-13T18:43:45+02:00</time>
      </trkpt>
      <trkpt lat="42.76499" lon="1.34395">
        <ele>1568.2002</ele>
        <time>2025-09-13T18:43:49+02:00</time>
      </trkpt>
      <trkpt lat="42.76499" lon="1.34396">
        <ele>1568.2002</ele>
        <time>2025-09-13T18:43:50+02:00</time>
      </trkpt>
      <trkpt lat="42.76499" lon="1.344">
        <ele>1568.2002</ele>
        <time>2025-09-13T18:43:54+02:00</time>
      </trkpt>
      <trkpt lat="42.76499" lon="1.34401">
        <ele>1568.2002</ele>
        <time>2025-09-13T18:43:55+02:00</time>
      </trkpt>
      <trkpt lat="42.765" lon="1.34405">
        <ele>1568.1006</ele>
        <time>2025-09-13T18:43:59+02:00</time>
      </trkpt>
      <trkpt lat="42.76501" lon="1.34406">
        <ele>1568.1006</ele>
        <time>2025-09-13T18:44:00+02:00</time>
      </trkpt>
      <trkpt lat="42.76501" lon="1.3441">
        <ele>1568.1006</ele>
        <time>2025-09-13T18:44:04+02:00</time>
      </trkpt>
      <trkpt lat="42.76501" lon="1.34411">
        <ele>1568.5</ele>
        <time>2025-09-13T18:44:05+02:00</time>
      </trkpt>
      <trkpt lat="42.765" lon="1.34415">
        <ele>1568.5</ele>
        <time>2025-09-13T18:44:09+02:00</time>
      </trkpt>
      <trkpt lat="42.765" lon="1.34416">
        <ele>1568.5</ele>
        <time>2025-09-13T18:44:10+02:00</time>
      </trkpt>
      <trkpt lat="42.765" lon="1.34415">
        <ele>1568.5</ele>
        <time>2025-09-13T18:44:14+02:00</time>
      </trkpt>
      <trkpt lat="42.76501" lon="1.34415">
        <ele>1568.5</ele>
        <time>2025-09-13T18:44:15+02:00</time>
      </trkpt>
      <trkpt lat="42.76501" lon="1.34416">
        <ele>1568.5</ele>
        <time>2025-09-13T18:44:19+02:00</time>
      </trkpt>
      <trkpt lat="42.76501" lon="1.34416">
        <ele>1568.5</ele>
        <time>2025-09-13T18:44:20+02:00</time>
      </trkpt>
      <trkpt lat="42.765" lon="1.34416">
        <ele>1568.5</ele>
        <time>2025-09-13T18:44:24+02:00</time>
      </trkpt>
      <trkpt lat="42.765" lon="1.34416">
        <ele>1568.5</ele>
        <time>2025-09-13T18:44:25+02:00</time>
      </trkpt>
      <trkpt lat="42.76497" lon="1.34416">
        <ele>1566</ele>
        <time>2025-09-13T18:44:29+02:00</time>
      </trkpt>
      <trkpt lat="42.76496" lon="1.34416">
        <ele>1566</ele>
        <time>2025-09-13T18:44:30+02:00</time>
      </trkpt>
      <trkpt lat="42.76493" lon="1.34417">
        <ele>1566</ele>
        <time>2025-09-13T18:44:34+02:00</time>
      </trkpt>
      <trkpt lat="42.76493" lon="1.34417">
        <ele>1566</ele>
        <time>2025-09-13T18:44:35+02:00</time>
      </trkpt>
      <trkpt lat="42.76493" lon="1.34417">
        <ele>1566</ele>
        <time>2025-09-13T18:44:39+02:00</time>
      </trkpt>
      <trkpt lat="42.76493" lon="1.34417">
        <ele>1566</ele>
        <time>2025-09-13T18:44:40+02:00</time>
      </trkpt>
      <trkpt lat="42.76493" lon="1.34417">
        <ele>1566</ele>
        <time>2025-09-13T18:44:44+02:00</time>
      </trkpt>
      <trkpt lat="42.76493" lon="1.34417">
        <ele>1566</ele>
        <time>2025-09-13T18:44:45+02:00</time>
      </trkpt>
      <trkpt lat="42.76492" lon="1.34417">
        <ele>1566</ele>
        <time>2025-09-13T18:44:49+02:00</time>
      </trkpt>
      <trkpt lat="42.76492" lon="1.34416">
        <ele>1566</ele>
        <time>2025-09-13T18:44:50+02:00</time>
      </trkpt>
      <trkpt lat="42.76491" lon="1.34413">
        <ele>1563.2998</ele>
        <time>2025-09-13T18:44:54+02:00</time>
      </trkpt>
      <trkpt lat="42.7649" lon="1.34412">
        <ele>1563.2998</ele>
        <time>2025-09-13T18:44:55+02:00</time>
      </trkpt>
      <trkpt lat="42.76489" lon="1.34409">
        <ele>1563.1006</ele>
        <time>2025-09-13T18:44:59+02:00</time>
      </trkpt>
      <trkpt lat="42.76488" lon="1.34409">
        <ele>1563.1006</ele>
        <time>2025-09-13T18:45:00+02:00</time>
      </trkpt>
      <trkpt lat="42.76486" lon="1.34409">
        <ele>1563.1006</ele>
        <time>2025-09-13T18:45:04+02:00</time>
      </trkpt>
      <trkpt lat="42.76486" lon="1.34409">
        <ele>1563.1006</ele>
        <time>2025-09-13T18:45:05+02:00</time>
      </trkpt>
      <trkpt lat="42.76483" lon="1.34411">
        <ele>1560.6006</ele>
        <time>2025-09-13T18:45:09+02:00</time>
      </trkpt>
      <trkpt lat="42.76483" lon="1.34411">
        <ele>1560.6006</ele>
        <time>2025-09-13T18:45:10+02:00</time>
      </trkpt>
      <trkpt lat="42.76484" lon="1.34411">
        <ele>1560.6006</ele>
        <time>2025-09-13T18:45:14+02:00</time>
      </trkpt>
      <trkpt lat="42.76484" lon="1.34411">
        <ele>1560.6006</ele>
        <time>2025-09-13T18:45:15+02:00</time>
      </trkpt>
      <trkpt lat="42.76484" lon="1.34411">
        <ele>1560.6006</ele>
        <time>2025-09-13T18:45:19+02:00</time>
      </trkpt>
      <trkpt lat="42.76484" lon="1.34411">
        <ele>1560.6006</ele>
        <time>2025-09-13T18:45:20+02:00</time>
      </trkpt>
      <trkpt lat="42.76484" lon="1.34412">
        <ele>1560.6006</ele>
        <time>2025-09-13T18:45:24+02:00</time>
      </trkpt>
      <trkpt lat="42.76484" lon="1.34412">
        <ele>1560.6006</ele>
        <time>2025-09-13T18:45:25+02:00</time>
      </trkpt>
      <trkpt lat="42.76484" lon="1.34412">
        <ele>1560.6006</ele>
        <time>2025-09-13T18:45:29+02:00</time>
      </trkpt>
      <trkpt lat="42.76483" lon="1.34412">
        <ele>1560.6006</ele>
        <time>2025-09-13T18:45:30+02:00</time>
      </trkpt>
      <trkpt lat="42.76483" lon="1.34411">
        <ele>1560.2998</ele>
        <time>2025-09-13T18:45:34+02:00</time>
      </trkpt>
      <trkpt lat="42.76483" lon="1.34411">
        <ele>1560.2998</ele>
        <time>2025-09-13T18:45:35+02:00</time>
      </trkpt>
      <trkpt lat="42.76483" lon="1.34411">
        <ele>1560.2998</ele>
        <time>2025-09-13T18:45:39+02:00</time>
      </trkpt>
      <trkpt lat="42.76483" lon="1.3441">
        <ele>1560.2998</ele>
        <time>2025-09-13T18:45:44+02:00</time>
      </trkpt>
      <trkpt lat="42.76483" lon="1.3441">
        <ele>1560.2998</ele>
        <time>2025-09-13T18:45:45+02:00</time>
      </trkpt>
      <trkpt lat="42.76483" lon="1.3441">
        <ele>1560.2998</ele>
        <time>2025-09-13T18:45:49+02:00</time>
      </trkpt>
      <trkpt lat="42.76483" lon="1.3441">
        <ele>1560.2998</ele>
        <time>2025-09-13T18:45:50+02:00</time>
      </trkpt>
      <trkpt lat="42.76482" lon="1.3441">
        <ele>1560.2998</ele>
        <time>2025-09-13T18:45:54+02:00</time>
      </trkpt>
      <trkpt lat="42.76482" lon="1.3441">
        <ele>1560.2998</ele>
        <time>2025-09-13T18:45:55+02:00</time>
      </trkpt>
      <trkpt lat="42.76483" lon="1.3441">
        <ele>1560.2998</ele>
        <time>2025-09-13T18:45:59+02:00</time>
      </trkpt>
      <trkpt lat="42.76483" lon="1.3441">
        <ele>1560.2998</ele>
        <time>2025-09-13T18:46:00+02:00</time>
      </trkpt>
      <trkpt lat="42.76483" lon="1.3441">
        <ele>1560.2998</ele>
        <time>2025-09-13T18:46:04+02:00</time>
      </trkpt>
      <trkpt lat="42.76483" lon="1.3441">
        <ele>1560.2998</ele>
        <time>2025-09-13T18:46:05+02:00</time>
      </trkpt>
      <trkpt lat="42.76483" lon="1.3441">
        <ele>1560.2998</ele>
        <time>2025-09-13T18:46:09+02:00</time>
      </trkpt>
      <trkpt lat="42.76483" lon="1.3441">
        <ele>1560.2998</ele>
        <time>2025-09-13T18:46:10+02:00</time>
      </trkpt>
      <trkpt lat="42.76483" lon="1.3441">
        <ele>1560.2998</ele>
        <time>2025-09-13T18:46:14+02:00</time>
      </trkpt>
      <trkpt lat="42.76483" lon="1.3441">
        <ele>1560.2998</ele>
        <time>2025-09-13T18:46:15+02:00</time>
      </trkpt>
      <trkpt lat="42.76483" lon="1.3441">
        <ele>1560.2998</ele>
        <time>2025-09-13T18:46:19+02:00</time>
      </trkpt>
      <trkpt lat="42.76483" lon="1.3441">
        <ele>1560.2998</ele>
        <time>2025-09-13T18:46:20+02:00</time>
      </trkpt>
      <trkpt lat="42.76483" lon="1.3441">
        <ele>1560.2998</ele>
        <time>2025-09-13T18:46:24+02:00</time>
      </trkpt>
      <trkpt lat="42.76483" lon="1.3441">
        <ele>1560.2998</ele>
        <time>2025-09-13T18:46:25+02:00</time>
      </trkpt>
      <trkpt lat="42.76483" lon="1.3441">
        <ele>1560.2998</ele>
        <time>2025-09-13T18:46:29+02:00</time>
      </trkpt>
      <trkpt lat="42.76483" lon="1.3441">
        <ele>1560.2998</ele>
        <time>2025-09-13T18:46:30+02:00</time>
      </trkpt>
      <trkpt lat="42.76484" lon="1.3441">
        <ele>1560.2998</ele>
        <time>2025-09-13T18:46:34+02:00</time>
      </trkpt>
      <trkpt lat="42.76484" lon="1.3441">
        <ele>1560.2998</ele>
        <time>2025-09-13T18:46:35+02:00</time>
      </trkpt>
      <trkpt lat="42.76484" lon="1.3441">
        <ele>1560.2998</ele>
        <time>2025-09-13T18:46:39+02:00</time>
      </trkpt>
      <trkpt lat="42.76484" lon="1.3441">
        <ele>1560.2998</ele>
        <time>2025-09-13T18:46:40+02:00</time>
      </trkpt>
      <trkpt lat="42.76484" lon="1.3441">
        <ele>1560.2998</ele>
        <time>2025-09-13T18:46:44+02:00</time>
      </trkpt>
      <trkpt lat="42.76484" lon="1.3441">
        <ele>1560.2998</ele>
        <time>2025-09-13T18:46:45+02:00</time>
      </trkpt>
      <trkpt lat="42.76484" lon="1.3441">
        <ele>1560.2998</ele>
        <time>2025-09-13T18:46:49+02:00</time>
      </trkpt>
      <trkpt lat="42.76484" lon="1.3441">
        <ele>1560.2998</ele>
        <time>2025-09-13T18:46:50+02:00</time>
      </trkpt>
      <trkpt lat="42.76484" lon="1.3441">
        <ele>1560.2998</ele>
        <time>2025-09-13T18:46:54+02:00</time>
      </trkpt>
      <trkpt lat="42.76484" lon="1.3441">
        <ele>1560.2998</ele>
        <time>2025-09-13T18:46:55+02:00</time>
      </trkpt>
      <trkpt lat="42.76484" lon="1.3441">
        <ele>1560.2998</ele>
        <time>2025-09-13T18:46:59+02:00</time>
      </trkpt>
      <trkpt lat="42.76485" lon="1.3441">
        <ele>1560.2998</ele>
        <time>2025-09-13T18:47:00+02:00</time>
      </trkpt>
      <trkpt lat="42.76486" lon="1.3441">
        <ele>1563.1006</ele>
        <time>2025-09-13T18:47:04+02:00</time>
      </trkpt>
      <trkpt lat="42.76486" lon="1.3441">
        <ele>1563.1006</ele>
        <time>2025-09-13T18:47:05+02:00</time>
      </trkpt>
      <trkpt lat="42.76486" lon="1.3441">
        <ele>1563.1006</ele>
        <time>2025-09-13T18:47:09+02:00</time>
      </trkpt>
      <trkpt lat="42.76486" lon="1.3441">
        <ele>1563.1006</ele>
        <time>2025-09-13T18:47:12+02:00</time>
      </trkpt>
      <trkpt lat="42.76487" lon="1.3441">
        <ele>1563.1006</ele>
        <time>2025-09-13T18:47:20+02:00</time>
      </trkpt>
      <trkpt lat="42.76487" lon="1.3441">
        <ele>1563.1006</ele>
        <time>2025-09-13T18:47:25+02:00</time>
      </trkpt>
      <trkpt lat="42.76487" lon="1.34409">
        <ele>1563.1006</ele>
        <time>2025-09-13T18:47:30+02:00</time>
      </trkpt>
      <trkpt lat="42.76501" lon="1.34356">
        <ele>1569.1006</ele>
        <time>2025-09-13T18:47:31+02:00</time>
      </trkpt>
      <trkpt lat="42.76501" lon="1.34356">
        <ele>1569.1006</ele>
        <time>2025-09-13T18:47:34+02:00</time>
      </trkpt>
      <trkpt lat="42.76501" lon="1.34356">
        <ele>1569.1006</ele>
        <time>2025-09-13T18:47:35+02:00</time>
      </trkpt>
      <trkpt lat="42.76501" lon="1.34356">
        <ele>1569.1006</ele>
        <time>2025-09-13T18:47:39+02:00</time>
      </trkpt>
      <trkpt lat="42.76502" lon="1.34354">
        <ele>1569.1006</ele>
        <time>2025-09-13T18:47:40+02:00</time>
      </trkpt>
      <trkpt lat="42.76505" lon="1.34351">
        <ele>1571.5</ele>
        <time>2025-09-13T18:47:44+02:00</time>
      </trkpt>
      <trkpt lat="42.76506" lon="1.3435">
        <ele>1571.5</ele>
        <time>2025-09-13T18:47:45+02:00</time>
      </trkpt>
      <trkpt lat="42.76508" lon="1.34347">
        <ele>1571.5</ele>
        <time>2025-09-13T18:47:49+02:00</time>
      </trkpt>
      <trkpt lat="42.76509" lon="1.34347">
        <ele>1571.5</ele>
        <time>2025-09-13T18:47:50+02:00</time>
      </trkpt>
      <trkpt lat="42.76512" lon="1.34344">
        <ele>1573.6006</ele>
        <time>2025-09-13T18:47:54+02:00</time>
      </trkpt>
      <trkpt lat="42.76512" lon="1.34344">
        <ele>1573.6006</ele>
        <time>2025-09-13T18:47:55+02:00</time>
      </trkpt>
      <trkpt lat="42.76514" lon="1.34341">
        <ele>1573.5</ele>
        <time>2025-09-13T18:47:59+02:00</time>
      </trkpt>
      <trkpt lat="42.76514" lon="1.3434">
        <ele>1573.5</ele>
        <time>2025-09-13T18:48:00+02:00</time>
      </trkpt>
      <trkpt lat="42.76513" lon="1.34335">
        <ele>1573.5</ele>
        <time>2025-09-13T18:48:04+02:00</time>
      </trkpt>
      <trkpt lat="42.76512" lon="1.34333">
        <ele>1573.4004</ele>
        <time>2025-09-13T18:48:05+02:00</time>
      </trkpt>
      <trkpt lat="42.76513" lon="1.34328">
        <ele>1573.4004</ele>
        <time>2025-09-13T18:48:09+02:00</time>
      </trkpt>
      <trkpt lat="42.76513" lon="1.34327">
        <ele>1573.4004</ele>
        <time>2025-09-13T18:48:10+02:00</time>
      </trkpt>
      <trkpt lat="42.76515" lon="1.34324">
        <ele>1573.1006</ele>
        <time>2025-09-13T18:48:14+02:00</time>
      </trkpt>
      <trkpt lat="42.76516" lon="1.34323">
        <ele>1573.1006</ele>
        <time>2025-09-13T18:48:15+02:00</time>
      </trkpt>
      <trkpt lat="42.76519" lon="1.3432">
        <ele>1573.2002</ele>
        <time>2025-09-13T18:48:19+02:00</time>
      </trkpt>
      <trkpt lat="42.7652" lon="1.34319">
        <ele>1573.2002</ele>
        <time>2025-09-13T18:48:20+02:00</time>
      </trkpt>
      <trkpt lat="42.76522" lon="1.34315">
        <ele>1572.2998</ele>
        <time>2025-09-13T18:48:24+02:00</time>
      </trkpt>
      <trkpt lat="42.76522" lon="1.34314">
        <ele>1572.2998</ele>
        <time>2025-09-13T18:48:25+02:00</time>
      </trkpt>
      <trkpt lat="42.76524" lon="1.34312">
        <ele>1571.5</ele>
        <time>2025-09-13T18:48:29+02:00</time>
      </trkpt>
      <trkpt lat="42.76524" lon="1.34311">
        <ele>1571.5</ele>
        <time>2025-09-13T18:48:30+02:00</time>
      </trkpt>
      <trkpt lat="42.76526" lon="1.34312">
        <ele>1571.5</ele>
        <time>2025-09-13T18:48:34+02:00</time>
      </trkpt>
      <trkpt lat="42.76527" lon="1.34312">
        <ele>1571.5</ele>
        <time>2025-09-13T18:48:35+02:00</time>
      </trkpt>
      <trkpt lat="42.7653" lon="1.34311">
        <ele>1570.4004</ele>
        <time>2025-09-13T18:48:39+02:00</time>
      </trkpt>
      <trkpt lat="42.7653" lon="1.3431">
        <ele>1570.4004</ele>
        <time>2025-09-13T18:48:40+02:00</time>
      </trkpt>
      <trkpt lat="42.76532" lon="1.34307">
        <ele>1569.4004</ele>
        <time>2025-09-13T18:48:43+02:00</time>
      </trkpt>
      <trkpt lat="42.76533" lon="1.34306">
        <ele>1569.4004</ele>
        <time>2025-09-13T18:48:45+02:00</time>
      </trkpt>
      <trkpt lat="42.76535" lon="1.34304">
        <ele>1569.4004</ele>
        <time>2025-09-13T18:48:49+02:00</time>
      </trkpt>
      <trkpt lat="42.76535" lon="1.34304">
        <ele>1569.4004</ele>
        <time>2025-09-13T18:48:50+02:00</time>
      </trkpt>
      <trkpt lat="42.76535" lon="1.34303">
        <ele>1568.1006</ele>
        <time>2025-09-13T18:48:54+02:00</time>
      </trkpt>
      <trkpt lat="42.76535" lon="1.34303">
        <ele>1569.4004</ele>
        <time>2025-09-13T18:48:55+02:00</time>
      </trkpt>
      <trkpt lat="42.76535" lon="1.34304">
        <ele>1569.4004</ele>
        <time>2025-09-13T18:48:59+02:00</time>
      </trkpt>
      <trkpt lat="42.76535" lon="1.34303">
        <ele>1569.4004</ele>
        <time>2025-09-13T18:49:00+02:00</time>
      </trkpt>
      <trkpt lat="42.76536" lon="1.34303">
        <ele>1568.1006</ele>
        <time>2025-09-13T18:49:05+02:00</time>
      </trkpt>
      <trkpt lat="42.76537" lon="1.34302">
        <ele>1568.1006</ele>
        <time>2025-09-13T18:49:06+02:00</time>
      </trkpt>
      <trkpt lat="42.76537" lon="1.34302">
        <ele>1568.1006</ele>
        <time>2025-09-13T18:49:10+02:00</time>
      </trkpt>
      <trkpt lat="42.76538" lon="1.34301">
        <ele>1568.1006</ele>
        <time>2025-09-13T18:49:11+02:00</time>
      </trkpt>
      <trkpt lat="42.7654" lon="1.34298">
        <ele>1567.1006</ele>
        <time>2025-09-13T18:49:15+02:00</time>
      </trkpt>
      <trkpt lat="42.76541" lon="1.34297">
        <ele>1567.1006</ele>
        <time>2025-09-13T18:49:16+02:00</time>
      </trkpt>
      <trkpt lat="42.76542" lon="1.34297">
        <ele>1565.6006</ele>
        <time>2025-09-13T18:49:21+02:00</time>
      </trkpt>
      <trkpt lat="42.76543" lon="1.34297">
        <ele>1565.6006</ele>
        <time>2025-09-13T18:49:22+02:00</time>
      </trkpt>
      <trkpt lat="42.76543" lon="1.34299">
        <ele>1565.6006</ele>
        <time>2025-09-13T18:49:26+02:00</time>
      </trkpt>
      <trkpt lat="42.76543" lon="1.34299">
        <ele>1565.6006</ele>
        <time>2025-09-13T18:49:27+02:00</time>
      </trkpt>
      <trkpt lat="42.76543" lon="1.34299">
        <ele>1565.6006</ele>
        <time>2025-09-13T18:49:31+02:00</time>
      </trkpt>
      <trkpt lat="42.76544" lon="1.34299">
        <ele>1566.7998</ele>
        <time>2025-09-13T18:49:32+02:00</time>
      </trkpt>
      <trkpt lat="42.76547" lon="1.34301">
        <ele>1566.7998</ele>
        <time>2025-09-13T18:49:36+02:00</time>
      </trkpt>
      <trkpt lat="42.76548" lon="1.34301">
        <ele>1565.5</ele>
        <time>2025-09-13T18:49:37+02:00</time>
      </trkpt>
      <trkpt lat="42.7655" lon="1.34297">
        <ele>1564.2002</ele>
        <time>2025-09-13T18:49:41+02:00</time>
      </trkpt>
      <trkpt lat="42.76551" lon="1.34296">
        <ele>1564.2002</ele>
        <time>2025-09-13T18:49:42+02:00</time>
      </trkpt>
      <trkpt lat="42.76553" lon="1.34293">
        <ele>1564.2002</ele>
        <time>2025-09-13T18:49:46+02:00</time>
      </trkpt>
      <trkpt lat="42.76553" lon="1.34291">
        <ele>1564.2002</ele>
        <time>2025-09-13T18:49:47+02:00</time>
      </trkpt>
      <trkpt lat="42.76554" lon="1.34287">
        <ele>1562.9004</ele>
        <time>2025-09-13T18:49:51+02:00</time>
      </trkpt>
      <trkpt lat="42.76554" lon="1.34286">
        <ele>1561.2998</ele>
        <time>2025-09-13T18:49:53+02:00</time>
      </trkpt>
      <trkpt lat="42.76555" lon="1.34285">
        <ele>1561.2998</ele>
        <time>2025-09-13T18:49:57+02:00</time>
      </trkpt>
      <trkpt lat="42.76555" lon="1.34286">
        <ele>1561.2998</ele>
        <time>2025-09-13T18:49:58+02:00</time>
      </trkpt>
      <trkpt lat="42.76556" lon="1.34284">
        <ele>1561.2998</ele>
        <time>2025-09-13T18:50:02+02:00</time>
      </trkpt>
      <trkpt lat="42.76556" lon="1.34284">
        <ele>1561.2998</ele>
        <time>2025-09-13T18:50:03+02:00</time>
      </trkpt>
      <trkpt lat="42.76557" lon="1.34282">
        <ele>1560.1006</ele>
        <time>2025-09-13T18:50:07+02:00</time>
      </trkpt>
      <trkpt lat="42.76557" lon="1.34282">
        <ele>1561.2998</ele>
        <time>2025-09-13T18:50:08+02:00</time>
      </trkpt>
      <trkpt lat="42.76558" lon="1.34283">
        <ele>1561.2998</ele>
        <time>2025-09-13T18:50:12+02:00</time>
      </trkpt>
      <trkpt lat="42.76558" lon="1.34283">
        <ele>1561.2998</ele>
        <time>2025-09-13T18:50:13+02:00</time>
      </trkpt>
      <trkpt lat="42.76559" lon="1.34282">
        <ele>1560.1006</ele>
        <time>2025-09-13T18:50:17+02:00</time>
      </trkpt>
      <trkpt lat="42.76559" lon="1.34281">
        <ele>1560.1006</ele>
        <time>2025-09-13T18:50:18+02:00</time>
      </trkpt>
      <trkpt lat="42.76559" lon="1.34283">
        <ele>1561.2998</ele>
        <time>2025-09-13T18:50:22+02:00</time>
      </trkpt>
      <trkpt lat="42.76559" lon="1.34283">
        <ele>1561.2998</ele>
        <time>2025-09-13T18:50:23+02:00</time>
      </trkpt>
      <trkpt lat="42.76559" lon="1.34281">
        <ele>1560.1006</ele>
        <time>2025-09-13T18:50:28+02:00</time>
      </trkpt>
      <trkpt lat="42.76559" lon="1.34281">
        <ele>1560.1006</ele>
        <time>2025-09-13T18:50:29+02:00</time>
      </trkpt>
      <trkpt lat="42.7656" lon="1.34281">
        <ele>1560.1006</ele>
        <time>2025-09-13T18:50:33+02:00</time>
      </trkpt>
      <trkpt lat="42.7656" lon="1.34281">
        <ele>1558.2998</ele>
        <time>2025-09-13T18:50:34+02:00</time>
      </trkpt>
      <trkpt lat="42.76561" lon="1.34278">
        <ele>1558.2998</ele>
        <time>2025-09-13T18:50:37+02:00</time>
      </trkpt>
      <trkpt lat="42.7656" lon="1.34278">
        <ele>1558.2998</ele>
        <time>2025-09-13T18:50:38+02:00</time>
      </trkpt>
      <trkpt lat="42.76561" lon="1.34274">
        <ele>1558.2998</ele>
        <time>2025-09-13T18:50:43+02:00</time>
      </trkpt>
      <trkpt lat="42.76561" lon="1.34273">
        <ele>1557</ele>
        <time>2025-09-13T18:50:44+02:00</time>
      </trkpt>
      <trkpt lat="42.76563" lon="1.34271">
        <ele>1557</ele>
        <time>2025-09-13T18:50:48+02:00</time>
      </trkpt>
      <trkpt lat="42.76563" lon="1.34271">
        <ele>1557</ele>
        <time>2025-09-13T18:50:49+02:00</time>
      </trkpt>
      <trkpt lat="42.76563" lon="1.34268">
        <ele>1557</ele>
        <time>2025-09-13T18:50:53+02:00</time>
      </trkpt>
      <trkpt lat="42.76563" lon="1.34268">
        <ele>1557</ele>
        <time>2025-09-13T18:50:54+02:00</time>
      </trkpt>
      <trkpt lat="42.76564" lon="1.34266">
        <ele>1557</ele>
        <time>2025-09-13T18:50:58+02:00</time>
      </trkpt>
      <trkpt lat="42.76565" lon="1.34264">
        <ele>1555.9004</ele>
        <time>2025-09-13T18:50:59+02:00</time>
      </trkpt>
      <trkpt lat="42.76567" lon="1.34263">
        <ele>1554</ele>
        <time>2025-09-13T18:51:03+02:00</time>
      </trkpt>
      <trkpt lat="42.76567" lon="1.34263">
        <ele>1554</ele>
        <time>2025-09-13T18:51:04+02:00</time>
      </trkpt>
      <trkpt lat="42.76566" lon="1.34259">
        <ele>1555.9004</ele>
        <time>2025-09-13T18:51:08+02:00</time>
      </trkpt>
      <trkpt lat="42.76566" lon="1.34258">
        <ele>1555.9004</ele>
        <time>2025-09-13T18:51:09+02:00</time>
      </trkpt>
      <trkpt lat="42.76566" lon="1.34256">
        <ele>1555.1006</ele>
        <time>2025-09-13T18:51:13+02:00</time>
      </trkpt>
      <trkpt lat="42.76567" lon="1.34255">
        <ele>1553</ele>
        <time>2025-09-13T18:51:14+02:00</time>
      </trkpt>
      <trkpt lat="42.76568" lon="1.34252">
        <ele>1553</ele>
        <time>2025-09-13T18:51:18+02:00</time>
      </trkpt>
      <trkpt lat="42.76568" lon="1.34251">
        <ele>1553</ele>
        <time>2025-09-13T18:51:19+02:00</time>
      </trkpt>
      <trkpt lat="42.76567" lon="1.34247">
        <ele>1552.2002</ele>
        <time>2025-09-13T18:51:23+02:00</time>
      </trkpt>
      <trkpt lat="42.76567" lon="1.34247">
        <ele>1552.2002</ele>
        <time>2025-09-13T18:51:24+02:00</time>
      </trkpt>
      <trkpt lat="42.76566" lon="1.34243">
        <ele>1554.2998</ele>
        <time>2025-09-13T18:51:28+02:00</time>
      </trkpt>
      <trkpt lat="42.76566" lon="1.34242">
        <ele>1554.2998</ele>
        <time>2025-09-13T18:51:29+02:00</time>
      </trkpt>
      <trkpt lat="42.76565" lon="1.3424">
        <ele>1554.2998</ele>
        <time>2025-09-13T18:51:33+02:00</time>
      </trkpt>
      <trkpt lat="42.76565" lon="1.3424">
        <ele>1554.2998</ele>
        <time>2025-09-13T18:51:34+02:00</time>
      </trkpt>
      <trkpt lat="42.76566" lon="1.34237">
        <ele>1553.7998</ele>
        <time>2025-09-13T18:51:38+02:00</time>
      </trkpt>
      <trkpt lat="42.76566" lon="1.34236">
        <ele>1553.7998</ele>
        <time>2025-09-13T18:51:39+02:00</time>
      </trkpt>
      <trkpt lat="42.76566" lon="1.34233">
        <ele>1553.7998</ele>
        <time>2025-09-13T18:51:43+02:00</time>
      </trkpt>
      <trkpt lat="42.76566" lon="1.34232">
        <ele>1553.7998</ele>
        <time>2025-09-13T18:51:44+02:00</time>
      </trkpt>
      <trkpt lat="42.76566" lon="1.34229">
        <ele>1553.2998</ele>
        <time>2025-09-13T18:51:48+02:00</time>
      </trkpt>
      <trkpt lat="42.76566" lon="1.34228">
        <ele>1553.2998</ele>
        <time>2025-09-13T18:51:49+02:00</time>
      </trkpt>
      <trkpt lat="42.76565" lon="1.34228">
        <ele>1553.2998</ele>
        <time>2025-09-13T18:51:53+02:00</time>
      </trkpt>
      <trkpt lat="42.76565" lon="1.34228">
        <ele>1553.2998</ele>
        <time>2025-09-13T18:51:54+02:00</time>
      </trkpt>
      <trkpt lat="42.76565" lon="1.34224">
        <ele>1553.2998</ele>
        <time>2025-09-13T18:51:58+02:00</time>
      </trkpt>
      <trkpt lat="42.76565" lon="1.34223">
        <ele>1553.2998</ele>
        <time>2025-09-13T18:51:59+02:00</time>
      </trkpt>
      <trkpt lat="42.76566" lon="1.3422">
        <ele>1553</ele>
        <time>2025-09-13T18:52:03+02:00</time>
      </trkpt>
      <trkpt lat="42.76567" lon="1.34219">
        <ele>1550.7002</ele>
        <time>2025-09-13T18:52:04+02:00</time>
      </trkpt>
      <trkpt lat="42.76568" lon="1.34215">
        <ele>1550.7002</ele>
        <time>2025-09-13T18:52:08+02:00</time>
      </trkpt>
      <trkpt lat="42.76568" lon="1.34214">
        <ele>1550.7002</ele>
        <time>2025-09-13T18:52:09+02:00</time>
      </trkpt>
      <trkpt lat="42.76569" lon="1.34212">
        <ele>1550.2998</ele>
        <time>2025-09-13T18:52:13+02:00</time>
      </trkpt>
      <trkpt lat="42.76569" lon="1.34212">
        <ele>1550.2998</ele>
        <time>2025-09-13T18:52:14+02:00</time>
      </trkpt>
      <trkpt lat="42.7657" lon="1.34211">
        <ele>1550.2998</ele>
        <time>2025-09-13T18:52:18+02:00</time>
      </trkpt>
      <trkpt lat="42.7657" lon="1.34211">
        <ele>1550.2998</ele>
        <time>2025-09-13T18:52:19+02:00</time>
      </trkpt>
      <trkpt lat="42.7657" lon="1.34209">
        <ele>1550.2998</ele>
        <time>2025-09-13T18:52:23+02:00</time>
      </trkpt>
      <trkpt lat="42.7657" lon="1.34209">
        <ele>1550.2998</ele>
        <time>2025-09-13T18:52:24+02:00</time>
      </trkpt>
      <trkpt lat="42.76571" lon="1.34205">
        <ele>1550.2998</ele>
        <time>2025-09-13T18:52:28+02:00</time>
      </trkpt>
      <trkpt lat="42.76571" lon="1.34205">
        <ele>1550</ele>
        <time>2025-09-13T18:52:29+02:00</time>
      </trkpt>
      <trkpt lat="42.76573" lon="1.34203">
        <ele>1547.4004</ele>
        <time>2025-09-13T18:52:33+02:00</time>
      </trkpt>
      <trkpt lat="42.76574" lon="1.34202">
        <ele>1547.4004</ele>
        <time>2025-09-13T18:52:34+02:00</time>
      </trkpt>
      <trkpt lat="42.76577" lon="1.34199">
        <ele>1547.4004</ele>
        <time>2025-09-13T18:52:38+02:00</time>
      </trkpt>
      <trkpt lat="42.76577" lon="1.34199">
        <ele>1547.4004</ele>
        <time>2025-09-13T18:52:39+02:00</time>
      </trkpt>
      <trkpt lat="42.76579" lon="1.342">
        <ele>1547.4004</ele>
        <time>2025-09-13T18:52:43+02:00</time>
      </trkpt>
      <trkpt lat="42.76579" lon="1.34202">
        <ele>1547.4004</ele>
        <time>2025-09-13T18:52:44+02:00</time>
      </trkpt>
      <trkpt lat="42.76579" lon="1.34208">
        <ele>1545.4004</ele>
        <time>2025-09-13T18:52:48+02:00</time>
      </trkpt>
      <trkpt lat="42.7658" lon="1.34209">
        <ele>1545.4004</ele>
        <time>2025-09-13T18:52:49+02:00</time>
      </trkpt>
      <trkpt lat="42.76581" lon="1.34211">
        <ele>1545.4004</ele>
        <time>2025-09-13T18:52:53+02:00</time>
      </trkpt>
      <trkpt lat="42.76581" lon="1.34212">
        <ele>1545.4004</ele>
        <time>2025-09-13T18:52:54+02:00</time>
      </trkpt>
      <trkpt lat="42.76583" lon="1.34215">
        <ele>1545.9004</ele>
        <time>2025-09-13T18:52:58+02:00</time>
      </trkpt>
      <trkpt lat="42.76584" lon="1.34216">
        <ele>1545.9004</ele>
        <time>2025-09-13T18:52:59+02:00</time>
      </trkpt>
      <trkpt lat="42.76585" lon="1.3422">
        <ele>1545.9004</ele>
        <time>2025-09-13T18:53:03+02:00</time>
      </trkpt>
      <trkpt lat="42.76585" lon="1.34221">
        <ele>1545.9004</ele>
        <time>2025-09-13T18:53:04+02:00</time>
      </trkpt>
      <trkpt lat="42.76588" lon="1.34225">
        <ele>1544.2998</ele>
        <time>2025-09-13T18:53:09+02:00</time>
      </trkpt>
      <trkpt lat="42.76589" lon="1.34226">
        <ele>1544.2998</ele>
        <time>2025-09-13T18:53:10+02:00</time>
      </trkpt>
      <trkpt lat="42.7659" lon="1.34229">
        <ele>1544.2998</ele>
        <time>2025-09-13T18:53:14+02:00</time>
      </trkpt>
      <trkpt lat="42.7659" lon="1.3423">
        <ele>1544.2998</ele>
        <time>2025-09-13T18:53:15+02:00</time>
      </trkpt>
      <trkpt lat="42.76591" lon="1.34232">
        <ele>1545.1006</ele>
        <time>2025-09-13T18:53:19+02:00</time>
      </trkpt>
      <trkpt lat="42.76591" lon="1.34233">
        <ele>1545.1006</ele>
        <time>2025-09-13T18:53:20+02:00</time>
      </trkpt>
      <trkpt lat="42.76593" lon="1.34235">
        <ele>1542.9004</ele>
        <time>2025-09-13T18:53:24+02:00</time>
      </trkpt>
      <trkpt lat="42.76593" lon="1.34236">
        <ele>1542.9004</ele>
        <time>2025-09-13T18:53:25+02:00</time>
      </trkpt>
      <trkpt lat="42.76595" lon="1.34239">
        <ele>1543.9004</ele>
        <time>2025-09-13T18:53:29+02:00</time>
      </trkpt>
      <trkpt lat="42.76595" lon="1.3424">
        <ele>1543.9004</ele>
        <time>2025-09-13T18:53:30+02:00</time>
      </trkpt>
      <trkpt lat="42.76597" lon="1.34244">
        <ele>1543.9004</ele>
        <time>2025-09-13T18:53:34+02:00</time>
      </trkpt>
      <trkpt lat="42.76598" lon="1.34246">
        <ele>1543.9004</ele>
        <time>2025-09-13T18:53:35+02:00</time>
      </trkpt>
      <trkpt lat="42.766" lon="1.34249">
        <ele>1542.9004</ele>
        <time>2025-09-13T18:53:39+02:00</time>
      </trkpt>
      <trkpt lat="42.76601" lon="1.3425">
        <ele>1542.9004</ele>
        <time>2025-09-13T18:53:40+02:00</time>
      </trkpt>
      <trkpt lat="42.76603" lon="1.34253">
        <ele>1542.9004</ele>
        <time>2025-09-13T18:53:45+02:00</time>
      </trkpt>
      <trkpt lat="42.76604" lon="1.34254">
        <ele>1542.9004</ele>
        <time>2025-09-13T18:53:46+02:00</time>
      </trkpt>
      <trkpt lat="42.76605" lon="1.34258">
        <ele>1542.1006</ele>
        <time>2025-09-13T18:53:50+02:00</time>
      </trkpt>
      <trkpt lat="42.76605" lon="1.34259">
        <ele>1542.1006</ele>
        <time>2025-09-13T18:53:51+02:00</time>
      </trkpt>
      <trkpt lat="42.76608" lon="1.3426">
        <ele>1542.1006</ele>
        <time>2025-09-13T18:53:55+02:00</time>
      </trkpt>
      <trkpt lat="42.76608" lon="1.3426">
        <ele>1542.1006</ele>
        <time>2025-09-13T18:53:56+02:00</time>
      </trkpt>
      <trkpt lat="42.76611" lon="1.34261">
        <ele>1542.1006</ele>
        <time>2025-09-13T18:54:00+02:00</time>
      </trkpt>
      <trkpt lat="42.76611" lon="1.34262">
        <ele>1539.7998</ele>
        <time>2025-09-13T18:54:01+02:00</time>
      </trkpt>
      <trkpt lat="42.76613" lon="1.34265">
        <ele>1539.7998</ele>
        <time>2025-09-13T18:54:05+02:00</time>
      </trkpt>
      <trkpt lat="42.76613" lon="1.34265">
        <ele>1541.2998</ele>
        <time>2025-09-13T18:54:06+02:00</time>
      </trkpt>
      <trkpt lat="42.76614" lon="1.34267">
        <ele>1541.2998</ele>
        <time>2025-09-13T18:54:10+02:00</time>
      </trkpt>
      <trkpt lat="42.76614" lon="1.34268">
        <ele>1541.2998</ele>
        <time>2025-09-13T18:54:11+02:00</time>
      </trkpt>
      <trkpt lat="42.76616" lon="1.3427">
        <ele>1541.2998</ele>
        <time>2025-09-13T18:54:15+02:00</time>
      </trkpt>
      <trkpt lat="42.76616" lon="1.34271">
        <ele>1541.2998</ele>
        <time>2025-09-13T18:54:16+02:00</time>
      </trkpt>
      <trkpt lat="42.76618" lon="1.34274">
        <ele>1540.7002</ele>
        <time>2025-09-13T18:54:20+02:00</time>
      </trkpt>
      <trkpt lat="42.76618" lon="1.34275">
        <ele>1540.7002</ele>
        <time>2025-09-13T18:54:21+02:00</time>
      </trkpt>
      <trkpt lat="42.76618" lon="1.34278">
        <ele>1540.7002</ele>
        <time>2025-09-13T18:54:25+02:00</time>
      </trkpt>
      <trkpt lat="42.76619" lon="1.34279">
        <ele>1540.7002</ele>
        <time>2025-09-13T18:54:26+02:00</time>
      </trkpt>
      <trkpt lat="42.76621" lon="1.34282">
        <ele>1542.5</ele>
        <time>2025-09-13T18:54:30+02:00</time>
      </trkpt>
      <trkpt lat="42.76621" lon="1.34282">
        <ele>1542.5</ele>
        <time>2025-09-13T18:54:31+02:00</time>
      </trkpt>
      <trkpt lat="42.76622" lon="1.34284">
        <ele>1542.5</ele>
        <time>2025-09-13T18:54:35+02:00</time>
      </trkpt>
      <trkpt lat="42.76623" lon="1.34285">
        <ele>1542.5</ele>
        <time>2025-09-13T18:54:36+02:00</time>
      </trkpt>
      <trkpt lat="42.76624" lon="1.34288">
        <ele>1540.4004</ele>
        <time>2025-09-13T18:54:40+02:00</time>
      </trkpt>
      <trkpt lat="42.76624" lon="1.34288">
        <ele>1540.4004</ele>
        <time>2025-09-13T18:54:41+02:00</time>
      </trkpt>
      <trkpt lat="42.76626" lon="1.34291">
        <ele>1542.2998</ele>
        <time>2025-09-13T18:54:45+02:00</time>
      </trkpt>
      <trkpt lat="42.76627" lon="1.34291">
        <ele>1542.2998</ele>
        <time>2025-09-13T18:54:46+02:00</time>
      </trkpt>
      <trkpt lat="42.76629" lon="1.34292">
        <ele>1542.2998</ele>
        <time>2025-09-13T18:54:50+02:00</time>
      </trkpt>
      <trkpt lat="42.76629" lon="1.34293">
        <ele>1542.2998</ele>
        <time>2025-09-13T18:54:51+02:00</time>
      </trkpt>
      <trkpt lat="42.7663" lon="1.34296">
        <ele>1540.2998</ele>
        <time>2025-09-13T18:54:55+02:00</time>
      </trkpt>
      <trkpt lat="42.7663" lon="1.34296">
        <ele>1540.2998</ele>
        <time>2025-09-13T18:54:56+02:00</time>
      </trkpt>
      <trkpt lat="42.7663" lon="1.343">
        <ele>1542.2002</ele>
        <time>2025-09-13T18:55:00+02:00</time>
      </trkpt>
      <trkpt lat="42.76631" lon="1.34301">
        <ele>1542.2002</ele>
        <time>2025-09-13T18:55:01+02:00</time>
      </trkpt>
      <trkpt lat="42.7663" lon="1.34304">
        <ele>1542.2002</ele>
        <time>2025-09-13T18:55:05+02:00</time>
      </trkpt>
      <trkpt lat="42.7663" lon="1.34305">
        <ele>1542.2002</ele>
        <time>2025-09-13T18:55:06+02:00</time>
      </trkpt>
      <trkpt lat="42.76631" lon="1.34308">
        <ele>1544.2002</ele>
        <time>2025-09-13T18:55:10+02:00</time>
      </trkpt>
      <trkpt lat="42.76631" lon="1.34309">
        <ele>1544.2002</ele>
        <time>2025-09-13T18:55:11+02:00</time>
      </trkpt>
      <trkpt lat="42.76632" lon="1.34314">
        <ele>1544.2002</ele>
        <time>2025-09-13T18:55:15+02:00</time>
      </trkpt>
      <trkpt lat="42.76633" lon="1.34315">
        <ele>1544.2002</ele>
        <time>2025-09-13T18:55:16+02:00</time>
      </trkpt>
      <trkpt lat="42.76635" lon="1.34319">
        <ele>1546.2998</ele>
        <time>2025-09-13T18:55:20+02:00</time>
      </trkpt>
      <trkpt lat="42.76635" lon="1.34319">
        <ele>1546.2998</ele>
        <time>2025-09-13T18:55:21+02:00</time>
      </trkpt>
      <trkpt lat="42.76639" lon="1.34319">
        <ele>1544</ele>
        <time>2025-09-13T18:55:25+02:00</time>
      </trkpt>
      <trkpt lat="42.7664" lon="1.34319">
        <ele>1544</ele>
        <time>2025-09-13T18:55:26+02:00</time>
      </trkpt>
      <trkpt lat="42.76643" lon="1.34319">
        <ele>1541.5</ele>
        <time>2025-09-13T18:55:30+02:00</time>
      </trkpt>
      <trkpt lat="42.76644" lon="1.34319">
        <ele>1541.5</ele>
        <time>2025-09-13T18:55:31+02:00</time>
      </trkpt>
      <trkpt lat="42.76647" lon="1.3432">
        <ele>1541.5</ele>
        <time>2025-09-13T18:55:35+02:00</time>
      </trkpt>
      <trkpt lat="42.76648" lon="1.34321">
        <ele>1541.5</ele>
        <time>2025-09-13T18:55:36+02:00</time>
      </trkpt>
      <trkpt lat="42.7665" lon="1.34325">
        <ele>1539</ele>
        <time>2025-09-13T18:55:40+02:00</time>
      </trkpt>
      <trkpt lat="42.7665" lon="1.34326">
        <ele>1541.4004</ele>
        <time>2025-09-13T18:55:41+02:00</time>
      </trkpt>
      <trkpt lat="42.7665" lon="1.34328">
        <ele>1541.4004</ele>
        <time>2025-09-13T18:55:45+02:00</time>
      </trkpt>
      <trkpt lat="42.7665" lon="1.34327">
        <ele>1541.4004</ele>
        <time>2025-09-13T18:55:46+02:00</time>
      </trkpt>
      <trkpt lat="42.76648" lon="1.34326">
        <ele>1543.9004</ele>
        <time>2025-09-13T18:55:50+02:00</time>
      </trkpt>
      <trkpt lat="42.76648" lon="1.34326">
        <ele>1543.9004</ele>
        <time>2025-09-13T18:55:51+02:00</time>
      </trkpt>
      <trkpt lat="42.76647" lon="1.34325">
        <ele>1543.9004</ele>
        <time>2025-09-13T18:55:55+02:00</time>
      </trkpt>
      <trkpt lat="42.76647" lon="1.34325">
        <ele>1543.9004</ele>
        <time>2025-09-13T18:55:56+02:00</time>
      </trkpt>
      <trkpt lat="42.76649" lon="1.34328">
        <ele>1541.4004</ele>
        <time>2025-09-13T18:56:00+02:00</time>
      </trkpt>
      <trkpt lat="42.76649" lon="1.3433">
        <ele>1541.4004</ele>
        <time>2025-09-13T18:56:01+02:00</time>
      </trkpt>
      <trkpt lat="42.76653" lon="1.34336">
        <ele>1544.1006</ele>
        <time>2025-09-13T18:56:06+02:00</time>
      </trkpt>
      <trkpt lat="42.76654" lon="1.34337">
        <ele>1544.1006</ele>
        <time>2025-09-13T18:56:07+02:00</time>
      </trkpt>
      <trkpt lat="42.76657" lon="1.34341">
        <ele>1541.7998</ele>
        <time>2025-09-13T18:56:11+02:00</time>
      </trkpt>
      <trkpt lat="42.76657" lon="1.34341">
        <ele>1541.7998</ele>
        <time>2025-09-13T18:56:12+02:00</time>
      </trkpt>
      <trkpt lat="42.7666" lon="1.34344">
        <ele>1544.5</ele>
        <time>2025-09-13T18:56:16+02:00</time>
      </trkpt>
      <trkpt lat="42.76661" lon="1.34344">
        <ele>1544.5</ele>
        <time>2025-09-13T18:56:17+02:00</time>
      </trkpt>
      <trkpt lat="42.76662" lon="1.34347">
        <ele>1541.9004</ele>
        <time>2025-09-13T18:56:21+02:00</time>
      </trkpt>
      <trkpt lat="42.76663" lon="1.34347">
        <ele>1541.9004</ele>
        <time>2025-09-13T18:56:22+02:00</time>
      </trkpt>
      <trkpt lat="42.76664" lon="1.3435">
        <ele>1541.9004</ele>
        <time>2025-09-13T18:56:26+02:00</time>
      </trkpt>
      <trkpt lat="42.76664" lon="1.34351">
        <ele>1544.7998</ele>
        <time>2025-09-13T18:56:27+02:00</time>
      </trkpt>
      <trkpt lat="42.76664" lon="1.34354">
        <ele>1544.7998</ele>
        <time>2025-09-13T18:56:31+02:00</time>
      </trkpt>
      <trkpt lat="42.76664" lon="1.34355">
        <ele>1544.7998</ele>
        <time>2025-09-13T18:56:32+02:00</time>
      </trkpt>
      <trkpt lat="42.76664" lon="1.34357">
        <ele>1544.7998</ele>
        <time>2025-09-13T18:56:36+02:00</time>
      </trkpt>
      <trkpt lat="42.76664" lon="1.34358">
        <ele>1544.7998</ele>
        <time>2025-09-13T18:56:37+02:00</time>
      </trkpt>
      <trkpt lat="42.76665" lon="1.3436">
        <ele>1548</ele>
        <time>2025-09-13T18:56:41+02:00</time>
      </trkpt>
      <trkpt lat="42.76665" lon="1.3436">
        <ele>1548</ele>
        <time>2025-09-13T18:56:42+02:00</time>
      </trkpt>
      <trkpt lat="42.76666" lon="1.34361">
        <ele>1548</ele>
        <time>2025-09-13T18:56:46+02:00</time>
      </trkpt>
      <trkpt lat="42.76666" lon="1.34361">
        <ele>1548</ele>
        <time>2025-09-13T18:56:47+02:00</time>
      </trkpt>
      <trkpt lat="42.76668" lon="1.34361">
        <ele>1545.2002</ele>
        <time>2025-09-13T18:56:51+02:00</time>
      </trkpt>
      <trkpt lat="42.76668" lon="1.3436">
        <ele>1545.2002</ele>
        <time>2025-09-13T18:56:52+02:00</time>
      </trkpt>
      <trkpt lat="42.7667" lon="1.34354">
        <ele>1541.9004</ele>
        <time>2025-09-13T18:56:56+02:00</time>
      </trkpt>
      <trkpt lat="42.76669" lon="1.34349">
        <ele>1539</ele>
        <time>2025-09-13T18:57:01+02:00</time>
      </trkpt>
      <trkpt lat="42.76669" lon="1.34349">
        <ele>1539</ele>
        <time>2025-09-13T18:57:02+02:00</time>
      </trkpt>
      <trkpt lat="42.76668" lon="1.34346">
        <ele>1539</ele>
        <time>2025-09-13T18:57:06+02:00</time>
      </trkpt>
      <trkpt lat="42.76668" lon="1.34345">
        <ele>1539</ele>
        <time>2025-09-13T18:57:07+02:00</time>
      </trkpt>
      <trkpt lat="42.7667" lon="1.34341">
        <ele>1536.9004</ele>
        <time>2025-09-13T18:57:11+02:00</time>
      </trkpt>
      <trkpt lat="42.7667" lon="1.3434">
        <ele>1536.9004</ele>
        <time>2025-09-13T18:57:12+02:00</time>
      </trkpt>
      <trkpt lat="42.76673" lon="1.3434">
        <ele>1536.9004</ele>
        <time>2025-09-13T18:57:16+02:00</time>
      </trkpt>
      <trkpt lat="42.76674" lon="1.34341">
        <ele>1534</ele>
        <time>2025-09-13T18:57:17+02:00</time>
      </trkpt>
      <trkpt lat="42.76676" lon="1.34342">
        <ele>1534</ele>
        <time>2025-09-13T18:57:21+02:00</time>
      </trkpt>
      <trkpt lat="42.76677" lon="1.34342">
        <ele>1536.1006</ele>
        <time>2025-09-13T18:57:22+02:00</time>
      </trkpt>
      <trkpt lat="42.76679" lon="1.34343">
        <ele>1536.1006</ele>
        <time>2025-09-13T18:57:26+02:00</time>
      </trkpt>
      <trkpt lat="42.76679" lon="1.34343">
        <ele>1536.1006</ele>
        <time>2025-09-13T18:57:27+02:00</time>
      </trkpt>
      <trkpt lat="42.7668" lon="1.34344">
        <ele>1533.2002</ele>
        <time>2025-09-13T18:57:31+02:00</time>
      </trkpt>
      <trkpt lat="42.76681" lon="1.34344">
        <ele>1533.2002</ele>
        <time>2025-09-13T18:57:32+02:00</time>
      </trkpt>
      <trkpt lat="42.76682" lon="1.34346">
        <ele>1533.2002</ele>
        <time>2025-09-13T18:57:36+02:00</time>
      </trkpt>
      <trkpt lat="42.76683" lon="1.34347">
        <ele>1533.2002</ele>
        <time>2025-09-13T18:57:37+02:00</time>
      </trkpt>
      <trkpt lat="42.76684" lon="1.34347">
        <ele>1533.2002</ele>
        <time>2025-09-13T18:57:41+02:00</time>
      </trkpt>
      <trkpt lat="42.76684" lon="1.34347">
        <ele>1533.2002</ele>
        <time>2025-09-13T18:57:42+02:00</time>
      </trkpt>
      <trkpt lat="42.76685" lon="1.34348">
        <ele>1533.2002</ele>
        <time>2025-09-13T18:57:46+02:00</time>
      </trkpt>
      <trkpt lat="42.76685" lon="1.34348">
        <ele>1533.2002</ele>
        <time>2025-09-13T18:57:47+02:00</time>
      </trkpt>
      <trkpt lat="42.76689" lon="1.3435">
        <ele>1530.2998</ele>
        <time>2025-09-13T18:57:51+02:00</time>
      </trkpt>
      <trkpt lat="42.7669" lon="1.34351">
        <ele>1530.2998</ele>
        <time>2025-09-13T18:57:52+02:00</time>
      </trkpt>
      <trkpt lat="42.76694" lon="1.34351">
        <ele>1531</ele>
        <time>2025-09-13T18:57:56+02:00</time>
      </trkpt>
      <trkpt lat="42.76694" lon="1.34351">
        <ele>1531</ele>
        <time>2025-09-13T18:57:57+02:00</time>
      </trkpt>
      <trkpt lat="42.76697" lon="1.34351">
        <ele>1531</ele>
        <time>2025-09-13T18:58:01+02:00</time>
      </trkpt>
      <trkpt lat="42.76696" lon="1.34351">
        <ele>1531</ele>
        <time>2025-09-13T18:58:02+02:00</time>
      </trkpt>
      <trkpt lat="42.76694" lon="1.34351">
        <ele>1531</ele>
        <time>2025-09-13T18:58:06+02:00</time>
      </trkpt>
      <trkpt lat="42.76694" lon="1.34351">
        <ele>1531</ele>
        <time>2025-09-13T18:58:07+02:00</time>
      </trkpt>
      <trkpt lat="42.76693" lon="1.34351">
        <ele>1531</ele>
        <time>2025-09-13T18:58:11+02:00</time>
      </trkpt>
      <trkpt lat="42.76692" lon="1.34351">
        <ele>1530.2998</ele>
        <time>2025-09-13T18:58:12+02:00</time>
      </trkpt>
      <trkpt lat="42.76691" lon="1.34351">
        <ele>1530.2998</ele>
        <time>2025-09-13T18:58:16+02:00</time>
      </trkpt>
      <trkpt lat="42.76691" lon="1.34351">
        <ele>1530.2998</ele>
        <time>2025-09-13T18:58:17+02:00</time>
      </trkpt>
      <trkpt lat="42.76691" lon="1.34351">
        <ele>1533.6006</ele>
        <time>2025-09-13T18:58:21+02:00</time>
      </trkpt>
      <trkpt lat="42.7669" lon="1.34351">
        <ele>1533.6006</ele>
        <time>2025-09-13T18:58:22+02:00</time>
      </trkpt>
      <trkpt lat="42.7669" lon="1.34351">
        <ele>1533.6006</ele>
        <time>2025-09-13T18:58:26+02:00</time>
      </trkpt>
      <trkpt lat="42.7669" lon="1.34351">
        <ele>1533.6006</ele>
        <time>2025-09-13T18:58:27+02:00</time>
      </trkpt>
      <trkpt lat="42.7669" lon="1.34353">
        <ele>1533.6006</ele>
        <time>2025-09-13T18:58:31+02:00</time>
      </trkpt>
      <trkpt lat="42.76689" lon="1.34353">
        <ele>1533.6006</ele>
        <time>2025-09-13T18:58:32+02:00</time>
      </trkpt>
      <trkpt lat="42.76689" lon="1.34353">
        <ele>1533.6006</ele>
        <time>2025-09-13T18:58:36+02:00</time>
      </trkpt>
      <trkpt lat="42.76689" lon="1.34353">
        <ele>1533.6006</ele>
        <time>2025-09-13T18:58:37+02:00</time>
      </trkpt>
      <trkpt lat="42.76689" lon="1.34353">
        <ele>1533.6006</ele>
        <time>2025-09-13T18:58:41+02:00</time>
      </trkpt>
      <trkpt lat="42.76689" lon="1.34353">
        <ele>1533.6006</ele>
        <time>2025-09-13T18:58:42+02:00</time>
      </trkpt>
      <trkpt lat="42.7669" lon="1.34353">
        <ele>1533.6006</ele>
        <time>2025-09-13T18:58:46+02:00</time>
      </trkpt>
      <trkpt lat="42.7669" lon="1.34353">
        <ele>1533.6006</ele>
        <time>2025-09-13T18:58:47+02:00</time>
      </trkpt>
      <trkpt lat="42.76691" lon="1.34354">
        <ele>1533.6006</ele>
        <time>2025-09-13T18:58:51+02:00</time>
      </trkpt>
      <trkpt lat="42.76691" lon="1.34355">
        <ele>1533.6006</ele>
        <time>2025-09-13T18:58:52+02:00</time>
      </trkpt>
      <trkpt lat="42.76693" lon="1.34358">
        <ele>1531</ele>
        <time>2025-09-13T18:58:56+02:00</time>
      </trkpt>
      <trkpt lat="42.76694" lon="1.34359">
        <ele>1531</ele>
        <time>2025-09-13T18:58:57+02:00</time>
      </trkpt>
      <trkpt lat="42.76694" lon="1.34363">
        <ele>1534.4004</ele>
        <time>2025-09-13T18:59:00+02:00</time>
      </trkpt>
      <trkpt lat="42.76695" lon="1.34363">
        <ele>1534.4004</ele>
        <time>2025-09-13T18:59:02+02:00</time>
      </trkpt>
      <trkpt lat="42.76696" lon="1.34365">
        <ele>1534.4004</ele>
        <time>2025-09-13T18:59:06+02:00</time>
      </trkpt>
      <trkpt lat="42.76696" lon="1.34365">
        <ele>1534.4004</ele>
        <time>2025-09-13T18:59:07+02:00</time>
      </trkpt>
      <trkpt lat="42.76697" lon="1.34365">
        <ele>1534.4004</ele>
        <time>2025-09-13T18:59:11+02:00</time>
      </trkpt>
      <trkpt lat="42.76697" lon="1.34365">
        <ele>1534.4004</ele>
        <time>2025-09-13T18:59:12+02:00</time>
      </trkpt>
      <trkpt lat="42.767" lon="1.34364">
        <ele>1531.7998</ele>
        <time>2025-09-13T18:59:16+02:00</time>
      </trkpt>
      <trkpt lat="42.76701" lon="1.34364">
        <ele>1531.7998</ele>
        <time>2025-09-13T18:59:17+02:00</time>
      </trkpt>
      <trkpt lat="42.76701" lon="1.34363">
        <ele>1531.7998</ele>
        <time>2025-09-13T18:59:21+02:00</time>
      </trkpt>
      <trkpt lat="42.76701" lon="1.34363">
        <ele>1531.7998</ele>
        <time>2025-09-13T18:59:22+02:00</time>
      </trkpt>
      <trkpt lat="42.76701" lon="1.34363">
        <ele>1531.7998</ele>
        <time>2025-09-13T18:59:26+02:00</time>
      </trkpt>
      <trkpt lat="42.76701" lon="1.34363">
        <ele>1531.7998</ele>
        <time>2025-09-13T18:59:27+02:00</time>
      </trkpt>
      <trkpt lat="42.76701" lon="1.34363">
        <ele>1531.7998</ele>
        <time>2025-09-13T18:59:31+02:00</time>
      </trkpt>
      <trkpt lat="42.76701" lon="1.34363">
        <ele>1531.7998</ele>
        <time>2025-09-13T18:59:32+02:00</time>
      </trkpt>
      <trkpt lat="42.76701" lon="1.34363">
        <ele>1531.7998</ele>
        <time>2025-09-13T18:59:36+02:00</time>
      </trkpt>
      <trkpt lat="42.76701" lon="1.34363">
        <ele>1531.7998</ele>
        <time>2025-09-13T18:59:37+02:00</time>
      </trkpt>
      <trkpt lat="42.76704" lon="1.34364">
        <ele>1531.7998</ele>
        <time>2025-09-13T18:59:41+02:00</time>
      </trkpt>
      <trkpt lat="42.76705" lon="1.34364">
        <ele>1529.4004</ele>
        <time>2025-09-13T18:59:42+02:00</time>
      </trkpt>
      <trkpt lat="42.76709" lon="1.34368">
        <ele>1529.4004</ele>
        <time>2025-09-13T18:59:46+02:00</time>
      </trkpt>
      <trkpt lat="42.76709" lon="1.34368">
        <ele>1532.6006</ele>
        <time>2025-09-13T18:59:47+02:00</time>
      </trkpt>
      <trkpt lat="42.76712" lon="1.34371">
        <ele>1530.1006</ele>
        <time>2025-09-13T18:59:51+02:00</time>
      </trkpt>
      <trkpt lat="42.76713" lon="1.34372">
        <ele>1530.1006</ele>
        <time>2025-09-13T18:59:52+02:00</time>
      </trkpt>
      <trkpt lat="42.76715" lon="1.34375">
        <ele>1530.1006</ele>
        <time>2025-09-13T18:59:56+02:00</time>
      </trkpt>
      <trkpt lat="42.76715" lon="1.34375">
        <ele>1530.1006</ele>
        <time>2025-09-13T18:59:57+02:00</time>
      </trkpt>
      <trkpt lat="42.76718" lon="1.34376">
        <ele>1530.1006</ele>
        <time>2025-09-13T19:00:01+02:00</time>
      </trkpt>
      <trkpt lat="42.76718" lon="1.34376">
        <ele>1527.7002</ele>
        <time>2025-09-13T19:00:02+02:00</time>
      </trkpt>
      <trkpt lat="42.76721" lon="1.34377">
        <ele>1531.5</ele>
        <time>2025-09-13T19:00:06+02:00</time>
      </trkpt>
      <trkpt lat="42.76721" lon="1.34377">
        <ele>1531.5</ele>
        <time>2025-09-13T19:00:07+02:00</time>
      </trkpt>
      <trkpt lat="42.76723" lon="1.34377">
        <ele>1531.5</ele>
        <time>2025-09-13T19:00:11+02:00</time>
      </trkpt>
      <trkpt lat="42.76723" lon="1.34377">
        <ele>1531.5</ele>
        <time>2025-09-13T19:00:12+02:00</time>
      </trkpt>
      <trkpt lat="42.76724" lon="1.34376">
        <ele>1527.7002</ele>
        <time>2025-09-13T19:00:16+02:00</time>
      </trkpt>
      <trkpt lat="42.76723" lon="1.34376">
        <ele>1527.7002</ele>
        <time>2025-09-13T19:00:17+02:00</time>
      </trkpt>
      <trkpt lat="42.76724" lon="1.34377">
        <ele>1531.5</ele>
        <time>2025-09-13T19:00:21+02:00</time>
      </trkpt>
      <trkpt lat="42.76724" lon="1.34377">
        <ele>1529.4004</ele>
        <time>2025-09-13T19:00:22+02:00</time>
      </trkpt>
      <trkpt lat="42.76727" lon="1.34382">
        <ele>1529.4004</ele>
        <time>2025-09-13T19:00:26+02:00</time>
      </trkpt>
      <trkpt lat="42.76728" lon="1.34384">
        <ele>1529.4004</ele>
        <time>2025-09-13T19:00:27+02:00</time>
      </trkpt>
      <trkpt lat="42.76729" lon="1.34389">
        <ele>1533.6006</ele>
        <time>2025-09-13T19:00:31+02:00</time>
      </trkpt>
      <trkpt lat="42.7673" lon="1.3439">
        <ele>1533.6006</ele>
        <time>2025-09-13T19:00:32+02:00</time>
      </trkpt>
      <trkpt lat="42.76731" lon="1.34391">
        <ele>1531.7002</ele>
        <time>2025-09-13T19:00:36+02:00</time>
      </trkpt>
      <trkpt lat="42.76731" lon="1.34391">
        <ele>1531.7002</ele>
        <time>2025-09-13T19:00:37+02:00</time>
      </trkpt>
      <trkpt lat="42.76731" lon="1.34391">
        <ele>1531.7002</ele>
        <time>2025-09-13T19:00:40+02:00</time>
      </trkpt>
      <trkpt lat="42.76731" lon="1.34391">
        <ele>1531.7002</ele>
        <time>2025-09-13T19:00:42+02:00</time>
      </trkpt>
      <trkpt lat="42.76731" lon="1.34391">
        <ele>1531.7002</ele>
        <time>2025-09-13T19:00:45+02:00</time>
      </trkpt>
      <trkpt lat="42.76731" lon="1.34391">
        <ele>1531.7002</ele>
        <time>2025-09-13T19:00:46+02:00</time>
      </trkpt>
      <trkpt lat="42.76731" lon="1.34392">
        <ele>1531.7002</ele>
        <time>2025-09-13T19:00:50+02:00</time>
      </trkpt>
      <trkpt lat="42.76731" lon="1.34392">
        <ele>1531.7002</ele>
        <time>2025-09-13T19:00:51+02:00</time>
      </trkpt>
      <trkpt lat="42.7673" lon="1.34393">
        <ele>1533.6006</ele>
        <time>2025-09-13T19:00:56+02:00</time>
      </trkpt>
      <trkpt lat="42.7673" lon="1.34393">
        <ele>1533.6006</ele>
        <time>2025-09-13T19:00:57+02:00</time>
      </trkpt>
      <trkpt lat="42.76729" lon="1.34393">
        <ele>1533.6006</ele>
        <time>2025-09-13T19:01:01+02:00</time>
      </trkpt>
      <trkpt lat="42.76729" lon="1.34394">
        <ele>1537.9004</ele>
        <time>2025-09-13T19:01:02+02:00</time>
      </trkpt>
      <trkpt lat="42.76732" lon="1.34399">
        <ele>1536.2002</ele>
        <time>2025-09-13T19:01:06+02:00</time>
      </trkpt>
      <trkpt lat="42.76733" lon="1.344">
        <ele>1536.2002</ele>
        <time>2025-09-13T19:01:07+02:00</time>
      </trkpt>
      <trkpt lat="42.76735" lon="1.34403">
        <ele>1540.5</ele>
        <time>2025-09-13T19:01:11+02:00</time>
      </trkpt>
      <trkpt lat="42.76736" lon="1.34404">
        <ele>1540.5</ele>
        <time>2025-09-13T19:01:12+02:00</time>
      </trkpt>
      <trkpt lat="42.76739" lon="1.34405">
        <ele>1539</ele>
        <time>2025-09-13T19:01:16+02:00</time>
      </trkpt>
      <trkpt lat="42.7674" lon="1.34405">
        <ele>1539</ele>
        <time>2025-09-13T19:01:17+02:00</time>
      </trkpt>
      <trkpt lat="42.76745" lon="1.34404">
        <ele>1537.7998</ele>
        <time>2025-09-13T19:01:21+02:00</time>
      </trkpt>
      <trkpt lat="42.76746" lon="1.34404">
        <ele>1537.7998</ele>
        <time>2025-09-13T19:01:22+02:00</time>
      </trkpt>
      <trkpt lat="42.76751" lon="1.34401">
        <ele>1532.2998</ele>
        <time>2025-09-13T19:01:26+02:00</time>
      </trkpt>
      <trkpt lat="42.76752" lon="1.344">
        <ele>1532.2998</ele>
        <time>2025-09-13T19:01:27+02:00</time>
      </trkpt>
      <trkpt lat="42.76758" lon="1.34397">
        <ele>1531.2998</ele>
        <time>2025-09-13T19:01:31+02:00</time>
      </trkpt>
      <trkpt lat="42.76759" lon="1.34395">
        <ele>1531.2998</ele>
        <time>2025-09-13T19:01:32+02:00</time>
      </trkpt>
      <trkpt lat="42.76764" lon="1.34389">
        <ele>1525.9004</ele>
        <time>2025-09-13T19:01:36+02:00</time>
      </trkpt>
      <trkpt lat="42.76764" lon="1.34388">
        <ele>1525.9004</ele>
        <time>2025-09-13T19:01:37+02:00</time>
      </trkpt>
      <trkpt lat="42.76768" lon="1.34383">
        <ele>1521.2002</ele>
        <time>2025-09-13T19:01:41+02:00</time>
      </trkpt>
      <trkpt lat="42.76769" lon="1.34382">
        <ele>1520.7002</ele>
        <time>2025-09-13T19:01:42+02:00</time>
      </trkpt>
      <trkpt lat="42.76773" lon="1.34379">
        <ele>1520.7002</ele>
        <time>2025-09-13T19:01:46+02:00</time>
      </trkpt>
      <trkpt lat="42.76773" lon="1.34378">
        <ele>1520.7002</ele>
        <time>2025-09-13T19:01:47+02:00</time>
      </trkpt>
      <trkpt lat="42.76777" lon="1.34376">
        <ele>1516.1006</ele>
        <time>2025-09-13T19:01:51+02:00</time>
      </trkpt>
      <trkpt lat="42.76778" lon="1.34375">
        <ele>1516.1006</ele>
        <time>2025-09-13T19:01:52+02:00</time>
      </trkpt>
      <trkpt lat="42.76781" lon="1.34374">
        <ele>1516.2998</ele>
        <time>2025-09-13T19:01:56+02:00</time>
      </trkpt>
      <trkpt lat="42.76782" lon="1.34374">
        <ele>1516.2998</ele>
        <time>2025-09-13T19:01:57+02:00</time>
      </trkpt>
      <trkpt lat="42.76784" lon="1.34371">
        <ele>1516.2998</ele>
        <time>2025-09-13T19:02:01+02:00</time>
      </trkpt>
      <trkpt lat="42.76785" lon="1.34371">
        <ele>1516.2998</ele>
        <time>2025-09-13T19:02:02+02:00</time>
      </trkpt>
      <trkpt lat="42.76788" lon="1.34368">
        <ele>1512.5</ele>
        <time>2025-09-13T19:02:06+02:00</time>
      </trkpt>
      <trkpt lat="42.76789" lon="1.34367">
        <ele>1512.5</ele>
        <time>2025-09-13T19:02:07+02:00</time>
      </trkpt>
      <trkpt lat="42.76792" lon="1.34363">
        <ele>1512.5</ele>
        <time>2025-09-13T19:02:11+02:00</time>
      </trkpt>
      <trkpt lat="42.76792" lon="1.34363">
        <ele>1512.5</ele>
        <time>2025-09-13T19:02:12+02:00</time>
      </trkpt>
      <trkpt lat="42.76795" lon="1.3436">
        <ele>1513.2998</ele>
        <time>2025-09-13T19:02:16+02:00</time>
      </trkpt>
      <trkpt lat="42.76796" lon="1.34359">
        <ele>1509.2998</ele>
        <time>2025-09-13T19:02:17+02:00</time>
      </trkpt>
      <trkpt lat="42.76799" lon="1.34357">
        <ele>1509.2998</ele>
        <time>2025-09-13T19:02:21+02:00</time>
      </trkpt>
      <trkpt lat="42.768" lon="1.34356">
        <ele>1509.2998</ele>
        <time>2025-09-13T19:02:22+02:00</time>
      </trkpt>
      <trkpt lat="42.76802" lon="1.34352">
        <ele>1510.1006</ele>
        <time>2025-09-13T19:02:26+02:00</time>
      </trkpt>
      <trkpt lat="42.76803" lon="1.34351">
        <ele>1506.2002</ele>
        <time>2025-09-13T19:02:27+02:00</time>
      </trkpt>
      <trkpt lat="42.76806" lon="1.34346">
        <ele>1506.2002</ele>
        <time>2025-09-13T19:02:31+02:00</time>
      </trkpt>
      <trkpt lat="42.76806" lon="1.34346">
        <ele>1507</ele>
        <time>2025-09-13T19:02:32+02:00</time>
      </trkpt>
      <trkpt lat="42.76809" lon="1.34342">
        <ele>1502.7998</ele>
        <time>2025-09-13T19:02:36+02:00</time>
      </trkpt>
      <trkpt lat="42.7681" lon="1.34341">
        <ele>1502.7998</ele>
        <time>2025-09-13T19:02:37+02:00</time>
      </trkpt>
      <trkpt lat="42.76812" lon="1.34337">
        <ele>1502.7998</ele>
        <time>2025-09-13T19:02:41+02:00</time>
      </trkpt>
      <trkpt lat="42.76813" lon="1.34337">
        <ele>1503.9004</ele>
        <time>2025-09-13T19:02:42+02:00</time>
      </trkpt>
      <trkpt lat="42.76815" lon="1.34333">
        <ele>1499.5</ele>
        <time>2025-09-13T19:02:46+02:00</time>
      </trkpt>
      <trkpt lat="42.76816" lon="1.34333">
        <ele>1499.5</ele>
        <time>2025-09-13T19:02:47+02:00</time>
      </trkpt>
      <trkpt lat="42.7682" lon="1.3433">
        <ele>1500.9004</ele>
        <time>2025-09-13T19:02:51+02:00</time>
      </trkpt>
      <trkpt lat="42.76821" lon="1.3433">
        <ele>1500.9004</ele>
        <time>2025-09-13T19:02:52+02:00</time>
      </trkpt>
      <trkpt lat="42.76825" lon="1.34329">
        <ele>1500.9004</ele>
        <time>2025-09-13T19:02:56+02:00</time>
      </trkpt>
      <trkpt lat="42.76825" lon="1.34328">
        <ele>1502.5</ele>
        <time>2025-09-13T19:02:57+02:00</time>
      </trkpt>
      <trkpt lat="42.76828" lon="1.34325">
        <ele>1502.5</ele>
        <time>2025-09-13T19:03:01+02:00</time>
      </trkpt>
      <trkpt lat="42.76829" lon="1.34324">
        <ele>1498.2998</ele>
        <time>2025-09-13T19:03:02+02:00</time>
      </trkpt>
      <trkpt lat="42.76831" lon="1.3432">
        <ele>1498.2998</ele>
        <time>2025-09-13T19:03:06+02:00</time>
      </trkpt>
      <trkpt lat="42.76831" lon="1.34318">
        <ele>1500.1006</ele>
        <time>2025-09-13T19:03:07+02:00</time>
      </trkpt>
      <trkpt lat="42.76834" lon="1.34315">
        <ele>1496</ele>
        <time>2025-09-13T19:03:11+02:00</time>
      </trkpt>
      <trkpt lat="42.76834" lon="1.34314">
        <ele>1496</ele>
        <time>2025-09-13T19:03:12+02:00</time>
      </trkpt>
      <trkpt lat="42.76836" lon="1.3431">
        <ele>1496</ele>
        <time>2025-09-13T19:03:16+02:00</time>
      </trkpt>
      <trkpt lat="42.76837" lon="1.34309">
        <ele>1496</ele>
        <time>2025-09-13T19:03:17+02:00</time>
      </trkpt>
      <trkpt lat="42.7684" lon="1.34305">
        <ele>1494</ele>
        <time>2025-09-13T19:03:21+02:00</time>
      </trkpt>
      <trkpt lat="42.76841" lon="1.34305">
        <ele>1494</ele>
        <time>2025-09-13T19:03:22+02:00</time>
      </trkpt>
      <trkpt lat="42.76843" lon="1.34303">
        <ele>1494</ele>
        <time>2025-09-13T19:03:26+02:00</time>
      </trkpt>
      <trkpt lat="42.76844" lon="1.34302">
        <ele>1496.1006</ele>
        <time>2025-09-13T19:03:27+02:00</time>
      </trkpt>
      <trkpt lat="42.76847" lon="1.343">
        <ele>1496.1006</ele>
        <time>2025-09-13T19:03:31+02:00</time>
      </trkpt>
      <trkpt lat="42.76848" lon="1.34299">
        <ele>1496.1006</ele>
        <time>2025-09-13T19:03:32+02:00</time>
      </trkpt>
      <trkpt lat="42.76851" lon="1.34297">
        <ele>1494.7002</ele>
        <time>2025-09-13T19:03:36+02:00</time>
      </trkpt>
      <trkpt lat="42.76852" lon="1.34297">
        <ele>1494.7002</ele>
        <time>2025-09-13T19:03:37+02:00</time>
      </trkpt>
      <trkpt lat="42.76852" lon="1.34298">
        <ele>1494.7002</ele>
        <time>2025-09-13T19:03:42+02:00</time>
      </trkpt>
      <trkpt lat="42.76851" lon="1.34298">
        <ele>1494.7002</ele>
        <time>2025-09-13T19:03:43+02:00</time>
      </trkpt>
      <trkpt lat="42.76852" lon="1.34298">
        <ele>1494.7002</ele>
        <time>2025-09-13T19:03:47+02:00</time>
      </trkpt>
      <trkpt lat="42.76853" lon="1.34297">
        <ele>1494.7002</ele>
        <time>2025-09-13T19:03:48+02:00</time>
      </trkpt>
      <trkpt lat="42.76856" lon="1.34296">
        <ele>1494.7002</ele>
        <time>2025-09-13T19:03:52+02:00</time>
      </trkpt>
      <trkpt lat="42.76857" lon="1.34295">
        <ele>1496.7998</ele>
        <time>2025-09-13T19:03:53+02:00</time>
      </trkpt>
      <trkpt lat="42.76859" lon="1.34293">
        <ele>1496.7998</ele>
        <time>2025-09-13T19:03:57+02:00</time>
      </trkpt>
      <trkpt lat="42.7686" lon="1.34293">
        <ele>1496.7998</ele>
        <time>2025-09-13T19:03:58+02:00</time>
      </trkpt>
      <trkpt lat="42.76863" lon="1.34291">
        <ele>1498.7998</ele>
        <time>2025-09-13T19:04:02+02:00</time>
      </trkpt>
      <trkpt lat="42.76864" lon="1.34291">
        <ele>1498.7998</ele>
        <time>2025-09-13T19:04:03+02:00</time>
      </trkpt>
      <trkpt lat="42.76867" lon="1.34289">
        <ele>1495.4004</ele>
        <time>2025-09-13T19:04:07+02:00</time>
      </trkpt>
      <trkpt lat="42.76868" lon="1.34288">
        <ele>1495.4004</ele>
        <time>2025-09-13T19:04:08+02:00</time>
      </trkpt>
      <trkpt lat="42.76871" lon="1.34285">
        <ele>1497.2998</ele>
        <time>2025-09-13T19:04:12+02:00</time>
      </trkpt>
      <trkpt lat="42.76872" lon="1.34285">
        <ele>1497.2998</ele>
        <time>2025-09-13T19:04:13+02:00</time>
      </trkpt>
      <trkpt lat="42.76875" lon="1.34285">
        <ele>1499.1006</ele>
        <time>2025-09-13T19:04:17+02:00</time>
      </trkpt>
      <trkpt lat="42.76876" lon="1.34285">
        <ele>1499.1006</ele>
        <time>2025-09-13T19:04:18+02:00</time>
      </trkpt>
      <trkpt lat="42.76879" lon="1.34283">
        <ele>1499.1006</ele>
        <time>2025-09-13T19:04:22+02:00</time>
      </trkpt>
      <trkpt lat="42.7688" lon="1.34283">
        <ele>1499.1006</ele>
        <time>2025-09-13T19:04:23+02:00</time>
      </trkpt>
      <trkpt lat="42.76882" lon="1.34282">
        <ele>1497.4004</ele>
        <time>2025-09-13T19:04:27+02:00</time>
      </trkpt>
      <trkpt lat="42.76883" lon="1.34282">
        <ele>1497.4004</ele>
        <time>2025-09-13T19:04:28+02:00</time>
      </trkpt>
      <trkpt lat="42.76886" lon="1.3428">
        <ele>1497.4004</ele>
        <time>2025-09-13T19:04:32+02:00</time>
      </trkpt>
      <trkpt lat="42.76887" lon="1.3428">
        <ele>1497.4004</ele>
        <time>2025-09-13T19:04:33+02:00</time>
      </trkpt>
      <trkpt lat="42.7689" lon="1.34279">
        <ele>1499</ele>
        <time>2025-09-13T19:04:37+02:00</time>
      </trkpt>
      <trkpt lat="42.76891" lon="1.34279">
        <ele>1499</ele>
        <time>2025-09-13T19:04:38+02:00</time>
      </trkpt>
      <trkpt lat="42.76894" lon="1.34279">
        <ele>1500.5</ele>
        <time>2025-09-13T19:04:42+02:00</time>
      </trkpt>
      <trkpt lat="42.76895" lon="1.34279">
        <ele>1500.5</ele>
        <time>2025-09-13T19:04:43+02:00</time>
      </trkpt>
      <trkpt lat="42.76898" lon="1.34279">
        <ele>1500.5</ele>
        <time>2025-09-13T19:04:47+02:00</time>
      </trkpt>
      <trkpt lat="42.76898" lon="1.34278">
        <ele>1500.5</ele>
        <time>2025-09-13T19:04:48+02:00</time>
      </trkpt>
      <trkpt lat="42.769" lon="1.34276">
        <ele>1500.5</ele>
        <time>2025-09-13T19:04:52+02:00</time>
      </trkpt>
      <trkpt lat="42.76899" lon="1.34276">
        <ele>1500.5</ele>
        <time>2025-09-13T19:04:53+02:00</time>
      </trkpt>
      <trkpt lat="42.76898" lon="1.34278">
        <ele>1500.5</ele>
        <time>2025-09-13T19:04:57+02:00</time>
      </trkpt>
      <trkpt lat="42.76898" lon="1.34278">
        <ele>1500.5</ele>
        <time>2025-09-13T19:04:58+02:00</time>
      </trkpt>
      <trkpt lat="42.76901" lon="1.34276">
        <ele>1502</ele>
        <time>2025-09-13T19:05:03+02:00</time>
      </trkpt>
      <trkpt lat="42.76902" lon="1.34275">
        <ele>1502</ele>
        <time>2025-09-13T19:05:04+02:00</time>
      </trkpt>
      <trkpt lat="42.76908" lon="1.34272">
        <ele>1500.1006</ele>
        <time>2025-09-13T19:05:09+02:00</time>
      </trkpt>
      <trkpt lat="42.7691" lon="1.34272">
        <ele>1500.1006</ele>
        <time>2025-09-13T19:05:10+02:00</time>
      </trkpt>
      <trkpt lat="42.76915" lon="1.34269">
        <ele>1501.4004</ele>
        <time>2025-09-13T19:05:14+02:00</time>
      </trkpt>
      <trkpt lat="42.76916" lon="1.34269">
        <ele>1501.4004</ele>
        <time>2025-09-13T19:05:15+02:00</time>
      </trkpt>
      <trkpt lat="42.7692" lon="1.34268">
        <ele>1502.7002</ele>
        <time>2025-09-13T19:05:19+02:00</time>
      </trkpt>
      <trkpt lat="42.76921" lon="1.34267">
        <ele>1502.7002</ele>
        <time>2025-09-13T19:05:20+02:00</time>
      </trkpt>
      <trkpt lat="42.76924" lon="1.34265">
        <ele>1499.6006</ele>
        <time>2025-09-13T19:05:24+02:00</time>
      </trkpt>
      <trkpt lat="42.76924" lon="1.34264">
        <ele>1499.6006</ele>
        <time>2025-09-13T19:05:25+02:00</time>
      </trkpt>
      <trkpt lat="42.76928" lon="1.3426">
        <ele>1500.7998</ele>
        <time>2025-09-13T19:05:29+02:00</time>
      </trkpt>
      <trkpt lat="42.76928" lon="1.34259">
        <ele>1500.7998</ele>
        <time>2025-09-13T19:05:30+02:00</time>
      </trkpt>
      <trkpt lat="42.76932" lon="1.34258">
        <ele>1500.7998</ele>
        <time>2025-09-13T19:05:34+02:00</time>
      </trkpt>
      <trkpt lat="42.76933" lon="1.34257">
        <ele>1501.9004</ele>
        <time>2025-09-13T19:05:35+02:00</time>
      </trkpt>
      <trkpt lat="42.76936" lon="1.34256">
        <ele>1498.9004</ele>
        <time>2025-09-13T19:05:39+02:00</time>
      </trkpt>
      <trkpt lat="42.76936" lon="1.34257">
        <ele>1501.9004</ele>
        <time>2025-09-13T19:05:40+02:00</time>
      </trkpt>
      <trkpt lat="42.76938" lon="1.34257">
        <ele>1501.9004</ele>
        <time>2025-09-13T19:05:44+02:00</time>
      </trkpt>
      <trkpt lat="42.76938" lon="1.34256">
        <ele>1498.9004</ele>
        <time>2025-09-13T19:05:45+02:00</time>
      </trkpt>
      <trkpt lat="42.76941" lon="1.34255">
        <ele>1499.7998</ele>
        <time>2025-09-13T19:05:49+02:00</time>
      </trkpt>
      <trkpt lat="42.76941" lon="1.34255">
        <ele>1499.7998</ele>
        <time>2025-09-13T19:05:50+02:00</time>
      </trkpt>
      <trkpt lat="42.76943" lon="1.34255">
        <ele>1499.7998</ele>
        <time>2025-09-13T19:05:54+02:00</time>
      </trkpt>
      <trkpt lat="42.76944" lon="1.34255">
        <ele>1499.7998</ele>
        <time>2025-09-13T19:05:55+02:00</time>
      </trkpt>
      <trkpt lat="42.76946" lon="1.34255">
        <ele>1500.5</ele>
        <time>2025-09-13T19:05:59+02:00</time>
      </trkpt>
      <trkpt lat="42.76947" lon="1.34256">
        <ele>1500.5</ele>
        <time>2025-09-13T19:06:00+02:00</time>
      </trkpt>
      <trkpt lat="42.76949" lon="1.34255">
        <ele>1500.5</ele>
        <time>2025-09-13T19:06:04+02:00</time>
      </trkpt>
      <trkpt lat="42.76949" lon="1.34255">
        <ele>1500.5</ele>
        <time>2025-09-13T19:06:05+02:00</time>
      </trkpt>
      <trkpt lat="42.76952" lon="1.34256">
        <ele>1501</ele>
        <time>2025-09-13T19:06:09+02:00</time>
      </trkpt>
      <trkpt lat="42.76953" lon="1.34257">
        <ele>1504.1006</ele>
        <time>2025-09-13T19:06:10+02:00</time>
      </trkpt>
      <trkpt lat="42.76956" lon="1.34257">
        <ele>1504.1006</ele>
        <time>2025-09-13T19:06:14+02:00</time>
      </trkpt>
      <trkpt lat="42.76955" lon="1.34257">
        <ele>1504.1006</ele>
        <time>2025-09-13T19:06:15+02:00</time>
      </trkpt>
      <trkpt lat="42.76954" lon="1.34257">
        <ele>1504.1006</ele>
        <time>2025-09-13T19:06:19+02:00</time>
      </trkpt>
      <trkpt lat="42.76954" lon="1.34257">
        <ele>1504.1006</ele>
        <time>2025-09-13T19:06:21+02:00</time>
      </trkpt>
      <trkpt lat="42.76958" lon="1.34256">
        <ele>1501.4004</ele>
        <time>2025-09-13T19:06:25+02:00</time>
      </trkpt>
      <trkpt lat="42.76959" lon="1.34256">
        <ele>1501.4004</ele>
        <time>2025-09-13T19:06:26+02:00</time>
      </trkpt>
      <trkpt lat="42.76963" lon="1.34256">
        <ele>1504.5</ele>
        <time>2025-09-13T19:06:30+02:00</time>
      </trkpt>
      <trkpt lat="42.76964" lon="1.34257">
        <ele>1504.9004</ele>
        <time>2025-09-13T19:06:31+02:00</time>
      </trkpt>
      <trkpt lat="42.76967" lon="1.34257">
        <ele>1504.9004</ele>
        <time>2025-09-13T19:06:35+02:00</time>
      </trkpt>
      <trkpt lat="42.76968" lon="1.34257">
        <ele>1504.9004</ele>
        <time>2025-09-13T19:06:36+02:00</time>
      </trkpt>
      <trkpt lat="42.76972" lon="1.34257">
        <ele>1505.2002</ele>
        <time>2025-09-13T19:06:40+02:00</time>
      </trkpt>
      <trkpt lat="42.76972" lon="1.34257">
        <ele>1505.2002</ele>
        <time>2025-09-13T19:06:41+02:00</time>
      </trkpt>
      <trkpt lat="42.76975" lon="1.34258">
        <ele>1505.2002</ele>
        <time>2025-09-13T19:06:45+02:00</time>
      </trkpt>
      <trkpt lat="42.76976" lon="1.34258">
        <ele>1505.2002</ele>
        <time>2025-09-13T19:06:46+02:00</time>
      </trkpt>
      <trkpt lat="42.76979" lon="1.34258">
        <ele>1505.5</ele>
        <time>2025-09-13T19:06:50+02:00</time>
      </trkpt>
      <trkpt lat="42.7698" lon="1.34258">
        <ele>1505.5</ele>
        <time>2025-09-13T19:06:51+02:00</time>
      </trkpt>
      <trkpt lat="42.76983" lon="1.34257">
        <ele>1505.7998</ele>
        <time>2025-09-13T19:06:55+02:00</time>
      </trkpt>
      <trkpt lat="42.76984" lon="1.34257">
        <ele>1505.7998</ele>
        <time>2025-09-13T19:06:56+02:00</time>
      </trkpt>
      <trkpt lat="42.76987" lon="1.34256">
        <ele>1505.7998</ele>
        <time>2025-09-13T19:07:00+02:00</time>
      </trkpt>
      <trkpt lat="42.76988" lon="1.34256">
        <ele>1505.7998</ele>
        <time>2025-09-13T19:07:01+02:00</time>
      </trkpt>
      <trkpt lat="42.76991" lon="1.34255">
        <ele>1503</ele>
        <time>2025-09-13T19:07:05+02:00</time>
      </trkpt>
      <trkpt lat="42.76991" lon="1.34255">
        <ele>1503</ele>
        <time>2025-09-13T19:07:06+02:00</time>
      </trkpt>
      <trkpt lat="42.76994" lon="1.34253">
        <ele>1503</ele>
        <time>2025-09-13T19:07:10+02:00</time>
      </trkpt>
      <trkpt lat="42.76995" lon="1.34253">
        <ele>1503</ele>
        <time>2025-09-13T19:07:11+02:00</time>
      </trkpt>
      <trkpt lat="42.76998" lon="1.34253">
        <ele>1503.4004</ele>
        <time>2025-09-13T19:07:16+02:00</time>
      </trkpt>
      <trkpt lat="42.76999" lon="1.34254">
        <ele>1503.4004</ele>
        <time>2025-09-13T19:07:17+02:00</time>
      </trkpt>
      <trkpt lat="42.77001" lon="1.34255">
        <ele>1503.4004</ele>
        <time>2025-09-13T19:07:21+02:00</time>
      </trkpt>
      <trkpt lat="42.77002" lon="1.34255">
        <ele>1503.7998</ele>
        <time>2025-09-13T19:07:22+02:00</time>
      </trkpt>
      <trkpt lat="42.77003" lon="1.34255">
        <ele>1503.7998</ele>
        <time>2025-09-13T19:07:26+02:00</time>
      </trkpt>
      <trkpt lat="42.77003" lon="1.34254">
        <ele>1503.7998</ele>
        <time>2025-09-13T19:07:27+02:00</time>
      </trkpt>
      <trkpt lat="42.77002" lon="1.3425">
        <ele>1503.7998</ele>
        <time>2025-09-13T19:07:31+02:00</time>
      </trkpt>
      <trkpt lat="42.77" lon="1.34248">
        <ele>1503.4004</ele>
        <time>2025-09-13T19:07:32+02:00</time>
      </trkpt>
      <trkpt lat="42.76995" lon="1.34244">
        <ele>1499.7998</ele>
        <time>2025-09-13T19:07:36+02:00</time>
      </trkpt>
      <trkpt lat="42.76993" lon="1.34243">
        <ele>1499.7998</ele>
        <time>2025-09-13T19:07:37+02:00</time>
      </trkpt>
      <trkpt lat="42.76988" lon="1.3424">
        <ele>1499.4004</ele>
        <time>2025-09-13T19:07:41+02:00</time>
      </trkpt>
      <trkpt lat="42.76987" lon="1.34239">
        <ele>1496.2998</ele>
        <time>2025-09-13T19:07:42+02:00</time>
      </trkpt>
      <trkpt lat="42.76983" lon="1.34234">
        <ele>1496.2998</ele>
        <time>2025-09-13T19:07:47+02:00</time>
      </trkpt>
      <trkpt lat="42.76982" lon="1.34233">
        <ele>1496.1006</ele>
        <time>2025-09-13T19:07:48+02:00</time>
      </trkpt>
      <trkpt lat="42.7698" lon="1.34228">
        <ele>1493</ele>
        <time>2025-09-13T19:07:52+02:00</time>
      </trkpt>
      <trkpt lat="42.76979" lon="1.34226">
        <ele>1493</ele>
        <time>2025-09-13T19:07:53+02:00</time>
      </trkpt>
      <trkpt lat="42.76976" lon="1.34223">
        <ele>1492.9004</ele>
        <time>2025-09-13T19:07:57+02:00</time>
      </trkpt>
      <trkpt lat="42.76975" lon="1.34222">
        <ele>1492.9004</ele>
        <time>2025-09-13T19:07:58+02:00</time>
      </trkpt>
      <trkpt lat="42.76972" lon="1.34219">
        <ele>1489.9004</ele>
        <time>2025-09-13T19:08:02+02:00</time>
      </trkpt>
      <trkpt lat="42.76971" lon="1.34217">
        <ele>1489.9004</ele>
        <time>2025-09-13T19:08:03+02:00</time>
      </trkpt>
      <trkpt lat="42.76968" lon="1.34215">
        <ele>1489.7998</ele>
        <time>2025-09-13T19:08:07+02:00</time>
      </trkpt>
      <trkpt lat="42.76967" lon="1.34214">
        <ele>1489.7998</ele>
        <time>2025-09-13T19:08:08+02:00</time>
      </trkpt>
      <trkpt lat="42.76964" lon="1.34211">
        <ele>1486.6006</ele>
        <time>2025-09-13T19:08:12+02:00</time>
      </trkpt>
      <trkpt lat="42.76963" lon="1.34211">
        <ele>1486.5</ele>
        <time>2025-09-13T19:08:13+02:00</time>
      </trkpt>
      <trkpt lat="42.76961" lon="1.34209">
        <ele>1486.5</ele>
        <time>2025-09-13T19:08:17+02:00</time>
      </trkpt>
      <trkpt lat="42.7696" lon="1.34208">
        <ele>1486.5</ele>
        <time>2025-09-13T19:08:18+02:00</time>
      </trkpt>
      <trkpt lat="42.76957" lon="1.34205">
        <ele>1482.7002</ele>
        <time>2025-09-13T19:08:22+02:00</time>
      </trkpt>
      <trkpt lat="42.76957" lon="1.34204">
        <ele>1482.7002</ele>
        <time>2025-09-13T19:08:23+02:00</time>
      </trkpt>
      <trkpt lat="42.76954" lon="1.34202">
        <ele>1482.7002</ele>
        <time>2025-09-13T19:08:27+02:00</time>
      </trkpt>
      <trkpt lat="42.76953" lon="1.34201">
        <ele>1482.7002</ele>
        <time>2025-09-13T19:08:28+02:00</time>
      </trkpt>
      <trkpt lat="42.76952" lon="1.34198">
        <ele>1482.7002</ele>
        <time>2025-09-13T19:08:32+02:00</time>
      </trkpt>
      <trkpt lat="42.76952" lon="1.34197">
        <ele>1482.7002</ele>
        <time>2025-09-13T19:08:33+02:00</time>
      </trkpt>
      <trkpt lat="42.76957" lon="1.34196">
        <ele>1479.7002</ele>
        <time>2025-09-13T19:08:37+02:00</time>
      </trkpt>
      <trkpt lat="42.76959" lon="1.34196">
        <ele>1479.7002</ele>
        <time>2025-09-13T19:08:38+02:00</time>
      </trkpt>
      <trkpt lat="42.76964" lon="1.34199">
        <ele>1483.2998</ele>
        <time>2025-09-13T19:08:42+02:00</time>
      </trkpt>
      <trkpt lat="42.76965" lon="1.34199">
        <ele>1483.2998</ele>
        <time>2025-09-13T19:08:43+02:00</time>
      </trkpt>
      <trkpt lat="42.76969" lon="1.34202">
        <ele>1483.2998</ele>
        <time>2025-09-13T19:08:47+02:00</time>
      </trkpt>
      <trkpt lat="42.7697" lon="1.34202">
        <ele>1483.4004</ele>
        <time>2025-09-13T19:08:48+02:00</time>
      </trkpt>
      <trkpt lat="42.76974" lon="1.34204">
        <ele>1483.4004</ele>
        <time>2025-09-13T19:08:52+02:00</time>
      </trkpt>
      <trkpt lat="42.76974" lon="1.34205">
        <ele>1486.7002</ele>
        <time>2025-09-13T19:08:53+02:00</time>
      </trkpt>
      <trkpt lat="42.76978" lon="1.34206">
        <ele>1486.7002</ele>
        <time>2025-09-13T19:08:57+02:00</time>
      </trkpt>
      <trkpt lat="42.76979" lon="1.34206">
        <ele>1486.7002</ele>
        <time>2025-09-13T19:08:58+02:00</time>
      </trkpt>
      <trkpt lat="42.76983" lon="1.34207">
        <ele>1486.7998</ele>
        <time>2025-09-13T19:09:02+02:00</time>
      </trkpt>
      <trkpt lat="42.76984" lon="1.34207">
        <ele>1486.7998</ele>
        <time>2025-09-13T19:09:03+02:00</time>
      </trkpt>
      <trkpt lat="42.76987" lon="1.34207">
        <ele>1486.7998</ele>
        <time>2025-09-13T19:09:07+02:00</time>
      </trkpt>
      <trkpt lat="42.76988" lon="1.34207">
        <ele>1486.7998</ele>
        <time>2025-09-13T19:09:08+02:00</time>
      </trkpt>
      <trkpt lat="42.76992" lon="1.34207">
        <ele>1486.7998</ele>
        <time>2025-09-13T19:09:12+02:00</time>
      </trkpt>
      <trkpt lat="42.76993" lon="1.34206">
        <ele>1486.7998</ele>
        <time>2025-09-13T19:09:13+02:00</time>
      </trkpt>
      <trkpt lat="42.76996" lon="1.34203">
        <ele>1483.4004</ele>
        <time>2025-09-13T19:09:17+02:00</time>
      </trkpt>
      <trkpt lat="42.76996" lon="1.34202">
        <ele>1483.4004</ele>
        <time>2025-09-13T19:09:18+02:00</time>
      </trkpt>
      <trkpt lat="42.76996" lon="1.34196">
        <ele>1483.4004</ele>
        <time>2025-09-13T19:09:22+02:00</time>
      </trkpt>
      <trkpt lat="42.76996" lon="1.34195">
        <ele>1480.1006</ele>
        <time>2025-09-13T19:09:23+02:00</time>
      </trkpt>
      <trkpt lat="42.76995" lon="1.34192">
        <ele>1480.2998</ele>
        <time>2025-09-13T19:09:27+02:00</time>
      </trkpt>
      <trkpt lat="42.76994" lon="1.34191">
        <ele>1480.2998</ele>
        <time>2025-09-13T19:09:28+02:00</time>
      </trkpt>
      <trkpt lat="42.7699" lon="1.34188">
        <ele>1480.2998</ele>
        <time>2025-09-13T19:09:32+02:00</time>
      </trkpt>
      <trkpt lat="42.76989" lon="1.34187">
        <ele>1477.1006</ele>
        <time>2025-09-13T19:09:33+02:00</time>
      </trkpt>
      <trkpt lat="42.76987" lon="1.34186">
        <ele>1477.2998</ele>
        <time>2025-09-13T19:09:37+02:00</time>
      </trkpt>
      <trkpt lat="42.76987" lon="1.34186">
        <ele>1477.2998</ele>
        <time>2025-09-13T19:09:38+02:00</time>
      </trkpt>
      <trkpt lat="42.76987" lon="1.34186">
        <ele>1477.2998</ele>
        <time>2025-09-13T19:09:42+02:00</time>
      </trkpt>
      <trkpt lat="42.76986" lon="1.34186">
        <ele>1477.2998</ele>
        <time>2025-09-13T19:09:43+02:00</time>
      </trkpt>
      <trkpt lat="42.76985" lon="1.34183">
        <ele>1477.2998</ele>
        <time>2025-09-13T19:09:47+02:00</time>
      </trkpt>
      <trkpt lat="42.76984" lon="1.34183">
        <ele>1477.2998</ele>
        <time>2025-09-13T19:09:48+02:00</time>
      </trkpt>
      <trkpt lat="42.76981" lon="1.34182">
        <ele>1477.2998</ele>
        <time>2025-09-13T19:09:52+02:00</time>
      </trkpt>
      <trkpt lat="42.7698" lon="1.34181">
        <ele>1477.2998</ele>
        <time>2025-09-13T19:09:53+02:00</time>
      </trkpt>
      <trkpt lat="42.76977" lon="1.34179">
        <ele>1477.2998</ele>
        <time>2025-09-13T19:09:57+02:00</time>
      </trkpt>
      <trkpt lat="42.76976" lon="1.34179">
        <ele>1474.4004</ele>
        <time>2025-09-13T19:09:58+02:00</time>
      </trkpt>
      <trkpt lat="42.76974" lon="1.34177">
        <ele>1474.4004</ele>
        <time>2025-09-13T19:10:02+02:00</time>
      </trkpt>
      <trkpt lat="42.76973" lon="1.34176">
        <ele>1474.4004</ele>
        <time>2025-09-13T19:10:03+02:00</time>
      </trkpt>
      <trkpt lat="42.7697" lon="1.34174">
        <ele>1474.4004</ele>
        <time>2025-09-13T19:10:07+02:00</time>
      </trkpt>
      <trkpt lat="42.7697" lon="1.34174">
        <ele>1474.2002</ele>
        <time>2025-09-13T19:10:08+02:00</time>
      </trkpt>
      <trkpt lat="42.76968" lon="1.34175">
        <ele>1474.2002</ele>
        <time>2025-09-13T19:10:12+02:00</time>
      </trkpt>
      <trkpt lat="42.76968" lon="1.34175">
        <ele>1474.2002</ele>
        <time>2025-09-13T19:10:13+02:00</time>
      </trkpt>
      <trkpt lat="42.76968" lon="1.34175">
        <ele>1474.2002</ele>
        <time>2025-09-13T19:10:17+02:00</time>
      </trkpt>
      <trkpt lat="42.76968" lon="1.34175">
        <ele>1474.2002</ele>
        <time>2025-09-13T19:10:18+02:00</time>
      </trkpt>
      <trkpt lat="42.76967" lon="1.34175">
        <ele>1474.2002</ele>
        <time>2025-09-13T19:10:23+02:00</time>
      </trkpt>
      <trkpt lat="42.76967" lon="1.34175">
        <ele>1474.2002</ele>
        <time>2025-09-13T19:10:24+02:00</time>
      </trkpt>
      <trkpt lat="42.76967" lon="1.34174">
        <ele>1474.2002</ele>
        <time>2025-09-13T19:10:28+02:00</time>
      </trkpt>
      <trkpt lat="42.76967" lon="1.34174">
        <ele>1474.2002</ele>
        <time>2025-09-13T19:10:29+02:00</time>
      </trkpt>
      <trkpt lat="42.76966" lon="1.34171">
        <ele>1474.2002</ele>
        <time>2025-09-13T19:10:33+02:00</time>
      </trkpt>
      <trkpt lat="42.76965" lon="1.3417">
        <ele>1471.7998</ele>
        <time>2025-09-13T19:10:34+02:00</time>
      </trkpt>
      <trkpt lat="42.76964" lon="1.34167">
        <ele>1471.7998</ele>
        <time>2025-09-13T19:10:38+02:00</time>
      </trkpt>
      <trkpt lat="42.76965" lon="1.34166">
        <ele>1471.7998</ele>
        <time>2025-09-13T19:10:39+02:00</time>
      </trkpt>
      <trkpt lat="42.76967" lon="1.34162">
        <ele>1470</ele>
        <time>2025-09-13T19:10:43+02:00</time>
      </trkpt>
      <trkpt lat="42.76969" lon="1.34162">
        <ele>1470</ele>
        <time>2025-09-13T19:10:44+02:00</time>
      </trkpt>
      <trkpt lat="42.76973" lon="1.34161">
        <ele>1469.7998</ele>
        <time>2025-09-13T19:10:48+02:00</time>
      </trkpt>
      <trkpt lat="42.76973" lon="1.3416">
        <ele>1469.7998</ele>
        <time>2025-09-13T19:10:49+02:00</time>
      </trkpt>
      <trkpt lat="42.76973" lon="1.34159">
        <ele>1469.7998</ele>
        <time>2025-09-13T19:10:53+02:00</time>
      </trkpt>
      <trkpt lat="42.76973" lon="1.3416">
        <ele>1469.7998</ele>
        <time>2025-09-13T19:10:54+02:00</time>
      </trkpt>
      <trkpt lat="42.76972" lon="1.3416">
        <ele>1469.7998</ele>
        <time>2025-09-13T19:10:58+02:00</time>
      </trkpt>
      <trkpt lat="42.76972" lon="1.3416">
        <ele>1469.7998</ele>
        <time>2025-09-13T19:10:59+02:00</time>
      </trkpt>
      <trkpt lat="42.76972" lon="1.3416">
        <ele>1469.7998</ele>
        <time>2025-09-13T19:11:03+02:00</time>
      </trkpt>
      <trkpt lat="42.76972" lon="1.3416">
        <ele>1469.7998</ele>
        <time>2025-09-13T19:11:04+02:00</time>
      </trkpt>
      <trkpt lat="42.76971" lon="1.34162">
        <ele>1471.9004</ele>
        <time>2025-09-13T19:11:08+02:00</time>
      </trkpt>
      <trkpt lat="42.76971" lon="1.34163">
        <ele>1471.9004</ele>
        <time>2025-09-13T19:11:09+02:00</time>
      </trkpt>
      <trkpt lat="42.76972" lon="1.34165">
        <ele>1471.9004</ele>
        <time>2025-09-13T19:11:13+02:00</time>
      </trkpt>
      <trkpt lat="42.76972" lon="1.34166">
        <ele>1471.9004</ele>
        <time>2025-09-13T19:11:14+02:00</time>
      </trkpt>
      <trkpt lat="42.76972" lon="1.34166">
        <ele>1471.9004</ele>
        <time>2025-09-13T19:11:18+02:00</time>
      </trkpt>
      <trkpt lat="42.76972" lon="1.34166">
        <ele>1471.9004</ele>
        <time>2025-09-13T19:11:19+02:00</time>
      </trkpt>
      <trkpt lat="42.76972" lon="1.34164">
        <ele>1471.9004</ele>
        <time>2025-09-13T19:11:23+02:00</time>
      </trkpt>
      <trkpt lat="42.76972" lon="1.34164">
        <ele>1471.9004</ele>
        <time>2025-09-13T19:11:24+02:00</time>
      </trkpt>
      <trkpt lat="42.76973" lon="1.34161">
        <ele>1469.7998</ele>
        <time>2025-09-13T19:11:28+02:00</time>
      </trkpt>
      <trkpt lat="42.76974" lon="1.3416">
        <ele>1469.7998</ele>
        <time>2025-09-13T19:11:29+02:00</time>
      </trkpt>
      <trkpt lat="42.76977" lon="1.34161">
        <ele>1469.5</ele>
        <time>2025-09-13T19:11:33+02:00</time>
      </trkpt>
      <trkpt lat="42.76978" lon="1.34162">
        <ele>1469.5</ele>
        <time>2025-09-13T19:11:34+02:00</time>
      </trkpt>
      <trkpt lat="42.76981" lon="1.34165">
        <ele>1471.7998</ele>
        <time>2025-09-13T19:11:38+02:00</time>
      </trkpt>
      <trkpt lat="42.76982" lon="1.34166">
        <ele>1471.7998</ele>
        <time>2025-09-13T19:11:39+02:00</time>
      </trkpt>
      <trkpt lat="42.76983" lon="1.34168">
        <ele>1471.5</ele>
        <time>2025-09-13T19:11:43+02:00</time>
      </trkpt>
      <trkpt lat="42.76984" lon="1.34167">
        <ele>1471.5</ele>
        <time>2025-09-13T19:11:44+02:00</time>
      </trkpt>
      <trkpt lat="42.76987" lon="1.34169">
        <ele>1471.5</ele>
        <time>2025-09-13T19:11:48+02:00</time>
      </trkpt>
      <trkpt lat="42.76988" lon="1.3417">
        <ele>1471.5</ele>
        <time>2025-09-13T19:11:49+02:00</time>
      </trkpt>
      <trkpt lat="42.7699" lon="1.34173">
        <ele>1474</ele>
        <time>2025-09-13T19:11:53+02:00</time>
      </trkpt>
      <trkpt lat="42.76991" lon="1.34173">
        <ele>1474</ele>
        <time>2025-09-13T19:11:54+02:00</time>
      </trkpt>
      <trkpt lat="42.76994" lon="1.34173">
        <ele>1474</ele>
        <time>2025-09-13T19:11:58+02:00</time>
      </trkpt>
      <trkpt lat="42.76994" lon="1.34173">
        <ele>1474</ele>
        <time>2025-09-13T19:11:59+02:00</time>
      </trkpt>
      <trkpt lat="42.76993" lon="1.34173">
        <ele>1474</ele>
        <time>2025-09-13T19:12:03+02:00</time>
      </trkpt>
      <trkpt lat="42.76993" lon="1.34172">
        <ele>1474</ele>
        <time>2025-09-13T19:12:04+02:00</time>
      </trkpt>
      <trkpt lat="42.76994" lon="1.34172">
        <ele>1474</ele>
        <time>2025-09-13T19:12:08+02:00</time>
      </trkpt>
      <trkpt lat="42.76994" lon="1.34172">
        <ele>1474</ele>
        <time>2025-09-13T19:12:09+02:00</time>
      </trkpt>
      <trkpt lat="42.76995" lon="1.34172">
        <ele>1473.7998</ele>
        <time>2025-09-13T19:12:13+02:00</time>
      </trkpt>
      <trkpt lat="42.76996" lon="1.34173">
        <ele>1473.7998</ele>
        <time>2025-09-13T19:12:14+02:00</time>
      </trkpt>
      <trkpt lat="42.76997" lon="1.34171">
        <ele>1473.7998</ele>
        <time>2025-09-13T19:12:18+02:00</time>
      </trkpt>
      <trkpt lat="42.76998" lon="1.34169">
        <ele>1470.7998</ele>
        <time>2025-09-13T19:12:20+02:00</time>
      </trkpt>
      <trkpt lat="42.76997" lon="1.34167">
        <ele>1470.7998</ele>
        <time>2025-09-13T19:12:24+02:00</time>
      </trkpt>
      <trkpt lat="42.76997" lon="1.34166">
        <ele>1470.7998</ele>
        <time>2025-09-13T19:12:25+02:00</time>
      </trkpt>
      <trkpt lat="42.76994" lon="1.34165">
        <ele>1471.1006</ele>
        <time>2025-09-13T19:12:29+02:00</time>
      </trkpt>
      <trkpt lat="42.76992" lon="1.34164">
        <ele>1471.1006</ele>
        <time>2025-09-13T19:12:30+02:00</time>
      </trkpt>
      <trkpt lat="42.76988" lon="1.34162">
        <ele>1471.5</ele>
        <time>2025-09-13T19:12:34+02:00</time>
      </trkpt>
      <trkpt lat="42.76987" lon="1.34161">
        <ele>1468.9004</ele>
        <time>2025-09-13T19:12:35+02:00</time>
      </trkpt>
      <trkpt lat="42.76986" lon="1.34159">
        <ele>1468.9004</ele>
        <time>2025-09-13T19:12:39+02:00</time>
      </trkpt>
      <trkpt lat="42.76986" lon="1.34158">
        <ele>1468.9004</ele>
        <time>2025-09-13T19:12:40+02:00</time>
      </trkpt>
      <trkpt lat="42.76989" lon="1.34157">
        <ele>1468.4004</ele>
        <time>2025-09-13T19:12:44+02:00</time>
      </trkpt>
      <trkpt lat="42.7699" lon="1.34157">
        <ele>1468.4004</ele>
        <time>2025-09-13T19:12:45+02:00</time>
      </trkpt>
      <trkpt lat="42.76992" lon="1.34159">
        <ele>1468.4004</ele>
        <time>2025-09-13T19:12:49+02:00</time>
      </trkpt>
      <trkpt lat="42.76992" lon="1.34159">
        <ele>1468.4004</ele>
        <time>2025-09-13T19:12:50+02:00</time>
      </trkpt>
      <trkpt lat="42.76994" lon="1.34158">
        <ele>1468.4004</ele>
        <time>2025-09-13T19:12:54+02:00</time>
      </trkpt>
      <trkpt lat="42.76995" lon="1.34158">
        <ele>1468.4004</ele>
        <time>2025-09-13T19:12:55+02:00</time>
      </trkpt>
      <trkpt lat="42.76998" lon="1.34158">
        <ele>1467.9004</ele>
        <time>2025-09-13T19:12:59+02:00</time>
      </trkpt>
      <trkpt lat="42.77" lon="1.34158">
        <ele>1467.9004</ele>
        <time>2025-09-13T19:13:00+02:00</time>
      </trkpt>
      <trkpt lat="42.77004" lon="1.34158">
        <ele>1467.5</ele>
        <time>2025-09-13T19:13:04+02:00</time>
      </trkpt>
      <trkpt lat="42.77004" lon="1.34157">
        <ele>1467.5</ele>
        <time>2025-09-13T19:13:05+02:00</time>
      </trkpt>
      <trkpt lat="42.77007" lon="1.34157">
        <ele>1467.5</ele>
        <time>2025-09-13T19:13:09+02:00</time>
      </trkpt>
      <trkpt lat="42.77007" lon="1.34157">
        <ele>1467.5</ele>
        <time>2025-09-13T19:13:10+02:00</time>
      </trkpt>
      <trkpt lat="42.7701" lon="1.34158">
        <ele>1467.1006</ele>
        <time>2025-09-13T19:13:14+02:00</time>
      </trkpt>
      <trkpt lat="42.7701" lon="1.34157">
        <ele>1467.1006</ele>
        <time>2025-09-13T19:13:15+02:00</time>
      </trkpt>
      <trkpt lat="42.77014" lon="1.34156">
        <ele>1467.1006</ele>
        <time>2025-09-13T19:13:19+02:00</time>
      </trkpt>
      <trkpt lat="42.77014" lon="1.34156">
        <ele>1466.7998</ele>
        <time>2025-09-13T19:13:20+02:00</time>
      </trkpt>
      <trkpt lat="42.77017" lon="1.34156">
        <ele>1466.7998</ele>
        <time>2025-09-13T19:13:24+02:00</time>
      </trkpt>
      <trkpt lat="42.77018" lon="1.34156">
        <ele>1466.7998</ele>
        <time>2025-09-13T19:13:25+02:00</time>
      </trkpt>
      <trkpt lat="42.7702" lon="1.34155">
        <ele>1466.7998</ele>
        <time>2025-09-13T19:13:29+02:00</time>
      </trkpt>
      <trkpt lat="42.77021" lon="1.34155">
        <ele>1466.5</ele>
        <time>2025-09-13T19:13:30+02:00</time>
      </trkpt>
      <trkpt lat="42.77021" lon="1.34155">
        <ele>1466.5</ele>
        <time>2025-09-13T19:13:34+02:00</time>
      </trkpt>
      <trkpt lat="42.77021" lon="1.34155">
        <ele>1466.5</ele>
        <time>2025-09-13T19:13:35+02:00</time>
      </trkpt>
      <trkpt lat="42.77021" lon="1.34155">
        <ele>1466.5</ele>
        <time>2025-09-13T19:13:39+02:00</time>
      </trkpt>
      <trkpt lat="42.77021" lon="1.34155">
        <ele>1466.5</ele>
        <time>2025-09-13T19:13:40+02:00</time>
      </trkpt>
      <trkpt lat="42.77021" lon="1.34153">
        <ele>1463</ele>
        <time>2025-09-13T19:13:44+02:00</time>
      </trkpt>
      <trkpt lat="42.77021" lon="1.34153">
        <ele>1463</ele>
        <time>2025-09-13T19:13:45+02:00</time>
      </trkpt>
      <trkpt lat="42.77019" lon="1.3415">
        <ele>1463.4004</ele>
        <time>2025-09-13T19:13:49+02:00</time>
      </trkpt>
      <trkpt lat="42.77018" lon="1.34149">
        <ele>1463.4004</ele>
        <time>2025-09-13T19:13:50+02:00</time>
      </trkpt>
      <trkpt lat="42.77015" lon="1.34147">
        <ele>1463.4004</ele>
        <time>2025-09-13T19:13:54+02:00</time>
      </trkpt>
      <trkpt lat="42.77014" lon="1.34147">
        <ele>1463.9004</ele>
        <time>2025-09-13T19:13:55+02:00</time>
      </trkpt>
      <trkpt lat="42.77009" lon="1.34145">
        <ele>1463.9004</ele>
        <time>2025-09-13T19:14:00+02:00</time>
      </trkpt>
      <trkpt lat="42.77007" lon="1.34144">
        <ele>1461.5</ele>
        <time>2025-09-13T19:14:01+02:00</time>
      </trkpt>
      <trkpt lat="42.77004" lon="1.34141">
        <ele>1461.5</ele>
        <time>2025-09-13T19:14:05+02:00</time>
      </trkpt>
      <trkpt lat="42.77004" lon="1.34141">
        <ele>1461.5</ele>
        <time>2025-09-13T19:14:06+02:00</time>
      </trkpt>
      <trkpt lat="42.77004" lon="1.34141">
        <ele>1461.5</ele>
        <time>2025-09-13T19:14:10+02:00</time>
      </trkpt>
      <trkpt lat="42.77005" lon="1.34141">
        <ele>1461.5</ele>
        <time>2025-09-13T19:14:11+02:00</time>
      </trkpt>
      <trkpt lat="42.77005" lon="1.34141">
        <ele>1461.5</ele>
        <time>2025-09-13T19:14:15+02:00</time>
      </trkpt>
      <trkpt lat="42.77005" lon="1.34141">
        <ele>1461.5</ele>
        <time>2025-09-13T19:14:16+02:00</time>
      </trkpt>
      <trkpt lat="42.77004" lon="1.34141">
        <ele>1461.5</ele>
        <time>2025-09-13T19:14:20+02:00</time>
      </trkpt>
      <trkpt lat="42.77004" lon="1.34141">
        <ele>1461.5</ele>
        <time>2025-09-13T19:14:21+02:00</time>
      </trkpt>
      <trkpt lat="42.77003" lon="1.3414">
        <ele>1461.5</ele>
        <time>2025-09-13T19:14:25+02:00</time>
      </trkpt>
      <trkpt lat="42.77003" lon="1.34139">
        <ele>1461.5</ele>
        <time>2025-09-13T19:14:26+02:00</time>
      </trkpt>
      <trkpt lat="42.77001" lon="1.34137">
        <ele>1462.4004</ele>
        <time>2025-09-13T19:14:30+02:00</time>
      </trkpt>
      <trkpt lat="42.77" lon="1.34136">
        <ele>1462.4004</ele>
        <time>2025-09-13T19:14:31+02:00</time>
      </trkpt>
      <trkpt lat="42.76999" lon="1.34133">
        <ele>1459.7998</ele>
        <time>2025-09-13T19:14:35+02:00</time>
      </trkpt>
      <trkpt lat="42.76998" lon="1.34132">
        <ele>1459.7998</ele>
        <time>2025-09-13T19:14:36+02:00</time>
      </trkpt>
      <trkpt lat="42.76998" lon="1.34126">
        <ele>1457.6006</ele>
        <time>2025-09-13T19:14:40+02:00</time>
      </trkpt>
      <trkpt lat="42.76998" lon="1.34125">
        <ele>1457.6006</ele>
        <time>2025-09-13T19:14:41+02:00</time>
      </trkpt>
      <trkpt lat="42.77002" lon="1.34124">
        <ele>1456.1006</ele>
        <time>2025-09-13T19:14:45+02:00</time>
      </trkpt>
      <trkpt lat="42.77003" lon="1.34125">
        <ele>1456.1006</ele>
        <time>2025-09-13T19:14:46+02:00</time>
      </trkpt>
      <trkpt lat="42.77007" lon="1.34126">
        <ele>1456.1006</ele>
        <time>2025-09-13T19:14:50+02:00</time>
      </trkpt>
      <trkpt lat="42.77008" lon="1.34126">
        <ele>1454.6006</ele>
        <time>2025-09-13T19:14:51+02:00</time>
      </trkpt>
      <trkpt lat="42.7701" lon="1.34124">
        <ele>1454.6006</ele>
        <time>2025-09-13T19:14:55+02:00</time>
      </trkpt>
      <trkpt lat="42.77011" lon="1.34124">
        <ele>1454.6006</ele>
        <time>2025-09-13T19:14:56+02:00</time>
      </trkpt>
      <trkpt lat="42.77015" lon="1.34125">
        <ele>1453.4004</ele>
        <time>2025-09-13T19:15:00+02:00</time>
      </trkpt>
      <trkpt lat="42.77015" lon="1.34126">
        <ele>1453.4004</ele>
        <time>2025-09-13T19:15:01+02:00</time>
      </trkpt>
      <trkpt lat="42.77017" lon="1.34127">
        <ele>1453.4004</ele>
        <time>2025-09-13T19:15:05+02:00</time>
      </trkpt>
      <trkpt lat="42.77018" lon="1.34127">
        <ele>1453.4004</ele>
        <time>2025-09-13T19:15:06+02:00</time>
      </trkpt>
      <trkpt lat="42.77018" lon="1.34128">
        <ele>1456.5</ele>
        <time>2025-09-13T19:15:10+02:00</time>
      </trkpt>
      <trkpt lat="42.77018" lon="1.34128">
        <ele>1456.5</ele>
        <time>2025-09-13T19:15:11+02:00</time>
      </trkpt>
      <trkpt lat="42.77018" lon="1.34128">
        <ele>1456.5</ele>
        <time>2025-09-13T19:15:15+02:00</time>
      </trkpt>
      <trkpt lat="42.77018" lon="1.34128">
        <ele>1456.5</ele>
        <time>2025-09-13T19:15:16+02:00</time>
      </trkpt>
      <trkpt lat="42.77018" lon="1.34129">
        <ele>1456.5</ele>
        <time>2025-09-13T19:15:20+02:00</time>
      </trkpt>
      <trkpt lat="42.77018" lon="1.34129">
        <ele>1456.5</ele>
        <time>2025-09-13T19:15:21+02:00</time>
      </trkpt>
      <trkpt lat="42.77018" lon="1.34129">
        <ele>1456.5</ele>
        <time>2025-09-13T19:15:25+02:00</time>
      </trkpt>
      <trkpt lat="42.77018" lon="1.34129">
        <ele>1456.5</ele>
        <time>2025-09-13T19:15:26+02:00</time>
      </trkpt>
      <trkpt lat="42.7702" lon="1.34129">
        <ele>1455.7002</ele>
        <time>2025-09-13T19:15:31+02:00</time>
      </trkpt>
      <trkpt lat="42.77022" lon="1.34129">
        <ele>1455.7002</ele>
        <time>2025-09-13T19:15:32+02:00</time>
      </trkpt>
      <trkpt lat="42.77026" lon="1.34127">
        <ele>1452.2998</ele>
        <time>2025-09-13T19:15:36+02:00</time>
      </trkpt>
      <trkpt lat="42.77027" lon="1.34127">
        <ele>1451.4004</ele>
        <time>2025-09-13T19:15:37+02:00</time>
      </trkpt>
      <trkpt lat="42.7703" lon="1.34126">
        <ele>1451.4004</ele>
        <time>2025-09-13T19:15:41+02:00</time>
      </trkpt>
      <trkpt lat="42.77031" lon="1.34125">
        <ele>1451.4004</ele>
        <time>2025-09-13T19:15:42+02:00</time>
      </trkpt>
      <trkpt lat="42.77034" lon="1.34123">
        <ele>1450.7002</ele>
        <time>2025-09-13T19:15:46+02:00</time>
      </trkpt>
      <trkpt lat="42.77034" lon="1.34122">
        <ele>1450.7002</ele>
        <time>2025-09-13T19:15:47+02:00</time>
      </trkpt>
      <trkpt lat="42.77036" lon="1.34121">
        <ele>1450.7002</ele>
        <time>2025-09-13T19:15:51+02:00</time>
      </trkpt>
      <trkpt lat="42.77037" lon="1.3412">
        <ele>1450.7002</ele>
        <time>2025-09-13T19:15:52+02:00</time>
      </trkpt>
      <trkpt lat="42.77039" lon="1.34118">
        <ele>1447</ele>
        <time>2025-09-13T19:15:56+02:00</time>
      </trkpt>
      <trkpt lat="42.7704" lon="1.34118">
        <ele>1446.4004</ele>
        <time>2025-09-13T19:15:57+02:00</time>
      </trkpt>
      <trkpt lat="42.77042" lon="1.34116">
        <ele>1446.4004</ele>
        <time>2025-09-13T19:16:01+02:00</time>
      </trkpt>
      <trkpt lat="42.77042" lon="1.34116">
        <ele>1446.4004</ele>
        <time>2025-09-13T19:16:02+02:00</time>
      </trkpt>
      <trkpt lat="42.77045" lon="1.34114">
        <ele>1446.4004</ele>
        <time>2025-09-13T19:16:06+02:00</time>
      </trkpt>
      <trkpt lat="42.77045" lon="1.34114">
        <ele>1446.4004</ele>
        <time>2025-09-13T19:16:07+02:00</time>
      </trkpt>
      <trkpt lat="42.77048" lon="1.34113">
        <ele>1445.7998</ele>
        <time>2025-09-13T19:16:11+02:00</time>
      </trkpt>
      <trkpt lat="42.77049" lon="1.34112">
        <ele>1445.7998</ele>
        <time>2025-09-13T19:16:12+02:00</time>
      </trkpt>
      <trkpt lat="42.77051" lon="1.3411">
        <ele>1442</ele>
        <time>2025-09-13T19:16:16+02:00</time>
      </trkpt>
      <trkpt lat="42.77051" lon="1.34109">
        <ele>1442</ele>
        <time>2025-09-13T19:16:17+02:00</time>
      </trkpt>
      <trkpt lat="42.77054" lon="1.34108">
        <ele>1441.5</ele>
        <time>2025-09-13T19:16:21+02:00</time>
      </trkpt>
      <trkpt lat="42.77055" lon="1.34108">
        <ele>1441.5</ele>
        <time>2025-09-13T19:16:22+02:00</time>
      </trkpt>
      <trkpt lat="42.77057" lon="1.34107">
        <ele>1441.5</ele>
        <time>2025-09-13T19:16:26+02:00</time>
      </trkpt>
      <trkpt lat="42.77058" lon="1.34107">
        <ele>1441.1006</ele>
        <time>2025-09-13T19:16:27+02:00</time>
      </trkpt>
      <trkpt lat="42.7706" lon="1.34104">
        <ele>1441.1006</ele>
        <time>2025-09-13T19:16:31+02:00</time>
      </trkpt>
      <trkpt lat="42.77061" lon="1.34104">
        <ele>1441.1006</ele>
        <time>2025-09-13T19:16:32+02:00</time>
      </trkpt>
      <trkpt lat="42.77064" lon="1.34101">
        <ele>1437.2002</ele>
        <time>2025-09-13T19:16:36+02:00</time>
      </trkpt>
      <trkpt lat="42.77064" lon="1.34101">
        <ele>1437.2002</ele>
        <time>2025-09-13T19:16:37+02:00</time>
      </trkpt>
      <trkpt lat="42.77066" lon="1.34099">
        <ele>1436.9004</ele>
        <time>2025-09-13T19:16:41+02:00</time>
      </trkpt>
      <trkpt lat="42.77066" lon="1.34099">
        <ele>1436.9004</ele>
        <time>2025-09-13T19:16:42+02:00</time>
      </trkpt>
      <trkpt lat="42.77067" lon="1.34097">
        <ele>1436.9004</ele>
        <time>2025-09-13T19:16:46+02:00</time>
      </trkpt>
      <trkpt lat="42.77067" lon="1.34096">
        <ele>1436.9004</ele>
        <time>2025-09-13T19:16:47+02:00</time>
      </trkpt>
      <trkpt lat="42.77069" lon="1.34094">
        <ele>1436.9004</ele>
        <time>2025-09-13T19:16:51+02:00</time>
      </trkpt>
      <trkpt lat="42.77069" lon="1.34093">
        <ele>1433.1006</ele>
        <time>2025-09-13T19:16:52+02:00</time>
      </trkpt>
      <trkpt lat="42.7707" lon="1.34089">
        <ele>1433.1006</ele>
        <time>2025-09-13T19:16:56+02:00</time>
      </trkpt>
      <trkpt lat="42.77071" lon="1.34088">
        <ele>1432.7998</ele>
        <time>2025-09-13T19:16:57+02:00</time>
      </trkpt>
      <trkpt lat="42.77073" lon="1.34086">
        <ele>1432.7998</ele>
        <time>2025-09-13T19:17:01+02:00</time>
      </trkpt>
      <trkpt lat="42.77074" lon="1.34085">
        <ele>1432.7998</ele>
        <time>2025-09-13T19:17:02+02:00</time>
      </trkpt>
      <trkpt lat="42.77075" lon="1.34083">
        <ele>1429.1006</ele>
        <time>2025-09-13T19:17:06+02:00</time>
      </trkpt>
      <trkpt lat="42.77076" lon="1.34082">
        <ele>1429.1006</ele>
        <time>2025-09-13T19:17:07+02:00</time>
      </trkpt>
      <trkpt lat="42.77078" lon="1.3408">
        <ele>1428.9004</ele>
        <time>2025-09-13T19:17:11+02:00</time>
      </trkpt>
      <trkpt lat="42.77079" lon="1.34079">
        <ele>1428.9004</ele>
        <time>2025-09-13T19:17:12+02:00</time>
      </trkpt>
      <trkpt lat="42.7708" lon="1.34077">
        <ele>1428.9004</ele>
        <time>2025-09-13T19:17:16+02:00</time>
      </trkpt>
      <trkpt lat="42.7708" lon="1.34076">
        <ele>1425.2002</ele>
        <time>2025-09-13T19:17:17+02:00</time>
      </trkpt>
      <trkpt lat="42.77081" lon="1.34075">
        <ele>1425.2002</ele>
        <time>2025-09-13T19:17:21+02:00</time>
      </trkpt>
      <trkpt lat="42.77081" lon="1.34075">
        <ele>1425.2002</ele>
        <time>2025-09-13T19:17:22+02:00</time>
      </trkpt>
      <trkpt lat="42.7708" lon="1.34078">
        <ele>1428.9004</ele>
        <time>2025-09-13T19:17:26+02:00</time>
      </trkpt>
      <trkpt lat="42.7708" lon="1.34078">
        <ele>1428.9004</ele>
        <time>2025-09-13T19:17:27+02:00</time>
      </trkpt>
      <trkpt lat="42.77079" lon="1.34079">
        <ele>1428.9004</ele>
        <time>2025-09-13T19:17:31+02:00</time>
      </trkpt>
      <trkpt lat="42.77079" lon="1.34079">
        <ele>1428.9004</ele>
        <time>2025-09-13T19:17:32+02:00</time>
      </trkpt>
      <trkpt lat="42.77079" lon="1.3408">
        <ele>1428.9004</ele>
        <time>2025-09-13T19:17:36+02:00</time>
      </trkpt>
      <trkpt lat="42.77078" lon="1.3408">
        <ele>1428.9004</ele>
        <time>2025-09-13T19:17:37+02:00</time>
      </trkpt>
      <trkpt lat="42.77077" lon="1.3408">
        <ele>1428.9004</ele>
        <time>2025-09-13T19:17:41+02:00</time>
      </trkpt>
      <trkpt lat="42.77077" lon="1.3408">
        <ele>1428.9004</ele>
        <time>2025-09-13T19:17:42+02:00</time>
      </trkpt>
      <trkpt lat="42.77077" lon="1.3408">
        <ele>1428.9004</ele>
        <time>2025-09-13T19:17:46+02:00</time>
      </trkpt>
      <trkpt lat="42.77077" lon="1.3408">
        <ele>1428.9004</ele>
        <time>2025-09-13T19:17:47+02:00</time>
      </trkpt>
      <trkpt lat="42.77077" lon="1.3408">
        <ele>1428.9004</ele>
        <time>2025-09-13T19:17:51+02:00</time>
      </trkpt>
      <trkpt lat="42.77077" lon="1.3408">
        <ele>1428.9004</ele>
        <time>2025-09-13T19:17:52+02:00</time>
      </trkpt>
      <trkpt lat="42.77079" lon="1.34077">
        <ele>1428.9004</ele>
        <time>2025-09-13T19:17:56+02:00</time>
      </trkpt>
      <trkpt lat="42.77079" lon="1.34077">
        <ele>1428.9004</ele>
        <time>2025-09-13T19:17:57+02:00</time>
      </trkpt>
      <trkpt lat="42.77081" lon="1.34077">
        <ele>1428.9004</ele>
        <time>2025-09-13T19:18:01+02:00</time>
      </trkpt>
      <trkpt lat="42.77082" lon="1.34077">
        <ele>1428.9004</ele>
        <time>2025-09-13T19:18:02+02:00</time>
      </trkpt>
      <trkpt lat="42.77085" lon="1.34075">
        <ele>1425.2002</ele>
        <time>2025-09-13T19:18:06+02:00</time>
      </trkpt>
      <trkpt lat="42.77086" lon="1.34074">
        <ele>1425.2002</ele>
        <time>2025-09-13T19:18:07+02:00</time>
      </trkpt>
      <trkpt lat="42.77088" lon="1.34071">
        <ele>1425.2002</ele>
        <time>2025-09-13T19:18:11+02:00</time>
      </trkpt>
      <trkpt lat="42.77089" lon="1.3407">
        <ele>1425.2002</ele>
        <time>2025-09-13T19:18:12+02:00</time>
      </trkpt>
      <trkpt lat="42.77091" lon="1.34066">
        <ele>1422.2998</ele>
        <time>2025-09-13T19:18:16+02:00</time>
      </trkpt>
      <trkpt lat="42.77091" lon="1.34065">
        <ele>1422.2998</ele>
        <time>2025-09-13T19:18:17+02:00</time>
      </trkpt>
      <trkpt lat="42.77094" lon="1.34064">
        <ele>1422.2998</ele>
        <time>2025-09-13T19:18:21+02:00</time>
      </trkpt>
      <trkpt lat="42.77095" lon="1.34063">
        <ele>1422.2998</ele>
        <time>2025-09-13T19:18:22+02:00</time>
      </trkpt>
      <trkpt lat="42.77095" lon="1.3406">
        <ele>1422.2998</ele>
        <time>2025-09-13T19:18:26+02:00</time>
      </trkpt>
      <trkpt lat="42.77096" lon="1.34059">
        <ele>1422.2998</ele>
        <time>2025-09-13T19:18:27+02:00</time>
      </trkpt>
      <trkpt lat="42.77098" lon="1.34058">
        <ele>1420.2002</ele>
        <time>2025-09-13T19:18:31+02:00</time>
      </trkpt>
      <trkpt lat="42.77098" lon="1.34057">
        <ele>1420.2002</ele>
        <time>2025-09-13T19:18:32+02:00</time>
      </trkpt>
      <trkpt lat="42.771" lon="1.34056">
        <ele>1420.2002</ele>
        <time>2025-09-13T19:18:36+02:00</time>
      </trkpt>
      <trkpt lat="42.77101" lon="1.34055">
        <ele>1420.2002</ele>
        <time>2025-09-13T19:18:37+02:00</time>
      </trkpt>
      <trkpt lat="42.77102" lon="1.34056">
        <ele>1420.2002</ele>
        <time>2025-09-13T19:18:41+02:00</time>
      </trkpt>
      <trkpt lat="42.77102" lon="1.34056">
        <ele>1420.2002</ele>
        <time>2025-09-13T19:18:42+02:00</time>
      </trkpt>
      <trkpt lat="42.77105" lon="1.34054">
        <ele>1420.7002</ele>
        <time>2025-09-13T19:18:46+02:00</time>
      </trkpt>
      <trkpt lat="42.77105" lon="1.34053">
        <ele>1420.7002</ele>
        <time>2025-09-13T19:18:47+02:00</time>
      </trkpt>
      <trkpt lat="42.77107" lon="1.3405">
        <ele>1420.7002</ele>
        <time>2025-09-13T19:18:51+02:00</time>
      </trkpt>
      <trkpt lat="42.77107" lon="1.3405">
        <ele>1418.4004</ele>
        <time>2025-09-13T19:18:52+02:00</time>
      </trkpt>
      <trkpt lat="42.77108" lon="1.34046">
        <ele>1418.4004</ele>
        <time>2025-09-13T19:18:56+02:00</time>
      </trkpt>
      <trkpt lat="42.77109" lon="1.34046">
        <ele>1418.4004</ele>
        <time>2025-09-13T19:18:57+02:00</time>
      </trkpt>
      <trkpt lat="42.77112" lon="1.34043">
        <ele>1418.4004</ele>
        <time>2025-09-13T19:19:01+02:00</time>
      </trkpt>
      <trkpt lat="42.77112" lon="1.34042">
        <ele>1418.4004</ele>
        <time>2025-09-13T19:19:02+02:00</time>
      </trkpt>
      <trkpt lat="42.77115" lon="1.34043">
        <ele>1418.4004</ele>
        <time>2025-09-13T19:19:06+02:00</time>
      </trkpt>
      <trkpt lat="42.77116" lon="1.34043">
        <ele>1418.4004</ele>
        <time>2025-09-13T19:19:07+02:00</time>
      </trkpt>
      <trkpt lat="42.77118" lon="1.3404">
        <ele>1415.9004</ele>
        <time>2025-09-13T19:19:11+02:00</time>
      </trkpt>
      <trkpt lat="42.77118" lon="1.34039">
        <ele>1415.9004</ele>
        <time>2025-09-13T19:19:12+02:00</time>
      </trkpt>
      <trkpt lat="42.77121" lon="1.34037">
        <ele>1415.9004</ele>
        <time>2025-09-13T19:19:16+02:00</time>
      </trkpt>
      <trkpt lat="42.77122" lon="1.34037">
        <ele>1415.7998</ele>
        <time>2025-09-13T19:19:17+02:00</time>
      </trkpt>
      <trkpt lat="42.77124" lon="1.34035">
        <ele>1415.7998</ele>
        <time>2025-09-13T19:19:21+02:00</time>
      </trkpt>
      <trkpt lat="42.77125" lon="1.34034">
        <ele>1415.7998</ele>
        <time>2025-09-13T19:19:22+02:00</time>
      </trkpt>
      <trkpt lat="42.77128" lon="1.34034">
        <ele>1416</ele>
        <time>2025-09-13T19:19:26+02:00</time>
      </trkpt>
      <trkpt lat="42.77129" lon="1.34034">
        <ele>1416</ele>
        <time>2025-09-13T19:19:27+02:00</time>
      </trkpt>
      <trkpt lat="42.77132" lon="1.34032">
        <ele>1413.7998</ele>
        <time>2025-09-13T19:19:31+02:00</time>
      </trkpt>
      <trkpt lat="42.77132" lon="1.34031">
        <ele>1413.7998</ele>
        <time>2025-09-13T19:19:32+02:00</time>
      </trkpt>
      <trkpt lat="42.77134" lon="1.34028">
        <ele>1414</ele>
        <time>2025-09-13T19:19:36+02:00</time>
      </trkpt>
      <trkpt lat="42.77135" lon="1.34027">
        <ele>1414</ele>
        <time>2025-09-13T19:19:37+02:00</time>
      </trkpt>
      <trkpt lat="42.77138" lon="1.34025">
        <ele>1412.4004</ele>
        <time>2025-09-13T19:19:41+02:00</time>
      </trkpt>
      <trkpt lat="42.77139" lon="1.34024">
        <ele>1412.4004</ele>
        <time>2025-09-13T19:19:42+02:00</time>
      </trkpt>
      <trkpt lat="42.77142" lon="1.34023">
        <ele>1412.5</ele>
        <time>2025-09-13T19:19:46+02:00</time>
      </trkpt>
      <trkpt lat="42.77142" lon="1.34023">
        <ele>1412.5</ele>
        <time>2025-09-13T19:19:47+02:00</time>
      </trkpt>
      <trkpt lat="42.77144" lon="1.34023">
        <ele>1412.5</ele>
        <time>2025-09-13T19:19:51+02:00</time>
      </trkpt>
      <trkpt lat="42.77145" lon="1.34022">
        <ele>1412.5</ele>
        <time>2025-09-13T19:19:52+02:00</time>
      </trkpt>
      <trkpt lat="42.77147" lon="1.3402">
        <ele>1412.6006</ele>
        <time>2025-09-13T19:19:56+02:00</time>
      </trkpt>
      <trkpt lat="42.77147" lon="1.3402">
        <ele>1412.6006</ele>
        <time>2025-09-13T19:19:57+02:00</time>
      </trkpt>
      <trkpt lat="42.77151" lon="1.34019">
        <ele>1412.6006</ele>
        <time>2025-09-13T19:20:01+02:00</time>
      </trkpt>
      <trkpt lat="42.77152" lon="1.34019">
        <ele>1412.6006</ele>
        <time>2025-09-13T19:20:02+02:00</time>
      </trkpt>
      <trkpt lat="42.77154" lon="1.34017">
        <ele>1412.6006</ele>
        <time>2025-09-13T19:20:06+02:00</time>
      </trkpt>
      <trkpt lat="42.77155" lon="1.34017">
        <ele>1412.6006</ele>
        <time>2025-09-13T19:20:07+02:00</time>
      </trkpt>
      <trkpt lat="42.77158" lon="1.34015">
        <ele>1410.9004</ele>
        <time>2025-09-13T19:20:11+02:00</time>
      </trkpt>
      <trkpt lat="42.77158" lon="1.34015">
        <ele>1410.9004</ele>
        <time>2025-09-13T19:20:12+02:00</time>
      </trkpt>
      <trkpt lat="42.7716" lon="1.34012">
        <ele>1410.7998</ele>
        <time>2025-09-13T19:20:16+02:00</time>
      </trkpt>
      <trkpt lat="42.77161" lon="1.34012">
        <ele>1410.7998</ele>
        <time>2025-09-13T19:20:17+02:00</time>
      </trkpt>
      <trkpt lat="42.77164" lon="1.34009">
        <ele>1410.7998</ele>
        <time>2025-09-13T19:20:21+02:00</time>
      </trkpt>
      <trkpt lat="42.77164" lon="1.34008">
        <ele>1410.7998</ele>
        <time>2025-09-13T19:20:22+02:00</time>
      </trkpt>
      <trkpt lat="42.77168" lon="1.34007">
        <ele>1408.9004</ele>
        <time>2025-09-13T19:20:26+02:00</time>
      </trkpt>
      <trkpt lat="42.77168" lon="1.34006">
        <ele>1408.9004</ele>
        <time>2025-09-13T19:20:27+02:00</time>
      </trkpt>
      <trkpt lat="42.77171" lon="1.34007">
        <ele>1408.9004</ele>
        <time>2025-09-13T19:20:31+02:00</time>
      </trkpt>
      <trkpt lat="42.77171" lon="1.34007">
        <ele>1408.9004</ele>
        <time>2025-09-13T19:20:32+02:00</time>
      </trkpt>
      <trkpt lat="42.77174" lon="1.34009">
        <ele>1410.5</ele>
        <time>2025-09-13T19:20:36+02:00</time>
      </trkpt>
      <trkpt lat="42.77175" lon="1.34009">
        <ele>1410.5</ele>
        <time>2025-09-13T19:20:37+02:00</time>
      </trkpt>
      <trkpt lat="42.77176" lon="1.34008">
        <ele>1410.5</ele>
        <time>2025-09-13T19:20:41+02:00</time>
      </trkpt>
      <trkpt lat="42.77176" lon="1.34007">
        <ele>1408.6006</ele>
        <time>2025-09-13T19:20:42+02:00</time>
      </trkpt>
      <trkpt lat="42.77176" lon="1.34004">
        <ele>1408.6006</ele>
        <time>2025-09-13T19:20:47+02:00</time>
      </trkpt>
      <trkpt lat="42.77176" lon="1.34004">
        <ele>1408.6006</ele>
        <time>2025-09-13T19:20:48+02:00</time>
      </trkpt>
      <trkpt lat="42.77176" lon="1.34003">
        <ele>1408.6006</ele>
        <time>2025-09-13T19:20:52+02:00</time>
      </trkpt>
      <trkpt lat="42.77176" lon="1.34003">
        <ele>1408.6006</ele>
        <time>2025-09-13T19:20:53+02:00</time>
      </trkpt>
      <trkpt lat="42.77175" lon="1.34002">
        <ele>1408.6006</ele>
        <time>2025-09-13T19:20:57+02:00</time>
      </trkpt>
      <trkpt lat="42.77175" lon="1.34002">
        <ele>1408.6006</ele>
        <time>2025-09-13T19:20:58+02:00</time>
      </trkpt>
      <trkpt lat="42.77175" lon="1.33999">
        <ele>1408.6006</ele>
        <time>2025-09-13T19:21:02+02:00</time>
      </trkpt>
      <trkpt lat="42.77175" lon="1.33998">
        <ele>1406.9004</ele>
        <time>2025-09-13T19:21:03+02:00</time>
      </trkpt>
      <trkpt lat="42.77175" lon="1.33994">
        <ele>1406.9004</ele>
        <time>2025-09-13T19:21:07+02:00</time>
      </trkpt>
      <trkpt lat="42.77175" lon="1.33993">
        <ele>1406.9004</ele>
        <time>2025-09-13T19:21:08+02:00</time>
      </trkpt>
      <trkpt lat="42.77179" lon="1.33991">
        <ele>1406.1006</ele>
        <time>2025-09-13T19:21:12+02:00</time>
      </trkpt>
      <trkpt lat="42.77179" lon="1.33991">
        <ele>1406.1006</ele>
        <time>2025-09-13T19:21:13+02:00</time>
      </trkpt>
      <trkpt lat="42.77179" lon="1.33986">
        <ele>1404.2002</ele>
        <time>2025-09-13T19:21:17+02:00</time>
      </trkpt>
      <trkpt lat="42.77179" lon="1.33985">
        <ele>1404.2002</ele>
        <time>2025-09-13T19:21:18+02:00</time>
      </trkpt>
      <trkpt lat="42.77182" lon="1.33982">
        <ele>1404.2002</ele>
        <time>2025-09-13T19:21:22+02:00</time>
      </trkpt>
      <trkpt lat="42.77182" lon="1.33981">
        <ele>1402.7998</ele>
        <time>2025-09-13T19:21:23+02:00</time>
      </trkpt>
      <trkpt lat="42.77182" lon="1.33979">
        <ele>1402.7998</ele>
        <time>2025-09-13T19:21:27+02:00</time>
      </trkpt>
      <trkpt lat="42.77182" lon="1.33979">
        <ele>1402.7998</ele>
        <time>2025-09-13T19:21:28+02:00</time>
      </trkpt>
      <trkpt lat="42.77182" lon="1.33981">
        <ele>1402.7998</ele>
        <time>2025-09-13T19:21:32+02:00</time>
      </trkpt>
      <trkpt lat="42.77182" lon="1.33981">
        <ele>1402.7998</ele>
        <time>2025-09-13T19:21:33+02:00</time>
      </trkpt>
      <trkpt lat="42.77184" lon="1.33978">
        <ele>1402.7998</ele>
        <time>2025-09-13T19:21:37+02:00</time>
      </trkpt>
      <trkpt lat="42.77184" lon="1.33977">
        <ele>1402.7998</ele>
        <time>2025-09-13T19:21:38+02:00</time>
      </trkpt>
      <trkpt lat="42.77185" lon="1.33974">
        <ele>1401.2002</ele>
        <time>2025-09-13T19:21:42+02:00</time>
      </trkpt>
      <trkpt lat="42.77184" lon="1.33975">
        <ele>1401.2002</ele>
        <time>2025-09-13T19:21:43+02:00</time>
      </trkpt>
      <trkpt lat="42.77184" lon="1.33977">
        <ele>1402.7998</ele>
        <time>2025-09-13T19:21:47+02:00</time>
      </trkpt>
      <trkpt lat="42.77184" lon="1.33977">
        <ele>1402.7998</ele>
        <time>2025-09-13T19:21:48+02:00</time>
      </trkpt>
      <trkpt lat="42.77184" lon="1.33977">
        <ele>1402.7998</ele>
        <time>2025-09-13T19:21:52+02:00</time>
      </trkpt>
      <trkpt lat="42.77184" lon="1.33977">
        <ele>1402.7998</ele>
        <time>2025-09-13T19:21:53+02:00</time>
      </trkpt>
      <trkpt lat="42.77184" lon="1.33977">
        <ele>1402.7998</ele>
        <time>2025-09-13T19:21:57+02:00</time>
      </trkpt>
      <trkpt lat="42.77184" lon="1.33977">
        <ele>1402.7998</ele>
        <time>2025-09-13T19:21:58+02:00</time>
      </trkpt>
      <trkpt lat="42.77184" lon="1.33977">
        <ele>1402.7998</ele>
        <time>2025-09-13T19:22:02+02:00</time>
      </trkpt>
      <trkpt lat="42.77183" lon="1.33977">
        <ele>1402.7998</ele>
        <time>2025-09-13T19:22:03+02:00</time>
      </trkpt>
      <trkpt lat="42.77182" lon="1.33977">
        <ele>1402.7998</ele>
        <time>2025-09-13T19:22:07+02:00</time>
      </trkpt>
      <trkpt lat="42.77182" lon="1.33976">
        <ele>1402.7998</ele>
        <time>2025-09-13T19:22:08+02:00</time>
      </trkpt>
      <trkpt lat="42.77182" lon="1.33976">
        <ele>1402.7998</ele>
        <time>2025-09-13T19:22:12+02:00</time>
      </trkpt>
      <trkpt lat="42.77182" lon="1.33976">
        <ele>1402.7998</ele>
        <time>2025-09-13T19:22:13+02:00</time>
      </trkpt>
      <trkpt lat="42.77181" lon="1.33975">
        <ele>1402.7998</ele>
        <time>2025-09-13T19:22:17+02:00</time>
      </trkpt>
      <trkpt lat="42.77181" lon="1.33976">
        <ele>1402.7998</ele>
        <time>2025-09-13T19:22:18+02:00</time>
      </trkpt>
      <trkpt lat="42.77183" lon="1.33973">
        <ele>1402</ele>
        <time>2025-09-13T19:22:22+02:00</time>
      </trkpt>
      <trkpt lat="42.77184" lon="1.33971">
        <ele>1402</ele>
        <time>2025-09-13T19:22:23+02:00</time>
      </trkpt>
      <trkpt lat="42.77185" lon="1.33966">
        <ele>1400.2002</ele>
        <time>2025-09-13T19:22:27+02:00</time>
      </trkpt>
      <trkpt lat="42.77186" lon="1.33965">
        <ele>1400.2002</ele>
        <time>2025-09-13T19:22:28+02:00</time>
      </trkpt>
      <trkpt lat="42.77186" lon="1.33962">
        <ele>1400.6006</ele>
        <time>2025-09-13T19:22:32+02:00</time>
      </trkpt>
      <trkpt lat="42.77186" lon="1.33961">
        <ele>1400.6006</ele>
        <time>2025-09-13T19:22:33+02:00</time>
      </trkpt>
      <trkpt lat="42.77185" lon="1.33963">
        <ele>1400.6006</ele>
        <time>2025-09-13T19:22:37+02:00</time>
      </trkpt>
      <trkpt lat="42.77185" lon="1.33963">
        <ele>1400.6006</ele>
        <time>2025-09-13T19:22:38+02:00</time>
      </trkpt>
      <trkpt lat="42.77185" lon="1.33964">
        <ele>1400.6006</ele>
        <time>2025-09-13T19:22:42+02:00</time>
      </trkpt>
      <trkpt lat="42.77185" lon="1.33964">
        <ele>1400.6006</ele>
        <time>2025-09-13T19:22:43+02:00</time>
      </trkpt>
      <trkpt lat="42.77186" lon="1.33962">
        <ele>1400.6006</ele>
        <time>2025-09-13T19:22:47+02:00</time>
      </trkpt>
      <trkpt lat="42.77187" lon="1.33961">
        <ele>1400.6006</ele>
        <time>2025-09-13T19:22:48+02:00</time>
      </trkpt>
      <trkpt lat="42.7719" lon="1.3396">
        <ele>1400.6006</ele>
        <time>2025-09-13T19:22:52+02:00</time>
      </trkpt>
      <trkpt lat="42.77191" lon="1.3396">
        <ele>1399.5</ele>
        <time>2025-09-13T19:22:53+02:00</time>
      </trkpt>
      <trkpt lat="42.77193" lon="1.33958">
        <ele>1399.5</ele>
        <time>2025-09-13T19:22:57+02:00</time>
      </trkpt>
      <trkpt lat="42.77193" lon="1.33958">
        <ele>1399.5</ele>
        <time>2025-09-13T19:22:58+02:00</time>
      </trkpt>
      <trkpt lat="42.77195" lon="1.33956">
        <ele>1399.5</ele>
        <time>2025-09-13T19:23:02+02:00</time>
      </trkpt>
      <trkpt lat="42.77196" lon="1.33956">
        <ele>1400.2998</ele>
        <time>2025-09-13T19:23:03+02:00</time>
      </trkpt>
      <trkpt lat="42.77199" lon="1.33955">
        <ele>1399</ele>
        <time>2025-09-13T19:23:07+02:00</time>
      </trkpt>
      <trkpt lat="42.772" lon="1.33955">
        <ele>1399</ele>
        <time>2025-09-13T19:23:08+02:00</time>
      </trkpt>
      <trkpt lat="42.77203" lon="1.33956">
        <ele>1398.7002</ele>
        <time>2025-09-13T19:23:12+02:00</time>
      </trkpt>
      <trkpt lat="42.77204" lon="1.33956">
        <ele>1398.2002</ele>
        <time>2025-09-13T19:23:13+02:00</time>
      </trkpt>
      <trkpt lat="42.77204" lon="1.33956">
        <ele>1398.2002</ele>
        <time>2025-09-13T19:23:17+02:00</time>
      </trkpt>
      <trkpt lat="42.77204" lon="1.33956">
        <ele>1398.2002</ele>
        <time>2025-09-13T19:23:18+02:00</time>
      </trkpt>
      <trkpt lat="42.77204" lon="1.33956">
        <ele>1398.2002</ele>
        <time>2025-09-13T19:23:22+02:00</time>
      </trkpt>
      <trkpt lat="42.77204" lon="1.33957">
        <ele>1398.2002</ele>
        <time>2025-09-13T19:23:23+02:00</time>
      </trkpt>
      <trkpt lat="42.77205" lon="1.33956">
        <ele>1398.2002</ele>
        <time>2025-09-13T19:23:27+02:00</time>
      </trkpt>
      <trkpt lat="42.77206" lon="1.33956">
        <ele>1398.2002</ele>
        <time>2025-09-13T19:23:28+02:00</time>
      </trkpt>
      <trkpt lat="42.77208" lon="1.33955">
        <ele>1398</ele>
        <time>2025-09-13T19:23:32+02:00</time>
      </trkpt>
      <trkpt lat="42.77208" lon="1.33955">
        <ele>1398</ele>
        <time>2025-09-13T19:23:33+02:00</time>
      </trkpt>
      <trkpt lat="42.77211" lon="1.33955">
        <ele>1397.2998</ele>
        <time>2025-09-13T19:23:37+02:00</time>
      </trkpt>
      <trkpt lat="42.77211" lon="1.33955">
        <ele>1397.2998</ele>
        <time>2025-09-13T19:23:38+02:00</time>
      </trkpt>
      <trkpt lat="42.77214" lon="1.33954">
        <ele>1397.2998</ele>
        <time>2025-09-13T19:23:43+02:00</time>
      </trkpt>
      <trkpt lat="42.77216" lon="1.33954">
        <ele>1397.2998</ele>
        <time>2025-09-13T19:23:44+02:00</time>
      </trkpt>
      <trkpt lat="42.7722" lon="1.33951">
        <ele>1397.2998</ele>
        <time>2025-09-13T19:23:48+02:00</time>
      </trkpt>
      <trkpt lat="42.7722" lon="1.3395">
        <ele>1397.2998</ele>
        <time>2025-09-13T19:23:49+02:00</time>
      </trkpt>
      <trkpt lat="42.77221" lon="1.33949">
        <ele>1397.2998</ele>
        <time>2025-09-13T19:23:53+02:00</time>
      </trkpt>
      <trkpt lat="42.77221" lon="1.33949">
        <ele>1397.2998</ele>
        <time>2025-09-13T19:23:54+02:00</time>
      </trkpt>
      <trkpt lat="42.7722" lon="1.33949">
        <ele>1397.2998</ele>
        <time>2025-09-13T19:23:58+02:00</time>
      </trkpt>
      <trkpt lat="42.7722" lon="1.33949">
        <ele>1397.2998</ele>
        <time>2025-09-13T19:23:59+02:00</time>
      </trkpt>
      <trkpt lat="42.7722" lon="1.33949">
        <ele>1397.2998</ele>
        <time>2025-09-13T19:24:03+02:00</time>
      </trkpt>
      <trkpt lat="42.7722" lon="1.33949">
        <ele>1397.2998</ele>
        <time>2025-09-13T19:24:04+02:00</time>
      </trkpt>
      <trkpt lat="42.7722" lon="1.33949">
        <ele>1397.2998</ele>
        <time>2025-09-13T19:24:08+02:00</time>
      </trkpt>
      <trkpt lat="42.7722" lon="1.33949">
        <ele>1397.2998</ele>
        <time>2025-09-13T19:24:09+02:00</time>
      </trkpt>
      <trkpt lat="42.7722" lon="1.33949">
        <ele>1397.2998</ele>
        <time>2025-09-13T19:24:13+02:00</time>
      </trkpt>
      <trkpt lat="42.7722" lon="1.33949">
        <ele>1397.2998</ele>
        <time>2025-09-13T19:24:14+02:00</time>
      </trkpt>
      <trkpt lat="42.7722" lon="1.3395">
        <ele>1397.2998</ele>
        <time>2025-09-13T19:24:18+02:00</time>
      </trkpt>
      <trkpt lat="42.77219" lon="1.3395">
        <ele>1397.2998</ele>
        <time>2025-09-13T19:24:19+02:00</time>
      </trkpt>
      <trkpt lat="42.77218" lon="1.33949">
        <ele>1397.2998</ele>
        <time>2025-09-13T19:24:23+02:00</time>
      </trkpt>
      <trkpt lat="42.77218" lon="1.33949">
        <ele>1397.2998</ele>
        <time>2025-09-13T19:24:24+02:00</time>
      </trkpt>
      <trkpt lat="42.77218" lon="1.33949">
        <ele>1397.2998</ele>
        <time>2025-09-13T19:24:28+02:00</time>
      </trkpt>
      <trkpt lat="42.77218" lon="1.33949">
        <ele>1397.2998</ele>
        <time>2025-09-13T19:24:29+02:00</time>
      </trkpt>
      <trkpt lat="42.77218" lon="1.33949">
        <ele>1397.2998</ele>
        <time>2025-09-13T19:24:33+02:00</time>
      </trkpt>
      <trkpt lat="42.77218" lon="1.33949">
        <ele>1397.2998</ele>
        <time>2025-09-13T19:24:34+02:00</time>
      </trkpt>
      <trkpt lat="42.77218" lon="1.3395">
        <ele>1397.2998</ele>
        <time>2025-09-13T19:24:38+02:00</time>
      </trkpt>
      <trkpt lat="42.77218" lon="1.3395">
        <ele>1397.2998</ele>
        <time>2025-09-13T19:24:39+02:00</time>
      </trkpt>
      <trkpt lat="42.77218" lon="1.3395">
        <ele>1397.2998</ele>
        <time>2025-09-13T19:24:43+02:00</time>
      </trkpt>
      <trkpt lat="42.77217" lon="1.3395">
        <ele>1397.2998</ele>
        <time>2025-09-13T19:24:44+02:00</time>
      </trkpt>
      <trkpt lat="42.77217" lon="1.3395">
        <ele>1397.2998</ele>
        <time>2025-09-13T19:24:48+02:00</time>
      </trkpt>
      <trkpt lat="42.77217" lon="1.3395">
        <ele>1397.2998</ele>
        <time>2025-09-13T19:24:49+02:00</time>
      </trkpt>
      <trkpt lat="42.77218" lon="1.33953">
        <ele>1397.2998</ele>
        <time>2025-09-13T19:24:53+02:00</time>
      </trkpt>
      <trkpt lat="42.77218" lon="1.33954">
        <ele>1397.2998</ele>
        <time>2025-09-13T19:24:54+02:00</time>
      </trkpt>
      <trkpt lat="42.77213" lon="1.33955">
        <ele>1397.2998</ele>
        <time>2025-09-13T19:24:58+02:00</time>
      </trkpt>
      <trkpt lat="42.77211" lon="1.33954">
        <ele>1397.2998</ele>
        <time>2025-09-13T19:24:59+02:00</time>
      </trkpt>
      <trkpt lat="42.77208" lon="1.33952">
        <ele>1398</ele>
        <time>2025-09-13T19:25:03+02:00</time>
      </trkpt>
      <trkpt lat="42.77208" lon="1.33951">
        <ele>1398</ele>
        <time>2025-09-13T19:25:04+02:00</time>
      </trkpt>
      <trkpt lat="42.77208" lon="1.33952">
        <ele>1398</ele>
        <time>2025-09-13T19:25:08+02:00</time>
      </trkpt>
      <trkpt lat="42.77208" lon="1.33952">
        <ele>1398</ele>
        <time>2025-09-13T19:25:09+02:00</time>
      </trkpt>
      <trkpt lat="42.77207" lon="1.33949">
        <ele>1398</ele>
        <time>2025-09-13T19:25:13+02:00</time>
      </trkpt>
      <trkpt lat="42.77207" lon="1.33948">
        <ele>1398</ele>
        <time>2025-09-13T19:25:14+02:00</time>
      </trkpt>
      <trkpt lat="42.77205" lon="1.33948">
        <ele>1398</ele>
        <time>2025-09-13T19:25:18+02:00</time>
      </trkpt>
      <trkpt lat="42.77204" lon="1.33947">
        <ele>1398</ele>
        <time>2025-09-13T19:25:19+02:00</time>
      </trkpt>
      <trkpt lat="42.77201" lon="1.33946">
        <ele>1399.7002</ele>
        <time>2025-09-13T19:25:23+02:00</time>
      </trkpt>
      <trkpt lat="42.772" lon="1.33945">
        <ele>1399.7002</ele>
        <time>2025-09-13T19:25:24+02:00</time>
      </trkpt>
      <trkpt lat="42.77201" lon="1.33944">
        <ele>1399.7002</ele>
        <time>2025-09-13T19:25:28+02:00</time>
      </trkpt>
      <trkpt lat="42.77208" lon="1.33942">
        <ele>1398.2998</ele>
        <time>2025-09-13T19:25:29+02:00</time>
      </trkpt>
      <trkpt lat="42.77239" lon="1.33935">
        <ele>1396.2002</ele>
        <time>2025-09-13T19:25:33+02:00</time>
      </trkpt>
      <trkpt lat="42.77242" lon="1.33934">
        <ele>1394.9004</ele>
        <time>2025-09-13T19:25:34+02:00</time>
      </trkpt>
      <trkpt lat="42.77248" lon="1.33932">
        <ele>1393.4004</ele>
        <time>2025-09-13T19:25:38+02:00</time>
      </trkpt>
      <trkpt lat="42.7725" lon="1.33932">
        <ele>1393.4004</ele>
        <time>2025-09-13T19:25:39+02:00</time>
      </trkpt>
      <trkpt lat="42.77253" lon="1.33935">
        <ele>1393.4004</ele>
        <time>2025-09-13T19:25:43+02:00</time>
      </trkpt>
      <trkpt lat="42.77254" lon="1.33935">
        <ele>1391.5</ele>
        <time>2025-09-13T19:25:44+02:00</time>
      </trkpt>
      <trkpt lat="42.77257" lon="1.33934">
        <ele>1391.5</ele>
        <time>2025-09-13T19:25:48+02:00</time>
      </trkpt>
      <trkpt lat="42.77258" lon="1.33934">
        <ele>1391.5</ele>
        <time>2025-09-13T19:25:49+02:00</time>
      </trkpt>
      <trkpt lat="42.77261" lon="1.33934">
        <ele>1389.2998</ele>
        <time>2025-09-13T19:25:53+02:00</time>
      </trkpt>
      <trkpt lat="42.77262" lon="1.33933">
        <ele>1389.2998</ele>
        <time>2025-09-13T19:25:54+02:00</time>
      </trkpt>
      <trkpt lat="42.77264" lon="1.33931">
        <ele>1389.2998</ele>
        <time>2025-09-13T19:25:58+02:00</time>
      </trkpt>
      <trkpt lat="42.77263" lon="1.33931">
        <ele>1389.2998</ele>
        <time>2025-09-13T19:25:59+02:00</time>
      </trkpt>
      <trkpt lat="42.77262" lon="1.3393">
        <ele>1389.2998</ele>
        <time>2025-09-13T19:26:03+02:00</time>
      </trkpt>
      <trkpt lat="42.77262" lon="1.3393">
        <ele>1388.6006</ele>
        <time>2025-09-13T19:26:04+02:00</time>
      </trkpt>
      <trkpt lat="42.77264" lon="1.33928">
        <ele>1388.6006</ele>
        <time>2025-09-13T19:26:08+02:00</time>
      </trkpt>
      <trkpt lat="42.77265" lon="1.33928">
        <ele>1388.6006</ele>
        <time>2025-09-13T19:26:09+02:00</time>
      </trkpt>
      <trkpt lat="42.77268" lon="1.33926">
        <ele>1386.1006</ele>
        <time>2025-09-13T19:26:13+02:00</time>
      </trkpt>
      <trkpt lat="42.77268" lon="1.33925">
        <ele>1386.1006</ele>
        <time>2025-09-13T19:26:14+02:00</time>
      </trkpt>
      <trkpt lat="42.77271" lon="1.33923">
        <ele>1386.1006</ele>
        <time>2025-09-13T19:26:18+02:00</time>
      </trkpt>
      <trkpt lat="42.77272" lon="1.33923">
        <ele>1386.1006</ele>
        <time>2025-09-13T19:26:19+02:00</time>
      </trkpt>
      <trkpt lat="42.77274" lon="1.3392">
        <ele>1382.6006</ele>
        <time>2025-09-13T19:26:23+02:00</time>
      </trkpt>
      <trkpt lat="42.77275" lon="1.33919">
        <ele>1382.6006</ele>
        <time>2025-09-13T19:26:24+02:00</time>
      </trkpt>
      <trkpt lat="42.77277" lon="1.33915">
        <ele>1382.6006</ele>
        <time>2025-09-13T19:26:28+02:00</time>
      </trkpt>
      <trkpt lat="42.77278" lon="1.33914">
        <ele>1382.6006</ele>
        <time>2025-09-13T19:26:29+02:00</time>
      </trkpt>
      <trkpt lat="42.7728" lon="1.33912">
        <ele>1378.7998</ele>
        <time>2025-09-13T19:26:33+02:00</time>
      </trkpt>
      <trkpt lat="42.77281" lon="1.33912">
        <ele>1378.7998</ele>
        <time>2025-09-13T19:26:34+02:00</time>
      </trkpt>
      <trkpt lat="42.77284" lon="1.33911">
        <ele>1378.7998</ele>
        <time>2025-09-13T19:26:38+02:00</time>
      </trkpt>
      <trkpt lat="42.77285" lon="1.33911">
        <ele>1378.7998</ele>
        <time>2025-09-13T19:26:39+02:00</time>
      </trkpt>
      <trkpt lat="42.77288" lon="1.33908">
        <ele>1375.7998</ele>
        <time>2025-09-13T19:26:43+02:00</time>
      </trkpt>
      <trkpt lat="42.77289" lon="1.33908">
        <ele>1375.7998</ele>
        <time>2025-09-13T19:26:44+02:00</time>
      </trkpt>
      <trkpt lat="42.77291" lon="1.33905">
        <ele>1375.7998</ele>
        <time>2025-09-13T19:26:48+02:00</time>
      </trkpt>
      <trkpt lat="42.77291" lon="1.33904">
        <ele>1371.7998</ele>
        <time>2025-09-13T19:26:49+02:00</time>
      </trkpt>
      <trkpt lat="42.77292" lon="1.33903">
        <ele>1371.7998</ele>
        <time>2025-09-13T19:26:53+02:00</time>
      </trkpt>
      <trkpt lat="42.77293" lon="1.33902">
        <ele>1371.7998</ele>
        <time>2025-09-13T19:26:54+02:00</time>
      </trkpt>
      <trkpt lat="42.77295" lon="1.33903">
        <ele>1371.7998</ele>
        <time>2025-09-13T19:26:58+02:00</time>
      </trkpt>
      <trkpt lat="42.77296" lon="1.33903">
        <ele>1371.7998</ele>
        <time>2025-09-13T19:26:59+02:00</time>
      </trkpt>
      <trkpt lat="42.77299" lon="1.33903">
        <ele>1368.7002</ele>
        <time>2025-09-13T19:27:03+02:00</time>
      </trkpt>
      <trkpt lat="42.77299" lon="1.33903">
        <ele>1368.7002</ele>
        <time>2025-09-13T19:27:04+02:00</time>
      </trkpt>
      <trkpt lat="42.77301" lon="1.33902">
        <ele>1368.7002</ele>
        <time>2025-09-13T19:27:08+02:00</time>
      </trkpt>
      <trkpt lat="42.77302" lon="1.33902">
        <ele>1368.7002</ele>
        <time>2025-09-13T19:27:09+02:00</time>
      </trkpt>
      <trkpt lat="42.77304" lon="1.33901">
        <ele>1365.5</ele>
        <time>2025-09-13T19:27:13+02:00</time>
      </trkpt>
      <trkpt lat="42.77305" lon="1.33901">
        <ele>1365.5</ele>
        <time>2025-09-13T19:27:14+02:00</time>
      </trkpt>
      <trkpt lat="42.77306" lon="1.33902">
        <ele>1365.5</ele>
        <time>2025-09-13T19:27:18+02:00</time>
      </trkpt>
      <trkpt lat="42.77306" lon="1.33902">
        <ele>1365.5</ele>
        <time>2025-09-13T19:27:19+02:00</time>
      </trkpt>
      <trkpt lat="42.77308" lon="1.33901">
        <ele>1365.5</ele>
        <time>2025-09-13T19:27:23+02:00</time>
      </trkpt>
      <trkpt lat="42.77309" lon="1.33901">
        <ele>1365.5</ele>
        <time>2025-09-13T19:27:24+02:00</time>
      </trkpt>
      <trkpt lat="42.77311" lon="1.33896">
        <ele>1362.4004</ele>
        <time>2025-09-13T19:27:28+02:00</time>
      </trkpt>
      <trkpt lat="42.77312" lon="1.33895">
        <ele>1361.6006</ele>
        <time>2025-09-13T19:27:29+02:00</time>
      </trkpt>
      <trkpt lat="42.77314" lon="1.33892">
        <ele>1361.6006</ele>
        <time>2025-09-13T19:27:33+02:00</time>
      </trkpt>
      <trkpt lat="42.77314" lon="1.33892">
        <ele>1361.6006</ele>
        <time>2025-09-13T19:27:34+02:00</time>
      </trkpt>
      <trkpt lat="42.77316" lon="1.3389">
        <ele>1361.6006</ele>
        <time>2025-09-13T19:27:38+02:00</time>
      </trkpt>
      <trkpt lat="42.77316" lon="1.33889">
        <ele>1361.6006</ele>
        <time>2025-09-13T19:27:39+02:00</time>
      </trkpt>
      <trkpt lat="42.77317" lon="1.33889">
        <ele>1358.5</ele>
        <time>2025-09-13T19:27:43+02:00</time>
      </trkpt>
      <trkpt lat="42.77317" lon="1.3389">
        <ele>1358.5</ele>
        <time>2025-09-13T19:27:44+02:00</time>
      </trkpt>
      <trkpt lat="42.77316" lon="1.33889">
        <ele>1361.6006</ele>
        <time>2025-09-13T19:27:48+02:00</time>
      </trkpt>
      <trkpt lat="42.77316" lon="1.33889">
        <ele>1361.6006</ele>
        <time>2025-09-13T19:27:49+02:00</time>
      </trkpt>
      <trkpt lat="42.77316" lon="1.33889">
        <ele>1361.6006</ele>
        <time>2025-09-13T19:27:53+02:00</time>
      </trkpt>
      <trkpt lat="42.77316" lon="1.33888">
        <ele>1361.6006</ele>
        <time>2025-09-13T19:27:54+02:00</time>
      </trkpt>
      <trkpt lat="42.77316" lon="1.33889">
        <ele>1361.6006</ele>
        <time>2025-09-13T19:27:58+02:00</time>
      </trkpt>
      <trkpt lat="42.77316" lon="1.33889">
        <ele>1361.6006</ele>
        <time>2025-09-13T19:27:59+02:00</time>
      </trkpt>
      <trkpt lat="42.77317" lon="1.33889">
        <ele>1358.5</ele>
        <time>2025-09-13T19:28:04+02:00</time>
      </trkpt>
      <trkpt lat="42.77318" lon="1.33889">
        <ele>1358.5</ele>
        <time>2025-09-13T19:28:05+02:00</time>
      </trkpt>
      <trkpt lat="42.7732" lon="1.33889">
        <ele>1358.5</ele>
        <time>2025-09-13T19:28:09+02:00</time>
      </trkpt>
      <trkpt lat="42.77321" lon="1.33889">
        <ele>1358.5</ele>
        <time>2025-09-13T19:28:10+02:00</time>
      </trkpt>
      <trkpt lat="42.77323" lon="1.33887">
        <ele>1355.4004</ele>
        <time>2025-09-13T19:28:14+02:00</time>
      </trkpt>
      <trkpt lat="42.77324" lon="1.33888">
        <ele>1355.4004</ele>
        <time>2025-09-13T19:28:15+02:00</time>
      </trkpt>
      <trkpt lat="42.77327" lon="1.33888">
        <ele>1355.4004</ele>
        <time>2025-09-13T19:28:19+02:00</time>
      </trkpt>
      <trkpt lat="42.77327" lon="1.33888">
        <ele>1355.4004</ele>
        <time>2025-09-13T19:28:20+02:00</time>
      </trkpt>
      <trkpt lat="42.77327" lon="1.33888">
        <ele>1355.4004</ele>
        <time>2025-09-13T19:28:24+02:00</time>
      </trkpt>
      <trkpt lat="42.77327" lon="1.33888">
        <ele>1355.4004</ele>
        <time>2025-09-13T19:28:25+02:00</time>
      </trkpt>
      <trkpt lat="42.77327" lon="1.33888">
        <ele>1355.4004</ele>
        <time>2025-09-13T19:28:29+02:00</time>
      </trkpt>
      <trkpt lat="42.77327" lon="1.33887">
        <ele>1355.4004</ele>
        <time>2025-09-13T19:28:30+02:00</time>
      </trkpt>
      <trkpt lat="42.77328" lon="1.33887">
        <ele>1354.7002</ele>
        <time>2025-09-13T19:28:34+02:00</time>
      </trkpt>
      <trkpt lat="42.77328" lon="1.33886">
        <ele>1354.7002</ele>
        <time>2025-09-13T19:28:35+02:00</time>
      </trkpt>
      <trkpt lat="42.77328" lon="1.33885">
        <ele>1354.7002</ele>
        <time>2025-09-13T19:28:39+02:00</time>
      </trkpt>
      <trkpt lat="42.77328" lon="1.33885">
        <ele>1354.7002</ele>
        <time>2025-09-13T19:28:40+02:00</time>
      </trkpt>
      <trkpt lat="42.77326" lon="1.33885">
        <ele>1354.7002</ele>
        <time>2025-09-13T19:28:44+02:00</time>
      </trkpt>
      <trkpt lat="42.77325" lon="1.33885">
        <ele>1354.7002</ele>
        <time>2025-09-13T19:28:45+02:00</time>
      </trkpt>
      <trkpt lat="42.77324" lon="1.33884">
        <ele>1354.7002</ele>
        <time>2025-09-13T19:28:49+02:00</time>
      </trkpt>
      <trkpt lat="42.77324" lon="1.33884">
        <ele>1354.7002</ele>
        <time>2025-09-13T19:28:50+02:00</time>
      </trkpt>
      <trkpt lat="42.77325" lon="1.33885">
        <ele>1354.7002</ele>
        <time>2025-09-13T19:28:54+02:00</time>
      </trkpt>
      <trkpt lat="42.77325" lon="1.33885">
        <ele>1354.7002</ele>
        <time>2025-09-13T19:28:55+02:00</time>
      </trkpt>
      <trkpt lat="42.77324" lon="1.33883">
        <ele>1354.7002</ele>
        <time>2025-09-13T19:28:59+02:00</time>
      </trkpt>
      <trkpt lat="42.77324" lon="1.33882">
        <ele>1354.7002</ele>
        <time>2025-09-13T19:29:00+02:00</time>
      </trkpt>
      <trkpt lat="42.77326" lon="1.33878">
        <ele>1354</ele>
        <time>2025-09-13T19:29:04+02:00</time>
      </trkpt>
      <trkpt lat="42.77327" lon="1.33878">
        <ele>1354</ele>
        <time>2025-09-13T19:29:05+02:00</time>
      </trkpt>
      <trkpt lat="42.7733" lon="1.33873">
        <ele>1351</ele>
        <time>2025-09-13T19:29:09+02:00</time>
      </trkpt>
      <trkpt lat="42.77331" lon="1.33872">
        <ele>1351</ele>
        <time>2025-09-13T19:29:10+02:00</time>
      </trkpt>
      <trkpt lat="42.77332" lon="1.3387">
        <ele>1350.5</ele>
        <time>2025-09-13T19:29:14+02:00</time>
      </trkpt>
      <trkpt lat="42.77332" lon="1.33869">
        <ele>1350.5</ele>
        <time>2025-09-13T19:29:15+02:00</time>
      </trkpt>
      <trkpt lat="42.77333" lon="1.33866">
        <ele>1350.5</ele>
        <time>2025-09-13T19:29:19+02:00</time>
      </trkpt>
      <trkpt lat="42.77334" lon="1.33866">
        <ele>1350.5</ele>
        <time>2025-09-13T19:29:20+02:00</time>
      </trkpt>
      <trkpt lat="42.77334" lon="1.33866">
        <ele>1350.5</ele>
        <time>2025-09-13T19:29:24+02:00</time>
      </trkpt>
      <trkpt lat="42.77334" lon="1.33867">
        <ele>1350.5</ele>
        <time>2025-09-13T19:29:25+02:00</time>
      </trkpt>
      <trkpt lat="42.77334" lon="1.33866">
        <ele>1350.5</ele>
        <time>2025-09-13T19:29:29+02:00</time>
      </trkpt>
      <trkpt lat="42.77333" lon="1.33867">
        <ele>1350.5</ele>
        <time>2025-09-13T19:29:30+02:00</time>
      </trkpt>
      <trkpt lat="42.77334" lon="1.33869">
        <ele>1350.5</ele>
        <time>2025-09-13T19:29:34+02:00</time>
      </trkpt>
      <trkpt lat="42.77334" lon="1.33869">
        <ele>1350.5</ele>
        <time>2025-09-13T19:29:35+02:00</time>
      </trkpt>
      <trkpt lat="42.77337" lon="1.33865">
        <ele>1347.6006</ele>
        <time>2025-09-13T19:29:39+02:00</time>
      </trkpt>
      <trkpt lat="42.77339" lon="1.33865">
        <ele>1347.6006</ele>
        <time>2025-09-13T19:29:40+02:00</time>
      </trkpt>
      <trkpt lat="42.77344" lon="1.33865">
        <ele>1344.9004</ele>
        <time>2025-09-13T19:29:44+02:00</time>
      </trkpt>
      <trkpt lat="42.77345" lon="1.33865">
        <ele>1344.9004</ele>
        <time>2025-09-13T19:29:45+02:00</time>
      </trkpt>
      <trkpt lat="42.77349" lon="1.33864">
        <ele>1342.2998</ele>
        <time>2025-09-13T19:29:49+02:00</time>
      </trkpt>
      <trkpt lat="42.77349" lon="1.33863">
        <ele>1342.2998</ele>
        <time>2025-09-13T19:29:50+02:00</time>
      </trkpt>
      <trkpt lat="42.77352" lon="1.33859">
        <ele>1341.6006</ele>
        <time>2025-09-13T19:29:54+02:00</time>
      </trkpt>
      <trkpt lat="42.77352" lon="1.33859">
        <ele>1341.6006</ele>
        <time>2025-09-13T19:29:55+02:00</time>
      </trkpt>
      <trkpt lat="42.77353" lon="1.33858">
        <ele>1341.6006</ele>
        <time>2025-09-13T19:29:59+02:00</time>
      </trkpt>
      <trkpt lat="42.77354" lon="1.33858">
        <ele>1341.6006</ele>
        <time>2025-09-13T19:30:00+02:00</time>
      </trkpt>
      <trkpt lat="42.77352" lon="1.33859">
        <ele>1341.6006</ele>
        <time>2025-09-13T19:30:04+02:00</time>
      </trkpt>
      <trkpt lat="42.77352" lon="1.3386">
        <ele>1341.6006</ele>
        <time>2025-09-13T19:30:05+02:00</time>
      </trkpt>
      <trkpt lat="42.77352" lon="1.3386">
        <ele>1341.6006</ele>
        <time>2025-09-13T19:30:09+02:00</time>
      </trkpt>
      <trkpt lat="42.77353" lon="1.33861">
        <ele>1341.6006</ele>
        <time>2025-09-13T19:30:10+02:00</time>
      </trkpt>
      <trkpt lat="42.77357" lon="1.33862">
        <ele>1339.7002</ele>
        <time>2025-09-13T19:30:14+02:00</time>
      </trkpt>
      <trkpt lat="42.77358" lon="1.33861">
        <ele>1339</ele>
        <time>2025-09-13T19:30:15+02:00</time>
      </trkpt>
      <trkpt lat="42.77362" lon="1.33858">
        <ele>1336.5</ele>
        <time>2025-09-13T19:30:19+02:00</time>
      </trkpt>
      <trkpt lat="42.77363" lon="1.33857">
        <ele>1336.5</ele>
        <time>2025-09-13T19:30:20+02:00</time>
      </trkpt>
      <trkpt lat="42.77365" lon="1.33853">
        <ele>1336.1006</ele>
        <time>2025-09-13T19:30:24+02:00</time>
      </trkpt>
      <trkpt lat="42.77365" lon="1.33851">
        <ele>1336.1006</ele>
        <time>2025-09-13T19:30:25+02:00</time>
      </trkpt>
      <trkpt lat="42.77365" lon="1.33846">
        <ele>1336.1006</ele>
        <time>2025-09-13T19:30:29+02:00</time>
      </trkpt>
      <trkpt lat="42.77365" lon="1.33845">
        <ele>1336.1006</ele>
        <time>2025-09-13T19:30:30+02:00</time>
      </trkpt>
      <trkpt lat="42.77367" lon="1.3384">
        <ele>1336</ele>
        <time>2025-09-13T19:30:34+02:00</time>
      </trkpt>
      <trkpt lat="42.77367" lon="1.33838">
        <ele>1333.6006</ele>
        <time>2025-09-13T19:30:35+02:00</time>
      </trkpt>
      <trkpt lat="42.77368" lon="1.33834">
        <ele>1333.5</ele>
        <time>2025-09-13T19:30:39+02:00</time>
      </trkpt>
      <trkpt lat="42.77368" lon="1.33833">
        <ele>1333.5</ele>
        <time>2025-09-13T19:30:40+02:00</time>
      </trkpt>
      <trkpt lat="42.77368" lon="1.33827">
        <ele>1333.5</ele>
        <time>2025-09-13T19:30:44+02:00</time>
      </trkpt>
      <trkpt lat="42.77367" lon="1.33826">
        <ele>1333.4004</ele>
        <time>2025-09-13T19:30:45+02:00</time>
      </trkpt>
      <trkpt lat="42.77367" lon="1.33821">
        <ele>1333.4004</ele>
        <time>2025-09-13T19:30:49+02:00</time>
      </trkpt>
      <trkpt lat="42.77368" lon="1.3382">
        <ele>1333.4004</ele>
        <time>2025-09-13T19:30:50+02:00</time>
      </trkpt>
      <trkpt lat="42.77366" lon="1.33815">
        <ele>1335.4004</ele>
        <time>2025-09-13T19:30:54+02:00</time>
      </trkpt>
      <trkpt lat="42.77366" lon="1.33813">
        <ele>1335.4004</ele>
        <time>2025-09-13T19:30:55+02:00</time>
      </trkpt>
      <trkpt lat="42.77363" lon="1.3381">
        <ele>1334.9004</ele>
        <time>2025-09-13T19:30:59+02:00</time>
      </trkpt>
      <trkpt lat="42.77363" lon="1.33809">
        <ele>1334.9004</ele>
        <time>2025-09-13T19:31:00+02:00</time>
      </trkpt>
      <trkpt lat="42.77361" lon="1.33804">
        <ele>1334.9004</ele>
        <time>2025-09-13T19:31:04+02:00</time>
      </trkpt>
      <trkpt lat="42.77361" lon="1.33804">
        <ele>1334.9004</ele>
        <time>2025-09-13T19:31:05+02:00</time>
      </trkpt>
      <trkpt lat="42.77362" lon="1.33802">
        <ele>1334.9004</ele>
        <time>2025-09-13T19:31:09+02:00</time>
      </trkpt>
      <trkpt lat="42.77362" lon="1.33802">
        <ele>1334.9004</ele>
        <time>2025-09-13T19:31:10+02:00</time>
      </trkpt>
      <trkpt lat="42.77363" lon="1.33801">
        <ele>1334.5</ele>
        <time>2025-09-13T19:31:14+02:00</time>
      </trkpt>
      <trkpt lat="42.77363" lon="1.33801">
        <ele>1334.5</ele>
        <time>2025-09-13T19:31:15+02:00</time>
      </trkpt>
      <trkpt lat="42.77363" lon="1.338">
        <ele>1334.5</ele>
        <time>2025-09-13T19:31:19+02:00</time>
      </trkpt>
      <trkpt lat="42.77363" lon="1.338">
        <ele>1334.5</ele>
        <time>2025-09-13T19:31:20+02:00</time>
      </trkpt>
      <trkpt lat="42.77364" lon="1.33799">
        <ele>1334.5</ele>
        <time>2025-09-13T19:31:24+02:00</time>
      </trkpt>
      <trkpt lat="42.77364" lon="1.33799">
        <ele>1334.5</ele>
        <time>2025-09-13T19:31:25+02:00</time>
      </trkpt>
      <trkpt lat="42.77364" lon="1.33798">
        <ele>1334.5</ele>
        <time>2025-09-13T19:31:29+02:00</time>
      </trkpt>
      <trkpt lat="42.77364" lon="1.33798">
        <ele>1334.5</ele>
        <time>2025-09-13T19:31:30+02:00</time>
      </trkpt>
      <trkpt lat="42.77364" lon="1.33798">
        <ele>1334.5</ele>
        <time>2025-09-13T19:31:34+02:00</time>
      </trkpt>
      <trkpt lat="42.77364" lon="1.33797">
        <ele>1334.5</ele>
        <time>2025-09-13T19:31:35+02:00</time>
      </trkpt>
      <trkpt lat="42.77365" lon="1.33797">
        <ele>1334.5</ele>
        <time>2025-09-13T19:31:39+02:00</time>
      </trkpt>
      <trkpt lat="42.77365" lon="1.33797">
        <ele>1334.5</ele>
        <time>2025-09-13T19:31:40+02:00</time>
      </trkpt>
      <trkpt lat="42.77365" lon="1.33797">
        <ele>1334.5</ele>
        <time>2025-09-13T19:31:44+02:00</time>
      </trkpt>
      <trkpt lat="42.77365" lon="1.33797">
        <ele>1334.5</ele>
        <time>2025-09-13T19:31:45+02:00</time>
      </trkpt>
      <trkpt lat="42.77365" lon="1.33797">
        <ele>1334.5</ele>
        <time>2025-09-13T19:31:49+02:00</time>
      </trkpt>
      <trkpt lat="42.77365" lon="1.33797">
        <ele>1334.5</ele>
        <time>2025-09-13T19:31:50+02:00</time>
      </trkpt>
      <trkpt lat="42.77364" lon="1.33797">
        <ele>1334.5</ele>
        <time>2025-09-13T19:31:54+02:00</time>
      </trkpt>
      <trkpt lat="42.77364" lon="1.33798">
        <ele>1334.5</ele>
        <time>2025-09-13T19:31:55+02:00</time>
      </trkpt>
      <trkpt lat="42.77366" lon="1.33799">
        <ele>1334.5</ele>
        <time>2025-09-13T19:31:59+02:00</time>
      </trkpt>
      <trkpt lat="42.77366" lon="1.33799">
        <ele>1334.5</ele>
        <time>2025-09-13T19:32:00+02:00</time>
      </trkpt>
      <trkpt lat="42.77366" lon="1.338">
        <ele>1334.5</ele>
        <time>2025-09-13T19:32:04+02:00</time>
      </trkpt>
      <trkpt lat="42.77366" lon="1.338">
        <ele>1334.5</ele>
        <time>2025-09-13T19:32:05+02:00</time>
      </trkpt>
      <trkpt lat="42.77366" lon="1.338">
        <ele>1334.5</ele>
        <time>2025-09-13T19:32:09+02:00</time>
      </trkpt>
      <trkpt lat="42.77366" lon="1.338">
        <ele>1334.5</ele>
        <time>2025-09-13T19:32:10+02:00</time>
      </trkpt>
      <trkpt lat="42.77366" lon="1.33799">
        <ele>1334.5</ele>
        <time>2025-09-13T19:32:14+02:00</time>
      </trkpt>
      <trkpt lat="42.77366" lon="1.33799">
        <ele>1334.5</ele>
        <time>2025-09-13T19:32:15+02:00</time>
      </trkpt>
      <trkpt lat="42.77367" lon="1.33799">
        <ele>1332.1006</ele>
        <time>2025-09-13T19:32:19+02:00</time>
      </trkpt>
      <trkpt lat="42.77368" lon="1.33799">
        <ele>1332.1006</ele>
        <time>2025-09-13T19:32:20+02:00</time>
      </trkpt>
      <trkpt lat="42.77368" lon="1.33799">
        <ele>1332.1006</ele>
        <time>2025-09-13T19:32:24+02:00</time>
      </trkpt>
      <trkpt lat="42.77368" lon="1.33799">
        <ele>1332.1006</ele>
        <time>2025-09-13T19:32:25+02:00</time>
      </trkpt>
      <trkpt lat="42.77368" lon="1.33799">
        <ele>1332.1006</ele>
        <time>2025-09-13T19:32:29+02:00</time>
      </trkpt>
      <trkpt lat="42.77368" lon="1.33799">
        <ele>1332.1006</ele>
        <time>2025-09-13T19:32:30+02:00</time>
      </trkpt>
      <trkpt lat="42.77368" lon="1.33799">
        <ele>1332.1006</ele>
        <time>2025-09-13T19:32:34+02:00</time>
      </trkpt>
      <trkpt lat="42.77368" lon="1.33799">
        <ele>1332.1006</ele>
        <time>2025-09-13T19:32:35+02:00</time>
      </trkpt>
      <trkpt lat="42.77368" lon="1.33799">
        <ele>1332.1006</ele>
        <time>2025-09-13T19:32:39+02:00</time>
      </trkpt>
      <trkpt lat="42.77368" lon="1.33799">
        <ele>1332.1006</ele>
        <time>2025-09-13T19:32:40+02:00</time>
      </trkpt>
      <trkpt lat="42.77366" lon="1.338">
        <ele>1334.5</ele>
        <time>2025-09-13T19:32:44+02:00</time>
      </trkpt>
      <trkpt lat="42.77366" lon="1.338">
        <ele>1334.5</ele>
        <time>2025-09-13T19:32:45+02:00</time>
      </trkpt>
      <trkpt lat="42.77366" lon="1.338">
        <ele>1334.5</ele>
        <time>2025-09-13T19:32:49+02:00</time>
      </trkpt>
      <trkpt lat="42.77366" lon="1.338">
        <ele>1334.5</ele>
        <time>2025-09-13T19:32:50+02:00</time>
      </trkpt>
      <trkpt lat="42.77366" lon="1.33799">
        <ele>1334.5</ele>
        <time>2025-09-13T19:32:54+02:00</time>
      </trkpt>
      <trkpt lat="42.77367" lon="1.33798">
        <ele>1334.5</ele>
        <time>2025-09-13T19:32:55+02:00</time>
      </trkpt>
      <trkpt lat="42.77369" lon="1.33791">
        <ele>1331.7002</ele>
        <time>2025-09-13T19:32:59+02:00</time>
      </trkpt>
      <trkpt lat="42.77369" lon="1.33789">
        <ele>1331.7002</ele>
        <time>2025-09-13T19:33:00+02:00</time>
      </trkpt>
      <trkpt lat="42.7737" lon="1.33783">
        <ele>1331.7002</ele>
        <time>2025-09-13T19:33:04+02:00</time>
      </trkpt>
      <trkpt lat="42.77371" lon="1.33782">
        <ele>1331.7002</ele>
        <time>2025-09-13T19:33:05+02:00</time>
      </trkpt>
      <trkpt lat="42.77373" lon="1.33777">
        <ele>1331.7002</ele>
        <time>2025-09-13T19:33:09+02:00</time>
      </trkpt>
      <trkpt lat="42.77373" lon="1.33776">
        <ele>1331.7002</ele>
        <time>2025-09-13T19:33:10+02:00</time>
      </trkpt>
      <trkpt lat="42.77373" lon="1.3377">
        <ele>1329.2998</ele>
        <time>2025-09-13T19:33:14+02:00</time>
      </trkpt>
      <trkpt lat="42.77373" lon="1.33769">
        <ele>1329.2998</ele>
        <time>2025-09-13T19:33:15+02:00</time>
      </trkpt>
      <trkpt lat="42.77374" lon="1.33764">
        <ele>1329.2998</ele>
        <time>2025-09-13T19:33:19+02:00</time>
      </trkpt>
      <trkpt lat="42.77374" lon="1.33763">
        <ele>1329.2998</ele>
        <time>2025-09-13T19:33:20+02:00</time>
      </trkpt>
      <trkpt lat="42.77374" lon="1.33758">
        <ele>1329.4004</ele>
        <time>2025-09-13T19:33:24+02:00</time>
      </trkpt>
      <trkpt lat="42.77375" lon="1.33757">
        <ele>1329.4004</ele>
        <time>2025-09-13T19:33:25+02:00</time>
      </trkpt>
      <trkpt lat="42.77375" lon="1.33752">
        <ele>1329.4004</ele>
        <time>2025-09-13T19:33:29+02:00</time>
      </trkpt>
      <trkpt lat="42.77376" lon="1.33751">
        <ele>1329.4004</ele>
        <time>2025-09-13T19:33:30+02:00</time>
      </trkpt>
      <trkpt lat="42.77377" lon="1.33746">
        <ele>1329.5</ele>
        <time>2025-09-13T19:33:34+02:00</time>
      </trkpt>
      <trkpt lat="42.77377" lon="1.33745">
        <ele>1329.5</ele>
        <time>2025-09-13T19:33:35+02:00</time>
      </trkpt>
      <trkpt lat="42.77377" lon="1.3374">
        <ele>1329.6006</ele>
        <time>2025-09-13T19:33:39+02:00</time>
      </trkpt>
      <trkpt lat="42.77377" lon="1.33739">
        <ele>1329.6006</ele>
        <time>2025-09-13T19:33:40+02:00</time>
      </trkpt>
      <trkpt lat="42.77376" lon="1.33733">
        <ele>1329.6006</ele>
        <time>2025-09-13T19:33:44+02:00</time>
      </trkpt>
      <trkpt lat="42.77376" lon="1.33732">
        <ele>1329.7002</ele>
        <time>2025-09-13T19:33:45+02:00</time>
      </trkpt>
      <trkpt lat="42.77375" lon="1.33727">
        <ele>1329.7002</ele>
        <time>2025-09-13T19:33:49+02:00</time>
      </trkpt>
      <trkpt lat="42.77374" lon="1.33726">
        <ele>1329.7002</ele>
        <time>2025-09-13T19:33:50+02:00</time>
      </trkpt>
      <trkpt lat="42.77374" lon="1.3372">
        <ele>1330</ele>
        <time>2025-09-13T19:33:54+02:00</time>
      </trkpt>
      <trkpt lat="42.77374" lon="1.3372">
        <ele>1330</ele>
        <time>2025-09-13T19:33:55+02:00</time>
      </trkpt>
      <trkpt lat="42.77374" lon="1.33719">
        <ele>1330</ele>
        <time>2025-09-13T19:33:59+02:00</time>
      </trkpt>
      <trkpt lat="42.77374" lon="1.3372">
        <ele>1330</ele>
        <time>2025-09-13T19:34:00+02:00</time>
      </trkpt>
      <trkpt lat="42.77374" lon="1.3372">
        <ele>1330</ele>
        <time>2025-09-13T19:34:04+02:00</time>
      </trkpt>
      <trkpt lat="42.77375" lon="1.33719">
        <ele>1330</ele>
        <time>2025-09-13T19:34:05+02:00</time>
      </trkpt>
      <trkpt lat="42.77379" lon="1.3372">
        <ele>1330</ele>
        <time>2025-09-13T19:34:09+02:00</time>
      </trkpt>
      <trkpt lat="42.7738" lon="1.33721">
        <ele>1327.7002</ele>
        <time>2025-09-13T19:34:10+02:00</time>
      </trkpt>
      <trkpt lat="42.77381" lon="1.33725">
        <ele>1327.4004</ele>
        <time>2025-09-13T19:34:14+02:00</time>
      </trkpt>
      <trkpt lat="42.77382" lon="1.33725">
        <ele>1327.4004</ele>
        <time>2025-09-13T19:34:15+02:00</time>
      </trkpt>
      <trkpt lat="42.77383" lon="1.33727">
        <ele>1327.4004</ele>
        <time>2025-09-13T19:34:19+02:00</time>
      </trkpt>
      <trkpt lat="42.77383" lon="1.33727">
        <ele>1327.4004</ele>
        <time>2025-09-13T19:34:20+02:00</time>
      </trkpt>
      <trkpt lat="42.77385" lon="1.33727">
        <ele>1327.4004</ele>
        <time>2025-09-13T19:34:24+02:00</time>
      </trkpt>
      <trkpt lat="42.77385" lon="1.33726">
        <ele>1327.4004</ele>
        <time>2025-09-13T19:34:25+02:00</time>
      </trkpt>
      <trkpt lat="42.77388" lon="1.33723">
        <ele>1325.5</ele>
        <time>2025-09-13T19:34:29+02:00</time>
      </trkpt>
      <trkpt lat="42.77389" lon="1.33722">
        <ele>1325.5</ele>
        <time>2025-09-13T19:34:30+02:00</time>
      </trkpt>
      <trkpt lat="42.77391" lon="1.33716">
        <ele>1325.5</ele>
        <time>2025-09-13T19:34:34+02:00</time>
      </trkpt>
      <trkpt lat="42.77391" lon="1.33715">
        <ele>1325.7002</ele>
        <time>2025-09-13T19:34:35+02:00</time>
      </trkpt>
      <trkpt lat="42.77395" lon="1.33715">
        <ele>1323.6006</ele>
        <time>2025-09-13T19:34:39+02:00</time>
      </trkpt>
      <trkpt lat="42.77395" lon="1.33716">
        <ele>1323.4004</ele>
        <time>2025-09-13T19:34:40+02:00</time>
      </trkpt>
      <trkpt lat="42.77398" lon="1.33722">
        <ele>1323.4004</ele>
        <time>2025-09-13T19:34:44+02:00</time>
      </trkpt>
      <trkpt lat="42.77398" lon="1.33723">
        <ele>1323.4004</ele>
        <time>2025-09-13T19:34:45+02:00</time>
      </trkpt>
      <trkpt lat="42.77398" lon="1.3373">
        <ele>1323.2002</ele>
        <time>2025-09-13T19:34:49+02:00</time>
      </trkpt>
      <trkpt lat="42.77398" lon="1.33732">
        <ele>1323.2002</ele>
        <time>2025-09-13T19:34:50+02:00</time>
      </trkpt>
      <trkpt lat="42.77401" lon="1.33737">
        <ele>1321.1006</ele>
        <time>2025-09-13T19:34:54+02:00</time>
      </trkpt>
      <trkpt lat="42.77401" lon="1.33737">
        <ele>1321.1006</ele>
        <time>2025-09-13T19:34:55+02:00</time>
      </trkpt>
      <trkpt lat="42.77405" lon="1.3374">
        <ele>1319.2998</ele>
        <time>2025-09-13T19:34:59+02:00</time>
      </trkpt>
      <trkpt lat="42.77405" lon="1.3374">
        <ele>1319.2998</ele>
        <time>2025-09-13T19:35:00+02:00</time>
      </trkpt>
      <trkpt lat="42.77408" lon="1.33742">
        <ele>1319.2002</ele>
        <time>2025-09-13T19:35:04+02:00</time>
      </trkpt>
      <trkpt lat="42.77409" lon="1.33742">
        <ele>1319.2002</ele>
        <time>2025-09-13T19:35:05+02:00</time>
      </trkpt>
      <trkpt lat="42.77411" lon="1.33745">
        <ele>1319.2002</ele>
        <time>2025-09-13T19:35:09+02:00</time>
      </trkpt>
      <trkpt lat="42.77412" lon="1.33746">
        <ele>1317.5</ele>
        <time>2025-09-13T19:35:10+02:00</time>
      </trkpt>
      <trkpt lat="42.77414" lon="1.33746">
        <ele>1317.5</ele>
        <time>2025-09-13T19:35:14+02:00</time>
      </trkpt>
      <trkpt lat="42.77415" lon="1.33746">
        <ele>1317.5</ele>
        <time>2025-09-13T19:35:15+02:00</time>
      </trkpt>
      <trkpt lat="42.77417" lon="1.33747">
        <ele>1317.5</ele>
        <time>2025-09-13T19:35:19+02:00</time>
      </trkpt>
      <trkpt lat="42.77417" lon="1.33747">
        <ele>1317.5</ele>
        <time>2025-09-13T19:35:20+02:00</time>
      </trkpt>
      <trkpt lat="42.7742" lon="1.33747">
        <ele>1316</ele>
        <time>2025-09-13T19:35:24+02:00</time>
      </trkpt>
      <trkpt lat="42.7742" lon="1.33747">
        <ele>1316</ele>
        <time>2025-09-13T19:35:25+02:00</time>
      </trkpt>
      <trkpt lat="42.77422" lon="1.33746">
        <ele>1316</ele>
        <time>2025-09-13T19:35:29+02:00</time>
      </trkpt>
      <trkpt lat="42.77422" lon="1.33746">
        <ele>1316</ele>
        <time>2025-09-13T19:35:30+02:00</time>
      </trkpt>
      <trkpt lat="42.77423" lon="1.33745">
        <ele>1316</ele>
        <time>2025-09-13T19:35:34+02:00</time>
      </trkpt>
      <trkpt lat="42.77423" lon="1.33745">
        <ele>1316</ele>
        <time>2025-09-13T19:35:35+02:00</time>
      </trkpt>
      <trkpt lat="42.77423" lon="1.33744">
        <ele>1316</ele>
        <time>2025-09-13T19:35:39+02:00</time>
      </trkpt>
      <trkpt lat="42.77423" lon="1.33744">
        <ele>1316</ele>
        <time>2025-09-13T19:35:40+02:00</time>
      </trkpt>
      <trkpt lat="42.77424" lon="1.33745">
        <ele>1314.6006</ele>
        <time>2025-09-13T19:35:44+02:00</time>
      </trkpt>
      <trkpt lat="42.77424" lon="1.33745">
        <ele>1314.6006</ele>
        <time>2025-09-13T19:35:45+02:00</time>
      </trkpt>
      <trkpt lat="42.77425" lon="1.33747">
        <ele>1314.6006</ele>
        <time>2025-09-13T19:35:49+02:00</time>
      </trkpt>
      <trkpt lat="42.77425" lon="1.33747">
        <ele>1314.6006</ele>
        <time>2025-09-13T19:35:50+02:00</time>
      </trkpt>
      <trkpt lat="42.77427" lon="1.33746">
        <ele>1314.6006</ele>
        <time>2025-09-13T19:35:54+02:00</time>
      </trkpt>
      <trkpt lat="42.77429" lon="1.33747">
        <ele>1314.6006</ele>
        <time>2025-09-13T19:35:55+02:00</time>
      </trkpt>
      <trkpt lat="42.77433" lon="1.3375">
        <ele>1313.2998</ele>
        <time>2025-09-13T19:35:59+02:00</time>
      </trkpt>
      <trkpt lat="42.77434" lon="1.3375">
        <ele>1313.4004</ele>
        <time>2025-09-13T19:36:00+02:00</time>
      </trkpt>
      <trkpt lat="42.77435" lon="1.33752">
        <ele>1313.4004</ele>
        <time>2025-09-13T19:36:04+02:00</time>
      </trkpt>
      <trkpt lat="42.77435" lon="1.33753">
        <ele>1313.4004</ele>
        <time>2025-09-13T19:36:05+02:00</time>
      </trkpt>
      <trkpt lat="42.77438" lon="1.33755">
        <ele>1312.2002</ele>
        <time>2025-09-13T19:36:09+02:00</time>
      </trkpt>
      <trkpt lat="42.77438" lon="1.33756">
        <ele>1312.2002</ele>
        <time>2025-09-13T19:36:10+02:00</time>
      </trkpt>
      <trkpt lat="42.77441" lon="1.33756">
        <ele>1312.2002</ele>
        <time>2025-09-13T19:36:14+02:00</time>
      </trkpt>
      <trkpt lat="42.77442" lon="1.33756">
        <ele>1312.2002</ele>
        <time>2025-09-13T19:36:15+02:00</time>
      </trkpt>
      <trkpt lat="42.77444" lon="1.33756">
        <ele>1311.1006</ele>
        <time>2025-09-13T19:36:19+02:00</time>
      </trkpt>
      <trkpt lat="42.77445" lon="1.33756">
        <ele>1311.1006</ele>
        <time>2025-09-13T19:36:20+02:00</time>
      </trkpt>
      <trkpt lat="42.77449" lon="1.33754">
        <ele>1311.1006</ele>
        <time>2025-09-13T19:36:24+02:00</time>
      </trkpt>
      <trkpt lat="42.7745" lon="1.33753">
        <ele>1309.9004</ele>
        <time>2025-09-13T19:36:25+02:00</time>
      </trkpt>
      <trkpt lat="42.77454" lon="1.3375">
        <ele>1309.9004</ele>
        <time>2025-09-13T19:36:29+02:00</time>
      </trkpt>
      <trkpt lat="42.77455" lon="1.33749">
        <ele>1309.7002</ele>
        <time>2025-09-13T19:36:30+02:00</time>
      </trkpt>
      <trkpt lat="42.77456" lon="1.33745">
        <ele>1308.5</ele>
        <time>2025-09-13T19:36:34+02:00</time>
      </trkpt>
      <trkpt lat="42.77457" lon="1.33744">
        <ele>1308.5</ele>
        <time>2025-09-13T19:36:35+02:00</time>
      </trkpt>
      <trkpt lat="42.7746" lon="1.33743">
        <ele>1308.5</ele>
        <time>2025-09-13T19:36:39+02:00</time>
      </trkpt>
      <trkpt lat="42.77461" lon="1.33742">
        <ele>1308.5</ele>
        <time>2025-09-13T19:36:40+02:00</time>
      </trkpt>
      <trkpt lat="42.77461" lon="1.33735">
        <ele>1308.4004</ele>
        <time>2025-09-13T19:36:44+02:00</time>
      </trkpt>
      <trkpt lat="42.77461" lon="1.33734">
        <ele>1308.4004</ele>
        <time>2025-09-13T19:36:45+02:00</time>
      </trkpt>
      <trkpt lat="42.77461" lon="1.33729">
        <ele>1308.4004</ele>
        <time>2025-09-13T19:36:49+02:00</time>
      </trkpt>
      <trkpt lat="42.77461" lon="1.33728">
        <ele>1307.5</ele>
        <time>2025-09-13T19:36:50+02:00</time>
      </trkpt>
      <trkpt lat="42.77463" lon="1.33725">
        <ele>1307.5</ele>
        <time>2025-09-13T19:36:54+02:00</time>
      </trkpt>
      <trkpt lat="42.77463" lon="1.33724">
        <ele>1307.5</ele>
        <time>2025-09-13T19:36:55+02:00</time>
      </trkpt>
      <trkpt lat="42.77465" lon="1.3372">
        <ele>1307.5</ele>
        <time>2025-09-13T19:36:59+02:00</time>
      </trkpt>
      <trkpt lat="42.77466" lon="1.33719">
        <ele>1307.5</ele>
        <time>2025-09-13T19:37:00+02:00</time>
      </trkpt>
      <trkpt lat="42.77468" lon="1.33714">
        <ele>1306.7998</ele>
        <time>2025-09-13T19:37:04+02:00</time>
      </trkpt>
      <trkpt lat="42.77469" lon="1.33714">
        <ele>1306.7998</ele>
        <time>2025-09-13T19:37:05+02:00</time>
      </trkpt>
      <trkpt lat="42.77471" lon="1.3371">
        <ele>1306.7998</ele>
        <time>2025-09-13T19:37:09+02:00</time>
      </trkpt>
      <trkpt lat="42.77471" lon="1.33709">
        <ele>1306.7998</ele>
        <time>2025-09-13T19:37:10+02:00</time>
      </trkpt>
      <trkpt lat="42.77472" lon="1.33705">
        <ele>1306.7002</ele>
        <time>2025-09-13T19:37:14+02:00</time>
      </trkpt>
      <trkpt lat="42.77473" lon="1.33704">
        <ele>1306.7002</ele>
        <time>2025-09-13T19:37:15+02:00</time>
      </trkpt>
      <trkpt lat="42.77477" lon="1.337">
        <ele>1306.1006</ele>
        <time>2025-09-13T19:37:19+02:00</time>
      </trkpt>
      <trkpt lat="42.77478" lon="1.337">
        <ele>1306.1006</ele>
        <time>2025-09-13T19:37:20+02:00</time>
      </trkpt>
      <trkpt lat="42.77483" lon="1.33697">
        <ele>1305.2002</ele>
        <time>2025-09-13T19:37:24+02:00</time>
      </trkpt>
      <trkpt lat="42.77484" lon="1.33697">
        <ele>1305.2002</ele>
        <time>2025-09-13T19:37:25+02:00</time>
      </trkpt>
      <trkpt lat="42.77487" lon="1.33695">
        <ele>1304.7002</ele>
        <time>2025-09-13T19:37:29+02:00</time>
      </trkpt>
      <trkpt lat="42.77488" lon="1.33695">
        <ele>1304.7002</ele>
        <time>2025-09-13T19:37:30+02:00</time>
      </trkpt>
      <trkpt lat="42.77492" lon="1.33695">
        <ele>1304.7002</ele>
        <time>2025-09-13T19:37:34+02:00</time>
      </trkpt>
      <trkpt lat="42.77492" lon="1.33695">
        <ele>1304.7002</ele>
        <time>2025-09-13T19:37:35+02:00</time>
      </trkpt>
      <trkpt lat="42.77496" lon="1.33695">
        <ele>1304.2002</ele>
        <time>2025-09-13T19:37:39+02:00</time>
      </trkpt>
      <trkpt lat="42.77497" lon="1.33694">
        <ele>1304.2002</ele>
        <time>2025-09-13T19:37:40+02:00</time>
      </trkpt>
      <trkpt lat="42.775" lon="1.33692">
        <ele>1303.7998</ele>
        <time>2025-09-13T19:37:44+02:00</time>
      </trkpt>
      <trkpt lat="42.77501" lon="1.33692">
        <ele>1303.7998</ele>
        <time>2025-09-13T19:37:45+02:00</time>
      </trkpt>
      <trkpt lat="42.77503" lon="1.33687">
        <ele>1303.2002</ele>
        <time>2025-09-13T19:37:49+02:00</time>
      </trkpt>
      <trkpt lat="42.77504" lon="1.33686">
        <ele>1303.2002</ele>
        <time>2025-09-13T19:37:50+02:00</time>
      </trkpt>
      <trkpt lat="42.77506" lon="1.33682">
        <ele>1302.7998</ele>
        <time>2025-09-13T19:37:54+02:00</time>
      </trkpt>
      <trkpt lat="42.77506" lon="1.33682">
        <ele>1302.7998</ele>
        <time>2025-09-13T19:37:55+02:00</time>
      </trkpt>
      <trkpt lat="42.7751" lon="1.33679">
        <ele>1302.2002</ele>
        <time>2025-09-13T19:37:59+02:00</time>
      </trkpt>
      <trkpt lat="42.77511" lon="1.33678">
        <ele>1302.2002</ele>
        <time>2025-09-13T19:38:00+02:00</time>
      </trkpt>
      <trkpt lat="42.77514" lon="1.33676">
        <ele>1301.7998</ele>
        <time>2025-09-13T19:38:04+02:00</time>
      </trkpt>
      <trkpt lat="42.77515" lon="1.33675">
        <ele>1301.7998</ele>
        <time>2025-09-13T19:38:05+02:00</time>
      </trkpt>
      <trkpt lat="42.77518" lon="1.33671">
        <ele>1301.1006</ele>
        <time>2025-09-13T19:38:09+02:00</time>
      </trkpt>
      <trkpt lat="42.77518" lon="1.3367">
        <ele>1300.7002</ele>
        <time>2025-09-13T19:38:10+02:00</time>
      </trkpt>
      <trkpt lat="42.7752" lon="1.33666">
        <ele>1300.7002</ele>
        <time>2025-09-13T19:38:14+02:00</time>
      </trkpt>
      <trkpt lat="42.77521" lon="1.33665">
        <ele>1300.7002</ele>
        <time>2025-09-13T19:38:15+02:00</time>
      </trkpt>
      <trkpt lat="42.77525" lon="1.33663">
        <ele>1299.5</ele>
        <time>2025-09-13T19:38:19+02:00</time>
      </trkpt>
      <trkpt lat="42.77526" lon="1.33664">
        <ele>1299.5</ele>
        <time>2025-09-13T19:38:20+02:00</time>
      </trkpt>
      <trkpt lat="42.77529" lon="1.33666">
        <ele>1300.2998</ele>
        <time>2025-09-13T19:38:24+02:00</time>
      </trkpt>
      <trkpt lat="42.7753" lon="1.33666">
        <ele>1300.2998</ele>
        <time>2025-09-13T19:38:25+02:00</time>
      </trkpt>
      <trkpt lat="42.77533" lon="1.33666">
        <ele>1300</ele>
        <time>2025-09-13T19:38:29+02:00</time>
      </trkpt>
      <trkpt lat="42.77534" lon="1.33665">
        <ele>1300</ele>
        <time>2025-09-13T19:38:30+02:00</time>
      </trkpt>
      <trkpt lat="42.77537" lon="1.33666">
        <ele>1299.6006</ele>
        <time>2025-09-13T19:38:34+02:00</time>
      </trkpt>
      <trkpt lat="42.77538" lon="1.33666">
        <ele>1299.6006</ele>
        <time>2025-09-13T19:38:35+02:00</time>
      </trkpt>
      <trkpt lat="42.77541" lon="1.33667">
        <ele>1299.6006</ele>
        <time>2025-09-13T19:38:39+02:00</time>
      </trkpt>
      <trkpt lat="42.77542" lon="1.33667">
        <ele>1299.6006</ele>
        <time>2025-09-13T19:38:40+02:00</time>
      </trkpt>
      <trkpt lat="42.77545" lon="1.33667">
        <ele>1299.2998</ele>
        <time>2025-09-13T19:38:44+02:00</time>
      </trkpt>
      <trkpt lat="42.77546" lon="1.33667">
        <ele>1299.2998</ele>
        <time>2025-09-13T19:38:45+02:00</time>
      </trkpt>
      <trkpt lat="42.7755" lon="1.33667">
        <ele>1299.2998</ele>
        <time>2025-09-13T19:38:49+02:00</time>
      </trkpt>
      <trkpt lat="42.77551" lon="1.33667">
        <ele>1299.1006</ele>
        <time>2025-09-13T19:38:50+02:00</time>
      </trkpt>
      <trkpt lat="42.77554" lon="1.33664">
        <ele>1298</ele>
        <time>2025-09-13T19:38:54+02:00</time>
      </trkpt>
      <trkpt lat="42.77555" lon="1.33662">
        <ele>1298</ele>
        <time>2025-09-13T19:38:55+02:00</time>
      </trkpt>
      <trkpt lat="42.77555" lon="1.3366">
        <ele>1298</ele>
        <time>2025-09-13T19:38:59+02:00</time>
      </trkpt>
      <trkpt lat="42.77554" lon="1.33659">
        <ele>1298</ele>
        <time>2025-09-13T19:39:00+02:00</time>
      </trkpt>
      <trkpt lat="42.77554" lon="1.33658">
        <ele>1298</ele>
        <time>2025-09-13T19:39:04+02:00</time>
      </trkpt>
      <trkpt lat="42.77555" lon="1.33658">
        <ele>1298</ele>
        <time>2025-09-13T19:39:05+02:00</time>
      </trkpt>
      <trkpt lat="42.77555" lon="1.33657">
        <ele>1298</ele>
        <time>2025-09-13T19:39:09+02:00</time>
      </trkpt>
      <trkpt lat="42.77556" lon="1.33657">
        <ele>1298</ele>
        <time>2025-09-13T19:39:10+02:00</time>
      </trkpt>
      <trkpt lat="42.77556" lon="1.33657">
        <ele>1297.7998</ele>
        <time>2025-09-13T19:39:14+02:00</time>
      </trkpt>
      <trkpt lat="42.77556" lon="1.33657">
        <ele>1297.7998</ele>
        <time>2025-09-13T19:39:15+02:00</time>
      </trkpt>
      <trkpt lat="42.77556" lon="1.33657">
        <ele>1297.7998</ele>
        <time>2025-09-13T19:39:19+02:00</time>
      </trkpt>
      <trkpt lat="42.77556" lon="1.33657">
        <ele>1297.7998</ele>
        <time>2025-09-13T19:39:20+02:00</time>
      </trkpt>
      <trkpt lat="42.77557" lon="1.33656">
        <ele>1297.7998</ele>
        <time>2025-09-13T19:39:24+02:00</time>
      </trkpt>
      <trkpt lat="42.77557" lon="1.33656">
        <ele>1297.7998</ele>
        <time>2025-09-13T19:39:25+02:00</time>
      </trkpt>
      <trkpt lat="42.77557" lon="1.33656">
        <ele>1297.7998</ele>
        <time>2025-09-13T19:39:29+02:00</time>
      </trkpt>
      <trkpt lat="42.77556" lon="1.33656">
        <ele>1297.7998</ele>
        <time>2025-09-13T19:39:30+02:00</time>
      </trkpt>
      <trkpt lat="42.77556" lon="1.33656">
        <ele>1297.7998</ele>
        <time>2025-09-13T19:39:34+02:00</time>
      </trkpt>
      <trkpt lat="42.77556" lon="1.33656">
        <ele>1297.7998</ele>
        <time>2025-09-13T19:39:35+02:00</time>
      </trkpt>
      <trkpt lat="42.77557" lon="1.33655">
        <ele>1296.5</ele>
        <time>2025-09-13T19:39:39+02:00</time>
      </trkpt>
      <trkpt lat="42.77557" lon="1.33655">
        <ele>1296.5</ele>
        <time>2025-09-13T19:39:40+02:00</time>
      </trkpt>
      <trkpt lat="42.77557" lon="1.33655">
        <ele>1296.5</ele>
        <time>2025-09-13T19:39:44+02:00</time>
      </trkpt>
      <trkpt lat="42.77557" lon="1.33655">
        <ele>1296.5</ele>
        <time>2025-09-13T19:39:45+02:00</time>
      </trkpt>
      <trkpt lat="42.77557" lon="1.33655">
        <ele>1296.5</ele>
        <time>2025-09-13T19:39:49+02:00</time>
      </trkpt>
      <trkpt lat="42.77557" lon="1.33655">
        <ele>1296.5</ele>
        <time>2025-09-13T19:39:50+02:00</time>
      </trkpt>
      <trkpt lat="42.77557" lon="1.33655">
        <ele>1296.5</ele>
        <time>2025-09-13T19:39:54+02:00</time>
      </trkpt>
      <trkpt lat="42.77557" lon="1.33655">
        <ele>1296.5</ele>
        <time>2025-09-13T19:39:55+02:00</time>
      </trkpt>
      <trkpt lat="42.77557" lon="1.33655">
        <ele>1296.5</ele>
        <time>2025-09-13T19:39:59+02:00</time>
      </trkpt>
      <trkpt lat="42.77557" lon="1.33655">
        <ele>1296.5</ele>
        <time>2025-09-13T19:40:00+02:00</time>
      </trkpt>
      <trkpt lat="42.77557" lon="1.33656">
        <ele>1297.7998</ele>
        <time>2025-09-13T19:40:04+02:00</time>
      </trkpt>
      <trkpt lat="42.77557" lon="1.33656">
        <ele>1297.7998</ele>
        <time>2025-09-13T19:40:05+02:00</time>
      </trkpt>
      <trkpt lat="42.77557" lon="1.33657">
        <ele>1297.7998</ele>
        <time>2025-09-13T19:40:09+02:00</time>
      </trkpt>
      <trkpt lat="42.77557" lon="1.33657">
        <ele>1297.7998</ele>
        <time>2025-09-13T19:40:10+02:00</time>
      </trkpt>
      <trkpt lat="42.77557" lon="1.33656">
        <ele>1297.7998</ele>
        <time>2025-09-13T19:40:14+02:00</time>
      </trkpt>
      <trkpt lat="42.77557" lon="1.33656">
        <ele>1296.5</ele>
        <time>2025-09-13T19:40:15+02:00</time>
      </trkpt>
      <trkpt lat="42.77557" lon="1.33655">
        <ele>1296.5</ele>
        <time>2025-09-13T19:40:19+02:00</time>
      </trkpt>
      <trkpt lat="42.77557" lon="1.33655">
        <ele>1296.5</ele>
        <time>2025-09-13T19:40:20+02:00</time>
      </trkpt>
      <trkpt lat="42.77557" lon="1.33655">
        <ele>1296.5</ele>
        <time>2025-09-13T19:40:24+02:00</time>
      </trkpt>
      <trkpt lat="42.77557" lon="1.33655">
        <ele>1296.5</ele>
        <time>2025-09-13T19:40:25+02:00</time>
      </trkpt>
      <trkpt lat="42.77558" lon="1.33654">
        <ele>1296.5</ele>
        <time>2025-09-13T19:40:29+02:00</time>
      </trkpt>
      <trkpt lat="42.77558" lon="1.33654">
        <ele>1296.5</ele>
        <time>2025-09-13T19:40:30+02:00</time>
      </trkpt>
      <trkpt lat="42.77562" lon="1.33652">
        <ele>1296.5</ele>
        <time>2025-09-13T19:40:34+02:00</time>
      </trkpt>
      <trkpt lat="42.77563" lon="1.33651">
        <ele>1296.2002</ele>
        <time>2025-09-13T19:40:35+02:00</time>
      </trkpt>
      <trkpt lat="42.77568" lon="1.3365">
        <ele>1296.2002</ele>
        <time>2025-09-13T19:40:39+02:00</time>
      </trkpt>
      <trkpt lat="42.77569" lon="1.3365">
        <ele>1295.9004</ele>
        <time>2025-09-13T19:40:40+02:00</time>
      </trkpt>
      <trkpt lat="42.77572" lon="1.33647">
        <ele>1295.9004</ele>
        <time>2025-09-13T19:40:44+02:00</time>
      </trkpt>
      <trkpt lat="42.77573" lon="1.33646">
        <ele>1294.4004</ele>
        <time>2025-09-13T19:40:45+02:00</time>
      </trkpt>
      <trkpt lat="42.77576" lon="1.33645">
        <ele>1293.9004</ele>
        <time>2025-09-13T19:40:49+02:00</time>
      </trkpt>
      <trkpt lat="42.77577" lon="1.33645">
        <ele>1293.9004</ele>
        <time>2025-09-13T19:40:50+02:00</time>
      </trkpt>
      <trkpt lat="42.7758" lon="1.33644">
        <ele>1293.9004</ele>
        <time>2025-09-13T19:40:54+02:00</time>
      </trkpt>
      <trkpt lat="42.77582" lon="1.33643">
        <ele>1293.2998</ele>
        <time>2025-09-13T19:40:55+02:00</time>
      </trkpt>
      <trkpt lat="42.77586" lon="1.33645">
        <ele>1293.2998</ele>
        <time>2025-09-13T19:40:59+02:00</time>
      </trkpt>
      <trkpt lat="42.77587" lon="1.33646">
        <ele>1293.2998</ele>
        <time>2025-09-13T19:41:00+02:00</time>
      </trkpt>
      <trkpt lat="42.77591" lon="1.3365">
        <ele>1294.2002</ele>
        <time>2025-09-13T19:41:04+02:00</time>
      </trkpt>
      <trkpt lat="42.77591" lon="1.33651">
        <ele>1294.2002</ele>
        <time>2025-09-13T19:41:05+02:00</time>
      </trkpt>
      <trkpt lat="42.77593" lon="1.33657">
        <ele>1295.7998</ele>
        <time>2025-09-13T19:41:09+02:00</time>
      </trkpt>
      <trkpt lat="42.77593" lon="1.33659">
        <ele>1295.7998</ele>
        <time>2025-09-13T19:41:10+02:00</time>
      </trkpt>
      <trkpt lat="42.77593" lon="1.3366">
        <ele>1295.7998</ele>
        <time>2025-09-13T19:41:14+02:00</time>
      </trkpt>
      <trkpt lat="42.77593" lon="1.3366">
        <ele>1295.7998</ele>
        <time>2025-09-13T19:41:15+02:00</time>
      </trkpt>
      <trkpt lat="42.77592" lon="1.3366">
        <ele>1295.7998</ele>
        <time>2025-09-13T19:41:19+02:00</time>
      </trkpt>
      <trkpt lat="42.77592" lon="1.3366">
        <ele>1295.7998</ele>
        <time>2025-09-13T19:41:20+02:00</time>
      </trkpt>
      <trkpt lat="42.77592" lon="1.3366">
        <ele>1295.7998</ele>
        <time>2025-09-13T19:41:24+02:00</time>
      </trkpt>
      <trkpt lat="42.77592" lon="1.3366">
        <ele>1295.7998</ele>
        <time>2025-09-13T19:41:25+02:00</time>
      </trkpt>
      <trkpt lat="42.77593" lon="1.33661">
        <ele>1295.7998</ele>
        <time>2025-09-13T19:41:29+02:00</time>
      </trkpt>
      <trkpt lat="42.77593" lon="1.33662">
        <ele>1295.7998</ele>
        <time>2025-09-13T19:41:30+02:00</time>
      </trkpt>
      <trkpt lat="42.77595" lon="1.33663">
        <ele>1295.2002</ele>
        <time>2025-09-13T19:41:34+02:00</time>
      </trkpt>
      <trkpt lat="42.77595" lon="1.33663">
        <ele>1295.2002</ele>
        <time>2025-09-13T19:41:35+02:00</time>
      </trkpt>
      <trkpt lat="42.77595" lon="1.33663">
        <ele>1295.2002</ele>
        <time>2025-09-13T19:41:39+02:00</time>
      </trkpt>
      <trkpt lat="42.77595" lon="1.33663">
        <ele>1295.2002</ele>
        <time>2025-09-13T19:41:40+02:00</time>
      </trkpt>
      <trkpt lat="42.77595" lon="1.33663">
        <ele>1295.2002</ele>
        <time>2025-09-13T19:41:44+02:00</time>
      </trkpt>
      <trkpt lat="42.77595" lon="1.33663">
        <ele>1295.2002</ele>
        <time>2025-09-13T19:41:45+02:00</time>
      </trkpt>
      <trkpt lat="42.77595" lon="1.33663">
        <ele>1295.2002</ele>
        <time>2025-09-13T19:41:49+02:00</time>
      </trkpt>
      <trkpt lat="42.77595" lon="1.33663">
        <ele>1295.2002</ele>
        <time>2025-09-13T19:41:50+02:00</time>
      </trkpt>
      <trkpt lat="42.77595" lon="1.33663">
        <ele>1295.2002</ele>
        <time>2025-09-13T19:41:54+02:00</time>
      </trkpt>
      <trkpt lat="42.77595" lon="1.33663">
        <ele>1295.2002</ele>
        <time>2025-09-13T19:41:55+02:00</time>
      </trkpt>
      <trkpt lat="42.77595" lon="1.33663">
        <ele>1295.2002</ele>
        <time>2025-09-13T19:41:59+02:00</time>
      </trkpt>
      <trkpt lat="42.77595" lon="1.33663">
        <ele>1295.2002</ele>
        <time>2025-09-13T19:42:00+02:00</time>
      </trkpt>
      <trkpt lat="42.77595" lon="1.33663">
        <ele>1295.2002</ele>
        <time>2025-09-13T19:42:04+02:00</time>
      </trkpt>
      <trkpt lat="42.77595" lon="1.33663">
        <ele>1295.2002</ele>
        <time>2025-09-13T19:42:05+02:00</time>
      </trkpt>
      <trkpt lat="42.77595" lon="1.33663">
        <ele>1295.2002</ele>
        <time>2025-09-13T19:42:09+02:00</time>
      </trkpt>
      <trkpt lat="42.77595" lon="1.33663">
        <ele>1295.2002</ele>
        <time>2025-09-13T19:42:10+02:00</time>
      </trkpt>
      <trkpt lat="42.77595" lon="1.33663">
        <ele>1295.2002</ele>
        <time>2025-09-13T19:42:14+02:00</time>
      </trkpt>
      <trkpt lat="42.77595" lon="1.33663">
        <ele>1295.2002</ele>
        <time>2025-09-13T19:42:15+02:00</time>
      </trkpt>
      <trkpt lat="42.77595" lon="1.33663">
        <ele>1295.2002</ele>
        <time>2025-09-13T19:42:19+02:00</time>
      </trkpt>
      <trkpt lat="42.77595" lon="1.33663">
        <ele>1295.2002</ele>
        <time>2025-09-13T19:42:20+02:00</time>
      </trkpt>
      <trkpt lat="42.77595" lon="1.33663">
        <ele>1295.2002</ele>
        <time>2025-09-13T19:42:24+02:00</time>
      </trkpt>
      <trkpt lat="42.77595" lon="1.33663">
        <ele>1295.2002</ele>
        <time>2025-09-13T19:42:25+02:00</time>
      </trkpt>
      <trkpt lat="42.77595" lon="1.33663">
        <ele>1295.2002</ele>
        <time>2025-09-13T19:42:29+02:00</time>
      </trkpt>
      <trkpt lat="42.77595" lon="1.33663">
        <ele>1295.2002</ele>
        <time>2025-09-13T19:42:30+02:00</time>
      </trkpt>
      <trkpt lat="42.77595" lon="1.33663">
        <ele>1295.2002</ele>
        <time>2025-09-13T19:42:34+02:00</time>
      </trkpt>
      <trkpt lat="42.77595" lon="1.33663">
        <ele>1295.2002</ele>
        <time>2025-09-13T19:42:35+02:00</time>
      </trkpt>
      <trkpt lat="42.77595" lon="1.33663">
        <ele>1295.2002</ele>
        <time>2025-09-13T19:42:39+02:00</time>
      </trkpt>
      <trkpt lat="42.77595" lon="1.33663">
        <ele>1295.2002</ele>
        <time>2025-09-13T19:42:40+02:00</time>
      </trkpt>
      <trkpt lat="42.77595" lon="1.33663">
        <ele>1295.2002</ele>
        <time>2025-09-13T19:42:44+02:00</time>
      </trkpt>
      <trkpt lat="42.77595" lon="1.33663">
        <ele>1295.2002</ele>
        <time>2025-09-13T19:42:45+02:00</time>
      </trkpt>
      <trkpt lat="42.77595" lon="1.33663">
        <ele>1295.2002</ele>
        <time>2025-09-13T19:42:49+02:00</time>
      </trkpt>
      <trkpt lat="42.77595" lon="1.33663">
        <ele>1295.2002</ele>
        <time>2025-09-13T19:42:50+02:00</time>
      </trkpt>
      <trkpt lat="42.77595" lon="1.33663">
        <ele>1295.2002</ele>
        <time>2025-09-13T19:42:54+02:00</time>
      </trkpt>
      <trkpt lat="42.77595" lon="1.33663">
        <ele>1295.2002</ele>
        <time>2025-09-13T19:42:55+02:00</time>
      </trkpt>
      <trkpt lat="42.77595" lon="1.33663">
        <ele>1295.2002</ele>
        <time>2025-09-13T19:42:59+02:00</time>
      </trkpt>
      <trkpt lat="42.77595" lon="1.33663">
        <ele>1295.2002</ele>
        <time>2025-09-13T19:43:00+02:00</time>
      </trkpt>
      <trkpt lat="42.77595" lon="1.33663">
        <ele>1295.2002</ele>
        <time>2025-09-13T19:43:04+02:00</time>
      </trkpt>
      <trkpt lat="42.77595" lon="1.33663">
        <ele>1295.2002</ele>
        <time>2025-09-13T19:43:05+02:00</time>
      </trkpt>
      <trkpt lat="42.77595" lon="1.33663">
        <ele>1295.2002</ele>
        <time>2025-09-13T19:43:09+02:00</time>
      </trkpt>
      <trkpt lat="42.77595" lon="1.33663">
        <ele>1295.2002</ele>
        <time>2025-09-13T19:43:10+02:00</time>
      </trkpt>
      <trkpt lat="42.77596" lon="1.33663">
        <ele>1295.2002</ele>
        <time>2025-09-13T19:43:14+02:00</time>
      </trkpt>
      <trkpt lat="42.77597" lon="1.33664">
        <ele>1295.2002</ele>
        <time>2025-09-13T19:43:15+02:00</time>
      </trkpt>
      <trkpt lat="42.77599" lon="1.33666">
        <ele>1296.7002</ele>
        <time>2025-09-13T19:43:19+02:00</time>
      </trkpt>
      <trkpt lat="42.77599" lon="1.33667">
        <ele>1296.7002</ele>
        <time>2025-09-13T19:43:20+02:00</time>
      </trkpt>
      <trkpt lat="42.77601" lon="1.3367">
        <ele>1296</ele>
        <time>2025-09-13T19:43:24+02:00</time>
      </trkpt>
      <trkpt lat="42.77601" lon="1.33671">
        <ele>1296</ele>
        <time>2025-09-13T19:43:25+02:00</time>
      </trkpt>
      <trkpt lat="42.77603" lon="1.33675">
        <ele>1297.5</ele>
        <time>2025-09-13T19:43:29+02:00</time>
      </trkpt>
      <trkpt lat="42.77603" lon="1.33676">
        <ele>1297.5</ele>
        <time>2025-09-13T19:43:30+02:00</time>
      </trkpt>
      <trkpt lat="42.77603" lon="1.33676">
        <ele>1297.5</ele>
        <time>2025-09-13T19:43:34+02:00</time>
      </trkpt>
      <trkpt lat="42.77603" lon="1.33676">
        <ele>1297.5</ele>
        <time>2025-09-13T19:43:35+02:00</time>
      </trkpt>
      <trkpt lat="42.77603" lon="1.33676">
        <ele>1297.5</ele>
        <time>2025-09-13T19:43:39+02:00</time>
      </trkpt>
      <trkpt lat="42.77604" lon="1.33676">
        <ele>1297.5</ele>
        <time>2025-09-13T19:43:40+02:00</time>
      </trkpt>
      <trkpt lat="42.77605" lon="1.3368">
        <ele>1297.5</ele>
        <time>2025-09-13T19:43:44+02:00</time>
      </trkpt>
      <trkpt lat="42.77605" lon="1.33681">
        <ele>1298.9004</ele>
        <time>2025-09-13T19:43:45+02:00</time>
      </trkpt>
      <trkpt lat="42.77607" lon="1.33687">
        <ele>1298.1006</ele>
        <time>2025-09-13T19:43:49+02:00</time>
      </trkpt>
      <trkpt lat="42.77607" lon="1.33688">
        <ele>1298.1006</ele>
        <time>2025-09-13T19:43:50+02:00</time>
      </trkpt>
      <trkpt lat="42.77609" lon="1.33693">
        <ele>1299.6006</ele>
        <time>2025-09-13T19:43:54+02:00</time>
      </trkpt>
      <trkpt lat="42.77609" lon="1.33694">
        <ele>1299.6006</ele>
        <time>2025-09-13T19:43:55+02:00</time>
      </trkpt>
      <trkpt lat="42.77612" lon="1.33698">
        <ele>1299.6006</ele>
        <time>2025-09-13T19:43:59+02:00</time>
      </trkpt>
      <trkpt lat="42.77613" lon="1.33699">
        <ele>1299.7998</ele>
        <time>2025-09-13T19:44:00+02:00</time>
      </trkpt>
      <trkpt lat="42.77615" lon="1.33703">
        <ele>1299.7998</ele>
        <time>2025-09-13T19:44:04+02:00</time>
      </trkpt>
      <trkpt lat="42.77616" lon="1.33704">
        <ele>1299.7998</ele>
        <time>2025-09-13T19:44:05+02:00</time>
      </trkpt>
      <trkpt lat="42.77618" lon="1.33709">
        <ele>1300.7998</ele>
        <time>2025-09-13T19:44:09+02:00</time>
      </trkpt>
      <trkpt lat="42.77619" lon="1.3371">
        <ele>1300.7998</ele>
        <time>2025-09-13T19:44:10+02:00</time>
      </trkpt>
      <trkpt lat="42.77621" lon="1.33714">
        <ele>1299.9004</ele>
        <time>2025-09-13T19:44:14+02:00</time>
      </trkpt>
      <trkpt lat="42.77621" lon="1.33715">
        <ele>1299.9004</ele>
        <time>2025-09-13T19:44:15+02:00</time>
      </trkpt>
      <trkpt lat="42.77622" lon="1.33716">
        <ele>1300.7002</ele>
        <time>2025-09-13T19:44:19+02:00</time>
      </trkpt>
      <trkpt lat="42.77622" lon="1.33716">
        <ele>1299.9004</ele>
        <time>2025-09-13T19:44:20+02:00</time>
      </trkpt>
      <trkpt lat="42.77622" lon="1.33715">
        <ele>1299.9004</ele>
        <time>2025-09-13T19:44:24+02:00</time>
      </trkpt>
      <trkpt lat="42.77622" lon="1.33715">
        <ele>1299.9004</ele>
        <time>2025-09-13T19:44:25+02:00</time>
      </trkpt>
      <trkpt lat="42.77622" lon="1.33714">
        <ele>1299.9004</ele>
        <time>2025-09-13T19:44:29+02:00</time>
      </trkpt>
      <trkpt lat="42.77622" lon="1.33714">
        <ele>1299.9004</ele>
        <time>2025-09-13T19:44:30+02:00</time>
      </trkpt>
      <trkpt lat="42.77622" lon="1.33715">
        <ele>1299.9004</ele>
        <time>2025-09-13T19:44:34+02:00</time>
      </trkpt>
      <trkpt lat="42.77623" lon="1.33715">
        <ele>1299.9004</ele>
        <time>2025-09-13T19:44:35+02:00</time>
      </trkpt>
      <trkpt lat="42.77625" lon="1.33719">
        <ele>1299.7002</ele>
        <time>2025-09-13T19:44:39+02:00</time>
      </trkpt>
      <trkpt lat="42.77626" lon="1.3372">
        <ele>1299.7002</ele>
        <time>2025-09-13T19:44:40+02:00</time>
      </trkpt>
      <trkpt lat="42.7763" lon="1.33722">
        <ele>1299.7002</ele>
        <time>2025-09-13T19:44:44+02:00</time>
      </trkpt>
      <trkpt lat="42.77631" lon="1.33723">
        <ele>1298.7002</ele>
        <time>2025-09-13T19:44:45+02:00</time>
      </trkpt>
      <trkpt lat="42.77636" lon="1.33726">
        <ele>1299.4004</ele>
        <time>2025-09-13T19:44:49+02:00</time>
      </trkpt>
      <trkpt lat="42.77637" lon="1.33727">
        <ele>1299.4004</ele>
        <time>2025-09-13T19:44:50+02:00</time>
      </trkpt>
      <trkpt lat="42.7764" lon="1.3373">
        <ele>1298.4004</ele>
        <time>2025-09-13T19:44:54+02:00</time>
      </trkpt>
      <trkpt lat="42.77641" lon="1.3373">
        <ele>1298.4004</ele>
        <time>2025-09-13T19:44:55+02:00</time>
      </trkpt>
      <trkpt lat="42.77645" lon="1.33732">
        <ele>1297.5</ele>
        <time>2025-09-13T19:44:59+02:00</time>
      </trkpt>
      <trkpt lat="42.77646" lon="1.33732">
        <ele>1297.5</ele>
        <time>2025-09-13T19:45:00+02:00</time>
      </trkpt>
      <trkpt lat="42.77649" lon="1.33733">
        <ele>1298</ele>
        <time>2025-09-13T19:45:04+02:00</time>
      </trkpt>
      <trkpt lat="42.7765" lon="1.33734">
        <ele>1298</ele>
        <time>2025-09-13T19:45:05+02:00</time>
      </trkpt>
      <trkpt lat="42.77653" lon="1.33735">
        <ele>1297</ele>
        <time>2025-09-13T19:45:09+02:00</time>
      </trkpt>
      <trkpt lat="42.77654" lon="1.33735">
        <ele>1297</ele>
        <time>2025-09-13T19:45:10+02:00</time>
      </trkpt>
      <trkpt lat="42.77657" lon="1.33733">
        <ele>1296.1006</ele>
        <time>2025-09-13T19:45:14+02:00</time>
      </trkpt>
      <trkpt lat="42.77658" lon="1.33733">
        <ele>1296.1006</ele>
        <time>2025-09-13T19:45:15+02:00</time>
      </trkpt>
      <trkpt lat="42.77663" lon="1.33732">
        <ele>1295.5</ele>
        <time>2025-09-13T19:45:19+02:00</time>
      </trkpt>
      <trkpt lat="42.77664" lon="1.33732">
        <ele>1294.5</ele>
        <time>2025-09-13T19:45:20+02:00</time>
      </trkpt>
      <trkpt lat="42.77667" lon="1.33733">
        <ele>1295.1006</ele>
        <time>2025-09-13T19:45:24+02:00</time>
      </trkpt>
      <trkpt lat="42.77668" lon="1.33733">
        <ele>1295.1006</ele>
        <time>2025-09-13T19:45:25+02:00</time>
      </trkpt>
      <trkpt lat="42.77672" lon="1.33735">
        <ele>1294.1006</ele>
        <time>2025-09-13T19:45:29+02:00</time>
      </trkpt>
      <trkpt lat="42.77673" lon="1.33736">
        <ele>1294.1006</ele>
        <time>2025-09-13T19:45:30+02:00</time>
      </trkpt>
      <trkpt lat="42.77676" lon="1.3374">
        <ele>1293.2002</ele>
        <time>2025-09-13T19:45:34+02:00</time>
      </trkpt>
      <trkpt lat="42.77677" lon="1.33741">
        <ele>1293.2002</ele>
        <time>2025-09-13T19:45:35+02:00</time>
      </trkpt>
      <trkpt lat="42.77678" lon="1.33746">
        <ele>1293.6006</ele>
        <time>2025-09-13T19:45:39+02:00</time>
      </trkpt>
      <trkpt lat="42.77679" lon="1.33747">
        <ele>1293.6006</ele>
        <time>2025-09-13T19:45:40+02:00</time>
      </trkpt>
      <trkpt lat="42.77681" lon="1.33751">
        <ele>1293.7002</ele>
        <time>2025-09-13T19:45:44+02:00</time>
      </trkpt>
      <trkpt lat="42.77682" lon="1.33752">
        <ele>1292.7998</ele>
        <time>2025-09-13T19:45:45+02:00</time>
      </trkpt>
      <trkpt lat="42.77686" lon="1.33755">
        <ele>1292.7998</ele>
        <time>2025-09-13T19:45:49+02:00</time>
      </trkpt>
      <trkpt lat="42.77687" lon="1.33756">
        <ele>1292.7998</ele>
        <time>2025-09-13T19:45:50+02:00</time>
      </trkpt>
      <trkpt lat="42.7769" lon="1.33759">
        <ele>1291.7998</ele>
        <time>2025-09-13T19:45:54+02:00</time>
      </trkpt>
      <trkpt lat="42.7769" lon="1.3376">
        <ele>1291.7998</ele>
        <time>2025-09-13T19:45:55+02:00</time>
      </trkpt>
      <trkpt lat="42.77692" lon="1.33763">
        <ele>1291.7998</ele>
        <time>2025-09-13T19:45:59+02:00</time>
      </trkpt>
      <trkpt lat="42.77693" lon="1.33764">
        <ele>1291.7998</ele>
        <time>2025-09-13T19:46:00+02:00</time>
      </trkpt>
      <trkpt lat="42.77695" lon="1.3377">
        <ele>1290.6006</ele>
        <time>2025-09-13T19:46:04+02:00</time>
      </trkpt>
      <trkpt lat="42.77695" lon="1.33771">
        <ele>1290.6006</ele>
        <time>2025-09-13T19:46:05+02:00</time>
      </trkpt>
      <trkpt lat="42.77696" lon="1.33777">
        <ele>1290.2998</ele>
        <time>2025-09-13T19:46:09+02:00</time>
      </trkpt>
      <trkpt lat="42.77697" lon="1.33778">
        <ele>1290.2998</ele>
        <time>2025-09-13T19:46:10+02:00</time>
      </trkpt>
      <trkpt lat="42.77699" lon="1.33782">
        <ele>1290.2998</ele>
        <time>2025-09-13T19:46:14+02:00</time>
      </trkpt>
      <trkpt lat="42.777" lon="1.33783">
        <ele>1290.2998</ele>
        <time>2025-09-13T19:46:15+02:00</time>
      </trkpt>
      <trkpt lat="42.77704" lon="1.33784">
        <ele>1289</ele>
        <time>2025-09-13T19:46:19+02:00</time>
      </trkpt>
      <trkpt lat="42.77704" lon="1.33784">
        <ele>1289</ele>
        <time>2025-09-13T19:46:20+02:00</time>
      </trkpt>
      <trkpt lat="42.77706" lon="1.33784">
        <ele>1289</ele>
        <time>2025-09-13T19:46:24+02:00</time>
      </trkpt>
      <trkpt lat="42.77707" lon="1.33785">
        <ele>1289</ele>
        <time>2025-09-13T19:46:25+02:00</time>
      </trkpt>
      <trkpt lat="42.77711" lon="1.33786">
        <ele>1288.2998</ele>
        <time>2025-09-13T19:46:29+02:00</time>
      </trkpt>
      <trkpt lat="42.77712" lon="1.33786">
        <ele>1288.2998</ele>
        <time>2025-09-13T19:46:30+02:00</time>
      </trkpt>
      <trkpt lat="42.77716" lon="1.33789">
        <ele>1287.6006</ele>
        <time>2025-09-13T19:46:34+02:00</time>
      </trkpt>
      <trkpt lat="42.77716" lon="1.3379">
        <ele>1287.6006</ele>
        <time>2025-09-13T19:46:35+02:00</time>
      </trkpt>
      <trkpt lat="42.77719" lon="1.33793">
        <ele>1287.6006</ele>
        <time>2025-09-13T19:46:39+02:00</time>
      </trkpt>
      <trkpt lat="42.7772" lon="1.33793">
        <ele>1286.6006</ele>
        <time>2025-09-13T19:46:40+02:00</time>
      </trkpt>
      <trkpt lat="42.77722" lon="1.33795">
        <ele>1286.6006</ele>
        <time>2025-09-13T19:46:44+02:00</time>
      </trkpt>
      <trkpt lat="42.77722" lon="1.33795">
        <ele>1286.6006</ele>
        <time>2025-09-13T19:46:45+02:00</time>
      </trkpt>
      <trkpt lat="42.77722" lon="1.33795">
        <ele>1286.6006</ele>
        <time>2025-09-13T19:46:49+02:00</time>
      </trkpt>
      <trkpt lat="42.77722" lon="1.33795">
        <ele>1286.6006</ele>
        <time>2025-09-13T19:46:50+02:00</time>
      </trkpt>
      <trkpt lat="42.77722" lon="1.33795">
        <ele>1286.6006</ele>
        <time>2025-09-13T19:46:54+02:00</time>
      </trkpt>
      <trkpt lat="42.77722" lon="1.33795">
        <ele>1286.6006</ele>
        <time>2025-09-13T19:46:55+02:00</time>
      </trkpt>
      <trkpt lat="42.77722" lon="1.33795">
        <ele>1286.6006</ele>
        <time>2025-09-13T19:46:59+02:00</time>
      </trkpt>
      <trkpt lat="42.77722" lon="1.33795">
        <ele>1286.6006</ele>
        <time>2025-09-13T19:47:00+02:00</time>
      </trkpt>
      <trkpt lat="42.77725" lon="1.33795">
        <ele>1286.6006</ele>
        <time>2025-09-13T19:47:04+02:00</time>
      </trkpt>
      <trkpt lat="42.77726" lon="1.33795">
        <ele>1286.6006</ele>
        <time>2025-09-13T19:47:05+02:00</time>
      </trkpt>
      <trkpt lat="42.77725" lon="1.33794">
        <ele>1286.6006</ele>
        <time>2025-09-13T19:47:09+02:00</time>
      </trkpt>
      <trkpt lat="42.77725" lon="1.33794">
        <ele>1286.6006</ele>
        <time>2025-09-13T19:47:10+02:00</time>
      </trkpt>
      <trkpt lat="42.77725" lon="1.33794">
        <ele>1286.6006</ele>
        <time>2025-09-13T19:47:14+02:00</time>
      </trkpt>
      <trkpt lat="42.77725" lon="1.33794">
        <ele>1286.6006</ele>
        <time>2025-09-13T19:47:15+02:00</time>
      </trkpt>
      <trkpt lat="42.77725" lon="1.33794">
        <ele>1286.6006</ele>
        <time>2025-09-13T19:47:19+02:00</time>
      </trkpt>
      <trkpt lat="42.77725" lon="1.33794">
        <ele>1286.6006</ele>
        <time>2025-09-13T19:47:20+02:00</time>
      </trkpt>
      <trkpt lat="42.77729" lon="1.33792">
        <ele>1286.6006</ele>
        <time>2025-09-13T19:47:24+02:00</time>
      </trkpt>
      <trkpt lat="42.7773" lon="1.33792">
        <ele>1286.6006</ele>
        <time>2025-09-13T19:47:25+02:00</time>
      </trkpt>
      <trkpt lat="42.77733" lon="1.33789">
        <ele>1286.1006</ele>
        <time>2025-09-13T19:47:29+02:00</time>
      </trkpt>
      <trkpt lat="42.77734" lon="1.33789">
        <ele>1286.1006</ele>
        <time>2025-09-13T19:47:30+02:00</time>
      </trkpt>
      <trkpt lat="42.77737" lon="1.33789">
        <ele>1286.1006</ele>
        <time>2025-09-13T19:47:34+02:00</time>
      </trkpt>
      <trkpt lat="42.77737" lon="1.33789">
        <ele>1286.1006</ele>
        <time>2025-09-13T19:47:35+02:00</time>
      </trkpt>
      <trkpt lat="42.77741" lon="1.33788">
        <ele>1285.7002</ele>
        <time>2025-09-13T19:47:39+02:00</time>
      </trkpt>
      <trkpt lat="42.77742" lon="1.33788">
        <ele>1285.7002</ele>
        <time>2025-09-13T19:47:40+02:00</time>
      </trkpt>
      <trkpt lat="42.77744" lon="1.33787">
        <ele>1285.7002</ele>
        <time>2025-09-13T19:47:44+02:00</time>
      </trkpt>
      <trkpt lat="42.77745" lon="1.33787">
        <ele>1285.2002</ele>
        <time>2025-09-13T19:47:45+02:00</time>
      </trkpt>
      <trkpt lat="42.77748" lon="1.33786">
        <ele>1285.2002</ele>
        <time>2025-09-13T19:47:49+02:00</time>
      </trkpt>
      <trkpt lat="42.77749" lon="1.33786">
        <ele>1285.2002</ele>
        <time>2025-09-13T19:47:50+02:00</time>
      </trkpt>
      <trkpt lat="42.77752" lon="1.33786">
        <ele>1284.7002</ele>
        <time>2025-09-13T19:47:54+02:00</time>
      </trkpt>
      <trkpt lat="42.77753" lon="1.33785">
        <ele>1284.7002</ele>
        <time>2025-09-13T19:47:55+02:00</time>
      </trkpt>
      <trkpt lat="42.77756" lon="1.33784">
        <ele>1284.7002</ele>
        <time>2025-09-13T19:47:59+02:00</time>
      </trkpt>
      <trkpt lat="42.77757" lon="1.33784">
        <ele>1284.7002</ele>
        <time>2025-09-13T19:48:00+02:00</time>
      </trkpt>
      <trkpt lat="42.7776" lon="1.33784">
        <ele>1284.5</ele>
        <time>2025-09-13T19:48:04+02:00</time>
      </trkpt>
      <trkpt lat="42.77761" lon="1.33783">
        <ele>1284.5</ele>
        <time>2025-09-13T19:48:05+02:00</time>
      </trkpt>
      <trkpt lat="42.77765" lon="1.33782">
        <ele>1284</ele>
        <time>2025-09-13T19:48:09+02:00</time>
      </trkpt>
      <trkpt lat="42.77766" lon="1.33781">
        <ele>1284</ele>
        <time>2025-09-13T19:48:10+02:00</time>
      </trkpt>
      <trkpt lat="42.7777" lon="1.33779">
        <ele>1284</ele>
        <time>2025-09-13T19:48:14+02:00</time>
      </trkpt>
      <trkpt lat="42.77771" lon="1.33778">
        <ele>1283.5</ele>
        <time>2025-09-13T19:48:15+02:00</time>
      </trkpt>
      <trkpt lat="42.77772" lon="1.33779">
        <ele>1283.5</ele>
        <time>2025-09-13T19:48:19+02:00</time>
      </trkpt>
      <trkpt lat="42.77772" lon="1.33778">
        <ele>1283.5</ele>
        <time>2025-09-13T19:48:20+02:00</time>
      </trkpt>
      <trkpt lat="42.77772" lon="1.33778">
        <ele>1283.5</ele>
        <time>2025-09-13T19:48:24+02:00</time>
      </trkpt>
      <trkpt lat="42.77772" lon="1.33778">
        <ele>1283.5</ele>
        <time>2025-09-13T19:48:25+02:00</time>
      </trkpt>
      <trkpt lat="42.77771" lon="1.33779">
        <ele>1283.5</ele>
        <time>2025-09-13T19:48:29+02:00</time>
      </trkpt>
      <trkpt lat="42.77771" lon="1.33779">
        <ele>1283.5</ele>
        <time>2025-09-13T19:48:30+02:00</time>
      </trkpt>
      <trkpt lat="42.77771" lon="1.33779">
        <ele>1283.5</ele>
        <time>2025-09-13T19:48:34+02:00</time>
      </trkpt>
      <trkpt lat="42.77771" lon="1.33779">
        <ele>1283.5</ele>
        <time>2025-09-13T19:48:35+02:00</time>
      </trkpt>
      <trkpt lat="42.77771" lon="1.33779">
        <ele>1283.5</ele>
        <time>2025-09-13T19:48:39+02:00</time>
      </trkpt>
      <trkpt lat="42.77771" lon="1.33779">
        <ele>1283.5</ele>
        <time>2025-09-13T19:48:40+02:00</time>
      </trkpt>
      <trkpt lat="42.77771" lon="1.33779">
        <ele>1283.5</ele>
        <time>2025-09-13T19:48:44+02:00</time>
      </trkpt>
      <trkpt lat="42.77771" lon="1.33779">
        <ele>1283.5</ele>
        <time>2025-09-13T19:48:45+02:00</time>
      </trkpt>
      <trkpt lat="42.77771" lon="1.33779">
        <ele>1283.5</ele>
        <time>2025-09-13T19:48:49+02:00</time>
      </trkpt>
      <trkpt lat="42.77771" lon="1.33779">
        <ele>1283.5</ele>
        <time>2025-09-13T19:48:50+02:00</time>
      </trkpt>
      <trkpt lat="42.77771" lon="1.3378">
        <ele>1283.5</ele>
        <time>2025-09-13T19:48:54+02:00</time>
      </trkpt>
      <trkpt lat="42.77771" lon="1.3378">
        <ele>1283.5</ele>
        <time>2025-09-13T19:48:55+02:00</time>
      </trkpt>
      <trkpt lat="42.77771" lon="1.3378">
        <ele>1283.5</ele>
        <time>2025-09-13T19:48:59+02:00</time>
      </trkpt>
      <trkpt lat="42.77771" lon="1.3378">
        <ele>1283.5</ele>
        <time>2025-09-13T19:49:00+02:00</time>
      </trkpt>
      <trkpt lat="42.77771" lon="1.3378">
        <ele>1283.5</ele>
        <time>2025-09-13T19:49:04+02:00</time>
      </trkpt>
      <trkpt lat="42.77771" lon="1.3378">
        <ele>1283.5</ele>
        <time>2025-09-13T19:49:05+02:00</time>
      </trkpt>
      <trkpt lat="42.77771" lon="1.33779">
        <ele>1283.5</ele>
        <time>2025-09-13T19:49:09+02:00</time>
      </trkpt>
      <trkpt lat="42.77771" lon="1.33779">
        <ele>1283.5</ele>
        <time>2025-09-13T19:49:10+02:00</time>
      </trkpt>
      <trkpt lat="42.77771" lon="1.33779">
        <ele>1283.5</ele>
        <time>2025-09-13T19:49:14+02:00</time>
      </trkpt>
      <trkpt lat="42.77771" lon="1.33779">
        <ele>1283.5</ele>
        <time>2025-09-13T19:49:15+02:00</time>
      </trkpt>
      <trkpt lat="42.77771" lon="1.3378">
        <ele>1283.5</ele>
        <time>2025-09-13T19:49:19+02:00</time>
      </trkpt>
      <trkpt lat="42.77771" lon="1.3378">
        <ele>1283.5</ele>
        <time>2025-09-13T19:49:20+02:00</time>
      </trkpt>
      <trkpt lat="42.77771" lon="1.3378">
        <ele>1283.5</ele>
        <time>2025-09-13T19:49:24+02:00</time>
      </trkpt>
      <trkpt lat="42.77771" lon="1.3378">
        <ele>1283.5</ele>
        <time>2025-09-13T19:49:25+02:00</time>
      </trkpt>
      <trkpt lat="42.77771" lon="1.3378">
        <ele>1283.5</ele>
        <time>2025-09-13T19:49:29+02:00</time>
      </trkpt>
      <trkpt lat="42.77771" lon="1.3378">
        <ele>1283.5</ele>
        <time>2025-09-13T19:49:30+02:00</time>
      </trkpt>
      <trkpt lat="42.77771" lon="1.33779">
        <ele>1283.5</ele>
        <time>2025-09-13T19:49:34+02:00</time>
      </trkpt>
      <trkpt lat="42.77771" lon="1.33779">
        <ele>1283.5</ele>
        <time>2025-09-13T19:49:35+02:00</time>
      </trkpt>
      <trkpt lat="42.77771" lon="1.33779">
        <ele>1283.5</ele>
        <time>2025-09-13T19:49:39+02:00</time>
      </trkpt>
      <trkpt lat="42.77771" lon="1.33779">
        <ele>1283.5</ele>
        <time>2025-09-13T19:49:40+02:00</time>
      </trkpt>
      <trkpt lat="42.77771" lon="1.33779">
        <ele>1283.5</ele>
        <time>2025-09-13T19:49:44+02:00</time>
      </trkpt>
      <trkpt lat="42.77771" lon="1.33779">
        <ele>1283.5</ele>
        <time>2025-09-13T19:49:45+02:00</time>
      </trkpt>
      <trkpt lat="42.77771" lon="1.33779">
        <ele>1283.5</ele>
        <time>2025-09-13T19:49:49+02:00</time>
      </trkpt>
      <trkpt lat="42.77771" lon="1.33779">
        <ele>1283.5</ele>
        <time>2025-09-13T19:49:50+02:00</time>
      </trkpt>
      <trkpt lat="42.77771" lon="1.33779">
        <ele>1283.5</ele>
        <time>2025-09-13T19:49:54+02:00</time>
      </trkpt>
      <trkpt lat="42.77771" lon="1.33779">
        <ele>1283.5</ele>
        <time>2025-09-13T19:49:55+02:00</time>
      </trkpt>
      <trkpt lat="42.77771" lon="1.33779">
        <ele>1283.5</ele>
        <time>2025-09-13T19:49:59+02:00</time>
      </trkpt>
      <trkpt lat="42.77771" lon="1.3378">
        <ele>1283.5</ele>
        <time>2025-09-13T19:50:00+02:00</time>
      </trkpt>
      <trkpt lat="42.77772" lon="1.3378">
        <ele>1283.5</ele>
        <time>2025-09-13T19:50:04+02:00</time>
      </trkpt>
      <trkpt lat="42.77772" lon="1.3378">
        <ele>1283.5</ele>
        <time>2025-09-13T19:50:05+02:00</time>
      </trkpt>
      <trkpt lat="42.77774" lon="1.33779">
        <ele>1283.5</ele>
        <time>2025-09-13T19:50:09+02:00</time>
      </trkpt>
      <trkpt lat="42.77775" lon="1.33779">
        <ele>1283.5</ele>
        <time>2025-09-13T19:50:10+02:00</time>
      </trkpt>
      <trkpt lat="42.77779" lon="1.33779">
        <ele>1282.9004</ele>
        <time>2025-09-13T19:50:14+02:00</time>
      </trkpt>
      <trkpt lat="42.7778" lon="1.33779">
        <ele>1282.9004</ele>
        <time>2025-09-13T19:50:15+02:00</time>
      </trkpt>
      <trkpt lat="42.77784" lon="1.33779">
        <ele>1282.2998</ele>
        <time>2025-09-13T19:50:19+02:00</time>
      </trkpt>
      <trkpt lat="42.77784" lon="1.33779">
        <ele>1282.2998</ele>
        <time>2025-09-13T19:50:20+02:00</time>
      </trkpt>
      <trkpt lat="42.77783" lon="1.33777">
        <ele>1282.2998</ele>
        <time>2025-09-13T19:50:24+02:00</time>
      </trkpt>
      <trkpt lat="42.77783" lon="1.33777">
        <ele>1282.2998</ele>
        <time>2025-09-13T19:50:25+02:00</time>
      </trkpt>
      <trkpt lat="42.77784" lon="1.33777">
        <ele>1282.2998</ele>
        <time>2025-09-13T19:50:29+02:00</time>
      </trkpt>
      <trkpt lat="42.77784" lon="1.33777">
        <ele>1282.2998</ele>
        <time>2025-09-13T19:50:30+02:00</time>
      </trkpt>
      <trkpt lat="42.77786" lon="1.33777">
        <ele>1282.2998</ele>
        <time>2025-09-13T19:50:34+02:00</time>
      </trkpt>
      <trkpt lat="42.77787" lon="1.33777">
        <ele>1282.2998</ele>
        <time>2025-09-13T19:50:35+02:00</time>
      </trkpt>
      <trkpt lat="42.77792" lon="1.33777">
        <ele>1281.6006</ele>
        <time>2025-09-13T19:50:39+02:00</time>
      </trkpt>
      <trkpt lat="42.77793" lon="1.33777">
        <ele>1281.6006</ele>
        <time>2025-09-13T19:50:40+02:00</time>
      </trkpt>
      <trkpt lat="42.77796" lon="1.33775">
        <ele>1281.1006</ele>
        <time>2025-09-13T19:50:44+02:00</time>
      </trkpt>
      <trkpt lat="42.77797" lon="1.33775">
        <ele>1281.1006</ele>
        <time>2025-09-13T19:50:45+02:00</time>
      </trkpt>
      <trkpt lat="42.77801" lon="1.33773">
        <ele>1281.1006</ele>
        <time>2025-09-13T19:50:49+02:00</time>
      </trkpt>
      <trkpt lat="42.77801" lon="1.33773">
        <ele>1281.1006</ele>
        <time>2025-09-13T19:50:50+02:00</time>
      </trkpt>
      <trkpt lat="42.77805" lon="1.33773">
        <ele>1280.2002</ele>
        <time>2025-09-13T19:50:54+02:00</time>
      </trkpt>
      <trkpt lat="42.77805" lon="1.33774">
        <ele>1280.2002</ele>
        <time>2025-09-13T19:50:55+02:00</time>
      </trkpt>
      <trkpt lat="42.77805" lon="1.33774">
        <ele>1280.2002</ele>
        <time>2025-09-13T19:50:59+02:00</time>
      </trkpt>
      <trkpt lat="42.77805" lon="1.33774">
        <ele>1280.2002</ele>
        <time>2025-09-13T19:51:00+02:00</time>
      </trkpt>
      <trkpt lat="42.77803" lon="1.33776">
        <ele>1280</ele>
        <time>2025-09-13T19:51:04+02:00</time>
      </trkpt>
      <trkpt lat="42.77803" lon="1.33776">
        <ele>1280</ele>
        <time>2025-09-13T19:51:05+02:00</time>
      </trkpt>
      <trkpt lat="42.77803" lon="1.33776">
        <ele>1280</ele>
        <time>2025-09-13T19:51:09+02:00</time>
      </trkpt>
      <trkpt lat="42.77803" lon="1.33776">
        <ele>1280</ele>
        <time>2025-09-13T19:51:10+02:00</time>
      </trkpt>
      <trkpt lat="42.77803" lon="1.33776">
        <ele>1280</ele>
        <time>2025-09-13T19:51:14+02:00</time>
      </trkpt>
      <trkpt lat="42.77803" lon="1.33776">
        <ele>1280</ele>
        <time>2025-09-13T19:51:15+02:00</time>
      </trkpt>
      <trkpt lat="42.77807" lon="1.33775">
        <ele>1280.2002</ele>
        <time>2025-09-13T19:51:19+02:00</time>
      </trkpt>
      <trkpt lat="42.77808" lon="1.33775">
        <ele>1280.2002</ele>
        <time>2025-09-13T19:51:20+02:00</time>
      </trkpt>
      <trkpt lat="42.77811" lon="1.33774">
        <ele>1279.4004</ele>
        <time>2025-09-13T19:51:24+02:00</time>
      </trkpt>
      <trkpt lat="42.77812" lon="1.33774">
        <ele>1279.4004</ele>
        <time>2025-09-13T19:51:25+02:00</time>
      </trkpt>
      <trkpt lat="42.77816" lon="1.33774">
        <ele>1278.4004</ele>
        <time>2025-09-13T19:51:29+02:00</time>
      </trkpt>
      <trkpt lat="42.77818" lon="1.33775">
        <ele>1278.4004</ele>
        <time>2025-09-13T19:51:30+02:00</time>
      </trkpt>
      <trkpt lat="42.77821" lon="1.33779">
        <ele>1277.1006</ele>
        <time>2025-09-13T19:51:34+02:00</time>
      </trkpt>
      <trkpt lat="42.77822" lon="1.3378">
        <ele>1277.1006</ele>
        <time>2025-09-13T19:51:35+02:00</time>
      </trkpt>
      <trkpt lat="42.77824" lon="1.33784">
        <ele>1277.1006</ele>
        <time>2025-09-13T19:51:39+02:00</time>
      </trkpt>
      <trkpt lat="42.77825" lon="1.33785">
        <ele>1276.7002</ele>
        <time>2025-09-13T19:51:41+02:00</time>
      </trkpt>
      <trkpt lat="42.77828" lon="1.33789">
        <ele>1275.6006</ele>
        <time>2025-09-13T19:51:45+02:00</time>
      </trkpt>
      <trkpt lat="42.77829" lon="1.3379">
        <ele>1275.6006</ele>
        <time>2025-09-13T19:51:46+02:00</time>
      </trkpt>
      <trkpt lat="42.7783" lon="1.33796">
        <ele>1275</ele>
        <time>2025-09-13T19:51:50+02:00</time>
      </trkpt>
      <trkpt lat="42.7783" lon="1.33797">
        <ele>1275</ele>
        <time>2025-09-13T19:51:51+02:00</time>
      </trkpt>
      <trkpt lat="42.77831" lon="1.33801">
        <ele>1275</ele>
        <time>2025-09-13T19:51:55+02:00</time>
      </trkpt>
      <trkpt lat="42.77832" lon="1.33802">
        <ele>1274.5</ele>
        <time>2025-09-13T19:51:56+02:00</time>
      </trkpt>
      <trkpt lat="42.77834" lon="1.33803">
        <ele>1273.1006</ele>
        <time>2025-09-13T19:52:00+02:00</time>
      </trkpt>
      <trkpt lat="42.77834" lon="1.33803">
        <ele>1273.1006</ele>
        <time>2025-09-13T19:52:01+02:00</time>
      </trkpt>
      <trkpt lat="42.77834" lon="1.33803">
        <ele>1273.1006</ele>
        <time>2025-09-13T19:52:05+02:00</time>
      </trkpt>
      <trkpt lat="42.77834" lon="1.33803">
        <ele>1273.1006</ele>
        <time>2025-09-13T19:52:06+02:00</time>
      </trkpt>
      <trkpt lat="42.77834" lon="1.33802">
        <ele>1273.1006</ele>
        <time>2025-09-13T19:52:10+02:00</time>
      </trkpt>
      <trkpt lat="42.77835" lon="1.33803">
        <ele>1273.1006</ele>
        <time>2025-09-13T19:52:11+02:00</time>
      </trkpt>
      <trkpt lat="42.77838" lon="1.33805">
        <ele>1273.1006</ele>
        <time>2025-09-13T19:52:15+02:00</time>
      </trkpt>
      <trkpt lat="42.77839" lon="1.33806">
        <ele>1273.1006</ele>
        <time>2025-09-13T19:52:16+02:00</time>
      </trkpt>
      <trkpt lat="42.7784" lon="1.33808">
        <ele>1271.7002</ele>
        <time>2025-09-13T19:52:20+02:00</time>
      </trkpt>
      <trkpt lat="42.7784" lon="1.33808">
        <ele>1271.7002</ele>
        <time>2025-09-13T19:52:21+02:00</time>
      </trkpt>
      <trkpt lat="42.7784" lon="1.33808">
        <ele>1271.7002</ele>
        <time>2025-09-13T19:52:25+02:00</time>
      </trkpt>
      <trkpt lat="42.7784" lon="1.33808">
        <ele>1271.7002</ele>
        <time>2025-09-13T19:52:26+02:00</time>
      </trkpt>
      <trkpt lat="42.7784" lon="1.33808">
        <ele>1271.7002</ele>
        <time>2025-09-13T19:52:30+02:00</time>
      </trkpt>
      <trkpt lat="42.7784" lon="1.33808">
        <ele>1271.7002</ele>
        <time>2025-09-13T19:52:31+02:00</time>
      </trkpt>
      <trkpt lat="42.7784" lon="1.33809">
        <ele>1271.7002</ele>
        <time>2025-09-13T19:52:35+02:00</time>
      </trkpt>
      <trkpt lat="42.7784" lon="1.33809">
        <ele>1271.7002</ele>
        <time>2025-09-13T19:52:36+02:00</time>
      </trkpt>
      <trkpt lat="42.7784" lon="1.33815">
        <ele>1271.2002</ele>
        <time>2025-09-13T19:52:40+02:00</time>
      </trkpt>
      <trkpt lat="42.7784" lon="1.33816">
        <ele>1271.2002</ele>
        <time>2025-09-13T19:52:41+02:00</time>
      </trkpt>
      <trkpt lat="42.77841" lon="1.33821">
        <ele>1270.7002</ele>
        <time>2025-09-13T19:52:45+02:00</time>
      </trkpt>
      <trkpt lat="42.77841" lon="1.33822">
        <ele>1270.7002</ele>
        <time>2025-09-13T19:52:46+02:00</time>
      </trkpt>
      <trkpt lat="42.77843" lon="1.33826">
        <ele>1270.7002</ele>
        <time>2025-09-13T19:52:50+02:00</time>
      </trkpt>
      <trkpt lat="42.77843" lon="1.33827">
        <ele>1270.7002</ele>
        <time>2025-09-13T19:52:51+02:00</time>
      </trkpt>
      <trkpt lat="42.77843" lon="1.33832">
        <ele>1270.2998</ele>
        <time>2025-09-13T19:52:55+02:00</time>
      </trkpt>
      <trkpt lat="42.77844" lon="1.33833">
        <ele>1270.2998</ele>
        <time>2025-09-13T19:52:56+02:00</time>
      </trkpt>
      <trkpt lat="42.77848" lon="1.33832">
        <ele>1268.7002</ele>
        <time>2025-09-13T19:53:00+02:00</time>
      </trkpt>
      <trkpt lat="42.77849" lon="1.33832">
        <ele>1268.7002</ele>
        <time>2025-09-13T19:53:01+02:00</time>
      </trkpt>
      <trkpt lat="42.77853" lon="1.33835">
        <ele>1267</ele>
        <time>2025-09-13T19:53:05+02:00</time>
      </trkpt>
      <trkpt lat="42.77854" lon="1.33835">
        <ele>1267</ele>
        <time>2025-09-13T19:53:06+02:00</time>
      </trkpt>
      <trkpt lat="42.77858" lon="1.33834">
        <ele>1267</ele>
        <time>2025-09-13T19:53:10+02:00</time>
      </trkpt>
      <trkpt lat="42.77859" lon="1.33834">
        <ele>1265.2998</ele>
        <time>2025-09-13T19:53:11+02:00</time>
      </trkpt>
      <trkpt lat="42.77861" lon="1.3383">
        <ele>1265.2998</ele>
        <time>2025-09-13T19:53:15+02:00</time>
      </trkpt>
      <trkpt lat="42.77862" lon="1.33829">
        <ele>1265.2998</ele>
        <time>2025-09-13T19:53:16+02:00</time>
      </trkpt>
      <trkpt lat="42.77863" lon="1.33823">
        <ele>1265.7998</ele>
        <time>2025-09-13T19:53:20+02:00</time>
      </trkpt>
      <trkpt lat="42.77864" lon="1.33821">
        <ele>1265.7998</ele>
        <time>2025-09-13T19:53:21+02:00</time>
      </trkpt>
      <trkpt lat="42.77865" lon="1.33816">
        <ele>1264.6006</ele>
        <time>2025-09-13T19:53:25+02:00</time>
      </trkpt>
      <trkpt lat="42.77865" lon="1.33815">
        <ele>1264.6006</ele>
        <time>2025-09-13T19:53:26+02:00</time>
      </trkpt>
      <trkpt lat="42.77865" lon="1.33811">
        <ele>1264.6006</ele>
        <time>2025-09-13T19:53:30+02:00</time>
      </trkpt>
      <trkpt lat="42.77865" lon="1.3381">
        <ele>1265.2002</ele>
        <time>2025-09-13T19:53:31+02:00</time>
      </trkpt>
      <trkpt lat="42.77867" lon="1.33805">
        <ele>1265.2002</ele>
        <time>2025-09-13T19:53:35+02:00</time>
      </trkpt>
      <trkpt lat="42.77868" lon="1.33804">
        <ele>1265.2002</ele>
        <time>2025-09-13T19:53:36+02:00</time>
      </trkpt>
      <trkpt lat="42.7787" lon="1.338">
        <ele>1266</ele>
        <time>2025-09-13T19:53:40+02:00</time>
      </trkpt>
      <trkpt lat="42.77871" lon="1.33799">
        <ele>1264.2002</ele>
        <time>2025-09-13T19:53:41+02:00</time>
      </trkpt>
      <trkpt lat="42.77874" lon="1.33796">
        <ele>1264.2002</ele>
        <time>2025-09-13T19:53:45+02:00</time>
      </trkpt>
      <trkpt lat="42.77875" lon="1.33795">
        <ele>1264.2002</ele>
        <time>2025-09-13T19:53:46+02:00</time>
      </trkpt>
      <trkpt lat="42.77877" lon="1.33791">
        <ele>1263.4004</ele>
        <time>2025-09-13T19:53:50+02:00</time>
      </trkpt>
      <trkpt lat="42.77878" lon="1.3379">
        <ele>1263.4004</ele>
        <time>2025-09-13T19:53:51+02:00</time>
      </trkpt>
      <trkpt lat="42.77881" lon="1.33788">
        <ele>1263.4004</ele>
        <time>2025-09-13T19:53:55+02:00</time>
      </trkpt>
      <trkpt lat="42.77882" lon="1.33788">
        <ele>1263.4004</ele>
        <time>2025-09-13T19:53:56+02:00</time>
      </trkpt>
      <trkpt lat="42.77886" lon="1.33788">
        <ele>1261.5</ele>
        <time>2025-09-13T19:54:00+02:00</time>
      </trkpt>
      <trkpt lat="42.77887" lon="1.33787">
        <ele>1261.5</ele>
        <time>2025-09-13T19:54:01+02:00</time>
      </trkpt>
      <trkpt lat="42.7789" lon="1.33787">
        <ele>1259.6006</ele>
        <time>2025-09-13T19:54:05+02:00</time>
      </trkpt>
      <trkpt lat="42.77891" lon="1.33787">
        <ele>1259.6006</ele>
        <time>2025-09-13T19:54:06+02:00</time>
      </trkpt>
      <trkpt lat="42.77893" lon="1.33787">
        <ele>1259.6006</ele>
        <time>2025-09-13T19:54:10+02:00</time>
      </trkpt>
      <trkpt lat="42.77894" lon="1.33787">
        <ele>1259.6006</ele>
        <time>2025-09-13T19:54:11+02:00</time>
      </trkpt>
      <trkpt lat="42.77896" lon="1.33784">
        <ele>1257.6006</ele>
        <time>2025-09-13T19:54:15+02:00</time>
      </trkpt>
      <trkpt lat="42.77897" lon="1.33784">
        <ele>1258.7002</ele>
        <time>2025-09-13T19:54:16+02:00</time>
      </trkpt>
      <trkpt lat="42.77898" lon="1.3378">
        <ele>1258.7002</ele>
        <time>2025-09-13T19:54:20+02:00</time>
      </trkpt>
      <trkpt lat="42.77898" lon="1.33779">
        <ele>1258.7002</ele>
        <time>2025-09-13T19:54:21+02:00</time>
      </trkpt>
      <trkpt lat="42.779" lon="1.33776">
        <ele>1258.7002</ele>
        <time>2025-09-13T19:54:25+02:00</time>
      </trkpt>
      <trkpt lat="42.77901" lon="1.33776">
        <ele>1258.7002</ele>
        <time>2025-09-13T19:54:26+02:00</time>
      </trkpt>
      <trkpt lat="42.77903" lon="1.33781">
        <ele>1256.6006</ele>
        <time>2025-09-13T19:54:30+02:00</time>
      </trkpt>
      <trkpt lat="42.77902" lon="1.33782">
        <ele>1256.6006</ele>
        <time>2025-09-13T19:54:31+02:00</time>
      </trkpt>
      <trkpt lat="42.77901" lon="1.3379">
        <ele>1257.6006</ele>
        <time>2025-09-13T19:54:35+02:00</time>
      </trkpt>
      <trkpt lat="42.77901" lon="1.33792">
        <ele>1257.6006</ele>
        <time>2025-09-13T19:54:36+02:00</time>
      </trkpt>
      <trkpt lat="42.77899" lon="1.33797">
        <ele>1256.5</ele>
        <time>2025-09-13T19:54:40+02:00</time>
      </trkpt>
      <trkpt lat="42.77898" lon="1.33799">
        <ele>1256.5</ele>
        <time>2025-09-13T19:54:41+02:00</time>
      </trkpt>
      <trkpt lat="42.77897" lon="1.33802">
        <ele>1255.6006</ele>
        <time>2025-09-13T19:54:45+02:00</time>
      </trkpt>
      <trkpt lat="42.77897" lon="1.33803">
        <ele>1255.6006</ele>
        <time>2025-09-13T19:54:46+02:00</time>
      </trkpt>
      <trkpt lat="42.77896" lon="1.33809">
        <ele>1257.7002</ele>
        <time>2025-09-13T19:54:50+02:00</time>
      </trkpt>
      <trkpt lat="42.77896" lon="1.3381">
        <ele>1256.7998</ele>
        <time>2025-09-13T19:54:51+02:00</time>
      </trkpt>
      <trkpt lat="42.77897" lon="1.33815">
        <ele>1254.6006</ele>
        <time>2025-09-13T19:54:55+02:00</time>
      </trkpt>
      <trkpt lat="42.77897" lon="1.33817">
        <ele>1254.6006</ele>
        <time>2025-09-13T19:54:56+02:00</time>
      </trkpt>
      <trkpt lat="42.77897" lon="1.33822">
        <ele>1253.7998</ele>
        <time>2025-09-13T19:55:00+02:00</time>
      </trkpt>
      <trkpt lat="42.77897" lon="1.33823">
        <ele>1253.7998</ele>
        <time>2025-09-13T19:55:01+02:00</time>
      </trkpt>
      <trkpt lat="42.77898" lon="1.33827">
        <ele>1253.7998</ele>
        <time>2025-09-13T19:55:05+02:00</time>
      </trkpt>
      <trkpt lat="42.77898" lon="1.33828">
        <ele>1253</ele>
        <time>2025-09-13T19:55:06+02:00</time>
      </trkpt>
      <trkpt lat="42.779" lon="1.33832">
        <ele>1253</ele>
        <time>2025-09-13T19:55:10+02:00</time>
      </trkpt>
      <trkpt lat="42.779" lon="1.33833">
        <ele>1253</ele>
        <time>2025-09-13T19:55:11+02:00</time>
      </trkpt>
      <trkpt lat="42.77901" lon="1.33837">
        <ele>1252.2002</ele>
        <time>2025-09-13T19:55:15+02:00</time>
      </trkpt>
      <trkpt lat="42.779" lon="1.33838">
        <ele>1252.2002</ele>
        <time>2025-09-13T19:55:16+02:00</time>
      </trkpt>
      <trkpt lat="42.779" lon="1.33841">
        <ele>1252.2002</ele>
        <time>2025-09-13T19:55:20+02:00</time>
      </trkpt>
      <trkpt lat="42.779" lon="1.33842">
        <ele>1252.2002</ele>
        <time>2025-09-13T19:55:21+02:00</time>
      </trkpt>
      <trkpt lat="42.779" lon="1.33842">
        <ele>1252.2002</ele>
        <time>2025-09-13T19:55:25+02:00</time>
      </trkpt>
      <trkpt lat="42.77901" lon="1.33842">
        <ele>1252.2002</ele>
        <time>2025-09-13T19:55:26+02:00</time>
      </trkpt>
      <trkpt lat="42.77901" lon="1.33842">
        <ele>1252.2002</ele>
        <time>2025-09-13T19:55:30+02:00</time>
      </trkpt>
      <trkpt lat="42.77901" lon="1.33843">
        <ele>1252.2002</ele>
        <time>2025-09-13T19:55:31+02:00</time>
      </trkpt>
      <trkpt lat="42.77902" lon="1.33848">
        <ele>1251.6006</ele>
        <time>2025-09-13T19:55:35+02:00</time>
      </trkpt>
      <trkpt lat="42.77902" lon="1.33849">
        <ele>1251.6006</ele>
        <time>2025-09-13T19:55:36+02:00</time>
      </trkpt>
      <trkpt lat="42.77902" lon="1.33855">
        <ele>1250.9004</ele>
        <time>2025-09-13T19:55:40+02:00</time>
      </trkpt>
      <trkpt lat="42.77902" lon="1.33856">
        <ele>1250.9004</ele>
        <time>2025-09-13T19:55:41+02:00</time>
      </trkpt>
      <trkpt lat="42.77901" lon="1.33861">
        <ele>1250.9004</ele>
        <time>2025-09-13T19:55:45+02:00</time>
      </trkpt>
      <trkpt lat="42.77901" lon="1.33862">
        <ele>1250.2998</ele>
        <time>2025-09-13T19:55:46+02:00</time>
      </trkpt>
      <trkpt lat="42.779" lon="1.33866">
        <ele>1250.2998</ele>
        <time>2025-09-13T19:55:50+02:00</time>
      </trkpt>
      <trkpt lat="42.779" lon="1.33867">
        <ele>1250.2998</ele>
        <time>2025-09-13T19:55:51+02:00</time>
      </trkpt>
      <trkpt lat="42.77899" lon="1.33873">
        <ele>1249.7998</ele>
        <time>2025-09-13T19:55:55+02:00</time>
      </trkpt>
      <trkpt lat="42.77899" lon="1.33874">
        <ele>1249.7998</ele>
        <time>2025-09-13T19:55:56+02:00</time>
      </trkpt>
      <trkpt lat="42.779" lon="1.3388">
        <ele>1249.2002</ele>
        <time>2025-09-13T19:56:00+02:00</time>
      </trkpt>
      <trkpt lat="42.77901" lon="1.33881">
        <ele>1249.2002</ele>
        <time>2025-09-13T19:56:01+02:00</time>
      </trkpt>
      <trkpt lat="42.77902" lon="1.33885">
        <ele>1249.2002</ele>
        <time>2025-09-13T19:56:05+02:00</time>
      </trkpt>
      <trkpt lat="42.77902" lon="1.33886">
        <ele>1249.2002</ele>
        <time>2025-09-13T19:56:06+02:00</time>
      </trkpt>
      <trkpt lat="42.77902" lon="1.33891">
        <ele>1248.7002</ele>
        <time>2025-09-13T19:56:10+02:00</time>
      </trkpt>
      <trkpt lat="42.77902" lon="1.33892">
        <ele>1248.7002</ele>
        <time>2025-09-13T19:56:11+02:00</time>
      </trkpt>
      <trkpt lat="42.77901" lon="1.33895">
        <ele>1248.7002</ele>
        <time>2025-09-13T19:56:15+02:00</time>
      </trkpt>
      <trkpt lat="42.77901" lon="1.33895">
        <ele>1248.7002</ele>
        <time>2025-09-13T19:56:16+02:00</time>
      </trkpt>
      <trkpt lat="42.77901" lon="1.33893">
        <ele>1248.7002</ele>
        <time>2025-09-13T19:56:20+02:00</time>
      </trkpt>
      <trkpt lat="42.77901" lon="1.33893">
        <ele>1248.7002</ele>
        <time>2025-09-13T19:56:21+02:00</time>
      </trkpt>
      <trkpt lat="42.77901" lon="1.33892">
        <ele>1248.7002</ele>
        <time>2025-09-13T19:56:25+02:00</time>
      </trkpt>
      <trkpt lat="42.77901" lon="1.33892">
        <ele>1248.7002</ele>
        <time>2025-09-13T19:56:26+02:00</time>
      </trkpt>
      <trkpt lat="42.77901" lon="1.33893">
        <ele>1248.7002</ele>
        <time>2025-09-13T19:56:30+02:00</time>
      </trkpt>
      <trkpt lat="42.77901" lon="1.33894">
        <ele>1248.7002</ele>
        <time>2025-09-13T19:56:31+02:00</time>
      </trkpt>
      <trkpt lat="42.77901" lon="1.33901">
        <ele>1248.1006</ele>
        <time>2025-09-13T19:56:35+02:00</time>
      </trkpt>
      <trkpt lat="42.779" lon="1.33902">
        <ele>1248.1006</ele>
        <time>2025-09-13T19:56:36+02:00</time>
      </trkpt>
      <trkpt lat="42.779" lon="1.33907">
        <ele>1247.4004</ele>
        <time>2025-09-13T19:56:40+02:00</time>
      </trkpt>
      <trkpt lat="42.77899" lon="1.33908">
        <ele>1247.4004</ele>
        <time>2025-09-13T19:56:41+02:00</time>
      </trkpt>
      <trkpt lat="42.77899" lon="1.33911">
        <ele>1247.4004</ele>
        <time>2025-09-13T19:56:45+02:00</time>
      </trkpt>
      <trkpt lat="42.779" lon="1.33911">
        <ele>1247.4004</ele>
        <time>2025-09-13T19:56:46+02:00</time>
      </trkpt>
      <trkpt lat="42.77903" lon="1.33907">
        <ele>1244.7002</ele>
        <time>2025-09-13T19:56:50+02:00</time>
      </trkpt>
      <trkpt lat="42.77904" lon="1.33906">
        <ele>1244.7002</ele>
        <time>2025-09-13T19:56:51+02:00</time>
      </trkpt>
      <trkpt lat="42.77906" lon="1.33899">
        <ele>1245.4004</ele>
        <time>2025-09-13T19:56:55+02:00</time>
      </trkpt>
      <trkpt lat="42.77907" lon="1.33897">
        <ele>1245.4004</ele>
        <time>2025-09-13T19:56:56+02:00</time>
      </trkpt>
      <trkpt lat="42.77909" lon="1.33892">
        <ele>1243.2998</ele>
        <time>2025-09-13T19:57:00+02:00</time>
      </trkpt>
      <trkpt lat="42.77909" lon="1.33891">
        <ele>1243.2998</ele>
        <time>2025-09-13T19:57:01+02:00</time>
      </trkpt>
      <trkpt lat="42.77911" lon="1.33886">
        <ele>1243.7998</ele>
        <time>2025-09-13T19:57:05+02:00</time>
      </trkpt>
      <trkpt lat="42.77912" lon="1.33886">
        <ele>1243.7998</ele>
        <time>2025-09-13T19:57:06+02:00</time>
      </trkpt>
      <trkpt lat="42.77913" lon="1.33884">
        <ele>1243.7998</ele>
        <time>2025-09-13T19:57:10+02:00</time>
      </trkpt>
      <trkpt lat="42.77914" lon="1.33883">
        <ele>1243.7998</ele>
        <time>2025-09-13T19:57:11+02:00</time>
      </trkpt>
      <trkpt lat="42.77915" lon="1.33878">
        <ele>1241.5</ele>
        <time>2025-09-13T19:57:15+02:00</time>
      </trkpt>
      <trkpt lat="42.77916" lon="1.33877">
        <ele>1241.5</ele>
        <time>2025-09-13T19:57:16+02:00</time>
      </trkpt>
      <trkpt lat="42.77917" lon="1.33871">
        <ele>1241.5</ele>
        <time>2025-09-13T19:57:20+02:00</time>
      </trkpt>
      <trkpt lat="42.77918" lon="1.3387">
        <ele>1242.2002</ele>
        <time>2025-09-13T19:57:21+02:00</time>
      </trkpt>
      <trkpt lat="42.77919" lon="1.33865">
        <ele>1242.2002</ele>
        <time>2025-09-13T19:57:25+02:00</time>
      </trkpt>
      <trkpt lat="42.7792" lon="1.33864">
        <ele>1242.2002</ele>
        <time>2025-09-13T19:57:26+02:00</time>
      </trkpt>
      <trkpt lat="42.77921" lon="1.33859">
        <ele>1242.9004</ele>
        <time>2025-09-13T19:57:30+02:00</time>
      </trkpt>
      <trkpt lat="42.77921" lon="1.33858">
        <ele>1240</ele>
        <time>2025-09-13T19:57:31+02:00</time>
      </trkpt>
      <trkpt lat="42.77924" lon="1.33854">
        <ele>1240</ele>
        <time>2025-09-13T19:57:35+02:00</time>
      </trkpt>
      <trkpt lat="42.77924" lon="1.33853">
        <ele>1240</ele>
        <time>2025-09-13T19:57:36+02:00</time>
      </trkpt>
      <trkpt lat="42.77926" lon="1.33849">
        <ele>1240.9004</ele>
        <time>2025-09-13T19:57:40+02:00</time>
      </trkpt>
      <trkpt lat="42.77926" lon="1.33848">
        <ele>1240.9004</ele>
        <time>2025-09-13T19:57:41+02:00</time>
      </trkpt>
      <trkpt lat="42.77927" lon="1.33844">
        <ele>1241.7998</ele>
        <time>2025-09-13T19:57:45+02:00</time>
      </trkpt>
      <trkpt lat="42.77928" lon="1.33843">
        <ele>1239</ele>
        <time>2025-09-13T19:57:46+02:00</time>
      </trkpt>
      <trkpt lat="42.77929" lon="1.33845">
        <ele>1238</ele>
        <time>2025-09-13T19:57:50+02:00</time>
      </trkpt>
      <trkpt lat="42.77929" lon="1.33845">
        <ele>1238</ele>
        <time>2025-09-13T19:57:51+02:00</time>
      </trkpt>
      <trkpt lat="42.77929" lon="1.33847">
        <ele>1238</ele>
        <time>2025-09-13T19:57:55+02:00</time>
      </trkpt>
      <trkpt lat="42.7793" lon="1.33847">
        <ele>1238</ele>
        <time>2025-09-13T19:57:56+02:00</time>
      </trkpt>
      <trkpt lat="42.7793" lon="1.33848">
        <ele>1238</ele>
        <time>2025-09-13T19:58:00+02:00</time>
      </trkpt>
      <trkpt lat="42.7793" lon="1.33848">
        <ele>1238</ele>
        <time>2025-09-13T19:58:01+02:00</time>
      </trkpt>
      <trkpt lat="42.7793" lon="1.33848">
        <ele>1238</ele>
        <time>2025-09-13T19:58:05+02:00</time>
      </trkpt>
      <trkpt lat="42.7793" lon="1.33849">
        <ele>1238</ele>
        <time>2025-09-13T19:58:06+02:00</time>
      </trkpt>
      <trkpt lat="42.7793" lon="1.33853">
        <ele>1238</ele>
        <time>2025-09-13T19:58:10+02:00</time>
      </trkpt>
      <trkpt lat="42.7793" lon="1.33854">
        <ele>1237.1006</ele>
        <time>2025-09-13T19:58:11+02:00</time>
      </trkpt>
      <trkpt lat="42.77929" lon="1.33861">
        <ele>1237.1006</ele>
        <time>2025-09-13T19:58:15+02:00</time>
      </trkpt>
      <trkpt lat="42.77929" lon="1.33862">
        <ele>1236.2998</ele>
        <time>2025-09-13T19:58:16+02:00</time>
      </trkpt>
      <trkpt lat="42.77928" lon="1.33869">
        <ele>1236.2998</ele>
        <time>2025-09-13T19:58:20+02:00</time>
      </trkpt>
      <trkpt lat="42.77928" lon="1.3387">
        <ele>1235.5</ele>
        <time>2025-09-13T19:58:21+02:00</time>
      </trkpt>
      <trkpt lat="42.77927" lon="1.33876">
        <ele>1238.6006</ele>
        <time>2025-09-13T19:58:25+02:00</time>
      </trkpt>
      <trkpt lat="42.77927" lon="1.33877">
        <ele>1238.6006</ele>
        <time>2025-09-13T19:58:26+02:00</time>
      </trkpt>
      <trkpt lat="42.77927" lon="1.33883">
        <ele>1237.9004</ele>
        <time>2025-09-13T19:58:30+02:00</time>
      </trkpt>
      <trkpt lat="42.77927" lon="1.33884">
        <ele>1237.9004</ele>
        <time>2025-09-13T19:58:31+02:00</time>
      </trkpt>
      <trkpt lat="42.77928" lon="1.33888">
        <ele>1234.1006</ele>
        <time>2025-09-13T19:58:35+02:00</time>
      </trkpt>
      <trkpt lat="42.77928" lon="1.33887">
        <ele>1234.7998</ele>
        <time>2025-09-13T19:58:36+02:00</time>
      </trkpt>
      <trkpt lat="42.77929" lon="1.33887">
        <ele>1234.7998</ele>
        <time>2025-09-13T19:58:40+02:00</time>
      </trkpt>
      <trkpt lat="42.77929" lon="1.33889">
        <ele>1234.1006</ele>
        <time>2025-09-13T19:58:41+02:00</time>
      </trkpt>
      <trkpt lat="42.77929" lon="1.33895">
        <ele>1234.1006</ele>
        <time>2025-09-13T19:58:45+02:00</time>
      </trkpt>
      <trkpt lat="42.77929" lon="1.33896">
        <ele>1233.4004</ele>
        <time>2025-09-13T19:58:46+02:00</time>
      </trkpt>
      <trkpt lat="42.77929" lon="1.339">
        <ele>1233.4004</ele>
        <time>2025-09-13T19:58:50+02:00</time>
      </trkpt>
      <trkpt lat="42.77928" lon="1.33902">
        <ele>1233.4004</ele>
        <time>2025-09-13T19:58:51+02:00</time>
      </trkpt>
      <trkpt lat="42.77928" lon="1.33906">
        <ele>1232.6006</ele>
        <time>2025-09-13T19:58:55+02:00</time>
      </trkpt>
      <trkpt lat="42.77928" lon="1.33908">
        <ele>1232.6006</ele>
        <time>2025-09-13T19:58:56+02:00</time>
      </trkpt>
      <trkpt lat="42.77927" lon="1.33913">
        <ele>1235.1006</ele>
        <time>2025-09-13T19:59:00+02:00</time>
      </trkpt>
      <trkpt lat="42.77926" lon="1.33915">
        <ele>1235.1006</ele>
        <time>2025-09-13T19:59:01+02:00</time>
      </trkpt>
      <trkpt lat="42.77926" lon="1.3392">
        <ele>1235.1006</ele>
        <time>2025-09-13T19:59:05+02:00</time>
      </trkpt>
      <trkpt lat="42.77926" lon="1.33921">
        <ele>1235.1006</ele>
        <time>2025-09-13T19:59:06+02:00</time>
      </trkpt>
      <trkpt lat="42.77926" lon="1.33925">
        <ele>1234.2002</ele>
        <time>2025-09-13T19:59:10+02:00</time>
      </trkpt>
      <trkpt lat="42.77925" lon="1.33926">
        <ele>1234.2002</ele>
        <time>2025-09-13T19:59:11+02:00</time>
      </trkpt>
      <trkpt lat="42.77927" lon="1.3393">
        <ele>1234.2002</ele>
        <time>2025-09-13T19:59:15+02:00</time>
      </trkpt>
      <trkpt lat="42.77928" lon="1.3393">
        <ele>1231</ele>
        <time>2025-09-13T19:59:16+02:00</time>
      </trkpt>
      <trkpt lat="42.77932" lon="1.33927">
        <ele>1231</ele>
        <time>2025-09-13T19:59:20+02:00</time>
      </trkpt>
      <trkpt lat="42.77932" lon="1.33925">
        <ele>1231</ele>
        <time>2025-09-13T19:59:21+02:00</time>
      </trkpt>
      <trkpt lat="42.77934" lon="1.3392">
        <ele>1228.6006</ele>
        <time>2025-09-13T19:59:25+02:00</time>
      </trkpt>
      <trkpt lat="42.77934" lon="1.33918">
        <ele>1228.6006</ele>
        <time>2025-09-13T19:59:26+02:00</time>
      </trkpt>
      <trkpt lat="42.77937" lon="1.33912">
        <ele>1229.2998</ele>
        <time>2025-09-13T19:59:30+02:00</time>
      </trkpt>
      <trkpt lat="42.77938" lon="1.3391">
        <ele>1229.2998</ele>
        <time>2025-09-13T19:59:31+02:00</time>
      </trkpt>
      <trkpt lat="42.7794" lon="1.33905">
        <ele>1229.2998</ele>
        <time>2025-09-13T19:59:35+02:00</time>
      </trkpt>
      <trkpt lat="42.77941" lon="1.33904">
        <ele>1226.6006</ele>
        <time>2025-09-13T19:59:36+02:00</time>
      </trkpt>
      <trkpt lat="42.77944" lon="1.339">
        <ele>1226.6006</ele>
        <time>2025-09-13T19:59:40+02:00</time>
      </trkpt>
      <trkpt lat="42.77944" lon="1.33899">
        <ele>1226.6006</ele>
        <time>2025-09-13T19:59:41+02:00</time>
      </trkpt>
      <trkpt lat="42.77946" lon="1.33895">
        <ele>1227.4004</ele>
        <time>2025-09-13T19:59:45+02:00</time>
      </trkpt>
      <trkpt lat="42.77946" lon="1.33894">
        <ele>1227.4004</ele>
        <time>2025-09-13T19:59:46+02:00</time>
      </trkpt>
      <trkpt lat="42.77947" lon="1.33889">
        <ele>1223.9004</ele>
        <time>2025-09-13T19:59:50+02:00</time>
      </trkpt>
      <trkpt lat="42.77947" lon="1.33888">
        <ele>1223.9004</ele>
        <time>2025-09-13T19:59:51+02:00</time>
      </trkpt>
      <trkpt lat="42.77948" lon="1.33883">
        <ele>1224.7998</ele>
        <time>2025-09-13T19:59:55+02:00</time>
      </trkpt>
      <trkpt lat="42.77948" lon="1.33882">
        <ele>1224.7998</ele>
        <time>2025-09-13T19:59:56+02:00</time>
      </trkpt>
      <trkpt lat="42.77949" lon="1.3388">
        <ele>1224.7998</ele>
        <time>2025-09-13T20:00:00+02:00</time>
      </trkpt>
      <trkpt lat="42.77949" lon="1.3388">
        <ele>1224.7998</ele>
        <time>2025-09-13T20:00:01+02:00</time>
      </trkpt>
      <trkpt lat="42.77949" lon="1.3388">
        <ele>1224.7998</ele>
        <time>2025-09-13T20:00:05+02:00</time>
      </trkpt>
      <trkpt lat="42.77949" lon="1.3388">
        <ele>1224.7998</ele>
        <time>2025-09-13T20:00:06+02:00</time>
      </trkpt>
      <trkpt lat="42.77952" lon="1.33879">
        <ele>1224.7998</ele>
        <time>2025-09-13T20:00:10+02:00</time>
      </trkpt>
      <trkpt lat="42.77952" lon="1.33878">
        <ele>1225.7998</ele>
        <time>2025-09-13T20:00:11+02:00</time>
      </trkpt>
      <trkpt lat="42.77955" lon="1.33883">
        <ele>1221.2998</ele>
        <time>2025-09-13T20:00:15+02:00</time>
      </trkpt>
      <trkpt lat="42.77954" lon="1.33885">
        <ele>1221.2998</ele>
        <time>2025-09-13T20:00:16+02:00</time>
      </trkpt>
      <trkpt lat="42.77951" lon="1.33893">
        <ele>1223.9004</ele>
        <time>2025-09-13T20:00:20+02:00</time>
      </trkpt>
      <trkpt lat="42.7795" lon="1.33894">
        <ele>1223.9004</ele>
        <time>2025-09-13T20:00:21+02:00</time>
      </trkpt>
      <trkpt lat="42.77948" lon="1.339">
        <ele>1223</ele>
        <time>2025-09-13T20:00:25+02:00</time>
      </trkpt>
      <trkpt lat="42.77948" lon="1.33902">
        <ele>1223</ele>
        <time>2025-09-13T20:00:26+02:00</time>
      </trkpt>
      <trkpt lat="42.77948" lon="1.33904">
        <ele>1223</ele>
        <time>2025-09-13T20:00:30+02:00</time>
      </trkpt>
      <trkpt lat="42.77948" lon="1.33904">
        <ele>1223</ele>
        <time>2025-09-13T20:00:31+02:00</time>
      </trkpt>
      <trkpt lat="42.77949" lon="1.33904">
        <ele>1223</ele>
        <time>2025-09-13T20:00:35+02:00</time>
      </trkpt>
      <trkpt lat="42.77949" lon="1.33904">
        <ele>1223</ele>
        <time>2025-09-13T20:00:36+02:00</time>
      </trkpt>
      <trkpt lat="42.77949" lon="1.33905">
        <ele>1222.2998</ele>
        <time>2025-09-13T20:00:40+02:00</time>
      </trkpt>
      <trkpt lat="42.77949" lon="1.33905">
        <ele>1222.2998</ele>
        <time>2025-09-13T20:00:41+02:00</time>
      </trkpt>
      <trkpt lat="42.77948" lon="1.33911">
        <ele>1222.2998</ele>
        <time>2025-09-13T20:00:45+02:00</time>
      </trkpt>
      <trkpt lat="42.77948" lon="1.33912">
        <ele>1222.2998</ele>
        <time>2025-09-13T20:00:46+02:00</time>
      </trkpt>
      <trkpt lat="42.77949" lon="1.33919">
        <ele>1221.4004</ele>
        <time>2025-09-13T20:00:50+02:00</time>
      </trkpt>
      <trkpt lat="42.77949" lon="1.33921">
        <ele>1221.4004</ele>
        <time>2025-09-13T20:00:51+02:00</time>
      </trkpt>
      <trkpt lat="42.77949" lon="1.33926">
        <ele>1220.5</ele>
        <time>2025-09-13T20:00:55+02:00</time>
      </trkpt>
      <trkpt lat="42.77949" lon="1.33928">
        <ele>1220.5</ele>
        <time>2025-09-13T20:00:56+02:00</time>
      </trkpt>
      <trkpt lat="42.77948" lon="1.33933">
        <ele>1219.5</ele>
        <time>2025-09-13T20:01:00+02:00</time>
      </trkpt>
      <trkpt lat="42.77948" lon="1.33934">
        <ele>1219.5</ele>
        <time>2025-09-13T20:01:01+02:00</time>
      </trkpt>
      <trkpt lat="42.77949" lon="1.33937">
        <ele>1219.5</ele>
        <time>2025-09-13T20:01:06+02:00</time>
      </trkpt>
      <trkpt lat="42.77949" lon="1.33937">
        <ele>1219.5</ele>
        <time>2025-09-13T20:01:07+02:00</time>
      </trkpt>
      <trkpt lat="42.77951" lon="1.33937">
        <ele>1219.5</ele>
        <time>2025-09-13T20:01:11+02:00</time>
      </trkpt>
      <trkpt lat="42.77951" lon="1.33937">
        <ele>1219.5</ele>
        <time>2025-09-13T20:01:12+02:00</time>
      </trkpt>
      <trkpt lat="42.77952" lon="1.33937">
        <ele>1219.5</ele>
        <time>2025-09-13T20:01:16+02:00</time>
      </trkpt>
      <trkpt lat="42.77952" lon="1.33937">
        <ele>1219.5</ele>
        <time>2025-09-13T20:01:17+02:00</time>
      </trkpt>
      <trkpt lat="42.77952" lon="1.33937">
        <ele>1219.5</ele>
        <time>2025-09-13T20:01:21+02:00</time>
      </trkpt>
      <trkpt lat="42.77953" lon="1.33937">
        <ele>1219.5</ele>
        <time>2025-09-13T20:01:22+02:00</time>
      </trkpt>
      <trkpt lat="42.77953" lon="1.33937">
        <ele>1215.7002</ele>
        <time>2025-09-13T20:01:26+02:00</time>
      </trkpt>
      <trkpt lat="42.77953" lon="1.33937">
        <ele>1215.7002</ele>
        <time>2025-09-13T20:01:27+02:00</time>
      </trkpt>
      <trkpt lat="42.77954" lon="1.33938">
        <ele>1215.7002</ele>
        <time>2025-09-13T20:01:31+02:00</time>
      </trkpt>
      <trkpt lat="42.77955" lon="1.33938">
        <ele>1215.7002</ele>
        <time>2025-09-13T20:01:32+02:00</time>
      </trkpt>
      <trkpt lat="42.77955" lon="1.33938">
        <ele>1215.7002</ele>
        <time>2025-09-13T20:01:36+02:00</time>
      </trkpt>
      <trkpt lat="42.77955" lon="1.33938">
        <ele>1215.7002</ele>
        <time>2025-09-13T20:01:37+02:00</time>
      </trkpt>
      <trkpt lat="42.77954" lon="1.33937">
        <ele>1215.7002</ele>
        <time>2025-09-13T20:01:41+02:00</time>
      </trkpt>
      <trkpt lat="42.77954" lon="1.33937">
        <ele>1215.7002</ele>
        <time>2025-09-13T20:01:42+02:00</time>
      </trkpt>
      <trkpt lat="42.77954" lon="1.33936">
        <ele>1215.7002</ele>
        <time>2025-09-13T20:01:46+02:00</time>
      </trkpt>
      <trkpt lat="42.77954" lon="1.33936">
        <ele>1215.7002</ele>
        <time>2025-09-13T20:01:47+02:00</time>
      </trkpt>
      <trkpt lat="42.77953" lon="1.33933">
        <ele>1215.7002</ele>
        <time>2025-09-13T20:01:51+02:00</time>
      </trkpt>
      <trkpt lat="42.77953" lon="1.33931">
        <ele>1215.7002</ele>
        <time>2025-09-13T20:01:52+02:00</time>
      </trkpt>
      <trkpt lat="42.77954" lon="1.33923">
        <ele>1216.7002</ele>
        <time>2025-09-13T20:01:56+02:00</time>
      </trkpt>
      <trkpt lat="42.77954" lon="1.33922">
        <ele>1216.7002</ele>
        <time>2025-09-13T20:01:57+02:00</time>
      </trkpt>
      <trkpt lat="42.77955" lon="1.33917">
        <ele>1217.7002</ele>
        <time>2025-09-13T20:02:01+02:00</time>
      </trkpt>
      <trkpt lat="42.77955" lon="1.33916">
        <ele>1217.7002</ele>
        <time>2025-09-13T20:02:02+02:00</time>
      </trkpt>
      <trkpt lat="42.77956" lon="1.33911">
        <ele>1218.6006</ele>
        <time>2025-09-13T20:02:06+02:00</time>
      </trkpt>
      <trkpt lat="42.77956" lon="1.33911">
        <ele>1218.6006</ele>
        <time>2025-09-13T20:02:07+02:00</time>
      </trkpt>
      <trkpt lat="42.77959" lon="1.33908">
        <ele>1218.6006</ele>
        <time>2025-09-13T20:02:11+02:00</time>
      </trkpt>
      <trkpt lat="42.7796" lon="1.33908">
        <ele>1214.7002</ele>
        <time>2025-09-13T20:02:12+02:00</time>
      </trkpt>
      <trkpt lat="42.77962" lon="1.33906">
        <ele>1214.7002</ele>
        <time>2025-09-13T20:02:16+02:00</time>
      </trkpt>
      <trkpt lat="42.77962" lon="1.33906">
        <ele>1214.7002</ele>
        <time>2025-09-13T20:02:17+02:00</time>
      </trkpt>
      <trkpt lat="42.77965" lon="1.33905">
        <ele>1214.7002</ele>
        <time>2025-09-13T20:02:21+02:00</time>
      </trkpt>
      <trkpt lat="42.77965" lon="1.33904">
        <ele>1215.7002</ele>
        <time>2025-09-13T20:02:22+02:00</time>
      </trkpt>
      <trkpt lat="42.77965" lon="1.33898">
        <ele>1211.7998</ele>
        <time>2025-09-13T20:02:26+02:00</time>
      </trkpt>
      <trkpt lat="42.77965" lon="1.33897">
        <ele>1215.7002</ele>
        <time>2025-09-13T20:02:27+02:00</time>
      </trkpt>
      <trkpt lat="42.77965" lon="1.33895">
        <ele>1216.6006</ele>
        <time>2025-09-13T20:02:31+02:00</time>
      </trkpt>
      <trkpt lat="42.77965" lon="1.33894">
        <ele>1216.6006</ele>
        <time>2025-09-13T20:02:32+02:00</time>
      </trkpt>
      <trkpt lat="42.77966" lon="1.33892">
        <ele>1212.9004</ele>
        <time>2025-09-13T20:02:36+02:00</time>
      </trkpt>
      <trkpt lat="42.77966" lon="1.33892">
        <ele>1212.9004</ele>
        <time>2025-09-13T20:02:37+02:00</time>
      </trkpt>
      <trkpt lat="42.77968" lon="1.3389">
        <ele>1212.9004</ele>
        <time>2025-09-13T20:02:41+02:00</time>
      </trkpt>
      <trkpt lat="42.77968" lon="1.3389">
        <ele>1212.9004</ele>
        <time>2025-09-13T20:02:42+02:00</time>
      </trkpt>
      <trkpt lat="42.77971" lon="1.33887">
        <ele>1212.9004</ele>
        <time>2025-09-13T20:02:46+02:00</time>
      </trkpt>
      <trkpt lat="42.77972" lon="1.33887">
        <ele>1210.2998</ele>
        <time>2025-09-13T20:02:47+02:00</time>
      </trkpt>
      <trkpt lat="42.77974" lon="1.33884">
        <ele>1210.2998</ele>
        <time>2025-09-13T20:02:51+02:00</time>
      </trkpt>
      <trkpt lat="42.77974" lon="1.33884">
        <ele>1210.2998</ele>
        <time>2025-09-13T20:02:52+02:00</time>
      </trkpt>
      <trkpt lat="42.77975" lon="1.33884">
        <ele>1210.2998</ele>
        <time>2025-09-13T20:02:56+02:00</time>
      </trkpt>
      <trkpt lat="42.77975" lon="1.33885">
        <ele>1210.2998</ele>
        <time>2025-09-13T20:02:57+02:00</time>
      </trkpt>
      <trkpt lat="42.77974" lon="1.33886">
        <ele>1210.2998</ele>
        <time>2025-09-13T20:03:01+02:00</time>
      </trkpt>
      <trkpt lat="42.77975" lon="1.33886">
        <ele>1210.2998</ele>
        <time>2025-09-13T20:03:02+02:00</time>
      </trkpt>
      <trkpt lat="42.77976" lon="1.33885">
        <ele>1210.2998</ele>
        <time>2025-09-13T20:03:06+02:00</time>
      </trkpt>
      <trkpt lat="42.77975" lon="1.33885">
        <ele>1210.2998</ele>
        <time>2025-09-13T20:03:07+02:00</time>
      </trkpt>
      <trkpt lat="42.77974" lon="1.33886">
        <ele>1210.2998</ele>
        <time>2025-09-13T20:03:11+02:00</time>
      </trkpt>
      <trkpt lat="42.77974" lon="1.33887">
        <ele>1210.2998</ele>
        <time>2025-09-13T20:03:12+02:00</time>
      </trkpt>
      <trkpt lat="42.77976" lon="1.33889">
        <ele>1209.1006</ele>
        <time>2025-09-13T20:03:16+02:00</time>
      </trkpt>
      <trkpt lat="42.77977" lon="1.3389">
        <ele>1209.1006</ele>
        <time>2025-09-13T20:03:17+02:00</time>
      </trkpt>
      <trkpt lat="42.77975" lon="1.33895">
        <ele>1209.1006</ele>
        <time>2025-09-13T20:03:21+02:00</time>
      </trkpt>
      <trkpt lat="42.77975" lon="1.33896">
        <ele>1207.9004</ele>
        <time>2025-09-13T20:03:22+02:00</time>
      </trkpt>
      <trkpt lat="42.77973" lon="1.33901">
        <ele>1207.9004</ele>
        <time>2025-09-13T20:03:26+02:00</time>
      </trkpt>
      <trkpt lat="42.77973" lon="1.33902">
        <ele>1207.9004</ele>
        <time>2025-09-13T20:03:27+02:00</time>
      </trkpt>
      <trkpt lat="42.77972" lon="1.33908">
        <ele>1206.7998</ele>
        <time>2025-09-13T20:03:31+02:00</time>
      </trkpt>
      <trkpt lat="42.77972" lon="1.33909">
        <ele>1210.7998</ele>
        <time>2025-09-13T20:03:32+02:00</time>
      </trkpt>
      <trkpt lat="42.77971" lon="1.33914">
        <ele>1209.7998</ele>
        <time>2025-09-13T20:03:36+02:00</time>
      </trkpt>
      <trkpt lat="42.77971" lon="1.33916">
        <ele>1209.7998</ele>
        <time>2025-09-13T20:03:37+02:00</time>
      </trkpt>
      <trkpt lat="42.77972" lon="1.33921">
        <ele>1205.7002</ele>
        <time>2025-09-13T20:03:41+02:00</time>
      </trkpt>
      <trkpt lat="42.77972" lon="1.33921">
        <ele>1205.7002</ele>
        <time>2025-09-13T20:03:42+02:00</time>
      </trkpt>
      <trkpt lat="42.77971" lon="1.33921">
        <ele>1209.7998</ele>
        <time>2025-09-13T20:03:46+02:00</time>
      </trkpt>
      <trkpt lat="42.77971" lon="1.33921">
        <ele>1209.7998</ele>
        <time>2025-09-13T20:03:47+02:00</time>
      </trkpt>
      <trkpt lat="42.77971" lon="1.33921">
        <ele>1209.7998</ele>
        <time>2025-09-13T20:03:51+02:00</time>
      </trkpt>
      <trkpt lat="42.77971" lon="1.33921">
        <ele>1209.7998</ele>
        <time>2025-09-13T20:03:52+02:00</time>
      </trkpt>
      <trkpt lat="42.77972" lon="1.3392">
        <ele>1205.7002</ele>
        <time>2025-09-13T20:03:56+02:00</time>
      </trkpt>
      <trkpt lat="42.77973" lon="1.3392">
        <ele>1205.7002</ele>
        <time>2025-09-13T20:03:57+02:00</time>
      </trkpt>
      <trkpt lat="42.77974" lon="1.33919">
        <ele>1205.7002</ele>
        <time>2025-09-13T20:04:01+02:00</time>
      </trkpt>
      <trkpt lat="42.77974" lon="1.3392">
        <ele>1205.7002</ele>
        <time>2025-09-13T20:04:02+02:00</time>
      </trkpt>
      <trkpt lat="42.77975" lon="1.33921">
        <ele>1205.7002</ele>
        <time>2025-09-13T20:04:06+02:00</time>
      </trkpt>
      <trkpt lat="42.77975" lon="1.33921">
        <ele>1205.7002</ele>
        <time>2025-09-13T20:04:07+02:00</time>
      </trkpt>
      <trkpt lat="42.77975" lon="1.33924">
        <ele>1204.6006</ele>
        <time>2025-09-13T20:04:11+02:00</time>
      </trkpt>
      <trkpt lat="42.77975" lon="1.33925">
        <ele>1204.6006</ele>
        <time>2025-09-13T20:04:12+02:00</time>
      </trkpt>
      <trkpt lat="42.77975" lon="1.33932">
        <ele>1203.5</ele>
        <time>2025-09-13T20:04:16+02:00</time>
      </trkpt>
      <trkpt lat="42.77975" lon="1.33933">
        <ele>1203.5</ele>
        <time>2025-09-13T20:04:17+02:00</time>
      </trkpt>
      <trkpt lat="42.77977" lon="1.33939">
        <ele>1202.4004</ele>
        <time>2025-09-13T20:04:21+02:00</time>
      </trkpt>
      <trkpt lat="42.77977" lon="1.3394">
        <ele>1202.4004</ele>
        <time>2025-09-13T20:04:22+02:00</time>
      </trkpt>
      <trkpt lat="42.77978" lon="1.33945">
        <ele>1198</ele>
        <time>2025-09-13T20:04:26+02:00</time>
      </trkpt>
      <trkpt lat="42.77978" lon="1.33946">
        <ele>1198</ele>
        <time>2025-09-13T20:04:27+02:00</time>
      </trkpt>
      <trkpt lat="42.77977" lon="1.3395">
        <ele>1201.2998</ele>
        <time>2025-09-13T20:04:31+02:00</time>
      </trkpt>
      <trkpt lat="42.77977" lon="1.33951">
        <ele>1201.2998</ele>
        <time>2025-09-13T20:04:32+02:00</time>
      </trkpt>
      <trkpt lat="42.77977" lon="1.33955">
        <ele>1201.2998</ele>
        <time>2025-09-13T20:04:36+02:00</time>
      </trkpt>
      <trkpt lat="42.77976" lon="1.33956">
        <ele>1201.2998</ele>
        <time>2025-09-13T20:04:37+02:00</time>
      </trkpt>
      <trkpt lat="42.77975" lon="1.33959">
        <ele>1200.1006</ele>
        <time>2025-09-13T20:04:41+02:00</time>
      </trkpt>
      <trkpt lat="42.77974" lon="1.3396">
        <ele>1200.1006</ele>
        <time>2025-09-13T20:04:42+02:00</time>
      </trkpt>
      <trkpt lat="42.77973" lon="1.33961">
        <ele>1200.1006</ele>
        <time>2025-09-13T20:04:46+02:00</time>
      </trkpt>
      <trkpt lat="42.77973" lon="1.33961">
        <ele>1200.1006</ele>
        <time>2025-09-13T20:04:47+02:00</time>
      </trkpt>
      <trkpt lat="42.77971" lon="1.33965">
        <ele>1203.2002</ele>
        <time>2025-09-13T20:04:51+02:00</time>
      </trkpt>
      <trkpt lat="42.77971" lon="1.33966">
        <ele>1203.2002</ele>
        <time>2025-09-13T20:04:52+02:00</time>
      </trkpt>
      <trkpt lat="42.77971" lon="1.33971">
        <ele>1203.2002</ele>
        <time>2025-09-13T20:04:56+02:00</time>
      </trkpt>
      <trkpt lat="42.77971" lon="1.33972">
        <ele>1203.2002</ele>
        <time>2025-09-13T20:04:57+02:00</time>
      </trkpt>
      <trkpt lat="42.77971" lon="1.33977">
        <ele>1202</ele>
        <time>2025-09-13T20:05:01+02:00</time>
      </trkpt>
      <trkpt lat="42.77971" lon="1.33978">
        <ele>1202</ele>
        <time>2025-09-13T20:05:02+02:00</time>
      </trkpt>
      <trkpt lat="42.77971" lon="1.33982">
        <ele>1201</ele>
        <time>2025-09-13T20:05:06+02:00</time>
      </trkpt>
      <trkpt lat="42.77971" lon="1.33983">
        <ele>1201</ele>
        <time>2025-09-13T20:05:07+02:00</time>
      </trkpt>
      <trkpt lat="42.77972" lon="1.33987">
        <ele>1196.7998</ele>
        <time>2025-09-13T20:05:11+02:00</time>
      </trkpt>
      <trkpt lat="42.77972" lon="1.33988">
        <ele>1196.7998</ele>
        <time>2025-09-13T20:05:12+02:00</time>
      </trkpt>
      <trkpt lat="42.77973" lon="1.3399">
        <ele>1195.7998</ele>
        <time>2025-09-13T20:05:16+02:00</time>
      </trkpt>
      <trkpt lat="42.77972" lon="1.33991">
        <ele>1195.7998</ele>
        <time>2025-09-13T20:05:17+02:00</time>
      </trkpt>
      <trkpt lat="42.77971" lon="1.33995">
        <ele>1199.9004</ele>
        <time>2025-09-13T20:05:21+02:00</time>
      </trkpt>
      <trkpt lat="42.77971" lon="1.33996">
        <ele>1199.9004</ele>
        <time>2025-09-13T20:05:22+02:00</time>
      </trkpt>
      <trkpt lat="42.77971" lon="1.33999">
        <ele>1198.9004</ele>
        <time>2025-09-13T20:05:26+02:00</time>
      </trkpt>
      <trkpt lat="42.77971" lon="1.34">
        <ele>1198.9004</ele>
        <time>2025-09-13T20:05:27+02:00</time>
      </trkpt>
      <trkpt lat="42.77971" lon="1.34005">
        <ele>1198.9004</ele>
        <time>2025-09-13T20:05:31+02:00</time>
      </trkpt>
      <trkpt lat="42.77971" lon="1.34006">
        <ele>1198.9004</ele>
        <time>2025-09-13T20:05:32+02:00</time>
      </trkpt>
      <trkpt lat="42.77971" lon="1.34011">
        <ele>1197.9004</ele>
        <time>2025-09-13T20:05:36+02:00</time>
      </trkpt>
      <trkpt lat="42.77971" lon="1.34012">
        <ele>1197.9004</ele>
        <time>2025-09-13T20:05:37+02:00</time>
      </trkpt>
      <trkpt lat="42.7797" lon="1.34015">
        <ele>1197.9004</ele>
        <time>2025-09-13T20:05:41+02:00</time>
      </trkpt>
      <trkpt lat="42.7797" lon="1.34016">
        <ele>1197.9004</ele>
        <time>2025-09-13T20:05:42+02:00</time>
      </trkpt>
      <trkpt lat="42.77971" lon="1.34019">
        <ele>1197</ele>
        <time>2025-09-13T20:05:46+02:00</time>
      </trkpt>
      <trkpt lat="42.77971" lon="1.34019">
        <ele>1197</ele>
        <time>2025-09-13T20:05:47+02:00</time>
      </trkpt>
      <trkpt lat="42.77973" lon="1.34022">
        <ele>1192.9004</ele>
        <time>2025-09-13T20:05:51+02:00</time>
      </trkpt>
      <trkpt lat="42.77974" lon="1.34022">
        <ele>1192.9004</ele>
        <time>2025-09-13T20:05:52+02:00</time>
      </trkpt>
      <trkpt lat="42.77974" lon="1.3402">
        <ele>1192.9004</ele>
        <time>2025-09-13T20:05:56+02:00</time>
      </trkpt>
      <trkpt lat="42.77975" lon="1.3402">
        <ele>1192.9004</ele>
        <time>2025-09-13T20:05:57+02:00</time>
      </trkpt>
      <trkpt lat="42.77975" lon="1.34019">
        <ele>1192.9004</ele>
        <time>2025-09-13T20:06:01+02:00</time>
      </trkpt>
      <trkpt lat="42.77975" lon="1.34019">
        <ele>1192.9004</ele>
        <time>2025-09-13T20:06:02+02:00</time>
      </trkpt>
      <trkpt lat="42.77976" lon="1.34018">
        <ele>1192.9004</ele>
        <time>2025-09-13T20:06:06+02:00</time>
      </trkpt>
      <trkpt lat="42.77976" lon="1.34018">
        <ele>1192.9004</ele>
        <time>2025-09-13T20:06:07+02:00</time>
      </trkpt>
      <trkpt lat="42.77976" lon="1.34016">
        <ele>1192.9004</ele>
        <time>2025-09-13T20:06:11+02:00</time>
      </trkpt>
      <trkpt lat="42.77977" lon="1.34015">
        <ele>1193.7998</ele>
        <time>2025-09-13T20:06:12+02:00</time>
      </trkpt>
      <trkpt lat="42.77978" lon="1.34008">
        <ele>1193.7998</ele>
        <time>2025-09-13T20:06:16+02:00</time>
      </trkpt>
      <trkpt lat="42.77978" lon="1.34007">
        <ele>1194.7998</ele>
        <time>2025-09-13T20:06:17+02:00</time>
      </trkpt>
      <trkpt lat="42.7798" lon="1.34002">
        <ele>1190.5</ele>
        <time>2025-09-13T20:06:21+02:00</time>
      </trkpt>
      <trkpt lat="42.77981" lon="1.34002">
        <ele>1190.5</ele>
        <time>2025-09-13T20:06:22+02:00</time>
      </trkpt>
      <trkpt lat="42.7798" lon="1.34002">
        <ele>1190.5</ele>
        <time>2025-09-13T20:06:26+02:00</time>
      </trkpt>
      <trkpt lat="42.7798" lon="1.34002">
        <ele>1190.5</ele>
        <time>2025-09-13T20:06:27+02:00</time>
      </trkpt>
      <trkpt lat="42.77981" lon="1.33998">
        <ele>1191.5</ele>
        <time>2025-09-13T20:06:31+02:00</time>
      </trkpt>
      <trkpt lat="42.77982" lon="1.33996">
        <ele>1191.5</ele>
        <time>2025-09-13T20:06:32+02:00</time>
      </trkpt>
      <trkpt lat="42.77984" lon="1.33991">
        <ele>1191.5</ele>
        <time>2025-09-13T20:06:36+02:00</time>
      </trkpt>
      <trkpt lat="42.77985" lon="1.3399">
        <ele>1187.9004</ele>
        <time>2025-09-13T20:06:37+02:00</time>
      </trkpt>
      <trkpt lat="42.77987" lon="1.33985">
        <ele>1187.9004</ele>
        <time>2025-09-13T20:06:41+02:00</time>
      </trkpt>
      <trkpt lat="42.77987" lon="1.33985">
        <ele>1187.9004</ele>
        <time>2025-09-13T20:06:42+02:00</time>
      </trkpt>
      <trkpt lat="42.77988" lon="1.3398">
        <ele>1188.9004</ele>
        <time>2025-09-13T20:06:46+02:00</time>
      </trkpt>
      <trkpt lat="42.77988" lon="1.3398">
        <ele>1188.9004</ele>
        <time>2025-09-13T20:06:47+02:00</time>
      </trkpt>
      <trkpt lat="42.7799" lon="1.33976">
        <ele>1188.9004</ele>
        <time>2025-09-13T20:06:51+02:00</time>
      </trkpt>
      <trkpt lat="42.77991" lon="1.33975">
        <ele>1184.2002</ele>
        <time>2025-09-13T20:06:52+02:00</time>
      </trkpt>
      <trkpt lat="42.77993" lon="1.33973">
        <ele>1185.2998</ele>
        <time>2025-09-13T20:06:56+02:00</time>
      </trkpt>
      <trkpt lat="42.77994" lon="1.33972">
        <ele>1185.2998</ele>
        <time>2025-09-13T20:06:57+02:00</time>
      </trkpt>
      <trkpt lat="42.77993" lon="1.33968">
        <ele>1185.2998</ele>
        <time>2025-09-13T20:07:01+02:00</time>
      </trkpt>
      <trkpt lat="42.77993" lon="1.33967">
        <ele>1185.2998</ele>
        <time>2025-09-13T20:07:02+02:00</time>
      </trkpt>
      <trkpt lat="42.77993" lon="1.33964">
        <ele>1186.4004</ele>
        <time>2025-09-13T20:07:06+02:00</time>
      </trkpt>
      <trkpt lat="42.77993" lon="1.33964">
        <ele>1186.4004</ele>
        <time>2025-09-13T20:07:07+02:00</time>
      </trkpt>
      <trkpt lat="42.77993" lon="1.33966">
        <ele>1185.2998</ele>
        <time>2025-09-13T20:07:11+02:00</time>
      </trkpt>
      <trkpt lat="42.77992" lon="1.33966">
        <ele>1185.2998</ele>
        <time>2025-09-13T20:07:12+02:00</time>
      </trkpt>
      <trkpt lat="42.77992" lon="1.33966">
        <ele>1185.2998</ele>
        <time>2025-09-13T20:07:16+02:00</time>
      </trkpt>
      <trkpt lat="42.77992" lon="1.33966">
        <ele>1185.2998</ele>
        <time>2025-09-13T20:07:17+02:00</time>
      </trkpt>
      <trkpt lat="42.77992" lon="1.33967">
        <ele>1185.2998</ele>
        <time>2025-09-13T20:07:21+02:00</time>
      </trkpt>
      <trkpt lat="42.77992" lon="1.33967">
        <ele>1185.2998</ele>
        <time>2025-09-13T20:07:22+02:00</time>
      </trkpt>
      <trkpt lat="42.77992" lon="1.33967">
        <ele>1185.2998</ele>
        <time>2025-09-13T20:07:26+02:00</time>
      </trkpt>
      <trkpt lat="42.77992" lon="1.33967">
        <ele>1185.2998</ele>
        <time>2025-09-13T20:07:27+02:00</time>
      </trkpt>
      <trkpt lat="42.77991" lon="1.33967">
        <ele>1185.2998</ele>
        <time>2025-09-13T20:07:31+02:00</time>
      </trkpt>
      <trkpt lat="42.77991" lon="1.33967">
        <ele>1185.2998</ele>
        <time>2025-09-13T20:07:32+02:00</time>
      </trkpt>
      <trkpt lat="42.77992" lon="1.33967">
        <ele>1185.2998</ele>
        <time>2025-09-13T20:07:36+02:00</time>
      </trkpt>
      <trkpt lat="42.77992" lon="1.33967">
        <ele>1185.2998</ele>
        <time>2025-09-13T20:07:37+02:00</time>
      </trkpt>
      <trkpt lat="42.77992" lon="1.33967">
        <ele>1185.2998</ele>
        <time>2025-09-13T20:07:41+02:00</time>
      </trkpt>
      <trkpt lat="42.77992" lon="1.33967">
        <ele>1185.2998</ele>
        <time>2025-09-13T20:07:42+02:00</time>
      </trkpt>
      <trkpt lat="42.77992" lon="1.33967">
        <ele>1185.2998</ele>
        <time>2025-09-13T20:07:46+02:00</time>
      </trkpt>
      <trkpt lat="42.77992" lon="1.33967">
        <ele>1185.2998</ele>
        <time>2025-09-13T20:07:47+02:00</time>
      </trkpt>
      <trkpt lat="42.77992" lon="1.33965">
        <ele>1185.2998</ele>
        <time>2025-09-13T20:07:51+02:00</time>
      </trkpt>
      <trkpt lat="42.77992" lon="1.33963">
        <ele>1186.4004</ele>
        <time>2025-09-13T20:07:52+02:00</time>
      </trkpt>
      <trkpt lat="42.77992" lon="1.33962">
        <ele>1186.4004</ele>
        <time>2025-09-13T20:07:56+02:00</time>
      </trkpt>
      <trkpt lat="42.77992" lon="1.33962">
        <ele>1186.4004</ele>
        <time>2025-09-13T20:07:57+02:00</time>
      </trkpt>
      <trkpt lat="42.77992" lon="1.33961">
        <ele>1186.4004</ele>
        <time>2025-09-13T20:08:01+02:00</time>
      </trkpt>
      <trkpt lat="42.77992" lon="1.33961">
        <ele>1186.4004</ele>
        <time>2025-09-13T20:08:02+02:00</time>
      </trkpt>
      <trkpt lat="42.77992" lon="1.33961">
        <ele>1186.4004</ele>
        <time>2025-09-13T20:08:06+02:00</time>
      </trkpt>
      <trkpt lat="42.77992" lon="1.33961">
        <ele>1186.4004</ele>
        <time>2025-09-13T20:08:07+02:00</time>
      </trkpt>
      <trkpt lat="42.77994" lon="1.33959">
        <ele>1186.4004</ele>
        <time>2025-09-13T20:08:11+02:00</time>
      </trkpt>
      <trkpt lat="42.77995" lon="1.33958">
        <ele>1186.4004</ele>
        <time>2025-09-13T20:08:12+02:00</time>
      </trkpt>
      <trkpt lat="42.77997" lon="1.33955">
        <ele>1187.6006</ele>
        <time>2025-09-13T20:08:16+02:00</time>
      </trkpt>
      <trkpt lat="42.77997" lon="1.33953">
        <ele>1187.6006</ele>
        <time>2025-09-13T20:08:17+02:00</time>
      </trkpt>
      <trkpt lat="42.77996" lon="1.33953">
        <ele>1187.6006</ele>
        <time>2025-09-13T20:08:21+02:00</time>
      </trkpt>
      <trkpt lat="42.77996" lon="1.33953">
        <ele>1187.6006</ele>
        <time>2025-09-13T20:08:22+02:00</time>
      </trkpt>
      <trkpt lat="42.77996" lon="1.33953">
        <ele>1187.6006</ele>
        <time>2025-09-13T20:08:26+02:00</time>
      </trkpt>
      <trkpt lat="42.77996" lon="1.33953">
        <ele>1187.6006</ele>
        <time>2025-09-13T20:08:27+02:00</time>
      </trkpt>
      <trkpt lat="42.77997" lon="1.33952">
        <ele>1187.6006</ele>
        <time>2025-09-13T20:08:31+02:00</time>
      </trkpt>
      <trkpt lat="42.77997" lon="1.33951">
        <ele>1182.7002</ele>
        <time>2025-09-13T20:08:32+02:00</time>
      </trkpt>
      <trkpt lat="42.77998" lon="1.33947">
        <ele>1184</ele>
        <time>2025-09-13T20:08:36+02:00</time>
      </trkpt>
      <trkpt lat="42.77999" lon="1.33946">
        <ele>1184</ele>
        <time>2025-09-13T20:08:37+02:00</time>
      </trkpt>
      <trkpt lat="42.78002" lon="1.33944">
        <ele>1184</ele>
        <time>2025-09-13T20:08:41+02:00</time>
      </trkpt>
      <trkpt lat="42.78002" lon="1.33945">
        <ele>1184</ele>
        <time>2025-09-13T20:08:42+02:00</time>
      </trkpt>
      <trkpt lat="42.78002" lon="1.33948">
        <ele>1182.7002</ele>
        <time>2025-09-13T20:08:46+02:00</time>
      </trkpt>
      <trkpt lat="42.78002" lon="1.33948">
        <ele>1182.7002</ele>
        <time>2025-09-13T20:08:47+02:00</time>
      </trkpt>
      <trkpt lat="42.78004" lon="1.33949">
        <ele>1177.7998</ele>
        <time>2025-09-13T20:08:51+02:00</time>
      </trkpt>
      <trkpt lat="42.78004" lon="1.33949">
        <ele>1177.7998</ele>
        <time>2025-09-13T20:08:52+02:00</time>
      </trkpt>
      <trkpt lat="42.78004" lon="1.3395">
        <ele>1177.7998</ele>
        <time>2025-09-13T20:08:56+02:00</time>
      </trkpt>
      <trkpt lat="42.78005" lon="1.33949">
        <ele>1177.7998</ele>
        <time>2025-09-13T20:08:57+02:00</time>
      </trkpt>
      <trkpt lat="42.78009" lon="1.33945">
        <ele>1179.1006</ele>
        <time>2025-09-13T20:09:01+02:00</time>
      </trkpt>
      <trkpt lat="42.7801" lon="1.33944">
        <ele>1174</ele>
        <time>2025-09-13T20:09:02+02:00</time>
      </trkpt>
      <trkpt lat="42.78014" lon="1.33943">
        <ele>1174</ele>
        <time>2025-09-13T20:09:06+02:00</time>
      </trkpt>
      <trkpt lat="42.78014" lon="1.33944">
        <ele>1174</ele>
        <time>2025-09-13T20:09:07+02:00</time>
      </trkpt>
      <trkpt lat="42.78013" lon="1.33947">
        <ele>1174</ele>
        <time>2025-09-13T20:09:11+02:00</time>
      </trkpt>
      <trkpt lat="42.78012" lon="1.33948">
        <ele>1172.6006</ele>
        <time>2025-09-13T20:09:12+02:00</time>
      </trkpt>
      <trkpt lat="42.78012" lon="1.33949">
        <ele>1172.6006</ele>
        <time>2025-09-13T20:09:16+02:00</time>
      </trkpt>
      <trkpt lat="42.78013" lon="1.3395">
        <ele>1172.6006</ele>
        <time>2025-09-13T20:09:17+02:00</time>
      </trkpt>
      <trkpt lat="42.78017" lon="1.33947">
        <ele>1168.7998</ele>
        <time>2025-09-13T20:09:21+02:00</time>
      </trkpt>
      <trkpt lat="42.78018" lon="1.33946">
        <ele>1168.7998</ele>
        <time>2025-09-13T20:09:22+02:00</time>
      </trkpt>
      <trkpt lat="42.78021" lon="1.33942">
        <ele>1168.7998</ele>
        <time>2025-09-13T20:09:26+02:00</time>
      </trkpt>
      <trkpt lat="42.78021" lon="1.3394">
        <ele>1168.7998</ele>
        <time>2025-09-13T20:09:27+02:00</time>
      </trkpt>
      <trkpt lat="42.78024" lon="1.33936">
        <ele>1165.2002</ele>
        <time>2025-09-13T20:09:31+02:00</time>
      </trkpt>
      <trkpt lat="42.78024" lon="1.33935">
        <ele>1165.2002</ele>
        <time>2025-09-13T20:09:32+02:00</time>
      </trkpt>
      <trkpt lat="42.78028" lon="1.33932">
        <ele>1165.2002</ele>
        <time>2025-09-13T20:09:36+02:00</time>
      </trkpt>
      <trkpt lat="42.78028" lon="1.33931">
        <ele>1165.2002</ele>
        <time>2025-09-13T20:09:37+02:00</time>
      </trkpt>
      <trkpt lat="42.78028" lon="1.3393">
        <ele>1165.2002</ele>
        <time>2025-09-13T20:09:41+02:00</time>
      </trkpt>
      <trkpt lat="42.78028" lon="1.33931">
        <ele>1165.2002</ele>
        <time>2025-09-13T20:09:42+02:00</time>
      </trkpt>
      <trkpt lat="42.78027" lon="1.3393">
        <ele>1165.2002</ele>
        <time>2025-09-13T20:09:46+02:00</time>
      </trkpt>
      <trkpt lat="42.78027" lon="1.33929">
        <ele>1166.7998</ele>
        <time>2025-09-13T20:09:47+02:00</time>
      </trkpt>
      <trkpt lat="42.78028" lon="1.33922">
        <ele>1161.5</ele>
        <time>2025-09-13T20:09:51+02:00</time>
      </trkpt>
      <trkpt lat="42.78029" lon="1.3392">
        <ele>1163.2998</ele>
        <time>2025-09-13T20:09:52+02:00</time>
      </trkpt>
      <trkpt lat="42.78028" lon="1.33914">
        <ele>1163.2998</ele>
        <time>2025-09-13T20:09:56+02:00</time>
      </trkpt>
      <trkpt lat="42.78028" lon="1.33912">
        <ele>1170.2998</ele>
        <time>2025-09-13T20:09:57+02:00</time>
      </trkpt>
      <trkpt lat="42.78029" lon="1.33907">
        <ele>1165</ele>
        <time>2025-09-13T20:10:01+02:00</time>
      </trkpt>
      <trkpt lat="42.78029" lon="1.33906">
        <ele>1165</ele>
        <time>2025-09-13T20:10:02+02:00</time>
      </trkpt>
      <trkpt lat="42.78031" lon="1.33904">
        <ele>1166.9004</ele>
        <time>2025-09-13T20:10:06+02:00</time>
      </trkpt>
      <trkpt lat="42.78031" lon="1.33903">
        <ele>1166.9004</ele>
        <time>2025-09-13T20:10:07+02:00</time>
      </trkpt>
      <trkpt lat="42.78032" lon="1.33905">
        <ele>1165</ele>
        <time>2025-09-13T20:10:11+02:00</time>
      </trkpt>
      <trkpt lat="42.78033" lon="1.33904">
        <ele>1166.9004</ele>
        <time>2025-09-13T20:10:12+02:00</time>
      </trkpt>
      <trkpt lat="42.78037" lon="1.33901">
        <ele>1161.7002</ele>
        <time>2025-09-13T20:10:16+02:00</time>
      </trkpt>
      <trkpt lat="42.78038" lon="1.339">
        <ele>1161.7002</ele>
        <time>2025-09-13T20:10:17+02:00</time>
      </trkpt>
      <trkpt lat="42.7804" lon="1.33897">
        <ele>1161.7002</ele>
        <time>2025-09-13T20:10:21+02:00</time>
      </trkpt>
      <trkpt lat="42.78041" lon="1.33896">
        <ele>1161.7002</ele>
        <time>2025-09-13T20:10:22+02:00</time>
      </trkpt>
      <trkpt lat="42.78043" lon="1.33893">
        <ele>1158.6006</ele>
        <time>2025-09-13T20:10:26+02:00</time>
      </trkpt>
      <trkpt lat="42.78043" lon="1.33893">
        <ele>1158.6006</ele>
        <time>2025-09-13T20:10:27+02:00</time>
      </trkpt>
      <trkpt lat="42.78045" lon="1.3389">
        <ele>1158.6006</ele>
        <time>2025-09-13T20:10:31+02:00</time>
      </trkpt>
      <trkpt lat="42.78046" lon="1.3389">
        <ele>1158.6006</ele>
        <time>2025-09-13T20:10:32+02:00</time>
      </trkpt>
      <trkpt lat="42.78049" lon="1.33888">
        <ele>1153.2998</ele>
        <time>2025-09-13T20:10:36+02:00</time>
      </trkpt>
      <trkpt lat="42.78049" lon="1.33887">
        <ele>1155.6006</ele>
        <time>2025-09-13T20:10:37+02:00</time>
      </trkpt>
      <trkpt lat="42.78051" lon="1.33884">
        <ele>1155.6006</ele>
        <time>2025-09-13T20:10:41+02:00</time>
      </trkpt>
      <trkpt lat="42.78051" lon="1.33884">
        <ele>1155.6006</ele>
        <time>2025-09-13T20:10:42+02:00</time>
      </trkpt>
      <trkpt lat="42.78052" lon="1.33881">
        <ele>1155.6006</ele>
        <time>2025-09-13T20:10:46+02:00</time>
      </trkpt>
      <trkpt lat="42.78052" lon="1.3388">
        <ele>1155.6006</ele>
        <time>2025-09-13T20:10:47+02:00</time>
      </trkpt>
      <trkpt lat="42.78052" lon="1.33876">
        <ele>1158</ele>
        <time>2025-09-13T20:10:51+02:00</time>
      </trkpt>
      <trkpt lat="42.78051" lon="1.33875">
        <ele>1158</ele>
        <time>2025-09-13T20:10:52+02:00</time>
      </trkpt>
      <trkpt lat="42.78049" lon="1.33871">
        <ele>1158</ele>
        <time>2025-09-13T20:10:56+02:00</time>
      </trkpt>
      <trkpt lat="42.78049" lon="1.3387">
        <ele>1158</ele>
        <time>2025-09-13T20:10:57+02:00</time>
      </trkpt>
      <trkpt lat="42.78048" lon="1.33868">
        <ele>1160.6006</ele>
        <time>2025-09-13T20:11:01+02:00</time>
      </trkpt>
      <trkpt lat="42.78048" lon="1.33867">
        <ele>1160.6006</ele>
        <time>2025-09-13T20:11:02+02:00</time>
      </trkpt>
      <trkpt lat="42.78046" lon="1.33864">
        <ele>1165.7002</ele>
        <time>2025-09-13T20:11:06+02:00</time>
      </trkpt>
      <trkpt lat="42.78046" lon="1.33863">
        <ele>1165.7002</ele>
        <time>2025-09-13T20:11:07+02:00</time>
      </trkpt>
      <trkpt lat="42.78046" lon="1.33858">
        <ele>1168.2002</ele>
        <time>2025-09-13T20:11:11+02:00</time>
      </trkpt>
      <trkpt lat="42.78047" lon="1.33857">
        <ele>1168.2002</ele>
        <time>2025-09-13T20:11:12+02:00</time>
      </trkpt>
      <trkpt lat="42.7805" lon="1.33854">
        <ele>1163.2998</ele>
        <time>2025-09-13T20:11:16+02:00</time>
      </trkpt>
      <trkpt lat="42.78051" lon="1.33853">
        <ele>1166</ele>
        <time>2025-09-13T20:11:17+02:00</time>
      </trkpt>
      <trkpt lat="42.78052" lon="1.33849">
        <ele>1166</ele>
        <time>2025-09-13T20:11:21+02:00</time>
      </trkpt>
      <trkpt lat="42.78052" lon="1.33848">
        <ele>1166</ele>
        <time>2025-09-13T20:11:22+02:00</time>
      </trkpt>
      <trkpt lat="42.78051" lon="1.33843">
        <ele>1168.9004</ele>
        <time>2025-09-13T20:11:26+02:00</time>
      </trkpt>
      <trkpt lat="42.78052" lon="1.33842">
        <ele>1168.9004</ele>
        <time>2025-09-13T20:11:27+02:00</time>
      </trkpt>
      <trkpt lat="42.78054" lon="1.33839">
        <ele>1163.7998</ele>
        <time>2025-09-13T20:11:31+02:00</time>
      </trkpt>
      <trkpt lat="42.78054" lon="1.33838">
        <ele>1163.7998</ele>
        <time>2025-09-13T20:11:32+02:00</time>
      </trkpt>
      <trkpt lat="42.78057" lon="1.33836">
        <ele>1163.7998</ele>
        <time>2025-09-13T20:11:36+02:00</time>
      </trkpt>
      <trkpt lat="42.78058" lon="1.33836">
        <ele>1166.9004</ele>
        <time>2025-09-13T20:11:37+02:00</time>
      </trkpt>
      <trkpt lat="42.7806" lon="1.33834">
        <ele>1161.7002</ele>
        <time>2025-09-13T20:11:41+02:00</time>
      </trkpt>
      <trkpt lat="42.78061" lon="1.33833">
        <ele>1161.7002</ele>
        <time>2025-09-13T20:11:42+02:00</time>
      </trkpt>
      <trkpt lat="42.78062" lon="1.33829">
        <ele>1161.7002</ele>
        <time>2025-09-13T20:11:46+02:00</time>
      </trkpt>
      <trkpt lat="42.78063" lon="1.33828">
        <ele>1161.7002</ele>
        <time>2025-09-13T20:11:47+02:00</time>
      </trkpt>
      <trkpt lat="42.78063" lon="1.33823">
        <ele>1164.9004</ele>
        <time>2025-09-13T20:11:51+02:00</time>
      </trkpt>
      <trkpt lat="42.78063" lon="1.33822">
        <ele>1164.9004</ele>
        <time>2025-09-13T20:11:52+02:00</time>
      </trkpt>
      <trkpt lat="42.78063" lon="1.33818">
        <ele>1168.1006</ele>
        <time>2025-09-13T20:11:56+02:00</time>
      </trkpt>
      <trkpt lat="42.78063" lon="1.33817">
        <ele>1168.1006</ele>
        <time>2025-09-13T20:11:57+02:00</time>
      </trkpt>
      <trkpt lat="42.78064" lon="1.33813">
        <ele>1168.1006</ele>
        <time>2025-09-13T20:12:01+02:00</time>
      </trkpt>
      <trkpt lat="42.78065" lon="1.33812">
        <ele>1168.1006</ele>
        <time>2025-09-13T20:12:02+02:00</time>
      </trkpt>
      <trkpt lat="42.78068" lon="1.3381">
        <ele>1162.9004</ele>
        <time>2025-09-13T20:12:06+02:00</time>
      </trkpt>
      <trkpt lat="42.78069" lon="1.3381">
        <ele>1166</ele>
        <time>2025-09-13T20:12:07+02:00</time>
      </trkpt>
      <trkpt lat="42.7807" lon="1.33807">
        <ele>1166</ele>
        <time>2025-09-13T20:12:11+02:00</time>
      </trkpt>
      <trkpt lat="42.7807" lon="1.33806">
        <ele>1166</ele>
        <time>2025-09-13T20:12:12+02:00</time>
      </trkpt>
      <trkpt lat="42.78072" lon="1.33804">
        <ele>1166</ele>
        <time>2025-09-13T20:12:16+02:00</time>
      </trkpt>
      <trkpt lat="42.78072" lon="1.33804">
        <ele>1166</ele>
        <time>2025-09-13T20:12:17+02:00</time>
      </trkpt>
      <trkpt lat="42.78072" lon="1.33799">
        <ele>1163.7998</ele>
        <time>2025-09-13T20:12:21+02:00</time>
      </trkpt>
      <trkpt lat="42.78073" lon="1.33799">
        <ele>1163.7998</ele>
        <time>2025-09-13T20:12:22+02:00</time>
      </trkpt>
      <trkpt lat="42.78076" lon="1.33798">
        <ele>1163.7998</ele>
        <time>2025-09-13T20:12:26+02:00</time>
      </trkpt>
      <trkpt lat="42.78076" lon="1.33797">
        <ele>1163.7998</ele>
        <time>2025-09-13T20:12:27+02:00</time>
      </trkpt>
      <trkpt lat="42.78077" lon="1.33792">
        <ele>1166.9004</ele>
        <time>2025-09-13T20:12:31+02:00</time>
      </trkpt>
      <trkpt lat="42.78078" lon="1.33792">
        <ele>1166.9004</ele>
        <time>2025-09-13T20:12:32+02:00</time>
      </trkpt>
      <trkpt lat="42.78081" lon="1.33792">
        <ele>1161.4004</ele>
        <time>2025-09-13T20:12:36+02:00</time>
      </trkpt>
      <trkpt lat="42.78082" lon="1.33791">
        <ele>1161.4004</ele>
        <time>2025-09-13T20:12:37+02:00</time>
      </trkpt>
      <trkpt lat="42.78084" lon="1.33788">
        <ele>1161.4004</ele>
        <time>2025-09-13T20:12:41+02:00</time>
      </trkpt>
      <trkpt lat="42.78084" lon="1.33787">
        <ele>1161.4004</ele>
        <time>2025-09-13T20:12:42+02:00</time>
      </trkpt>
      <trkpt lat="42.78087" lon="1.33784">
        <ele>1158.7002</ele>
        <time>2025-09-13T20:12:46+02:00</time>
      </trkpt>
      <trkpt lat="42.78088" lon="1.33784">
        <ele>1158.7002</ele>
        <time>2025-09-13T20:12:47+02:00</time>
      </trkpt>
      <trkpt lat="42.7809" lon="1.33785">
        <ele>1155.4004</ele>
        <time>2025-09-13T20:12:51+02:00</time>
      </trkpt>
      <trkpt lat="42.78091" lon="1.33785">
        <ele>1155.4004</ele>
        <time>2025-09-13T20:12:52+02:00</time>
      </trkpt>
      <trkpt lat="42.78092" lon="1.33782">
        <ele>1152.7002</ele>
        <time>2025-09-13T20:12:56+02:00</time>
      </trkpt>
      <trkpt lat="42.78093" lon="1.33782">
        <ele>1152.7002</ele>
        <time>2025-09-13T20:12:57+02:00</time>
      </trkpt>
      <trkpt lat="42.78095" lon="1.33778">
        <ele>1152.7002</ele>
        <time>2025-09-13T20:13:01+02:00</time>
      </trkpt>
      <trkpt lat="42.78095" lon="1.33777">
        <ele>1152.7002</ele>
        <time>2025-09-13T20:13:02+02:00</time>
      </trkpt>
      <trkpt lat="42.78096" lon="1.33773">
        <ele>1156.1006</ele>
        <time>2025-09-13T20:13:06+02:00</time>
      </trkpt>
      <trkpt lat="42.78096" lon="1.33772">
        <ele>1156.1006</ele>
        <time>2025-09-13T20:13:07+02:00</time>
      </trkpt>
      <trkpt lat="42.78098" lon="1.33768">
        <ele>1150.1006</ele>
        <time>2025-09-13T20:13:11+02:00</time>
      </trkpt>
      <trkpt lat="42.78099" lon="1.33768">
        <ele>1150.1006</ele>
        <time>2025-09-13T20:13:12+02:00</time>
      </trkpt>
      <trkpt lat="42.78102" lon="1.33766">
        <ele>1153.5</ele>
        <time>2025-09-13T20:13:16+02:00</time>
      </trkpt>
      <trkpt lat="42.78102" lon="1.33766">
        <ele>1153.5</ele>
        <time>2025-09-13T20:13:17+02:00</time>
      </trkpt>
      <trkpt lat="42.78102" lon="1.33767">
        <ele>1153.5</ele>
        <time>2025-09-13T20:13:21+02:00</time>
      </trkpt>
      <trkpt lat="42.78102" lon="1.33767">
        <ele>1153.5</ele>
        <time>2025-09-13T20:13:22+02:00</time>
      </trkpt>
      <trkpt lat="42.78102" lon="1.33766">
        <ele>1153.5</ele>
        <time>2025-09-13T20:13:26+02:00</time>
      </trkpt>
      <trkpt lat="42.78102" lon="1.33766">
        <ele>1153.5</ele>
        <time>2025-09-13T20:13:27+02:00</time>
      </trkpt>
      <trkpt lat="42.78102" lon="1.33765">
        <ele>1153.5</ele>
        <time>2025-09-13T20:13:31+02:00</time>
      </trkpt>
      <trkpt lat="42.78102" lon="1.33765">
        <ele>1153.5</ele>
        <time>2025-09-13T20:13:32+02:00</time>
      </trkpt>
      <trkpt lat="42.78103" lon="1.33763">
        <ele>1153.5</ele>
        <time>2025-09-13T20:13:36+02:00</time>
      </trkpt>
      <trkpt lat="42.78104" lon="1.33762">
        <ele>1147.2998</ele>
        <time>2025-09-13T20:13:37+02:00</time>
      </trkpt>
      <trkpt lat="42.78107" lon="1.33762">
        <ele>1147.2998</ele>
        <time>2025-09-13T20:13:41+02:00</time>
      </trkpt>
      <trkpt lat="42.78107" lon="1.33762">
        <ele>1147.2998</ele>
        <time>2025-09-13T20:13:42+02:00</time>
      </trkpt>
      <trkpt lat="42.7811" lon="1.33761">
        <ele>1147.2998</ele>
        <time>2025-09-13T20:13:46+02:00</time>
      </trkpt>
      <trkpt lat="42.78111" lon="1.33761">
        <ele>1140.9004</ele>
        <time>2025-09-13T20:13:47+02:00</time>
      </trkpt>
      <trkpt lat="42.78113" lon="1.33758">
        <ele>1144.5</ele>
        <time>2025-09-13T20:13:51+02:00</time>
      </trkpt>
      <trkpt lat="42.78113" lon="1.33756">
        <ele>1144.5</ele>
        <time>2025-09-13T20:13:52+02:00</time>
      </trkpt>
      <trkpt lat="42.78113" lon="1.3375">
        <ele>1144.5</ele>
        <time>2025-09-13T20:13:56+02:00</time>
      </trkpt>
      <trkpt lat="42.78114" lon="1.3375">
        <ele>1148</ele>
        <time>2025-09-13T20:13:57+02:00</time>
      </trkpt>
      <trkpt lat="42.78115" lon="1.33747">
        <ele>1148</ele>
        <time>2025-09-13T20:14:01+02:00</time>
      </trkpt>
      <trkpt lat="42.78116" lon="1.33746">
        <ele>1148</ele>
        <time>2025-09-13T20:14:02+02:00</time>
      </trkpt>
      <trkpt lat="42.78117" lon="1.33743">
        <ele>1141.7998</ele>
        <time>2025-09-13T20:14:06+02:00</time>
      </trkpt>
      <trkpt lat="42.78118" lon="1.33742">
        <ele>1141.7998</ele>
        <time>2025-09-13T20:14:07+02:00</time>
      </trkpt>
      <trkpt lat="42.78119" lon="1.3374">
        <ele>1145.4004</ele>
        <time>2025-09-13T20:14:11+02:00</time>
      </trkpt>
      <trkpt lat="42.7812" lon="1.3374">
        <ele>1145.4004</ele>
        <time>2025-09-13T20:14:12+02:00</time>
      </trkpt>
      <trkpt lat="42.78121" lon="1.33739">
        <ele>1145.4004</ele>
        <time>2025-09-13T20:14:16+02:00</time>
      </trkpt>
      <trkpt lat="42.7812" lon="1.3374">
        <ele>1145.4004</ele>
        <time>2025-09-13T20:14:17+02:00</time>
      </trkpt>
      <trkpt lat="42.78119" lon="1.33741">
        <ele>1145.4004</ele>
        <time>2025-09-13T20:14:21+02:00</time>
      </trkpt>
      <trkpt lat="42.78119" lon="1.33741">
        <ele>1145.4004</ele>
        <time>2025-09-13T20:14:22+02:00</time>
      </trkpt>
      <trkpt lat="42.78118" lon="1.33741">
        <ele>1145.4004</ele>
        <time>2025-09-13T20:14:26+02:00</time>
      </trkpt>
      <trkpt lat="42.78118" lon="1.33741">
        <ele>1145.4004</ele>
        <time>2025-09-13T20:14:27+02:00</time>
      </trkpt>
      <trkpt lat="42.78118" lon="1.33741">
        <ele>1145.4004</ele>
        <time>2025-09-13T20:14:31+02:00</time>
      </trkpt>
      <trkpt lat="42.78118" lon="1.33741">
        <ele>1145.4004</ele>
        <time>2025-09-13T20:14:32+02:00</time>
      </trkpt>
      <trkpt lat="42.78116" lon="1.3374">
        <ele>1151.5</ele>
        <time>2025-09-13T20:14:36+02:00</time>
      </trkpt>
      <trkpt lat="42.78116" lon="1.3374">
        <ele>1151.5</ele>
        <time>2025-09-13T20:14:37+02:00</time>
      </trkpt>
      <trkpt lat="42.78116" lon="1.33739">
        <ele>1151.5</ele>
        <time>2025-09-13T20:14:41+02:00</time>
      </trkpt>
      <trkpt lat="42.78116" lon="1.33739">
        <ele>1151.5</ele>
        <time>2025-09-13T20:14:42+02:00</time>
      </trkpt>
      <trkpt lat="42.78117" lon="1.3374">
        <ele>1145.4004</ele>
        <time>2025-09-13T20:14:46+02:00</time>
      </trkpt>
      <trkpt lat="42.78118" lon="1.33739">
        <ele>1145.4004</ele>
        <time>2025-09-13T20:14:47+02:00</time>
      </trkpt>
      <trkpt lat="42.78122" lon="1.33736">
        <ele>1145.4004</ele>
        <time>2025-09-13T20:14:51+02:00</time>
      </trkpt>
      <trkpt lat="42.78123" lon="1.33735">
        <ele>1145.4004</ele>
        <time>2025-09-13T20:14:52+02:00</time>
      </trkpt>
      <trkpt lat="42.78124" lon="1.33731">
        <ele>1142.9004</ele>
        <time>2025-09-13T20:14:56+02:00</time>
      </trkpt>
      <trkpt lat="42.78125" lon="1.3373">
        <ele>1142.9004</ele>
        <time>2025-09-13T20:14:57+02:00</time>
      </trkpt>
      <trkpt lat="42.78126" lon="1.33728">
        <ele>1142.9004</ele>
        <time>2025-09-13T20:15:01+02:00</time>
      </trkpt>
      <trkpt lat="42.78126" lon="1.33728">
        <ele>1142.9004</ele>
        <time>2025-09-13T20:15:02+02:00</time>
      </trkpt>
      <trkpt lat="42.78126" lon="1.33729">
        <ele>1142.9004</ele>
        <time>2025-09-13T20:15:06+02:00</time>
      </trkpt>
      <trkpt lat="42.78126" lon="1.33729">
        <ele>1142.9004</ele>
        <time>2025-09-13T20:15:07+02:00</time>
      </trkpt>
      <trkpt lat="42.78127" lon="1.33729">
        <ele>1142.9004</ele>
        <time>2025-09-13T20:15:11+02:00</time>
      </trkpt>
      <trkpt lat="42.78127" lon="1.33729">
        <ele>1142.9004</ele>
        <time>2025-09-13T20:15:12+02:00</time>
      </trkpt>
      <trkpt lat="42.78129" lon="1.33729">
        <ele>1136.9004</ele>
        <time>2025-09-13T20:15:16+02:00</time>
      </trkpt>
      <trkpt lat="42.7813" lon="1.33729">
        <ele>1136.9004</ele>
        <time>2025-09-13T20:15:17+02:00</time>
      </trkpt>
      <trkpt lat="42.78132" lon="1.33728">
        <ele>1136.9004</ele>
        <time>2025-09-13T20:15:21+02:00</time>
      </trkpt>
      <trkpt lat="42.78133" lon="1.33728">
        <ele>1136.9004</ele>
        <time>2025-09-13T20:15:22+02:00</time>
      </trkpt>
      <trkpt lat="42.78134" lon="1.33729">
        <ele>1136.9004</ele>
        <time>2025-09-13T20:15:26+02:00</time>
      </trkpt>
      <trkpt lat="42.78133" lon="1.33729">
        <ele>1136.9004</ele>
        <time>2025-09-13T20:15:27+02:00</time>
      </trkpt>
      <trkpt lat="42.78134" lon="1.33729">
        <ele>1136.9004</ele>
        <time>2025-09-13T20:15:31+02:00</time>
      </trkpt>
      <trkpt lat="42.78135" lon="1.33729">
        <ele>1136.9004</ele>
        <time>2025-09-13T20:15:32+02:00</time>
      </trkpt>
      <trkpt lat="42.7814" lon="1.33725">
        <ele>1131</ele>
        <time>2025-09-13T20:15:36+02:00</time>
      </trkpt>
      <trkpt lat="42.78142" lon="1.33724">
        <ele>1134.7002</ele>
        <time>2025-09-13T20:15:37+02:00</time>
      </trkpt>
      <trkpt lat="42.78146" lon="1.33722">
        <ele>1129</ele>
        <time>2025-09-13T20:15:41+02:00</time>
      </trkpt>
      <trkpt lat="42.78147" lon="1.33722">
        <ele>1129</ele>
        <time>2025-09-13T20:15:42+02:00</time>
      </trkpt>
      <trkpt lat="42.78149" lon="1.3372">
        <ele>1123.2998</ele>
        <time>2025-09-13T20:15:46+02:00</time>
      </trkpt>
      <trkpt lat="42.78149" lon="1.3372">
        <ele>1123.2998</ele>
        <time>2025-09-13T20:15:47+02:00</time>
      </trkpt>
      <trkpt lat="42.7815" lon="1.3372">
        <ele>1123.2998</ele>
        <time>2025-09-13T20:15:51+02:00</time>
      </trkpt>
      <trkpt lat="42.78151" lon="1.3372">
        <ele>1123.2998</ele>
        <time>2025-09-13T20:15:52+02:00</time>
      </trkpt>
      <trkpt lat="42.78154" lon="1.33717">
        <ele>1123.2998</ele>
        <time>2025-09-13T20:15:56+02:00</time>
      </trkpt>
      <trkpt lat="42.78155" lon="1.33716">
        <ele>1118.1006</ele>
        <time>2025-09-13T20:15:57+02:00</time>
      </trkpt>
      <trkpt lat="42.78155" lon="1.33715">
        <ele>1121.6006</ele>
        <time>2025-09-13T20:16:01+02:00</time>
      </trkpt>
      <trkpt lat="42.78155" lon="1.33716">
        <ele>1121.6006</ele>
        <time>2025-09-13T20:16:02+02:00</time>
      </trkpt>
      <trkpt lat="42.78155" lon="1.33715">
        <ele>1121.6006</ele>
        <time>2025-09-13T20:16:06+02:00</time>
      </trkpt>
      <trkpt lat="42.78156" lon="1.33714">
        <ele>1121.6006</ele>
        <time>2025-09-13T20:16:07+02:00</time>
      </trkpt>
      <trkpt lat="42.78159" lon="1.33709">
        <ele>1121.6006</ele>
        <time>2025-09-13T20:16:11+02:00</time>
      </trkpt>
      <trkpt lat="42.78161" lon="1.33708">
        <ele>1116.6006</ele>
        <time>2025-09-13T20:16:12+02:00</time>
      </trkpt>
      <trkpt lat="42.78163" lon="1.33703">
        <ele>1120.1006</ele>
        <time>2025-09-13T20:16:16+02:00</time>
      </trkpt>
      <trkpt lat="42.78164" lon="1.33702">
        <ele>1120.1006</ele>
        <time>2025-09-13T20:16:17+02:00</time>
      </trkpt>
      <trkpt lat="42.78168" lon="1.337">
        <ele>1115.2998</ele>
        <time>2025-09-13T20:16:21+02:00</time>
      </trkpt>
      <trkpt lat="42.78169" lon="1.33699">
        <ele>1115.2998</ele>
        <time>2025-09-13T20:16:22+02:00</time>
      </trkpt>
      <trkpt lat="42.78172" lon="1.33698">
        <ele>1118.7002</ele>
        <time>2025-09-13T20:16:26+02:00</time>
      </trkpt>
      <trkpt lat="42.78173" lon="1.33698">
        <ele>1118.7002</ele>
        <time>2025-09-13T20:16:27+02:00</time>
      </trkpt>
      <trkpt lat="42.78171" lon="1.33697">
        <ele>1118.7002</ele>
        <time>2025-09-13T20:16:31+02:00</time>
      </trkpt>
      <trkpt lat="42.78172" lon="1.33697">
        <ele>1118.7002</ele>
        <time>2025-09-13T20:16:32+02:00</time>
      </trkpt>
      <trkpt lat="42.78171" lon="1.33697">
        <ele>1118.7002</ele>
        <time>2025-09-13T20:16:36+02:00</time>
      </trkpt>
      <trkpt lat="42.78172" lon="1.33695">
        <ele>1118.7002</ele>
        <time>2025-09-13T20:16:37+02:00</time>
      </trkpt>
      <trkpt lat="42.78177" lon="1.3369">
        <ele>1114.2998</ele>
        <time>2025-09-13T20:16:41+02:00</time>
      </trkpt>
      <trkpt lat="42.78177" lon="1.33689">
        <ele>1117.6006</ele>
        <time>2025-09-13T20:16:42+02:00</time>
      </trkpt>
      <trkpt lat="42.78178" lon="1.33687">
        <ele>1117.6006</ele>
        <time>2025-09-13T20:16:46+02:00</time>
      </trkpt>
      <trkpt lat="42.78178" lon="1.33686">
        <ele>1117.6006</ele>
        <time>2025-09-13T20:16:47+02:00</time>
      </trkpt>
      <trkpt lat="42.78179" lon="1.33684">
        <ele>1117.6006</ele>
        <time>2025-09-13T20:16:51+02:00</time>
      </trkpt>
      <trkpt lat="42.78179" lon="1.33683">
        <ele>1117.6006</ele>
        <time>2025-09-13T20:16:52+02:00</time>
      </trkpt>
      <trkpt lat="42.78182" lon="1.3368">
        <ele>1116.6006</ele>
        <time>2025-09-13T20:16:56+02:00</time>
      </trkpt>
      <trkpt lat="42.78182" lon="1.3368">
        <ele>1116.6006</ele>
        <time>2025-09-13T20:16:57+02:00</time>
      </trkpt>
      <trkpt lat="42.78183" lon="1.33676">
        <ele>1116.6006</ele>
        <time>2025-09-13T20:17:01+02:00</time>
      </trkpt>
      <trkpt lat="42.78183" lon="1.33675">
        <ele>1116.6006</ele>
        <time>2025-09-13T20:17:02+02:00</time>
      </trkpt>
      <trkpt lat="42.78182" lon="1.33673">
        <ele>1119.7002</ele>
        <time>2025-09-13T20:17:06+02:00</time>
      </trkpt>
      <trkpt lat="42.78182" lon="1.33672">
        <ele>1119.7002</ele>
        <time>2025-09-13T20:17:07+02:00</time>
      </trkpt>
      <trkpt lat="42.78183" lon="1.33669">
        <ele>1119.7002</ele>
        <time>2025-09-13T20:17:11+02:00</time>
      </trkpt>
      <trkpt lat="42.78183" lon="1.33669">
        <ele>1119.7002</ele>
        <time>2025-09-13T20:17:12+02:00</time>
      </trkpt>
      <trkpt lat="42.78183" lon="1.3367">
        <ele>1119.7002</ele>
        <time>2025-09-13T20:17:16+02:00</time>
      </trkpt>
      <trkpt lat="42.78182" lon="1.33671">
        <ele>1119.7002</ele>
        <time>2025-09-13T20:17:17+02:00</time>
      </trkpt>
      <trkpt lat="42.78182" lon="1.33671">
        <ele>1119.7002</ele>
        <time>2025-09-13T20:17:21+02:00</time>
      </trkpt>
      <trkpt lat="42.78182" lon="1.33672">
        <ele>1119.7002</ele>
        <time>2025-09-13T20:17:22+02:00</time>
      </trkpt>
      <trkpt lat="42.78183" lon="1.33671">
        <ele>1119.7002</ele>
        <time>2025-09-13T20:17:26+02:00</time>
      </trkpt>
      <trkpt lat="42.78184" lon="1.33671">
        <ele>1119.7002</ele>
        <time>2025-09-13T20:17:27+02:00</time>
      </trkpt>
      <trkpt lat="42.78186" lon="1.33673">
        <ele>1116.6006</ele>
        <time>2025-09-13T20:17:31+02:00</time>
      </trkpt>
      <trkpt lat="42.78186" lon="1.33674">
        <ele>1112.6006</ele>
        <time>2025-09-13T20:17:32+02:00</time>
      </trkpt>
      <trkpt lat="42.78187" lon="1.33676">
        <ele>1112.6006</ele>
        <time>2025-09-13T20:17:36+02:00</time>
      </trkpt>
      <trkpt lat="42.78187" lon="1.33677">
        <ele>1112.6006</ele>
        <time>2025-09-13T20:17:37+02:00</time>
      </trkpt>
      <trkpt lat="42.78188" lon="1.3368">
        <ele>1112.6006</ele>
        <time>2025-09-13T20:17:41+02:00</time>
      </trkpt>
      <trkpt lat="42.78188" lon="1.3368">
        <ele>1112.6006</ele>
        <time>2025-09-13T20:17:42+02:00</time>
      </trkpt>
      <trkpt lat="42.78188" lon="1.33679">
        <ele>1112.6006</ele>
        <time>2025-09-13T20:17:46+02:00</time>
      </trkpt>
      <trkpt lat="42.78188" lon="1.33679">
        <ele>1112.6006</ele>
        <time>2025-09-13T20:17:47+02:00</time>
      </trkpt>
      <trkpt lat="42.78187" lon="1.33679">
        <ele>1112.6006</ele>
        <time>2025-09-13T20:17:51+02:00</time>
      </trkpt>
      <trkpt lat="42.78187" lon="1.33679">
        <ele>1112.6006</ele>
        <time>2025-09-13T20:17:52+02:00</time>
      </trkpt>
      <trkpt lat="42.78187" lon="1.33683">
        <ele>1109.5</ele>
        <time>2025-09-13T20:17:56+02:00</time>
      </trkpt>
      <trkpt lat="42.78187" lon="1.33685">
        <ele>1109.5</ele>
        <time>2025-09-13T20:17:57+02:00</time>
      </trkpt>
      <trkpt lat="42.78185" lon="1.3369">
        <ele>1110.2002</ele>
        <time>2025-09-13T20:18:01+02:00</time>
      </trkpt>
      <trkpt lat="42.78185" lon="1.33692">
        <ele>1110.2002</ele>
        <time>2025-09-13T20:18:02+02:00</time>
      </trkpt>
      <trkpt lat="42.78183" lon="1.33701">
        <ele>1107</ele>
        <time>2025-09-13T20:18:06+02:00</time>
      </trkpt>
      <trkpt lat="42.78182" lon="1.33703">
        <ele>1107</ele>
        <time>2025-09-13T20:18:07+02:00</time>
      </trkpt>
      <trkpt lat="42.78181" lon="1.33708">
        <ele>1103.7998</ele>
        <time>2025-09-13T20:18:11+02:00</time>
      </trkpt>
      <trkpt lat="42.78181" lon="1.33709">
        <ele>1103.7998</ele>
        <time>2025-09-13T20:18:12+02:00</time>
      </trkpt>
      <trkpt lat="42.7818" lon="1.33713">
        <ele>1103.7998</ele>
        <time>2025-09-13T20:18:16+02:00</time>
      </trkpt>
      <trkpt lat="42.7818" lon="1.33714">
        <ele>1103.7998</ele>
        <time>2025-09-13T20:18:17+02:00</time>
      </trkpt>
      <trkpt lat="42.7818" lon="1.33719">
        <ele>1100.6006</ele>
        <time>2025-09-13T20:18:21+02:00</time>
      </trkpt>
      <trkpt lat="42.7818" lon="1.3372">
        <ele>1100.6006</ele>
        <time>2025-09-13T20:18:22+02:00</time>
      </trkpt>
      <trkpt lat="42.78179" lon="1.33724">
        <ele>1104.4004</ele>
        <time>2025-09-13T20:18:26+02:00</time>
      </trkpt>
      <trkpt lat="42.78178" lon="1.33724">
        <ele>1104.4004</ele>
        <time>2025-09-13T20:18:27+02:00</time>
      </trkpt>
      <trkpt lat="42.78176" lon="1.33727">
        <ele>1101.1006</ele>
        <time>2025-09-13T20:18:31+02:00</time>
      </trkpt>
      <trkpt lat="42.78175" lon="1.33728">
        <ele>1101.1006</ele>
        <time>2025-09-13T20:18:32+02:00</time>
      </trkpt>
      <trkpt lat="42.78173" lon="1.3373">
        <ele>1101.1006</ele>
        <time>2025-09-13T20:18:36+02:00</time>
      </trkpt>
      <trkpt lat="42.78174" lon="1.3373">
        <ele>1101.1006</ele>
        <time>2025-09-13T20:18:37+02:00</time>
      </trkpt>
      <trkpt lat="42.78174" lon="1.33728">
        <ele>1101.1006</ele>
        <time>2025-09-13T20:18:41+02:00</time>
      </trkpt>
      <trkpt lat="42.78174" lon="1.33728">
        <ele>1101.1006</ele>
        <time>2025-09-13T20:18:42+02:00</time>
      </trkpt>
      <trkpt lat="42.78173" lon="1.33729">
        <ele>1105.2002</ele>
        <time>2025-09-13T20:18:46+02:00</time>
      </trkpt>
      <trkpt lat="42.78172" lon="1.33729">
        <ele>1105.2002</ele>
        <time>2025-09-13T20:18:47+02:00</time>
      </trkpt>
      <trkpt lat="42.7817" lon="1.3373">
        <ele>1105.2002</ele>
        <time>2025-09-13T20:18:51+02:00</time>
      </trkpt>
      <trkpt lat="42.7817" lon="1.3373">
        <ele>1105.2002</ele>
        <time>2025-09-13T20:18:52+02:00</time>
      </trkpt>
      <trkpt lat="42.78169" lon="1.33728">
        <ele>1105.2002</ele>
        <time>2025-09-13T20:18:56+02:00</time>
      </trkpt>
      <trkpt lat="42.78169" lon="1.33728">
        <ele>1105.2002</ele>
        <time>2025-09-13T20:18:57+02:00</time>
      </trkpt>
      <trkpt lat="42.78169" lon="1.33727">
        <ele>1105.2002</ele>
        <time>2025-09-13T20:19:01+02:00</time>
      </trkpt>
      <trkpt lat="42.78169" lon="1.33726">
        <ele>1105.2002</ele>
        <time>2025-09-13T20:19:02+02:00</time>
      </trkpt>
      <trkpt lat="42.78168" lon="1.33726">
        <ele>1105.2002</ele>
        <time>2025-09-13T20:19:06+02:00</time>
      </trkpt>
      <trkpt lat="42.78168" lon="1.33725">
        <ele>1105.2002</ele>
        <time>2025-09-13T20:19:07+02:00</time>
      </trkpt>
      <trkpt lat="42.78167" lon="1.33724">
        <ele>1108.6006</ele>
        <time>2025-09-13T20:19:11+02:00</time>
      </trkpt>
      <trkpt lat="42.78167" lon="1.33724">
        <ele>1108.6006</ele>
        <time>2025-09-13T20:19:12+02:00</time>
      </trkpt>
      <trkpt lat="42.78167" lon="1.33724">
        <ele>1108.6006</ele>
        <time>2025-09-13T20:19:16+02:00</time>
      </trkpt>
      <trkpt lat="42.78167" lon="1.33724">
        <ele>1113.1006</ele>
        <time>2025-09-13T20:19:17+02:00</time>
      </trkpt>
      <trkpt lat="42.78166" lon="1.33722">
        <ele>1113.1006</ele>
        <time>2025-09-13T20:19:21+02:00</time>
      </trkpt>
      <trkpt lat="42.78166" lon="1.33721">
        <ele>1113.1006</ele>
        <time>2025-09-13T20:19:22+02:00</time>
      </trkpt>
      <trkpt lat="42.78166" lon="1.33721">
        <ele>1113.1006</ele>
        <time>2025-09-13T20:19:26+02:00</time>
      </trkpt>
      <trkpt lat="42.78166" lon="1.33721">
        <ele>1113.1006</ele>
        <time>2025-09-13T20:19:27+02:00</time>
      </trkpt>
      <trkpt lat="42.78167" lon="1.33721">
        <ele>1113.1006</ele>
        <time>2025-09-13T20:19:31+02:00</time>
      </trkpt>
      <trkpt lat="42.78167" lon="1.33721">
        <ele>1113.1006</ele>
        <time>2025-09-13T20:19:32+02:00</time>
      </trkpt>
      <trkpt lat="42.78166" lon="1.3372">
        <ele>1113.1006</ele>
        <time>2025-09-13T20:19:36+02:00</time>
      </trkpt>
      <trkpt lat="42.78166" lon="1.3372">
        <ele>1113.1006</ele>
        <time>2025-09-13T20:19:37+02:00</time>
      </trkpt>
      <trkpt lat="42.78166" lon="1.3372">
        <ele>1113.1006</ele>
        <time>2025-09-13T20:19:41+02:00</time>
      </trkpt>
      <trkpt lat="42.78166" lon="1.3372">
        <ele>1113.1006</ele>
        <time>2025-09-13T20:19:42+02:00</time>
      </trkpt>
      <trkpt lat="42.78166" lon="1.3372">
        <ele>1113.1006</ele>
        <time>2025-09-13T20:19:46+02:00</time>
      </trkpt>
      <trkpt lat="42.78166" lon="1.3372">
        <ele>1113.1006</ele>
        <time>2025-09-13T20:19:47+02:00</time>
      </trkpt>
      <trkpt lat="42.78166" lon="1.3372">
        <ele>1113.1006</ele>
        <time>2025-09-13T20:19:51+02:00</time>
      </trkpt>
      <trkpt lat="42.78166" lon="1.3372">
        <ele>1113.1006</ele>
        <time>2025-09-13T20:19:52+02:00</time>
      </trkpt>
      <trkpt lat="42.78166" lon="1.33719">
        <ele>1113.1006</ele>
        <time>2025-09-13T20:19:56+02:00</time>
      </trkpt>
      <trkpt lat="42.78165" lon="1.33719">
        <ele>1113.1006</ele>
        <time>2025-09-13T20:19:57+02:00</time>
      </trkpt>
      <trkpt lat="42.78165" lon="1.33719">
        <ele>1113.1006</ele>
        <time>2025-09-13T20:20:01+02:00</time>
      </trkpt>
      <trkpt lat="42.78165" lon="1.33719">
        <ele>1113.1006</ele>
        <time>2025-09-13T20:20:02+02:00</time>
      </trkpt>
      <trkpt lat="42.78165" lon="1.33719">
        <ele>1113.1006</ele>
        <time>2025-09-13T20:20:06+02:00</time>
      </trkpt>
      <trkpt lat="42.78165" lon="1.33718">
        <ele>1113.1006</ele>
        <time>2025-09-13T20:20:07+02:00</time>
      </trkpt>
      <trkpt lat="42.78165" lon="1.33718">
        <ele>1113.1006</ele>
        <time>2025-09-13T20:20:11+02:00</time>
      </trkpt>
      <trkpt lat="42.78165" lon="1.33718">
        <ele>1113.1006</ele>
        <time>2025-09-13T20:20:12+02:00</time>
      </trkpt>
      <trkpt lat="42.78165" lon="1.33716">
        <ele>1113.1006</ele>
        <time>2025-09-13T20:20:16+02:00</time>
      </trkpt>
      <trkpt lat="42.78165" lon="1.33716">
        <ele>1113.1006</ele>
        <time>2025-09-13T20:20:17+02:00</time>
      </trkpt>
      <trkpt lat="42.78165" lon="1.33716">
        <ele>1113.1006</ele>
        <time>2025-09-13T20:20:21+02:00</time>
      </trkpt>
      <trkpt lat="42.78165" lon="1.33716">
        <ele>1113.1006</ele>
        <time>2025-09-13T20:20:22+02:00</time>
      </trkpt>
      <trkpt lat="42.78166" lon="1.33716">
        <ele>1113.1006</ele>
        <time>2025-09-13T20:20:26+02:00</time>
      </trkpt>
      <trkpt lat="42.78166" lon="1.33716">
        <ele>1113.1006</ele>
        <time>2025-09-13T20:20:27+02:00</time>
      </trkpt>
      <trkpt lat="42.78166" lon="1.33715">
        <ele>1116.6006</ele>
        <time>2025-09-13T20:20:31+02:00</time>
      </trkpt>
      <trkpt lat="42.78166" lon="1.33716">
        <ele>1113.1006</ele>
        <time>2025-09-13T20:20:32+02:00</time>
      </trkpt>
      <trkpt lat="42.78167" lon="1.33717">
        <ele>1108.6006</ele>
        <time>2025-09-13T20:20:36+02:00</time>
      </trkpt>
      <trkpt lat="42.78168" lon="1.33717">
        <ele>1108.6006</ele>
        <time>2025-09-13T20:20:37+02:00</time>
      </trkpt>
      <trkpt lat="42.78167" lon="1.33717">
        <ele>1108.6006</ele>
        <time>2025-09-13T20:20:41+02:00</time>
      </trkpt>
      <trkpt lat="42.78167" lon="1.33718">
        <ele>1108.6006</ele>
        <time>2025-09-13T20:20:42+02:00</time>
      </trkpt>
      <trkpt lat="42.78168" lon="1.33718">
        <ele>1108.6006</ele>
        <time>2025-09-13T20:20:46+02:00</time>
      </trkpt>
      <trkpt lat="42.78168" lon="1.33718">
        <ele>1108.6006</ele>
        <time>2025-09-13T20:20:47+02:00</time>
      </trkpt>
      <trkpt lat="42.78169" lon="1.33718">
        <ele>1108.6006</ele>
        <time>2025-09-13T20:20:51+02:00</time>
      </trkpt>
      <trkpt lat="42.78169" lon="1.33718">
        <ele>1108.6006</ele>
        <time>2025-09-13T20:20:52+02:00</time>
      </trkpt>
      <trkpt lat="42.7817" lon="1.33717">
        <ele>1108.6006</ele>
        <time>2025-09-13T20:20:56+02:00</time>
      </trkpt>
      <trkpt lat="42.7817" lon="1.33717">
        <ele>1108.6006</ele>
        <time>2025-09-13T20:20:57+02:00</time>
      </trkpt>
      <trkpt lat="42.7817" lon="1.33717">
        <ele>1108.6006</ele>
        <time>2025-09-13T20:21:01+02:00</time>
      </trkpt>
      <trkpt lat="42.78171" lon="1.33716">
        <ele>1108.6006</ele>
        <time>2025-09-13T20:21:02+02:00</time>
      </trkpt>
      <trkpt lat="42.78172" lon="1.33714">
        <ele>1111.9004</ele>
        <time>2025-09-13T20:21:06+02:00</time>
      </trkpt>
      <trkpt lat="42.78173" lon="1.33714">
        <ele>1111.9004</ele>
        <time>2025-09-13T20:21:07+02:00</time>
      </trkpt>
      <trkpt lat="42.78172" lon="1.33713">
        <ele>1111.9004</ele>
        <time>2025-09-13T20:21:11+02:00</time>
      </trkpt>
      <trkpt lat="42.78172" lon="1.33713">
        <ele>1111.9004</ele>
        <time>2025-09-13T20:21:12+02:00</time>
      </trkpt>
      <trkpt lat="42.78172" lon="1.33714">
        <ele>1111.9004</ele>
        <time>2025-09-13T20:21:16+02:00</time>
      </trkpt>
      <trkpt lat="42.78172" lon="1.33714">
        <ele>1111.9004</ele>
        <time>2025-09-13T20:21:17+02:00</time>
      </trkpt>
      <trkpt lat="42.78172" lon="1.33715">
        <ele>1111.9004</ele>
        <time>2025-09-13T20:21:21+02:00</time>
      </trkpt>
      <trkpt lat="42.78172" lon="1.33715">
        <ele>1111.9004</ele>
        <time>2025-09-13T20:21:22+02:00</time>
      </trkpt>
      <trkpt lat="42.78172" lon="1.33721">
        <ele>1108.6006</ele>
        <time>2025-09-13T20:21:26+02:00</time>
      </trkpt>
      <trkpt lat="42.78172" lon="1.33723">
        <ele>1108.6006</ele>
        <time>2025-09-13T20:21:27+02:00</time>
      </trkpt>
      <trkpt lat="42.78172" lon="1.33728">
        <ele>1105.2002</ele>
        <time>2025-09-13T20:21:31+02:00</time>
      </trkpt>
      <trkpt lat="42.78173" lon="1.33729">
        <ele>1105.2002</ele>
        <time>2025-09-13T20:21:32+02:00</time>
      </trkpt>
      <trkpt lat="42.78177" lon="1.33731">
        <ele>1101.1006</ele>
        <time>2025-09-13T20:21:36+02:00</time>
      </trkpt>
      <trkpt lat="42.78179" lon="1.33731">
        <ele>1101.1006</ele>
        <time>2025-09-13T20:21:37+02:00</time>
      </trkpt>
      <trkpt lat="42.78181" lon="1.33728">
        <ele>1097.4004</ele>
        <time>2025-09-13T20:21:41+02:00</time>
      </trkpt>
      <trkpt lat="42.78181" lon="1.33728">
        <ele>1097.4004</ele>
        <time>2025-09-13T20:21:42+02:00</time>
      </trkpt>
      <trkpt lat="42.78182" lon="1.33726">
        <ele>1097.4004</ele>
        <time>2025-09-13T20:21:46+02:00</time>
      </trkpt>
      <trkpt lat="42.78182" lon="1.33726">
        <ele>1097.4004</ele>
        <time>2025-09-13T20:21:47+02:00</time>
      </trkpt>
      <trkpt lat="42.78183" lon="1.33725">
        <ele>1097.4004</ele>
        <time>2025-09-13T20:21:51+02:00</time>
      </trkpt>
      <trkpt lat="42.78183" lon="1.33725">
        <ele>1097.4004</ele>
        <time>2025-09-13T20:21:52+02:00</time>
      </trkpt>
      <trkpt lat="42.78184" lon="1.33724">
        <ele>1100.6006</ele>
        <time>2025-09-13T20:21:56+02:00</time>
      </trkpt>
      <trkpt lat="42.78184" lon="1.33724">
        <ele>1100.6006</ele>
        <time>2025-09-13T20:21:57+02:00</time>
      </trkpt>
      <trkpt lat="42.78182" lon="1.33725">
        <ele>1097.4004</ele>
        <time>2025-09-13T20:22:01+02:00</time>
      </trkpt>
      <trkpt lat="42.78181" lon="1.33726">
        <ele>1097.4004</ele>
        <time>2025-09-13T20:22:02+02:00</time>
      </trkpt>
      <trkpt lat="42.78178" lon="1.3373">
        <ele>1101.1006</ele>
        <time>2025-09-13T20:22:06+02:00</time>
      </trkpt>
      <trkpt lat="42.78178" lon="1.33731">
        <ele>1101.1006</ele>
        <time>2025-09-13T20:22:07+02:00</time>
      </trkpt>
      <trkpt lat="42.78177" lon="1.33732">
        <ele>1101.1006</ele>
        <time>2025-09-13T20:22:11+02:00</time>
      </trkpt>
      <trkpt lat="42.78177" lon="1.33732">
        <ele>1101.1006</ele>
        <time>2025-09-13T20:22:12+02:00</time>
      </trkpt>
      <trkpt lat="42.78176" lon="1.33728">
        <ele>1101.1006</ele>
        <time>2025-09-13T20:22:16+02:00</time>
      </trkpt>
      <trkpt lat="42.78176" lon="1.33727">
        <ele>1101.1006</ele>
        <time>2025-09-13T20:22:17+02:00</time>
      </trkpt>
      <trkpt lat="42.78175" lon="1.33721">
        <ele>1104.4004</ele>
        <time>2025-09-13T20:22:21+02:00</time>
      </trkpt>
      <trkpt lat="42.78175" lon="1.3372">
        <ele>1104.4004</ele>
        <time>2025-09-13T20:22:22+02:00</time>
      </trkpt>
      <trkpt lat="42.78175" lon="1.33716">
        <ele>1104.4004</ele>
        <time>2025-09-13T20:22:26+02:00</time>
      </trkpt>
      <trkpt lat="42.78175" lon="1.33716">
        <ele>1104.4004</ele>
        <time>2025-09-13T20:22:27+02:00</time>
      </trkpt>
      <trkpt lat="42.78174" lon="1.33715">
        <ele>1107.7002</ele>
        <time>2025-09-13T20:22:31+02:00</time>
      </trkpt>
      <trkpt lat="42.78174" lon="1.33715">
        <ele>1107.7002</ele>
        <time>2025-09-13T20:22:32+02:00</time>
      </trkpt>
      <trkpt lat="42.78172" lon="1.33713">
        <ele>1111.9004</ele>
        <time>2025-09-13T20:22:36+02:00</time>
      </trkpt>
      <trkpt lat="42.78173" lon="1.33713">
        <ele>1111.9004</ele>
        <time>2025-09-13T20:22:37+02:00</time>
      </trkpt>
      <trkpt lat="42.78173" lon="1.33713">
        <ele>1107.7002</ele>
        <time>2025-09-13T20:22:41+02:00</time>
      </trkpt>
      <trkpt lat="42.78174" lon="1.33714">
        <ele>1107.7002</ele>
        <time>2025-09-13T20:22:42+02:00</time>
      </trkpt>
      <trkpt lat="42.78175" lon="1.33716">
        <ele>1104.4004</ele>
        <time>2025-09-13T20:22:46+02:00</time>
      </trkpt>
      <trkpt lat="42.78175" lon="1.33716">
        <ele>1104.4004</ele>
        <time>2025-09-13T20:22:47+02:00</time>
      </trkpt>
      <trkpt lat="42.78175" lon="1.33716">
        <ele>1104.4004</ele>
        <time>2025-09-13T20:22:51+02:00</time>
      </trkpt>
      <trkpt lat="42.78175" lon="1.33716">
        <ele>1104.4004</ele>
        <time>2025-09-13T20:22:52+02:00</time>
      </trkpt>
      <trkpt lat="42.78175" lon="1.33716">
        <ele>1104.4004</ele>
        <time>2025-09-13T20:22:56+02:00</time>
      </trkpt>
      <trkpt lat="42.78175" lon="1.33716">
        <ele>1104.4004</ele>
        <time>2025-09-13T20:22:57+02:00</time>
      </trkpt>
      <trkpt lat="42.78175" lon="1.33716">
        <ele>1104.4004</ele>
        <time>2025-09-13T20:23:01+02:00</time>
      </trkpt>
      <trkpt lat="42.78175" lon="1.33716">
        <ele>1104.4004</ele>
        <time>2025-09-13T20:23:02+02:00</time>
      </trkpt>
      <trkpt lat="42.78175" lon="1.33716">
        <ele>1104.4004</ele>
        <time>2025-09-13T20:23:06+02:00</time>
      </trkpt>
      <trkpt lat="42.78175" lon="1.33716">
        <ele>1104.4004</ele>
        <time>2025-09-13T20:23:07+02:00</time>
      </trkpt>
      <trkpt lat="42.78175" lon="1.33716">
        <ele>1104.4004</ele>
        <time>2025-09-13T20:23:11+02:00</time>
      </trkpt>
      <trkpt lat="42.78175" lon="1.33716">
        <ele>1104.4004</ele>
        <time>2025-09-13T20:23:12+02:00</time>
      </trkpt>
      <trkpt lat="42.78175" lon="1.33716">
        <ele>1104.4004</ele>
        <time>2025-09-13T20:23:16+02:00</time>
      </trkpt>
      <trkpt lat="42.78175" lon="1.33716">
        <ele>1104.4004</ele>
        <time>2025-09-13T20:23:17+02:00</time>
      </trkpt>
      <trkpt lat="42.78175" lon="1.33716">
        <ele>1104.4004</ele>
        <time>2025-09-13T20:23:21+02:00</time>
      </trkpt>
      <trkpt lat="42.78175" lon="1.33716">
        <ele>1104.4004</ele>
        <time>2025-09-13T20:23:22+02:00</time>
      </trkpt>
      <trkpt lat="42.78175" lon="1.33716">
        <ele>1104.4004</ele>
        <time>2025-09-13T20:23:26+02:00</time>
      </trkpt>
      <trkpt lat="42.78175" lon="1.33716">
        <ele>1104.4004</ele>
        <time>2025-09-13T20:23:27+02:00</time>
      </trkpt>
      <trkpt lat="42.78175" lon="1.33716">
        <ele>1104.4004</ele>
        <time>2025-09-13T20:23:31+02:00</time>
      </trkpt>
      <trkpt lat="42.78175" lon="1.33716">
        <ele>1104.4004</ele>
        <time>2025-09-13T20:23:32+02:00</time>
      </trkpt>
      <trkpt lat="42.78175" lon="1.33716">
        <ele>1104.4004</ele>
        <time>2025-09-13T20:23:36+02:00</time>
      </trkpt>
      <trkpt lat="42.78175" lon="1.33716">
        <ele>1104.4004</ele>
        <time>2025-09-13T20:23:37+02:00</time>
      </trkpt>
      <trkpt lat="42.78175" lon="1.33716">
        <ele>1104.4004</ele>
        <time>2025-09-13T20:23:41+02:00</time>
      </trkpt>
      <trkpt lat="42.78175" lon="1.33716">
        <ele>1104.4004</ele>
        <time>2025-09-13T20:23:42+02:00</time>
      </trkpt>
      <trkpt lat="42.78175" lon="1.33716">
        <ele>1104.4004</ele>
        <time>2025-09-13T20:23:46+02:00</time>
      </trkpt>
      <trkpt lat="42.78174" lon="1.33716">
        <ele>1104.4004</ele>
        <time>2025-09-13T20:23:47+02:00</time>
      </trkpt>
      <trkpt lat="42.78174" lon="1.33716">
        <ele>1104.4004</ele>
        <time>2025-09-13T20:23:51+02:00</time>
      </trkpt>
      <trkpt lat="42.78174" lon="1.33716">
        <ele>1104.4004</ele>
        <time>2025-09-13T20:23:52+02:00</time>
      </trkpt>
      <trkpt lat="42.78174" lon="1.33716">
        <ele>1104.4004</ele>
        <time>2025-09-13T20:23:56+02:00</time>
      </trkpt>
      <trkpt lat="42.78174" lon="1.33716">
        <ele>1104.4004</ele>
        <time>2025-09-13T20:23:57+02:00</time>
      </trkpt>
      <trkpt lat="42.78174" lon="1.33716">
        <ele>1104.4004</ele>
        <time>2025-09-13T20:24:01+02:00</time>
      </trkpt>
      <trkpt lat="42.78174" lon="1.33716">
        <ele>1104.4004</ele>
        <time>2025-09-13T20:24:02+02:00</time>
      </trkpt>
      <trkpt lat="42.78174" lon="1.33716">
        <ele>1104.4004</ele>
        <time>2025-09-13T20:24:06+02:00</time>
      </trkpt>
      <trkpt lat="42.78174" lon="1.33716">
        <ele>1104.4004</ele>
        <time>2025-09-13T20:24:07+02:00</time>
      </trkpt>
      <trkpt lat="42.78174" lon="1.33716">
        <ele>1104.4004</ele>
        <time>2025-09-13T20:24:11+02:00</time>
      </trkpt>
      <trkpt lat="42.78174" lon="1.33716">
        <ele>1104.4004</ele>
        <time>2025-09-13T20:24:12+02:00</time>
      </trkpt>
      <trkpt lat="42.78174" lon="1.33716">
        <ele>1104.4004</ele>
        <time>2025-09-13T20:24:16+02:00</time>
      </trkpt>
      <trkpt lat="42.78174" lon="1.33716">
        <ele>1104.4004</ele>
        <time>2025-09-13T20:24:17+02:00</time>
      </trkpt>
      <trkpt lat="42.78174" lon="1.33716">
        <ele>1104.4004</ele>
        <time>2025-09-13T20:24:21+02:00</time>
      </trkpt>
      <trkpt lat="42.78174" lon="1.33716">
        <ele>1104.4004</ele>
        <time>2025-09-13T20:24:22+02:00</time>
      </trkpt>
      <trkpt lat="42.78174" lon="1.33716">
        <ele>1104.4004</ele>
        <time>2025-09-13T20:24:26+02:00</time>
      </trkpt>
      <trkpt lat="42.78174" lon="1.33716">
        <ele>1104.4004</ele>
        <time>2025-09-13T20:24:27+02:00</time>
      </trkpt>
      <trkpt lat="42.78174" lon="1.33716">
        <ele>1104.4004</ele>
        <time>2025-09-13T20:24:31+02:00</time>
      </trkpt>
      <trkpt lat="42.78174" lon="1.33716">
        <ele>1104.4004</ele>
        <time>2025-09-13T20:24:32+02:00</time>
      </trkpt>
      <trkpt lat="42.78174" lon="1.33716">
        <ele>1104.4004</ele>
        <time>2025-09-13T20:24:36+02:00</time>
      </trkpt>
      <trkpt lat="42.78174" lon="1.33716">
        <ele>1104.4004</ele>
        <time>2025-09-13T20:24:37+02:00</time>
      </trkpt>
      <trkpt lat="42.78174" lon="1.33716">
        <ele>1104.4004</ele>
        <time>2025-09-13T20:24:41+02:00</time>
      </trkpt>
      <trkpt lat="42.78174" lon="1.33716">
        <ele>1104.4004</ele>
        <time>2025-09-13T20:24:42+02:00</time>
      </trkpt>
      <trkpt lat="42.78174" lon="1.33716">
        <ele>1104.4004</ele>
        <time>2025-09-13T20:24:46+02:00</time>
      </trkpt>
      <trkpt lat="42.78174" lon="1.33716">
        <ele>1104.4004</ele>
        <time>2025-09-13T20:24:47+02:00</time>
      </trkpt>
      <trkpt lat="42.78174" lon="1.33716">
        <ele>1104.4004</ele>
        <time>2025-09-13T20:24:51+02:00</time>
      </trkpt>
      <trkpt lat="42.78174" lon="1.33716">
        <ele>1104.4004</ele>
        <time>2025-09-13T20:24:52+02:00</time>
      </trkpt>
      <trkpt lat="42.78174" lon="1.33716">
        <ele>1104.4004</ele>
        <time>2025-09-13T20:24:56+02:00</time>
      </trkpt>
      <trkpt lat="42.78174" lon="1.33716">
        <ele>1104.4004</ele>
        <time>2025-09-13T20:24:57+02:00</time>
      </trkpt>
      <trkpt lat="42.78174" lon="1.33716">
        <ele>1104.4004</ele>
        <time>2025-09-13T20:25:01+02:00</time>
      </trkpt>
      <trkpt lat="42.78174" lon="1.33716">
        <ele>1104.4004</ele>
        <time>2025-09-13T20:25:02+02:00</time>
      </trkpt>
      <trkpt lat="42.78174" lon="1.33716">
        <ele>1104.4004</ele>
        <time>2025-09-13T20:25:06+02:00</time>
      </trkpt>
      <trkpt lat="42.78174" lon="1.33716">
        <ele>1104.4004</ele>
        <time>2025-09-13T20:25:07+02:00</time>
      </trkpt>
      <trkpt lat="42.78174" lon="1.33716">
        <ele>1104.4004</ele>
        <time>2025-09-13T20:25:11+02:00</time>
      </trkpt>
      <trkpt lat="42.78174" lon="1.33716">
        <ele>1104.4004</ele>
        <time>2025-09-13T20:25:12+02:00</time>
      </trkpt>
      <trkpt lat="42.78174" lon="1.33716">
        <ele>1104.4004</ele>
        <time>2025-09-13T20:25:16+02:00</time>
      </trkpt>
      <trkpt lat="42.78174" lon="1.33716">
        <ele>1104.4004</ele>
        <time>2025-09-13T20:25:17+02:00</time>
      </trkpt>
      <trkpt lat="42.78174" lon="1.33716">
        <ele>1104.4004</ele>
        <time>2025-09-13T20:25:21+02:00</time>
      </trkpt>
      <trkpt lat="42.78174" lon="1.33716">
        <ele>1104.4004</ele>
        <time>2025-09-13T20:25:22+02:00</time>
      </trkpt>
      <trkpt lat="42.78174" lon="1.33716">
        <ele>1104.4004</ele>
        <time>2025-09-13T20:25:26+02:00</time>
      </trkpt>
      <trkpt lat="42.78174" lon="1.33716">
        <ele>1104.4004</ele>
        <time>2025-09-13T20:25:27+02:00</time>
      </trkpt>
      <trkpt lat="42.78174" lon="1.33716">
        <ele>1104.4004</ele>
        <time>2025-09-13T20:25:31+02:00</time>
      </trkpt>
      <trkpt lat="42.78174" lon="1.33716">
        <ele>1104.4004</ele>
        <time>2025-09-13T20:25:32+02:00</time>
      </trkpt>
      <trkpt lat="42.78174" lon="1.33716">
        <ele>1104.4004</ele>
        <time>2025-09-13T20:25:36+02:00</time>
      </trkpt>
      <trkpt lat="42.78174" lon="1.33716">
        <ele>1104.4004</ele>
        <time>2025-09-13T20:25:37+02:00</time>
      </trkpt>
      <trkpt lat="42.78174" lon="1.33716">
        <ele>1104.4004</ele>
        <time>2025-09-13T20:25:41+02:00</time>
      </trkpt>
      <trkpt lat="42.78174" lon="1.33716">
        <ele>1104.4004</ele>
        <time>2025-09-13T20:25:42+02:00</time>
      </trkpt>
      <trkpt lat="42.78174" lon="1.33716">
        <ele>1104.4004</ele>
        <time>2025-09-13T20:25:46+02:00</time>
      </trkpt>
      <trkpt lat="42.78174" lon="1.33716">
        <ele>1104.4004</ele>
        <time>2025-09-13T20:25:47+02:00</time>
      </trkpt>
      <trkpt lat="42.78174" lon="1.33716">
        <ele>1104.4004</ele>
        <time>2025-09-13T20:25:51+02:00</time>
      </trkpt>
      <trkpt lat="42.78174" lon="1.33716">
        <ele>1104.4004</ele>
        <time>2025-09-13T20:25:52+02:00</time>
      </trkpt>
      <trkpt lat="42.78174" lon="1.33716">
        <ele>1104.4004</ele>
        <time>2025-09-13T20:25:56+02:00</time>
      </trkpt>
      <trkpt lat="42.78174" lon="1.33716">
        <ele>1104.4004</ele>
        <time>2025-09-13T20:25:57+02:00</time>
      </trkpt>
      <trkpt lat="42.78174" lon="1.33716">
        <ele>1104.4004</ele>
        <time>2025-09-13T20:26:01+02:00</time>
      </trkpt>
      <trkpt lat="42.78174" lon="1.33716">
        <ele>1104.4004</ele>
        <time>2025-09-13T20:26:02+02:00</time>
      </trkpt>
      <trkpt lat="42.78174" lon="1.33716">
        <ele>1104.4004</ele>
        <time>2025-09-13T20:26:06+02:00</time>
      </trkpt>
      <trkpt lat="42.78174" lon="1.33716">
        <ele>1104.4004</ele>
        <time>2025-09-13T20:26:07+02:00</time>
      </trkpt>
      <trkpt lat="42.78174" lon="1.33716">
        <ele>1104.4004</ele>
        <time>2025-09-13T20:26:11+02:00</time>
      </trkpt>
      <trkpt lat="42.78174" lon="1.33716">
        <ele>1104.4004</ele>
        <time>2025-09-13T20:26:12+02:00</time>
      </trkpt>
      <trkpt lat="42.78174" lon="1.33716">
        <ele>1104.4004</ele>
        <time>2025-09-13T20:26:16+02:00</time>
      </trkpt>
      <trkpt lat="42.78174" lon="1.33716">
        <ele>1104.4004</ele>
        <time>2025-09-13T20:26:17+02:00</time>
      </trkpt>
      <trkpt lat="42.78174" lon="1.33716">
        <ele>1104.4004</ele>
        <time>2025-09-13T20:26:21+02:00</time>
      </trkpt>
      <trkpt lat="42.78174" lon="1.33716">
        <ele>1104.4004</ele>
        <time>2025-09-13T20:26:22+02:00</time>
      </trkpt>
      <trkpt lat="42.78174" lon="1.33716">
        <ele>1104.4004</ele>
        <time>2025-09-13T20:26:26+02:00</time>
      </trkpt>
      <trkpt lat="42.78174" lon="1.33716">
        <ele>1104.4004</ele>
        <time>2025-09-13T20:26:27+02:00</time>
      </trkpt>
      <trkpt lat="42.78174" lon="1.33716">
        <ele>1104.4004</ele>
        <time>2025-09-13T20:26:31+02:00</time>
      </trkpt>
      <trkpt lat="42.78174" lon="1.33716">
        <ele>1104.4004</ele>
        <time>2025-09-13T20:26:32+02:00</time>
      </trkpt>
      <trkpt lat="42.78174" lon="1.33716">
        <ele>1104.4004</ele>
        <time>2025-09-13T20:26:36+02:00</time>
      </trkpt>
      <trkpt lat="42.78174" lon="1.33716">
        <ele>1104.4004</ele>
        <time>2025-09-13T20:26:37+02:00</time>
      </trkpt>
      <trkpt lat="42.78174" lon="1.33716">
        <ele>1104.4004</ele>
        <time>2025-09-13T20:26:41+02:00</time>
      </trkpt>
      <trkpt lat="42.78174" lon="1.33717">
        <ele>1104.4004</ele>
        <time>2025-09-13T20:26:42+02:00</time>
      </trkpt>
      <trkpt lat="42.78174" lon="1.33717">
        <ele>1104.4004</ele>
        <time>2025-09-13T20:26:46+02:00</time>
      </trkpt>
      <trkpt lat="42.78174" lon="1.33717">
        <ele>1104.4004</ele>
        <time>2025-09-13T20:26:47+02:00</time>
      </trkpt>
      <trkpt lat="42.78174" lon="1.33717">
        <ele>1104.4004</ele>
        <time>2025-09-13T20:26:51+02:00</time>
      </trkpt>
      <trkpt lat="42.78174" lon="1.33717">
        <ele>1104.4004</ele>
        <time>2025-09-13T20:26:52+02:00</time>
      </trkpt>
      <trkpt lat="42.78174" lon="1.33717">
        <ele>1104.4004</ele>
        <time>2025-09-13T20:26:56+02:00</time>
      </trkpt>
      <trkpt lat="42.78174" lon="1.33717">
        <ele>1104.4004</ele>
        <time>2025-09-13T20:26:57+02:00</time>
      </trkpt>
      <trkpt lat="42.78173" lon="1.33718">
        <ele>1104.4004</ele>
        <time>2025-09-13T20:27:03+02:00</time>
      </trkpt>
      <trkpt lat="42.78174" lon="1.33717">
        <ele>1104.4004</ele>
        <time>2025-09-13T20:27:04+02:00</time>
      </trkpt>
      <trkpt lat="42.78173" lon="1.33718">
        <ele>1108.6006</ele>
        <time>2025-09-13T20:27:08+02:00</time>
      </trkpt>
      <trkpt lat="42.78173" lon="1.33718">
        <ele>1108.6006</ele>
        <time>2025-09-13T20:27:09+02:00</time>
      </trkpt>
      <trkpt lat="42.78173" lon="1.33718">
        <ele>1108.6006</ele>
        <time>2025-09-13T20:27:13+02:00</time>
      </trkpt>
      <trkpt lat="42.78173" lon="1.33718">
        <ele>1108.6006</ele>
        <time>2025-09-13T20:27:14+02:00</time>
      </trkpt>
      <trkpt lat="42.78173" lon="1.33718">
        <ele>1108.6006</ele>
        <time>2025-09-13T20:27:18+02:00</time>
      </trkpt>
      <trkpt lat="42.78173" lon="1.33718">
        <ele>1108.6006</ele>
        <time>2025-09-13T20:27:19+02:00</time>
      </trkpt>
      <trkpt lat="42.78173" lon="1.33717">
        <ele>1108.6006</ele>
        <time>2025-09-13T20:27:23+02:00</time>
      </trkpt>
      <trkpt lat="42.78173" lon="1.33717">
        <ele>1108.6006</ele>
        <time>2025-09-13T20:27:24+02:00</time>
      </trkpt>
      <trkpt lat="42.78172" lon="1.33718">
        <ele>1108.6006</ele>
        <time>2025-09-13T20:27:28+02:00</time>
      </trkpt>
      <trkpt lat="42.78173" lon="1.33717">
        <ele>1108.6006</ele>
        <time>2025-09-13T20:27:29+02:00</time>
      </trkpt>
      <trkpt lat="42.78173" lon="1.33717">
        <ele>1108.6006</ele>
        <time>2025-09-13T20:27:33+02:00</time>
      </trkpt>
      <trkpt lat="42.78173" lon="1.33717">
        <ele>1108.6006</ele>
        <time>2025-09-13T20:27:34+02:00</time>
      </trkpt>
      <trkpt lat="42.78173" lon="1.33717">
        <ele>1108.6006</ele>
        <time>2025-09-13T20:27:38+02:00</time>
      </trkpt>
      <trkpt lat="42.78173" lon="1.33717">
        <ele>1108.6006</ele>
        <time>2025-09-13T20:27:39+02:00</time>
      </trkpt>
      <trkpt lat="42.78173" lon="1.33717">
        <ele>1108.6006</ele>
        <time>2025-09-13T20:27:43+02:00</time>
      </trkpt>
      <trkpt lat="42.78173" lon="1.33717">
        <ele>1108.6006</ele>
        <time>2025-09-13T20:27:44+02:00</time>
      </trkpt>
      <trkpt lat="42.78173" lon="1.33717">
        <ele>1108.6006</ele>
        <time>2025-09-13T20:27:48+02:00</time>
      </trkpt>
      <trkpt lat="42.78173" lon="1.33717">
        <ele>1108.6006</ele>
        <time>2025-09-13T20:27:49+02:00</time>
      </trkpt>
      <trkpt lat="42.78173" lon="1.33717">
        <ele>1108.6006</ele>
        <time>2025-09-13T20:27:53+02:00</time>
      </trkpt>
      <trkpt lat="42.78173" lon="1.33717">
        <ele>1108.6006</ele>
        <time>2025-09-13T20:27:54+02:00</time>
      </trkpt>
      <trkpt lat="42.78173" lon="1.33717">
        <ele>1108.6006</ele>
        <time>2025-09-13T20:27:58+02:00</time>
      </trkpt>
      <trkpt lat="42.78173" lon="1.33717">
        <ele>1108.6006</ele>
        <time>2025-09-13T20:27:59+02:00</time>
      </trkpt>
      <trkpt lat="42.78173" lon="1.33717">
        <ele>1108.6006</ele>
        <time>2025-09-13T20:28:03+02:00</time>
      </trkpt>
      <trkpt lat="42.78173" lon="1.33717">
        <ele>1108.6006</ele>
        <time>2025-09-13T20:28:04+02:00</time>
      </trkpt>
      <trkpt lat="42.78173" lon="1.33717">
        <ele>1108.6006</ele>
        <time>2025-09-13T20:28:08+02:00</time>
      </trkpt>
      <trkpt lat="42.78173" lon="1.33717">
        <ele>1108.6006</ele>
        <time>2025-09-13T20:28:09+02:00</time>
      </trkpt>
      <trkpt lat="42.78173" lon="1.33717">
        <ele>1108.6006</ele>
        <time>2025-09-13T20:28:13+02:00</time>
      </trkpt>
      <trkpt lat="42.78173" lon="1.33717">
        <ele>1108.6006</ele>
        <time>2025-09-13T20:28:14+02:00</time>
      </trkpt>
      <trkpt lat="42.78173" lon="1.33717">
        <ele>1108.6006</ele>
        <time>2025-09-13T20:28:18+02:00</time>
      </trkpt>
      <trkpt lat="42.78173" lon="1.33717">
        <ele>1108.6006</ele>
        <time>2025-09-13T20:28:19+02:00</time>
      </trkpt>
      <trkpt lat="42.78173" lon="1.33717">
        <ele>1108.6006</ele>
        <time>2025-09-13T20:28:23+02:00</time>
      </trkpt>
      <trkpt lat="42.78173" lon="1.33717">
        <ele>1108.6006</ele>
        <time>2025-09-13T20:28:24+02:00</time>
      </trkpt>
      <trkpt lat="42.78173" lon="1.33717">
        <ele>1108.6006</ele>
        <time>2025-09-13T20:28:28+02:00</time>
      </trkpt>
      <trkpt lat="42.78173" lon="1.33717">
        <ele>1108.6006</ele>
        <time>2025-09-13T20:28:29+02:00</time>
      </trkpt>
      <trkpt lat="42.78173" lon="1.33717">
        <ele>1108.6006</ele>
        <time>2025-09-13T20:28:33+02:00</time>
      </trkpt>
      <trkpt lat="42.78173" lon="1.33717">
        <ele>1108.6006</ele>
        <time>2025-09-13T20:28:34+02:00</time>
      </trkpt>
      <trkpt lat="42.78173" lon="1.33717">
        <ele>1108.6006</ele>
        <time>2025-09-13T20:28:38+02:00</time>
      </trkpt>
      <trkpt lat="42.78173" lon="1.33717">
        <ele>1108.6006</ele>
        <time>2025-09-13T20:28:39+02:00</time>
      </trkpt>
      <trkpt lat="42.78173" lon="1.33717">
        <ele>1108.6006</ele>
        <time>2025-09-13T20:28:43+02:00</time>
      </trkpt>
      <trkpt lat="42.78173" lon="1.33717">
        <ele>1108.6006</ele>
        <time>2025-09-13T20:28:44+02:00</time>
      </trkpt>
      <trkpt lat="42.78173" lon="1.33717">
        <ele>1108.6006</ele>
        <time>2025-09-13T20:28:48+02:00</time>
      </trkpt>
      <trkpt lat="42.78173" lon="1.33717">
        <ele>1108.6006</ele>
        <time>2025-09-13T20:28:49+02:00</time>
      </trkpt>
      <trkpt lat="42.78173" lon="1.33717">
        <ele>1108.6006</ele>
        <time>2025-09-13T20:28:53+02:00</time>
      </trkpt>
      <trkpt lat="42.78173" lon="1.33717">
        <ele>1108.6006</ele>
        <time>2025-09-13T20:28:54+02:00</time>
      </trkpt>
      <trkpt lat="42.78173" lon="1.33717">
        <ele>1108.6006</ele>
        <time>2025-09-13T20:28:58+02:00</time>
      </trkpt>
      <trkpt lat="42.78173" lon="1.33717">
        <ele>1108.6006</ele>
        <time>2025-09-13T20:28:59+02:00</time>
      </trkpt>
      <trkpt lat="42.78173" lon="1.33717">
        <ele>1108.6006</ele>
        <time>2025-09-13T20:29:03+02:00</time>
      </trkpt>
      <trkpt lat="42.78173" lon="1.33717">
        <ele>1108.6006</ele>
        <time>2025-09-13T20:29:04+02:00</time>
      </trkpt>
      <trkpt lat="42.78173" lon="1.33717">
        <ele>1108.6006</ele>
        <time>2025-09-13T20:29:08+02:00</time>
      </trkpt>
      <trkpt lat="42.78173" lon="1.33718">
        <ele>1108.6006</ele>
        <time>2025-09-13T20:29:09+02:00</time>
      </trkpt>
      <trkpt lat="42.78173" lon="1.33718">
        <ele>1104.4004</ele>
        <time>2025-09-13T20:29:13+02:00</time>
      </trkpt>
      <trkpt lat="42.78173" lon="1.33718">
        <ele>1104.4004</ele>
        <time>2025-09-13T20:29:14+02:00</time>
      </trkpt>
      <trkpt lat="42.78174" lon="1.33718">
        <ele>1104.4004</ele>
        <time>2025-09-13T20:29:18+02:00</time>
      </trkpt>
      <trkpt lat="42.78174" lon="1.33718">
        <ele>1104.4004</ele>
        <time>2025-09-13T20:29:19+02:00</time>
      </trkpt>
      <trkpt lat="42.78174" lon="1.33718">
        <ele>1104.4004</ele>
        <time>2025-09-13T20:29:23+02:00</time>
      </trkpt>
      <trkpt lat="42.78174" lon="1.33718">
        <ele>1104.4004</ele>
        <time>2025-09-13T20:29:24+02:00</time>
      </trkpt>
      <trkpt lat="42.78173" lon="1.33718">
        <ele>1104.4004</ele>
        <time>2025-09-13T20:29:28+02:00</time>
      </trkpt>
      <trkpt lat="42.78173" lon="1.33718">
        <ele>1104.4004</ele>
        <time>2025-09-13T20:29:29+02:00</time>
      </trkpt>
      <trkpt lat="42.78173" lon="1.33717">
        <ele>1104.4004</ele>
        <time>2025-09-13T20:29:33+02:00</time>
      </trkpt>
      <trkpt lat="42.78173" lon="1.33717">
        <ele>1104.4004</ele>
        <time>2025-09-13T20:29:34+02:00</time>
      </trkpt>
      <trkpt lat="42.78173" lon="1.33717">
        <ele>1104.4004</ele>
        <time>2025-09-13T20:29:38+02:00</time>
      </trkpt>
      <trkpt lat="42.78173" lon="1.33717">
        <ele>1104.4004</ele>
        <time>2025-09-13T20:29:39+02:00</time>
      </trkpt>
      <trkpt lat="42.78174" lon="1.33717">
        <ele>1104.4004</ele>
        <time>2025-09-13T20:29:43+02:00</time>
      </trkpt>
      <trkpt lat="42.78174" lon="1.33717">
        <ele>1104.4004</ele>
        <time>2025-09-13T20:29:44+02:00</time>
      </trkpt>
      <trkpt lat="42.78174" lon="1.33717">
        <ele>1104.4004</ele>
        <time>2025-09-13T20:29:48+02:00</time>
      </trkpt>
      <trkpt lat="42.78174" lon="1.33717">
        <ele>1104.4004</ele>
        <time>2025-09-13T20:29:49+02:00</time>
      </trkpt>
      <trkpt lat="42.78174" lon="1.33717">
        <ele>1104.4004</ele>
        <time>2025-09-13T20:29:53+02:00</time>
      </trkpt>
      <trkpt lat="42.78174" lon="1.33717">
        <ele>1104.4004</ele>
        <time>2025-09-13T20:29:54+02:00</time>
      </trkpt>
      <trkpt lat="42.78174" lon="1.33717">
        <ele>1104.4004</ele>
        <time>2025-09-13T20:29:58+02:00</time>
      </trkpt>
      <trkpt lat="42.78174" lon="1.33717">
        <ele>1104.4004</ele>
        <time>2025-09-13T20:29:59+02:00</time>
      </trkpt>
      <trkpt lat="42.78174" lon="1.33717">
        <ele>1104.4004</ele>
        <time>2025-09-13T20:30:03+02:00</time>
      </trkpt>
      <trkpt lat="42.78174" lon="1.33717">
        <ele>1104.4004</ele>
        <time>2025-09-13T20:30:04+02:00</time>
      </trkpt>
      <trkpt lat="42.78174" lon="1.33717">
        <ele>1104.4004</ele>
        <time>2025-09-13T20:30:08+02:00</time>
      </trkpt>
      <trkpt lat="42.78174" lon="1.33717">
        <ele>1104.4004</ele>
        <time>2025-09-13T20:30:09+02:00</time>
      </trkpt>
      <trkpt lat="42.78174" lon="1.33717">
        <ele>1104.4004</ele>
        <time>2025-09-13T20:30:13+02:00</time>
      </trkpt>
      <trkpt lat="42.78174" lon="1.33717">
        <ele>1104.4004</ele>
        <time>2025-09-13T20:30:14+02:00</time>
      </trkpt>
      <trkpt lat="42.78174" lon="1.33717">
        <ele>1104.4004</ele>
        <time>2025-09-13T20:30:18+02:00</time>
      </trkpt>
      <trkpt lat="42.78174" lon="1.33717">
        <ele>1104.4004</ele>
        <time>2025-09-13T20:30:19+02:00</time>
      </trkpt>
      <trkpt lat="42.78174" lon="1.33717">
        <ele>1104.4004</ele>
        <time>2025-09-13T20:30:23+02:00</time>
      </trkpt>
      <trkpt lat="42.78174" lon="1.33717">
        <ele>1104.4004</ele>
        <time>2025-09-13T20:30:24+02:00</time>
      </trkpt>
      <trkpt lat="42.78174" lon="1.33717">
        <ele>1104.4004</ele>
        <time>2025-09-13T20:30:28+02:00</time>
      </trkpt>
      <trkpt lat="42.78174" lon="1.33717">
        <ele>1104.4004</ele>
        <time>2025-09-13T20:30:29+02:00</time>
      </trkpt>
      <trkpt lat="42.78174" lon="1.33717">
        <ele>1104.4004</ele>
        <time>2025-09-13T20:30:33+02:00</time>
      </trkpt>
      <trkpt lat="42.78174" lon="1.33717">
        <ele>1104.4004</ele>
        <time>2025-09-13T20:30:34+02:00</time>
      </trkpt>
      <trkpt lat="42.78173" lon="1.33717">
        <ele>1104.4004</ele>
        <time>2025-09-13T20:30:38+02:00</time>
      </trkpt>
      <trkpt lat="42.78173" lon="1.33717">
        <ele>1104.4004</ele>
        <time>2025-09-13T20:30:39+02:00</time>
      </trkpt>
      <trkpt lat="42.78173" lon="1.33717">
        <ele>1104.4004</ele>
        <time>2025-09-13T20:30:43+02:00</time>
      </trkpt>
      <trkpt lat="42.78173" lon="1.33717">
        <ele>1104.4004</ele>
        <time>2025-09-13T20:30:44+02:00</time>
      </trkpt>
      <trkpt lat="42.78173" lon="1.33717">
        <ele>1104.4004</ele>
        <time>2025-09-13T20:30:48+02:00</time>
      </trkpt>
      <trkpt lat="42.78173" lon="1.33717">
        <ele>1104.4004</ele>
        <time>2025-09-13T20:30:49+02:00</time>
      </trkpt>
      <trkpt lat="42.78173" lon="1.33717">
        <ele>1104.4004</ele>
        <time>2025-09-13T20:30:53+02:00</time>
      </trkpt>
      <trkpt lat="42.78173" lon="1.33717">
        <ele>1104.4004</ele>
        <time>2025-09-13T20:30:54+02:00</time>
      </trkpt>
      <trkpt lat="42.78173" lon="1.33717">
        <ele>1104.4004</ele>
        <time>2025-09-13T20:30:58+02:00</time>
      </trkpt>
      <trkpt lat="42.78173" lon="1.33717">
        <ele>1104.4004</ele>
        <time>2025-09-13T20:30:59+02:00</time>
      </trkpt>
      <trkpt lat="42.78173" lon="1.33717">
        <ele>1104.4004</ele>
        <time>2025-09-13T20:31:03+02:00</time>
      </trkpt>
      <trkpt lat="42.78173" lon="1.33717">
        <ele>1104.4004</ele>
        <time>2025-09-13T20:31:04+02:00</time>
      </trkpt>
      <trkpt lat="42.78173" lon="1.33717">
        <ele>1104.4004</ele>
        <time>2025-09-13T20:31:08+02:00</time>
      </trkpt>
      <trkpt lat="42.78173" lon="1.33717">
        <ele>1104.4004</ele>
        <time>2025-09-13T20:31:09+02:00</time>
      </trkpt>
      <trkpt lat="42.78173" lon="1.33717">
        <ele>1104.4004</ele>
        <time>2025-09-13T20:31:13+02:00</time>
      </trkpt>
      <trkpt lat="42.78173" lon="1.33717">
        <ele>1104.4004</ele>
        <time>2025-09-13T20:31:14+02:00</time>
      </trkpt>
      <trkpt lat="42.78173" lon="1.33717">
        <ele>1104.4004</ele>
        <time>2025-09-13T20:31:18+02:00</time>
      </trkpt>
      <trkpt lat="42.78173" lon="1.33717">
        <ele>1104.4004</ele>
        <time>2025-09-13T20:31:19+02:00</time>
      </trkpt>
      <trkpt lat="42.78173" lon="1.33717">
        <ele>1104.4004</ele>
        <time>2025-09-13T20:31:23+02:00</time>
      </trkpt>
      <trkpt lat="42.78173" lon="1.33717">
        <ele>1104.4004</ele>
        <time>2025-09-13T20:31:24+02:00</time>
      </trkpt>
      <trkpt lat="42.78174" lon="1.33717">
        <ele>1104.4004</ele>
        <time>2025-09-13T20:31:28+02:00</time>
      </trkpt>
      <trkpt lat="42.78174" lon="1.33717">
        <ele>1104.4004</ele>
        <time>2025-09-13T20:31:29+02:00</time>
      </trkpt>
      <trkpt lat="42.78174" lon="1.33717">
        <ele>1104.4004</ele>
        <time>2025-09-13T20:31:33+02:00</time>
      </trkpt>
      <trkpt lat="42.78174" lon="1.33717">
        <ele>1104.4004</ele>
        <time>2025-09-13T20:31:34+02:00</time>
      </trkpt>
      <trkpt lat="42.78174" lon="1.33717">
        <ele>1104.4004</ele>
        <time>2025-09-13T20:31:38+02:00</time>
      </trkpt>
      <trkpt lat="42.78174" lon="1.33717">
        <ele>1104.4004</ele>
        <time>2025-09-13T20:31:39+02:00</time>
      </trkpt>
      <trkpt lat="42.78174" lon="1.33717">
        <ele>1104.4004</ele>
        <time>2025-09-13T20:31:43+02:00</time>
      </trkpt>
      <trkpt lat="42.78174" lon="1.33717">
        <ele>1104.4004</ele>
        <time>2025-09-13T20:31:44+02:00</time>
      </trkpt>
      <trkpt lat="42.78173" lon="1.33717">
        <ele>1104.4004</ele>
        <time>2025-09-13T20:31:48+02:00</time>
      </trkpt>
      <trkpt lat="42.78173" lon="1.33717">
        <ele>1104.4004</ele>
        <time>2025-09-13T20:31:49+02:00</time>
      </trkpt>
      <trkpt lat="42.78173" lon="1.33717">
        <ele>1104.4004</ele>
        <time>2025-09-13T20:31:53+02:00</time>
      </trkpt>
      <trkpt lat="42.78173" lon="1.33717">
        <ele>1104.4004</ele>
        <time>2025-09-13T20:31:54+02:00</time>
      </trkpt>
      <trkpt lat="42.78173" lon="1.33717">
        <ele>1104.4004</ele>
        <time>2025-09-13T20:31:58+02:00</time>
      </trkpt>
      <trkpt lat="42.78173" lon="1.33717">
        <ele>1104.4004</ele>
        <time>2025-09-13T20:31:59+02:00</time>
      </trkpt>
      <trkpt lat="42.78173" lon="1.33717">
        <ele>1104.4004</ele>
        <time>2025-09-13T20:32:03+02:00</time>
      </trkpt>
      <trkpt lat="42.78173" lon="1.33717">
        <ele>1104.4004</ele>
        <time>2025-09-13T20:32:04+02:00</time>
      </trkpt>
      <trkpt lat="42.78173" lon="1.33717">
        <ele>1104.4004</ele>
        <time>2025-09-13T20:32:08+02:00</time>
      </trkpt>
      <trkpt lat="42.78173" lon="1.33717">
        <ele>1104.4004</ele>
        <time>2025-09-13T20:32:09+02:00</time>
      </trkpt>
      <trkpt lat="42.78173" lon="1.33717">
        <ele>1104.4004</ele>
        <time>2025-09-13T20:32:13+02:00</time>
      </trkpt>
      <trkpt lat="42.78173" lon="1.33717">
        <ele>1104.4004</ele>
        <time>2025-09-13T20:32:14+02:00</time>
      </trkpt>
      <trkpt lat="42.78173" lon="1.33717">
        <ele>1104.4004</ele>
        <time>2025-09-13T20:32:18+02:00</time>
      </trkpt>
      <trkpt lat="42.78173" lon="1.33717">
        <ele>1104.4004</ele>
        <time>2025-09-13T20:32:19+02:00</time>
      </trkpt>
      <trkpt lat="42.78173" lon="1.33717">
        <ele>1104.4004</ele>
        <time>2025-09-13T20:32:23+02:00</time>
      </trkpt>
      <trkpt lat="42.78173" lon="1.33717">
        <ele>1104.4004</ele>
        <time>2025-09-13T20:32:24+02:00</time>
      </trkpt>
      <trkpt lat="42.78173" lon="1.33717">
        <ele>1104.4004</ele>
        <time>2025-09-13T20:32:28+02:00</time>
      </trkpt>
      <trkpt lat="42.78173" lon="1.33717">
        <ele>1104.4004</ele>
        <time>2025-09-13T20:32:29+02:00</time>
      </trkpt>
      <trkpt lat="42.78173" lon="1.33717">
        <ele>1104.4004</ele>
        <time>2025-09-13T20:32:33+02:00</time>
      </trkpt>
      <trkpt lat="42.78173" lon="1.33717">
        <ele>1104.4004</ele>
        <time>2025-09-13T20:32:34+02:00</time>
      </trkpt>
      <trkpt lat="42.78173" lon="1.33717">
        <ele>1104.4004</ele>
        <time>2025-09-13T20:32:38+02:00</time>
      </trkpt>
      <trkpt lat="42.78173" lon="1.33717">
        <ele>1104.4004</ele>
        <time>2025-09-13T20:32:39+02:00</time>
      </trkpt>
      <trkpt lat="42.78173" lon="1.33717">
        <ele>1104.4004</ele>
        <time>2025-09-13T20:32:43+02:00</time>
      </trkpt>
      <trkpt lat="42.78173" lon="1.33717">
        <ele>1104.4004</ele>
        <time>2025-09-13T20:32:44+02:00</time>
      </trkpt>
      <trkpt lat="42.78173" lon="1.33717">
        <ele>1104.4004</ele>
        <time>2025-09-13T20:32:48+02:00</time>
      </trkpt>
      <trkpt lat="42.78173" lon="1.33717">
        <ele>1104.4004</ele>
        <time>2025-09-13T20:32:49+02:00</time>
      </trkpt>
      <trkpt lat="42.78173" lon="1.33717">
        <ele>1104.4004</ele>
        <time>2025-09-13T20:32:53+02:00</time>
      </trkpt>
      <trkpt lat="42.78173" lon="1.33717">
        <ele>1104.4004</ele>
        <time>2025-09-13T20:32:54+02:00</time>
      </trkpt>
      <trkpt lat="42.78173" lon="1.33717">
        <ele>1104.4004</ele>
        <time>2025-09-13T20:32:58+02:00</time>
      </trkpt>
      <trkpt lat="42.78174" lon="1.33718">
        <ele>1104.4004</ele>
        <time>2025-09-13T20:32:59+02:00</time>
      </trkpt>
      <trkpt lat="42.78174" lon="1.33719">
        <ele>1104.4004</ele>
        <time>2025-09-13T20:33:03+02:00</time>
      </trkpt>
      <trkpt lat="42.78174" lon="1.33719">
        <ele>1104.4004</ele>
        <time>2025-09-13T20:33:04+02:00</time>
      </trkpt>
      <trkpt lat="42.78174" lon="1.33719">
        <ele>1104.4004</ele>
        <time>2025-09-13T20:33:08+02:00</time>
      </trkpt>
      <trkpt lat="42.78174" lon="1.33719">
        <ele>1104.4004</ele>
        <time>2025-09-13T20:33:09+02:00</time>
      </trkpt>
      <trkpt lat="42.78173" lon="1.33723">
        <ele>1108.6006</ele>
        <time>2025-09-13T20:33:13+02:00</time>
      </trkpt>
      <trkpt lat="42.78172" lon="1.33724">
        <ele>1108.6006</ele>
        <time>2025-09-13T20:33:14+02:00</time>
      </trkpt>
      <trkpt lat="42.78172" lon="1.33725">
        <ele>1105.2002</ele>
        <time>2025-09-13T20:33:18+02:00</time>
      </trkpt>
      <trkpt lat="42.78172" lon="1.33725">
        <ele>1105.2002</ele>
        <time>2025-09-13T20:33:19+02:00</time>
      </trkpt>
      <trkpt lat="42.78172" lon="1.33727">
        <ele>1105.2002</ele>
        <time>2025-09-13T20:33:23+02:00</time>
      </trkpt>
      <trkpt lat="42.78172" lon="1.33728">
        <ele>1105.2002</ele>
        <time>2025-09-13T20:33:24+02:00</time>
      </trkpt>
      <trkpt lat="42.78173" lon="1.33729">
        <ele>1105.2002</ele>
        <time>2025-09-13T20:33:28+02:00</time>
      </trkpt>
      <trkpt lat="42.78172" lon="1.3373">
        <ele>1105.2002</ele>
        <time>2025-09-13T20:33:29+02:00</time>
      </trkpt>
      <trkpt lat="42.78171" lon="1.33734">
        <ele>1101.7998</ele>
        <time>2025-09-13T20:33:33+02:00</time>
      </trkpt>
      <trkpt lat="42.7817" lon="1.33735">
        <ele>1101.7998</ele>
        <time>2025-09-13T20:33:34+02:00</time>
      </trkpt>
      <trkpt lat="42.78169" lon="1.33741">
        <ele>1101.7998</ele>
        <time>2025-09-13T20:33:38+02:00</time>
      </trkpt>
      <trkpt lat="42.78169" lon="1.33743">
        <ele>1098.5</ele>
        <time>2025-09-13T20:33:39+02:00</time>
      </trkpt>
      <trkpt lat="42.78168" lon="1.33747">
        <ele>1098.5</ele>
        <time>2025-09-13T20:33:43+02:00</time>
      </trkpt>
      <trkpt lat="42.78168" lon="1.33747">
        <ele>1098.5</ele>
        <time>2025-09-13T20:33:44+02:00</time>
      </trkpt>
      <trkpt lat="42.78168" lon="1.33745">
        <ele>1098.5</ele>
        <time>2025-09-13T20:33:48+02:00</time>
      </trkpt>
      <trkpt lat="42.78168" lon="1.33745">
        <ele>1098.5</ele>
        <time>2025-09-13T20:33:49+02:00</time>
      </trkpt>
      <trkpt lat="42.78168" lon="1.33744">
        <ele>1098.5</ele>
        <time>2025-09-13T20:33:53+02:00</time>
      </trkpt>
      <trkpt lat="42.78168" lon="1.33744">
        <ele>1098.5</ele>
        <time>2025-09-13T20:33:54+02:00</time>
      </trkpt>
      <trkpt lat="42.78168" lon="1.33744">
        <ele>1098.5</ele>
        <time>2025-09-13T20:33:58+02:00</time>
      </trkpt>
      <trkpt lat="42.78168" lon="1.33744">
        <ele>1098.5</ele>
        <time>2025-09-13T20:33:59+02:00</time>
      </trkpt>
      <trkpt lat="42.78167" lon="1.33743">
        <ele>1098.5</ele>
        <time>2025-09-13T20:34:03+02:00</time>
      </trkpt>
      <trkpt lat="42.78167" lon="1.33742">
        <ele>1098.5</ele>
        <time>2025-09-13T20:34:04+02:00</time>
      </trkpt>
      <trkpt lat="42.78167" lon="1.33741">
        <ele>1098.5</ele>
        <time>2025-09-13T20:34:08+02:00</time>
      </trkpt>
      <trkpt lat="42.78167" lon="1.33741">
        <ele>1101.7998</ele>
        <time>2025-09-13T20:34:09+02:00</time>
      </trkpt>
      <trkpt lat="42.78167" lon="1.33741">
        <ele>1101.7998</ele>
        <time>2025-09-13T20:34:13+02:00</time>
      </trkpt>
      <trkpt lat="42.78167" lon="1.33741">
        <ele>1101.7998</ele>
        <time>2025-09-13T20:34:14+02:00</time>
      </trkpt>
      <trkpt lat="42.78167" lon="1.3374">
        <ele>1101.7998</ele>
        <time>2025-09-13T20:34:18+02:00</time>
      </trkpt>
      <trkpt lat="42.78167" lon="1.3374">
        <ele>1101.7998</ele>
        <time>2025-09-13T20:34:19+02:00</time>
      </trkpt>
      <trkpt lat="42.78168" lon="1.33738">
        <ele>1101.7998</ele>
        <time>2025-09-13T20:34:23+02:00</time>
      </trkpt>
      <trkpt lat="42.78168" lon="1.33737">
        <ele>1101.7998</ele>
        <time>2025-09-13T20:34:24+02:00</time>
      </trkpt>
      <trkpt lat="42.78168" lon="1.33735">
        <ele>1101.7998</ele>
        <time>2025-09-13T20:34:28+02:00</time>
      </trkpt>
      <trkpt lat="42.78168" lon="1.33735">
        <ele>1101.7998</ele>
        <time>2025-09-13T20:34:29+02:00</time>
      </trkpt>
      <trkpt lat="42.78168" lon="1.33734">
        <ele>1101.7998</ele>
        <time>2025-09-13T20:34:33+02:00</time>
      </trkpt>
      <trkpt lat="42.78168" lon="1.33733">
        <ele>1101.7998</ele>
        <time>2025-09-13T20:34:34+02:00</time>
      </trkpt>
      <trkpt lat="42.78168" lon="1.33733">
        <ele>1105.2002</ele>
        <time>2025-09-13T20:34:38+02:00</time>
      </trkpt>
      <trkpt lat="42.78168" lon="1.33732">
        <ele>1105.2002</ele>
        <time>2025-09-13T20:34:39+02:00</time>
      </trkpt>
      <trkpt lat="42.78169" lon="1.33732">
        <ele>1105.2002</ele>
        <time>2025-09-13T20:34:43+02:00</time>
      </trkpt>
      <trkpt lat="42.78169" lon="1.33731">
        <ele>1105.2002</ele>
        <time>2025-09-13T20:34:44+02:00</time>
      </trkpt>
      <trkpt lat="42.78169" lon="1.3373">
        <ele>1105.2002</ele>
        <time>2025-09-13T20:34:48+02:00</time>
      </trkpt>
      <trkpt lat="42.78169" lon="1.3373">
        <ele>1105.2002</ele>
        <time>2025-09-13T20:34:49+02:00</time>
      </trkpt>
      <trkpt lat="42.78169" lon="1.3373">
        <ele>1105.2002</ele>
        <time>2025-09-13T20:34:53+02:00</time>
      </trkpt>
      <trkpt lat="42.78169" lon="1.3373">
        <ele>1105.2002</ele>
        <time>2025-09-13T20:34:54+02:00</time>
      </trkpt>
      <trkpt lat="42.78169" lon="1.3373">
        <ele>1105.2002</ele>
        <time>2025-09-13T20:34:58+02:00</time>
      </trkpt>
      <trkpt lat="42.78169" lon="1.3373">
        <ele>1105.2002</ele>
        <time>2025-09-13T20:34:59+02:00</time>
      </trkpt>
      <trkpt lat="42.78169" lon="1.3373">
        <ele>1105.2002</ele>
        <time>2025-09-13T20:35:03+02:00</time>
      </trkpt>
      <trkpt lat="42.78169" lon="1.3373">
        <ele>1105.2002</ele>
        <time>2025-09-13T20:35:04+02:00</time>
      </trkpt>
      <trkpt lat="42.78169" lon="1.3373">
        <ele>1105.2002</ele>
        <time>2025-09-13T20:35:08+02:00</time>
      </trkpt>
      <trkpt lat="42.78169" lon="1.3373">
        <ele>1105.2002</ele>
        <time>2025-09-13T20:35:09+02:00</time>
      </trkpt>
      <trkpt lat="42.78169" lon="1.3373">
        <ele>1105.2002</ele>
        <time>2025-09-13T20:35:13+02:00</time>
      </trkpt>
      <trkpt lat="42.78169" lon="1.3373">
        <ele>1105.2002</ele>
        <time>2025-09-13T20:35:14+02:00</time>
      </trkpt>
      <trkpt lat="42.78169" lon="1.3373">
        <ele>1105.2002</ele>
        <time>2025-09-13T20:35:18+02:00</time>
      </trkpt>
      <trkpt lat="42.78169" lon="1.3373">
        <ele>1105.2002</ele>
        <time>2025-09-13T20:35:19+02:00</time>
      </trkpt>
      <trkpt lat="42.78169" lon="1.3373">
        <ele>1105.2002</ele>
        <time>2025-09-13T20:35:23+02:00</time>
      </trkpt>
      <trkpt lat="42.78169" lon="1.3373">
        <ele>1105.2002</ele>
        <time>2025-09-13T20:35:24+02:00</time>
      </trkpt>
      <trkpt lat="42.78169" lon="1.33728">
        <ele>1105.2002</ele>
        <time>2025-09-13T20:35:28+02:00</time>
      </trkpt>
      <trkpt lat="42.78169" lon="1.33728">
        <ele>1105.2002</ele>
        <time>2025-09-13T20:35:29+02:00</time>
      </trkpt>
      <trkpt lat="42.78169" lon="1.33728">
        <ele>1105.2002</ele>
        <time>2025-09-13T20:35:33+02:00</time>
      </trkpt>
      <trkpt lat="42.78169" lon="1.33728">
        <ele>1105.2002</ele>
        <time>2025-09-13T20:35:34+02:00</time>
      </trkpt>
      <trkpt lat="42.78169" lon="1.33728">
        <ele>1105.2002</ele>
        <time>2025-09-13T20:35:38+02:00</time>
      </trkpt>
      <trkpt lat="42.78169" lon="1.33728">
        <ele>1105.2002</ele>
        <time>2025-09-13T20:35:39+02:00</time>
      </trkpt>
      <trkpt lat="42.78169" lon="1.33728">
        <ele>1105.2002</ele>
        <time>2025-09-13T20:35:43+02:00</time>
      </trkpt>
      <trkpt lat="42.78169" lon="1.33728">
        <ele>1105.2002</ele>
        <time>2025-09-13T20:35:44+02:00</time>
      </trkpt>
      <trkpt lat="42.78169" lon="1.33728">
        <ele>1105.2002</ele>
        <time>2025-09-13T20:35:48+02:00</time>
      </trkpt>
      <trkpt lat="42.78169" lon="1.33728">
        <ele>1105.2002</ele>
        <time>2025-09-13T20:35:49+02:00</time>
      </trkpt>
      <trkpt lat="42.78169" lon="1.33728">
        <ele>1105.2002</ele>
        <time>2025-09-13T20:35:53+02:00</time>
      </trkpt>
      <trkpt lat="42.78169" lon="1.33728">
        <ele>1105.2002</ele>
        <time>2025-09-13T20:35:54+02:00</time>
      </trkpt>
      <trkpt lat="42.78169" lon="1.33728">
        <ele>1105.2002</ele>
        <time>2025-09-13T20:35:58+02:00</time>
      </trkpt>
      <trkpt lat="42.78169" lon="1.33728">
        <ele>1105.2002</ele>
        <time>2025-09-13T20:35:59+02:00</time>
      </trkpt>
      <trkpt lat="42.78169" lon="1.33728">
        <ele>1105.2002</ele>
        <time>2025-09-13T20:36:03+02:00</time>
      </trkpt>
      <trkpt lat="42.78169" lon="1.33728">
        <ele>1105.2002</ele>
        <time>2025-09-13T20:36:04+02:00</time>
      </trkpt>
      <trkpt lat="42.78169" lon="1.33727">
        <ele>1105.2002</ele>
        <time>2025-09-13T20:36:08+02:00</time>
      </trkpt>
      <trkpt lat="42.78169" lon="1.33727">
        <ele>1105.2002</ele>
        <time>2025-09-13T20:36:09+02:00</time>
      </trkpt>
      <trkpt lat="42.78169" lon="1.33727">
        <ele>1105.2002</ele>
        <time>2025-09-13T20:36:13+02:00</time>
      </trkpt>
      <trkpt lat="42.78169" lon="1.33727">
        <ele>1105.2002</ele>
        <time>2025-09-13T20:36:14+02:00</time>
      </trkpt>
      <trkpt lat="42.78169" lon="1.33727">
        <ele>1105.2002</ele>
        <time>2025-09-13T20:36:18+02:00</time>
      </trkpt>
      <trkpt lat="42.78169" lon="1.33727">
        <ele>1105.2002</ele>
        <time>2025-09-13T20:36:19+02:00</time>
      </trkpt>
      <trkpt lat="42.78169" lon="1.33727">
        <ele>1105.2002</ele>
        <time>2025-09-13T20:36:23+02:00</time>
      </trkpt>
      <trkpt lat="42.78169" lon="1.33727">
        <ele>1105.2002</ele>
        <time>2025-09-13T20:36:24+02:00</time>
      </trkpt>
      <trkpt lat="42.78169" lon="1.33727">
        <ele>1105.2002</ele>
        <time>2025-09-13T20:36:28+02:00</time>
      </trkpt>
      <trkpt lat="42.78169" lon="1.33727">
        <ele>1105.2002</ele>
        <time>2025-09-13T20:36:29+02:00</time>
      </trkpt>
      <trkpt lat="42.78169" lon="1.33727">
        <ele>1105.2002</ele>
        <time>2025-09-13T20:36:33+02:00</time>
      </trkpt>
      <trkpt lat="42.78169" lon="1.33727">
        <ele>1105.2002</ele>
        <time>2025-09-13T20:36:34+02:00</time>
      </trkpt>
      <trkpt lat="42.78169" lon="1.33727">
        <ele>1105.2002</ele>
        <time>2025-09-13T20:36:38+02:00</time>
      </trkpt>
      <trkpt lat="42.7817" lon="1.33727">
        <ele>1105.2002</ele>
        <time>2025-09-13T20:36:39+02:00</time>
      </trkpt>
      <trkpt lat="42.7817" lon="1.33727">
        <ele>1105.2002</ele>
        <time>2025-09-13T20:36:43+02:00</time>
      </trkpt>
      <trkpt lat="42.7817" lon="1.33727">
        <ele>1105.2002</ele>
        <time>2025-09-13T20:36:44+02:00</time>
      </trkpt>
      <trkpt lat="42.7817" lon="1.33727">
        <ele>1105.2002</ele>
        <time>2025-09-13T20:36:48+02:00</time>
      </trkpt>
      <trkpt lat="42.7817" lon="1.33727">
        <ele>1105.2002</ele>
        <time>2025-09-13T20:36:49+02:00</time>
      </trkpt>
      <trkpt lat="42.7817" lon="1.33727">
        <ele>1105.2002</ele>
        <time>2025-09-13T20:36:53+02:00</time>
      </trkpt>
      <trkpt lat="42.7817" lon="1.33727">
        <ele>1105.2002</ele>
        <time>2025-09-13T20:36:54+02:00</time>
      </trkpt>
      <trkpt lat="42.7817" lon="1.33727">
        <ele>1105.2002</ele>
        <time>2025-09-13T20:36:58+02:00</time>
      </trkpt>
      <trkpt lat="42.7817" lon="1.33727">
        <ele>1105.2002</ele>
        <time>2025-09-13T20:36:59+02:00</time>
      </trkpt>
      <trkpt lat="42.7817" lon="1.33727">
        <ele>1105.2002</ele>
        <time>2025-09-13T20:37:03+02:00</time>
      </trkpt>
      <trkpt lat="42.7817" lon="1.33727">
        <ele>1105.2002</ele>
        <time>2025-09-13T20:37:04+02:00</time>
      </trkpt>
      <trkpt lat="42.7817" lon="1.33727">
        <ele>1105.2002</ele>
        <time>2025-09-13T20:37:08+02:00</time>
      </trkpt>
      <trkpt lat="42.7817" lon="1.33727">
        <ele>1105.2002</ele>
        <time>2025-09-13T20:37:09+02:00</time>
      </trkpt>
      <trkpt lat="42.7817" lon="1.33727">
        <ele>1105.2002</ele>
        <time>2025-09-13T20:37:13+02:00</time>
      </trkpt>
      <trkpt lat="42.7817" lon="1.33727">
        <ele>1105.2002</ele>
        <time>2025-09-13T20:37:14+02:00</time>
      </trkpt>
      <trkpt lat="42.7817" lon="1.33727">
        <ele>1105.2002</ele>
        <time>2025-09-13T20:37:18+02:00</time>
      </trkpt>
      <trkpt lat="42.7817" lon="1.33727">
        <ele>1105.2002</ele>
        <time>2025-09-13T20:37:19+02:00</time>
      </trkpt>
      <trkpt lat="42.7817" lon="1.33727">
        <ele>1105.2002</ele>
        <time>2025-09-13T20:37:23+02:00</time>
      </trkpt>
      <trkpt lat="42.7817" lon="1.33727">
        <ele>1105.2002</ele>
        <time>2025-09-13T20:37:24+02:00</time>
      </trkpt>
      <trkpt lat="42.7817" lon="1.33726">
        <ele>1105.2002</ele>
        <time>2025-09-13T20:37:28+02:00</time>
      </trkpt>
      <trkpt lat="42.7817" lon="1.33726">
        <ele>1105.2002</ele>
        <time>2025-09-13T20:37:29+02:00</time>
      </trkpt>
      <trkpt lat="42.7817" lon="1.33726">
        <ele>1105.2002</ele>
        <time>2025-09-13T20:37:33+02:00</time>
      </trkpt>
      <trkpt lat="42.7817" lon="1.33726">
        <ele>1105.2002</ele>
        <time>2025-09-13T20:37:34+02:00</time>
      </trkpt>
      <trkpt lat="42.7817" lon="1.33726">
        <ele>1105.2002</ele>
        <time>2025-09-13T20:37:38+02:00</time>
      </trkpt>
      <trkpt lat="42.7817" lon="1.33726">
        <ele>1105.2002</ele>
        <time>2025-09-13T20:37:39+02:00</time>
      </trkpt>
      <trkpt lat="42.78171" lon="1.33725">
        <ele>1105.2002</ele>
        <time>2025-09-13T20:37:43+02:00</time>
      </trkpt>
      <trkpt lat="42.78171" lon="1.33725">
        <ele>1105.2002</ele>
        <time>2025-09-13T20:37:44+02:00</time>
      </trkpt>
      <trkpt lat="42.78173" lon="1.33725">
        <ele>1101.1006</ele>
        <time>2025-09-13T20:37:48+02:00</time>
      </trkpt>
      <trkpt lat="42.78173" lon="1.33725">
        <ele>1101.1006</ele>
        <time>2025-09-13T20:37:49+02:00</time>
      </trkpt>
      <trkpt lat="42.78174" lon="1.33725">
        <ele>1101.1006</ele>
        <time>2025-09-13T20:37:53+02:00</time>
      </trkpt>
      <trkpt lat="42.78174" lon="1.33725">
        <ele>1101.1006</ele>
        <time>2025-09-13T20:37:54+02:00</time>
      </trkpt>
      <trkpt lat="42.78174" lon="1.33725">
        <ele>1101.1006</ele>
        <time>2025-09-13T20:37:58+02:00</time>
      </trkpt>
      <trkpt lat="42.78174" lon="1.33725">
        <ele>1101.1006</ele>
        <time>2025-09-13T20:37:59+02:00</time>
      </trkpt>
      <trkpt lat="42.78174" lon="1.33724">
        <ele>1104.4004</ele>
        <time>2025-09-13T20:38:03+02:00</time>
      </trkpt>
      <trkpt lat="42.78174" lon="1.33724">
        <ele>1104.4004</ele>
        <time>2025-09-13T20:38:04+02:00</time>
      </trkpt>
      <trkpt lat="42.78174" lon="1.33724">
        <ele>1104.4004</ele>
        <time>2025-09-13T20:38:08+02:00</time>
      </trkpt>
      <trkpt lat="42.78174" lon="1.33724">
        <ele>1104.4004</ele>
        <time>2025-09-13T20:38:09+02:00</time>
      </trkpt>
      <trkpt lat="42.78174" lon="1.33724">
        <ele>1104.4004</ele>
        <time>2025-09-13T20:38:13+02:00</time>
      </trkpt>
      <trkpt lat="42.78174" lon="1.33724">
        <ele>1104.4004</ele>
        <time>2025-09-13T20:38:14+02:00</time>
      </trkpt>
      <trkpt lat="42.78174" lon="1.33724">
        <ele>1104.4004</ele>
        <time>2025-09-13T20:38:18+02:00</time>
      </trkpt>
      <trkpt lat="42.78174" lon="1.33724">
        <ele>1104.4004</ele>
        <time>2025-09-13T20:38:19+02:00</time>
      </trkpt>
      <trkpt lat="42.78174" lon="1.33724">
        <ele>1104.4004</ele>
        <time>2025-09-13T20:38:23+02:00</time>
      </trkpt>
      <trkpt lat="42.78174" lon="1.33724">
        <ele>1104.4004</ele>
        <time>2025-09-13T20:38:24+02:00</time>
      </trkpt>
      <trkpt lat="42.78174" lon="1.33724">
        <ele>1104.4004</ele>
        <time>2025-09-13T20:38:28+02:00</time>
      </trkpt>
      <trkpt lat="42.78174" lon="1.33724">
        <ele>1104.4004</ele>
        <time>2025-09-13T20:38:29+02:00</time>
      </trkpt>
      <trkpt lat="42.78175" lon="1.33724">
        <ele>1104.4004</ele>
        <time>2025-09-13T20:38:33+02:00</time>
      </trkpt>
      <trkpt lat="42.78175" lon="1.33724">
        <ele>1104.4004</ele>
        <time>2025-09-13T20:38:34+02:00</time>
      </trkpt>
      <trkpt lat="42.78175" lon="1.33723">
        <ele>1104.4004</ele>
        <time>2025-09-13T20:38:38+02:00</time>
      </trkpt>
      <trkpt lat="42.78176" lon="1.33723">
        <ele>1104.4004</ele>
        <time>2025-09-13T20:38:39+02:00</time>
      </trkpt>
      <trkpt lat="42.78176" lon="1.33723">
        <ele>1104.4004</ele>
        <time>2025-09-13T20:38:43+02:00</time>
      </trkpt>
      <trkpt lat="42.78176" lon="1.33723">
        <ele>1104.4004</ele>
        <time>2025-09-13T20:38:44+02:00</time>
      </trkpt>
      <trkpt lat="42.78176" lon="1.33723">
        <ele>1104.4004</ele>
        <time>2025-09-13T20:38:48+02:00</time>
      </trkpt>
      <trkpt lat="42.78176" lon="1.33723">
        <ele>1104.4004</ele>
        <time>2025-09-13T20:38:49+02:00</time>
      </trkpt>
      <trkpt lat="42.78178" lon="1.33724">
        <ele>1101.1006</ele>
        <time>2025-09-13T20:38:53+02:00</time>
      </trkpt>
      <trkpt lat="42.78178" lon="1.33725">
        <ele>1101.1006</ele>
        <time>2025-09-13T20:38:54+02:00</time>
      </trkpt>
      <trkpt lat="42.78183" lon="1.33725">
        <ele>1097.4004</ele>
        <time>2025-09-13T20:38:58+02:00</time>
      </trkpt>
      <trkpt lat="42.78184" lon="1.33725">
        <ele>1097.4004</ele>
        <time>2025-09-13T20:38:59+02:00</time>
      </trkpt>
      <trkpt lat="42.78189" lon="1.33724">
        <ele>1093.9004</ele>
        <time>2025-09-13T20:39:03+02:00</time>
      </trkpt>
      <trkpt lat="42.7819" lon="1.33724">
        <ele>1093.9004</ele>
        <time>2025-09-13T20:39:04+02:00</time>
      </trkpt>
      <trkpt lat="42.78193" lon="1.33723">
        <ele>1093.7998</ele>
        <time>2025-09-13T20:39:08+02:00</time>
      </trkpt>
      <trkpt lat="42.78194" lon="1.33722">
        <ele>1093.7998</ele>
        <time>2025-09-13T20:39:09+02:00</time>
      </trkpt>
      <trkpt lat="42.78198" lon="1.3372">
        <ele>1093.7998</ele>
        <time>2025-09-13T20:39:13+02:00</time>
      </trkpt>
      <trkpt lat="42.78198" lon="1.3372">
        <ele>1093.7998</ele>
        <time>2025-09-13T20:39:14+02:00</time>
      </trkpt>
      <trkpt lat="42.78201" lon="1.33718">
        <ele>1090.7998</ele>
        <time>2025-09-13T20:39:18+02:00</time>
      </trkpt>
      <trkpt lat="42.78201" lon="1.33717">
        <ele>1090.7998</ele>
        <time>2025-09-13T20:39:19+02:00</time>
      </trkpt>
      <trkpt lat="42.78204" lon="1.33717">
        <ele>1090.7998</ele>
        <time>2025-09-13T20:39:23+02:00</time>
      </trkpt>
      <trkpt lat="42.78204" lon="1.33717">
        <ele>1090.7998</ele>
        <time>2025-09-13T20:39:24+02:00</time>
      </trkpt>
      <trkpt lat="42.78207" lon="1.33714">
        <ele>1090.7998</ele>
        <time>2025-09-13T20:39:28+02:00</time>
      </trkpt>
      <trkpt lat="42.78208" lon="1.33712">
        <ele>1090.7998</ele>
        <time>2025-09-13T20:39:29+02:00</time>
      </trkpt>
      <trkpt lat="42.78211" lon="1.33709">
        <ele>1090.7998</ele>
        <time>2025-09-13T20:39:33+02:00</time>
      </trkpt>
      <trkpt lat="42.78211" lon="1.33708">
        <ele>1088.1006</ele>
        <time>2025-09-13T20:39:34+02:00</time>
      </trkpt>
      <trkpt lat="42.78214" lon="1.33706">
        <ele>1090.9004</ele>
        <time>2025-09-13T20:39:38+02:00</time>
      </trkpt>
      <trkpt lat="42.78215" lon="1.33705">
        <ele>1090.9004</ele>
        <time>2025-09-13T20:39:39+02:00</time>
      </trkpt>
      <trkpt lat="42.78219" lon="1.33703">
        <ele>1088.2998</ele>
        <time>2025-09-13T20:39:43+02:00</time>
      </trkpt>
      <trkpt lat="42.7822" lon="1.33703">
        <ele>1088.2998</ele>
        <time>2025-09-13T20:39:44+02:00</time>
      </trkpt>
      <trkpt lat="42.78223" lon="1.33701">
        <ele>1088.2998</ele>
        <time>2025-09-13T20:39:48+02:00</time>
      </trkpt>
      <trkpt lat="42.78223" lon="1.337">
        <ele>1088.2998</ele>
        <time>2025-09-13T20:39:49+02:00</time>
      </trkpt>
      <trkpt lat="42.78224" lon="1.33697">
        <ele>1088.5</ele>
        <time>2025-09-13T20:39:53+02:00</time>
      </trkpt>
      <trkpt lat="42.78224" lon="1.33696">
        <ele>1088.5</ele>
        <time>2025-09-13T20:39:54+02:00</time>
      </trkpt>
      <trkpt lat="42.78225" lon="1.33695">
        <ele>1088.5</ele>
        <time>2025-09-13T20:39:58+02:00</time>
      </trkpt>
      <trkpt lat="42.78226" lon="1.33696">
        <ele>1088.5</ele>
        <time>2025-09-13T20:39:59+02:00</time>
      </trkpt>
      <trkpt lat="42.78228" lon="1.33696">
        <ele>1088.5</ele>
        <time>2025-09-13T20:40:03+02:00</time>
      </trkpt>
      <trkpt lat="42.78229" lon="1.33696">
        <ele>1088.5</ele>
        <time>2025-09-13T20:40:04+02:00</time>
      </trkpt>
      <trkpt lat="42.78231" lon="1.33697">
        <ele>1085.9004</ele>
        <time>2025-09-13T20:40:08+02:00</time>
      </trkpt>
      <trkpt lat="42.78231" lon="1.33698">
        <ele>1085.9004</ele>
        <time>2025-09-13T20:40:09+02:00</time>
      </trkpt>
      <trkpt lat="42.7823" lon="1.33703">
        <ele>1083.2998</ele>
        <time>2025-09-13T20:40:13+02:00</time>
      </trkpt>
      <trkpt lat="42.7823" lon="1.33704">
        <ele>1083.2998</ele>
        <time>2025-09-13T20:40:14+02:00</time>
      </trkpt>
      <trkpt lat="42.78227" lon="1.33708">
        <ele>1083</ele>
        <time>2025-09-13T20:40:18+02:00</time>
      </trkpt>
      <trkpt lat="42.78226" lon="1.33709">
        <ele>1083</ele>
        <time>2025-09-13T20:40:19+02:00</time>
      </trkpt>
      <trkpt lat="42.78222" lon="1.33712">
        <ele>1085.5</ele>
        <time>2025-09-13T20:40:23+02:00</time>
      </trkpt>
      <trkpt lat="42.78221" lon="1.33713">
        <ele>1085.5</ele>
        <time>2025-09-13T20:40:24+02:00</time>
      </trkpt>
      <trkpt lat="42.78217" lon="1.33716">
        <ele>1085.2998</ele>
        <time>2025-09-13T20:40:28+02:00</time>
      </trkpt>
      <trkpt lat="42.78216" lon="1.33717">
        <ele>1085.2998</ele>
        <time>2025-09-13T20:40:29+02:00</time>
      </trkpt>
      <trkpt lat="42.78212" lon="1.3372">
        <ele>1085.2998</ele>
        <time>2025-09-13T20:40:33+02:00</time>
      </trkpt>
      <trkpt lat="42.78212" lon="1.33721">
        <ele>1085.2998</ele>
        <time>2025-09-13T20:40:34+02:00</time>
      </trkpt>
      <trkpt lat="42.7821" lon="1.33726">
        <ele>1085.1006</ele>
        <time>2025-09-13T20:40:38+02:00</time>
      </trkpt>
      <trkpt lat="42.78209" lon="1.33728">
        <ele>1085.1006</ele>
        <time>2025-09-13T20:40:39+02:00</time>
      </trkpt>
      <trkpt lat="42.78207" lon="1.33732">
        <ele>1085.1006</ele>
        <time>2025-09-13T20:40:43+02:00</time>
      </trkpt>
      <trkpt lat="42.78206" lon="1.33733">
        <ele>1085.1006</ele>
        <time>2025-09-13T20:40:44+02:00</time>
      </trkpt>
      <trkpt lat="42.78205" lon="1.33737">
        <ele>1082.2002</ele>
        <time>2025-09-13T20:40:48+02:00</time>
      </trkpt>
      <trkpt lat="42.78205" lon="1.33738">
        <ele>1082.2002</ele>
        <time>2025-09-13T20:40:49+02:00</time>
      </trkpt>
      <trkpt lat="42.78203" lon="1.33741">
        <ele>1085</ele>
        <time>2025-09-13T20:40:53+02:00</time>
      </trkpt>
      <trkpt lat="42.78202" lon="1.33742">
        <ele>1082.1006</ele>
        <time>2025-09-13T20:40:54+02:00</time>
      </trkpt>
      <trkpt lat="42.78202" lon="1.33747">
        <ele>1082.1006</ele>
        <time>2025-09-13T20:40:58+02:00</time>
      </trkpt>
      <trkpt lat="42.78202" lon="1.33747">
        <ele>1082.1006</ele>
        <time>2025-09-13T20:40:59+02:00</time>
      </trkpt>
      <trkpt lat="42.78203" lon="1.33745">
        <ele>1082.1006</ele>
        <time>2025-09-13T20:41:03+02:00</time>
      </trkpt>
      <trkpt lat="42.78203" lon="1.33744">
        <ele>1082.1006</ele>
        <time>2025-09-13T20:41:04+02:00</time>
      </trkpt>
      <trkpt lat="42.78204" lon="1.33744">
        <ele>1082.1006</ele>
        <time>2025-09-13T20:41:08+02:00</time>
      </trkpt>
      <trkpt lat="42.78204" lon="1.33744">
        <ele>1082.1006</ele>
        <time>2025-09-13T20:41:09+02:00</time>
      </trkpt>
      <trkpt lat="42.78208" lon="1.33743">
        <ele>1079.5</ele>
        <time>2025-09-13T20:41:13+02:00</time>
      </trkpt>
      <trkpt lat="42.78208" lon="1.33742">
        <ele>1079.5</ele>
        <time>2025-09-13T20:41:14+02:00</time>
      </trkpt>
      <trkpt lat="42.78211" lon="1.33738">
        <ele>1079.7002</ele>
        <time>2025-09-13T20:41:18+02:00</time>
      </trkpt>
      <trkpt lat="42.78212" lon="1.33737">
        <ele>1079.7002</ele>
        <time>2025-09-13T20:41:19+02:00</time>
      </trkpt>
      <trkpt lat="42.78215" lon="1.33732">
        <ele>1082.4004</ele>
        <time>2025-09-13T20:41:23+02:00</time>
      </trkpt>
      <trkpt lat="42.78216" lon="1.33731">
        <ele>1082.4004</ele>
        <time>2025-09-13T20:41:24+02:00</time>
      </trkpt>
      <trkpt lat="42.78219" lon="1.33728">
        <ele>1080</ele>
        <time>2025-09-13T20:41:28+02:00</time>
      </trkpt>
      <trkpt lat="42.7822" lon="1.33727">
        <ele>1080</ele>
        <time>2025-09-13T20:41:29+02:00</time>
      </trkpt>
      <trkpt lat="42.78223" lon="1.33724">
        <ele>1080</ele>
        <time>2025-09-13T20:41:33+02:00</time>
      </trkpt>
      <trkpt lat="42.78224" lon="1.33724">
        <ele>1080.2998</ele>
        <time>2025-09-13T20:41:34+02:00</time>
      </trkpt>
      <trkpt lat="42.78229" lon="1.33723">
        <ele>1080.2998</ele>
        <time>2025-09-13T20:41:38+02:00</time>
      </trkpt>
      <trkpt lat="42.7823" lon="1.33723">
        <ele>1077.9004</ele>
        <time>2025-09-13T20:41:39+02:00</time>
      </trkpt>
      <trkpt lat="42.78233" lon="1.33721">
        <ele>1077.9004</ele>
        <time>2025-09-13T20:41:43+02:00</time>
      </trkpt>
      <trkpt lat="42.78234" lon="1.3372">
        <ele>1077.9004</ele>
        <time>2025-09-13T20:41:44+02:00</time>
      </trkpt>
      <trkpt lat="42.78237" lon="1.33717">
        <ele>1075.7002</ele>
        <time>2025-09-13T20:41:48+02:00</time>
      </trkpt>
      <trkpt lat="42.78237" lon="1.33717">
        <ele>1075.7002</ele>
        <time>2025-09-13T20:41:49+02:00</time>
      </trkpt>
      <trkpt lat="42.78239" lon="1.33713">
        <ele>1078.2998</ele>
        <time>2025-09-13T20:41:53+02:00</time>
      </trkpt>
      <trkpt lat="42.7824" lon="1.33713">
        <ele>1078.2998</ele>
        <time>2025-09-13T20:41:54+02:00</time>
      </trkpt>
      <trkpt lat="42.78244" lon="1.33712">
        <ele>1076.1006</ele>
        <time>2025-09-13T20:41:58+02:00</time>
      </trkpt>
      <trkpt lat="42.78245" lon="1.33712">
        <ele>1076.1006</ele>
        <time>2025-09-13T20:41:59+02:00</time>
      </trkpt>
      <trkpt lat="42.78248" lon="1.33712">
        <ele>1076.1006</ele>
        <time>2025-09-13T20:42:03+02:00</time>
      </trkpt>
      <trkpt lat="42.78248" lon="1.33711">
        <ele>1076.1006</ele>
        <time>2025-09-13T20:42:04+02:00</time>
      </trkpt>
      <trkpt lat="42.78244" lon="1.33711">
        <ele>1076.1006</ele>
        <time>2025-09-13T20:42:08+02:00</time>
      </trkpt>
      <trkpt lat="42.78244" lon="1.33712">
        <ele>1076.1006</ele>
        <time>2025-09-13T20:42:09+02:00</time>
      </trkpt>
      <trkpt lat="42.78244" lon="1.33712">
        <ele>1076.1006</ele>
        <time>2025-09-13T20:42:13+02:00</time>
      </trkpt>
      <trkpt lat="42.78244" lon="1.33712">
        <ele>1076.1006</ele>
        <time>2025-09-13T20:42:14+02:00</time>
      </trkpt>
      <trkpt lat="42.78244" lon="1.33712">
        <ele>1076.1006</ele>
        <time>2025-09-13T20:42:18+02:00</time>
      </trkpt>
      <trkpt lat="42.78244" lon="1.33712">
        <ele>1076.1006</ele>
        <time>2025-09-13T20:42:19+02:00</time>
      </trkpt>
      <trkpt lat="42.7824" lon="1.33713">
        <ele>1078.2998</ele>
        <time>2025-09-13T20:42:23+02:00</time>
      </trkpt>
      <trkpt lat="42.7824" lon="1.33713">
        <ele>1078.2998</ele>
        <time>2025-09-13T20:42:24+02:00</time>
      </trkpt>
      <trkpt lat="42.78239" lon="1.33713">
        <ele>1078.2998</ele>
        <time>2025-09-13T20:42:28+02:00</time>
      </trkpt>
      <trkpt lat="42.78239" lon="1.33714">
        <ele>1078.2998</ele>
        <time>2025-09-13T20:42:29+02:00</time>
      </trkpt>
      <trkpt lat="42.78239" lon="1.33715">
        <ele>1078.2998</ele>
        <time>2025-09-13T20:42:33+02:00</time>
      </trkpt>
      <trkpt lat="42.78239" lon="1.33716">
        <ele>1075.7002</ele>
        <time>2025-09-13T20:42:34+02:00</time>
      </trkpt>
      <trkpt lat="42.78236" lon="1.33723">
        <ele>1075.7002</ele>
        <time>2025-09-13T20:42:38+02:00</time>
      </trkpt>
      <trkpt lat="42.78236" lon="1.33724">
        <ele>1077.9004</ele>
        <time>2025-09-13T20:42:39+02:00</time>
      </trkpt>
      <trkpt lat="42.78236" lon="1.33724">
        <ele>1077.9004</ele>
        <time>2025-09-13T20:42:43+02:00</time>
      </trkpt>
      <trkpt lat="42.78236" lon="1.33724">
        <ele>1077.9004</ele>
        <time>2025-09-13T20:42:44+02:00</time>
      </trkpt>
      <trkpt lat="42.78236" lon="1.33724">
        <ele>1077.9004</ele>
        <time>2025-09-13T20:42:48+02:00</time>
      </trkpt>
      <trkpt lat="42.78236" lon="1.33724">
        <ele>1075.7002</ele>
        <time>2025-09-13T20:42:49+02:00</time>
      </trkpt>
      <trkpt lat="42.78236" lon="1.33724">
        <ele>1075.7002</ele>
        <time>2025-09-13T20:42:53+02:00</time>
      </trkpt>
      <trkpt lat="42.78236" lon="1.33724">
        <ele>1075.7002</ele>
        <time>2025-09-13T20:42:54+02:00</time>
      </trkpt>
      <trkpt lat="42.78236" lon="1.33724">
        <ele>1075.7002</ele>
        <time>2025-09-13T20:42:58+02:00</time>
      </trkpt>
      <trkpt lat="42.78236" lon="1.33724">
        <ele>1075.7002</ele>
        <time>2025-09-13T20:42:59+02:00</time>
      </trkpt>
      <trkpt lat="42.78236" lon="1.33724">
        <ele>1077.9004</ele>
        <time>2025-09-13T20:43:03+02:00</time>
      </trkpt>
      <trkpt lat="42.78236" lon="1.33724">
        <ele>1077.9004</ele>
        <time>2025-09-13T20:43:04+02:00</time>
      </trkpt>
      <trkpt lat="42.78236" lon="1.33724">
        <ele>1077.9004</ele>
        <time>2025-09-13T20:43:08+02:00</time>
      </trkpt>
      <trkpt lat="42.78236" lon="1.33724">
        <ele>1077.9004</ele>
        <time>2025-09-13T20:43:09+02:00</time>
      </trkpt>
      <trkpt lat="42.78236" lon="1.33724">
        <ele>1077.9004</ele>
        <time>2025-09-13T20:43:13+02:00</time>
      </trkpt>
      <trkpt lat="42.78236" lon="1.33724">
        <ele>1077.9004</ele>
        <time>2025-09-13T20:43:14+02:00</time>
      </trkpt>
      <trkpt lat="42.78236" lon="1.33724">
        <ele>1077.9004</ele>
        <time>2025-09-13T20:43:18+02:00</time>
      </trkpt>
      <trkpt lat="42.78236" lon="1.33724">
        <ele>1077.9004</ele>
        <time>2025-09-13T20:43:19+02:00</time>
      </trkpt>
      <trkpt lat="42.78236" lon="1.33724">
        <ele>1077.9004</ele>
        <time>2025-09-13T20:43:23+02:00</time>
      </trkpt>
      <trkpt lat="42.78236" lon="1.33724">
        <ele>1077.9004</ele>
        <time>2025-09-13T20:43:24+02:00</time>
      </trkpt>
      <trkpt lat="42.78236" lon="1.33725">
        <ele>1075.2998</ele>
        <time>2025-09-13T20:43:28+02:00</time>
      </trkpt>
      <trkpt lat="42.78236" lon="1.33725">
        <ele>1075.2998</ele>
        <time>2025-09-13T20:43:29+02:00</time>
      </trkpt>
      <trkpt lat="42.78233" lon="1.33731">
        <ele>1075.2998</ele>
        <time>2025-09-13T20:43:33+02:00</time>
      </trkpt>
      <trkpt lat="42.78233" lon="1.33732">
        <ele>1075.2998</ele>
        <time>2025-09-13T20:43:34+02:00</time>
      </trkpt>
      <trkpt lat="42.78229" lon="1.33735">
        <ele>1075</ele>
        <time>2025-09-13T20:43:38+02:00</time>
      </trkpt>
      <trkpt lat="42.78229" lon="1.33736">
        <ele>1075</ele>
        <time>2025-09-13T20:43:39+02:00</time>
      </trkpt>
      <trkpt lat="42.78225" lon="1.33739">
        <ele>1075</ele>
        <time>2025-09-13T20:43:43+02:00</time>
      </trkpt>
      <trkpt lat="42.78224" lon="1.33739">
        <ele>1075</ele>
        <time>2025-09-13T20:43:44+02:00</time>
      </trkpt>
      <trkpt lat="42.78222" lon="1.33743">
        <ele>1074.7002</ele>
        <time>2025-09-13T20:43:48+02:00</time>
      </trkpt>
      <trkpt lat="42.78221" lon="1.33744">
        <ele>1074.7002</ele>
        <time>2025-09-13T20:43:49+02:00</time>
      </trkpt>
      <trkpt lat="42.78223" lon="1.33747">
        <ele>1074.7002</ele>
        <time>2025-09-13T20:43:53+02:00</time>
      </trkpt>
      <trkpt lat="42.78223" lon="1.33746">
        <ele>1074.7002</ele>
        <time>2025-09-13T20:43:54+02:00</time>
      </trkpt>
      <trkpt lat="42.78225" lon="1.33746">
        <ele>1072.5</ele>
        <time>2025-09-13T20:43:58+02:00</time>
      </trkpt>
      <trkpt lat="42.78225" lon="1.33746">
        <ele>1072.5</ele>
        <time>2025-09-13T20:43:59+02:00</time>
      </trkpt>
      <trkpt lat="42.78227" lon="1.33746">
        <ele>1072.5</ele>
        <time>2025-09-13T20:44:03+02:00</time>
      </trkpt>
      <trkpt lat="42.78227" lon="1.33747">
        <ele>1072.5</ele>
        <time>2025-09-13T20:44:04+02:00</time>
      </trkpt>
      <trkpt lat="42.78228" lon="1.33747">
        <ele>1072.5</ele>
        <time>2025-09-13T20:44:08+02:00</time>
      </trkpt>
      <trkpt lat="42.78228" lon="1.33747">
        <ele>1072.5</ele>
        <time>2025-09-13T20:44:09+02:00</time>
      </trkpt>
      <trkpt lat="42.78228" lon="1.33747">
        <ele>1072.5</ele>
        <time>2025-09-13T20:44:13+02:00</time>
      </trkpt>
      <trkpt lat="42.78228" lon="1.33747">
        <ele>1072.5</ele>
        <time>2025-09-13T20:44:14+02:00</time>
      </trkpt>
      <trkpt lat="42.7823" lon="1.33747">
        <ele>1070.2998</ele>
        <time>2025-09-13T20:44:18+02:00</time>
      </trkpt>
      <trkpt lat="42.78231" lon="1.33747">
        <ele>1070.2998</ele>
        <time>2025-09-13T20:44:19+02:00</time>
      </trkpt>
      <trkpt lat="42.78234" lon="1.33748">
        <ele>1070.2998</ele>
        <time>2025-09-13T20:44:23+02:00</time>
      </trkpt>
      <trkpt lat="42.78235" lon="1.33749">
        <ele>1070.2998</ele>
        <time>2025-09-13T20:44:24+02:00</time>
      </trkpt>
      <trkpt lat="42.78239" lon="1.33749">
        <ele>1068.2002</ele>
        <time>2025-09-13T20:44:28+02:00</time>
      </trkpt>
      <trkpt lat="42.7824" lon="1.33748">
        <ele>1068.2002</ele>
        <time>2025-09-13T20:44:29+02:00</time>
      </trkpt>
      <trkpt lat="42.78243" lon="1.33745">
        <ele>1066.2002</ele>
        <time>2025-09-13T20:44:33+02:00</time>
      </trkpt>
      <trkpt lat="42.78243" lon="1.33745">
        <ele>1066.2002</ele>
        <time>2025-09-13T20:44:34+02:00</time>
      </trkpt>
      <trkpt lat="42.78247" lon="1.33742">
        <ele>1066.2002</ele>
        <time>2025-09-13T20:44:38+02:00</time>
      </trkpt>
      <trkpt lat="42.78248" lon="1.33742">
        <ele>1066.2002</ele>
        <time>2025-09-13T20:44:39+02:00</time>
      </trkpt>
      <trkpt lat="42.78251" lon="1.33739">
        <ele>1066.5</ele>
        <time>2025-09-13T20:44:43+02:00</time>
      </trkpt>
      <trkpt lat="42.78252" lon="1.33739">
        <ele>1066.5</ele>
        <time>2025-09-13T20:44:44+02:00</time>
      </trkpt>
      <trkpt lat="42.78255" lon="1.33736">
        <ele>1066.5</ele>
        <time>2025-09-13T20:44:48+02:00</time>
      </trkpt>
      <trkpt lat="42.78255" lon="1.33736">
        <ele>1066.5</ele>
        <time>2025-09-13T20:44:49+02:00</time>
      </trkpt>
      <trkpt lat="42.78258" lon="1.33734">
        <ele>1064.5</ele>
        <time>2025-09-13T20:44:53+02:00</time>
      </trkpt>
      <trkpt lat="42.78259" lon="1.33733">
        <ele>1064.5</ele>
        <time>2025-09-13T20:44:54+02:00</time>
      </trkpt>
      <trkpt lat="42.78262" lon="1.33733">
        <ele>1064.6006</ele>
        <time>2025-09-13T20:44:58+02:00</time>
      </trkpt>
      <trkpt lat="42.78263" lon="1.33732">
        <ele>1064.6006</ele>
        <time>2025-09-13T20:44:59+02:00</time>
      </trkpt>
      <trkpt lat="42.78267" lon="1.33732">
        <ele>1064.6006</ele>
        <time>2025-09-13T20:45:03+02:00</time>
      </trkpt>
      <trkpt lat="42.78267" lon="1.33731">
        <ele>1064.6006</ele>
        <time>2025-09-13T20:45:04+02:00</time>
      </trkpt>
      <trkpt lat="42.7827" lon="1.3373">
        <ele>1062.5</ele>
        <time>2025-09-13T20:45:08+02:00</time>
      </trkpt>
      <trkpt lat="42.78271" lon="1.33729">
        <ele>1062.5</ele>
        <time>2025-09-13T20:45:09+02:00</time>
      </trkpt>
      <trkpt lat="42.78273" lon="1.33728">
        <ele>1062.5</ele>
        <time>2025-09-13T20:45:13+02:00</time>
      </trkpt>
      <trkpt lat="42.78273" lon="1.33728">
        <ele>1062.5</ele>
        <time>2025-09-13T20:45:14+02:00</time>
      </trkpt>
      <trkpt lat="42.78275" lon="1.33726">
        <ele>1060.2998</ele>
        <time>2025-09-13T20:45:18+02:00</time>
      </trkpt>
      <trkpt lat="42.78275" lon="1.33726">
        <ele>1060.2998</ele>
        <time>2025-09-13T20:45:19+02:00</time>
      </trkpt>
      <trkpt lat="42.78277" lon="1.33724">
        <ele>1060.2998</ele>
        <time>2025-09-13T20:45:23+02:00</time>
      </trkpt>
      <trkpt lat="42.78277" lon="1.33724">
        <ele>1062.5</ele>
        <time>2025-09-13T20:45:24+02:00</time>
      </trkpt>
      <trkpt lat="42.78279" lon="1.33725">
        <ele>1060.2998</ele>
        <time>2025-09-13T20:45:28+02:00</time>
      </trkpt>
      <trkpt lat="42.78279" lon="1.33726">
        <ele>1060.2998</ele>
        <time>2025-09-13T20:45:29+02:00</time>
      </trkpt>
      <trkpt lat="42.7828" lon="1.3373">
        <ele>1060.2998</ele>
        <time>2025-09-13T20:45:33+02:00</time>
      </trkpt>
      <trkpt lat="42.78279" lon="1.33731">
        <ele>1060.2998</ele>
        <time>2025-09-13T20:45:34+02:00</time>
      </trkpt>
      <trkpt lat="42.78278" lon="1.33732">
        <ele>1060.2998</ele>
        <time>2025-09-13T20:45:38+02:00</time>
      </trkpt>
      <trkpt lat="42.78278" lon="1.33732">
        <ele>1060.2998</ele>
        <time>2025-09-13T20:45:39+02:00</time>
      </trkpt>
      <trkpt lat="42.78275" lon="1.33734">
        <ele>1058</ele>
        <time>2025-09-13T20:45:43+02:00</time>
      </trkpt>
      <trkpt lat="42.78274" lon="1.33735">
        <ele>1060.2002</ele>
        <time>2025-09-13T20:45:44+02:00</time>
      </trkpt>
      <trkpt lat="42.7827" lon="1.33739">
        <ele>1060.2002</ele>
        <time>2025-09-13T20:45:48+02:00</time>
      </trkpt>
      <trkpt lat="42.78269" lon="1.3374">
        <ele>1060.2002</ele>
        <time>2025-09-13T20:45:49+02:00</time>
      </trkpt>
      <trkpt lat="42.78265" lon="1.33745">
        <ele>1060.2002</ele>
        <time>2025-09-13T20:45:53+02:00</time>
      </trkpt>
      <trkpt lat="42.78265" lon="1.33746">
        <ele>1060.2002</ele>
        <time>2025-09-13T20:45:54+02:00</time>
      </trkpt>
      <trkpt lat="42.78262" lon="1.3375">
        <ele>1058</ele>
        <time>2025-09-13T20:45:58+02:00</time>
      </trkpt>
      <trkpt lat="42.78261" lon="1.33751">
        <ele>1060</ele>
        <time>2025-09-13T20:45:59+02:00</time>
      </trkpt>
      <trkpt lat="42.78258" lon="1.33755">
        <ele>1060</ele>
        <time>2025-09-13T20:46:03+02:00</time>
      </trkpt>
      <trkpt lat="42.78257" lon="1.33755">
        <ele>1060</ele>
        <time>2025-09-13T20:46:04+02:00</time>
      </trkpt>
      <trkpt lat="42.78254" lon="1.33757">
        <ele>1062</ele>
        <time>2025-09-13T20:46:08+02:00</time>
      </trkpt>
      <trkpt lat="42.78253" lon="1.33757">
        <ele>1062</ele>
        <time>2025-09-13T20:46:09+02:00</time>
      </trkpt>
      <trkpt lat="42.78252" lon="1.3376">
        <ele>1059.7998</ele>
        <time>2025-09-13T20:46:13+02:00</time>
      </trkpt>
      <trkpt lat="42.78253" lon="1.33761">
        <ele>1059.7998</ele>
        <time>2025-09-13T20:46:14+02:00</time>
      </trkpt>
      <trkpt lat="42.78256" lon="1.33761">
        <ele>1057.7998</ele>
        <time>2025-09-13T20:46:18+02:00</time>
      </trkpt>
      <trkpt lat="42.78257" lon="1.33761">
        <ele>1057.7998</ele>
        <time>2025-09-13T20:46:19+02:00</time>
      </trkpt>
      <trkpt lat="42.78262" lon="1.33757">
        <ele>1058</ele>
        <time>2025-09-13T20:46:23+02:00</time>
      </trkpt>
      <trkpt lat="42.78263" lon="1.33757">
        <ele>1058</ele>
        <time>2025-09-13T20:46:24+02:00</time>
      </trkpt>
      <trkpt lat="42.78266" lon="1.33752">
        <ele>1058</ele>
        <time>2025-09-13T20:46:28+02:00</time>
      </trkpt>
      <trkpt lat="42.78267" lon="1.33751">
        <ele>1058</ele>
        <time>2025-09-13T20:46:29+02:00</time>
      </trkpt>
      <trkpt lat="42.78271" lon="1.33748">
        <ele>1058</ele>
        <time>2025-09-13T20:46:33+02:00</time>
      </trkpt>
      <trkpt lat="42.78272" lon="1.33747">
        <ele>1058</ele>
        <time>2025-09-13T20:46:34+02:00</time>
      </trkpt>
      <trkpt lat="42.78275" lon="1.33743">
        <ele>1055.7998</ele>
        <time>2025-09-13T20:46:38+02:00</time>
      </trkpt>
      <trkpt lat="42.78275" lon="1.33742">
        <ele>1055.7998</ele>
        <time>2025-09-13T20:46:39+02:00</time>
      </trkpt>
      <trkpt lat="42.78277" lon="1.33737">
        <ele>1058</ele>
        <time>2025-09-13T20:46:43+02:00</time>
      </trkpt>
      <trkpt lat="42.78277" lon="1.33736">
        <ele>1058</ele>
        <time>2025-09-13T20:46:44+02:00</time>
      </trkpt>
      <trkpt lat="42.78279" lon="1.33732">
        <ele>1060.2998</ele>
        <time>2025-09-13T20:46:48+02:00</time>
      </trkpt>
      <trkpt lat="42.7828" lon="1.33731">
        <ele>1060.2998</ele>
        <time>2025-09-13T20:46:49+02:00</time>
      </trkpt>
      <trkpt lat="42.78282" lon="1.33728">
        <ele>1058</ele>
        <time>2025-09-13T20:46:53+02:00</time>
      </trkpt>
      <trkpt lat="42.78282" lon="1.33727">
        <ele>1058</ele>
        <time>2025-09-13T20:46:54+02:00</time>
      </trkpt>
      <trkpt lat="42.78285" lon="1.33726">
        <ele>1058</ele>
        <time>2025-09-13T20:46:58+02:00</time>
      </trkpt>
      <trkpt lat="42.78285" lon="1.33725">
        <ele>1058</ele>
        <time>2025-09-13T20:46:59+02:00</time>
      </trkpt>
      <trkpt lat="42.78286" lon="1.33725">
        <ele>1058</ele>
        <time>2025-09-13T20:47:03+02:00</time>
      </trkpt>
      <trkpt lat="42.78287" lon="1.33725">
        <ele>1055.6006</ele>
        <time>2025-09-13T20:47:04+02:00</time>
      </trkpt>
      <trkpt lat="42.78287" lon="1.33724">
        <ele>1057.9004</ele>
        <time>2025-09-13T20:47:08+02:00</time>
      </trkpt>
      <trkpt lat="42.78288" lon="1.33724">
        <ele>1057.9004</ele>
        <time>2025-09-13T20:47:09+02:00</time>
      </trkpt>
      <trkpt lat="42.78289" lon="1.33723">
        <ele>1057.9004</ele>
        <time>2025-09-13T20:47:13+02:00</time>
      </trkpt>
      <trkpt lat="42.7829" lon="1.33723">
        <ele>1057.9004</ele>
        <time>2025-09-13T20:47:14+02:00</time>
      </trkpt>
      <trkpt lat="42.78293" lon="1.33727">
        <ele>1055.6006</ele>
        <time>2025-09-13T20:47:18+02:00</time>
      </trkpt>
      <trkpt lat="42.78292" lon="1.33727">
        <ele>1055.6006</ele>
        <time>2025-09-13T20:47:19+02:00</time>
      </trkpt>
      <trkpt lat="42.78292" lon="1.33728">
        <ele>1055.6006</ele>
        <time>2025-09-13T20:47:23+02:00</time>
      </trkpt>
      <trkpt lat="42.78292" lon="1.33729">
        <ele>1055.6006</ele>
        <time>2025-09-13T20:47:24+02:00</time>
      </trkpt>
      <trkpt lat="42.78291" lon="1.33736">
        <ele>1053.2002</ele>
        <time>2025-09-13T20:47:28+02:00</time>
      </trkpt>
      <trkpt lat="42.78291" lon="1.33738">
        <ele>1053.2002</ele>
        <time>2025-09-13T20:47:29+02:00</time>
      </trkpt>
      <trkpt lat="42.78288" lon="1.33744">
        <ele>1050.9004</ele>
        <time>2025-09-13T20:47:33+02:00</time>
      </trkpt>
      <trkpt lat="42.78287" lon="1.33745">
        <ele>1050.9004</ele>
        <time>2025-09-13T20:47:34+02:00</time>
      </trkpt>
      <trkpt lat="42.78284" lon="1.33751">
        <ele>1051.2002</ele>
        <time>2025-09-13T20:47:38+02:00</time>
      </trkpt>
      <trkpt lat="42.78284" lon="1.33753">
        <ele>1051.2002</ele>
        <time>2025-09-13T20:47:39+02:00</time>
      </trkpt>
      <trkpt lat="42.7828" lon="1.33757">
        <ele>1051.2002</ele>
        <time>2025-09-13T20:47:43+02:00</time>
      </trkpt>
      <trkpt lat="42.7828" lon="1.33758">
        <ele>1053.5</ele>
        <time>2025-09-13T20:47:44+02:00</time>
      </trkpt>
      <trkpt lat="42.78278" lon="1.33761">
        <ele>1051.2998</ele>
        <time>2025-09-13T20:47:48+02:00</time>
      </trkpt>
      <trkpt lat="42.78278" lon="1.33762">
        <ele>1051.2998</ele>
        <time>2025-09-13T20:47:49+02:00</time>
      </trkpt>
      <trkpt lat="42.78275" lon="1.33766">
        <ele>1051.2998</ele>
        <time>2025-09-13T20:47:53+02:00</time>
      </trkpt>
      <trkpt lat="42.78275" lon="1.33767">
        <ele>1051.2998</ele>
        <time>2025-09-13T20:47:54+02:00</time>
      </trkpt>
      <trkpt lat="42.78272" lon="1.33771">
        <ele>1051.4004</ele>
        <time>2025-09-13T20:47:58+02:00</time>
      </trkpt>
      <trkpt lat="42.78272" lon="1.33772">
        <ele>1051.4004</ele>
        <time>2025-09-13T20:47:59+02:00</time>
      </trkpt>
      <trkpt lat="42.7827" lon="1.33773">
        <ele>1051.4004</ele>
        <time>2025-09-13T20:48:03+02:00</time>
      </trkpt>
      <trkpt lat="42.78269" lon="1.33774">
        <ele>1051.4004</ele>
        <time>2025-09-13T20:48:04+02:00</time>
      </trkpt>
      <trkpt lat="42.78268" lon="1.33774">
        <ele>1051.4004</ele>
        <time>2025-09-13T20:48:08+02:00</time>
      </trkpt>
      <trkpt lat="42.78268" lon="1.33774">
        <ele>1051.4004</ele>
        <time>2025-09-13T20:48:09+02:00</time>
      </trkpt>
      <trkpt lat="42.78269" lon="1.33774">
        <ele>1051.4004</ele>
        <time>2025-09-13T20:48:13+02:00</time>
      </trkpt>
      <trkpt lat="42.78269" lon="1.33774">
        <ele>1051.4004</ele>
        <time>2025-09-13T20:48:14+02:00</time>
      </trkpt>
      <trkpt lat="42.78269" lon="1.33776">
        <ele>1049.2998</ele>
        <time>2025-09-13T20:48:18+02:00</time>
      </trkpt>
      <trkpt lat="42.7827" lon="1.33777">
        <ele>1049.2998</ele>
        <time>2025-09-13T20:48:19+02:00</time>
      </trkpt>
      <trkpt lat="42.78273" lon="1.33777">
        <ele>1049.2998</ele>
        <time>2025-09-13T20:48:23+02:00</time>
      </trkpt>
      <trkpt lat="42.78274" lon="1.33777">
        <ele>1049.2998</ele>
        <time>2025-09-13T20:48:24+02:00</time>
      </trkpt>
      <trkpt lat="42.78277" lon="1.33774">
        <ele>1049.2002</ele>
        <time>2025-09-13T20:48:28+02:00</time>
      </trkpt>
      <trkpt lat="42.78278" lon="1.33774">
        <ele>1049.2002</ele>
        <time>2025-09-13T20:48:29+02:00</time>
      </trkpt>
      <trkpt lat="42.78279" lon="1.33778">
        <ele>1047</ele>
        <time>2025-09-13T20:48:33+02:00</time>
      </trkpt>
      <trkpt lat="42.78279" lon="1.33779">
        <ele>1047</ele>
        <time>2025-09-13T20:48:34+02:00</time>
      </trkpt>
      <trkpt lat="42.7828" lon="1.33782">
        <ele>1047</ele>
        <time>2025-09-13T20:48:38+02:00</time>
      </trkpt>
      <trkpt lat="42.7828" lon="1.33783">
        <ele>1047</ele>
        <time>2025-09-13T20:48:39+02:00</time>
      </trkpt>
      <trkpt lat="42.78282" lon="1.33784">
        <ele>1044.6006</ele>
        <time>2025-09-13T20:48:43+02:00</time>
      </trkpt>
      <trkpt lat="42.78282" lon="1.33784">
        <ele>1044.6006</ele>
        <time>2025-09-13T20:48:44+02:00</time>
      </trkpt>
      <trkpt lat="42.78284" lon="1.33783">
        <ele>1044.6006</ele>
        <time>2025-09-13T20:48:48+02:00</time>
      </trkpt>
      <trkpt lat="42.78284" lon="1.33782">
        <ele>1044.6006</ele>
        <time>2025-09-13T20:48:49+02:00</time>
      </trkpt>
      <trkpt lat="42.78286" lon="1.3378">
        <ele>1044.6006</ele>
        <time>2025-09-13T20:48:53+02:00</time>
      </trkpt>
      <trkpt lat="42.78286" lon="1.33779">
        <ele>1044.6006</ele>
        <time>2025-09-13T20:48:54+02:00</time>
      </trkpt>
      <trkpt lat="42.7829" lon="1.33776">
        <ele>1042.1006</ele>
        <time>2025-09-13T20:48:58+02:00</time>
      </trkpt>
      <trkpt lat="42.78291" lon="1.33775">
        <ele>1044.2998</ele>
        <time>2025-09-13T20:48:59+02:00</time>
      </trkpt>
      <trkpt lat="42.78294" lon="1.33771">
        <ele>1041.7002</ele>
        <time>2025-09-13T20:49:03+02:00</time>
      </trkpt>
      <trkpt lat="42.78295" lon="1.3377">
        <ele>1041.7002</ele>
        <time>2025-09-13T20:49:04+02:00</time>
      </trkpt>
      <trkpt lat="42.78298" lon="1.33766">
        <ele>1043.9004</ele>
        <time>2025-09-13T20:49:08+02:00</time>
      </trkpt>
      <trkpt lat="42.78298" lon="1.33765">
        <ele>1043.9004</ele>
        <time>2025-09-13T20:49:09+02:00</time>
      </trkpt>
      <trkpt lat="42.783" lon="1.33761">
        <ele>1041.2998</ele>
        <time>2025-09-13T20:49:13+02:00</time>
      </trkpt>
      <trkpt lat="42.78301" lon="1.3376">
        <ele>1041.2998</ele>
        <time>2025-09-13T20:49:14+02:00</time>
      </trkpt>
      <trkpt lat="42.78303" lon="1.33756">
        <ele>1043.5</ele>
        <time>2025-09-13T20:49:18+02:00</time>
      </trkpt>
      <trkpt lat="42.78304" lon="1.33755">
        <ele>1043.5</ele>
        <time>2025-09-13T20:49:19+02:00</time>
      </trkpt>
      <trkpt lat="42.78306" lon="1.33759">
        <ele>1038.6006</ele>
        <time>2025-09-13T20:49:23+02:00</time>
      </trkpt>
      <trkpt lat="42.78305" lon="1.33761">
        <ele>1041.2998</ele>
        <time>2025-09-13T20:49:24+02:00</time>
      </trkpt>
      <trkpt lat="42.78304" lon="1.33767">
        <ele>1039.1006</ele>
        <time>2025-09-13T20:49:28+02:00</time>
      </trkpt>
      <trkpt lat="42.78303" lon="1.33768">
        <ele>1039.1006</ele>
        <time>2025-09-13T20:49:29+02:00</time>
      </trkpt>
      <trkpt lat="42.783" lon="1.33773">
        <ele>1039.1006</ele>
        <time>2025-09-13T20:49:33+02:00</time>
      </trkpt>
      <trkpt lat="42.783" lon="1.33774">
        <ele>1039.1006</ele>
        <time>2025-09-13T20:49:34+02:00</time>
      </trkpt>
      <trkpt lat="42.78297" lon="1.33778">
        <ele>1039.6006</ele>
        <time>2025-09-13T20:49:38+02:00</time>
      </trkpt>
      <trkpt lat="42.78296" lon="1.33778">
        <ele>1039.6006</ele>
        <time>2025-09-13T20:49:39+02:00</time>
      </trkpt>
      <trkpt lat="42.78293" lon="1.3378">
        <ele>1042.1006</ele>
        <time>2025-09-13T20:49:43+02:00</time>
      </trkpt>
      <trkpt lat="42.78292" lon="1.33781">
        <ele>1042.1006</ele>
        <time>2025-09-13T20:49:44+02:00</time>
      </trkpt>
      <trkpt lat="42.78289" lon="1.33783">
        <ele>1042.1006</ele>
        <time>2025-09-13T20:49:48+02:00</time>
      </trkpt>
      <trkpt lat="42.78289" lon="1.33784">
        <ele>1042.1006</ele>
        <time>2025-09-13T20:49:49+02:00</time>
      </trkpt>
      <trkpt lat="42.78286" lon="1.33787">
        <ele>1042.5</ele>
        <time>2025-09-13T20:49:53+02:00</time>
      </trkpt>
      <trkpt lat="42.78286" lon="1.33788">
        <ele>1042.5</ele>
        <time>2025-09-13T20:49:54+02:00</time>
      </trkpt>
      <trkpt lat="42.78284" lon="1.33791">
        <ele>1042.5</ele>
        <time>2025-09-13T20:49:58+02:00</time>
      </trkpt>
      <trkpt lat="42.78284" lon="1.33792">
        <ele>1042.5</ele>
        <time>2025-09-13T20:49:59+02:00</time>
      </trkpt>
      <trkpt lat="42.78283" lon="1.33795">
        <ele>1040.5</ele>
        <time>2025-09-13T20:50:03+02:00</time>
      </trkpt>
      <trkpt lat="42.78283" lon="1.33796">
        <ele>1040.5</ele>
        <time>2025-09-13T20:50:04+02:00</time>
      </trkpt>
      <trkpt lat="42.78281" lon="1.338">
        <ele>1040.5</ele>
        <time>2025-09-13T20:50:08+02:00</time>
      </trkpt>
      <trkpt lat="42.78281" lon="1.338">
        <ele>1040.5</ele>
        <time>2025-09-13T20:50:09+02:00</time>
      </trkpt>
      <trkpt lat="42.7828" lon="1.33804">
        <ele>1041</ele>
        <time>2025-09-13T20:50:13+02:00</time>
      </trkpt>
      <trkpt lat="42.7828" lon="1.33805">
        <ele>1041</ele>
        <time>2025-09-13T20:50:14+02:00</time>
      </trkpt>
      <trkpt lat="42.78281" lon="1.33808">
        <ele>1038.5</ele>
        <time>2025-09-13T20:50:18+02:00</time>
      </trkpt>
      <trkpt lat="42.78281" lon="1.3381">
        <ele>1038.5</ele>
        <time>2025-09-13T20:50:19+02:00</time>
      </trkpt>
      <trkpt lat="42.78282" lon="1.33812">
        <ele>1036.5</ele>
        <time>2025-09-13T20:50:23+02:00</time>
      </trkpt>
      <trkpt lat="42.78283" lon="1.33813">
        <ele>1036.5</ele>
        <time>2025-09-13T20:50:24+02:00</time>
      </trkpt>
      <trkpt lat="42.78284" lon="1.33816">
        <ele>1036.5</ele>
        <time>2025-09-13T20:50:28+02:00</time>
      </trkpt>
      <trkpt lat="42.78285" lon="1.33817">
        <ele>1036.5</ele>
        <time>2025-09-13T20:50:29+02:00</time>
      </trkpt>
      <trkpt lat="42.78288" lon="1.33819">
        <ele>1031.9004</ele>
        <time>2025-09-13T20:50:33+02:00</time>
      </trkpt>
      <trkpt lat="42.78289" lon="1.33819">
        <ele>1031.9004</ele>
        <time>2025-09-13T20:50:34+02:00</time>
      </trkpt>
      <trkpt lat="42.7829" lon="1.33819">
        <ele>1031.9004</ele>
        <time>2025-09-13T20:50:38+02:00</time>
      </trkpt>
      <trkpt lat="42.7829" lon="1.33819">
        <ele>1033.9004</ele>
        <time>2025-09-13T20:50:39+02:00</time>
      </trkpt>
      <trkpt lat="42.7829" lon="1.33817">
        <ele>1033.9004</ele>
        <time>2025-09-13T20:50:43+02:00</time>
      </trkpt>
      <trkpt lat="42.7829" lon="1.33817">
        <ele>1033.9004</ele>
        <time>2025-09-13T20:50:44+02:00</time>
      </trkpt>
      <trkpt lat="42.7829" lon="1.33816">
        <ele>1033.9004</ele>
        <time>2025-09-13T20:50:48+02:00</time>
      </trkpt>
      <trkpt lat="42.78291" lon="1.33816">
        <ele>1033.9004</ele>
        <time>2025-09-13T20:50:49+02:00</time>
      </trkpt>
      <trkpt lat="42.78294" lon="1.33812">
        <ele>1031.1006</ele>
        <time>2025-09-13T20:50:53+02:00</time>
      </trkpt>
      <trkpt lat="42.78294" lon="1.33811">
        <ele>1031.1006</ele>
        <time>2025-09-13T20:50:54+02:00</time>
      </trkpt>
      <trkpt lat="42.78295" lon="1.33807">
        <ele>1033.2002</ele>
        <time>2025-09-13T20:50:58+02:00</time>
      </trkpt>
      <trkpt lat="42.78296" lon="1.33805">
        <ele>1033.2002</ele>
        <time>2025-09-13T20:50:59+02:00</time>
      </trkpt>
      <trkpt lat="42.78299" lon="1.33807">
        <ele>1033.2002</ele>
        <time>2025-09-13T20:51:03+02:00</time>
      </trkpt>
      <trkpt lat="42.78299" lon="1.33807">
        <ele>1033.2002</ele>
        <time>2025-09-13T20:51:04+02:00</time>
      </trkpt>
      <trkpt lat="42.78299" lon="1.33807">
        <ele>1033.2002</ele>
        <time>2025-09-13T20:51:08+02:00</time>
      </trkpt>
      <trkpt lat="42.78299" lon="1.33807">
        <ele>1033.2002</ele>
        <time>2025-09-13T20:51:10+02:00</time>
      </trkpt>
      <trkpt lat="42.78299" lon="1.33807">
        <ele>1033.2002</ele>
        <time>2025-09-13T20:51:14+02:00</time>
      </trkpt>
      <trkpt lat="42.78299" lon="1.33807">
        <ele>1033.2002</ele>
        <time>2025-09-13T20:51:15+02:00</time>
      </trkpt>
      <trkpt lat="42.78299" lon="1.33807">
        <ele>1030.4004</ele>
        <time>2025-09-13T20:51:19+02:00</time>
      </trkpt>
      <trkpt lat="42.78299" lon="1.33807">
        <ele>1030.4004</ele>
        <time>2025-09-13T20:51:20+02:00</time>
      </trkpt>
      <trkpt lat="42.78299" lon="1.33807">
        <ele>1033.2002</ele>
        <time>2025-09-13T20:51:24+02:00</time>
      </trkpt>
      <trkpt lat="42.78299" lon="1.33807">
        <ele>1033.2002</ele>
        <time>2025-09-13T20:51:25+02:00</time>
      </trkpt>
      <trkpt lat="42.78298" lon="1.33805">
        <ele>1033.2002</ele>
        <time>2025-09-13T20:51:29+02:00</time>
      </trkpt>
      <trkpt lat="42.78296" lon="1.33803">
        <ele>1033.2002</ele>
        <time>2025-09-13T20:51:30+02:00</time>
      </trkpt>
      <trkpt lat="42.78293" lon="1.33801">
        <ele>1038</ele>
        <time>2025-09-13T20:51:34+02:00</time>
      </trkpt>
      <trkpt lat="42.78293" lon="1.33801">
        <ele>1035.2998</ele>
        <time>2025-09-13T20:51:35+02:00</time>
      </trkpt>
      <trkpt lat="42.78297" lon="1.33797">
        <ele>1035.2998</ele>
        <time>2025-09-13T20:51:39+02:00</time>
      </trkpt>
      <trkpt lat="42.78299" lon="1.33796">
        <ele>1035.2998</ele>
        <time>2025-09-13T20:51:40+02:00</time>
      </trkpt>
      <trkpt lat="42.78304" lon="1.33793">
        <ele>1032.6006</ele>
        <time>2025-09-13T20:51:44+02:00</time>
      </trkpt>
      <trkpt lat="42.78305" lon="1.33793">
        <ele>1034.7002</ele>
        <time>2025-09-13T20:51:45+02:00</time>
      </trkpt>
      <trkpt lat="42.78309" lon="1.33792">
        <ele>1032</ele>
        <time>2025-09-13T20:51:49+02:00</time>
      </trkpt>
      <trkpt lat="42.78311" lon="1.33792">
        <ele>1032</ele>
        <time>2025-09-13T20:51:50+02:00</time>
      </trkpt>
      <trkpt lat="42.78315" lon="1.33792">
        <ele>1029.1006</ele>
        <time>2025-09-13T20:51:54+02:00</time>
      </trkpt>
      <trkpt lat="42.78316" lon="1.33791">
        <ele>1029.1006</ele>
        <time>2025-09-13T20:51:55+02:00</time>
      </trkpt>
      <trkpt lat="42.78319" lon="1.33788">
        <ele>1026.2002</ele>
        <time>2025-09-13T20:51:59+02:00</time>
      </trkpt>
      <trkpt lat="42.7832" lon="1.33787">
        <ele>1026.2002</ele>
        <time>2025-09-13T20:52:00+02:00</time>
      </trkpt>
      <trkpt lat="42.78321" lon="1.33786">
        <ele>1026.2002</ele>
        <time>2025-09-13T20:52:04+02:00</time>
      </trkpt>
      <trkpt lat="42.78321" lon="1.33786">
        <ele>1026.2002</ele>
        <time>2025-09-13T20:52:05+02:00</time>
      </trkpt>
      <trkpt lat="42.78323" lon="1.33783">
        <ele>1028.6006</ele>
        <time>2025-09-13T20:52:09+02:00</time>
      </trkpt>
      <trkpt lat="42.78324" lon="1.33783">
        <ele>1028.6006</ele>
        <time>2025-09-13T20:52:10+02:00</time>
      </trkpt>
      <trkpt lat="42.78327" lon="1.3378">
        <ele>1025.7002</ele>
        <time>2025-09-13T20:52:14+02:00</time>
      </trkpt>
      <trkpt lat="42.78328" lon="1.3378">
        <ele>1025.7002</ele>
        <time>2025-09-13T20:52:15+02:00</time>
      </trkpt>
      <trkpt lat="42.78331" lon="1.33779">
        <ele>1022.7002</ele>
        <time>2025-09-13T20:52:19+02:00</time>
      </trkpt>
      <trkpt lat="42.78332" lon="1.33779">
        <ele>1022.7002</ele>
        <time>2025-09-13T20:52:20+02:00</time>
      </trkpt>
      <trkpt lat="42.7833" lon="1.33779">
        <ele>1025.7002</ele>
        <time>2025-09-13T20:52:24+02:00</time>
      </trkpt>
      <trkpt lat="42.7833" lon="1.33779">
        <ele>1025.7002</ele>
        <time>2025-09-13T20:52:25+02:00</time>
      </trkpt>
      <trkpt lat="42.7833" lon="1.3378">
        <ele>1025.7002</ele>
        <time>2025-09-13T20:52:29+02:00</time>
      </trkpt>
      <trkpt lat="42.7833" lon="1.3378">
        <ele>1025.7002</ele>
        <time>2025-09-13T20:52:30+02:00</time>
      </trkpt>
      <trkpt lat="42.7833" lon="1.33781">
        <ele>1025.7002</ele>
        <time>2025-09-13T20:52:34+02:00</time>
      </trkpt>
      <trkpt lat="42.7833" lon="1.33781">
        <ele>1025.7002</ele>
        <time>2025-09-13T20:52:35+02:00</time>
      </trkpt>
      <trkpt lat="42.7833" lon="1.33782">
        <ele>1025.7002</ele>
        <time>2025-09-13T20:52:39+02:00</time>
      </trkpt>
      <trkpt lat="42.7833" lon="1.33783">
        <ele>1025.7002</ele>
        <time>2025-09-13T20:52:40+02:00</time>
      </trkpt>
      <trkpt lat="42.7833" lon="1.33784">
        <ele>1025.7002</ele>
        <time>2025-09-13T20:52:44+02:00</time>
      </trkpt>
      <trkpt lat="42.7833" lon="1.33784">
        <ele>1025.7002</ele>
        <time>2025-09-13T20:52:45+02:00</time>
      </trkpt>
      <trkpt lat="42.7833" lon="1.33784">
        <ele>1025.7002</ele>
        <time>2025-09-13T20:52:49+02:00</time>
      </trkpt>
      <trkpt lat="42.7833" lon="1.33784">
        <ele>1025.7002</ele>
        <time>2025-09-13T20:52:50+02:00</time>
      </trkpt>
      <trkpt lat="42.7833" lon="1.33784">
        <ele>1025.7002</ele>
        <time>2025-09-13T20:52:54+02:00</time>
      </trkpt>
      <trkpt lat="42.7833" lon="1.33784">
        <ele>1025.7002</ele>
        <time>2025-09-13T20:52:55+02:00</time>
      </trkpt>
      <trkpt lat="42.7833" lon="1.33785">
        <ele>1023.2998</ele>
        <time>2025-09-13T20:52:59+02:00</time>
      </trkpt>
      <trkpt lat="42.78329" lon="1.33785">
        <ele>1023.2998</ele>
        <time>2025-09-13T20:53:00+02:00</time>
      </trkpt>
      <trkpt lat="42.78327" lon="1.3379">
        <ele>1023.2998</ele>
        <time>2025-09-13T20:53:04+02:00</time>
      </trkpt>
      <trkpt lat="42.78327" lon="1.33791">
        <ele>1023.2998</ele>
        <time>2025-09-13T20:53:05+02:00</time>
      </trkpt>
      <trkpt lat="42.78324" lon="1.33798">
        <ele>1023.7998</ele>
        <time>2025-09-13T20:53:09+02:00</time>
      </trkpt>
      <trkpt lat="42.78323" lon="1.338">
        <ele>1023.7998</ele>
        <time>2025-09-13T20:53:10+02:00</time>
      </trkpt>
      <trkpt lat="42.7832" lon="1.33805">
        <ele>1021.5</ele>
        <time>2025-09-13T20:53:14+02:00</time>
      </trkpt>
      <trkpt lat="42.78319" lon="1.33806">
        <ele>1021.5</ele>
        <time>2025-09-13T20:53:15+02:00</time>
      </trkpt>
      <trkpt lat="42.78318" lon="1.33807">
        <ele>1024.5</ele>
        <time>2025-09-13T20:53:19+02:00</time>
      </trkpt>
      <trkpt lat="42.78318" lon="1.33808">
        <ele>1024.5</ele>
        <time>2025-09-13T20:53:20+02:00</time>
      </trkpt>
      <trkpt lat="42.78322" lon="1.33807">
        <ele>1021.5</ele>
        <time>2025-09-13T20:53:24+02:00</time>
      </trkpt>
      <trkpt lat="42.78323" lon="1.33805">
        <ele>1021.5</ele>
        <time>2025-09-13T20:53:25+02:00</time>
      </trkpt>
      <trkpt lat="42.78327" lon="1.338">
        <ele>1020.7998</ele>
        <time>2025-09-13T20:53:29+02:00</time>
      </trkpt>
      <trkpt lat="42.78328" lon="1.33799">
        <ele>1020.7998</ele>
        <time>2025-09-13T20:53:30+02:00</time>
      </trkpt>
      <trkpt lat="42.7833" lon="1.33795">
        <ele>1020.7998</ele>
        <time>2025-09-13T20:53:34+02:00</time>
      </trkpt>
      <trkpt lat="42.78331" lon="1.33794">
        <ele>1020.7998</ele>
        <time>2025-09-13T20:53:35+02:00</time>
      </trkpt>
      <trkpt lat="42.78334" lon="1.33791">
        <ele>1020.2002</ele>
        <time>2025-09-13T20:53:39+02:00</time>
      </trkpt>
      <trkpt lat="42.78335" lon="1.33791">
        <ele>1020.2002</ele>
        <time>2025-09-13T20:53:40+02:00</time>
      </trkpt>
      <trkpt lat="42.78338" lon="1.3379">
        <ele>1017.1006</ele>
        <time>2025-09-13T20:53:44+02:00</time>
      </trkpt>
      <trkpt lat="42.78339" lon="1.3379">
        <ele>1017.1006</ele>
        <time>2025-09-13T20:53:45+02:00</time>
      </trkpt>
      <trkpt lat="42.78341" lon="1.33789">
        <ele>1017.1006</ele>
        <time>2025-09-13T20:53:49+02:00</time>
      </trkpt>
      <trkpt lat="42.78342" lon="1.33789">
        <ele>1017.1006</ele>
        <time>2025-09-13T20:53:50+02:00</time>
      </trkpt>
      <trkpt lat="42.78344" lon="1.33789">
        <ele>1013.9004</ele>
        <time>2025-09-13T20:53:54+02:00</time>
      </trkpt>
      <trkpt lat="42.78345" lon="1.3379">
        <ele>1013.9004</ele>
        <time>2025-09-13T20:53:55+02:00</time>
      </trkpt>
      <trkpt lat="42.78346" lon="1.33791">
        <ele>1013.9004</ele>
        <time>2025-09-13T20:53:59+02:00</time>
      </trkpt>
      <trkpt lat="42.78346" lon="1.33791">
        <ele>1013.9004</ele>
        <time>2025-09-13T20:54:00+02:00</time>
      </trkpt>
      <trkpt lat="42.78346" lon="1.33791">
        <ele>1013.9004</ele>
        <time>2025-09-13T20:54:04+02:00</time>
      </trkpt>
      <trkpt lat="42.78345" lon="1.33792">
        <ele>1013.9004</ele>
        <time>2025-09-13T20:54:05+02:00</time>
      </trkpt>
      <trkpt lat="42.78342" lon="1.33794">
        <ele>1014.6006</ele>
        <time>2025-09-13T20:54:09+02:00</time>
      </trkpt>
      <trkpt lat="42.78341" lon="1.33794">
        <ele>1014.6006</ele>
        <time>2025-09-13T20:54:10+02:00</time>
      </trkpt>
      <trkpt lat="42.78337" lon="1.33797">
        <ele>1017.7002</ele>
        <time>2025-09-13T20:54:14+02:00</time>
      </trkpt>
      <trkpt lat="42.78336" lon="1.33799">
        <ele>1017.7002</ele>
        <time>2025-09-13T20:54:15+02:00</time>
      </trkpt>
      <trkpt lat="42.78337" lon="1.33801">
        <ele>1014.6006</ele>
        <time>2025-09-13T20:54:19+02:00</time>
      </trkpt>
      <trkpt lat="42.78338" lon="1.33802">
        <ele>1012</ele>
        <time>2025-09-13T20:54:20+02:00</time>
      </trkpt>
      <trkpt lat="42.78339" lon="1.33805">
        <ele>1012</ele>
        <time>2025-09-13T20:54:24+02:00</time>
      </trkpt>
      <trkpt lat="42.7834" lon="1.33807">
        <ele>1012</ele>
        <time>2025-09-13T20:54:25+02:00</time>
      </trkpt>
      <trkpt lat="42.78343" lon="1.33808">
        <ele>1012</ele>
        <time>2025-09-13T20:54:29+02:00</time>
      </trkpt>
      <trkpt lat="42.78344" lon="1.33808">
        <ele>1008.7998</ele>
        <time>2025-09-13T20:54:30+02:00</time>
      </trkpt>
      <trkpt lat="42.78346" lon="1.33805">
        <ele>1008.7998</ele>
        <time>2025-09-13T20:54:34+02:00</time>
      </trkpt>
      <trkpt lat="42.78346" lon="1.33804">
        <ele>1008.7998</ele>
        <time>2025-09-13T20:54:35+02:00</time>
      </trkpt>
      <trkpt lat="42.78346" lon="1.33801">
        <ele>1011.4004</ele>
        <time>2025-09-13T20:54:39+02:00</time>
      </trkpt>
      <trkpt lat="42.78346" lon="1.33801">
        <ele>1011.4004</ele>
        <time>2025-09-13T20:54:40+02:00</time>
      </trkpt>
      <trkpt lat="42.78347" lon="1.33798">
        <ele>1011.4004</ele>
        <time>2025-09-13T20:54:44+02:00</time>
      </trkpt>
      <trkpt lat="42.78347" lon="1.33797">
        <ele>1011.4004</ele>
        <time>2025-09-13T20:54:45+02:00</time>
      </trkpt>
      <trkpt lat="42.78348" lon="1.33795">
        <ele>1011.4004</ele>
        <time>2025-09-13T20:54:49+02:00</time>
      </trkpt>
      <trkpt lat="42.78348" lon="1.33794">
        <ele>1011.4004</ele>
        <time>2025-09-13T20:54:50+02:00</time>
      </trkpt>
      <trkpt lat="42.7835" lon="1.33793">
        <ele>1010.7998</ele>
        <time>2025-09-13T20:54:54+02:00</time>
      </trkpt>
      <trkpt lat="42.78351" lon="1.33793">
        <ele>1008.2002</ele>
        <time>2025-09-13T20:54:55+02:00</time>
      </trkpt>
      <trkpt lat="42.78352" lon="1.33798">
        <ele>1008.2002</ele>
        <time>2025-09-13T20:54:59+02:00</time>
      </trkpt>
      <trkpt lat="42.78352" lon="1.338">
        <ele>1008.2002</ele>
        <time>2025-09-13T20:55:00+02:00</time>
      </trkpt>
      <trkpt lat="42.78352" lon="1.33804">
        <ele>1005.5</ele>
        <time>2025-09-13T20:55:04+02:00</time>
      </trkpt>
      <trkpt lat="42.78352" lon="1.33805">
        <ele>1005.5</ele>
        <time>2025-09-13T20:55:05+02:00</time>
      </trkpt>
      <trkpt lat="42.78352" lon="1.33806">
        <ele>1005.5</ele>
        <time>2025-09-13T20:55:09+02:00</time>
      </trkpt>
      <trkpt lat="42.78351" lon="1.33806">
        <ele>1005.5</ele>
        <time>2025-09-13T20:55:10+02:00</time>
      </trkpt>
      <trkpt lat="42.78349" lon="1.33812">
        <ele>1006.1006</ele>
        <time>2025-09-13T20:55:14+02:00</time>
      </trkpt>
      <trkpt lat="42.78349" lon="1.33812">
        <ele>1006.1006</ele>
        <time>2025-09-13T20:55:15+02:00</time>
      </trkpt>
      <trkpt lat="42.78352" lon="1.33813">
        <ele>1002.7998</ele>
        <time>2025-09-13T20:55:19+02:00</time>
      </trkpt>
      <trkpt lat="42.78353" lon="1.33813">
        <ele>1002.7998</ele>
        <time>2025-09-13T20:55:20+02:00</time>
      </trkpt>
      <trkpt lat="42.78357" lon="1.3381">
        <ele>1002.2998</ele>
        <time>2025-09-13T20:55:24+02:00</time>
      </trkpt>
      <trkpt lat="42.78358" lon="1.33809">
        <ele>1002.2998</ele>
        <time>2025-09-13T20:55:25+02:00</time>
      </trkpt>
      <trkpt lat="42.78359" lon="1.33806">
        <ele>1002.2998</ele>
        <time>2025-09-13T20:55:29+02:00</time>
      </trkpt>
      <trkpt lat="42.78358" lon="1.33806">
        <ele>1002.2998</ele>
        <time>2025-09-13T20:55:30+02:00</time>
      </trkpt>
      <trkpt lat="42.78357" lon="1.33806">
        <ele>1002.2998</ele>
        <time>2025-09-13T20:55:34+02:00</time>
      </trkpt>
      <trkpt lat="42.78357" lon="1.33806">
        <ele>1002.2998</ele>
        <time>2025-09-13T20:55:35+02:00</time>
      </trkpt>
      <trkpt lat="42.78357" lon="1.33805">
        <ele>1002.2998</ele>
        <time>2025-09-13T20:55:39+02:00</time>
      </trkpt>
      <trkpt lat="42.78358" lon="1.33804">
        <ele>1002.2998</ele>
        <time>2025-09-13T20:55:40+02:00</time>
      </trkpt>
      <trkpt lat="42.7836" lon="1.33799">
        <ele>1005</ele>
        <time>2025-09-13T20:55:44+02:00</time>
      </trkpt>
      <trkpt lat="42.7836" lon="1.33798">
        <ele>1005</ele>
        <time>2025-09-13T20:55:45+02:00</time>
      </trkpt>
      <trkpt lat="42.7836" lon="1.33795">
        <ele>1005</ele>
        <time>2025-09-13T20:55:49+02:00</time>
      </trkpt>
      <trkpt lat="42.78361" lon="1.33794">
        <ele>1005</ele>
        <time>2025-09-13T20:55:50+02:00</time>
      </trkpt>
      <trkpt lat="42.78362" lon="1.3379">
        <ele>1004.5</ele>
        <time>2025-09-13T20:55:54+02:00</time>
      </trkpt>
      <trkpt lat="42.78363" lon="1.33789">
        <ele>1004.5</ele>
        <time>2025-09-13T20:55:55+02:00</time>
      </trkpt>
      <trkpt lat="42.78363" lon="1.3379">
        <ele>1004.5</ele>
        <time>2025-09-13T20:55:59+02:00</time>
      </trkpt>
      <trkpt lat="42.78363" lon="1.3379">
        <ele>1004.5</ele>
        <time>2025-09-13T20:56:00+02:00</time>
      </trkpt>
      <trkpt lat="42.78363" lon="1.3379">
        <ele>1004.5</ele>
        <time>2025-09-13T20:56:04+02:00</time>
      </trkpt>
      <trkpt lat="42.78364" lon="1.3379">
        <ele>1004.5</ele>
        <time>2025-09-13T20:56:05+02:00</time>
      </trkpt>
      <trkpt lat="42.78367" lon="1.33786">
        <ele>1004.5</ele>
        <time>2025-09-13T20:56:09+02:00</time>
      </trkpt>
      <trkpt lat="42.78368" lon="1.33786">
        <ele>1004.5</ele>
        <time>2025-09-13T20:56:10+02:00</time>
      </trkpt>
      <trkpt lat="42.78371" lon="1.33783">
        <ele>1003.9004</ele>
        <time>2025-09-13T20:56:14+02:00</time>
      </trkpt>
      <trkpt lat="42.78372" lon="1.33783">
        <ele>1003.9004</ele>
        <time>2025-09-13T20:56:15+02:00</time>
      </trkpt>
      <trkpt lat="42.78375" lon="1.33782">
        <ele>1000.7002</ele>
        <time>2025-09-13T20:56:19+02:00</time>
      </trkpt>
      <trkpt lat="42.78376" lon="1.33782">
        <ele>1000.7002</ele>
        <time>2025-09-13T20:56:20+02:00</time>
      </trkpt>
      <trkpt lat="42.78379" lon="1.3378">
        <ele>1000.7002</ele>
        <time>2025-09-13T20:56:24+02:00</time>
      </trkpt>
      <trkpt lat="42.78379" lon="1.3378">
        <ele>1000.7002</ele>
        <time>2025-09-13T20:56:25+02:00</time>
      </trkpt>
      <trkpt lat="42.78381" lon="1.33778">
        <ele>997.2998</ele>
        <time>2025-09-13T20:56:29+02:00</time>
      </trkpt>
      <trkpt lat="42.78382" lon="1.33778">
        <ele>997.2998</ele>
        <time>2025-09-13T20:56:30+02:00</time>
      </trkpt>
      <trkpt lat="42.78384" lon="1.33781">
        <ele>997.2998</ele>
        <time>2025-09-13T20:56:34+02:00</time>
      </trkpt>
      <trkpt lat="42.78384" lon="1.33782">
        <ele>997.2998</ele>
        <time>2025-09-13T20:56:35+02:00</time>
      </trkpt>
      <trkpt lat="42.78386" lon="1.33783">
        <ele>997.2998</ele>
        <time>2025-09-13T20:56:39+02:00</time>
      </trkpt>
      <trkpt lat="42.78387" lon="1.33783">
        <ele>997.2998</ele>
        <time>2025-09-13T20:56:40+02:00</time>
      </trkpt>
      <trkpt lat="42.78389" lon="1.33785">
        <ele>991.1006</ele>
        <time>2025-09-13T20:56:44+02:00</time>
      </trkpt>
      <trkpt lat="42.7839" lon="1.33786">
        <ele>991.1006</ele>
        <time>2025-09-13T20:56:45+02:00</time>
      </trkpt>
      <trkpt lat="42.78392" lon="1.33788">
        <ele>991.1006</ele>
        <time>2025-09-13T20:56:49+02:00</time>
      </trkpt>
      <trkpt lat="42.78392" lon="1.33788">
        <ele>991.1006</ele>
        <time>2025-09-13T20:56:50+02:00</time>
      </trkpt>
      <trkpt lat="42.78395" lon="1.33786">
        <ele>987.5</ele>
        <time>2025-09-13T20:56:54+02:00</time>
      </trkpt>
      <trkpt lat="42.78395" lon="1.33786">
        <ele>987.5</ele>
        <time>2025-09-13T20:56:55+02:00</time>
      </trkpt>
      <trkpt lat="42.78398" lon="1.33786">
        <ele>987.5</ele>
        <time>2025-09-13T20:56:59+02:00</time>
      </trkpt>
      <trkpt lat="42.78399" lon="1.33786">
        <ele>987.5</ele>
        <time>2025-09-13T20:57:00+02:00</time>
      </trkpt>
      <trkpt lat="42.784" lon="1.33787">
        <ele>983.7998</ele>
        <time>2025-09-13T20:57:04+02:00</time>
      </trkpt>
      <trkpt lat="42.78401" lon="1.33787">
        <ele>983.7998</ele>
        <time>2025-09-13T20:57:05+02:00</time>
      </trkpt>
      <trkpt lat="42.78405" lon="1.33789">
        <ele>983.7998</ele>
        <time>2025-09-13T20:57:09+02:00</time>
      </trkpt>
      <trkpt lat="42.78405" lon="1.33789">
        <ele>983.7998</ele>
        <time>2025-09-13T20:57:10+02:00</time>
      </trkpt>
      <trkpt lat="42.78409" lon="1.3379">
        <ele>980.1006</ele>
        <time>2025-09-13T20:57:14+02:00</time>
      </trkpt>
      <trkpt lat="42.7841" lon="1.3379">
        <ele>980.1006</ele>
        <time>2025-09-13T20:57:15+02:00</time>
      </trkpt>
      <trkpt lat="42.78409" lon="1.33784">
        <ele>980.1006</ele>
        <time>2025-09-13T20:57:19+02:00</time>
      </trkpt>
      <trkpt lat="42.78409" lon="1.33784">
        <ele>983</ele>
        <time>2025-09-13T20:57:20+02:00</time>
      </trkpt>
      <trkpt lat="42.78407" lon="1.33782">
        <ele>983</ele>
        <time>2025-09-13T20:57:24+02:00</time>
      </trkpt>
      <trkpt lat="42.78407" lon="1.33781">
        <ele>983</ele>
        <time>2025-09-13T20:57:25+02:00</time>
      </trkpt>
      <trkpt lat="42.78406" lon="1.33781">
        <ele>986.7002</ele>
        <time>2025-09-13T20:57:29+02:00</time>
      </trkpt>
      <trkpt lat="42.78406" lon="1.33781">
        <ele>986.7002</ele>
        <time>2025-09-13T20:57:30+02:00</time>
      </trkpt>
      <trkpt lat="42.78406" lon="1.3378">
        <ele>986.7002</ele>
        <time>2025-09-13T20:57:34+02:00</time>
      </trkpt>
      <trkpt lat="42.78406" lon="1.33779">
        <ele>983</ele>
        <time>2025-09-13T20:57:35+02:00</time>
      </trkpt>
      <trkpt lat="42.78409" lon="1.33776">
        <ele>983</ele>
        <time>2025-09-13T20:57:39+02:00</time>
      </trkpt>
      <trkpt lat="42.7841" lon="1.33776">
        <ele>983</ele>
        <time>2025-09-13T20:57:40+02:00</time>
      </trkpt>
      <trkpt lat="42.78412" lon="1.33775">
        <ele>986</ele>
        <time>2025-09-13T20:57:44+02:00</time>
      </trkpt>
      <trkpt lat="42.78412" lon="1.33775">
        <ele>986</ele>
        <time>2025-09-13T20:57:45+02:00</time>
      </trkpt>
      <trkpt lat="42.78414" lon="1.33773">
        <ele>982.2002</ele>
        <time>2025-09-13T20:57:49+02:00</time>
      </trkpt>
      <trkpt lat="42.78414" lon="1.33772">
        <ele>982.2002</ele>
        <time>2025-09-13T20:57:50+02:00</time>
      </trkpt>
      <trkpt lat="42.78416" lon="1.33769">
        <ele>982.2002</ele>
        <time>2025-09-13T20:57:54+02:00</time>
      </trkpt>
      <trkpt lat="42.78416" lon="1.33769">
        <ele>982.2002</ele>
        <time>2025-09-13T20:57:55+02:00</time>
      </trkpt>
      <trkpt lat="42.78419" lon="1.33767">
        <ele>981.2002</ele>
        <time>2025-09-13T20:57:59+02:00</time>
      </trkpt>
      <trkpt lat="42.7842" lon="1.33766">
        <ele>981.2002</ele>
        <time>2025-09-13T20:58:00+02:00</time>
      </trkpt>
      <trkpt lat="42.78422" lon="1.33764">
        <ele>981.2002</ele>
        <time>2025-09-13T20:58:04+02:00</time>
      </trkpt>
      <trkpt lat="42.78423" lon="1.33764">
        <ele>981.2002</ele>
        <time>2025-09-13T20:58:05+02:00</time>
      </trkpt>
      <trkpt lat="42.78426" lon="1.33763">
        <ele>977.1006</ele>
        <time>2025-09-13T20:58:09+02:00</time>
      </trkpt>
      <trkpt lat="42.78426" lon="1.33763">
        <ele>977.1006</ele>
        <time>2025-09-13T20:58:10+02:00</time>
      </trkpt>
      <trkpt lat="42.78429" lon="1.33763">
        <ele>977.1006</ele>
        <time>2025-09-13T20:58:14+02:00</time>
      </trkpt>
      <trkpt lat="42.78429" lon="1.33763">
        <ele>977.1006</ele>
        <time>2025-09-13T20:58:15+02:00</time>
      </trkpt>
      <trkpt lat="42.78428" lon="1.33763">
        <ele>977.1006</ele>
        <time>2025-09-13T20:58:19+02:00</time>
      </trkpt>
      <trkpt lat="42.78428" lon="1.33764">
        <ele>977.1006</ele>
        <time>2025-09-13T20:58:20+02:00</time>
      </trkpt>
      <trkpt lat="42.78428" lon="1.33764">
        <ele>977.1006</ele>
        <time>2025-09-13T20:58:24+02:00</time>
      </trkpt>
      <trkpt lat="42.78428" lon="1.33764">
        <ele>977.1006</ele>
        <time>2025-09-13T20:58:25+02:00</time>
      </trkpt>
      <trkpt lat="42.7843" lon="1.33764">
        <ele>977.1006</ele>
        <time>2025-09-13T20:58:29+02:00</time>
      </trkpt>
      <trkpt lat="42.78431" lon="1.33763">
        <ele>977.1006</ele>
        <time>2025-09-13T20:58:30+02:00</time>
      </trkpt>
      <trkpt lat="42.78435" lon="1.3376">
        <ele>973</ele>
        <time>2025-09-13T20:58:34+02:00</time>
      </trkpt>
      <trkpt lat="42.78436" lon="1.33759">
        <ele>973</ele>
        <time>2025-09-13T20:58:35+02:00</time>
      </trkpt>
      <trkpt lat="42.7844" lon="1.33757">
        <ele>971.7998</ele>
        <time>2025-09-13T20:58:39+02:00</time>
      </trkpt>
      <trkpt lat="42.78441" lon="1.33756">
        <ele>971.7998</ele>
        <time>2025-09-13T20:58:40+02:00</time>
      </trkpt>
      <trkpt lat="42.78445" lon="1.33756">
        <ele>967.6006</ele>
        <time>2025-09-13T20:58:44+02:00</time>
      </trkpt>
      <trkpt lat="42.78446" lon="1.33756">
        <ele>967.6006</ele>
        <time>2025-09-13T20:58:45+02:00</time>
      </trkpt>
      <trkpt lat="42.78449" lon="1.33754">
        <ele>967.6006</ele>
        <time>2025-09-13T20:58:49+02:00</time>
      </trkpt>
      <trkpt lat="42.7845" lon="1.33754">
        <ele>967.6006</ele>
        <time>2025-09-13T20:58:50+02:00</time>
      </trkpt>
      <trkpt lat="42.78452" lon="1.33752">
        <ele>963.4004</ele>
        <time>2025-09-13T20:58:54+02:00</time>
      </trkpt>
      <trkpt lat="42.78453" lon="1.33752">
        <ele>963.4004</ele>
        <time>2025-09-13T20:58:55+02:00</time>
      </trkpt>
      <trkpt lat="42.78454" lon="1.3375">
        <ele>966.2002</ele>
        <time>2025-09-13T20:58:59+02:00</time>
      </trkpt>
      <trkpt lat="42.78455" lon="1.33749">
        <ele>966.2002</ele>
        <time>2025-09-13T20:59:00+02:00</time>
      </trkpt>
      <trkpt lat="42.78457" lon="1.33747">
        <ele>966.2002</ele>
        <time>2025-09-13T20:59:04+02:00</time>
      </trkpt>
      <trkpt lat="42.78457" lon="1.33746">
        <ele>966.2002</ele>
        <time>2025-09-13T20:59:05+02:00</time>
      </trkpt>
      <trkpt lat="42.78457" lon="1.33743">
        <ele>962</ele>
        <time>2025-09-13T20:59:09+02:00</time>
      </trkpt>
      <trkpt lat="42.78458" lon="1.33742">
        <ele>962</ele>
        <time>2025-09-13T20:59:10+02:00</time>
      </trkpt>
      <trkpt lat="42.78459" lon="1.33741">
        <ele>964.7002</ele>
        <time>2025-09-13T20:59:14+02:00</time>
      </trkpt>
      <trkpt lat="42.78459" lon="1.33742">
        <ele>962</ele>
        <time>2025-09-13T20:59:15+02:00</time>
      </trkpt>
      <trkpt lat="42.78459" lon="1.33744">
        <ele>962</ele>
        <time>2025-09-13T20:59:19+02:00</time>
      </trkpt>
      <trkpt lat="42.78458" lon="1.33744">
        <ele>962</ele>
        <time>2025-09-13T20:59:20+02:00</time>
      </trkpt>
      <trkpt lat="42.78457" lon="1.33746">
        <ele>962</ele>
        <time>2025-09-13T20:59:24+02:00</time>
      </trkpt>
      <trkpt lat="42.78457" lon="1.33747">
        <ele>962</ele>
        <time>2025-09-13T20:59:25+02:00</time>
      </trkpt>
      <trkpt lat="42.78454" lon="1.33754">
        <ele>963.4004</ele>
        <time>2025-09-13T20:59:29+02:00</time>
      </trkpt>
      <trkpt lat="42.78453" lon="1.33756">
        <ele>963.4004</ele>
        <time>2025-09-13T20:59:30+02:00</time>
      </trkpt>
      <trkpt lat="42.78448" lon="1.33762">
        <ele>964.7998</ele>
        <time>2025-09-13T20:59:34+02:00</time>
      </trkpt>
      <trkpt lat="42.78447" lon="1.33763">
        <ele>964.7998</ele>
        <time>2025-09-13T20:59:35+02:00</time>
      </trkpt>
      <trkpt lat="42.78443" lon="1.33768">
        <ele>966</ele>
        <time>2025-09-13T20:59:39+02:00</time>
      </trkpt>
      <trkpt lat="42.78442" lon="1.33769">
        <ele>966</ele>
        <time>2025-09-13T20:59:40+02:00</time>
      </trkpt>
      <trkpt lat="42.78437" lon="1.33772">
        <ele>970.1006</ele>
        <time>2025-09-13T20:59:44+02:00</time>
      </trkpt>
      <trkpt lat="42.78436" lon="1.33773">
        <ele>970.1006</ele>
        <time>2025-09-13T20:59:45+02:00</time>
      </trkpt>
      <trkpt lat="42.78433" lon="1.33776">
        <ele>967.2002</ele>
        <time>2025-09-13T20:59:49+02:00</time>
      </trkpt>
      <trkpt lat="42.78432" lon="1.33777">
        <ele>967.2002</ele>
        <time>2025-09-13T20:59:50+02:00</time>
      </trkpt>
      <trkpt lat="42.7843" lon="1.33781">
        <ele>971.2998</ele>
        <time>2025-09-13T20:59:54+02:00</time>
      </trkpt>
      <trkpt lat="42.78429" lon="1.33782">
        <ele>971.2998</ele>
        <time>2025-09-13T20:59:55+02:00</time>
      </trkpt>
      <trkpt lat="42.78428" lon="1.33786">
        <ele>968.4004</ele>
        <time>2025-09-13T20:59:59+02:00</time>
      </trkpt>
      <trkpt lat="42.78428" lon="1.33787">
        <ele>968.4004</ele>
        <time>2025-09-13T21:00:00+02:00</time>
      </trkpt>
      <trkpt lat="42.78427" lon="1.33791">
        <ele>968.4004</ele>
        <time>2025-09-13T21:00:04+02:00</time>
      </trkpt>
      <trkpt lat="42.78427" lon="1.33792">
        <ele>968.4004</ele>
        <time>2025-09-13T21:00:05+02:00</time>
      </trkpt>
      <trkpt lat="42.78425" lon="1.33795">
        <ele>965.6006</ele>
        <time>2025-09-13T21:00:09+02:00</time>
      </trkpt>
      <trkpt lat="42.78425" lon="1.33796">
        <ele>969.5</ele>
        <time>2025-09-13T21:00:10+02:00</time>
      </trkpt>
      <trkpt lat="42.78426" lon="1.33799">
        <ele>965.6006</ele>
        <time>2025-09-13T21:00:14+02:00</time>
      </trkpt>
      <trkpt lat="42.78426" lon="1.338">
        <ele>965.6006</ele>
        <time>2025-09-13T21:00:15+02:00</time>
      </trkpt>
      <trkpt lat="42.78426" lon="1.33807">
        <ele>962.9004</ele>
        <time>2025-09-13T21:00:19+02:00</time>
      </trkpt>
      <trkpt lat="42.78426" lon="1.33808">
        <ele>962.9004</ele>
        <time>2025-09-13T21:00:20+02:00</time>
      </trkpt>
      <trkpt lat="42.78426" lon="1.33812">
        <ele>960.2002</ele>
        <time>2025-09-13T21:00:24+02:00</time>
      </trkpt>
      <trkpt lat="42.78427" lon="1.33811">
        <ele>960.2002</ele>
        <time>2025-09-13T21:00:25+02:00</time>
      </trkpt>
      <trkpt lat="42.78427" lon="1.33811">
        <ele>960.2002</ele>
        <time>2025-09-13T21:00:29+02:00</time>
      </trkpt>
      <trkpt lat="42.78427" lon="1.33811">
        <ele>960.2002</ele>
        <time>2025-09-13T21:00:30+02:00</time>
      </trkpt>
      <trkpt lat="42.78429" lon="1.33812">
        <ele>960.2002</ele>
        <time>2025-09-13T21:00:34+02:00</time>
      </trkpt>
      <trkpt lat="42.78429" lon="1.33812">
        <ele>960.2002</ele>
        <time>2025-09-13T21:00:35+02:00</time>
      </trkpt>
      <trkpt lat="42.78433" lon="1.3381">
        <ele>959.1006</ele>
        <time>2025-09-13T21:00:39+02:00</time>
      </trkpt>
      <trkpt lat="42.78434" lon="1.33809">
        <ele>959.1006</ele>
        <time>2025-09-13T21:00:40+02:00</time>
      </trkpt>
      <trkpt lat="42.78439" lon="1.33806">
        <ele>955.2998</ele>
        <time>2025-09-13T21:00:44+02:00</time>
      </trkpt>
      <trkpt lat="42.78441" lon="1.33806">
        <ele>955.2998</ele>
        <time>2025-09-13T21:00:45+02:00</time>
      </trkpt>
      <trkpt lat="42.78446" lon="1.33802">
        <ele>951.6006</ele>
        <time>2025-09-13T21:00:49+02:00</time>
      </trkpt>
      <trkpt lat="42.78447" lon="1.33801">
        <ele>954</ele>
        <time>2025-09-13T21:00:50+02:00</time>
      </trkpt>
      <trkpt lat="42.78451" lon="1.338">
        <ele>950.2002</ele>
        <time>2025-09-13T21:00:54+02:00</time>
      </trkpt>
      <trkpt lat="42.78452" lon="1.33801">
        <ele>950.2002</ele>
        <time>2025-09-13T21:00:55+02:00</time>
      </trkpt>
      <trkpt lat="42.78456" lon="1.33801">
        <ele>950.2002</ele>
        <time>2025-09-13T21:00:59+02:00</time>
      </trkpt>
      <trkpt lat="42.78457" lon="1.33801">
        <ele>946.4004</ele>
        <time>2025-09-13T21:01:00+02:00</time>
      </trkpt>
      <trkpt lat="42.78462" lon="1.338">
        <ele>946.4004</ele>
        <time>2025-09-13T21:01:04+02:00</time>
      </trkpt>
      <trkpt lat="42.78462" lon="1.33799">
        <ele>946.4004</ele>
        <time>2025-09-13T21:01:05+02:00</time>
      </trkpt>
      <trkpt lat="42.78465" lon="1.33797">
        <ele>942.7998</ele>
        <time>2025-09-13T21:01:09+02:00</time>
      </trkpt>
      <trkpt lat="42.78465" lon="1.33796">
        <ele>942.7998</ele>
        <time>2025-09-13T21:01:10+02:00</time>
      </trkpt>
      <trkpt lat="42.78465" lon="1.33794">
        <ele>942.7998</ele>
        <time>2025-09-13T21:01:14+02:00</time>
      </trkpt>
      <trkpt lat="42.78465" lon="1.33794">
        <ele>942.7998</ele>
        <time>2025-09-13T21:01:15+02:00</time>
      </trkpt>
      <trkpt lat="42.78469" lon="1.33791">
        <ele>945.1006</ele>
        <time>2025-09-13T21:01:19+02:00</time>
      </trkpt>
      <trkpt lat="42.7847" lon="1.33791">
        <ele>941.4004</ele>
        <time>2025-09-13T21:01:20+02:00</time>
      </trkpt>
      <trkpt lat="42.78469" lon="1.33792">
        <ele>945.1006</ele>
        <time>2025-09-13T21:01:24+02:00</time>
      </trkpt>
      <trkpt lat="42.78469" lon="1.33792">
        <ele>945.1006</ele>
        <time>2025-09-13T21:01:25+02:00</time>
      </trkpt>
      <trkpt lat="42.78468" lon="1.33793">
        <ele>942.7998</ele>
        <time>2025-09-13T21:01:29+02:00</time>
      </trkpt>
      <trkpt lat="42.78467" lon="1.33794">
        <ele>942.7998</ele>
        <time>2025-09-13T21:01:30+02:00</time>
      </trkpt>
      <trkpt lat="42.78466" lon="1.33799">
        <ele>942.7998</ele>
        <time>2025-09-13T21:01:34+02:00</time>
      </trkpt>
      <trkpt lat="42.78466" lon="1.338">
        <ele>942.7998</ele>
        <time>2025-09-13T21:01:35+02:00</time>
      </trkpt>
      <trkpt lat="42.78465" lon="1.33801">
        <ele>942.7998</ele>
        <time>2025-09-13T21:01:39+02:00</time>
      </trkpt>
      <trkpt lat="42.78464" lon="1.33802">
        <ele>940.5</ele>
        <time>2025-09-13T21:01:40+02:00</time>
      </trkpt>
      <trkpt lat="42.78458" lon="1.33809">
        <ele>944.2002</ele>
        <time>2025-09-13T21:01:44+02:00</time>
      </trkpt>
      <trkpt lat="42.78456" lon="1.33811">
        <ele>945.6006</ele>
        <time>2025-09-13T21:01:45+02:00</time>
      </trkpt>
      <trkpt lat="42.78451" lon="1.33814">
        <ele>945.6006</ele>
        <time>2025-09-13T21:01:49+02:00</time>
      </trkpt>
      <trkpt lat="42.7845" lon="1.33815">
        <ele>949.2002</ele>
        <time>2025-09-13T21:01:50+02:00</time>
      </trkpt>
      <trkpt lat="42.78445" lon="1.33816">
        <ele>949.2002</ele>
        <time>2025-09-13T21:01:54+02:00</time>
      </trkpt>
      <trkpt lat="42.78444" lon="1.33816">
        <ele>952.7998</ele>
        <time>2025-09-13T21:01:55+02:00</time>
      </trkpt>
      <trkpt lat="42.7844" lon="1.33819">
        <ele>950.4004</ele>
        <time>2025-09-13T21:01:59+02:00</time>
      </trkpt>
      <trkpt lat="42.7844" lon="1.33819">
        <ele>950.4004</ele>
        <time>2025-09-13T21:02:00+02:00</time>
      </trkpt>
      <trkpt lat="42.78439" lon="1.33819">
        <ele>950.4004</ele>
        <time>2025-09-13T21:02:04+02:00</time>
      </trkpt>
      <trkpt lat="42.7844" lon="1.33819">
        <ele>950.4004</ele>
        <time>2025-09-13T21:02:05+02:00</time>
      </trkpt>
      <trkpt lat="42.7844" lon="1.3382">
        <ele>950.4004</ele>
        <time>2025-09-13T21:02:09+02:00</time>
      </trkpt>
      <trkpt lat="42.7844" lon="1.3382">
        <ele>950.4004</ele>
        <time>2025-09-13T21:02:10+02:00</time>
      </trkpt>
      <trkpt lat="42.78442" lon="1.33822">
        <ele>950.4004</ele>
        <time>2025-09-13T21:02:14+02:00</time>
      </trkpt>
      <trkpt lat="42.78443" lon="1.33822">
        <ele>950.4004</ele>
        <time>2025-09-13T21:02:15+02:00</time>
      </trkpt>
      <trkpt lat="42.78443" lon="1.33821">
        <ele>950.4004</ele>
        <time>2025-09-13T21:02:19+02:00</time>
      </trkpt>
      <trkpt lat="42.78443" lon="1.33821">
        <ele>950.4004</ele>
        <time>2025-09-13T21:02:20+02:00</time>
      </trkpt>
      <trkpt lat="42.78445" lon="1.3382">
        <ele>946.7998</ele>
        <time>2025-09-13T21:02:24+02:00</time>
      </trkpt>
      <trkpt lat="42.78445" lon="1.3382">
        <ele>946.7998</ele>
        <time>2025-09-13T21:02:25+02:00</time>
      </trkpt>
      <trkpt lat="42.78449" lon="1.33818">
        <ele>949.2002</ele>
        <time>2025-09-13T21:02:29+02:00</time>
      </trkpt>
      <trkpt lat="42.7845" lon="1.33817">
        <ele>949.2002</ele>
        <time>2025-09-13T21:02:30+02:00</time>
      </trkpt>
      <trkpt lat="42.78453" lon="1.33816">
        <ele>945.6006</ele>
        <time>2025-09-13T21:02:34+02:00</time>
      </trkpt>
      <trkpt lat="42.78454" lon="1.33815">
        <ele>945.6006</ele>
        <time>2025-09-13T21:02:35+02:00</time>
      </trkpt>
      <trkpt lat="42.78456" lon="1.33813">
        <ele>945.6006</ele>
        <time>2025-09-13T21:02:39+02:00</time>
      </trkpt>
      <trkpt lat="42.78457" lon="1.33812">
        <ele>941.9004</ele>
        <time>2025-09-13T21:02:40+02:00</time>
      </trkpt>
      <trkpt lat="42.7846" lon="1.33808">
        <ele>944.2002</ele>
        <time>2025-09-13T21:02:44+02:00</time>
      </trkpt>
      <trkpt lat="42.78461" lon="1.33807">
        <ele>944.2002</ele>
        <time>2025-09-13T21:02:45+02:00</time>
      </trkpt>
      <trkpt lat="42.78465" lon="1.33805">
        <ele>940.5</ele>
        <time>2025-09-13T21:02:49+02:00</time>
      </trkpt>
      <trkpt lat="42.78466" lon="1.33804">
        <ele>940.5</ele>
        <time>2025-09-13T21:02:50+02:00</time>
      </trkpt>
      <trkpt lat="42.78468" lon="1.33804">
        <ele>940.5</ele>
        <time>2025-09-13T21:02:54+02:00</time>
      </trkpt>
      <trkpt lat="42.78468" lon="1.33804">
        <ele>940.5</ele>
        <time>2025-09-13T21:02:55+02:00</time>
      </trkpt>
      <trkpt lat="42.78469" lon="1.33804">
        <ele>940.5</ele>
        <time>2025-09-13T21:02:59+02:00</time>
      </trkpt>
      <trkpt lat="42.78469" lon="1.33804">
        <ele>940.5</ele>
        <time>2025-09-13T21:03:00+02:00</time>
      </trkpt>
      <trkpt lat="42.78471" lon="1.33805">
        <ele>937</ele>
        <time>2025-09-13T21:03:04+02:00</time>
      </trkpt>
      <trkpt lat="42.78471" lon="1.33805">
        <ele>937</ele>
        <time>2025-09-13T21:03:05+02:00</time>
      </trkpt>
      <trkpt lat="42.78476" lon="1.33803">
        <ele>933.5</ele>
        <time>2025-09-13T21:03:09+02:00</time>
      </trkpt>
      <trkpt lat="42.78477" lon="1.33803">
        <ele>933.5</ele>
        <time>2025-09-13T21:03:10+02:00</time>
      </trkpt>
      <trkpt lat="42.78481" lon="1.338">
        <ele>935.7002</ele>
        <time>2025-09-13T21:03:14+02:00</time>
      </trkpt>
      <trkpt lat="42.78482" lon="1.33799">
        <ele>935.7002</ele>
        <time>2025-09-13T21:03:15+02:00</time>
      </trkpt>
      <trkpt lat="42.78485" lon="1.33798">
        <ele>932.2998</ele>
        <time>2025-09-13T21:03:19+02:00</time>
      </trkpt>
      <trkpt lat="42.78485" lon="1.33798">
        <ele>932.2998</ele>
        <time>2025-09-13T21:03:20+02:00</time>
      </trkpt>
      <trkpt lat="42.78488" lon="1.33799">
        <ele>932.2998</ele>
        <time>2025-09-13T21:03:24+02:00</time>
      </trkpt>
      <trkpt lat="42.78489" lon="1.33799">
        <ele>929</ele>
        <time>2025-09-13T21:03:25+02:00</time>
      </trkpt>
      <trkpt lat="42.78492" lon="1.338">
        <ele>929</ele>
        <time>2025-09-13T21:03:29+02:00</time>
      </trkpt>
      <trkpt lat="42.78492" lon="1.338">
        <ele>929</ele>
        <time>2025-09-13T21:03:30+02:00</time>
      </trkpt>
      <trkpt lat="42.78492" lon="1.338">
        <ele>929</ele>
        <time>2025-09-13T21:03:34+02:00</time>
      </trkpt>
      <trkpt lat="42.78491" lon="1.338">
        <ele>929</ele>
        <time>2025-09-13T21:03:35+02:00</time>
      </trkpt>
      <trkpt lat="42.78489" lon="1.33801">
        <ele>929</ele>
        <time>2025-09-13T21:03:39+02:00</time>
      </trkpt>
      <trkpt lat="42.78489" lon="1.33801">
        <ele>929</ele>
        <time>2025-09-13T21:03:40+02:00</time>
      </trkpt>
      <trkpt lat="42.78488" lon="1.33801">
        <ele>932.2998</ele>
        <time>2025-09-13T21:03:44+02:00</time>
      </trkpt>
      <trkpt lat="42.78488" lon="1.33801">
        <ele>932.2998</ele>
        <time>2025-09-13T21:03:45+02:00</time>
      </trkpt>
      <trkpt lat="42.78487" lon="1.33801">
        <ele>932.2998</ele>
        <time>2025-09-13T21:03:49+02:00</time>
      </trkpt>
      <trkpt lat="42.78487" lon="1.33801">
        <ele>932.2998</ele>
        <time>2025-09-13T21:03:50+02:00</time>
      </trkpt>
      <trkpt lat="42.78485" lon="1.338">
        <ele>932.2998</ele>
        <time>2025-09-13T21:03:54+02:00</time>
      </trkpt>
      <trkpt lat="42.78485" lon="1.338">
        <ele>932.2998</ele>
        <time>2025-09-13T21:03:55+02:00</time>
      </trkpt>
      <trkpt lat="42.78485" lon="1.338">
        <ele>932.2998</ele>
        <time>2025-09-13T21:03:59+02:00</time>
      </trkpt>
      <trkpt lat="42.78485" lon="1.338">
        <ele>932.2998</ele>
        <time>2025-09-13T21:04:00+02:00</time>
      </trkpt>
      <trkpt lat="42.78485" lon="1.338">
        <ele>932.2998</ele>
        <time>2025-09-13T21:04:04+02:00</time>
      </trkpt>
      <trkpt lat="42.78485" lon="1.338">
        <ele>932.2998</ele>
        <time>2025-09-13T21:04:05+02:00</time>
      </trkpt>
      <trkpt lat="42.78486" lon="1.338">
        <ele>932.2998</ele>
        <time>2025-09-13T21:04:09+02:00</time>
      </trkpt>
      <trkpt lat="42.78487" lon="1.33799">
        <ele>932.2998</ele>
        <time>2025-09-13T21:04:10+02:00</time>
      </trkpt>
      <trkpt lat="42.78489" lon="1.33797">
        <ele>929</ele>
        <time>2025-09-13T21:04:14+02:00</time>
      </trkpt>
      <trkpt lat="42.7849" lon="1.33797">
        <ele>929</ele>
        <time>2025-09-13T21:04:15+02:00</time>
      </trkpt>
      <trkpt lat="42.78493" lon="1.33799">
        <ele>929</ele>
        <time>2025-09-13T21:04:19+02:00</time>
      </trkpt>
      <trkpt lat="42.78494" lon="1.33799">
        <ele>929</ele>
        <time>2025-09-13T21:04:20+02:00</time>
      </trkpt>
      <trkpt lat="42.78498" lon="1.33801">
        <ele>925.7002</ele>
        <time>2025-09-13T21:04:24+02:00</time>
      </trkpt>
      <trkpt lat="42.78499" lon="1.338">
        <ele>925.7002</ele>
        <time>2025-09-13T21:04:25+02:00</time>
      </trkpt>
      <trkpt lat="42.78503" lon="1.33795">
        <ele>922.6006</ele>
        <time>2025-09-13T21:04:29+02:00</time>
      </trkpt>
      <trkpt lat="42.78504" lon="1.33794">
        <ele>922.6006</ele>
        <time>2025-09-13T21:04:30+02:00</time>
      </trkpt>
      <trkpt lat="42.78508" lon="1.33792">
        <ele>921.7002</ele>
        <time>2025-09-13T21:04:34+02:00</time>
      </trkpt>
      <trkpt lat="42.78508" lon="1.33792">
        <ele>921.7002</ele>
        <time>2025-09-13T21:04:35+02:00</time>
      </trkpt>
      <trkpt lat="42.78511" lon="1.3379">
        <ele>921.7002</ele>
        <time>2025-09-13T21:04:39+02:00</time>
      </trkpt>
      <trkpt lat="42.78512" lon="1.3379">
        <ele>921.7002</ele>
        <time>2025-09-13T21:04:40+02:00</time>
      </trkpt>
      <trkpt lat="42.78515" lon="1.33788">
        <ele>918.7998</ele>
        <time>2025-09-13T21:04:44+02:00</time>
      </trkpt>
      <trkpt lat="42.78516" lon="1.33787">
        <ele>918.7998</ele>
        <time>2025-09-13T21:04:45+02:00</time>
      </trkpt>
      <trkpt lat="42.78518" lon="1.33784">
        <ele>918.7998</ele>
        <time>2025-09-13T21:04:49+02:00</time>
      </trkpt>
      <trkpt lat="42.78519" lon="1.33784">
        <ele>921.1006</ele>
        <time>2025-09-13T21:04:50+02:00</time>
      </trkpt>
      <trkpt lat="42.78522" lon="1.33781">
        <ele>918.2998</ele>
        <time>2025-09-13T21:04:54+02:00</time>
      </trkpt>
      <trkpt lat="42.78523" lon="1.3378">
        <ele>918.2998</ele>
        <time>2025-09-13T21:04:55+02:00</time>
      </trkpt>
      <trkpt lat="42.78525" lon="1.33777">
        <ele>918.2998</ele>
        <time>2025-09-13T21:04:59+02:00</time>
      </trkpt>
      <trkpt lat="42.78525" lon="1.33776">
        <ele>918.2998</ele>
        <time>2025-09-13T21:05:00+02:00</time>
      </trkpt>
      <trkpt lat="42.78526" lon="1.33772">
        <ele>917.9004</ele>
        <time>2025-09-13T21:05:04+02:00</time>
      </trkpt>
      <trkpt lat="42.78527" lon="1.33771">
        <ele>917.9004</ele>
        <time>2025-09-13T21:05:05+02:00</time>
      </trkpt>
      <trkpt lat="42.78527" lon="1.33768">
        <ele>917.9004</ele>
        <time>2025-09-13T21:05:09+02:00</time>
      </trkpt>
      <trkpt lat="42.78528" lon="1.33767">
        <ele>920.1006</ele>
        <time>2025-09-13T21:05:10+02:00</time>
      </trkpt>
      <trkpt lat="42.78531" lon="1.33766">
        <ele>920.1006</ele>
        <time>2025-09-13T21:05:14+02:00</time>
      </trkpt>
      <trkpt lat="42.78532" lon="1.33765">
        <ele>920.1006</ele>
        <time>2025-09-13T21:05:15+02:00</time>
      </trkpt>
      <trkpt lat="42.78535" lon="1.33763">
        <ele>917.5</ele>
        <time>2025-09-13T21:05:19+02:00</time>
      </trkpt>
      <trkpt lat="42.78536" lon="1.33762">
        <ele>917.5</ele>
        <time>2025-09-13T21:05:20+02:00</time>
      </trkpt>
      <trkpt lat="42.78538" lon="1.3376">
        <ele>917.5</ele>
        <time>2025-09-13T21:05:24+02:00</time>
      </trkpt>
      <trkpt lat="42.78539" lon="1.3376">
        <ele>914.9004</ele>
        <time>2025-09-13T21:05:25+02:00</time>
      </trkpt>
      <trkpt lat="42.78542" lon="1.33757">
        <ele>917.1006</ele>
        <time>2025-09-13T21:05:29+02:00</time>
      </trkpt>
      <trkpt lat="42.78542" lon="1.33756">
        <ele>917.1006</ele>
        <time>2025-09-13T21:05:30+02:00</time>
      </trkpt>
      <trkpt lat="42.78544" lon="1.33752">
        <ele>917.1006</ele>
        <time>2025-09-13T21:05:34+02:00</time>
      </trkpt>
      <trkpt lat="42.78544" lon="1.33751">
        <ele>917.1006</ele>
        <time>2025-09-13T21:05:35+02:00</time>
      </trkpt>
      <trkpt lat="42.78545" lon="1.33746">
        <ele>919.2998</ele>
        <time>2025-09-13T21:05:39+02:00</time>
      </trkpt>
      <trkpt lat="42.78545" lon="1.33745">
        <ele>916.7998</ele>
        <time>2025-09-13T21:05:40+02:00</time>
      </trkpt>
      <trkpt lat="42.78546" lon="1.3374">
        <ele>919</ele>
        <time>2025-09-13T21:05:44+02:00</time>
      </trkpt>
      <trkpt lat="42.78546" lon="1.33739">
        <ele>919</ele>
        <time>2025-09-13T21:05:45+02:00</time>
      </trkpt>
      <trkpt lat="42.78547" lon="1.33735">
        <ele>919</ele>
        <time>2025-09-13T21:05:49+02:00</time>
      </trkpt>
      <trkpt lat="42.78547" lon="1.33734">
        <ele>919</ele>
        <time>2025-09-13T21:05:50+02:00</time>
      </trkpt>
      <trkpt lat="42.78549" lon="1.33729">
        <ele>921.4004</ele>
        <time>2025-09-13T21:05:54+02:00</time>
      </trkpt>
      <trkpt lat="42.78549" lon="1.33728">
        <ele>921.4004</ele>
        <time>2025-09-13T21:05:55+02:00</time>
      </trkpt>
      <trkpt lat="42.78551" lon="1.33723">
        <ele>923.7998</ele>
        <time>2025-09-13T21:05:59+02:00</time>
      </trkpt>
      <trkpt lat="42.78552" lon="1.33722">
        <ele>921.2998</ele>
        <time>2025-09-13T21:06:00+02:00</time>
      </trkpt>
      <trkpt lat="42.78553" lon="1.33719">
        <ele>921.2998</ele>
        <time>2025-09-13T21:06:04+02:00</time>
      </trkpt>
      <trkpt lat="42.78553" lon="1.33718">
        <ele>921.2998</ele>
        <time>2025-09-13T21:06:05+02:00</time>
      </trkpt>
      <trkpt lat="42.78553" lon="1.33715">
        <ele>923.7998</ele>
        <time>2025-09-13T21:06:09+02:00</time>
      </trkpt>
      <trkpt lat="42.78554" lon="1.33715">
        <ele>923.7998</ele>
        <time>2025-09-13T21:06:10+02:00</time>
      </trkpt>
      <trkpt lat="42.78553" lon="1.33715">
        <ele>923.7998</ele>
        <time>2025-09-13T21:06:14+02:00</time>
      </trkpt>
      <trkpt lat="42.78553" lon="1.33715">
        <ele>923.7998</ele>
        <time>2025-09-13T21:06:15+02:00</time>
      </trkpt>
      <trkpt lat="42.78552" lon="1.33716">
        <ele>923.7998</ele>
        <time>2025-09-13T21:06:19+02:00</time>
      </trkpt>
      <trkpt lat="42.78552" lon="1.33715">
        <ele>923.7998</ele>
        <time>2025-09-13T21:06:20+02:00</time>
      </trkpt>
      <trkpt lat="42.78552" lon="1.33714">
        <ele>923.7998</ele>
        <time>2025-09-13T21:06:24+02:00</time>
      </trkpt>
      <trkpt lat="42.78552" lon="1.33714">
        <ele>923.7998</ele>
        <time>2025-09-13T21:06:25+02:00</time>
      </trkpt>
      <trkpt lat="42.78552" lon="1.33713">
        <ele>923.7998</ele>
        <time>2025-09-13T21:06:29+02:00</time>
      </trkpt>
      <trkpt lat="42.78552" lon="1.33713">
        <ele>923.7998</ele>
        <time>2025-09-13T21:06:30+02:00</time>
      </trkpt>
      <trkpt lat="42.78551" lon="1.33713">
        <ele>926.2002</ele>
        <time>2025-09-13T21:06:34+02:00</time>
      </trkpt>
      <trkpt lat="42.78551" lon="1.33713">
        <ele>926.2002</ele>
        <time>2025-09-13T21:06:35+02:00</time>
      </trkpt>
      <trkpt lat="42.78551" lon="1.33712">
        <ele>926.2002</ele>
        <time>2025-09-13T21:06:39+02:00</time>
      </trkpt>
      <trkpt lat="42.78551" lon="1.33712">
        <ele>926.2002</ele>
        <time>2025-09-13T21:06:40+02:00</time>
      </trkpt>
      <trkpt lat="42.78551" lon="1.33712">
        <ele>926.2002</ele>
        <time>2025-09-13T21:06:44+02:00</time>
      </trkpt>
      <trkpt lat="42.7855" lon="1.33712">
        <ele>926.2002</ele>
        <time>2025-09-13T21:06:45+02:00</time>
      </trkpt>
      <trkpt lat="42.7855" lon="1.33713">
        <ele>926.2002</ele>
        <time>2025-09-13T21:06:49+02:00</time>
      </trkpt>
      <trkpt lat="42.78549" lon="1.33713">
        <ele>926.2002</ele>
        <time>2025-09-13T21:06:50+02:00</time>
      </trkpt>
      <trkpt lat="42.78548" lon="1.33713">
        <ele>926.2002</ele>
        <time>2025-09-13T21:06:54+02:00</time>
      </trkpt>
      <trkpt lat="42.78548" lon="1.33712">
        <ele>926.2002</ele>
        <time>2025-09-13T21:06:55+02:00</time>
      </trkpt>
      <trkpt lat="42.78548" lon="1.33711">
        <ele>926.2002</ele>
        <time>2025-09-13T21:06:59+02:00</time>
      </trkpt>
      <trkpt lat="42.78548" lon="1.33711">
        <ele>926.2002</ele>
        <time>2025-09-13T21:07:00+02:00</time>
      </trkpt>
      <trkpt lat="42.78548" lon="1.33709">
        <ele>926.2002</ele>
        <time>2025-09-13T21:07:04+02:00</time>
      </trkpt>
      <trkpt lat="42.78548" lon="1.33708">
        <ele>926.2002</ele>
        <time>2025-09-13T21:07:05+02:00</time>
      </trkpt>
      <trkpt lat="42.78548" lon="1.33706">
        <ele>928.7998</ele>
        <time>2025-09-13T21:07:09+02:00</time>
      </trkpt>
      <trkpt lat="42.78549" lon="1.33705">
        <ele>928.7998</ele>
        <time>2025-09-13T21:07:10+02:00</time>
      </trkpt>
      <trkpt lat="42.78549" lon="1.33702">
        <ele>928.7998</ele>
        <time>2025-09-13T21:07:14+02:00</time>
      </trkpt>
      <trkpt lat="42.78549" lon="1.33701">
        <ele>928.7998</ele>
        <time>2025-09-13T21:07:15+02:00</time>
      </trkpt>
      <trkpt lat="42.7855" lon="1.33698">
        <ele>931.4004</ele>
        <time>2025-09-13T21:07:19+02:00</time>
      </trkpt>
      <trkpt lat="42.7855" lon="1.33697">
        <ele>931.4004</ele>
        <time>2025-09-13T21:07:20+02:00</time>
      </trkpt>
      <trkpt lat="42.7855" lon="1.33695">
        <ele>931.4004</ele>
        <time>2025-09-13T21:07:24+02:00</time>
      </trkpt>
      <trkpt lat="42.7855" lon="1.33695">
        <ele>931.4004</ele>
        <time>2025-09-13T21:07:25+02:00</time>
      </trkpt>
      <trkpt lat="42.7855" lon="1.33693">
        <ele>931.4004</ele>
        <time>2025-09-13T21:07:29+02:00</time>
      </trkpt>
      <trkpt lat="42.7855" lon="1.33692">
        <ele>931.4004</ele>
        <time>2025-09-13T21:07:30+02:00</time>
      </trkpt>
      <trkpt lat="42.7855" lon="1.33691">
        <ele>931.4004</ele>
        <time>2025-09-13T21:07:34+02:00</time>
      </trkpt>
      <trkpt lat="42.7855" lon="1.33691">
        <ele>931.4004</ele>
        <time>2025-09-13T21:07:35+02:00</time>
      </trkpt>
      <trkpt lat="42.7855" lon="1.33689">
        <ele>934.1006</ele>
        <time>2025-09-13T21:07:39+02:00</time>
      </trkpt>
      <trkpt lat="42.7855" lon="1.33689">
        <ele>934.1006</ele>
        <time>2025-09-13T21:07:40+02:00</time>
      </trkpt>
      <trkpt lat="42.7855" lon="1.33688">
        <ele>934.1006</ele>
        <time>2025-09-13T21:07:44+02:00</time>
      </trkpt>
      <trkpt lat="42.7855" lon="1.33687">
        <ele>934.1006</ele>
        <time>2025-09-13T21:07:45+02:00</time>
      </trkpt>
      <trkpt lat="42.7855" lon="1.33686">
        <ele>934.1006</ele>
        <time>2025-09-13T21:07:49+02:00</time>
      </trkpt>
      <trkpt lat="42.7855" lon="1.33685">
        <ele>934.1006</ele>
        <time>2025-09-13T21:07:50+02:00</time>
      </trkpt>
      <trkpt lat="42.7855" lon="1.33684">
        <ele>934.1006</ele>
        <time>2025-09-13T21:07:54+02:00</time>
      </trkpt>
      <trkpt lat="42.7855" lon="1.33683">
        <ele>934.1006</ele>
        <time>2025-09-13T21:07:55+02:00</time>
      </trkpt>
      <trkpt lat="42.78551" lon="1.33681">
        <ele>936.9004</ele>
        <time>2025-09-13T21:07:59+02:00</time>
      </trkpt>
      <trkpt lat="42.78551" lon="1.3368">
        <ele>936.9004</ele>
        <time>2025-09-13T21:08:00+02:00</time>
      </trkpt>
      <trkpt lat="42.78551" lon="1.33679">
        <ele>934.2002</ele>
        <time>2025-09-13T21:08:04+02:00</time>
      </trkpt>
      <trkpt lat="42.78552" lon="1.33678">
        <ele>934.2002</ele>
        <time>2025-09-13T21:08:05+02:00</time>
      </trkpt>
      <trkpt lat="42.78553" lon="1.33677">
        <ele>934.2002</ele>
        <time>2025-09-13T21:08:09+02:00</time>
      </trkpt>
      <trkpt lat="42.78553" lon="1.33676">
        <ele>934.2002</ele>
        <time>2025-09-13T21:08:10+02:00</time>
      </trkpt>
      <trkpt lat="42.78556" lon="1.33673">
        <ele>937</ele>
        <time>2025-09-13T21:08:14+02:00</time>
      </trkpt>
      <trkpt lat="42.78557" lon="1.33672">
        <ele>937</ele>
        <time>2025-09-13T21:08:15+02:00</time>
      </trkpt>
      <trkpt lat="42.7856" lon="1.33668">
        <ele>934.4004</ele>
        <time>2025-09-13T21:08:19+02:00</time>
      </trkpt>
      <trkpt lat="42.78561" lon="1.33667">
        <ele>934.4004</ele>
        <time>2025-09-13T21:08:20+02:00</time>
      </trkpt>
      <trkpt lat="42.78565" lon="1.33664">
        <ele>934.4004</ele>
        <time>2025-09-13T21:08:24+02:00</time>
      </trkpt>
      <trkpt lat="42.78566" lon="1.33663">
        <ele>934.4004</ele>
        <time>2025-09-13T21:08:25+02:00</time>
      </trkpt>
      <trkpt lat="42.7857" lon="1.33661">
        <ele>931.5</ele>
        <time>2025-09-13T21:08:29+02:00</time>
      </trkpt>
      <trkpt lat="42.78571" lon="1.33661">
        <ele>931.5</ele>
        <time>2025-09-13T21:08:30+02:00</time>
      </trkpt>
      <trkpt lat="42.78575" lon="1.3366">
        <ele>931.5</ele>
        <time>2025-09-13T21:08:34+02:00</time>
      </trkpt>
      <trkpt lat="42.78576" lon="1.3366">
        <ele>931.5</ele>
        <time>2025-09-13T21:08:35+02:00</time>
      </trkpt>
      <trkpt lat="42.78578" lon="1.33659">
        <ele>928.7002</ele>
        <time>2025-09-13T21:08:39+02:00</time>
      </trkpt>
      <trkpt lat="42.78579" lon="1.33659">
        <ele>928.7002</ele>
        <time>2025-09-13T21:08:40+02:00</time>
      </trkpt>
      <trkpt lat="42.78581" lon="1.33657">
        <ele>928.7002</ele>
        <time>2025-09-13T21:08:44+02:00</time>
      </trkpt>
      <trkpt lat="42.78581" lon="1.33656">
        <ele>928.7002</ele>
        <time>2025-09-13T21:08:45+02:00</time>
      </trkpt>
      <trkpt lat="42.78581" lon="1.33656">
        <ele>928.7002</ele>
        <time>2025-09-13T21:08:49+02:00</time>
      </trkpt>
      <trkpt lat="42.78581" lon="1.33656">
        <ele>928.7002</ele>
        <time>2025-09-13T21:08:50+02:00</time>
      </trkpt>
      <trkpt lat="42.7858" lon="1.33656">
        <ele>928.7002</ele>
        <time>2025-09-13T21:08:54+02:00</time>
      </trkpt>
      <trkpt lat="42.7858" lon="1.33656">
        <ele>928.7002</ele>
        <time>2025-09-13T21:08:55+02:00</time>
      </trkpt>
      <trkpt lat="42.78578" lon="1.33655">
        <ele>930.9004</ele>
        <time>2025-09-13T21:08:59+02:00</time>
      </trkpt>
      <trkpt lat="42.78578" lon="1.33655">
        <ele>930.9004</ele>
        <time>2025-09-13T21:09:00+02:00</time>
      </trkpt>
      <trkpt lat="42.78577" lon="1.33654">
        <ele>930.9004</ele>
        <time>2025-09-13T21:09:04+02:00</time>
      </trkpt>
      <trkpt lat="42.78577" lon="1.33654">
        <ele>930.9004</ele>
        <time>2025-09-13T21:09:05+02:00</time>
      </trkpt>
      <trkpt lat="42.78578" lon="1.33653">
        <ele>930.9004</ele>
        <time>2025-09-13T21:09:09+02:00</time>
      </trkpt>
      <trkpt lat="42.78578" lon="1.33652">
        <ele>930.9004</ele>
        <time>2025-09-13T21:09:10+02:00</time>
      </trkpt>
      <trkpt lat="42.78579" lon="1.33652">
        <ele>930.9004</ele>
        <time>2025-09-13T21:09:14+02:00</time>
      </trkpt>
      <trkpt lat="42.78579" lon="1.33652">
        <ele>930.9004</ele>
        <time>2025-09-13T21:09:15+02:00</time>
      </trkpt>
      <trkpt lat="42.7858" lon="1.33651">
        <ele>930.9004</ele>
        <time>2025-09-13T21:09:19+02:00</time>
      </trkpt>
      <trkpt lat="42.7858" lon="1.33651">
        <ele>930.9004</ele>
        <time>2025-09-13T21:09:20+02:00</time>
      </trkpt>
      <trkpt lat="42.78581" lon="1.33651">
        <ele>930.9004</ele>
        <time>2025-09-13T21:09:24+02:00</time>
      </trkpt>
      <trkpt lat="42.78582" lon="1.33651">
        <ele>930.9004</ele>
        <time>2025-09-13T21:09:25+02:00</time>
      </trkpt>
      <trkpt lat="42.78585" lon="1.33653">
        <ele>927.9004</ele>
        <time>2025-09-13T21:09:29+02:00</time>
      </trkpt>
      <trkpt lat="42.78585" lon="1.33654">
        <ele>927.9004</ele>
        <time>2025-09-13T21:09:30+02:00</time>
      </trkpt>
      <trkpt lat="42.78583" lon="1.33659">
        <ele>925.7998</ele>
        <time>2025-09-13T21:09:34+02:00</time>
      </trkpt>
      <trkpt lat="42.78582" lon="1.3366">
        <ele>928.7002</ele>
        <time>2025-09-13T21:09:35+02:00</time>
      </trkpt>
      <trkpt lat="42.7858" lon="1.33664">
        <ele>926.4004</ele>
        <time>2025-09-13T21:09:39+02:00</time>
      </trkpt>
      <trkpt lat="42.78579" lon="1.33665">
        <ele>926.4004</ele>
        <time>2025-09-13T21:09:40+02:00</time>
      </trkpt>
      <trkpt lat="42.78577" lon="1.33669">
        <ele>926.4004</ele>
        <time>2025-09-13T21:09:44+02:00</time>
      </trkpt>
      <trkpt lat="42.78577" lon="1.3367">
        <ele>926.4004</ele>
        <time>2025-09-13T21:09:45+02:00</time>
      </trkpt>
      <trkpt lat="42.78577" lon="1.33672">
        <ele>926.4004</ele>
        <time>2025-09-13T21:09:49+02:00</time>
      </trkpt>
      <trkpt lat="42.78577" lon="1.33672">
        <ele>926.4004</ele>
        <time>2025-09-13T21:09:50+02:00</time>
      </trkpt>
      <trkpt lat="42.78577" lon="1.33673">
        <ele>924.1006</ele>
        <time>2025-09-13T21:09:54+02:00</time>
      </trkpt>
      <trkpt lat="42.78577" lon="1.33673">
        <ele>924.1006</ele>
        <time>2025-09-13T21:09:55+02:00</time>
      </trkpt>
      <trkpt lat="42.78577" lon="1.33674">
        <ele>924.1006</ele>
        <time>2025-09-13T21:09:59+02:00</time>
      </trkpt>
      <trkpt lat="42.78577" lon="1.33674">
        <ele>924.1006</ele>
        <time>2025-09-13T21:10:00+02:00</time>
      </trkpt>
      <trkpt lat="42.78577" lon="1.33674">
        <ele>924.1006</ele>
        <time>2025-09-13T21:10:04+02:00</time>
      </trkpt>
      <trkpt lat="42.78577" lon="1.33674">
        <ele>924.1006</ele>
        <time>2025-09-13T21:10:05+02:00</time>
      </trkpt>
      <trkpt lat="42.78577" lon="1.33675">
        <ele>924.1006</ele>
        <time>2025-09-13T21:10:09+02:00</time>
      </trkpt>
      <trkpt lat="42.78577" lon="1.33675">
        <ele>924.1006</ele>
        <time>2025-09-13T21:10:10+02:00</time>
      </trkpt>
      <trkpt lat="42.78576" lon="1.33675">
        <ele>926.7002</ele>
        <time>2025-09-13T21:10:14+02:00</time>
      </trkpt>
      <trkpt lat="42.78576" lon="1.33675">
        <ele>926.7002</ele>
        <time>2025-09-13T21:10:15+02:00</time>
      </trkpt>
      <trkpt lat="42.78576" lon="1.33675">
        <ele>926.7002</ele>
        <time>2025-09-13T21:10:19+02:00</time>
      </trkpt>
      <trkpt lat="42.78576" lon="1.33675">
        <ele>924.1006</ele>
        <time>2025-09-13T21:10:20+02:00</time>
      </trkpt>
      <trkpt lat="42.78579" lon="1.33672">
        <ele>926.4004</ele>
        <time>2025-09-13T21:10:24+02:00</time>
      </trkpt>
      <trkpt lat="42.78579" lon="1.33672">
        <ele>926.4004</ele>
        <time>2025-09-13T21:10:25+02:00</time>
      </trkpt>
      <trkpt lat="42.78582" lon="1.33669">
        <ele>926.4004</ele>
        <time>2025-09-13T21:10:29+02:00</time>
      </trkpt>
      <trkpt lat="42.78583" lon="1.33668">
        <ele>923.7002</ele>
        <time>2025-09-13T21:10:30+02:00</time>
      </trkpt>
      <trkpt lat="42.78587" lon="1.33666">
        <ele>923.7002</ele>
        <time>2025-09-13T21:10:34+02:00</time>
      </trkpt>
      <trkpt lat="42.78588" lon="1.33666">
        <ele>923.7002</ele>
        <time>2025-09-13T21:10:35+02:00</time>
      </trkpt>
      <trkpt lat="42.78591" lon="1.33662">
        <ele>922.9004</ele>
        <time>2025-09-13T21:10:39+02:00</time>
      </trkpt>
      <trkpt lat="42.78592" lon="1.33661">
        <ele>922.9004</ele>
        <time>2025-09-13T21:10:40+02:00</time>
      </trkpt>
      <trkpt lat="42.78595" lon="1.33659">
        <ele>922.9004</ele>
        <time>2025-09-13T21:10:44+02:00</time>
      </trkpt>
      <trkpt lat="42.78595" lon="1.33659">
        <ele>922.9004</ele>
        <time>2025-09-13T21:10:45+02:00</time>
      </trkpt>
      <trkpt lat="42.78595" lon="1.33659">
        <ele>922.9004</ele>
        <time>2025-09-13T21:10:49+02:00</time>
      </trkpt>
      <trkpt lat="42.78595" lon="1.33659">
        <ele>922.9004</ele>
        <time>2025-09-13T21:10:50+02:00</time>
      </trkpt>
      <trkpt lat="42.78595" lon="1.33658">
        <ele>922.9004</ele>
        <time>2025-09-13T21:10:54+02:00</time>
      </trkpt>
      <trkpt lat="42.78595" lon="1.33658">
        <ele>922.9004</ele>
        <time>2025-09-13T21:10:55+02:00</time>
      </trkpt>
      <trkpt lat="42.78595" lon="1.33655">
        <ele>921.9004</ele>
        <time>2025-09-13T21:10:59+02:00</time>
      </trkpt>
      <trkpt lat="42.78596" lon="1.33654">
        <ele>921.9004</ele>
        <time>2025-09-13T21:11:00+02:00</time>
      </trkpt>
      <trkpt lat="42.78598" lon="1.33648">
        <ele>921.9004</ele>
        <time>2025-09-13T21:11:04+02:00</time>
      </trkpt>
      <trkpt lat="42.78598" lon="1.33647">
        <ele>923.7002</ele>
        <time>2025-09-13T21:11:05+02:00</time>
      </trkpt>
      <trkpt lat="42.786" lon="1.33644">
        <ele>923.7002</ele>
        <time>2025-09-13T21:11:09+02:00</time>
      </trkpt>
      <trkpt lat="42.786" lon="1.33643">
        <ele>923.7002</ele>
        <time>2025-09-13T21:11:10+02:00</time>
      </trkpt>
      <trkpt lat="42.78601" lon="1.33642">
        <ele>923.7002</ele>
        <time>2025-09-13T21:11:14+02:00</time>
      </trkpt>
      <trkpt lat="42.78601" lon="1.33642">
        <ele>923.7002</ele>
        <time>2025-09-13T21:11:15+02:00</time>
      </trkpt>
      <trkpt lat="42.78602" lon="1.3364">
        <ele>920.5</ele>
        <time>2025-09-13T21:11:19+02:00</time>
      </trkpt>
      <trkpt lat="42.78603" lon="1.33639">
        <ele>920.5</ele>
        <time>2025-09-13T21:11:20+02:00</time>
      </trkpt>
      <trkpt lat="42.78603" lon="1.33638">
        <ele>922.2998</ele>
        <time>2025-09-13T21:11:24+02:00</time>
      </trkpt>
      <trkpt lat="42.78603" lon="1.33638">
        <ele>922.2998</ele>
        <time>2025-09-13T21:11:25+02:00</time>
      </trkpt>
      <trkpt lat="42.78604" lon="1.33637">
        <ele>922.2998</ele>
        <time>2025-09-13T21:11:29+02:00</time>
      </trkpt>
      <trkpt lat="42.78604" lon="1.33637">
        <ele>922.2998</ele>
        <time>2025-09-13T21:11:30+02:00</time>
      </trkpt>
      <trkpt lat="42.78605" lon="1.33635">
        <ele>922.2998</ele>
        <time>2025-09-13T21:11:34+02:00</time>
      </trkpt>
      <trkpt lat="42.78604" lon="1.33635">
        <ele>922.2998</ele>
        <time>2025-09-13T21:11:35+02:00</time>
      </trkpt>
      <trkpt lat="42.78604" lon="1.33635">
        <ele>922.2998</ele>
        <time>2025-09-13T21:11:39+02:00</time>
      </trkpt>
      <trkpt lat="42.78604" lon="1.33635">
        <ele>922.2998</ele>
        <time>2025-09-13T21:11:40+02:00</time>
      </trkpt>
      <trkpt lat="42.78603" lon="1.33634">
        <ele>922.2998</ele>
        <time>2025-09-13T21:11:44+02:00</time>
      </trkpt>
      <trkpt lat="42.78604" lon="1.33634">
        <ele>922.2998</ele>
        <time>2025-09-13T21:11:45+02:00</time>
      </trkpt>
      <trkpt lat="42.78607" lon="1.33633">
        <ele>922.2998</ele>
        <time>2025-09-13T21:11:49+02:00</time>
      </trkpt>
      <trkpt lat="42.78608" lon="1.33633">
        <ele>918.9004</ele>
        <time>2025-09-13T21:11:50+02:00</time>
      </trkpt>
      <trkpt lat="42.78613" lon="1.33631">
        <ele>918.9004</ele>
        <time>2025-09-13T21:11:54+02:00</time>
      </trkpt>
      <trkpt lat="42.78614" lon="1.3363">
        <ele>918.9004</ele>
        <time>2025-09-13T21:11:55+02:00</time>
      </trkpt>
      <trkpt lat="42.78617" lon="1.33629">
        <ele>916.7002</ele>
        <time>2025-09-13T21:11:59+02:00</time>
      </trkpt>
      <trkpt lat="42.78618" lon="1.33629">
        <ele>916.7002</ele>
        <time>2025-09-13T21:12:00+02:00</time>
      </trkpt>
      <trkpt lat="42.78621" lon="1.3363">
        <ele>911.7998</ele>
        <time>2025-09-13T21:12:04+02:00</time>
      </trkpt>
      <trkpt lat="42.78622" lon="1.33631">
        <ele>911.7998</ele>
        <time>2025-09-13T21:12:05+02:00</time>
      </trkpt>
      <trkpt lat="42.78625" lon="1.33632">
        <ele>911.7998</ele>
        <time>2025-09-13T21:12:09+02:00</time>
      </trkpt>
      <trkpt lat="42.78626" lon="1.33632">
        <ele>911.7998</ele>
        <time>2025-09-13T21:12:10+02:00</time>
      </trkpt>
      <trkpt lat="42.78627" lon="1.33632">
        <ele>908.2002</ele>
        <time>2025-09-13T21:12:14+02:00</time>
      </trkpt>
      <trkpt lat="42.78627" lon="1.33632">
        <ele>908.2002</ele>
        <time>2025-09-13T21:12:15+02:00</time>
      </trkpt>
      <trkpt lat="42.78627" lon="1.33631">
        <ele>908.2002</ele>
        <time>2025-09-13T21:12:19+02:00</time>
      </trkpt>
      <trkpt lat="42.78627" lon="1.3363">
        <ele>908.2002</ele>
        <time>2025-09-13T21:12:20+02:00</time>
      </trkpt>
      <trkpt lat="42.78628" lon="1.3363">
        <ele>909.2998</ele>
        <time>2025-09-13T21:12:25+02:00</time>
      </trkpt>
      <trkpt lat="42.78628" lon="1.3363">
        <ele>909.2998</ele>
        <time>2025-09-13T21:12:26+02:00</time>
      </trkpt>
      <trkpt lat="42.78627" lon="1.33628">
        <ele>909.2998</ele>
        <time>2025-09-13T21:12:30+02:00</time>
      </trkpt>
      <trkpt lat="42.78627" lon="1.33628">
        <ele>909.2998</ele>
        <time>2025-09-13T21:12:31+02:00</time>
      </trkpt>
      <trkpt lat="42.78627" lon="1.33628">
        <ele>913</ele>
        <time>2025-09-13T21:12:35+02:00</time>
      </trkpt>
      <trkpt lat="42.78627" lon="1.33628">
        <ele>913</ele>
        <time>2025-09-13T21:12:36+02:00</time>
      </trkpt>
      <trkpt lat="42.78626" lon="1.33628">
        <ele>913</ele>
        <time>2025-09-13T21:12:40+02:00</time>
      </trkpt>
      <trkpt lat="42.78626" lon="1.33628">
        <ele>913</ele>
        <time>2025-09-13T21:12:41+02:00</time>
      </trkpt>
      <trkpt lat="42.78626" lon="1.33627">
        <ele>913</ele>
        <time>2025-09-13T21:12:46+02:00</time>
      </trkpt>
      <trkpt lat="42.78626" lon="1.33627">
        <ele>913</ele>
        <time>2025-09-13T21:12:47+02:00</time>
      </trkpt>
      <trkpt lat="42.78626" lon="1.33626">
        <ele>913</ele>
        <time>2025-09-13T21:12:51+02:00</time>
      </trkpt>
      <trkpt lat="42.78626" lon="1.33626">
        <ele>913</ele>
        <time>2025-09-13T21:12:52+02:00</time>
      </trkpt>
      <trkpt lat="42.78626" lon="1.33626">
        <ele>913</ele>
        <time>2025-09-13T21:12:56+02:00</time>
      </trkpt>
      <trkpt lat="42.78626" lon="1.33626">
        <ele>913</ele>
        <time>2025-09-13T21:12:57+02:00</time>
      </trkpt>
      <trkpt lat="42.78627" lon="1.33626">
        <ele>909.2998</ele>
        <time>2025-09-13T21:13:01+02:00</time>
      </trkpt>
      <trkpt lat="42.78627" lon="1.33626">
        <ele>909.2998</ele>
        <time>2025-09-13T21:13:02+02:00</time>
      </trkpt>
      <trkpt lat="42.7863" lon="1.33627">
        <ele>909.2998</ele>
        <time>2025-09-13T21:13:06+02:00</time>
      </trkpt>
      <trkpt lat="42.78631" lon="1.33627">
        <ele>909.2998</ele>
        <time>2025-09-13T21:13:07+02:00</time>
      </trkpt>
      <trkpt lat="42.78634" lon="1.33628">
        <ele>905.6006</ele>
        <time>2025-09-13T21:13:11+02:00</time>
      </trkpt>
      <trkpt lat="42.78635" lon="1.33628">
        <ele>905.6006</ele>
        <time>2025-09-13T21:13:12+02:00</time>
      </trkpt>
      <trkpt lat="42.78638" lon="1.33628">
        <ele>905.6006</ele>
        <time>2025-09-13T21:13:16+02:00</time>
      </trkpt>
      <trkpt lat="42.78638" lon="1.33628">
        <ele>905.6006</ele>
        <time>2025-09-13T21:13:17+02:00</time>
      </trkpt>
      <trkpt lat="42.78642" lon="1.33626">
        <ele>901.9004</ele>
        <time>2025-09-13T21:13:21+02:00</time>
      </trkpt>
      <trkpt lat="42.78642" lon="1.33625">
        <ele>901.9004</ele>
        <time>2025-09-13T21:13:22+02:00</time>
      </trkpt>
      <trkpt lat="42.78645" lon="1.33624">
        <ele>901.9004</ele>
        <time>2025-09-13T21:13:26+02:00</time>
      </trkpt>
      <trkpt lat="42.78645" lon="1.33624">
        <ele>901.9004</ele>
        <time>2025-09-13T21:13:27+02:00</time>
      </trkpt>
      <trkpt lat="42.78643" lon="1.33624">
        <ele>901.9004</ele>
        <time>2025-09-13T21:13:31+02:00</time>
      </trkpt>
      <trkpt lat="42.78643" lon="1.33624">
        <ele>901.9004</ele>
        <time>2025-09-13T21:13:32+02:00</time>
      </trkpt>
      <trkpt lat="42.78647" lon="1.3362">
        <ele>899.2002</ele>
        <time>2025-09-13T21:13:36+02:00</time>
      </trkpt>
      <trkpt lat="42.78647" lon="1.33619">
        <ele>899.2002</ele>
        <time>2025-09-13T21:13:37+02:00</time>
      </trkpt>
      <trkpt lat="42.7865" lon="1.33614">
        <ele>899.2002</ele>
        <time>2025-09-13T21:13:41+02:00</time>
      </trkpt>
      <trkpt lat="42.7865" lon="1.33612">
        <ele>900.2002</ele>
        <time>2025-09-13T21:13:42+02:00</time>
      </trkpt>
      <trkpt lat="42.78652" lon="1.3361">
        <ele>896.5</ele>
        <time>2025-09-13T21:13:46+02:00</time>
      </trkpt>
      <trkpt lat="42.78653" lon="1.33609">
        <ele>896.5</ele>
        <time>2025-09-13T21:13:47+02:00</time>
      </trkpt>
      <trkpt lat="42.78656" lon="1.33606">
        <ele>896.5</ele>
        <time>2025-09-13T21:13:51+02:00</time>
      </trkpt>
      <trkpt lat="42.78657" lon="1.33605">
        <ele>896.5</ele>
        <time>2025-09-13T21:13:52+02:00</time>
      </trkpt>
      <trkpt lat="42.7866" lon="1.33603">
        <ele>893.7998</ele>
        <time>2025-09-13T21:13:56+02:00</time>
      </trkpt>
      <trkpt lat="42.78661" lon="1.33602">
        <ele>893.7998</ele>
        <time>2025-09-13T21:13:57+02:00</time>
      </trkpt>
      <trkpt lat="42.78664" lon="1.336">
        <ele>893.7998</ele>
        <time>2025-09-13T21:14:01+02:00</time>
      </trkpt>
      <trkpt lat="42.78665" lon="1.336">
        <ele>890</ele>
        <time>2025-09-13T21:14:02+02:00</time>
      </trkpt>
      <trkpt lat="42.78668" lon="1.33598">
        <ele>890</ele>
        <time>2025-09-13T21:14:06+02:00</time>
      </trkpt>
      <trkpt lat="42.78669" lon="1.33597">
        <ele>890</ele>
        <time>2025-09-13T21:14:07+02:00</time>
      </trkpt>
      <trkpt lat="42.78672" lon="1.33595">
        <ele>887.1006</ele>
        <time>2025-09-13T21:14:11+02:00</time>
      </trkpt>
      <trkpt lat="42.78672" lon="1.33594">
        <ele>887.1006</ele>
        <time>2025-09-13T21:14:12+02:00</time>
      </trkpt>
      <trkpt lat="42.78675" lon="1.33592">
        <ele>887.1006</ele>
        <time>2025-09-13T21:14:16+02:00</time>
      </trkpt>
      <trkpt lat="42.78674" lon="1.33592">
        <ele>887.1006</ele>
        <time>2025-09-13T21:14:17+02:00</time>
      </trkpt>
      <trkpt lat="42.78673" lon="1.33592">
        <ele>887.1006</ele>
        <time>2025-09-13T21:14:21+02:00</time>
      </trkpt>
      <trkpt lat="42.78673" lon="1.33592">
        <ele>887.1006</ele>
        <time>2025-09-13T21:14:22+02:00</time>
      </trkpt>
      <trkpt lat="42.78673" lon="1.33591">
        <ele>887.1006</ele>
        <time>2025-09-13T21:14:26+02:00</time>
      </trkpt>
      <trkpt lat="42.78674" lon="1.33589">
        <ele>887.1006</ele>
        <time>2025-09-13T21:14:27+02:00</time>
      </trkpt>
      <trkpt lat="42.78677" lon="1.33585">
        <ele>884.2998</ele>
        <time>2025-09-13T21:14:31+02:00</time>
      </trkpt>
      <trkpt lat="42.78678" lon="1.33584">
        <ele>884.2998</ele>
        <time>2025-09-13T21:14:32+02:00</time>
      </trkpt>
      <trkpt lat="42.7868" lon="1.3358">
        <ele>884.2998</ele>
        <time>2025-09-13T21:14:36+02:00</time>
      </trkpt>
      <trkpt lat="42.7868" lon="1.33579">
        <ele>884.2998</ele>
        <time>2025-09-13T21:14:37+02:00</time>
      </trkpt>
      <trkpt lat="42.78682" lon="1.33577">
        <ele>885.4004</ele>
        <time>2025-09-13T21:14:41+02:00</time>
      </trkpt>
      <trkpt lat="42.78682" lon="1.33576">
        <ele>885.4004</ele>
        <time>2025-09-13T21:14:42+02:00</time>
      </trkpt>
      <trkpt lat="42.78683" lon="1.33574">
        <ele>885.4004</ele>
        <time>2025-09-13T21:14:46+02:00</time>
      </trkpt>
      <trkpt lat="42.78684" lon="1.33574">
        <ele>881.5</ele>
        <time>2025-09-13T21:14:47+02:00</time>
      </trkpt>
      <trkpt lat="42.78685" lon="1.3357">
        <ele>881.5</ele>
        <time>2025-09-13T21:14:51+02:00</time>
      </trkpt>
      <trkpt lat="42.78685" lon="1.33569">
        <ele>882.7002</ele>
        <time>2025-09-13T21:14:52+02:00</time>
      </trkpt>
      <trkpt lat="42.78686" lon="1.33565">
        <ele>882.7002</ele>
        <time>2025-09-13T21:14:56+02:00</time>
      </trkpt>
      <trkpt lat="42.78686" lon="1.33565">
        <ele>882.7002</ele>
        <time>2025-09-13T21:14:57+02:00</time>
      </trkpt>
      <trkpt lat="42.78686" lon="1.33566">
        <ele>882.7002</ele>
        <time>2025-09-13T21:15:01+02:00</time>
      </trkpt>
      <trkpt lat="42.78685" lon="1.33566">
        <ele>882.7002</ele>
        <time>2025-09-13T21:15:02+02:00</time>
      </trkpt>
      <trkpt lat="42.78685" lon="1.33567">
        <ele>882.7002</ele>
        <time>2025-09-13T21:15:06+02:00</time>
      </trkpt>
      <trkpt lat="42.78685" lon="1.33567">
        <ele>882.7002</ele>
        <time>2025-09-13T21:15:07+02:00</time>
      </trkpt>
      <trkpt lat="42.78686" lon="1.33565">
        <ele>882.7002</ele>
        <time>2025-09-13T21:15:11+02:00</time>
      </trkpt>
      <trkpt lat="42.78686" lon="1.33564">
        <ele>882.7002</ele>
        <time>2025-09-13T21:15:12+02:00</time>
      </trkpt>
      <trkpt lat="42.78688" lon="1.33561">
        <ele>882.7002</ele>
        <time>2025-09-13T21:15:16+02:00</time>
      </trkpt>
      <trkpt lat="42.78688" lon="1.3356">
        <ele>883.7998</ele>
        <time>2025-09-13T21:15:17+02:00</time>
      </trkpt>
      <trkpt lat="42.78689" lon="1.33558">
        <ele>883.7998</ele>
        <time>2025-09-13T21:15:21+02:00</time>
      </trkpt>
      <trkpt lat="42.78689" lon="1.33557">
        <ele>883.7998</ele>
        <time>2025-09-13T21:15:22+02:00</time>
      </trkpt>
      <trkpt lat="42.7869" lon="1.33556">
        <ele>883.7998</ele>
        <time>2025-09-13T21:15:26+02:00</time>
      </trkpt>
      <trkpt lat="42.7869" lon="1.33555">
        <ele>879.7998</ele>
        <time>2025-09-13T21:15:27+02:00</time>
      </trkpt>
      <trkpt lat="42.78693" lon="1.33553">
        <ele>879.7998</ele>
        <time>2025-09-13T21:15:31+02:00</time>
      </trkpt>
      <trkpt lat="42.78694" lon="1.33552">
        <ele>880.7998</ele>
        <time>2025-09-13T21:15:32+02:00</time>
      </trkpt>
      <trkpt lat="42.78697" lon="1.33549">
        <ele>876.6006</ele>
        <time>2025-09-13T21:15:36+02:00</time>
      </trkpt>
      <trkpt lat="42.78698" lon="1.33549">
        <ele>876.6006</ele>
        <time>2025-09-13T21:15:37+02:00</time>
      </trkpt>
      <trkpt lat="42.787" lon="1.33546">
        <ele>876.6006</ele>
        <time>2025-09-13T21:15:41+02:00</time>
      </trkpt>
      <trkpt lat="42.78701" lon="1.33546">
        <ele>876.6006</ele>
        <time>2025-09-13T21:15:42+02:00</time>
      </trkpt>
      <trkpt lat="42.78703" lon="1.33543">
        <ele>873.1006</ele>
        <time>2025-09-13T21:15:46+02:00</time>
      </trkpt>
      <trkpt lat="42.78703" lon="1.33543">
        <ele>873.1006</ele>
        <time>2025-09-13T21:15:47+02:00</time>
      </trkpt>
      <trkpt lat="42.78705" lon="1.33539">
        <ele>873.1006</ele>
        <time>2025-09-13T21:15:51+02:00</time>
      </trkpt>
      <trkpt lat="42.78705" lon="1.33538">
        <ele>873.1006</ele>
        <time>2025-09-13T21:15:52+02:00</time>
      </trkpt>
      <trkpt lat="42.78706" lon="1.33535">
        <ele>874</ele>
        <time>2025-09-13T21:15:56+02:00</time>
      </trkpt>
      <trkpt lat="42.78707" lon="1.33534">
        <ele>874</ele>
        <time>2025-09-13T21:15:57+02:00</time>
      </trkpt>
      <trkpt lat="42.78709" lon="1.33532">
        <ele>869.4004</ele>
        <time>2025-09-13T21:16:01+02:00</time>
      </trkpt>
      <trkpt lat="42.7871" lon="1.33532">
        <ele>869.4004</ele>
        <time>2025-09-13T21:16:02+02:00</time>
      </trkpt>
      <trkpt lat="42.78711" lon="1.33531">
        <ele>869.4004</ele>
        <time>2025-09-13T21:16:06+02:00</time>
      </trkpt>
      <trkpt lat="42.78711" lon="1.33531">
        <ele>869.4004</ele>
        <time>2025-09-13T21:16:07+02:00</time>
      </trkpt>
      <trkpt lat="42.78712" lon="1.3353">
        <ele>869.4004</ele>
        <time>2025-09-13T21:16:11+02:00</time>
      </trkpt>
      <trkpt lat="42.78712" lon="1.3353">
        <ele>869.4004</ele>
        <time>2025-09-13T21:16:12+02:00</time>
      </trkpt>
      <trkpt lat="42.78714" lon="1.33529">
        <ele>869.4004</ele>
        <time>2025-09-13T21:16:16+02:00</time>
      </trkpt>
      <trkpt lat="42.78715" lon="1.33528">
        <ele>864.7998</ele>
        <time>2025-09-13T21:16:17+02:00</time>
      </trkpt>
      <trkpt lat="42.78718" lon="1.33522">
        <ele>865.9004</ele>
        <time>2025-09-13T21:16:21+02:00</time>
      </trkpt>
      <trkpt lat="42.78718" lon="1.33521">
        <ele>865.9004</ele>
        <time>2025-09-13T21:16:22+02:00</time>
      </trkpt>
      <trkpt lat="42.7872" lon="1.33522">
        <ele>865.9004</ele>
        <time>2025-09-13T21:16:26+02:00</time>
      </trkpt>
      <trkpt lat="42.7872" lon="1.33522">
        <ele>865.9004</ele>
        <time>2025-09-13T21:16:27+02:00</time>
      </trkpt>
      <trkpt lat="42.78719" lon="1.33521">
        <ele>865.9004</ele>
        <time>2025-09-13T21:16:31+02:00</time>
      </trkpt>
      <trkpt lat="42.78719" lon="1.33521">
        <ele>865.9004</ele>
        <time>2025-09-13T21:16:32+02:00</time>
      </trkpt>
      <trkpt lat="42.78722" lon="1.33519">
        <ele>861.2002</ele>
        <time>2025-09-13T21:16:36+02:00</time>
      </trkpt>
      <trkpt lat="42.78723" lon="1.33519">
        <ele>861.2002</ele>
        <time>2025-09-13T21:16:37+02:00</time>
      </trkpt>
      <trkpt lat="42.78725" lon="1.33516">
        <ele>862.4004</ele>
        <time>2025-09-13T21:16:41+02:00</time>
      </trkpt>
      <trkpt lat="42.78726" lon="1.33515">
        <ele>862.4004</ele>
        <time>2025-09-13T21:16:42+02:00</time>
      </trkpt>
      <trkpt lat="42.78726" lon="1.33515">
        <ele>862.4004</ele>
        <time>2025-09-13T21:16:46+02:00</time>
      </trkpt>
      <trkpt lat="42.78725" lon="1.33515">
        <ele>862.4004</ele>
        <time>2025-09-13T21:16:47+02:00</time>
      </trkpt>
      <trkpt lat="42.78725" lon="1.33515">
        <ele>862.4004</ele>
        <time>2025-09-13T21:16:51+02:00</time>
      </trkpt>
      <trkpt lat="42.78725" lon="1.33515">
        <ele>862.4004</ele>
        <time>2025-09-13T21:16:52+02:00</time>
      </trkpt>
      <trkpt lat="42.78726" lon="1.33511">
        <ele>862.4004</ele>
        <time>2025-09-13T21:16:56+02:00</time>
      </trkpt>
      <trkpt lat="42.78726" lon="1.3351">
        <ele>862.4004</ele>
        <time>2025-09-13T21:16:57+02:00</time>
      </trkpt>
      <trkpt lat="42.78727" lon="1.33506">
        <ele>863.6006</ele>
        <time>2025-09-13T21:17:01+02:00</time>
      </trkpt>
      <trkpt lat="42.78728" lon="1.33506">
        <ele>858.9004</ele>
        <time>2025-09-13T21:17:02+02:00</time>
      </trkpt>
      <trkpt lat="42.7873" lon="1.33504">
        <ele>858.9004</ele>
        <time>2025-09-13T21:17:06+02:00</time>
      </trkpt>
      <trkpt lat="42.78729" lon="1.33504">
        <ele>858.9004</ele>
        <time>2025-09-13T21:17:07+02:00</time>
      </trkpt>
      <trkpt lat="42.7873" lon="1.33501">
        <ele>858.9004</ele>
        <time>2025-09-13T21:17:11+02:00</time>
      </trkpt>
      <trkpt lat="42.7873" lon="1.335">
        <ele>860.2002</ele>
        <time>2025-09-13T21:17:12+02:00</time>
      </trkpt>
      <trkpt lat="42.78731" lon="1.33496">
        <ele>860.2002</ele>
        <time>2025-09-13T21:17:16+02:00</time>
      </trkpt>
      <trkpt lat="42.78732" lon="1.33495">
        <ele>860.2002</ele>
        <time>2025-09-13T21:17:17+02:00</time>
      </trkpt>
      <trkpt lat="42.78734" lon="1.3349">
        <ele>856.7002</ele>
        <time>2025-09-13T21:17:21+02:00</time>
      </trkpt>
      <trkpt lat="42.78735" lon="1.33489">
        <ele>856.7002</ele>
        <time>2025-09-13T21:17:22+02:00</time>
      </trkpt>
      <trkpt lat="42.78738" lon="1.33485">
        <ele>856.7002</ele>
        <time>2025-09-13T21:17:26+02:00</time>
      </trkpt>
      <trkpt lat="42.78738" lon="1.33485">
        <ele>856.7002</ele>
        <time>2025-09-13T21:17:27+02:00</time>
      </trkpt>
      <trkpt lat="42.78742" lon="1.33482">
        <ele>853.2998</ele>
        <time>2025-09-13T21:17:31+02:00</time>
      </trkpt>
      <trkpt lat="42.78743" lon="1.33481">
        <ele>853.2998</ele>
        <time>2025-09-13T21:17:32+02:00</time>
      </trkpt>
      <trkpt lat="42.78744" lon="1.33483">
        <ele>853.2998</ele>
        <time>2025-09-13T21:17:36+02:00</time>
      </trkpt>
      <trkpt lat="42.78744" lon="1.33483">
        <ele>853.2998</ele>
        <time>2025-09-13T21:17:37+02:00</time>
      </trkpt>
      <trkpt lat="42.78745" lon="1.33484">
        <ele>853.2998</ele>
        <time>2025-09-13T21:17:41+02:00</time>
      </trkpt>
      <trkpt lat="42.78746" lon="1.33483">
        <ele>853.2998</ele>
        <time>2025-09-13T21:17:42+02:00</time>
      </trkpt>
      <trkpt lat="42.7875" lon="1.33476">
        <ele>848.2998</ele>
        <time>2025-09-13T21:17:46+02:00</time>
      </trkpt>
      <trkpt lat="42.78751" lon="1.33474">
        <ele>849.7998</ele>
        <time>2025-09-13T21:17:47+02:00</time>
      </trkpt>
      <trkpt lat="42.78754" lon="1.33468">
        <ele>844.7002</ele>
        <time>2025-09-13T21:17:51+02:00</time>
      </trkpt>
      <trkpt lat="42.78755" lon="1.33468">
        <ele>844.7002</ele>
        <time>2025-09-13T21:17:52+02:00</time>
      </trkpt>
      <trkpt lat="42.78758" lon="1.33465">
        <ele>846.2998</ele>
        <time>2025-09-13T21:17:56+02:00</time>
      </trkpt>
      <trkpt lat="42.78758" lon="1.33464">
        <ele>846.2998</ele>
        <time>2025-09-13T21:17:57+02:00</time>
      </trkpt>
      <trkpt lat="42.78761" lon="1.33463">
        <ele>841.2002</ele>
        <time>2025-09-13T21:18:01+02:00</time>
      </trkpt>
      <trkpt lat="42.78762" lon="1.33462">
        <ele>841.2002</ele>
        <time>2025-09-13T21:18:02+02:00</time>
      </trkpt>
      <trkpt lat="42.78766" lon="1.3346">
        <ele>836</ele>
        <time>2025-09-13T21:18:06+02:00</time>
      </trkpt>
      <trkpt lat="42.78767" lon="1.3346">
        <ele>836</ele>
        <time>2025-09-13T21:18:07+02:00</time>
      </trkpt>
      <trkpt lat="42.78768" lon="1.33457">
        <ele>837.7002</ele>
        <time>2025-09-13T21:18:12+02:00</time>
      </trkpt>
      <trkpt lat="42.78769" lon="1.33456">
        <ele>837.7002</ele>
        <time>2025-09-13T21:18:13+02:00</time>
      </trkpt>
      <trkpt lat="42.7877" lon="1.33454">
        <ele>837.7002</ele>
        <time>2025-09-13T21:18:17+02:00</time>
      </trkpt>
      <trkpt lat="42.78771" lon="1.33453">
        <ele>837.7002</ele>
        <time>2025-09-13T21:18:18+02:00</time>
      </trkpt>
      <trkpt lat="42.78773" lon="1.33448">
        <ele>834.4004</ele>
        <time>2025-09-13T21:18:22+02:00</time>
      </trkpt>
      <trkpt lat="42.78773" lon="1.33447">
        <ele>834.4004</ele>
        <time>2025-09-13T21:18:23+02:00</time>
      </trkpt>
      <trkpt lat="42.78774" lon="1.33442">
        <ele>834.4004</ele>
        <time>2025-09-13T21:18:27+02:00</time>
      </trkpt>
      <trkpt lat="42.78774" lon="1.3344">
        <ele>836.2998</ele>
        <time>2025-09-13T21:18:28+02:00</time>
      </trkpt>
      <trkpt lat="42.78775" lon="1.33436">
        <ele>836.2998</ele>
        <time>2025-09-13T21:18:32+02:00</time>
      </trkpt>
      <trkpt lat="42.78775" lon="1.33435">
        <ele>836.2998</ele>
        <time>2025-09-13T21:18:33+02:00</time>
      </trkpt>
      <trkpt lat="42.78776" lon="1.33435">
        <ele>836.2998</ele>
        <time>2025-09-13T21:18:37+02:00</time>
      </trkpt>
      <trkpt lat="42.78776" lon="1.33436">
        <ele>836.2998</ele>
        <time>2025-09-13T21:18:38+02:00</time>
      </trkpt>
      <trkpt lat="42.78775" lon="1.33437">
        <ele>836.2998</ele>
        <time>2025-09-13T21:18:42+02:00</time>
      </trkpt>
      <trkpt lat="42.78775" lon="1.33437">
        <ele>836.2998</ele>
        <time>2025-09-13T21:18:43+02:00</time>
      </trkpt>
      <trkpt lat="42.78775" lon="1.33436">
        <ele>836.2998</ele>
        <time>2025-09-13T21:18:47+02:00</time>
      </trkpt>
      <trkpt lat="42.78775" lon="1.33436">
        <ele>836.2998</ele>
        <time>2025-09-13T21:18:48+02:00</time>
      </trkpt>
      <trkpt lat="42.78774" lon="1.33436">
        <ele>836.2998</ele>
        <time>2025-09-13T21:18:52+02:00</time>
      </trkpt>
      <trkpt lat="42.78774" lon="1.33435">
        <ele>836.2998</ele>
        <time>2025-09-13T21:18:53+02:00</time>
      </trkpt>
      <trkpt lat="42.78774" lon="1.33435">
        <ele>836.2998</ele>
        <time>2025-09-13T21:18:57+02:00</time>
      </trkpt>
      <trkpt lat="42.78773" lon="1.33435">
        <ele>836.2998</ele>
        <time>2025-09-13T21:18:58+02:00</time>
      </trkpt>
      <trkpt lat="42.78771" lon="1.33436">
        <ele>841.2998</ele>
        <time>2025-09-13T21:19:02+02:00</time>
      </trkpt>
      <trkpt lat="42.78771" lon="1.33436">
        <ele>841.2998</ele>
        <time>2025-09-13T21:19:03+02:00</time>
      </trkpt>
      <trkpt lat="42.78766" lon="1.33435">
        <ele>841.2998</ele>
        <time>2025-09-13T21:19:07+02:00</time>
      </trkpt>
      <trkpt lat="42.78765" lon="1.33434">
        <ele>846.4004</ele>
        <time>2025-09-13T21:19:08+02:00</time>
      </trkpt>
      <trkpt lat="42.78765" lon="1.33434">
        <ele>846.4004</ele>
        <time>2025-09-13T21:19:12+02:00</time>
      </trkpt>
      <trkpt lat="42.78764" lon="1.33434">
        <ele>846.4004</ele>
        <time>2025-09-13T21:19:13+02:00</time>
      </trkpt>
      <trkpt lat="42.78764" lon="1.33435">
        <ele>846.4004</ele>
        <time>2025-09-13T21:19:17+02:00</time>
      </trkpt>
      <trkpt lat="42.78764" lon="1.33435">
        <ele>846.4004</ele>
        <time>2025-09-13T21:19:18+02:00</time>
      </trkpt>
      <trkpt lat="42.78764" lon="1.33434">
        <ele>846.4004</ele>
        <time>2025-09-13T21:19:22+02:00</time>
      </trkpt>
      <trkpt lat="42.78764" lon="1.33435">
        <ele>846.4004</ele>
        <time>2025-09-13T21:19:23+02:00</time>
      </trkpt>
      <trkpt lat="42.78766" lon="1.33434">
        <ele>841.2998</ele>
        <time>2025-09-13T21:19:27+02:00</time>
      </trkpt>
      <trkpt lat="42.78766" lon="1.33434">
        <ele>841.2998</ele>
        <time>2025-09-13T21:19:28+02:00</time>
      </trkpt>
      <trkpt lat="42.78766" lon="1.33432">
        <ele>843.2998</ele>
        <time>2025-09-13T21:19:32+02:00</time>
      </trkpt>
      <trkpt lat="42.78766" lon="1.33431">
        <ele>843.2998</ele>
        <time>2025-09-13T21:19:33+02:00</time>
      </trkpt>
      <trkpt lat="42.78767" lon="1.33425">
        <ele>843.2998</ele>
        <time>2025-09-13T21:19:37+02:00</time>
      </trkpt>
      <trkpt lat="42.78767" lon="1.33423">
        <ele>845.2998</ele>
        <time>2025-09-13T21:19:38+02:00</time>
      </trkpt>
      <trkpt lat="42.78768" lon="1.33416">
        <ele>845.2998</ele>
        <time>2025-09-13T21:19:42+02:00</time>
      </trkpt>
      <trkpt lat="42.78768" lon="1.33414">
        <ele>847.2002</ele>
        <time>2025-09-13T21:19:43+02:00</time>
      </trkpt>
      <trkpt lat="42.78771" lon="1.33408">
        <ele>847.2002</ele>
        <time>2025-09-13T21:19:47+02:00</time>
      </trkpt>
      <trkpt lat="42.78771" lon="1.33407">
        <ele>849.2002</ele>
        <time>2025-09-13T21:19:48+02:00</time>
      </trkpt>
      <trkpt lat="42.78773" lon="1.33402">
        <ele>844.1006</ele>
        <time>2025-09-13T21:19:52+02:00</time>
      </trkpt>
      <trkpt lat="42.78773" lon="1.33401">
        <ele>844.1006</ele>
        <time>2025-09-13T21:19:53+02:00</time>
      </trkpt>
      <trkpt lat="42.78777" lon="1.33397">
        <ele>846.1006</ele>
        <time>2025-09-13T21:19:57+02:00</time>
      </trkpt>
      <trkpt lat="42.78778" lon="1.33397">
        <ele>846.1006</ele>
        <time>2025-09-13T21:19:58+02:00</time>
      </trkpt>
      <trkpt lat="42.7878" lon="1.33394">
        <ele>840.9004</ele>
        <time>2025-09-13T21:20:02+02:00</time>
      </trkpt>
      <trkpt lat="42.7878" lon="1.33393">
        <ele>840.9004</ele>
        <time>2025-09-13T21:20:03+02:00</time>
      </trkpt>
      <trkpt lat="42.78782" lon="1.33389">
        <ele>842.7998</ele>
        <time>2025-09-13T21:20:07+02:00</time>
      </trkpt>
      <trkpt lat="42.78783" lon="1.33388">
        <ele>842.7998</ele>
        <time>2025-09-13T21:20:08+02:00</time>
      </trkpt>
      <trkpt lat="42.78785" lon="1.33384">
        <ele>837.5</ele>
        <time>2025-09-13T21:20:12+02:00</time>
      </trkpt>
      <trkpt lat="42.78785" lon="1.33383">
        <ele>837.5</ele>
        <time>2025-09-13T21:20:13+02:00</time>
      </trkpt>
      <trkpt lat="42.78788" lon="1.3338">
        <ele>839.5</ele>
        <time>2025-09-13T21:20:17+02:00</time>
      </trkpt>
      <trkpt lat="42.78788" lon="1.33379">
        <ele>839.5</ele>
        <time>2025-09-13T21:20:18+02:00</time>
      </trkpt>
      <trkpt lat="42.7879" lon="1.33374">
        <ele>839.5</ele>
        <time>2025-09-13T21:20:22+02:00</time>
      </trkpt>
      <trkpt lat="42.7879" lon="1.33373">
        <ele>839.5</ele>
        <time>2025-09-13T21:20:23+02:00</time>
      </trkpt>
      <trkpt lat="42.78792" lon="1.33369">
        <ele>836.2002</ele>
        <time>2025-09-13T21:20:27+02:00</time>
      </trkpt>
      <trkpt lat="42.78792" lon="1.33367">
        <ele>836.2002</ele>
        <time>2025-09-13T21:20:28+02:00</time>
      </trkpt>
      <trkpt lat="42.78793" lon="1.33363">
        <ele>838.2998</ele>
        <time>2025-09-13T21:20:32+02:00</time>
      </trkpt>
      <trkpt lat="42.78794" lon="1.33362">
        <ele>838.2998</ele>
        <time>2025-09-13T21:20:33+02:00</time>
      </trkpt>
      <trkpt lat="42.78796" lon="1.33357">
        <ele>838.2998</ele>
        <time>2025-09-13T21:20:37+02:00</time>
      </trkpt>
      <trkpt lat="42.78796" lon="1.33356">
        <ele>838.2998</ele>
        <time>2025-09-13T21:20:38+02:00</time>
      </trkpt>
      <trkpt lat="42.78798" lon="1.3335">
        <ele>835</ele>
        <time>2025-09-13T21:20:42+02:00</time>
      </trkpt>
      <trkpt lat="42.78799" lon="1.33349">
        <ele>835</ele>
        <time>2025-09-13T21:20:43+02:00</time>
      </trkpt>
      <trkpt lat="42.788" lon="1.33347">
        <ele>835</ele>
        <time>2025-09-13T21:20:47+02:00</time>
      </trkpt>
      <trkpt lat="42.788" lon="1.33346">
        <ele>837.2002</ele>
        <time>2025-09-13T21:20:48+02:00</time>
      </trkpt>
      <trkpt lat="42.78801" lon="1.33345">
        <ele>837.2002</ele>
        <time>2025-09-13T21:20:52+02:00</time>
      </trkpt>
      <trkpt lat="42.78802" lon="1.33345">
        <ele>837.2002</ele>
        <time>2025-09-13T21:20:53+02:00</time>
      </trkpt>
      <trkpt lat="42.78802" lon="1.33351">
        <ele>835</ele>
        <time>2025-09-13T21:20:57+02:00</time>
      </trkpt>
      <trkpt lat="42.78801" lon="1.33353">
        <ele>835</ele>
        <time>2025-09-13T21:20:58+02:00</time>
      </trkpt>
      <trkpt lat="42.78795" lon="1.33361">
        <ele>838.2998</ele>
        <time>2025-09-13T21:21:02+02:00</time>
      </trkpt>
      <trkpt lat="42.78793" lon="1.33363">
        <ele>838.2998</ele>
        <time>2025-09-13T21:21:03+02:00</time>
      </trkpt>
      <trkpt lat="42.78788" lon="1.33368">
        <ele>841.5</ele>
        <time>2025-09-13T21:21:07+02:00</time>
      </trkpt>
      <trkpt lat="42.78787" lon="1.3337">
        <ele>841.5</ele>
        <time>2025-09-13T21:21:08+02:00</time>
      </trkpt>
      <trkpt lat="42.78785" lon="1.33375">
        <ele>839.5</ele>
        <time>2025-09-13T21:21:12+02:00</time>
      </trkpt>
      <trkpt lat="42.78784" lon="1.33376">
        <ele>844.7002</ele>
        <time>2025-09-13T21:21:13+02:00</time>
      </trkpt>
      <trkpt lat="42.78782" lon="1.3338">
        <ele>844.7002</ele>
        <time>2025-09-13T21:21:17+02:00</time>
      </trkpt>
      <trkpt lat="42.78782" lon="1.33379">
        <ele>844.7002</ele>
        <time>2025-09-13T21:21:18+02:00</time>
      </trkpt>
      <trkpt lat="42.78783" lon="1.33376">
        <ele>844.7002</ele>
        <time>2025-09-13T21:21:22+02:00</time>
      </trkpt>
      <trkpt lat="42.78784" lon="1.33376">
        <ele>844.7002</ele>
        <time>2025-09-13T21:21:23+02:00</time>
      </trkpt>
      <trkpt lat="42.78784" lon="1.33375">
        <ele>844.7002</ele>
        <time>2025-09-13T21:21:27+02:00</time>
      </trkpt>
      <trkpt lat="42.78784" lon="1.33375">
        <ele>844.7002</ele>
        <time>2025-09-13T21:21:28+02:00</time>
      </trkpt>
      <trkpt lat="42.78785" lon="1.33375">
        <ele>839.5</ele>
        <time>2025-09-13T21:21:32+02:00</time>
      </trkpt>
      <trkpt lat="42.78785" lon="1.33375">
        <ele>839.5</ele>
        <time>2025-09-13T21:21:33+02:00</time>
      </trkpt>
      <trkpt lat="42.78785" lon="1.33376">
        <ele>839.5</ele>
        <time>2025-09-13T21:21:37+02:00</time>
      </trkpt>
      <trkpt lat="42.78785" lon="1.33376">
        <ele>839.5</ele>
        <time>2025-09-13T21:21:38+02:00</time>
      </trkpt>
      <trkpt lat="42.78785" lon="1.33377">
        <ele>839.5</ele>
        <time>2025-09-13T21:21:42+02:00</time>
      </trkpt>
      <trkpt lat="42.78785" lon="1.33377">
        <ele>839.5</ele>
        <time>2025-09-13T21:21:43+02:00</time>
      </trkpt>
      <trkpt lat="42.78784" lon="1.33377">
        <ele>844.7002</ele>
        <time>2025-09-13T21:21:47+02:00</time>
      </trkpt>
      <trkpt lat="42.78784" lon="1.33378">
        <ele>844.7002</ele>
        <time>2025-09-13T21:21:48+02:00</time>
      </trkpt>
      <trkpt lat="42.78782" lon="1.33384">
        <ele>842.7998</ele>
        <time>2025-09-13T21:21:52+02:00</time>
      </trkpt>
      <trkpt lat="42.78782" lon="1.33386">
        <ele>842.7998</ele>
        <time>2025-09-13T21:21:53+02:00</time>
      </trkpt>
      <trkpt lat="42.78781" lon="1.33392">
        <ele>840.9004</ele>
        <time>2025-09-13T21:21:57+02:00</time>
      </trkpt>
      <trkpt lat="42.78781" lon="1.33393">
        <ele>840.9004</ele>
        <time>2025-09-13T21:21:58+02:00</time>
      </trkpt>
      <trkpt lat="42.78781" lon="1.33399">
        <ele>839</ele>
        <time>2025-09-13T21:22:02+02:00</time>
      </trkpt>
      <trkpt lat="42.78781" lon="1.334">
        <ele>839</ele>
        <time>2025-09-13T21:22:03+02:00</time>
      </trkpt>
      <trkpt lat="42.78781" lon="1.33403">
        <ele>839</ele>
        <time>2025-09-13T21:22:07+02:00</time>
      </trkpt>
      <trkpt lat="42.78781" lon="1.33403">
        <ele>839</ele>
        <time>2025-09-13T21:22:08+02:00</time>
      </trkpt>
      <trkpt lat="42.78781" lon="1.33405">
        <ele>839</ele>
        <time>2025-09-13T21:22:12+02:00</time>
      </trkpt>
      <trkpt lat="42.78781" lon="1.33406">
        <ele>839</ele>
        <time>2025-09-13T21:22:13+02:00</time>
      </trkpt>
      <trkpt lat="42.7878" lon="1.33412">
        <ele>837.1006</ele>
        <time>2025-09-13T21:22:17+02:00</time>
      </trkpt>
      <trkpt lat="42.7878" lon="1.33413">
        <ele>837.1006</ele>
        <time>2025-09-13T21:22:18+02:00</time>
      </trkpt>
      <trkpt lat="42.7878" lon="1.33418">
        <ele>835.1006</ele>
        <time>2025-09-13T21:22:22+02:00</time>
      </trkpt>
      <trkpt lat="42.78779" lon="1.33419">
        <ele>835.1006</ele>
        <time>2025-09-13T21:22:23+02:00</time>
      </trkpt>
      <trkpt lat="42.78777" lon="1.33424">
        <ele>840.2002</ele>
        <time>2025-09-13T21:22:27+02:00</time>
      </trkpt>
      <trkpt lat="42.78777" lon="1.33424">
        <ele>838.2002</ele>
        <time>2025-09-13T21:22:28+02:00</time>
      </trkpt>
      <trkpt lat="42.78775" lon="1.33428">
        <ele>838.2002</ele>
        <time>2025-09-13T21:22:32+02:00</time>
      </trkpt>
      <trkpt lat="42.78775" lon="1.33429">
        <ele>838.2002</ele>
        <time>2025-09-13T21:22:33+02:00</time>
      </trkpt>
      <trkpt lat="42.78774" lon="1.33434">
        <ele>836.2998</ele>
        <time>2025-09-13T21:22:37+02:00</time>
      </trkpt>
      <trkpt lat="42.78774" lon="1.33435">
        <ele>836.2998</ele>
        <time>2025-09-13T21:22:38+02:00</time>
      </trkpt>
      <trkpt lat="42.78774" lon="1.33439">
        <ele>836.2998</ele>
        <time>2025-09-13T21:22:42+02:00</time>
      </trkpt>
      <trkpt lat="42.78773" lon="1.3344">
        <ele>836.2998</ele>
        <time>2025-09-13T21:22:43+02:00</time>
      </trkpt>
      <trkpt lat="42.78773" lon="1.33445">
        <ele>834.4004</ele>
        <time>2025-09-13T21:22:47+02:00</time>
      </trkpt>
      <trkpt lat="42.78773" lon="1.33446">
        <ele>834.4004</ele>
        <time>2025-09-13T21:22:48+02:00</time>
      </trkpt>
      <trkpt lat="42.78773" lon="1.33451">
        <ele>832.6006</ele>
        <time>2025-09-13T21:22:52+02:00</time>
      </trkpt>
      <trkpt lat="42.78773" lon="1.33452">
        <ele>832.6006</ele>
        <time>2025-09-13T21:22:53+02:00</time>
      </trkpt>
      <trkpt lat="42.78773" lon="1.33454">
        <ele>832.6006</ele>
        <time>2025-09-13T21:22:57+02:00</time>
      </trkpt>
      <trkpt lat="42.78774" lon="1.33455">
        <ele>832.6006</ele>
        <time>2025-09-13T21:22:58+02:00</time>
      </trkpt>
      <trkpt lat="42.78775" lon="1.3346">
        <ele>830.9004</ele>
        <time>2025-09-13T21:23:02+02:00</time>
      </trkpt>
      <trkpt lat="42.78776" lon="1.33461">
        <ele>830.9004</ele>
        <time>2025-09-13T21:23:03+02:00</time>
      </trkpt>
      <trkpt lat="42.78779" lon="1.33464">
        <ele>825.7998</ele>
        <time>2025-09-13T21:23:07+02:00</time>
      </trkpt>
      <trkpt lat="42.7878" lon="1.33465">
        <ele>825.7998</ele>
        <time>2025-09-13T21:23:08+02:00</time>
      </trkpt>
      <trkpt lat="42.78781" lon="1.3347">
        <ele>824.1006</ele>
        <time>2025-09-13T21:23:12+02:00</time>
      </trkpt>
      <trkpt lat="42.78781" lon="1.3347">
        <ele>824.1006</ele>
        <time>2025-09-13T21:23:13+02:00</time>
      </trkpt>
      <trkpt lat="42.78781" lon="1.33474">
        <ele>824.1006</ele>
        <time>2025-09-13T21:23:17+02:00</time>
      </trkpt>
      <trkpt lat="42.78781" lon="1.33475">
        <ele>824.1006</ele>
        <time>2025-09-13T21:23:18+02:00</time>
      </trkpt>
      <trkpt lat="42.78781" lon="1.33479">
        <ele>822.6006</ele>
        <time>2025-09-13T21:23:22+02:00</time>
      </trkpt>
      <trkpt lat="42.7878" lon="1.3348">
        <ele>822.6006</ele>
        <time>2025-09-13T21:23:23+02:00</time>
      </trkpt>
      <trkpt lat="42.7878" lon="1.33484">
        <ele>821.2002</ele>
        <time>2025-09-13T21:23:27+02:00</time>
      </trkpt>
      <trkpt lat="42.7878" lon="1.33485">
        <ele>821.2002</ele>
        <time>2025-09-13T21:23:28+02:00</time>
      </trkpt>
      <trkpt lat="42.78782" lon="1.33484">
        <ele>821.2002</ele>
        <time>2025-09-13T21:23:32+02:00</time>
      </trkpt>
      <trkpt lat="42.78782" lon="1.33484">
        <ele>822.6006</ele>
        <time>2025-09-13T21:23:33+02:00</time>
      </trkpt>
      <trkpt lat="42.78782" lon="1.33483">
        <ele>822.6006</ele>
        <time>2025-09-13T21:23:37+02:00</time>
      </trkpt>
      <trkpt lat="42.78783" lon="1.33483">
        <ele>822.6006</ele>
        <time>2025-09-13T21:23:38+02:00</time>
      </trkpt>
      <trkpt lat="42.78787" lon="1.33479">
        <ele>817.6006</ele>
        <time>2025-09-13T21:23:42+02:00</time>
      </trkpt>
      <trkpt lat="42.78788" lon="1.33478">
        <ele>817.6006</ele>
        <time>2025-09-13T21:23:43+02:00</time>
      </trkpt>
      <trkpt lat="42.78792" lon="1.33474">
        <ele>814.1006</ele>
        <time>2025-09-13T21:23:47+02:00</time>
      </trkpt>
      <trkpt lat="42.78793" lon="1.33473">
        <ele>814.1006</ele>
        <time>2025-09-13T21:23:48+02:00</time>
      </trkpt>
      <trkpt lat="42.78797" lon="1.3347">
        <ele>809.2998</ele>
        <time>2025-09-13T21:23:52+02:00</time>
      </trkpt>
      <trkpt lat="42.78798" lon="1.3347">
        <ele>809.2998</ele>
        <time>2025-09-13T21:23:53+02:00</time>
      </trkpt>
      <trkpt lat="42.78801" lon="1.33468">
        <ele>809.2998</ele>
        <time>2025-09-13T21:23:57+02:00</time>
      </trkpt>
      <trkpt lat="42.78802" lon="1.33467">
        <ele>809.2998</ele>
        <time>2025-09-13T21:23:58+02:00</time>
      </trkpt>
      <trkpt lat="42.78805" lon="1.33464">
        <ele>806.2998</ele>
        <time>2025-09-13T21:24:02+02:00</time>
      </trkpt>
      <trkpt lat="42.78806" lon="1.33463">
        <ele>806.2998</ele>
        <time>2025-09-13T21:24:03+02:00</time>
      </trkpt>
      <trkpt lat="42.78809" lon="1.33459">
        <ele>806.2998</ele>
        <time>2025-09-13T21:24:07+02:00</time>
      </trkpt>
      <trkpt lat="42.78809" lon="1.33458">
        <ele>806.2998</ele>
        <time>2025-09-13T21:24:08+02:00</time>
      </trkpt>
      <trkpt lat="42.78812" lon="1.33455">
        <ele>803.4004</ele>
        <time>2025-09-13T21:24:12+02:00</time>
      </trkpt>
      <trkpt lat="42.78813" lon="1.33454">
        <ele>803.4004</ele>
        <time>2025-09-13T21:24:13+02:00</time>
      </trkpt>
      <trkpt lat="42.78815" lon="1.33452">
        <ele>803.4004</ele>
        <time>2025-09-13T21:24:17+02:00</time>
      </trkpt>
      <trkpt lat="42.78815" lon="1.33451">
        <ele>803.4004</ele>
        <time>2025-09-13T21:24:18+02:00</time>
      </trkpt>
      <trkpt lat="42.78816" lon="1.3345">
        <ele>799</ele>
        <time>2025-09-13T21:24:22+02:00</time>
      </trkpt>
      <trkpt lat="42.78816" lon="1.33451">
        <ele>803.4004</ele>
        <time>2025-09-13T21:24:23+02:00</time>
      </trkpt>
      <trkpt lat="42.78815" lon="1.33451">
        <ele>803.4004</ele>
        <time>2025-09-13T21:24:27+02:00</time>
      </trkpt>
      <trkpt lat="42.78815" lon="1.33451">
        <ele>803.4004</ele>
        <time>2025-09-13T21:24:28+02:00</time>
      </trkpt>
      <trkpt lat="42.78817" lon="1.33447">
        <ele>800.5</ele>
        <time>2025-09-13T21:24:32+02:00</time>
      </trkpt>
      <trkpt lat="42.78818" lon="1.33446">
        <ele>800.5</ele>
        <time>2025-09-13T21:24:33+02:00</time>
      </trkpt>
      <trkpt lat="42.7882" lon="1.33441">
        <ele>800.5</ele>
        <time>2025-09-13T21:24:37+02:00</time>
      </trkpt>
      <trkpt lat="42.7882" lon="1.33441">
        <ele>802</ele>
        <time>2025-09-13T21:24:38+02:00</time>
      </trkpt>
      <trkpt lat="42.7882" lon="1.33439">
        <ele>802</ele>
        <time>2025-09-13T21:24:42+02:00</time>
      </trkpt>
      <trkpt lat="42.7882" lon="1.33439">
        <ele>802</ele>
        <time>2025-09-13T21:24:43+02:00</time>
      </trkpt>
      <trkpt lat="42.7882" lon="1.33437">
        <ele>802</ele>
        <time>2025-09-13T21:24:47+02:00</time>
      </trkpt>
      <trkpt lat="42.7882" lon="1.33436">
        <ele>802</ele>
        <time>2025-09-13T21:24:48+02:00</time>
      </trkpt>
      <trkpt lat="42.78823" lon="1.33427">
        <ele>799.1006</ele>
        <time>2025-09-13T21:24:52+02:00</time>
      </trkpt>
      <trkpt lat="42.78824" lon="1.33425">
        <ele>799.1006</ele>
        <time>2025-09-13T21:24:53+02:00</time>
      </trkpt>
      <trkpt lat="42.78826" lon="1.33421">
        <ele>800.5</ele>
        <time>2025-09-13T21:24:57+02:00</time>
      </trkpt>
      <trkpt lat="42.78826" lon="1.3342">
        <ele>800.5</ele>
        <time>2025-09-13T21:24:58+02:00</time>
      </trkpt>
      <trkpt lat="42.78827" lon="1.33417">
        <ele>800.5</ele>
        <time>2025-09-13T21:25:02+02:00</time>
      </trkpt>
      <trkpt lat="42.78827" lon="1.33416">
        <ele>800.5</ele>
        <time>2025-09-13T21:25:03+02:00</time>
      </trkpt>
      <trkpt lat="42.78829" lon="1.33414">
        <ele>797.5</ele>
        <time>2025-09-13T21:25:07+02:00</time>
      </trkpt>
      <trkpt lat="42.78829" lon="1.33414">
        <ele>797.5</ele>
        <time>2025-09-13T21:25:08+02:00</time>
      </trkpt>
      <trkpt lat="42.78831" lon="1.33414">
        <ele>797.5</ele>
        <time>2025-09-13T21:25:12+02:00</time>
      </trkpt>
      <trkpt lat="42.78831" lon="1.33414">
        <ele>797.5</ele>
        <time>2025-09-13T21:25:13+02:00</time>
      </trkpt>
      <trkpt lat="42.78832" lon="1.33413">
        <ele>797.5</ele>
        <time>2025-09-13T21:25:17+02:00</time>
      </trkpt>
      <trkpt lat="42.78832" lon="1.33413">
        <ele>797.5</ele>
        <time>2025-09-13T21:25:18+02:00</time>
      </trkpt>
      <trkpt lat="42.78834" lon="1.33411">
        <ele>797.5</ele>
        <time>2025-09-13T21:25:22+02:00</time>
      </trkpt>
      <trkpt lat="42.78834" lon="1.3341">
        <ele>797.5</ele>
        <time>2025-09-13T21:25:23+02:00</time>
      </trkpt>
      <trkpt lat="42.78835" lon="1.33407">
        <ele>793.2998</ele>
        <time>2025-09-13T21:25:27+02:00</time>
      </trkpt>
      <trkpt lat="42.78836" lon="1.33407">
        <ele>794.6006</ele>
        <time>2025-09-13T21:25:28+02:00</time>
      </trkpt>
      <trkpt lat="42.78837" lon="1.33402">
        <ele>794.6006</ele>
        <time>2025-09-13T21:25:32+02:00</time>
      </trkpt>
      <trkpt lat="42.78837" lon="1.33401">
        <ele>794.6006</ele>
        <time>2025-09-13T21:25:33+02:00</time>
      </trkpt>
      <trkpt lat="42.78837" lon="1.33398">
        <ele>794.6006</ele>
        <time>2025-09-13T21:25:37+02:00</time>
      </trkpt>
      <trkpt lat="42.78838" lon="1.33398">
        <ele>796</ele>
        <time>2025-09-13T21:25:38+02:00</time>
      </trkpt>
      <trkpt lat="42.78837" lon="1.33398">
        <ele>794.6006</ele>
        <time>2025-09-13T21:25:42+02:00</time>
      </trkpt>
      <trkpt lat="42.78837" lon="1.33398">
        <ele>794.6006</ele>
        <time>2025-09-13T21:25:43+02:00</time>
      </trkpt>
      <trkpt lat="42.78838" lon="1.33396">
        <ele>796</ele>
        <time>2025-09-13T21:25:47+02:00</time>
      </trkpt>
      <trkpt lat="42.78838" lon="1.33395">
        <ele>796</ele>
        <time>2025-09-13T21:25:48+02:00</time>
      </trkpt>
      <trkpt lat="42.7884" lon="1.33391">
        <ele>796</ele>
        <time>2025-09-13T21:25:52+02:00</time>
      </trkpt>
      <trkpt lat="42.7884" lon="1.3339">
        <ele>796</ele>
        <time>2025-09-13T21:25:53+02:00</time>
      </trkpt>
      <trkpt lat="42.7884" lon="1.33384">
        <ele>797.4004</ele>
        <time>2025-09-13T21:25:57+02:00</time>
      </trkpt>
      <trkpt lat="42.7884" lon="1.33383">
        <ele>797.4004</ele>
        <time>2025-09-13T21:25:58+02:00</time>
      </trkpt>
      <trkpt lat="42.78843" lon="1.33379">
        <ele>794.5</ele>
        <time>2025-09-13T21:26:02+02:00</time>
      </trkpt>
      <trkpt lat="42.78844" lon="1.33377">
        <ele>794.5</ele>
        <time>2025-09-13T21:26:03+02:00</time>
      </trkpt>
      <trkpt lat="42.78848" lon="1.33373">
        <ele>790.4004</ele>
        <time>2025-09-13T21:26:07+02:00</time>
      </trkpt>
      <trkpt lat="42.78848" lon="1.33371">
        <ele>791.7998</ele>
        <time>2025-09-13T21:26:08+02:00</time>
      </trkpt>
      <trkpt lat="42.7885" lon="1.33365">
        <ele>791.7998</ele>
        <time>2025-09-13T21:26:12+02:00</time>
      </trkpt>
      <trkpt lat="42.7885" lon="1.33364">
        <ele>791.7998</ele>
        <time>2025-09-13T21:26:13+02:00</time>
      </trkpt>
      <trkpt lat="42.7885" lon="1.3336">
        <ele>793.2998</ele>
        <time>2025-09-13T21:26:17+02:00</time>
      </trkpt>
      <trkpt lat="42.7885" lon="1.33359">
        <ele>793.2998</ele>
        <time>2025-09-13T21:26:18+02:00</time>
      </trkpt>
      <trkpt lat="42.78851" lon="1.33356">
        <ele>793.2998</ele>
        <time>2025-09-13T21:26:22+02:00</time>
      </trkpt>
      <trkpt lat="42.78852" lon="1.33355">
        <ele>793.2998</ele>
        <time>2025-09-13T21:26:23+02:00</time>
      </trkpt>
      <trkpt lat="42.78852" lon="1.33356">
        <ele>793.2998</ele>
        <time>2025-09-13T21:26:27+02:00</time>
      </trkpt>
      <trkpt lat="42.78852" lon="1.33356">
        <ele>793.2998</ele>
        <time>2025-09-13T21:26:28+02:00</time>
      </trkpt>
      <trkpt lat="42.78851" lon="1.33361">
        <ele>793.2998</ele>
        <time>2025-09-13T21:26:32+02:00</time>
      </trkpt>
      <trkpt lat="42.78851" lon="1.33362">
        <ele>793.2998</ele>
        <time>2025-09-13T21:26:33+02:00</time>
      </trkpt>
      <trkpt lat="42.78848" lon="1.33367">
        <ele>791.7998</ele>
        <time>2025-09-13T21:26:37+02:00</time>
      </trkpt>
      <trkpt lat="42.78847" lon="1.33367">
        <ele>791.7998</ele>
        <time>2025-09-13T21:26:38+02:00</time>
      </trkpt>
      <trkpt lat="42.78847" lon="1.33368">
        <ele>796</ele>
        <time>2025-09-13T21:26:42+02:00</time>
      </trkpt>
      <trkpt lat="42.78846" lon="1.33368">
        <ele>796</ele>
        <time>2025-09-13T21:26:43+02:00</time>
      </trkpt>
      <trkpt lat="42.78845" lon="1.33369">
        <ele>796</ele>
        <time>2025-09-13T21:26:47+02:00</time>
      </trkpt>
      <trkpt lat="42.78845" lon="1.3337">
        <ele>796</ele>
        <time>2025-09-13T21:26:48+02:00</time>
      </trkpt>
      <trkpt lat="42.78844" lon="1.3337">
        <ele>796</ele>
        <time>2025-09-13T21:26:52+02:00</time>
      </trkpt>
      <trkpt lat="42.78843" lon="1.3337">
        <ele>796</ele>
        <time>2025-09-13T21:26:53+02:00</time>
      </trkpt>
      <trkpt lat="42.78843" lon="1.3337">
        <ele>796</ele>
        <time>2025-09-13T21:26:57+02:00</time>
      </trkpt>
      <trkpt lat="42.78843" lon="1.3337">
        <ele>796</ele>
        <time>2025-09-13T21:26:58+02:00</time>
      </trkpt>
      <trkpt lat="42.78843" lon="1.33371">
        <ele>796</ele>
        <time>2025-09-13T21:27:02+02:00</time>
      </trkpt>
      <trkpt lat="42.78842" lon="1.33372">
        <ele>796</ele>
        <time>2025-09-13T21:27:03+02:00</time>
      </trkpt>
      <trkpt lat="42.78839" lon="1.33378">
        <ele>798.9004</ele>
        <time>2025-09-13T21:27:07+02:00</time>
      </trkpt>
      <trkpt lat="42.78839" lon="1.33379">
        <ele>798.9004</ele>
        <time>2025-09-13T21:27:08+02:00</time>
      </trkpt>
      <trkpt lat="42.78837" lon="1.33385">
        <ele>797.4004</ele>
        <time>2025-09-13T21:27:12+02:00</time>
      </trkpt>
      <trkpt lat="42.78837" lon="1.33386">
        <ele>797.4004</ele>
        <time>2025-09-13T21:27:13+02:00</time>
      </trkpt>
      <trkpt lat="42.78835" lon="1.33392">
        <ele>796</ele>
        <time>2025-09-13T21:27:17+02:00</time>
      </trkpt>
      <trkpt lat="42.78835" lon="1.33393">
        <ele>796</ele>
        <time>2025-09-13T21:27:18+02:00</time>
      </trkpt>
      <trkpt lat="42.78834" lon="1.33398">
        <ele>800.4004</ele>
        <time>2025-09-13T21:27:22+02:00</time>
      </trkpt>
      <trkpt lat="42.78834" lon="1.33399">
        <ele>798.9004</ele>
        <time>2025-09-13T21:27:23+02:00</time>
      </trkpt>
      <trkpt lat="42.78834" lon="1.33404">
        <ele>798.9004</ele>
        <time>2025-09-13T21:27:27+02:00</time>
      </trkpt>
      <trkpt lat="42.78834" lon="1.33405">
        <ele>798.9004</ele>
        <time>2025-09-13T21:27:28+02:00</time>
      </trkpt>
      <trkpt lat="42.78833" lon="1.33411">
        <ele>797.5</ele>
        <time>2025-09-13T21:27:32+02:00</time>
      </trkpt>
      <trkpt lat="42.78833" lon="1.33411">
        <ele>797.5</ele>
        <time>2025-09-13T21:27:33+02:00</time>
      </trkpt>
      <trkpt lat="42.78833" lon="1.33411">
        <ele>797.5</ele>
        <time>2025-09-13T21:27:37+02:00</time>
      </trkpt>
      <trkpt lat="42.78833" lon="1.33411">
        <ele>797.5</ele>
        <time>2025-09-13T21:27:38+02:00</time>
      </trkpt>
      <trkpt lat="42.78832" lon="1.33414">
        <ele>797.5</ele>
        <time>2025-09-13T21:27:42+02:00</time>
      </trkpt>
      <trkpt lat="42.78831" lon="1.33415">
        <ele>796.1006</ele>
        <time>2025-09-13T21:27:43+02:00</time>
      </trkpt>
      <trkpt lat="42.7883" lon="1.3342">
        <ele>796.1006</ele>
        <time>2025-09-13T21:27:47+02:00</time>
      </trkpt>
      <trkpt lat="42.78829" lon="1.33421">
        <ele>796.1006</ele>
        <time>2025-09-13T21:27:48+02:00</time>
      </trkpt>
      <trkpt lat="42.78829" lon="1.33426">
        <ele>794.7998</ele>
        <time>2025-09-13T21:27:52+02:00</time>
      </trkpt>
      <trkpt lat="42.78829" lon="1.33427">
        <ele>794.7998</ele>
        <time>2025-09-13T21:27:53+02:00</time>
      </trkpt>
      <trkpt lat="42.78829" lon="1.33432">
        <ele>794.7998</ele>
        <time>2025-09-13T21:27:57+02:00</time>
      </trkpt>
      <trkpt lat="42.78829" lon="1.33433">
        <ele>793.5</ele>
        <time>2025-09-13T21:27:58+02:00</time>
      </trkpt>
      <trkpt lat="42.7883" lon="1.33438">
        <ele>793.5</ele>
        <time>2025-09-13T21:28:02+02:00</time>
      </trkpt>
      <trkpt lat="42.7883" lon="1.33439">
        <ele>793.5</ele>
        <time>2025-09-13T21:28:03+02:00</time>
      </trkpt>
      <trkpt lat="42.78829" lon="1.33443">
        <ele>792.2998</ele>
        <time>2025-09-13T21:28:07+02:00</time>
      </trkpt>
      <trkpt lat="42.78829" lon="1.33444">
        <ele>792.2998</ele>
        <time>2025-09-13T21:28:08+02:00</time>
      </trkpt>
      <trkpt lat="42.78829" lon="1.33449">
        <ele>792.2998</ele>
        <time>2025-09-13T21:28:12+02:00</time>
      </trkpt>
      <trkpt lat="42.78829" lon="1.3345">
        <ele>791.1006</ele>
        <time>2025-09-13T21:28:13+02:00</time>
      </trkpt>
      <trkpt lat="42.78829" lon="1.33456">
        <ele>791.1006</ele>
        <time>2025-09-13T21:28:17+02:00</time>
      </trkpt>
      <trkpt lat="42.78829" lon="1.33457">
        <ele>791.1006</ele>
        <time>2025-09-13T21:28:18+02:00</time>
      </trkpt>
      <trkpt lat="42.78831" lon="1.33456">
        <ele>791.1006</ele>
        <time>2025-09-13T21:28:22+02:00</time>
      </trkpt>
      <trkpt lat="42.78831" lon="1.33455">
        <ele>791.1006</ele>
        <time>2025-09-13T21:28:23+02:00</time>
      </trkpt>
      <trkpt lat="42.78832" lon="1.33456">
        <ele>791.1006</ele>
        <time>2025-09-13T21:28:27+02:00</time>
      </trkpt>
      <trkpt lat="42.78832" lon="1.33456">
        <ele>791.1006</ele>
        <time>2025-09-13T21:28:28+02:00</time>
      </trkpt>
      <trkpt lat="42.78834" lon="1.33457">
        <ele>791.1006</ele>
        <time>2025-09-13T21:28:32+02:00</time>
      </trkpt>
      <trkpt lat="42.78835" lon="1.33458">
        <ele>787.4004</ele>
        <time>2025-09-13T21:28:33+02:00</time>
      </trkpt>
      <trkpt lat="42.78836" lon="1.33458">
        <ele>787.4004</ele>
        <time>2025-09-13T21:28:37+02:00</time>
      </trkpt>
      <trkpt lat="42.78836" lon="1.33458">
        <ele>787.4004</ele>
        <time>2025-09-13T21:28:38+02:00</time>
      </trkpt>
      <trkpt lat="42.78837" lon="1.33458">
        <ele>786.2998</ele>
        <time>2025-09-13T21:28:42+02:00</time>
      </trkpt>
      <trkpt lat="42.78837" lon="1.33458">
        <ele>786.2998</ele>
        <time>2025-09-13T21:28:43+02:00</time>
      </trkpt>
      <trkpt lat="42.78837" lon="1.33458">
        <ele>786.2998</ele>
        <time>2025-09-13T21:28:47+02:00</time>
      </trkpt>
      <trkpt lat="42.78837" lon="1.33458">
        <ele>786.2998</ele>
        <time>2025-09-13T21:28:48+02:00</time>
      </trkpt>
      <trkpt lat="42.78837" lon="1.33458">
        <ele>786.2998</ele>
        <time>2025-09-13T21:28:52+02:00</time>
      </trkpt>
      <trkpt lat="42.78837" lon="1.33458">
        <ele>786.2998</ele>
        <time>2025-09-13T21:28:53+02:00</time>
      </trkpt>
      <trkpt lat="42.78837" lon="1.33458">
        <ele>787.4004</ele>
        <time>2025-09-13T21:28:57+02:00</time>
      </trkpt>
      <trkpt lat="42.78836" lon="1.33458">
        <ele>787.4004</ele>
        <time>2025-09-13T21:28:58+02:00</time>
      </trkpt>
      <trkpt lat="42.78836" lon="1.33458">
        <ele>787.4004</ele>
        <time>2025-09-13T21:29:02+02:00</time>
      </trkpt>
      <trkpt lat="42.78836" lon="1.33458">
        <ele>787.4004</ele>
        <time>2025-09-13T21:29:03+02:00</time>
      </trkpt>
      <trkpt lat="42.78836" lon="1.33458">
        <ele>787.4004</ele>
        <time>2025-09-13T21:29:07+02:00</time>
      </trkpt>
      <trkpt lat="42.78836" lon="1.33458">
        <ele>787.4004</ele>
        <time>2025-09-13T21:29:08+02:00</time>
      </trkpt>
      <trkpt lat="42.78836" lon="1.33458">
        <ele>787.4004</ele>
        <time>2025-09-13T21:29:12+02:00</time>
      </trkpt>
      <trkpt lat="42.78836" lon="1.33458">
        <ele>787.4004</ele>
        <time>2025-09-13T21:29:13+02:00</time>
      </trkpt>
      <trkpt lat="42.78836" lon="1.33459">
        <ele>786.2998</ele>
        <time>2025-09-13T21:29:17+02:00</time>
      </trkpt>
      <trkpt lat="42.78836" lon="1.3346">
        <ele>786.2998</ele>
        <time>2025-09-13T21:29:18+02:00</time>
      </trkpt>
      <trkpt lat="42.78836" lon="1.33467">
        <ele>786.2998</ele>
        <time>2025-09-13T21:29:22+02:00</time>
      </trkpt>
      <trkpt lat="42.78835" lon="1.33468">
        <ele>785.1006</ele>
        <time>2025-09-13T21:29:23+02:00</time>
      </trkpt>
      <trkpt lat="42.78835" lon="1.33473">
        <ele>785.1006</ele>
        <time>2025-09-13T21:29:27+02:00</time>
      </trkpt>
      <trkpt lat="42.78835" lon="1.33474">
        <ele>788.7002</ele>
        <time>2025-09-13T21:29:28+02:00</time>
      </trkpt>
      <trkpt lat="42.78834" lon="1.33479">
        <ele>787.5</ele>
        <time>2025-09-13T21:29:32+02:00</time>
      </trkpt>
      <trkpt lat="42.78834" lon="1.3348">
        <ele>787.5</ele>
        <time>2025-09-13T21:29:33+02:00</time>
      </trkpt>
      <trkpt lat="42.78833" lon="1.33485">
        <ele>786.2002</ele>
        <time>2025-09-13T21:29:37+02:00</time>
      </trkpt>
      <trkpt lat="42.78832" lon="1.33486">
        <ele>786.2002</ele>
        <time>2025-09-13T21:29:38+02:00</time>
      </trkpt>
      <trkpt lat="42.78831" lon="1.3349">
        <ele>786.2002</ele>
        <time>2025-09-13T21:29:42+02:00</time>
      </trkpt>
      <trkpt lat="42.78831" lon="1.33491">
        <ele>786.2002</ele>
        <time>2025-09-13T21:29:43+02:00</time>
      </trkpt>
      <trkpt lat="42.78829" lon="1.33496">
        <ele>784.7998</ele>
        <time>2025-09-13T21:29:47+02:00</time>
      </trkpt>
      <trkpt lat="42.78829" lon="1.33497">
        <ele>784.7998</ele>
        <time>2025-09-13T21:29:48+02:00</time>
      </trkpt>
      <trkpt lat="42.78828" lon="1.33501">
        <ele>787.1006</ele>
        <time>2025-09-13T21:29:52+02:00</time>
      </trkpt>
      <trkpt lat="42.78828" lon="1.33503">
        <ele>787.1006</ele>
        <time>2025-09-13T21:29:53+02:00</time>
      </trkpt>
      <trkpt lat="42.78826" lon="1.33508">
        <ele>787.1006</ele>
        <time>2025-09-13T21:29:57+02:00</time>
      </trkpt>
      <trkpt lat="42.78826" lon="1.33509">
        <ele>787.1006</ele>
        <time>2025-09-13T21:29:58+02:00</time>
      </trkpt>
      <trkpt lat="42.78825" lon="1.33514">
        <ele>785.7002</ele>
        <time>2025-09-13T21:30:02+02:00</time>
      </trkpt>
      <trkpt lat="42.78825" lon="1.33515">
        <ele>785.7002</ele>
        <time>2025-09-13T21:30:03+02:00</time>
      </trkpt>
      <trkpt lat="42.78823" lon="1.33519">
        <ele>784.2998</ele>
        <time>2025-09-13T21:30:07+02:00</time>
      </trkpt>
      <trkpt lat="42.78823" lon="1.3352">
        <ele>784.2998</ele>
        <time>2025-09-13T21:30:08+02:00</time>
      </trkpt>
      <trkpt lat="42.78821" lon="1.33525">
        <ele>788.1006</ele>
        <time>2025-09-13T21:30:12+02:00</time>
      </trkpt>
      <trkpt lat="42.78821" lon="1.33526">
        <ele>788.1006</ele>
        <time>2025-09-13T21:30:13+02:00</time>
      </trkpt>
      <trkpt lat="42.7882" lon="1.33531">
        <ele>786.7002</ele>
        <time>2025-09-13T21:30:17+02:00</time>
      </trkpt>
      <trkpt lat="42.7882" lon="1.33533">
        <ele>786.7002</ele>
        <time>2025-09-13T21:30:18+02:00</time>
      </trkpt>
      <trkpt lat="42.78819" lon="1.33538">
        <ele>785.2998</ele>
        <time>2025-09-13T21:30:22+02:00</time>
      </trkpt>
      <trkpt lat="42.78819" lon="1.33539">
        <ele>785.2998</ele>
        <time>2025-09-13T21:30:23+02:00</time>
      </trkpt>
      <trkpt lat="42.78818" lon="1.33544">
        <ele>783.9004</ele>
        <time>2025-09-13T21:30:27+02:00</time>
      </trkpt>
      <trkpt lat="42.78818" lon="1.33546">
        <ele>783.9004</ele>
        <time>2025-09-13T21:30:28+02:00</time>
      </trkpt>
      <trkpt lat="42.78818" lon="1.33551">
        <ele>783.9004</ele>
        <time>2025-09-13T21:30:32+02:00</time>
      </trkpt>
      <trkpt lat="42.78818" lon="1.33552">
        <ele>783.9004</ele>
        <time>2025-09-13T21:30:33+02:00</time>
      </trkpt>
      <trkpt lat="42.78816" lon="1.33557">
        <ele>782.4004</ele>
        <time>2025-09-13T21:30:37+02:00</time>
      </trkpt>
      <trkpt lat="42.78816" lon="1.33558">
        <ele>782.4004</ele>
        <time>2025-09-13T21:30:38+02:00</time>
      </trkpt>
      <trkpt lat="42.78814" lon="1.33563">
        <ele>785</ele>
        <time>2025-09-13T21:30:42+02:00</time>
      </trkpt>
      <trkpt lat="42.78814" lon="1.33564">
        <ele>785</ele>
        <time>2025-09-13T21:30:43+02:00</time>
      </trkpt>
      <trkpt lat="42.78812" lon="1.33568">
        <ele>785</ele>
        <time>2025-09-13T21:30:47+02:00</time>
      </trkpt>
      <trkpt lat="42.78812" lon="1.33569">
        <ele>785</ele>
        <time>2025-09-13T21:30:48+02:00</time>
      </trkpt>
      <trkpt lat="42.78811" lon="1.33573">
        <ele>783.4004</ele>
        <time>2025-09-13T21:30:52+02:00</time>
      </trkpt>
      <trkpt lat="42.78811" lon="1.33575">
        <ele>783.4004</ele>
        <time>2025-09-13T21:30:53+02:00</time>
      </trkpt>
      <trkpt lat="42.7881" lon="1.3358">
        <ele>781.7998</ele>
        <time>2025-09-13T21:30:57+02:00</time>
      </trkpt>
      <trkpt lat="42.7881" lon="1.33581">
        <ele>781.7998</ele>
        <time>2025-09-13T21:30:58+02:00</time>
      </trkpt>
      <trkpt lat="42.78809" lon="1.33586">
        <ele>786.1006</ele>
        <time>2025-09-13T21:31:02+02:00</time>
      </trkpt>
      <trkpt lat="42.78809" lon="1.33587">
        <ele>784.4004</ele>
        <time>2025-09-13T21:31:03+02:00</time>
      </trkpt>
      <trkpt lat="42.78807" lon="1.33592">
        <ele>784.4004</ele>
        <time>2025-09-13T21:31:07+02:00</time>
      </trkpt>
      <trkpt lat="42.78807" lon="1.33593">
        <ele>784.4004</ele>
        <time>2025-09-13T21:31:08+02:00</time>
      </trkpt>
      <trkpt lat="42.78805" lon="1.33597">
        <ele>782.7002</ele>
        <time>2025-09-13T21:31:12+02:00</time>
      </trkpt>
      <trkpt lat="42.78805" lon="1.33598">
        <ele>782.7002</ele>
        <time>2025-09-13T21:31:13+02:00</time>
      </trkpt>
      <trkpt lat="42.78803" lon="1.33602">
        <ele>787.2002</ele>
        <time>2025-09-13T21:31:17+02:00</time>
      </trkpt>
      <trkpt lat="42.78803" lon="1.33603">
        <ele>787.2002</ele>
        <time>2025-09-13T21:31:18+02:00</time>
      </trkpt>
      <trkpt lat="42.78802" lon="1.33607">
        <ele>785.5</ele>
        <time>2025-09-13T21:31:22+02:00</time>
      </trkpt>
      <trkpt lat="42.78801" lon="1.33609">
        <ele>785.5</ele>
        <time>2025-09-13T21:31:23+02:00</time>
      </trkpt>
      <trkpt lat="42.78801" lon="1.33613">
        <ele>783.9004</ele>
        <time>2025-09-13T21:31:27+02:00</time>
      </trkpt>
      <trkpt lat="42.788" lon="1.33615">
        <ele>783.9004</ele>
        <time>2025-09-13T21:31:28+02:00</time>
      </trkpt>
      <trkpt lat="42.78799" lon="1.33619">
        <ele>783.9004</ele>
        <time>2025-09-13T21:31:32+02:00</time>
      </trkpt>
      <trkpt lat="42.78798" lon="1.3362">
        <ele>783.9004</ele>
        <time>2025-09-13T21:31:33+02:00</time>
      </trkpt>
      <trkpt lat="42.78797" lon="1.33624">
        <ele>786.9004</ele>
        <time>2025-09-13T21:31:37+02:00</time>
      </trkpt>
      <trkpt lat="42.78796" lon="1.33625">
        <ele>786.9004</ele>
        <time>2025-09-13T21:31:38+02:00</time>
      </trkpt>
      <trkpt lat="42.78795" lon="1.3363">
        <ele>786.9004</ele>
        <time>2025-09-13T21:31:42+02:00</time>
      </trkpt>
      <trkpt lat="42.78794" lon="1.33631">
        <ele>785.1006</ele>
        <time>2025-09-13T21:31:43+02:00</time>
      </trkpt>
      <trkpt lat="42.78792" lon="1.33635">
        <ele>785.1006</ele>
        <time>2025-09-13T21:31:47+02:00</time>
      </trkpt>
      <trkpt lat="42.78792" lon="1.33636">
        <ele>785.1006</ele>
        <time>2025-09-13T21:31:48+02:00</time>
      </trkpt>
      <trkpt lat="42.7879" lon="1.33641">
        <ele>788</ele>
        <time>2025-09-13T21:31:52+02:00</time>
      </trkpt>
      <trkpt lat="42.7879" lon="1.33642">
        <ele>788</ele>
        <time>2025-09-13T21:31:53+02:00</time>
      </trkpt>
      <trkpt lat="42.78788" lon="1.33646">
        <ele>788</ele>
        <time>2025-09-13T21:31:57+02:00</time>
      </trkpt>
      <trkpt lat="42.78788" lon="1.33648">
        <ele>786.2002</ele>
        <time>2025-09-13T21:31:58+02:00</time>
      </trkpt>
      <trkpt lat="42.78787" lon="1.33652">
        <ele>786.2002</ele>
        <time>2025-09-13T21:32:02+02:00</time>
      </trkpt>
      <trkpt lat="42.78786" lon="1.33653">
        <ele>786.2002</ele>
        <time>2025-09-13T21:32:03+02:00</time>
      </trkpt>
      <trkpt lat="42.78785" lon="1.33658">
        <ele>784.4004</ele>
        <time>2025-09-13T21:32:07+02:00</time>
      </trkpt>
      <trkpt lat="42.78785" lon="1.3366">
        <ele>784.4004</ele>
        <time>2025-09-13T21:32:08+02:00</time>
      </trkpt>
      <trkpt lat="42.78784" lon="1.33665">
        <ele>787.2002</ele>
        <time>2025-09-13T21:32:12+02:00</time>
      </trkpt>
      <trkpt lat="42.78783" lon="1.33666">
        <ele>787.2002</ele>
        <time>2025-09-13T21:32:13+02:00</time>
      </trkpt>
      <trkpt lat="42.78783" lon="1.33671">
        <ele>787.2002</ele>
        <time>2025-09-13T21:32:17+02:00</time>
      </trkpt>
      <trkpt lat="42.78783" lon="1.33672">
        <ele>787.2002</ele>
        <time>2025-09-13T21:32:18+02:00</time>
      </trkpt>
      <trkpt lat="42.78782" lon="1.33676">
        <ele>785.4004</ele>
        <time>2025-09-13T21:32:22+02:00</time>
      </trkpt>
      <trkpt lat="42.78782" lon="1.33677">
        <ele>785.4004</ele>
        <time>2025-09-13T21:32:23+02:00</time>
      </trkpt>
      <trkpt lat="42.7878" lon="1.33682">
        <ele>783.6006</ele>
        <time>2025-09-13T21:32:27+02:00</time>
      </trkpt>
      <trkpt lat="42.7878" lon="1.33683">
        <ele>783.6006</ele>
        <time>2025-09-13T21:32:28+02:00</time>
      </trkpt>
      <trkpt lat="42.78779" lon="1.33687">
        <ele>783.6006</ele>
        <time>2025-09-13T21:32:32+02:00</time>
      </trkpt>
      <trkpt lat="42.78779" lon="1.33689">
        <ele>783.6006</ele>
        <time>2025-09-13T21:32:33+02:00</time>
      </trkpt>
      <trkpt lat="42.78778" lon="1.33693">
        <ele>781.9004</ele>
        <time>2025-09-13T21:32:37+02:00</time>
      </trkpt>
      <trkpt lat="42.78778" lon="1.33694">
        <ele>786.4004</ele>
        <time>2025-09-13T21:32:38+02:00</time>
      </trkpt>
      <trkpt lat="42.78776" lon="1.33699">
        <ele>784.5</ele>
        <time>2025-09-13T21:32:42+02:00</time>
      </trkpt>
      <trkpt lat="42.78776" lon="1.337">
        <ele>784.5</ele>
        <time>2025-09-13T21:32:43+02:00</time>
      </trkpt>
      <trkpt lat="42.78774" lon="1.33704">
        <ele>784.5</ele>
        <time>2025-09-13T21:32:47+02:00</time>
      </trkpt>
      <trkpt lat="42.78774" lon="1.33705">
        <ele>784.5</ele>
        <time>2025-09-13T21:32:48+02:00</time>
      </trkpt>
      <trkpt lat="42.78773" lon="1.33709">
        <ele>782.7002</ele>
        <time>2025-09-13T21:32:52+02:00</time>
      </trkpt>
      <trkpt lat="42.78772" lon="1.33711">
        <ele>782.7002</ele>
        <time>2025-09-13T21:32:53+02:00</time>
      </trkpt>
      <trkpt lat="42.78771" lon="1.33715">
        <ele>787</ele>
        <time>2025-09-13T21:32:57+02:00</time>
      </trkpt>
      <trkpt lat="42.78771" lon="1.33717">
        <ele>785</ele>
        <time>2025-09-13T21:32:58+02:00</time>
      </trkpt>
      <trkpt lat="42.78769" lon="1.3372">
        <ele>785</ele>
        <time>2025-09-13T21:33:02+02:00</time>
      </trkpt>
      <trkpt lat="42.78768" lon="1.33721">
        <ele>785</ele>
        <time>2025-09-13T21:33:03+02:00</time>
      </trkpt>
      <trkpt lat="42.78767" lon="1.33724">
        <ele>783.1006</ele>
        <time>2025-09-13T21:33:07+02:00</time>
      </trkpt>
      <trkpt lat="42.78766" lon="1.33725">
        <ele>783.1006</ele>
        <time>2025-09-13T21:33:08+02:00</time>
      </trkpt>
      <trkpt lat="42.78764" lon="1.33729">
        <ele>787.2002</ele>
        <time>2025-09-13T21:33:12+02:00</time>
      </trkpt>
      <trkpt lat="42.78764" lon="1.33731">
        <ele>787.2002</ele>
        <time>2025-09-13T21:33:13+02:00</time>
      </trkpt>
      <trkpt lat="42.78762" lon="1.33735">
        <ele>785.2002</ele>
        <time>2025-09-13T21:33:17+02:00</time>
      </trkpt>
      <trkpt lat="42.78761" lon="1.33736">
        <ele>785.2002</ele>
        <time>2025-09-13T21:33:18+02:00</time>
      </trkpt>
      <trkpt lat="42.78759" lon="1.3374">
        <ele>785.2002</ele>
        <time>2025-09-13T21:33:22+02:00</time>
      </trkpt>
      <trkpt lat="42.78759" lon="1.33741">
        <ele>789.2998</ele>
        <time>2025-09-13T21:33:23+02:00</time>
      </trkpt>
      <trkpt lat="42.78758" lon="1.33745">
        <ele>787.2002</ele>
        <time>2025-09-13T21:33:27+02:00</time>
      </trkpt>
      <trkpt lat="42.78758" lon="1.33746">
        <ele>787.2002</ele>
        <time>2025-09-13T21:33:28+02:00</time>
      </trkpt>
      <trkpt lat="42.78756" lon="1.33751">
        <ele>785.2002</ele>
        <time>2025-09-13T21:33:32+02:00</time>
      </trkpt>
      <trkpt lat="42.78756" lon="1.33752">
        <ele>785.2002</ele>
        <time>2025-09-13T21:33:33+02:00</time>
      </trkpt>
      <trkpt lat="42.78754" lon="1.33756">
        <ele>785.2002</ele>
        <time>2025-09-13T21:33:37+02:00</time>
      </trkpt>
      <trkpt lat="42.78754" lon="1.33757">
        <ele>785.2002</ele>
        <time>2025-09-13T21:33:38+02:00</time>
      </trkpt>
      <trkpt lat="42.78753" lon="1.33762">
        <ele>787</ele>
        <time>2025-09-13T21:33:42+02:00</time>
      </trkpt>
      <trkpt lat="42.78752" lon="1.33763">
        <ele>787</ele>
        <time>2025-09-13T21:33:43+02:00</time>
      </trkpt>
      <trkpt lat="42.78751" lon="1.33768">
        <ele>785</ele>
        <time>2025-09-13T21:33:47+02:00</time>
      </trkpt>
      <trkpt lat="42.78751" lon="1.33769">
        <ele>785</ele>
        <time>2025-09-13T21:33:48+02:00</time>
      </trkpt>
      <trkpt lat="42.7875" lon="1.33774">
        <ele>785</ele>
        <time>2025-09-13T21:33:52+02:00</time>
      </trkpt>
      <trkpt lat="42.7875" lon="1.33775">
        <ele>785</ele>
        <time>2025-09-13T21:33:53+02:00</time>
      </trkpt>
      <trkpt lat="42.78748" lon="1.33779">
        <ele>783.1006</ele>
        <time>2025-09-13T21:33:57+02:00</time>
      </trkpt>
      <trkpt lat="42.78747" lon="1.3378">
        <ele>783.1006</ele>
        <time>2025-09-13T21:33:58+02:00</time>
      </trkpt>
      <trkpt lat="42.78745" lon="1.33785">
        <ele>784.7002</ele>
        <time>2025-09-13T21:34:02+02:00</time>
      </trkpt>
      <trkpt lat="42.78745" lon="1.33786">
        <ele>784.7002</ele>
        <time>2025-09-13T21:34:03+02:00</time>
      </trkpt>
      <trkpt lat="42.78743" lon="1.3379">
        <ele>784.7002</ele>
        <time>2025-09-13T21:34:07+02:00</time>
      </trkpt>
      <trkpt lat="42.78742" lon="1.33791">
        <ele>784.7002</ele>
        <time>2025-09-13T21:34:08+02:00</time>
      </trkpt>
      <trkpt lat="42.78741" lon="1.33796">
        <ele>782.7998</ele>
        <time>2025-09-13T21:34:12+02:00</time>
      </trkpt>
      <trkpt lat="42.78741" lon="1.33797">
        <ele>782.7998</ele>
        <time>2025-09-13T21:34:13+02:00</time>
      </trkpt>
      <trkpt lat="42.7874" lon="1.33802">
        <ele>784.5</ele>
        <time>2025-09-13T21:34:17+02:00</time>
      </trkpt>
      <trkpt lat="42.78739" lon="1.33803">
        <ele>784.5</ele>
        <time>2025-09-13T21:34:18+02:00</time>
      </trkpt>
      <trkpt lat="42.78739" lon="1.33809">
        <ele>784.5</ele>
        <time>2025-09-13T21:34:22+02:00</time>
      </trkpt>
      <trkpt lat="42.78739" lon="1.3381">
        <ele>782.7998</ele>
        <time>2025-09-13T21:34:23+02:00</time>
      </trkpt>
      <trkpt lat="42.78739" lon="1.33816">
        <ele>782.7998</ele>
        <time>2025-09-13T21:34:27+02:00</time>
      </trkpt>
      <trkpt lat="42.78739" lon="1.33818">
        <ele>782.7998</ele>
        <time>2025-09-13T21:34:28+02:00</time>
      </trkpt>
      <trkpt lat="42.78741" lon="1.33822">
        <ele>778.2002</ele>
        <time>2025-09-13T21:34:32+02:00</time>
      </trkpt>
      <trkpt lat="42.78741" lon="1.33823">
        <ele>778.2002</ele>
        <time>2025-09-13T21:34:33+02:00</time>
      </trkpt>
      <trkpt lat="42.78745" lon="1.33827">
        <ele>778.2002</ele>
        <time>2025-09-13T21:34:37+02:00</time>
      </trkpt>
      <trkpt lat="42.78746" lon="1.33827">
        <ele>776.9004</ele>
        <time>2025-09-13T21:34:38+02:00</time>
      </trkpt>
      <trkpt lat="42.7875" lon="1.33828">
        <ele>774.2002</ele>
        <time>2025-09-13T21:34:42+02:00</time>
      </trkpt>
      <trkpt lat="42.78751" lon="1.33828">
        <ele>774.2002</ele>
        <time>2025-09-13T21:34:43+02:00</time>
      </trkpt>
      <trkpt lat="42.78755" lon="1.33826">
        <ele>772.7998</ele>
        <time>2025-09-13T21:34:47+02:00</time>
      </trkpt>
      <trkpt lat="42.78756" lon="1.33825">
        <ele>772.7998</ele>
        <time>2025-09-13T21:34:48+02:00</time>
      </trkpt>
      <trkpt lat="42.7876" lon="1.33822">
        <ele>770.4004</ele>
        <time>2025-09-13T21:34:52+02:00</time>
      </trkpt>
      <trkpt lat="42.7876" lon="1.33821">
        <ele>770.4004</ele>
        <time>2025-09-13T21:34:53+02:00</time>
      </trkpt>
      <trkpt lat="42.78763" lon="1.33817">
        <ele>771.5</ele>
        <time>2025-09-13T21:34:57+02:00</time>
      </trkpt>
      <trkpt lat="42.78763" lon="1.33816">
        <ele>771.5</ele>
        <time>2025-09-13T21:34:58+02:00</time>
      </trkpt>
      <trkpt lat="42.78766" lon="1.33811">
        <ele>769.1006</ele>
        <time>2025-09-13T21:35:02+02:00</time>
      </trkpt>
      <trkpt lat="42.78766" lon="1.33809">
        <ele>770.1006</ele>
        <time>2025-09-13T21:35:03+02:00</time>
      </trkpt>
      <trkpt lat="42.78768" lon="1.33803">
        <ele>770.1006</ele>
        <time>2025-09-13T21:35:07+02:00</time>
      </trkpt>
      <trkpt lat="42.78768" lon="1.33802">
        <ele>770.1006</ele>
        <time>2025-09-13T21:35:08+02:00</time>
      </trkpt>
      <trkpt lat="42.78769" lon="1.33796">
        <ele>771.2002</ele>
        <time>2025-09-13T21:35:12+02:00</time>
      </trkpt>
      <trkpt lat="42.7877" lon="1.33795">
        <ele>771.2002</ele>
        <time>2025-09-13T21:35:13+02:00</time>
      </trkpt>
      <trkpt lat="42.78771" lon="1.33789">
        <ele>772.4004</ele>
        <time>2025-09-13T21:35:17+02:00</time>
      </trkpt>
      <trkpt lat="42.78772" lon="1.33788">
        <ele>769.7002</ele>
        <time>2025-09-13T21:35:18+02:00</time>
      </trkpt>
      <trkpt lat="42.78774" lon="1.33783">
        <ele>770.7998</ele>
        <time>2025-09-13T21:35:22+02:00</time>
      </trkpt>
      <trkpt lat="42.78775" lon="1.33782">
        <ele>770.7998</ele>
        <time>2025-09-13T21:35:23+02:00</time>
      </trkpt>
      <trkpt lat="42.78777" lon="1.33777">
        <ele>770.7998</ele>
        <time>2025-09-13T21:35:27+02:00</time>
      </trkpt>
      <trkpt lat="42.78778" lon="1.33776">
        <ele>770.7998</ele>
        <time>2025-09-13T21:35:28+02:00</time>
      </trkpt>
      <trkpt lat="42.78781" lon="1.33772">
        <ele>769.1006</ele>
        <time>2025-09-13T21:35:32+02:00</time>
      </trkpt>
      <trkpt lat="42.78782" lon="1.33772">
        <ele>769.1006</ele>
        <time>2025-09-13T21:35:33+02:00</time>
      </trkpt>
      <trkpt lat="42.78784" lon="1.33767">
        <ele>766.4004</ele>
        <time>2025-09-13T21:35:37+02:00</time>
      </trkpt>
      <trkpt lat="42.78785" lon="1.33766">
        <ele>767.2998</ele>
        <time>2025-09-13T21:35:38+02:00</time>
      </trkpt>
      <trkpt lat="42.78787" lon="1.33762">
        <ele>767.2998</ele>
        <time>2025-09-13T21:35:42+02:00</time>
      </trkpt>
      <trkpt lat="42.78788" lon="1.33761">
        <ele>767.2998</ele>
        <time>2025-09-13T21:35:43+02:00</time>
      </trkpt>
      <trkpt lat="42.78791" lon="1.33757">
        <ele>765.5</ele>
        <time>2025-09-13T21:35:47+02:00</time>
      </trkpt>
      <trkpt lat="42.78791" lon="1.33757">
        <ele>765.5</ele>
        <time>2025-09-13T21:35:48+02:00</time>
      </trkpt>
      <trkpt lat="42.78795" lon="1.33753">
        <ele>765.5</ele>
        <time>2025-09-13T21:35:52+02:00</time>
      </trkpt>
      <trkpt lat="42.78795" lon="1.33752">
        <ele>765.5</ele>
        <time>2025-09-13T21:35:53+02:00</time>
      </trkpt>
      <trkpt lat="42.78798" lon="1.33747">
        <ele>763.7002</ele>
        <time>2025-09-13T21:35:57+02:00</time>
      </trkpt>
      <trkpt lat="42.78799" lon="1.33746">
        <ele>763.7002</ele>
        <time>2025-09-13T21:35:58+02:00</time>
      </trkpt>
      <trkpt lat="42.78801" lon="1.33742">
        <ele>763.7002</ele>
        <time>2025-09-13T21:36:02+02:00</time>
      </trkpt>
      <trkpt lat="42.78802" lon="1.3374">
        <ele>764.6006</ele>
        <time>2025-09-13T21:36:03+02:00</time>
      </trkpt>
      <trkpt lat="42.78805" lon="1.33736">
        <ele>761.9004</ele>
        <time>2025-09-13T21:36:07+02:00</time>
      </trkpt>
      <trkpt lat="42.78806" lon="1.33735">
        <ele>761.9004</ele>
        <time>2025-09-13T21:36:08+02:00</time>
      </trkpt>
      <trkpt lat="42.78808" lon="1.3373">
        <ele>762.6006</ele>
        <time>2025-09-13T21:36:12+02:00</time>
      </trkpt>
      <trkpt lat="42.78809" lon="1.3373">
        <ele>762.6006</ele>
        <time>2025-09-13T21:36:13+02:00</time>
      </trkpt>
      <trkpt lat="42.78812" lon="1.33726">
        <ele>760</ele>
        <time>2025-09-13T21:36:17+02:00</time>
      </trkpt>
      <trkpt lat="42.78812" lon="1.33725">
        <ele>760</ele>
        <time>2025-09-13T21:36:18+02:00</time>
      </trkpt>
      <trkpt lat="42.78815" lon="1.33723">
        <ele>760.5</ele>
        <time>2025-09-13T21:36:22+02:00</time>
      </trkpt>
      <trkpt lat="42.78816" lon="1.33722">
        <ele>758</ele>
        <time>2025-09-13T21:36:23+02:00</time>
      </trkpt>
      <trkpt lat="42.78818" lon="1.33719">
        <ele>758</ele>
        <time>2025-09-13T21:36:27+02:00</time>
      </trkpt>
      <trkpt lat="42.78819" lon="1.33718">
        <ele>758</ele>
        <time>2025-09-13T21:36:28+02:00</time>
      </trkpt>
      <trkpt lat="42.78821" lon="1.33714">
        <ele>758.4004</ele>
        <time>2025-09-13T21:36:32+02:00</time>
      </trkpt>
      <trkpt lat="42.78821" lon="1.33713">
        <ele>758.4004</ele>
        <time>2025-09-13T21:36:33+02:00</time>
      </trkpt>
      <trkpt lat="42.78824" lon="1.33709">
        <ele>756</ele>
        <time>2025-09-13T21:36:37+02:00</time>
      </trkpt>
      <trkpt lat="42.78825" lon="1.33709">
        <ele>756</ele>
        <time>2025-09-13T21:36:38+02:00</time>
      </trkpt>
      <trkpt lat="42.78828" lon="1.33706">
        <ele>756.4004</ele>
        <time>2025-09-13T21:36:42+02:00</time>
      </trkpt>
      <trkpt lat="42.78828" lon="1.33706">
        <ele>754.1006</ele>
        <time>2025-09-13T21:36:43+02:00</time>
      </trkpt>
      <trkpt lat="42.7883" lon="1.33703">
        <ele>754.1006</ele>
        <time>2025-09-13T21:36:47+02:00</time>
      </trkpt>
      <trkpt lat="42.7883" lon="1.33702">
        <ele>754.1006</ele>
        <time>2025-09-13T21:36:48+02:00</time>
      </trkpt>
      <trkpt lat="42.78833" lon="1.33698">
        <ele>754.5</ele>
        <time>2025-09-13T21:36:52+02:00</time>
      </trkpt>
      <trkpt lat="42.78833" lon="1.33697">
        <ele>754.5</ele>
        <time>2025-09-13T21:36:53+02:00</time>
      </trkpt>
      <trkpt lat="42.78836" lon="1.33694">
        <ele>752.5</ele>
        <time>2025-09-13T21:36:57+02:00</time>
      </trkpt>
      <trkpt lat="42.78837" lon="1.33693">
        <ele>752.5</ele>
        <time>2025-09-13T21:36:58+02:00</time>
      </trkpt>
      <trkpt lat="42.78839" lon="1.33691">
        <ele>752.5</ele>
        <time>2025-09-13T21:37:02+02:00</time>
      </trkpt>
      <trkpt lat="42.7884" lon="1.3369">
        <ele>752.5</ele>
        <time>2025-09-13T21:37:03+02:00</time>
      </trkpt>
      <trkpt lat="42.78843" lon="1.33687">
        <ele>751</ele>
        <time>2025-09-13T21:37:07+02:00</time>
      </trkpt>
      <trkpt lat="42.78843" lon="1.33686">
        <ele>751</ele>
        <time>2025-09-13T21:37:08+02:00</time>
      </trkpt>
      <trkpt lat="42.78846" lon="1.33681">
        <ele>751</ele>
        <time>2025-09-13T21:37:12+02:00</time>
      </trkpt>
      <trkpt lat="42.78847" lon="1.3368">
        <ele>751.2998</ele>
        <time>2025-09-13T21:37:13+02:00</time>
      </trkpt>
      <trkpt lat="42.78849" lon="1.33676">
        <ele>749.7002</ele>
        <time>2025-09-13T21:37:17+02:00</time>
      </trkpt>
      <trkpt lat="42.7885" lon="1.33675">
        <ele>749.7002</ele>
        <time>2025-09-13T21:37:18+02:00</time>
      </trkpt>
      <trkpt lat="42.78853" lon="1.33671">
        <ele>750.1006</ele>
        <time>2025-09-13T21:37:22+02:00</time>
      </trkpt>
      <trkpt lat="42.78854" lon="1.33671">
        <ele>748.6006</ele>
        <time>2025-09-13T21:37:23+02:00</time>
      </trkpt>
      <trkpt lat="42.78857" lon="1.33668">
        <ele>748.6006</ele>
        <time>2025-09-13T21:37:27+02:00</time>
      </trkpt>
      <trkpt lat="42.78858" lon="1.33667">
        <ele>748.6006</ele>
        <time>2025-09-13T21:37:28+02:00</time>
      </trkpt>
      <trkpt lat="42.78861" lon="1.33664">
        <ele>747.7002</ele>
        <time>2025-09-13T21:37:32+02:00</time>
      </trkpt>
      <trkpt lat="42.78862" lon="1.33663">
        <ele>747.7002</ele>
        <time>2025-09-13T21:37:33+02:00</time>
      </trkpt>
      <trkpt lat="42.78865" lon="1.3366">
        <ele>747.7002</ele>
        <time>2025-09-13T21:37:37+02:00</time>
      </trkpt>
      <trkpt lat="42.78865" lon="1.33659">
        <ele>747.7002</ele>
        <time>2025-09-13T21:37:38+02:00</time>
      </trkpt>
      <trkpt lat="42.78867" lon="1.33658">
        <ele>746.5</ele>
        <time>2025-09-13T21:37:42+02:00</time>
      </trkpt>
      <trkpt lat="42.78868" lon="1.33657">
        <ele>746.5</ele>
        <time>2025-09-13T21:37:43+02:00</time>
      </trkpt>
      <trkpt lat="42.78872" lon="1.33654">
        <ele>747.1006</ele>
        <time>2025-09-13T21:37:47+02:00</time>
      </trkpt>
      <trkpt lat="42.78873" lon="1.33653">
        <ele>746</ele>
        <time>2025-09-13T21:37:48+02:00</time>
      </trkpt>
      <trkpt lat="42.78876" lon="1.33649">
        <ele>746</ele>
        <time>2025-09-13T21:37:52+02:00</time>
      </trkpt>
      <trkpt lat="42.78877" lon="1.33648">
        <ele>746</ele>
        <time>2025-09-13T21:37:53+02:00</time>
      </trkpt>
      <trkpt lat="42.78879" lon="1.33648">
        <ele>746</ele>
        <time>2025-09-13T21:37:57+02:00</time>
      </trkpt>
      <trkpt lat="42.78878" lon="1.33648">
        <ele>746</ele>
        <time>2025-09-13T21:37:58+02:00</time>
      </trkpt>
      <trkpt lat="42.7888" lon="1.33647">
        <ele>745.6006</ele>
        <time>2025-09-13T21:38:02+02:00</time>
      </trkpt>
      <trkpt lat="42.78882" lon="1.33646">
        <ele>745.6006</ele>
        <time>2025-09-13T21:38:03+02:00</time>
      </trkpt>
      <trkpt lat="42.78885" lon="1.33644">
        <ele>744.7002</ele>
        <time>2025-09-13T21:38:07+02:00</time>
      </trkpt>
      <trkpt lat="42.78886" lon="1.33643">
        <ele>744.7002</ele>
        <time>2025-09-13T21:38:08+02:00</time>
      </trkpt>
      <trkpt lat="42.78887" lon="1.33642">
        <ele>744.7002</ele>
        <time>2025-09-13T21:38:12+02:00</time>
      </trkpt>
      <trkpt lat="42.78887" lon="1.33642">
        <ele>744.7002</ele>
        <time>2025-09-13T21:38:13+02:00</time>
      </trkpt>
      <trkpt lat="42.78886" lon="1.33642">
        <ele>744.7002</ele>
        <time>2025-09-13T21:38:17+02:00</time>
      </trkpt>
      <trkpt lat="42.78886" lon="1.33642">
        <ele>744.7002</ele>
        <time>2025-09-13T21:38:18+02:00</time>
      </trkpt>
      <trkpt lat="42.78886" lon="1.33644">
        <ele>744.7002</ele>
        <time>2025-09-13T21:38:22+02:00</time>
      </trkpt>
      <trkpt lat="42.78886" lon="1.33644">
        <ele>744.7002</ele>
        <time>2025-09-13T21:38:23+02:00</time>
      </trkpt>
      <trkpt lat="42.78886" lon="1.33645">
        <ele>744.7002</ele>
        <time>2025-09-13T21:38:27+02:00</time>
      </trkpt>
      <trkpt lat="42.78886" lon="1.33645">
        <ele>744.7002</ele>
        <time>2025-09-13T21:38:28+02:00</time>
      </trkpt>
      <trkpt lat="42.78887" lon="1.33646">
        <ele>744.7002</ele>
        <time>2025-09-13T21:38:32+02:00</time>
      </trkpt>
      <trkpt lat="42.78887" lon="1.33645">
        <ele>744.7002</ele>
        <time>2025-09-13T21:38:33+02:00</time>
      </trkpt>
      <trkpt lat="42.7889" lon="1.33643">
        <ele>744.7002</ele>
        <time>2025-09-13T21:38:37+02:00</time>
      </trkpt>
      <trkpt lat="42.78891" lon="1.33642">
        <ele>744.7002</ele>
        <time>2025-09-13T21:38:38+02:00</time>
      </trkpt>
      <trkpt lat="42.78894" lon="1.33642">
        <ele>744</ele>
        <time>2025-09-13T21:38:42+02:00</time>
      </trkpt>
      <trkpt lat="42.78894" lon="1.33643">
        <ele>744</ele>
        <time>2025-09-13T21:38:43+02:00</time>
      </trkpt>
      <trkpt lat="42.78893" lon="1.33644">
        <ele>744</ele>
        <time>2025-09-13T21:38:47+02:00</time>
      </trkpt>
      <trkpt lat="42.78892" lon="1.33644">
        <ele>744</ele>
        <time>2025-09-13T21:38:48+02:00</time>
      </trkpt>
      <trkpt lat="42.78892" lon="1.33644">
        <ele>744</ele>
        <time>2025-09-13T21:38:52+02:00</time>
      </trkpt>
      <trkpt lat="42.78892" lon="1.33644">
        <ele>744</ele>
        <time>2025-09-13T21:38:53+02:00</time>
      </trkpt>
      <trkpt lat="42.78892" lon="1.33645">
        <ele>744</ele>
        <time>2025-09-13T21:38:57+02:00</time>
      </trkpt>
      <trkpt lat="42.78892" lon="1.33645">
        <ele>744</ele>
        <time>2025-09-13T21:38:58+02:00</time>
      </trkpt>
      <trkpt lat="42.78892" lon="1.33646">
        <ele>744</ele>
        <time>2025-09-13T21:39:02+02:00</time>
      </trkpt>
      <trkpt lat="42.78892" lon="1.33646">
        <ele>744</ele>
        <time>2025-09-13T21:39:03+02:00</time>
      </trkpt>
      <trkpt lat="42.78892" lon="1.33646">
        <ele>744</ele>
        <time>2025-09-13T21:39:07+02:00</time>
      </trkpt>
      <trkpt lat="42.78892" lon="1.33646">
        <ele>744</ele>
        <time>2025-09-13T21:39:08+02:00</time>
      </trkpt>
      <trkpt lat="42.78892" lon="1.33646">
        <ele>744</ele>
        <time>2025-09-13T21:39:12+02:00</time>
      </trkpt>
      <trkpt lat="42.78893" lon="1.33646">
        <ele>744</ele>
        <time>2025-09-13T21:39:13+02:00</time>
      </trkpt>
      <trkpt lat="42.78894" lon="1.33645">
        <ele>744</ele>
        <time>2025-09-13T21:39:17+02:00</time>
      </trkpt>
      <trkpt lat="42.78894" lon="1.33644">
        <ele>744</ele>
        <time>2025-09-13T21:39:18+02:00</time>
      </trkpt>
      <trkpt lat="42.78894" lon="1.33643">
        <ele>744</ele>
        <time>2025-09-13T21:39:22+02:00</time>
      </trkpt>
      <trkpt lat="42.78894" lon="1.33643">
        <ele>744</ele>
        <time>2025-09-13T21:39:23+02:00</time>
      </trkpt>
      <trkpt lat="42.78898" lon="1.33639">
        <ele>743.2998</ele>
        <time>2025-09-13T21:39:27+02:00</time>
      </trkpt>
      <trkpt lat="42.78899" lon="1.33637">
        <ele>743.9004</ele>
        <time>2025-09-13T21:39:28+02:00</time>
      </trkpt>
      <trkpt lat="42.78901" lon="1.33633">
        <ele>743.9004</ele>
        <time>2025-09-13T21:39:32+02:00</time>
      </trkpt>
      <trkpt lat="42.78902" lon="1.33632">
        <ele>743.9004</ele>
        <time>2025-09-13T21:39:33+02:00</time>
      </trkpt>
      <trkpt lat="42.78904" lon="1.33628">
        <ele>743.7998</ele>
        <time>2025-09-13T21:39:37+02:00</time>
      </trkpt>
      <trkpt lat="42.78905" lon="1.33627">
        <ele>743.7998</ele>
        <time>2025-09-13T21:39:38+02:00</time>
      </trkpt>
      <trkpt lat="42.78906" lon="1.33623">
        <ele>743.7998</ele>
        <time>2025-09-13T21:39:42+02:00</time>
      </trkpt>
      <trkpt lat="42.78906" lon="1.33622">
        <ele>743.7998</ele>
        <time>2025-09-13T21:39:43+02:00</time>
      </trkpt>
      <trkpt lat="42.78908" lon="1.33619">
        <ele>744.2998</ele>
        <time>2025-09-13T21:39:47+02:00</time>
      </trkpt>
      <trkpt lat="42.78908" lon="1.33618">
        <ele>744.2998</ele>
        <time>2025-09-13T21:39:48+02:00</time>
      </trkpt>
      <trkpt lat="42.78911" lon="1.33616">
        <ele>743.7002</ele>
        <time>2025-09-13T21:39:52+02:00</time>
      </trkpt>
      <trkpt lat="42.78912" lon="1.33615">
        <ele>743.7002</ele>
        <time>2025-09-13T21:39:53+02:00</time>
      </trkpt>
      <trkpt lat="42.78914" lon="1.33613">
        <ele>743.7002</ele>
        <time>2025-09-13T21:39:57+02:00</time>
      </trkpt>
      <trkpt lat="42.78915" lon="1.33613">
        <ele>743.7002</ele>
        <time>2025-09-13T21:39:58+02:00</time>
      </trkpt>
      <trkpt lat="42.78918" lon="1.33611">
        <ele>743.7002</ele>
        <time>2025-09-13T21:40:02+02:00</time>
      </trkpt>
      <trkpt lat="42.78918" lon="1.33611">
        <ele>743.7002</ele>
        <time>2025-09-13T21:40:03+02:00</time>
      </trkpt>
      <trkpt lat="42.78921" lon="1.33609">
        <ele>743.7002</ele>
        <time>2025-09-13T21:40:07+02:00</time>
      </trkpt>
      <trkpt lat="42.78922" lon="1.33609">
        <ele>743.7002</ele>
        <time>2025-09-13T21:40:08+02:00</time>
      </trkpt>
      <trkpt lat="42.78925" lon="1.33607">
        <ele>743.2998</ele>
        <time>2025-09-13T21:40:12+02:00</time>
      </trkpt>
      <trkpt lat="42.78926" lon="1.33607">
        <ele>743.2998</ele>
        <time>2025-09-13T21:40:13+02:00</time>
      </trkpt>
      <trkpt lat="42.78929" lon="1.33606">
        <ele>743.2998</ele>
        <time>2025-09-13T21:40:17+02:00</time>
      </trkpt>
      <trkpt lat="42.7893" lon="1.33606">
        <ele>743.1006</ele>
        <time>2025-09-13T21:40:18+02:00</time>
      </trkpt>
      <trkpt lat="42.78933" lon="1.33603">
        <ele>743.7002</ele>
        <time>2025-09-13T21:40:22+02:00</time>
      </trkpt>
      <trkpt lat="42.78934" lon="1.33602">
        <ele>743.7002</ele>
        <time>2025-09-13T21:40:23+02:00</time>
      </trkpt>
      <trkpt lat="42.78938" lon="1.336">
        <ele>743.5</ele>
        <time>2025-09-13T21:40:27+02:00</time>
      </trkpt>
      <trkpt lat="42.78938" lon="1.33599">
        <ele>743.5</ele>
        <time>2025-09-13T21:40:28+02:00</time>
      </trkpt>
      <trkpt lat="42.78942" lon="1.33598">
        <ele>743.4004</ele>
        <time>2025-09-13T21:40:32+02:00</time>
      </trkpt>
      <trkpt lat="42.78943" lon="1.33598">
        <ele>743.4004</ele>
        <time>2025-09-13T21:40:33+02:00</time>
      </trkpt>
      <trkpt lat="42.78946" lon="1.33597">
        <ele>743.4004</ele>
        <time>2025-09-13T21:40:37+02:00</time>
      </trkpt>
      <trkpt lat="42.78947" lon="1.33597">
        <ele>743.4004</ele>
        <time>2025-09-13T21:40:38+02:00</time>
      </trkpt>
      <trkpt lat="42.78948" lon="1.33598">
        <ele>743.4004</ele>
        <time>2025-09-13T21:40:42+02:00</time>
      </trkpt>
      <trkpt lat="42.78947" lon="1.33599">
        <ele>743.4004</ele>
        <time>2025-09-13T21:40:43+02:00</time>
      </trkpt>
      <trkpt lat="42.78946" lon="1.33597">
        <ele>743.4004</ele>
        <time>2025-09-13T21:40:47+02:00</time>
      </trkpt>
      <trkpt lat="42.78946" lon="1.33597">
        <ele>743.4004</ele>
        <time>2025-09-13T21:40:48+02:00</time>
      </trkpt>
      <trkpt lat="42.78945" lon="1.33597">
        <ele>743.4004</ele>
        <time>2025-09-13T21:40:52+02:00</time>
      </trkpt>
      <trkpt lat="42.78945" lon="1.33597">
        <ele>743.4004</ele>
        <time>2025-09-13T21:40:53+02:00</time>
      </trkpt>
      <trkpt lat="42.78945" lon="1.33596">
        <ele>743.4004</ele>
        <time>2025-09-13T21:40:57+02:00</time>
      </trkpt>
      <trkpt lat="42.78945" lon="1.33597">
        <ele>743.4004</ele>
        <time>2025-09-13T21:40:58+02:00</time>
      </trkpt>
      <trkpt lat="42.78945" lon="1.33596">
        <ele>743.4004</ele>
        <time>2025-09-13T21:41:02+02:00</time>
      </trkpt>
      <trkpt lat="42.78945" lon="1.33596">
        <ele>743.4004</ele>
        <time>2025-09-13T21:41:03+02:00</time>
      </trkpt>
      <trkpt lat="42.78948" lon="1.33595">
        <ele>743.6006</ele>
        <time>2025-09-13T21:41:07+02:00</time>
      </trkpt>
      <trkpt lat="42.78948" lon="1.33595">
        <ele>743.4004</ele>
        <time>2025-09-13T21:41:08+02:00</time>
      </trkpt>
      <trkpt lat="42.78949" lon="1.33595">
        <ele>743.4004</ele>
        <time>2025-09-13T21:41:12+02:00</time>
      </trkpt>
      <trkpt lat="42.78949" lon="1.33595">
        <ele>743.4004</ele>
        <time>2025-09-13T21:41:13+02:00</time>
      </trkpt>
      <trkpt lat="42.7895" lon="1.33594">
        <ele>743.4004</ele>
        <time>2025-09-13T21:41:17+02:00</time>
      </trkpt>
      <trkpt lat="42.78951" lon="1.33594">
        <ele>743.4004</ele>
        <time>2025-09-13T21:41:18+02:00</time>
      </trkpt>
      <trkpt lat="42.78954" lon="1.33595">
        <ele>743.4004</ele>
        <time>2025-09-13T21:41:22+02:00</time>
      </trkpt>
      <trkpt lat="42.78955" lon="1.33595">
        <ele>743.2002</ele>
        <time>2025-09-13T21:41:23+02:00</time>
      </trkpt>
      <trkpt lat="42.78958" lon="1.33597">
        <ele>743.2002</ele>
        <time>2025-09-13T21:41:27+02:00</time>
      </trkpt>
      <trkpt lat="42.78958" lon="1.33598">
        <ele>743.2002</ele>
        <time>2025-09-13T21:41:28+02:00</time>
      </trkpt>
      <trkpt lat="42.78962" lon="1.33601">
        <ele>743.1006</ele>
        <time>2025-09-13T21:41:32+02:00</time>
      </trkpt>
      <trkpt lat="42.78963" lon="1.33602">
        <ele>743.1006</ele>
        <time>2025-09-13T21:41:33+02:00</time>
      </trkpt>
      <trkpt lat="42.78967" lon="1.33605">
        <ele>743.1006</ele>
        <time>2025-09-13T21:41:37+02:00</time>
      </trkpt>
      <trkpt lat="42.78968" lon="1.33606">
        <ele>743.1006</ele>
        <time>2025-09-13T21:41:38+02:00</time>
      </trkpt>
      <trkpt lat="42.78973" lon="1.33609">
        <ele>743.1006</ele>
        <time>2025-09-13T21:41:42+02:00</time>
      </trkpt>
      <trkpt lat="42.78973" lon="1.33609">
        <ele>743</ele>
        <time>2025-09-13T21:41:43+02:00</time>
      </trkpt>
      <trkpt lat="42.78977" lon="1.33611">
        <ele>743</ele>
        <time>2025-09-13T21:41:47+02:00</time>
      </trkpt>
      <trkpt lat="42.78978" lon="1.33612">
        <ele>743</ele>
        <time>2025-09-13T21:41:48+02:00</time>
      </trkpt>
      <trkpt lat="42.78979" lon="1.33614">
        <ele>743.2002</ele>
        <time>2025-09-13T21:41:52+02:00</time>
      </trkpt>
      <trkpt lat="42.7898" lon="1.33614">
        <ele>743</ele>
        <time>2025-09-13T21:41:53+02:00</time>
      </trkpt>
      <trkpt lat="42.78981" lon="1.33618">
        <ele>743</ele>
        <time>2025-09-13T21:41:57+02:00</time>
      </trkpt>
      <trkpt lat="42.78982" lon="1.3362">
        <ele>743</ele>
        <time>2025-09-13T21:41:58+02:00</time>
      </trkpt>
      <trkpt lat="42.78984" lon="1.33624">
        <ele>743.2998</ele>
        <time>2025-09-13T21:42:02+02:00</time>
      </trkpt>
      <trkpt lat="42.78985" lon="1.33625">
        <ele>743.2998</ele>
        <time>2025-09-13T21:42:03+02:00</time>
      </trkpt>
      <trkpt lat="42.78987" lon="1.3363">
        <ele>743.2002</ele>
        <time>2025-09-13T21:42:07+02:00</time>
      </trkpt>
      <trkpt lat="42.78987" lon="1.33631">
        <ele>743.5</ele>
        <time>2025-09-13T21:42:08+02:00</time>
      </trkpt>
      <trkpt lat="42.78988" lon="1.33636">
        <ele>743.5</ele>
        <time>2025-09-13T21:42:12+02:00</time>
      </trkpt>
      <trkpt lat="42.78987" lon="1.33637">
        <ele>743.5</ele>
        <time>2025-09-13T21:42:13+02:00</time>
      </trkpt>
      <trkpt lat="42.78984" lon="1.3364">
        <ele>743.9004</ele>
        <time>2025-09-13T21:42:17+02:00</time>
      </trkpt>
      <trkpt lat="42.78983" lon="1.33641">
        <ele>743.9004</ele>
        <time>2025-09-13T21:42:18+02:00</time>
      </trkpt>
      <trkpt lat="42.78982" lon="1.33639">
        <ele>743.9004</ele>
        <time>2025-09-13T21:42:22+02:00</time>
      </trkpt>
      <trkpt lat="42.78982" lon="1.33639">
        <ele>743.9004</ele>
        <time>2025-09-13T21:42:23+02:00</time>
      </trkpt>
      <trkpt lat="42.78982" lon="1.33638">
        <ele>743.6006</ele>
        <time>2025-09-13T21:42:27+02:00</time>
      </trkpt>
      <trkpt lat="42.78982" lon="1.33638">
        <ele>743.6006</ele>
        <time>2025-09-13T21:42:28+02:00</time>
      </trkpt>
      <trkpt lat="42.78981" lon="1.33638">
        <ele>743.6006</ele>
        <time>2025-09-13T21:42:32+02:00</time>
      </trkpt>
      <trkpt lat="42.7898" lon="1.33638">
        <ele>743.6006</ele>
        <time>2025-09-13T21:42:33+02:00</time>
      </trkpt>
      <trkpt lat="42.78978" lon="1.33636">
        <ele>743.7002</ele>
        <time>2025-09-13T21:42:37+02:00</time>
      </trkpt>
      <trkpt lat="42.78977" lon="1.33635">
        <ele>743.7002</ele>
        <time>2025-09-13T21:42:38+02:00</time>
      </trkpt>
      <trkpt lat="42.78973" lon="1.33632">
        <ele>743.7002</ele>
        <time>2025-09-13T21:42:42+02:00</time>
      </trkpt>
      <trkpt lat="42.78972" lon="1.33632">
        <ele>743.7002</ele>
        <time>2025-09-13T21:42:43+02:00</time>
      </trkpt>
      <trkpt lat="42.78971" lon="1.33636">
        <ele>743.7002</ele>
        <time>2025-09-13T21:42:47+02:00</time>
      </trkpt>
      <trkpt lat="42.78971" lon="1.33637">
        <ele>743.7002</ele>
        <time>2025-09-13T21:42:48+02:00</time>
      </trkpt>
      <trkpt lat="42.78973" lon="1.33638">
        <ele>743.7002</ele>
        <time>2025-09-13T21:42:52+02:00</time>
      </trkpt>
      <trkpt lat="42.78973" lon="1.33638">
        <ele>743.7002</ele>
        <time>2025-09-13T21:42:55+02:00</time>
      </trkpt>
      <trkpt lat="42.78973" lon="1.33638">
        <ele>743.7002</ele>
        <time>2025-09-13T21:43:03+02:00</time>
      </trkpt>
      <trkpt lat="42.78973" lon="1.33635">
        <ele>743.7002</ele>
        <time>2025-09-13T21:43:05+02:00</time>
      </trkpt>
      <trkpt lat="42.78974" lon="1.3363">
        <ele>743.4004</ele>
        <time>2025-09-13T21:43:09+02:00</time>
      </trkpt>
      <trkpt lat="42.78974" lon="1.3363">
        <ele>743.4004</ele>
        <time>2025-09-13T21:43:10+02:00</time>
      </trkpt>
      <trkpt lat="42.78974" lon="1.33629">
        <ele>743.4004</ele>
        <time>2025-09-13T21:43:14+02:00</time>
      </trkpt>
      <trkpt lat="42.78974" lon="1.33629">
        <ele>743.4004</ele>
        <time>2025-09-13T21:43:15+02:00</time>
      </trkpt>
      <trkpt lat="42.78975" lon="1.33631">
        <ele>743.7002</ele>
        <time>2025-09-13T21:43:19+02:00</time>
      </trkpt>
      <trkpt lat="42.78976" lon="1.33631">
        <ele>743.7002</ele>
        <time>2025-09-13T21:43:20+02:00</time>
      </trkpt>
      <trkpt lat="42.78976" lon="1.33631">
        <ele>743.7002</ele>
        <time>2025-09-13T21:43:24+02:00</time>
      </trkpt>
      <trkpt lat="42.78975" lon="1.3363">
        <ele>743.7002</ele>
        <time>2025-09-13T21:43:25+02:00</time>
      </trkpt>
      <trkpt lat="42.78976" lon="1.33631">
        <ele>743.7002</ele>
        <time>2025-09-13T21:43:29+02:00</time>
      </trkpt>
      <trkpt lat="42.78976" lon="1.33631">
        <ele>743.7002</ele>
        <time>2025-09-13T21:43:30+02:00</time>
      </trkpt>
      <trkpt lat="42.78976" lon="1.33631">
        <ele>743.7002</ele>
        <time>2025-09-13T21:43:34+02:00</time>
      </trkpt>
      <trkpt lat="42.78976" lon="1.33631">
        <ele>743.7002</ele>
        <time>2025-09-13T21:43:35+02:00</time>
      </trkpt>
      <trkpt lat="42.78976" lon="1.33631">
        <ele>743.7002</ele>
        <time>2025-09-13T21:43:39+02:00</time>
      </trkpt>
      <trkpt lat="42.78976" lon="1.33631">
        <ele>743.7002</ele>
        <time>2025-09-13T21:43:40+02:00</time>
      </trkpt>
      <trkpt lat="42.78977" lon="1.33632">
        <ele>743.7002</ele>
        <time>2025-09-13T21:43:44+02:00</time>
      </trkpt>
      <trkpt lat="42.78977" lon="1.33632">
        <ele>743.7002</ele>
        <time>2025-09-13T21:43:45+02:00</time>
      </trkpt>
      <trkpt lat="42.78977" lon="1.33633">
        <ele>743.7002</ele>
        <time>2025-09-13T21:43:49+02:00</time>
      </trkpt>
      <trkpt lat="42.78977" lon="1.33633">
        <ele>743.7002</ele>
        <time>2025-09-13T21:43:50+02:00</time>
      </trkpt>
      <trkpt lat="42.78973" lon="1.33637">
        <ele>743.7002</ele>
        <time>2025-09-13T21:43:54+02:00</time>
      </trkpt>
      <trkpt lat="42.78973" lon="1.33639">
        <ele>744</ele>
        <time>2025-09-13T21:43:55+02:00</time>
      </trkpt>
      <trkpt lat="42.78974" lon="1.33641">
        <ele>744</ele>
        <time>2025-09-13T21:43:59+02:00</time>
      </trkpt>
      <trkpt lat="42.78974" lon="1.33641">
        <ele>744</ele>
        <time>2025-09-13T21:44:00+02:00</time>
      </trkpt>
      <trkpt lat="42.78974" lon="1.33642">
        <ele>744</ele>
        <time>2025-09-13T21:44:04+02:00</time>
      </trkpt>
      <trkpt lat="42.78974" lon="1.33642">
        <ele>744</ele>
        <time>2025-09-13T21:44:05+02:00</time>
      </trkpt>
      <trkpt lat="42.78974" lon="1.33642">
        <ele>744</ele>
        <time>2025-09-13T21:44:09+02:00</time>
      </trkpt>
      <trkpt lat="42.78974" lon="1.33642">
        <ele>744</ele>
        <time>2025-09-13T21:44:10+02:00</time>
      </trkpt>
      <trkpt lat="42.78974" lon="1.33642">
        <ele>744</ele>
        <time>2025-09-13T21:44:14+02:00</time>
      </trkpt>
      <trkpt lat="42.78974" lon="1.33642">
        <ele>744</ele>
        <time>2025-09-13T21:44:15+02:00</time>
      </trkpt>
      <trkpt lat="42.78974" lon="1.33642">
        <ele>744</ele>
        <time>2025-09-13T21:44:19+02:00</time>
      </trkpt>
      <trkpt lat="42.78974" lon="1.33642">
        <ele>744</ele>
        <time>2025-09-13T21:44:20+02:00</time>
      </trkpt>
      <trkpt lat="42.78975" lon="1.33642">
        <ele>744</ele>
        <time>2025-09-13T21:44:24+02:00</time>
      </trkpt>
      <trkpt lat="42.78976" lon="1.33641">
        <ele>744</ele>
        <time>2025-09-13T21:44:25+02:00</time>
      </trkpt>
      <trkpt lat="42.78976" lon="1.33641">
        <ele>744</ele>
        <time>2025-09-13T21:44:29+02:00</time>
      </trkpt>
      <trkpt lat="42.78976" lon="1.33641">
        <ele>744</ele>
        <time>2025-09-13T21:44:30+02:00</time>
      </trkpt>
      <trkpt lat="42.78976" lon="1.33641">
        <ele>744</ele>
        <time>2025-09-13T21:44:34+02:00</time>
      </trkpt>
      <trkpt lat="42.78976" lon="1.33641">
        <ele>744</ele>
        <time>2025-09-13T21:44:35+02:00</time>
      </trkpt>
      <trkpt lat="42.78976" lon="1.33641">
        <ele>744</ele>
        <time>2025-09-13T21:44:39+02:00</time>
      </trkpt>
      <trkpt lat="42.78976" lon="1.33641">
        <ele>744</ele>
        <time>2025-09-13T21:44:40+02:00</time>
      </trkpt>
      <trkpt lat="42.78976" lon="1.33641">
        <ele>744</ele>
        <time>2025-09-13T21:44:44+02:00</time>
      </trkpt>
      <trkpt lat="42.78976" lon="1.33641">
        <ele>744</ele>
        <time>2025-09-13T21:44:45+02:00</time>
      </trkpt>
      <trkpt lat="42.78976" lon="1.33641">
        <ele>744</ele>
        <time>2025-09-13T21:44:49+02:00</time>
      </trkpt>
      <trkpt lat="42.78976" lon="1.33641">
        <ele>744</ele>
        <time>2025-09-13T21:44:50+02:00</time>
      </trkpt>
      <trkpt lat="42.78976" lon="1.33641">
        <ele>744</ele>
        <time>2025-09-13T21:44:54+02:00</time>
      </trkpt>
      <trkpt lat="42.78976" lon="1.33641">
        <ele>744</ele>
        <time>2025-09-13T21:44:55+02:00</time>
      </trkpt>
      <trkpt lat="42.78976" lon="1.33641">
        <ele>744</ele>
        <time>2025-09-13T21:44:59+02:00</time>
      </trkpt>
      <trkpt lat="42.78976" lon="1.33641">
        <ele>744</ele>
        <time>2025-09-13T21:45:00+02:00</time>
      </trkpt>
      <trkpt lat="42.78976" lon="1.33641">
        <ele>744</ele>
        <time>2025-09-13T21:45:04+02:00</time>
      </trkpt>
      <trkpt lat="42.78976" lon="1.33641">
        <ele>744</ele>
        <time>2025-09-13T21:45:05+02:00</time>
      </trkpt>
      <trkpt lat="42.78977" lon="1.3364">
        <ele>744</ele>
        <time>2025-09-13T21:45:09+02:00</time>
      </trkpt>
      <trkpt lat="42.78977" lon="1.3364">
        <ele>744</ele>
        <time>2025-09-13T21:45:10+02:00</time>
      </trkpt>
      <trkpt lat="42.78976" lon="1.33641">
        <ele>744</ele>
        <time>2025-09-13T21:45:14+02:00</time>
      </trkpt>
      <trkpt lat="42.78976" lon="1.33641">
        <ele>744</ele>
        <time>2025-09-13T21:45:15+02:00</time>
      </trkpt>
      <trkpt lat="42.78976" lon="1.33641">
        <ele>744</ele>
        <time>2025-09-13T21:45:19+02:00</time>
      </trkpt>
      <trkpt lat="42.78976" lon="1.33641">
        <ele>744</ele>
        <time>2025-09-13T21:45:20+02:00</time>
      </trkpt>
      <trkpt lat="42.78976" lon="1.33641">
        <ele>744</ele>
        <time>2025-09-13T21:45:24+02:00</time>
      </trkpt>
      <trkpt lat="42.78976" lon="1.33641">
        <ele>744</ele>
        <time>2025-09-13T21:45:25+02:00</time>
      </trkpt>
      <trkpt lat="42.78976" lon="1.33641">
        <ele>744</ele>
        <time>2025-09-13T21:45:29+02:00</time>
      </trkpt>
      <trkpt lat="42.78976" lon="1.33641">
        <ele>744</ele>
        <time>2025-09-13T21:45:30+02:00</time>
      </trkpt>
      <trkpt lat="42.78976" lon="1.33641">
        <ele>744</ele>
        <time>2025-09-13T21:45:34+02:00</time>
      </trkpt>
      <trkpt lat="42.78976" lon="1.33641">
        <ele>744</ele>
        <time>2025-09-13T21:45:35+02:00</time>
      </trkpt>
      <trkpt lat="42.78976" lon="1.33641">
        <ele>744</ele>
        <time>2025-09-13T21:45:39+02:00</time>
      </trkpt>
      <trkpt lat="42.78976" lon="1.33641">
        <ele>744</ele>
        <time>2025-09-13T21:45:40+02:00</time>
      </trkpt>
      <trkpt lat="42.78976" lon="1.33641">
        <ele>744</ele>
        <time>2025-09-13T21:45:44+02:00</time>
      </trkpt>
      <trkpt lat="42.78976" lon="1.33641">
        <ele>744</ele>
        <time>2025-09-13T21:45:45+02:00</time>
      </trkpt>
      <trkpt lat="42.78976" lon="1.33641">
        <ele>744</ele>
        <time>2025-09-13T21:45:49+02:00</time>
      </trkpt>
      <trkpt lat="42.78976" lon="1.33641">
        <ele>744</ele>
        <time>2025-09-13T21:45:50+02:00</time>
      </trkpt>
      <trkpt lat="42.78976" lon="1.33641">
        <ele>744</ele>
        <time>2025-09-13T21:45:54+02:00</time>
      </trkpt>
      <trkpt lat="42.78976" lon="1.33641">
        <ele>744</ele>
        <time>2025-09-13T21:45:55+02:00</time>
      </trkpt>
      <trkpt lat="42.78976" lon="1.33641">
        <ele>744</ele>
        <time>2025-09-13T21:45:59+02:00</time>
      </trkpt>
      <trkpt lat="42.78976" lon="1.33641">
        <ele>744</ele>
        <time>2025-09-13T21:46:00+02:00</time>
      </trkpt>
      <trkpt lat="42.78976" lon="1.33641">
        <ele>744</ele>
        <time>2025-09-13T21:46:04+02:00</time>
      </trkpt>
      <trkpt lat="42.78976" lon="1.33641">
        <ele>744</ele>
        <time>2025-09-13T21:46:05+02:00</time>
      </trkpt>
      <trkpt lat="42.78976" lon="1.33641">
        <ele>744</ele>
        <time>2025-09-13T21:46:09+02:00</time>
      </trkpt>
      <trkpt lat="42.78976" lon="1.33641">
        <ele>744</ele>
        <time>2025-09-13T21:46:10+02:00</time>
      </trkpt>
      <trkpt lat="42.78978" lon="1.33641">
        <ele>744</ele>
        <time>2025-09-13T21:46:14+02:00</time>
      </trkpt>
      <trkpt lat="42.78978" lon="1.33641">
        <ele>744</ele>
        <time>2025-09-13T21:46:15+02:00</time>
      </trkpt>
      <trkpt lat="42.78979" lon="1.33641">
        <ele>744</ele>
        <time>2025-09-13T21:46:19+02:00</time>
      </trkpt>
      <trkpt lat="42.78979" lon="1.33641">
        <ele>744</ele>
        <time>2025-09-13T21:46:20+02:00</time>
      </trkpt>
      <trkpt lat="42.78979" lon="1.3364">
        <ele>744</ele>
        <time>2025-09-13T21:46:24+02:00</time>
      </trkpt>
      <trkpt lat="42.78979" lon="1.3364">
        <ele>744</ele>
        <time>2025-09-13T21:46:25+02:00</time>
      </trkpt>
      <trkpt lat="42.78979" lon="1.33639">
        <ele>744</ele>
        <time>2025-09-13T21:46:29+02:00</time>
      </trkpt>
      <trkpt lat="42.78979" lon="1.33638">
        <ele>744</ele>
        <time>2025-09-13T21:46:30+02:00</time>
      </trkpt>
      <trkpt lat="42.78976" lon="1.33639">
        <ele>744</ele>
        <time>2025-09-13T21:46:34+02:00</time>
      </trkpt>
      <trkpt lat="42.78974" lon="1.33639">
        <ele>744</ele>
        <time>2025-09-13T21:46:35+02:00</time>
      </trkpt>
      <trkpt lat="42.78966" lon="1.33639">
        <ele>743.7998</ele>
        <time>2025-09-13T21:46:39+02:00</time>
      </trkpt>
      <trkpt lat="42.78965" lon="1.33639">
        <ele>743.7998</ele>
        <time>2025-09-13T21:46:40+02:00</time>
      </trkpt>
      <trkpt lat="42.78965" lon="1.3364">
        <ele>743.7998</ele>
        <time>2025-09-13T21:46:44+02:00</time>
      </trkpt>
      <trkpt lat="42.78966" lon="1.33641">
        <ele>743.7998</ele>
        <time>2025-09-13T21:46:45+02:00</time>
      </trkpt>
      <trkpt lat="42.78967" lon="1.33641">
        <ele>743.7998</ele>
        <time>2025-09-13T21:46:49+02:00</time>
      </trkpt>
      <trkpt lat="42.78967" lon="1.33641">
        <ele>743.7998</ele>
        <time>2025-09-13T21:46:50+02:00</time>
      </trkpt>
      <trkpt lat="42.78967" lon="1.33642">
        <ele>743.9004</ele>
        <time>2025-09-13T21:46:54+02:00</time>
      </trkpt>
      <trkpt lat="42.78967" lon="1.33642">
        <ele>743.9004</ele>
        <time>2025-09-13T21:46:55+02:00</time>
      </trkpt>
      <trkpt lat="42.78967" lon="1.33642">
        <ele>743.9004</ele>
        <time>2025-09-13T21:46:59+02:00</time>
      </trkpt>
      <trkpt lat="42.78967" lon="1.33642">
        <ele>743.9004</ele>
        <time>2025-09-13T21:47:00+02:00</time>
      </trkpt>
      <trkpt lat="42.78967" lon="1.33642">
        <ele>743.9004</ele>
        <time>2025-09-13T21:47:04+02:00</time>
      </trkpt>
      <trkpt lat="42.78967" lon="1.33642">
        <ele>743.9004</ele>
        <time>2025-09-13T21:47:05+02:00</time>
      </trkpt>
      <trkpt lat="42.78966" lon="1.3364">
        <ele>743.7998</ele>
        <time>2025-09-13T21:47:09+02:00</time>
      </trkpt>
      <trkpt lat="42.78966" lon="1.3364">
        <ele>743.7998</ele>
        <time>2025-09-13T21:47:10+02:00</time>
      </trkpt>
      <trkpt lat="42.78971" lon="1.33637">
        <ele>743.7002</ele>
        <time>2025-09-13T21:47:14+02:00</time>
      </trkpt>
      <trkpt lat="42.78971" lon="1.33637">
        <ele>743.7002</ele>
        <time>2025-09-13T21:47:15+02:00</time>
      </trkpt>
      <trkpt lat="42.78972" lon="1.33636">
        <ele>743.7002</ele>
        <time>2025-09-13T21:47:19+02:00</time>
      </trkpt>
      <trkpt lat="42.78973" lon="1.33636">
        <ele>743.7002</ele>
        <time>2025-09-13T21:47:20+02:00</time>
      </trkpt>
      <trkpt lat="42.78973" lon="1.33636">
        <ele>743.7002</ele>
        <time>2025-09-13T21:47:24+02:00</time>
      </trkpt>
      <trkpt lat="42.78973" lon="1.33636">
        <ele>743.7002</ele>
        <time>2025-09-13T21:47:25+02:00</time>
      </trkpt>
      <trkpt lat="42.78972" lon="1.33636">
        <ele>743.7002</ele>
        <time>2025-09-13T21:47:29+02:00</time>
      </trkpt>
      <trkpt lat="42.78972" lon="1.33636">
        <ele>743.7002</ele>
        <time>2025-09-13T21:47:30+02:00</time>
      </trkpt>
      <trkpt lat="42.78973" lon="1.33635">
        <ele>743.7002</ele>
        <time>2025-09-13T21:47:34+02:00</time>
      </trkpt>
      <trkpt lat="42.78973" lon="1.33634">
        <ele>743.7002</ele>
        <time>2025-09-13T21:47:35+02:00</time>
      </trkpt>
      <trkpt lat="42.78975" lon="1.33634">
        <ele>743.7002</ele>
        <time>2025-09-13T21:47:39+02:00</time>
      </trkpt>
      <trkpt lat="42.78975" lon="1.33635">
        <ele>743.7002</ele>
        <time>2025-09-13T21:47:40+02:00</time>
      </trkpt>
      <trkpt lat="42.78975" lon="1.33635">
        <ele>743.7002</ele>
        <time>2025-09-13T21:47:44+02:00</time>
      </trkpt>
      <trkpt lat="42.78975" lon="1.33635">
        <ele>743.7002</ele>
        <time>2025-09-13T21:47:45+02:00</time>
      </trkpt>
      <trkpt lat="42.78975" lon="1.33636">
        <ele>743.7002</ele>
        <time>2025-09-13T21:47:49+02:00</time>
      </trkpt>
      <trkpt lat="42.78975" lon="1.33637">
        <ele>743.7002</ele>
        <time>2025-09-13T21:47:50+02:00</time>
      </trkpt>
      <trkpt lat="42.78976" lon="1.3364">
        <ele>744</ele>
        <time>2025-09-13T21:47:54+02:00</time>
      </trkpt>
      <trkpt lat="42.78976" lon="1.3364">
        <ele>744</ele>
        <time>2025-09-13T21:47:55+02:00</time>
      </trkpt>
      <trkpt lat="42.78976" lon="1.3364">
        <ele>744</ele>
        <time>2025-09-13T21:47:59+02:00</time>
      </trkpt>
      <trkpt lat="42.78976" lon="1.3364">
        <ele>744</ele>
        <time>2025-09-13T21:48:00+02:00</time>
      </trkpt>
      <trkpt lat="42.7898" lon="1.3364">
        <ele>743.9004</ele>
        <time>2025-09-13T21:48:04+02:00</time>
      </trkpt>
      <trkpt lat="42.7898" lon="1.3364">
        <ele>743.9004</ele>
        <time>2025-09-13T21:48:05+02:00</time>
      </trkpt>
      <trkpt lat="42.78981" lon="1.3364">
        <ele>743.9004</ele>
        <time>2025-09-13T21:48:14+02:00</time>
      </trkpt>
      <trkpt lat="42.78985" lon="1.3364">
        <ele>743.9004</ele>
        <time>2025-09-13T21:48:19+02:00</time>
      </trkpt>
      <trkpt lat="42.78983" lon="1.33638">
        <ele>743.6006</ele>
        <time>2025-09-13T21:48:23+02:00</time>
      </trkpt>
      <trkpt lat="42.78982" lon="1.33636">
        <ele>743.6006</ele>
        <time>2025-09-13T21:48:24+02:00</time>
      </trkpt>
      <trkpt lat="42.78982" lon="1.33636">
        <ele>743.6006</ele>
        <time>2025-09-13T21:48:28+02:00</time>
      </trkpt>
      <trkpt lat="42.78983" lon="1.33636">
        <ele>743.6006</ele>
        <time>2025-09-13T21:48:29+02:00</time>
      </trkpt>
      <trkpt lat="42.78983" lon="1.33637">
        <ele>743.6006</ele>
        <time>2025-09-13T21:48:33+02:00</time>
      </trkpt>
      <trkpt lat="42.78983" lon="1.33637">
        <ele>743.6006</ele>
        <time>2025-09-13T21:48:34+02:00</time>
      </trkpt>
      <trkpt lat="42.78983" lon="1.33638">
        <ele>743.6006</ele>
        <time>2025-09-13T21:48:38+02:00</time>
      </trkpt>
      <trkpt lat="42.78984" lon="1.33638">
        <ele>743.6006</ele>
        <time>2025-09-13T21:48:39+02:00</time>
      </trkpt>
      <trkpt lat="42.78985" lon="1.33638">
        <ele>743.9004</ele>
        <time>2025-09-13T21:48:43+02:00</time>
      </trkpt>
      <trkpt lat="42.78985" lon="1.33638">
        <ele>743.9004</ele>
        <time>2025-09-13T21:48:44+02:00</time>
      </trkpt>
      <trkpt lat="42.78987" lon="1.33639">
        <ele>743.7998</ele>
        <time>2025-09-13T21:48:48+02:00</time>
      </trkpt>
      <trkpt lat="42.78987" lon="1.33639">
        <ele>743.7998</ele>
        <time>2025-09-13T21:48:49+02:00</time>
      </trkpt>
      <trkpt lat="42.78987" lon="1.33639">
        <ele>743.7998</ele>
        <time>2025-09-13T21:48:53+02:00</time>
      </trkpt>
      <trkpt lat="42.78987" lon="1.33639">
        <ele>743.7998</ele>
        <time>2025-09-13T21:48:54+02:00</time>
      </trkpt>
      <trkpt lat="42.78987" lon="1.33638">
        <ele>743.7998</ele>
        <time>2025-09-13T21:48:58+02:00</time>
      </trkpt>
      <trkpt lat="42.78987" lon="1.33638">
        <ele>743.7998</ele>
        <time>2025-09-13T21:48:59+02:00</time>
      </trkpt>
      <trkpt lat="42.78987" lon="1.33638">
        <ele>743.5</ele>
        <time>2025-09-13T21:49:03+02:00</time>
      </trkpt>
      <trkpt lat="42.78987" lon="1.33638">
        <ele>743.5</ele>
        <time>2025-09-13T21:49:04+02:00</time>
      </trkpt>
      <trkpt lat="42.78987" lon="1.33638">
        <ele>743.5</ele>
        <time>2025-09-13T21:49:08+02:00</time>
      </trkpt>
      <trkpt lat="42.78987" lon="1.33638">
        <ele>743.5</ele>
        <time>2025-09-13T21:49:09+02:00</time>
      </trkpt>
      <trkpt lat="42.78987" lon="1.33638">
        <ele>743.5</ele>
        <time>2025-09-13T21:49:13+02:00</time>
      </trkpt>
      <trkpt lat="42.78987" lon="1.33638">
        <ele>743.5</ele>
        <time>2025-09-13T21:49:14+02:00</time>
      </trkpt>
      <trkpt lat="42.78987" lon="1.33638">
        <ele>743.5</ele>
        <time>2025-09-13T21:49:18+02:00</time>
      </trkpt>
      <trkpt lat="42.78987" lon="1.33638">
        <ele>743.5</ele>
        <time>2025-09-13T21:49:19+02:00</time>
      </trkpt>
      <trkpt lat="42.78987" lon="1.33638">
        <ele>743.5</ele>
        <time>2025-09-13T21:49:23+02:00</time>
      </trkpt>
      <trkpt lat="42.78987" lon="1.33638">
        <ele>743.5</ele>
        <time>2025-09-13T21:49:24+02:00</time>
      </trkpt>
      <trkpt lat="42.78987" lon="1.33638">
        <ele>743.5</ele>
        <time>2025-09-13T21:49:28+02:00</time>
      </trkpt>
      <trkpt lat="42.78987" lon="1.33638">
        <ele>743.5</ele>
        <time>2025-09-13T21:49:29+02:00</time>
      </trkpt>
      <trkpt lat="42.78987" lon="1.33638">
        <ele>743.5</ele>
        <time>2025-09-13T21:49:33+02:00</time>
      </trkpt>
      <trkpt lat="42.78987" lon="1.33638">
        <ele>743.5</ele>
        <time>2025-09-13T21:49:34+02:00</time>
      </trkpt>
      <trkpt lat="42.78987" lon="1.33638">
        <ele>743.5</ele>
        <time>2025-09-13T21:49:38+02:00</time>
      </trkpt>
      <trkpt lat="42.78987" lon="1.33638">
        <ele>743.5</ele>
        <time>2025-09-13T21:49:39+02:00</time>
      </trkpt>
      <trkpt lat="42.78987" lon="1.33638">
        <ele>743.5</ele>
        <time>2025-09-13T21:49:43+02:00</time>
      </trkpt>
      <trkpt lat="42.78987" lon="1.33638">
        <ele>743.5</ele>
        <time>2025-09-13T21:49:44+02:00</time>
      </trkpt>
      <trkpt lat="42.78987" lon="1.33638">
        <ele>743.5</ele>
        <time>2025-09-13T21:49:48+02:00</time>
      </trkpt>
      <trkpt lat="42.78987" lon="1.33638">
        <ele>743.5</ele>
        <time>2025-09-13T21:49:49+02:00</time>
      </trkpt>
      <trkpt lat="42.78987" lon="1.33638">
        <ele>743.5</ele>
        <time>2025-09-13T21:49:53+02:00</time>
      </trkpt>
      <trkpt lat="42.78987" lon="1.33638">
        <ele>743.5</ele>
        <time>2025-09-13T21:49:54+02:00</time>
      </trkpt>
      <trkpt lat="42.78987" lon="1.33638">
        <ele>743.5</ele>
        <time>2025-09-13T21:49:58+02:00</time>
      </trkpt>
      <trkpt lat="42.78987" lon="1.33638">
        <ele>743.5</ele>
        <time>2025-09-13T21:49:59+02:00</time>
      </trkpt>
      <trkpt lat="42.78987" lon="1.33638">
        <ele>743.5</ele>
        <time>2025-09-13T21:50:03+02:00</time>
      </trkpt>
      <trkpt lat="42.78987" lon="1.33638">
        <ele>743.5</ele>
        <time>2025-09-13T21:50:04+02:00</time>
      </trkpt>
      <trkpt lat="42.78986" lon="1.33637">
        <ele>743.5</ele>
        <time>2025-09-13T21:50:08+02:00</time>
      </trkpt>
      <trkpt lat="42.78986" lon="1.33637">
        <ele>743.5</ele>
        <time>2025-09-13T21:50:09+02:00</time>
      </trkpt>
      <trkpt lat="42.78986" lon="1.33637">
        <ele>743.5</ele>
        <time>2025-09-13T21:50:13+02:00</time>
      </trkpt>
      <trkpt lat="42.78986" lon="1.33637">
        <ele>743.5</ele>
        <time>2025-09-13T21:50:14+02:00</time>
      </trkpt>
      <trkpt lat="42.78986" lon="1.33637">
        <ele>743.6006</ele>
        <time>2025-09-13T21:50:18+02:00</time>
      </trkpt>
      <trkpt lat="42.78986" lon="1.33637">
        <ele>743.6006</ele>
        <time>2025-09-13T21:50:19+02:00</time>
      </trkpt>
      <trkpt lat="42.78987" lon="1.33637">
        <ele>743.5</ele>
        <time>2025-09-13T21:50:23+02:00</time>
      </trkpt>
      <trkpt lat="42.78988" lon="1.33639">
        <ele>743.7998</ele>
        <time>2025-09-13T21:50:24+02:00</time>
      </trkpt>
      <trkpt lat="42.78987" lon="1.33647">
        <ele>744.1006</ele>
        <time>2025-09-13T21:50:28+02:00</time>
      </trkpt>
      <trkpt lat="42.78986" lon="1.33649">
        <ele>744.1006</ele>
        <time>2025-09-13T21:50:29+02:00</time>
      </trkpt>
      <trkpt lat="42.78984" lon="1.3365">
        <ele>744.2002</ele>
        <time>2025-09-13T21:50:33+02:00</time>
      </trkpt>
      <trkpt lat="42.78984" lon="1.3365">
        <ele>744.2002</ele>
        <time>2025-09-13T21:50:34+02:00</time>
      </trkpt>
      <trkpt lat="42.78984" lon="1.3365">
        <ele>744.2002</ele>
        <time>2025-09-13T21:50:36+02:00</time>
      </trkpt>
    </trkseg>
  </trk>
</gpx>